<?xml version='1.0' encoding='UTF-8'?><gpx version="1.1" creator="JPX - https://github.com/jenetics/jpx" xmlns="http://www.topografix.com/GPX/1/1"><trk><trkseg><trkpt lat="38.06009957684681" lon="15.661337496724139"><ele>43.0</ele><time>2026-04-25T07:35:46Z</time></trkpt><trkpt lat="38.0600301610042" lon="15.66134213121854"><ele>43.0</ele><time>2026-04-25T07:35:49Z</time></trkpt><trkpt lat="38.05996483137752" lon="15.661320526347348"><ele>43.0</ele><time>2026-04-25T07:35:52Z</time></trkpt><trkpt lat="38.05989623661606" lon="15.661262236108271"><ele>43.0</ele><time>2026-04-25T07:36:30Z</time></trkpt><trkpt lat="38.059815210376165" lon="15.661220988593454"><ele>43.0</ele><time>2026-04-25T07:36:31Z</time></trkpt><trkpt lat="38.059714474169006" lon="15.661177476572783"><ele>43.0</ele><time>2026-04-25T07:36:32Z</time></trkpt><trkpt lat="38.059586516558504" lon="15.66111255626765"><ele>41.0</ele><time>2026-04-25T07:36:33Z</time></trkpt><trkpt lat="38.0594237839028" lon="15.661029083932803"><ele>39.0</ele><time>2026-04-25T07:36:34Z</time></trkpt><trkpt lat="38.059220995538944" lon="15.66090940078576"><ele>37.0</ele><time>2026-04-25T07:36:35Z</time></trkpt><trkpt lat="38.059005406452165" lon="15.66077493543772"><ele>36.66666666666667</ele><time>2026-04-25T07:36:36Z</time></trkpt><trkpt lat="38.058858356034534" lon="15.6606375640767"><ele>36.333333333333336</ele><time>2026-04-25T07:36:37Z</time></trkpt><trkpt lat="38.05878238194866" lon="15.66046435270651"><ele>36.0</ele><time>2026-04-25T07:36:38Z</time></trkpt><trkpt lat="38.05869080721634" lon="15.660344006100532"><ele>35.5</ele><time>2026-04-25T07:36:39Z</time></trkpt><trkpt lat="38.05862139288793" lon="15.660240447130576"><ele>35.0</ele><time>2026-04-25T07:36:40Z</time></trkpt><trkpt lat="38.058568062610576" lon="15.66015618113196"><ele>34.5</ele><time>2026-04-25T07:36:41Z</time></trkpt><trkpt lat="38.05839210480973" lon="15.66022446312731"><ele>34.0</ele><time>2026-04-25T07:36:42Z</time></trkpt><trkpt lat="38.05829471498893" lon="15.660218167041016"><ele>34.0</ele><time>2026-04-25T07:36:43Z</time></trkpt><trkpt lat="38.058215028825536" lon="15.660213045974096"><ele>34.0</ele><time>2026-04-25T07:36:44Z</time></trkpt><trkpt lat="38.05814522607518" lon="15.660179033350646"><ele>34.0</ele><time>2026-04-25T07:36:45Z</time></trkpt><trkpt lat="38.058053689579985" lon="15.66012073694678"><ele>34.0</ele><time>2026-04-25T07:36:47Z</time></trkpt><trkpt lat="38.05799802964899" lon="15.660279429758841"><ele>34.0</ele><time>2026-04-25T07:37:05.999Z</time></trkpt><trkpt lat="38.0579797043249" lon="15.66040990022837"><ele>34.66666666666667</ele><time>2026-04-25T07:37:07.999Z</time></trkpt><trkpt lat="38.057970255936674" lon="15.660495876495297"><ele>35.333333333333336</ele><time>2026-04-25T07:37:08.999Z</time></trkpt><trkpt lat="38.05795940478539" lon="15.660591223769858"><ele>36.0</ele><time>2026-04-25T07:37:09.999Z</time></trkpt><trkpt lat="38.05794696976751" lon="15.660698369725786"><ele>36.666666666666664</ele><time>2026-04-25T07:37:10.999Z</time></trkpt><trkpt lat="38.057933838408374" lon="15.660810715810705"><ele>37.33333333333333</ele><time>2026-04-25T07:37:11.999Z</time></trkpt><trkpt lat="38.05792709160789" lon="15.660932950571386"><ele>38.0</ele><time>2026-04-25T07:37:12.999Z</time></trkpt><trkpt lat="38.05790651724976" lon="15.661055154852432"><ele>38.8</ele><time>2026-04-25T07:37:13.999Z</time></trkpt><trkpt lat="38.05789440686119" lon="15.661170668839997"><ele>39.599999999999994</ele><time>2026-04-25T07:37:14.999Z</time></trkpt><trkpt lat="38.05786713541895" lon="15.66129172707158"><ele>40.400000000000006</ele><time>2026-04-25T07:37:15.999Z</time></trkpt><trkpt lat="38.05783059094529" lon="15.661413092103196"><ele>41.2</ele><time>2026-04-25T07:37:16.999Z</time></trkpt><trkpt lat="38.057806233729465" lon="15.661540072853471"><ele>42.0</ele><time>2026-04-25T07:37:17.999Z</time></trkpt><trkpt lat="38.05779575368168" lon="15.661664035467899"><ele>42.0</ele><time>2026-04-25T07:37:18.999Z</time></trkpt><trkpt lat="38.05777135065377" lon="15.66178551688625"><ele>42.0</ele><time>2026-04-25T07:37:19.999Z</time></trkpt><trkpt lat="38.057759556184266" lon="15.661886558033645"><ele>42.0</ele><time>2026-04-25T07:37:20.999Z</time></trkpt><trkpt lat="38.05774718086633" lon="15.66200517337922"><ele>42.0</ele><time>2026-04-25T07:37:21.999Z</time></trkpt><trkpt lat="38.05771399772554" lon="15.662119927314073"><ele>42.0</ele><time>2026-04-25T07:37:22.999Z</time></trkpt><trkpt lat="38.0576829053063" lon="15.662252068269257"><ele>42.75</ele><time>2026-04-25T07:37:23.999Z</time></trkpt><trkpt lat="38.0576573780614" lon="15.662409156808014"><ele>43.5</ele><time>2026-04-25T07:37:24.999Z</time></trkpt><trkpt lat="38.057637961659644" lon="15.66257362954667"><ele>44.25</ele><time>2026-04-25T07:37:25.999Z</time></trkpt><trkpt lat="38.05761220862472" lon="15.662754764461772"><ele>45.0</ele><time>2026-04-25T07:37:26.999Z</time></trkpt><trkpt lat="38.057603819817565" lon="15.662966576072836"><ele>46.33333333333333</ele><time>2026-04-25T07:37:27.999Z</time></trkpt><trkpt lat="38.057586505397914" lon="15.663167806944024"><ele>47.666666666666664</ele><time>2026-04-25T07:37:28.999Z</time></trkpt><trkpt lat="38.05758095116595" lon="15.66335730593331"><ele>49.0</ele><time>2026-04-25T07:37:29.999Z</time></trkpt><trkpt lat="38.05751301659088" lon="15.663518187388688"><ele>49.6</ele><time>2026-04-25T07:37:30.999Z</time></trkpt><trkpt lat="38.05748208337615" lon="15.66363877496692"><ele>50.2</ele><time>2026-04-25T07:37:31.999Z</time></trkpt><trkpt lat="38.057462859974265" lon="15.663771967216869"><ele>50.800000000000004</ele><time>2026-04-25T07:37:33Z</time></trkpt><trkpt lat="38.057411719289135" lon="15.663902967678707"><ele>51.400000000000006</ele><time>2026-04-25T07:37:34Z</time></trkpt><trkpt lat="38.05737915295201" lon="15.664044247874113"><ele>52.0</ele><time>2026-04-25T07:37:35Z</time></trkpt><trkpt lat="38.057358331886135" lon="15.66418953916612"><ele>52.0</ele><time>2026-04-25T07:37:36Z</time></trkpt><trkpt lat="38.05733153683577" lon="15.664331764547065"><ele>52.0</ele><time>2026-04-25T07:37:37Z</time></trkpt><trkpt lat="38.05729415473241" lon="15.664472765646275"><ele>52.0</ele><time>2026-04-25T07:37:38Z</time></trkpt><trkpt lat="38.05725145450007" lon="15.66461727070437"><ele>52.0</ele><time>2026-04-25T07:37:39Z</time></trkpt><trkpt lat="38.05719964005258" lon="15.66474783713378"><ele>53.0</ele><time>2026-04-25T07:37:40Z</time></trkpt><trkpt lat="38.057181064275476" lon="15.664907914900498"><ele>54.0</ele><time>2026-04-25T07:37:41Z</time></trkpt><trkpt lat="38.05713330565063" lon="15.66505285865614"><ele>55.0</ele><time>2026-04-25T07:37:42Z</time></trkpt><trkpt lat="38.057110291122946" lon="15.665204234384262"><ele>56.0</ele><time>2026-04-25T07:37:43Z</time></trkpt><trkpt lat="38.05711554412986" lon="15.66534765532712"><ele>56.333333333333336</ele><time>2026-04-25T07:37:44Z</time></trkpt><trkpt lat="38.057099675626084" lon="15.665468894322647"><ele>56.66666666666667</ele><time>2026-04-25T07:37:45Z</time></trkpt><trkpt lat="38.05707989435895" lon="15.665564320878723"><ele>57.0</ele><time>2026-04-25T07:37:46Z</time></trkpt><trkpt lat="38.05705070793473" lon="15.665651970732512"><ele>57.33333333333333</ele><time>2026-04-25T07:37:47Z</time></trkpt><trkpt lat="38.05701687011856" lon="15.665754822562965"><ele>57.666666666666664</ele><time>2026-04-25T07:37:48Z</time></trkpt><trkpt lat="38.056959690633015" lon="15.6658477914958"><ele>58.0</ele><time>2026-04-25T07:37:49Z</time></trkpt><trkpt lat="38.05691755849601" lon="15.665958182408588"><ele>58.0</ele><time>2026-04-25T07:37:50Z</time></trkpt><trkpt lat="38.05692396902705" lon="15.66609351474706"><ele>58.0</ele><time>2026-04-25T07:37:51Z</time></trkpt><trkpt lat="38.05691086534238" lon="15.666219567389719"><ele>58.0</ele><time>2026-04-25T07:37:52Z</time></trkpt><trkpt lat="38.05686973979894" lon="15.666339628433374"><ele>58.0</ele><time>2026-04-25T07:37:53Z</time></trkpt><trkpt lat="38.05683078668646" lon="15.666475580429985"><ele>58.0</ele><time>2026-04-25T07:37:54Z</time></trkpt><trkpt lat="38.05679305615522" lon="15.666617586614489"><ele>59.0</ele><time>2026-04-25T07:37:55Z</time></trkpt><trkpt lat="38.05675252944719" lon="15.666757780793304"><ele>60.0</ele><time>2026-04-25T07:37:56Z</time></trkpt><trkpt lat="38.056721959647476" lon="15.666906556195"><ele>61.0</ele><time>2026-04-25T07:37:57Z</time></trkpt><trkpt lat="38.05667670685415" lon="15.66704560781538"><ele>62.0</ele><time>2026-04-25T07:37:58Z</time></trkpt><trkpt lat="38.0566290513336" lon="15.667178862748155"><ele>63.0</ele><time>2026-04-25T07:37:59Z</time></trkpt><trkpt lat="38.05658167712603" lon="15.66731428111567"><ele>64.0</ele><time>2026-04-25T07:38:00Z</time></trkpt><trkpt lat="38.05655266901581" lon="15.66743948686675"><ele>65.0</ele><time>2026-04-25T07:38:01Z</time></trkpt><trkpt lat="38.056497966140356" lon="15.667549654636838"><ele>66.0</ele><time>2026-04-25T07:38:02Z</time></trkpt><trkpt lat="38.05644092316764" lon="15.667660903821465"><ele>67.0</ele><time>2026-04-25T07:38:03Z</time></trkpt><trkpt lat="38.056389776423444" lon="15.66779208036243"><ele>67.75</ele><time>2026-04-25T07:38:04Z</time></trkpt><trkpt lat="38.0563468372809" lon="15.667927991393638"><ele>68.5</ele><time>2026-04-25T07:38:05Z</time></trkpt><trkpt lat="38.056316742862535" lon="15.668084846835926"><ele>69.25</ele><time>2026-04-25T07:38:06Z</time></trkpt><trkpt lat="38.05625551576851" lon="15.6682271254131"><ele>70.0</ele><time>2026-04-25T07:38:07Z</time></trkpt><trkpt lat="38.056164605113345" lon="15.668345584988094"><ele>70.0</ele><time>2026-04-25T07:38:08Z</time></trkpt><trkpt lat="38.056095485554934" lon="15.668496910013792"><ele>70.0</ele><time>2026-04-25T07:38:09Z</time></trkpt><trkpt lat="38.05603832448778" lon="15.668648178780199"><ele>70.0</ele><time>2026-04-25T07:38:10Z</time></trkpt><trkpt lat="38.05598967806417" lon="15.668802584532635"><ele>70.0</ele><time>2026-04-25T07:38:11Z</time></trkpt><trkpt lat="38.05593669867388" lon="15.668961422634627"><ele>71.0</ele><time>2026-04-25T07:38:12Z</time></trkpt><trkpt lat="38.055893338368385" lon="15.66913025181111"><ele>72.0</ele><time>2026-04-25T07:38:13Z</time></trkpt><trkpt lat="38.05584158762943" lon="15.669294701711562"><ele>73.0</ele><time>2026-04-25T07:38:14Z</time></trkpt><trkpt lat="38.0557664991515" lon="15.66945786645198"><ele>74.0</ele><time>2026-04-25T07:38:15Z</time></trkpt><trkpt lat="38.05569233697823" lon="15.669650556515638"><ele>75.33333333333334</ele><time>2026-04-25T07:38:16Z</time></trkpt><trkpt lat="38.05561584844662" lon="15.66982818571707"><ele>76.66666666666667</ele><time>2026-04-25T07:38:17Z</time></trkpt><trkpt lat="38.05550719360819" lon="15.669972893609167"><ele>78.0</ele><time>2026-04-25T07:38:18Z</time></trkpt><trkpt lat="38.055436636345966" lon="15.67017386103475"><ele>78.66666666666667</ele><time>2026-04-25T07:38:19Z</time></trkpt><trkpt lat="38.05538676425001" lon="15.670381894430502"><ele>79.33333333333334</ele><time>2026-04-25T07:38:20Z</time></trkpt><trkpt lat="38.055356410287" lon="15.670592620846591"><ele>80.0</ele><time>2026-04-25T07:38:21Z</time></trkpt><trkpt lat="38.05531868160266" lon="15.670805205537851"><ele>80.0</ele><time>2026-04-25T07:38:22Z</time></trkpt><trkpt lat="38.05526965732968" lon="15.671002101870288"><ele>80.0</ele><time>2026-04-25T07:38:23Z</time></trkpt><trkpt lat="38.055184788149695" lon="15.671152124458569"><ele>80.0</ele><time>2026-04-25T07:38:24Z</time></trkpt><trkpt lat="38.0551398058207" lon="15.671293325498551"><ele>80.0</ele><time>2026-04-25T07:38:25Z</time></trkpt><trkpt lat="38.0550963940586" lon="15.671443567314993"><ele>80.6</ele><time>2026-04-25T07:38:26Z</time></trkpt><trkpt lat="38.05505729613972" lon="15.671565721417418"><ele>81.2</ele><time>2026-04-25T07:38:27Z</time></trkpt><trkpt lat="38.05501057695576" lon="15.67169503517113"><ele>81.80000000000001</ele><time>2026-04-25T07:38:28Z</time></trkpt><trkpt lat="38.05494325449173" lon="15.671818429317046"><ele>82.4</ele><time>2026-04-25T07:38:29Z</time></trkpt><trkpt lat="38.05487853706447" lon="15.671917533030818"><ele>83.0</ele><time>2026-04-25T07:38:30Z</time></trkpt><trkpt lat="38.054813414324826" lon="15.671984480240825"><ele>83.33333333333334</ele><time>2026-04-25T07:38:31Z</time></trkpt><trkpt lat="38.05476058943119" lon="15.672033161740998"><ele>83.66666666666667</ele><time>2026-04-25T07:38:32Z</time></trkpt><trkpt lat="38.054714567302085" lon="15.672089426876306"><ele>84.0</ele><time>2026-04-25T07:38:33Z</time></trkpt><trkpt lat="38.05461980784545" lon="15.672159867564266"><ele>84.33333333333333</ele><time>2026-04-25T07:38:35Z</time></trkpt><trkpt lat="38.05454516380225" lon="15.672120935341942"><ele>84.66666666666666</ele><time>2026-04-25T07:38:36Z</time></trkpt><trkpt lat="38.05446717172969" lon="15.672120872265683"><ele>85.0</ele><time>2026-04-25T07:38:37Z</time></trkpt><trkpt lat="38.054394598303034" lon="15.672124536969617"><ele>85.0</ele><time>2026-04-25T07:38:38Z</time></trkpt><trkpt lat="38.05432669870231" lon="15.672128229402269"><ele>85.0</ele><time>2026-04-25T07:38:39Z</time></trkpt><trkpt lat="38.05420983774877" lon="15.672125579689764"><ele>85.0</ele><time>2026-04-25T07:38:41Z</time></trkpt><trkpt lat="38.054133554302176" lon="15.67211777664923"><ele>85.0</ele><time>2026-04-25T07:38:42Z</time></trkpt><trkpt lat="38.05404256849075" lon="15.672103527793897"><ele>85.0</ele><time>2026-04-25T07:38:43Z</time></trkpt><trkpt lat="38.0539462411768" lon="15.67207149192514"><ele>85.8</ele><time>2026-04-25T07:38:44Z</time></trkpt><trkpt lat="38.05385642449606" lon="15.672058108460247"><ele>86.6</ele><time>2026-04-25T07:38:45Z</time></trkpt><trkpt lat="38.053752742608744" lon="15.672046073947556"><ele>87.4</ele><time>2026-04-25T07:38:46Z</time></trkpt><trkpt lat="38.053641703136584" lon="15.672030856451684"><ele>88.2</ele><time>2026-04-25T07:38:47Z</time></trkpt><trkpt lat="38.053530792450076" lon="15.671996132906067"><ele>89.0</ele><time>2026-04-25T07:38:48Z</time></trkpt><trkpt lat="38.05342523258443" lon="15.672013495228883"><ele>89.0</ele><time>2026-04-25T07:38:49Z</time></trkpt><trkpt lat="38.05333675361717" lon="15.672072287847804"><ele>89.0</ele><time>2026-04-25T07:38:50Z</time></trkpt><trkpt lat="38.05324379630774" lon="15.672067397771444"><ele>89.0</ele><time>2026-04-25T07:38:51Z</time></trkpt><trkpt lat="38.05317894404609" lon="15.671996866701194"><ele>89.0</ele><time>2026-04-25T07:38:52Z</time></trkpt><trkpt lat="38.05312199888593" lon="15.671956733855563"><ele>89.0</ele><time>2026-04-25T07:38:53Z</time></trkpt><trkpt lat="38.05298302428614" lon="15.67209138141837"><ele>89.33333333333334</ele><time>2026-04-25T07:38:55Z</time></trkpt><trkpt lat="38.052923518572534" lon="15.672170207918585"><ele>89.66666666666667</ele><time>2026-04-25T07:38:55.999Z</time></trkpt><trkpt lat="38.05288086569873" lon="15.672262525770124"><ele>90.0</ele><time>2026-04-25T07:38:56.999Z</time></trkpt><trkpt lat="38.0528196661174" lon="15.672346581411327"><ele>90.33333333333333</ele><time>2026-04-25T07:38:57.999Z</time></trkpt><trkpt lat="38.052747165553015" lon="15.67239641989046"><ele>90.66666666666666</ele><time>2026-04-25T07:38:58.999Z</time></trkpt><trkpt lat="38.05264991305886" lon="15.672390040774394"><ele>91.0</ele><time>2026-04-25T07:38:59.999Z</time></trkpt><trkpt lat="38.052554834365814" lon="15.672387121943212"><ele>91.0</ele><time>2026-04-25T07:39:00.999Z</time></trkpt><trkpt lat="38.05245823526083" lon="15.672445932457242"><ele>91.0</ele><time>2026-04-25T07:39:01.999Z</time></trkpt><trkpt lat="38.05236797594422" lon="15.672479615004866"><ele>91.0</ele><time>2026-04-25T07:39:02.999Z</time></trkpt><trkpt lat="38.05230814905028" lon="15.672548858618821"><ele>91.0</ele><time>2026-04-25T07:39:03.999Z</time></trkpt><trkpt lat="38.05227675551654" lon="15.672654357289447"><ele>91.0</ele><time>2026-04-25T07:39:04.999Z</time></trkpt><trkpt lat="38.052262333070075" lon="15.672785847437135"><ele>92.0</ele><time>2026-04-25T07:39:05.999Z</time></trkpt><trkpt lat="38.05222777866741" lon="15.672895020733188"><ele>93.0</ele><time>2026-04-25T07:39:06.999Z</time></trkpt><trkpt lat="38.05219082995531" lon="15.673028849416085"><ele>94.0</ele><time>2026-04-25T07:39:07.999Z</time></trkpt><trkpt lat="38.052149690537" lon="15.673165456895287"><ele>95.0</ele><time>2026-04-25T07:39:08.999Z</time></trkpt><trkpt lat="38.05210319105385" lon="15.67330162161086"><ele>96.0</ele><time>2026-04-25T07:39:09.999Z</time></trkpt><trkpt lat="38.05205416951079" lon="15.673449399410982"><ele>96.0</ele><time>2026-04-25T07:39:10.999Z</time></trkpt><trkpt lat="38.0519854646643" lon="15.673592240813544"><ele>96.0</ele><time>2026-04-25T07:39:11.999Z</time></trkpt><trkpt lat="38.05193885820241" lon="15.673749423302656"><ele>96.0</ele><time>2026-04-25T07:39:12.999Z</time></trkpt><trkpt lat="38.0519031324498" lon="15.673909646428141"><ele>96.0</ele><time>2026-04-25T07:39:13.999Z</time></trkpt><trkpt lat="38.05185448982501" lon="15.674072605319003"><ele>97.0</ele><time>2026-04-25T07:39:14.999Z</time></trkpt><trkpt lat="38.05180034192509" lon="15.674245570977765"><ele>98.0</ele><time>2026-04-25T07:39:15.999Z</time></trkpt><trkpt lat="38.051755975019624" lon="15.674390732979147"><ele>99.0</ele><time>2026-04-25T07:39:16.999Z</time></trkpt><trkpt lat="38.05172140211235" lon="15.674515892640214"><ele>100.0</ele><time>2026-04-25T07:39:17.999Z</time></trkpt><trkpt lat="38.05168348109867" lon="15.674634352572474"><ele>100.0</ele><time>2026-04-25T07:39:18.999Z</time></trkpt><trkpt lat="38.05162745594378" lon="15.674750864593356"><ele>100.0</ele><time>2026-04-25T07:39:19.999Z</time></trkpt><trkpt lat="38.05157925310831" lon="15.674865315384297"><ele>100.0</ele><time>2026-04-25T07:39:20.999Z</time></trkpt><trkpt lat="38.05153360046237" lon="15.674987594879406"><ele>100.0</ele><time>2026-04-25T07:39:21.999Z</time></trkpt><trkpt lat="38.05150308290391" lon="15.67508980889765"><ele>100.0</ele><time>2026-04-25T07:39:22.999Z</time></trkpt><trkpt lat="38.05146509665078" lon="15.675164831186146"><ele>101.4</ele><time>2026-04-25T07:39:23.999Z</time></trkpt><trkpt lat="38.05141061375807" lon="15.675295164350658"><ele>102.8</ele><time>2026-04-25T07:39:25.999Z</time></trkpt><trkpt lat="38.05138443542141" lon="15.675398886609694"><ele>104.19999999999999</ele><time>2026-04-25T07:39:27.999Z</time></trkpt><trkpt lat="38.051355521478555" lon="15.67548373288501"><ele>105.6</ele><time>2026-04-25T07:39:31.999Z</time></trkpt><trkpt lat="38.051297171534735" lon="15.675614924029578"><ele>107.0</ele><time>2026-04-25T07:39:41Z</time></trkpt><trkpt lat="38.05124799834903" lon="15.67574773442255"><ele>106.99999999999999</ele><time>2026-04-25T07:39:43Z</time></trkpt><trkpt lat="38.05122641487523" lon="15.675829854725656"><ele>107.0</ele><time>2026-04-25T07:39:44Z</time></trkpt><trkpt lat="38.051187259219695" lon="15.67591838436903"><ele>107.0</ele><time>2026-04-25T07:39:45Z</time></trkpt><trkpt lat="38.05113932175502" lon="15.675985393809018"><ele>107.0</ele><time>2026-04-25T07:39:46Z</time></trkpt><trkpt lat="38.051117572612114" lon="15.67607097002342"><ele>106.99999999999999</ele><time>2026-04-25T07:39:47Z</time></trkpt><trkpt lat="38.05107721281161" lon="15.676206029815015"><ele>107.0</ele><time>2026-04-25T07:39:49Z</time></trkpt><trkpt lat="38.05103362161174" lon="15.67630184571396"><ele>107.66666666666666</ele><time>2026-04-25T07:39:51Z</time></trkpt><trkpt lat="38.05100114219761" lon="15.676432143103897"><ele>108.33333333333333</ele><time>2026-04-25T07:39:53Z</time></trkpt><trkpt lat="38.05099192300244" lon="15.676512329992043"><ele>109.0</ele><time>2026-04-25T07:39:54Z</time></trkpt><trkpt lat="38.05098560808086" lon="15.676596521212275"><ele>109.66666666666666</ele><time>2026-04-25T07:39:55Z</time></trkpt><trkpt lat="38.05096984423352" lon="15.676753662178909"><ele>110.33333333333333</ele><time>2026-04-25T07:39:57Z</time></trkpt><trkpt lat="38.050935455767224" lon="15.676836060074063"><ele>111.0</ele><time>2026-04-25T07:39:58Z</time></trkpt><trkpt lat="38.0509177534023" lon="15.676921446962153"><ele>111.33333333333333</ele><time>2026-04-25T07:39:59Z</time></trkpt><trkpt lat="38.05090533296384" lon="15.677004300360021"><ele>111.66666666666666</ele><time>2026-04-25T07:40:00Z</time></trkpt><trkpt lat="38.05087368378364" lon="15.677113747290486"><ele>112.0</ele><time>2026-04-25T07:40:02Z</time></trkpt><trkpt lat="38.0508405901796" lon="15.67721531646431"><ele>112.33333333333333</ele><time>2026-04-25T07:40:05Z</time></trkpt><trkpt lat="38.05080465729177" lon="15.677295959331605"><ele>112.66666666666666</ele><time>2026-04-25T07:40:07Z</time></trkpt><trkpt lat="38.05074865619361" lon="15.677388314097321"><ele>113.0</ele><time>2026-04-25T07:40:09Z</time></trkpt><trkpt lat="38.050690290307955" lon="15.677506245113426"><ele>113.60000000000001</ele><time>2026-04-25T07:40:11Z</time></trkpt><trkpt lat="38.05062140967667" lon="15.677632113239094"><ele>114.20000000000002</ele><time>2026-04-25T07:40:13Z</time></trkpt><trkpt lat="38.05058166753821" lon="15.677696828870543"><ele>114.8</ele><time>2026-04-25T07:40:14Z</time></trkpt><trkpt lat="38.05051918649917" lon="15.677837122281174"><ele>115.4</ele><time>2026-04-25T07:40:16Z</time></trkpt><trkpt lat="38.050490370874094" lon="15.677909910406138"><ele>116.0</ele><time>2026-04-25T07:40:17Z</time></trkpt><trkpt lat="38.05046012917769" lon="15.678004640837393"><ele>116.66666666666666</ele><time>2026-04-25T07:40:18Z</time></trkpt><trkpt lat="38.050446646128506" lon="15.67810232461036"><ele>117.33333333333333</ele><time>2026-04-25T07:40:19Z</time></trkpt><trkpt lat="38.050422085649124" lon="15.678210307813895"><ele>118.0</ele><time>2026-04-25T07:40:20Z</time></trkpt><trkpt lat="38.05044997161355" lon="15.678316487549386"><ele>118.66666666666666</ele><time>2026-04-25T07:40:21Z</time></trkpt><trkpt lat="38.05041999332081" lon="15.678410890164214"><ele>119.33333333333333</ele><time>2026-04-25T07:40:22Z</time></trkpt><trkpt lat="38.05039835650254" lon="15.678504042933067"><ele>120.0</ele><time>2026-04-25T07:40:23Z</time></trkpt><trkpt lat="38.050364117821594" lon="15.678620514603422"><ele>120.4</ele><time>2026-04-25T07:40:24Z</time></trkpt><trkpt lat="38.050309151056574" lon="15.678718417583893"><ele>120.8</ele><time>2026-04-25T07:40:25Z</time></trkpt><trkpt lat="38.050263262939076" lon="15.678834521878544"><ele>121.19999999999999</ele><time>2026-04-25T07:40:26Z</time></trkpt><trkpt lat="38.05022804988082" lon="15.678956054342828"><ele>121.6</ele><time>2026-04-25T07:40:27Z</time></trkpt><trkpt lat="38.050189957537704" lon="15.679062798976545"><ele>122.0</ele><time>2026-04-25T07:40:28Z</time></trkpt><trkpt lat="38.05013893962571" lon="15.67913579806785"><ele>122.0</ele><time>2026-04-25T07:40:29Z</time></trkpt><trkpt lat="38.05008344263817" lon="15.679207225519779"><ele>121.99999999999999</ele><time>2026-04-25T07:40:30Z</time></trkpt><trkpt lat="38.050016717680585" lon="15.679284463734593"><ele>121.99999999999999</ele><time>2026-04-25T07:40:31Z</time></trkpt><trkpt lat="38.04995383348169" lon="15.679389158750679"><ele>122.0</ele><time>2026-04-25T07:40:32Z</time></trkpt><trkpt lat="38.04992961065502" lon="15.679498981375103"><ele>122.0</ele><time>2026-04-25T07:40:33Z</time></trkpt><trkpt lat="38.049910314796726" lon="15.679633325240113"><ele>123.0</ele><time>2026-04-25T07:40:34Z</time></trkpt><trkpt lat="38.04987744479452" lon="15.67974132431109"><ele>123.99999999999999</ele><time>2026-04-25T07:40:35Z</time></trkpt><trkpt lat="38.0498434968917" lon="15.679861300693755"><ele>124.99999999999999</ele><time>2026-04-25T07:40:36Z</time></trkpt><trkpt lat="38.04980642519775" lon="15.679990229933205"><ele>126.0</ele><time>2026-04-25T07:40:37Z</time></trkpt><trkpt lat="38.04977098979629" lon="15.680106322689285"><ele>127.0</ele><time>2026-04-25T07:40:38Z</time></trkpt><trkpt lat="38.049734374618154" lon="15.680217191932211"><ele>128.0</ele><time>2026-04-25T07:40:39Z</time></trkpt><trkpt lat="38.049686284578776" lon="15.680323121111552"><ele>129.0</ele><time>2026-04-25T07:40:40Z</time></trkpt><trkpt lat="38.04967836356303" lon="15.680474166702542"><ele>130.0</ele><time>2026-04-25T07:40:41Z</time></trkpt><trkpt lat="38.049631065409265" lon="15.68059196594949"><ele>131.0</ele><time>2026-04-25T07:40:42Z</time></trkpt><trkpt lat="38.04959453076328" lon="15.680709366663509"><ele>132.0</ele><time>2026-04-25T07:40:43Z</time></trkpt><trkpt lat="38.04958211925088" lon="15.680843016087596"><ele>132.0</ele><time>2026-04-25T07:40:44Z</time></trkpt><trkpt lat="38.04934069473184" lon="15.680872626303142"><ele>132.0</ele><time>2026-04-25T07:40:45Z</time></trkpt><trkpt lat="38.04931380745455" lon="15.680955124790929"><ele>132.0</ele><time>2026-04-25T07:40:46Z</time></trkpt><trkpt lat="38.04927892793942" lon="15.681035173866448"><ele>132.0</ele><time>2026-04-25T07:40:47Z</time></trkpt><trkpt lat="38.049232637835416" lon="15.681119536904207"><ele>132.33333333333334</ele><time>2026-04-25T07:40:48Z</time></trkpt><trkpt lat="38.049151797259796" lon="15.681359617267157"><ele>132.66666666666669</ele><time>2026-04-25T07:40:49Z</time></trkpt><trkpt lat="38.04912456720761" lon="15.681520110840728"><ele>133.0</ele><time>2026-04-25T07:40:50Z</time></trkpt><trkpt lat="38.049118087201435" lon="15.681725122016623"><ele>133.4</ele><time>2026-04-25T07:40:51Z</time></trkpt><trkpt lat="38.04911467522174" lon="15.68184042858581"><ele>133.8</ele><time>2026-04-25T07:40:52Z</time></trkpt><trkpt lat="38.049107674596996" lon="15.68196894519479"><ele>134.2</ele><time>2026-04-25T07:40:53Z</time></trkpt><trkpt lat="38.04908067323825" lon="15.682124340890425"><ele>134.6</ele><time>2026-04-25T07:40:55Z</time></trkpt><trkpt lat="38.04904318709253" lon="15.682236344917643"><ele>135.0</ele><time>2026-04-25T07:40:56Z</time></trkpt><trkpt lat="38.04899621824619" lon="15.6823679823302"><ele>136.2</ele><time>2026-04-25T07:40:57Z</time></trkpt><trkpt lat="38.048950899326705" lon="15.682539056716717"><ele>137.4</ele><time>2026-04-25T07:40:58Z</time></trkpt><trkpt lat="38.04892555021939" lon="15.682691855871562"><ele>138.6</ele><time>2026-04-25T07:40:59Z</time></trkpt><trkpt lat="38.048911233517245" lon="15.682794552266087"><ele>139.8</ele><time>2026-04-25T07:41:00Z</time></trkpt><trkpt lat="38.04889966819979" lon="15.68287703117612"><ele>141.0</ele><time>2026-04-25T07:41:00.999Z</time></trkpt><trkpt lat="38.04888265125009" lon="15.682998389212175"><ele>142.0</ele><time>2026-04-25T07:41:02.999Z</time></trkpt><trkpt lat="38.04886559145021" lon="15.683120053424554"><ele>143.0</ele><time>2026-04-25T07:41:04.999Z</time></trkpt><trkpt lat="38.04904120058469" lon="15.683215748535106"><ele>144.0</ele><time>2026-04-25T07:41:05.999Z</time></trkpt><trkpt lat="38.04908464805303" lon="15.683349156446551"><ele>145.0</ele><time>2026-04-25T07:41:07.999Z</time></trkpt><trkpt lat="38.04908322478302" lon="15.683433288377168"><ele>145.0</ele><time>2026-04-25T07:41:08.999Z</time></trkpt><trkpt lat="38.04906933330708" lon="15.683517350715356"><ele>145.0</ele><time>2026-04-25T07:41:09.999Z</time></trkpt><trkpt lat="38.04908630626137" lon="15.683677177505135"><ele>145.0</ele><time>2026-04-25T07:41:11.999Z</time></trkpt><trkpt lat="38.04909560893278" lon="15.683794713559436"><ele>145.0</ele><time>2026-04-25T07:41:12.999Z</time></trkpt><trkpt lat="38.04909217649277" lon="15.683922492611316"><ele>145.0</ele><time>2026-04-25T07:41:13.999Z</time></trkpt><trkpt lat="38.049102416208285" lon="15.684038085869105"><ele>145.0</ele><time>2026-04-25T07:41:14.999Z</time></trkpt><trkpt lat="38.04911418296471" lon="15.684142838951153"><ele>145.0</ele><time>2026-04-25T07:41:15.999Z</time></trkpt><trkpt lat="38.04910097310777" lon="15.684257436658166"><ele>145.0</ele><time>2026-04-25T07:41:16.999Z</time></trkpt><trkpt lat="38.049138621138155" lon="15.684341182493176"><ele>145.0</ele><time>2026-04-25T07:41:17.999Z</time></trkpt><trkpt lat="38.048924572913634" lon="15.684464932331563"><ele>145.6</ele><time>2026-04-25T07:41:19.999Z</time></trkpt><trkpt lat="38.04884473982295" lon="15.684557643040991"><ele>146.2</ele><time>2026-04-25T07:41:20.999Z</time></trkpt><trkpt lat="38.04879269353144" lon="15.68463202965185"><ele>146.8</ele><time>2026-04-25T07:41:21.999Z</time></trkpt><trkpt lat="38.04872504209338" lon="15.684733066147333"><ele>147.4</ele><time>2026-04-25T07:41:22.999Z</time></trkpt><trkpt lat="38.04865670591618" lon="15.684840475323227"><ele>148.0</ele><time>2026-04-25T07:41:23.999Z</time></trkpt><trkpt lat="38.048600182430505" lon="15.684957888210636"><ele>148.0</ele><time>2026-04-25T07:41:24.999Z</time></trkpt><trkpt lat="38.04853280484753" lon="15.68507401487101"><ele>148.0</ele><time>2026-04-25T07:41:25.999Z</time></trkpt><trkpt lat="38.048471990426044" lon="15.6851836325715"><ele>148.0</ele><time>2026-04-25T07:41:26.999Z</time></trkpt><trkpt lat="38.048426771781806" lon="15.685307506580747"><ele>148.0</ele><time>2026-04-25T07:41:27.999Z</time></trkpt><trkpt lat="38.04837939596119" lon="15.685424048984357"><ele>148.0</ele><time>2026-04-25T07:41:28.999Z</time></trkpt><trkpt lat="38.048347061418546" lon="15.685568508781257"><ele>148.75</ele><time>2026-04-25T07:41:29.999Z</time></trkpt><trkpt lat="38.04832297723692" lon="15.685703452036565"><ele>149.5</ele><time>2026-04-25T07:41:30.999Z</time></trkpt><trkpt lat="38.04831944051906" lon="15.685868261105792"><ele>150.25</ele><time>2026-04-25T07:41:31.999Z</time></trkpt><trkpt lat="38.0483133671016" lon="15.686038774751893"><ele>151.0</ele><time>2026-04-25T07:41:32.999Z</time></trkpt><trkpt lat="38.048294957558504" lon="15.686211041713674"><ele>153.25</ele><time>2026-04-25T07:41:33.999Z</time></trkpt><trkpt lat="38.048282955477205" lon="15.686371893519892"><ele>155.5</ele><time>2026-04-25T07:41:34.999Z</time></trkpt><trkpt lat="38.04825354474937" lon="15.686528614672456"><ele>157.75</ele><time>2026-04-25T07:41:35.999Z</time></trkpt><trkpt lat="38.04822308540606" lon="15.686683223489123"><ele>160.0</ele><time>2026-04-25T07:41:36.999Z</time></trkpt><trkpt lat="38.048206376329254" lon="15.686834291130406"><ele>159.5</ele><time>2026-04-25T07:41:37.999Z</time></trkpt><trkpt lat="38.04817611956494" lon="15.686986941507161"><ele>159.0</ele><time>2026-04-25T07:41:38.999Z</time></trkpt><trkpt lat="38.048149299851914" lon="15.687149544444278"><ele>158.5</ele><time>2026-04-25T07:41:39.999Z</time></trkpt><trkpt lat="38.04810267503593" lon="15.68730957012042"><ele>158.0</ele><time>2026-04-25T07:41:40.999Z</time></trkpt><trkpt lat="38.04807657864001" lon="15.687461263822744"><ele>158.0</ele><time>2026-04-25T07:41:41.999Z</time></trkpt><trkpt lat="38.0480687411612" lon="15.687622007856769"><ele>158.0</ele><time>2026-04-25T07:41:42.999Z</time></trkpt><trkpt lat="38.04804786179151" lon="15.687775721849139"><ele>158.0</ele><time>2026-04-25T07:41:44Z</time></trkpt><trkpt lat="38.04802432881449" lon="15.68793480508005"><ele>158.0</ele><time>2026-04-25T07:41:45Z</time></trkpt><trkpt lat="38.04800021695212" lon="15.688088762721598"><ele>159.25</ele><time>2026-04-25T07:41:46Z</time></trkpt><trkpt lat="38.04797819833939" lon="15.688241573727964"><ele>160.5</ele><time>2026-04-25T07:41:47Z</time></trkpt><trkpt lat="38.047960294846014" lon="15.68839947524383"><ele>161.75</ele><time>2026-04-25T07:41:48Z</time></trkpt><trkpt lat="38.04793751207584" lon="15.688546436733482"><ele>163.0</ele><time>2026-04-25T07:41:49Z</time></trkpt><trkpt lat="38.047931507667066" lon="15.68870672701711"><ele>163.5</ele><time>2026-04-25T07:41:50Z</time></trkpt><trkpt lat="38.04793493977402" lon="15.688870591726396"><ele>164.0</ele><time>2026-04-25T07:41:51Z</time></trkpt><trkpt lat="38.047955141983095" lon="15.689043298775129"><ele>164.5</ele><time>2026-04-25T07:41:52Z</time></trkpt><trkpt lat="38.04792488826172" lon="15.689205765818665"><ele>165.0</ele><time>2026-04-25T07:41:53Z</time></trkpt><trkpt lat="38.0478998050845" lon="15.68937356901962"><ele>166.33333333333334</ele><time>2026-04-25T07:41:54Z</time></trkpt><trkpt lat="38.0478622756552" lon="15.689555797400356"><ele>167.66666666666669</ele><time>2026-04-25T07:41:55Z</time></trkpt><trkpt lat="38.047830979823" lon="15.68976225634298"><ele>169.0</ele><time>2026-04-25T07:41:56Z</time></trkpt><trkpt lat="38.047805854199595" lon="15.689952861738492"><ele>169.0</ele><time>2026-04-25T07:41:57Z</time></trkpt><trkpt lat="38.047779354356884" lon="15.69013717289024"><ele>169.0</ele><time>2026-04-25T07:41:58Z</time></trkpt><trkpt lat="38.04776856524974" lon="15.690307117006748"><ele>169.0</ele><time>2026-04-25T07:41:59Z</time></trkpt><trkpt lat="38.047774887009716" lon="15.690446890383859"><ele>169.0</ele><time>2026-04-25T07:42:00Z</time></trkpt><trkpt lat="38.04777530105759" lon="15.690575558743234"><ele>170.75</ele><time>2026-04-25T07:42:01Z</time></trkpt><trkpt lat="38.04776852872822" lon="15.690738651798979"><ele>172.5</ele><time>2026-04-25T07:42:02Z</time></trkpt><trkpt lat="38.0477719066474" lon="15.690921673433193"><ele>174.25</ele><time>2026-04-25T07:42:03Z</time></trkpt><trkpt lat="38.047782536638074" lon="15.691090466613284"><ele>176.0</ele><time>2026-04-25T07:42:04Z</time></trkpt><trkpt lat="38.047788455282294" lon="15.691256390987952"><ele>177.0</ele><time>2026-04-25T07:42:05Z</time></trkpt><trkpt lat="38.04778041127866" lon="15.69141706278466"><ele>178.0</ele><time>2026-04-25T07:42:06Z</time></trkpt><trkpt lat="38.047750898051994" lon="15.691578892427781"><ele>179.0</ele><time>2026-04-25T07:42:07Z</time></trkpt><trkpt lat="38.047742116748346" lon="15.69172008716189"><ele>180.0</ele><time>2026-04-25T07:42:08Z</time></trkpt><trkpt lat="38.04773430643292" lon="15.691859511891751"><ele>181.0</ele><time>2026-04-25T07:42:09Z</time></trkpt><trkpt lat="38.04772733093682" lon="15.69200401760064"><ele>182.0</ele><time>2026-04-25T07:42:10Z</time></trkpt><trkpt lat="38.04774045697499" lon="15.692148982817402"><ele>183.0</ele><time>2026-04-25T07:42:11Z</time></trkpt><trkpt lat="38.04774806608686" lon="15.692284881503817"><ele>184.0</ele><time>2026-04-25T07:42:12Z</time></trkpt><trkpt lat="38.047762192199265" lon="15.69242534657977"><ele>185.0</ele><time>2026-04-25T07:42:13Z</time></trkpt><trkpt lat="38.04777488466414" lon="15.692557524843709"><ele>185.0</ele><time>2026-04-25T07:42:14Z</time></trkpt><trkpt lat="38.047793919842924" lon="15.692693630569751"><ele>185.0</ele><time>2026-04-25T07:42:15Z</time></trkpt><trkpt lat="38.04781533162026" lon="15.692833299886349"><ele>185.0</ele><time>2026-04-25T07:42:16Z</time></trkpt><trkpt lat="38.04783042935413" lon="15.692965805584736"><ele>185.0</ele><time>2026-04-25T07:42:17Z</time></trkpt><trkpt lat="38.047790438968825" lon="15.693082002458553"><ele>185.0</ele><time>2026-04-25T07:42:18Z</time></trkpt><trkpt lat="38.047773567934144" lon="15.693199566925204"><ele>185.83333333333331</ele><time>2026-04-25T07:42:19Z</time></trkpt><trkpt lat="38.047757682880835" lon="15.693318737420649"><ele>186.66666666666666</ele><time>2026-04-25T07:42:20Z</time></trkpt><trkpt lat="38.04775253574881" lon="15.693421359244192"><ele>187.5</ele><time>2026-04-25T07:42:21Z</time></trkpt><trkpt lat="38.047764750171616" lon="15.693506008226198"><ele>188.33333333333334</ele><time>2026-04-25T07:42:22Z</time></trkpt><trkpt lat="38.047771548428585" lon="15.693608698386669"><ele>189.16666666666669</ele><time>2026-04-25T07:42:23Z</time></trkpt><trkpt lat="38.04777015302287" lon="15.693712243723914"><ele>190.0</ele><time>2026-04-25T07:42:24Z</time></trkpt><trkpt lat="38.04777408269514" lon="15.693816831383954"><ele>190.5</ele><time>2026-04-25T07:42:25Z</time></trkpt><trkpt lat="38.04777285502371" lon="15.693925779223749"><ele>191.0</ele><time>2026-04-25T07:42:26Z</time></trkpt><trkpt lat="38.04778064836353" lon="15.694024427959521"><ele>191.5</ele><time>2026-04-25T07:42:27Z</time></trkpt><trkpt lat="38.04777916589666" lon="15.694118906726159"><ele>192.0</ele><time>2026-04-25T07:42:28Z</time></trkpt><trkpt lat="38.04777341126809" lon="15.694229597684535"><ele>192.49999999999997</ele><time>2026-04-25T07:42:29Z</time></trkpt><trkpt lat="38.04777064641878" lon="15.694341202678354"><ele>193.0</ele><time>2026-04-25T07:42:30Z</time></trkpt><trkpt lat="38.04776873738624" lon="15.694451270543723"><ele>193.57142857142858</ele><time>2026-04-25T07:42:31Z</time></trkpt><trkpt lat="38.0477648392765" lon="15.694552673213678"><ele>194.14285714285714</ele><time>2026-04-25T07:42:32Z</time></trkpt><trkpt lat="38.047746764779376" lon="15.694650185857304"><ele>194.71428571428572</ele><time>2026-04-25T07:42:33Z</time></trkpt><trkpt lat="38.04774164945223" lon="15.69473452768848"><ele>195.28571428571428</ele><time>2026-04-25T07:42:34Z</time></trkpt><trkpt lat="38.047735551461685" lon="15.69482290523529"><ele>195.85714285714286</ele><time>2026-04-25T07:42:35Z</time></trkpt><trkpt lat="38.047729538973186" lon="15.694910043592396"><ele>196.42857142857144</ele><time>2026-04-25T07:42:36Z</time></trkpt><trkpt lat="38.04772205697733" lon="15.695009612809828"><ele>197.0</ele><time>2026-04-25T07:42:37Z</time></trkpt><trkpt lat="38.04772992081729" lon="15.69509217849536"><ele>197.00000000000003</ele><time>2026-04-25T07:42:38Z</time></trkpt><trkpt lat="38.04769492091362" lon="15.695209255137636"><ele>197.0</ele><time>2026-04-25T07:42:40Z</time></trkpt><trkpt lat="38.04767634012357" lon="15.695301672902604"><ele>197.0</ele><time>2026-04-25T07:42:42Z</time></trkpt><trkpt lat="38.04765818329209" lon="15.695394086566216"><ele>197.0</ele><time>2026-04-25T07:49:32.999Z</time></trkpt><trkpt lat="38.04762937781205" lon="15.69549537537689"><ele>197.00000000000003</ele><time>2026-04-25T07:49:34.999Z</time></trkpt><trkpt lat="38.047607510254096" lon="15.695608799959093"><ele>197.0</ele><time>2026-04-25T07:49:36.999Z</time></trkpt><trkpt lat="38.0477672540362" lon="15.695674025872014"><ele>197.83333333333334</ele><time>2026-04-25T07:49:38.999Z</time></trkpt><trkpt lat="38.04779048616961" lon="15.69579529197743"><ele>198.66666666666669</ele><time>2026-04-25T07:49:40.999Z</time></trkpt><trkpt lat="38.047805368675455" lon="15.695873211863576"><ele>199.5</ele><time>2026-04-25T07:49:41.999Z</time></trkpt><trkpt lat="38.047822671867955" lon="15.69596384886709"><ele>200.33333333333331</ele><time>2026-04-25T07:49:42.999Z</time></trkpt><trkpt lat="38.04784331935727" lon="15.696072003840795"><ele>201.16666666666666</ele><time>2026-04-25T07:49:43.999Z</time></trkpt><trkpt lat="38.047850719797" lon="15.696159548853672"><ele>202.0</ele><time>2026-04-25T07:49:44.999Z</time></trkpt><trkpt lat="38.04786074818186" lon="15.696275902605342"><ele>202.33333333333331</ele><time>2026-04-25T07:49:45.999Z</time></trkpt><trkpt lat="38.0478833323831" lon="15.696488401854975"><ele>202.66666666666669</ele><time>2026-04-25T07:49:47.999Z</time></trkpt><trkpt lat="38.04789325818358" lon="15.696692759900593"><ele>203.0</ele><time>2026-04-25T07:49:48.999Z</time></trkpt><trkpt lat="38.047330342329786" lon="15.69683221239674"><ele>204.4</ele><time>2026-04-25T07:49:49.999Z</time></trkpt><trkpt lat="38.047297810918415" lon="15.696949855836964"><ele>205.8</ele><time>2026-04-25T07:49:50.999Z</time></trkpt><trkpt lat="38.04724828066697" lon="15.697072564493999"><ele>207.2</ele><time>2026-04-25T07:49:51.999Z</time></trkpt><trkpt lat="38.0471969384665" lon="15.697203684688937"><ele>208.6</ele><time>2026-04-25T07:49:52.999Z</time></trkpt><trkpt lat="38.04715058766773" lon="15.697342875646106"><ele>210.0</ele><time>2026-04-25T07:49:53.999Z</time></trkpt><trkpt lat="38.04711587780399" lon="15.697489693130844"><ele>210.0</ele><time>2026-04-25T07:49:54.999Z</time></trkpt><trkpt lat="38.04708915316911" lon="15.697629601344012"><ele>210.0</ele><time>2026-04-25T07:49:55.999Z</time></trkpt><trkpt lat="38.0470690823346" lon="15.697779846863124"><ele>210.0</ele><time>2026-04-25T07:49:56.999Z</time></trkpt><trkpt lat="38.04704873488693" lon="15.697930017116164"><ele>210.0</ele><time>2026-04-25T07:49:57.999Z</time></trkpt><trkpt lat="38.04702218098528" lon="15.69807249514134"><ele>210.8</ele><time>2026-04-25T07:49:58.999Z</time></trkpt><trkpt lat="38.04698502651329" lon="15.698211048221468"><ele>211.6</ele><time>2026-04-25T07:49:59.999Z</time></trkpt><trkpt lat="38.04693082315505" lon="15.698334520630768"><ele>212.39999999999998</ele><time>2026-04-25T07:50:00.999Z</time></trkpt><trkpt lat="38.04688649556828" lon="15.698445061387948"><ele>213.2</ele><time>2026-04-25T07:50:01.999Z</time></trkpt><trkpt lat="38.04685295420092" lon="15.698531693315289"><ele>214.0</ele><time>2026-04-25T07:50:02.999Z</time></trkpt><trkpt lat="38.04680995371393" lon="15.698632437573917"><ele>214.39999999999998</ele><time>2026-04-25T07:50:03.999Z</time></trkpt><trkpt lat="38.046770822079665" lon="15.698728642883431"><ele>214.79999999999998</ele><time>2026-04-25T07:50:04.999Z</time></trkpt><trkpt lat="38.046755119940876" lon="15.698810344034221"><ele>215.20000000000002</ele><time>2026-04-25T07:50:05.999Z</time></trkpt><trkpt lat="38.046759381864" lon="15.69893536863999"><ele>215.60000000000002</ele><time>2026-04-25T07:50:08Z</time></trkpt><trkpt lat="38.046742681080296" lon="15.699103131558571"><ele>216.0</ele><time>2026-04-25T07:50:10Z</time></trkpt><trkpt lat="38.04672026949267" lon="15.699196685989019"><ele>216.0</ele><time>2026-04-25T07:50:11Z</time></trkpt><trkpt lat="38.04668773657827" lon="15.699290217103213"><ele>216.0</ele><time>2026-04-25T07:50:12Z</time></trkpt><trkpt lat="38.046652538425015" lon="15.699388533969529"><ele>216.0</ele><time>2026-04-25T07:50:13Z</time></trkpt><trkpt lat="38.04662361801294" lon="15.699477698107883"><ele>216.0</ele><time>2026-04-25T07:50:14Z</time></trkpt><trkpt lat="38.04657038274828" lon="15.699605704419836"><ele>216.0</ele><time>2026-04-25T07:50:16Z</time></trkpt><trkpt lat="38.04653014071449" lon="15.69967635271766"><ele>216.0</ele><time>2026-04-25T07:50:18Z</time></trkpt><trkpt lat="38.04652483621171" lon="15.699757482740907"><ele>217.0</ele><time>2026-04-25T07:50:30Z</time></trkpt><trkpt lat="38.04650268448627" lon="15.699867339099743"><ele>218.0</ele><time>2026-04-25T07:50:32Z</time></trkpt><trkpt lat="38.04645515315186" lon="15.700003198850183"><ele>219.0</ele><time>2026-04-25T07:50:34Z</time></trkpt><trkpt lat="38.04643281568525" lon="15.700084802680989"><ele>220.0</ele><time>2026-04-25T07:50:35Z</time></trkpt><trkpt lat="38.04641120211943" lon="15.7001852652497"><ele>221.0</ele><time>2026-04-25T07:50:36Z</time></trkpt><trkpt lat="38.0463900393137" lon="15.700278329740742"><ele>222.0</ele><time>2026-04-25T07:50:37Z</time></trkpt><trkpt lat="38.04636376424596" lon="15.70040223573255"><ele>222.39999999999998</ele><time>2026-04-25T07:50:38Z</time></trkpt><trkpt lat="38.046331581744006" lon="15.700525803314498"><ele>222.79999999999998</ele><time>2026-04-25T07:50:39Z</time></trkpt><trkpt lat="38.04629424853601" lon="15.700636200050575"><ele>223.2</ele><time>2026-04-25T07:50:40Z</time></trkpt><trkpt lat="38.04627291354977" lon="15.700772750187362"><ele>223.6</ele><time>2026-04-25T07:50:41Z</time></trkpt><trkpt lat="38.04625179163741" lon="15.70089470549003"><ele>224.0</ele><time>2026-04-25T07:50:42Z</time></trkpt><trkpt lat="38.0462316319083" lon="15.701025608340013"><ele>225.2</ele><time>2026-04-25T07:50:43Z</time></trkpt><trkpt lat="38.04620194961875" lon="15.701146003975072"><ele>226.39999999999998</ele><time>2026-04-25T07:50:44Z</time></trkpt><trkpt lat="38.046170254297955" lon="15.701272917161946"><ele>227.6</ele><time>2026-04-25T07:50:45Z</time></trkpt><trkpt lat="38.046130894000356" lon="15.701397931154107"><ele>228.8</ele><time>2026-04-25T07:50:46Z</time></trkpt><trkpt lat="38.0460986233802" lon="15.701523341928954"><ele>230.0</ele><time>2026-04-25T07:50:47Z</time></trkpt><trkpt lat="38.04607618042458" lon="15.701645654900826"><ele>230.0</ele><time>2026-04-25T07:50:48Z</time></trkpt><trkpt lat="38.046054568407875" lon="15.701769689815249"><ele>230.0</ele><time>2026-04-25T07:50:49Z</time></trkpt><trkpt lat="38.04602399128608" lon="15.701893168151674"><ele>230.0</ele><time>2026-04-25T07:50:50Z</time></trkpt><trkpt lat="38.04599492039763" lon="15.702013539975965"><ele>230.0</ele><time>2026-04-25T07:50:51Z</time></trkpt><trkpt lat="38.045974568434595" lon="15.702133634907948"><ele>230.0</ele><time>2026-04-25T07:50:52Z</time></trkpt><trkpt lat="38.04595381893541" lon="15.702251114821578"><ele>230.8</ele><time>2026-04-25T07:50:53Z</time></trkpt><trkpt lat="38.045934668598065" lon="15.70237517694963"><ele>231.6</ele><time>2026-04-25T07:50:54Z</time></trkpt><trkpt lat="38.04590990583055" lon="15.702492694252227"><ele>232.39999999999998</ele><time>2026-04-25T07:50:55Z</time></trkpt><trkpt lat="38.04587745257368" lon="15.702616008156681"><ele>233.2</ele><time>2026-04-25T07:50:56Z</time></trkpt><trkpt lat="38.045852181966715" lon="15.702734568341608"><ele>234.0</ele><time>2026-04-25T07:50:57Z</time></trkpt><trkpt lat="38.0458284766812" lon="15.702859301125802"><ele>235.2</ele><time>2026-04-25T07:50:58Z</time></trkpt><trkpt lat="38.04580107685793" lon="15.702989719392294"><ele>236.39999999999998</ele><time>2026-04-25T07:50:59Z</time></trkpt><trkpt lat="38.0457756872558" lon="15.70311397370163"><ele>237.6</ele><time>2026-04-25T07:51:00Z</time></trkpt><trkpt lat="38.04574608043836" lon="15.703233727965188"><ele>238.8</ele><time>2026-04-25T07:51:01Z</time></trkpt><trkpt lat="38.045727034683445" lon="15.70332247912133"><ele>240.0</ele><time>2026-04-25T07:51:01.999Z</time></trkpt><trkpt lat="38.04569046023226" lon="15.703424662277975"><ele>240.33333333333334</ele><time>2026-04-25T07:51:03.999Z</time></trkpt><trkpt lat="38.045603918126034" lon="15.703432992359849"><ele>240.66666666666669</ele><time>2026-04-25T07:51:05.999Z</time></trkpt><trkpt lat="38.045516406186564" lon="15.70339298938544"><ele>241.0</ele><time>2026-04-25T07:51:08.999Z</time></trkpt><trkpt lat="38.04544568874708" lon="15.70336661816966"><ele>241.33333333333334</ele><time>2026-04-25T07:51:10.999Z</time></trkpt><trkpt lat="38.045355859767405" lon="15.703362405539593"><ele>241.66666666666669</ele><time>2026-04-25T07:51:12.999Z</time></trkpt><trkpt lat="38.04526536170613" lon="15.7033603854532"><ele>242.0</ele><time>2026-04-25T07:51:14.999Z</time></trkpt><trkpt lat="38.04517860869708" lon="15.70333146023237"><ele>242.00000000000003</ele><time>2026-04-25T07:51:17.999Z</time></trkpt><trkpt lat="38.045105134475406" lon="15.703287477596778"><ele>242.0</ele><time>2026-04-25T07:51:20.999Z</time></trkpt><trkpt lat="38.04501375229598" lon="15.703314754597466"><ele>242.0</ele><time>2026-04-25T07:51:23.999Z</time></trkpt><trkpt lat="38.04493071379641" lon="15.70341918794646"><ele>242.0</ele><time>2026-04-25T07:51:25.999Z</time></trkpt><trkpt lat="38.044879926943125" lon="15.703467694545864"><ele>242.00000000000003</ele><time>2026-04-25T07:51:26.999Z</time></trkpt><trkpt lat="38.04481709198845" lon="15.703497397400445"><ele>242.0</ele><time>2026-04-25T07:51:27.999Z</time></trkpt><trkpt lat="38.04474502259628" lon="15.703527383338118"><ele>243.6</ele><time>2026-04-25T07:51:28.999Z</time></trkpt><trkpt lat="38.04466703283771" lon="15.703541912622935"><ele>245.2</ele><time>2026-04-25T07:51:29.999Z</time></trkpt><trkpt lat="38.044579506953596" lon="15.703543561201101"><ele>246.8</ele><time>2026-04-25T07:51:30.999Z</time></trkpt><trkpt lat="38.044465817504765" lon="15.703518135923954"><ele>248.4</ele><time>2026-04-25T07:51:31.999Z</time></trkpt><trkpt lat="38.04432860582087" lon="15.70354470818186"><ele>250.0</ele><time>2026-04-25T07:51:32.999Z</time></trkpt><trkpt lat="38.044205699000536" lon="15.703568409126097"><ele>255.0</ele><time>2026-04-25T07:51:33.999Z</time></trkpt><trkpt lat="38.04408947309638" lon="15.703589999977384"><ele>260.0</ele><time>2026-04-25T07:51:34.999Z</time></trkpt><trkpt lat="38.043969363669625" lon="15.703609192709258"><ele>265.0</ele><time>2026-04-25T07:51:35.999Z</time></trkpt><trkpt lat="38.0438493577549" lon="15.703624659667618"><ele>270.0</ele><time>2026-04-25T07:51:36.999Z</time></trkpt><trkpt lat="38.04373049532611" lon="15.703634908487949"><ele>270.0</ele><time>2026-04-25T07:51:37.999Z</time></trkpt><trkpt lat="38.043617225040656" lon="15.703641679021377"><ele>270.0</ele><time>2026-04-25T07:51:38.999Z</time></trkpt><trkpt lat="38.04350721230339" lon="15.703646181684976"><ele>270.0</ele><time>2026-04-25T07:51:39.999Z</time></trkpt><trkpt lat="38.04339736351295" lon="15.7036467253009"><ele>270.0</ele><time>2026-04-25T07:51:40.999Z</time></trkpt><trkpt lat="38.04328954484289" lon="15.703666982983856"><ele>270.0</ele><time>2026-04-25T07:51:41.999Z</time></trkpt><trkpt lat="38.043183957000856" lon="15.703653591371783"><ele>273.2</ele><time>2026-04-25T07:51:42.999Z</time></trkpt><trkpt lat="38.04308228400074" lon="15.703651030647624"><ele>276.4</ele><time>2026-04-25T07:51:43.999Z</time></trkpt><trkpt lat="38.04297239858309" lon="15.703650132768834"><ele>279.6</ele><time>2026-04-25T07:51:44.999Z</time></trkpt><trkpt lat="38.04286906759156" lon="15.703649629802841"><ele>282.8</ele><time>2026-04-25T07:51:45.999Z</time></trkpt><trkpt lat="38.04277375558432" lon="15.703642879226708"><ele>286.0</ele><time>2026-04-25T07:51:46.999Z</time></trkpt><trkpt lat="38.04268732912205" lon="15.703625573307546"><ele>286.0</ele><time>2026-04-25T07:51:47.999Z</time></trkpt><trkpt lat="38.042598493677964" lon="15.703664561409232"><ele>286.0</ele><time>2026-04-25T07:51:49.999Z</time></trkpt><trkpt lat="38.0425630101867" lon="15.70373948206947"><ele>286.0</ele><time>2026-04-25T07:51:50.999Z</time></trkpt><trkpt lat="38.04251949773054" lon="15.703819672905913"><ele>286.0</ele><time>2026-04-25T07:51:51.999Z</time></trkpt><trkpt lat="38.04239754349142" lon="15.703816794555847"><ele>286.0</ele><time>2026-04-25T07:51:53.999Z</time></trkpt><trkpt lat="38.04231818900023" lon="15.703787048232341"><ele>286.0</ele><time>2026-04-25T07:51:55.999Z</time></trkpt><trkpt lat="38.04221607596965" lon="15.7037741253601"><ele>289.40000000000003</ele><time>2026-04-25T07:51:57.999Z</time></trkpt><trkpt lat="38.04214419171437" lon="15.703774977258385"><ele>292.8</ele><time>2026-04-25T07:51:58.999Z</time></trkpt><trkpt lat="38.04206634255476" lon="15.703782187962007"><ele>296.20000000000005</ele><time>2026-04-25T07:51:59.999Z</time></trkpt><trkpt lat="38.0419556713772" lon="15.703834579986998"><ele>299.6</ele><time>2026-04-25T07:52:01.999Z</time></trkpt><trkpt lat="38.04196099050434" lon="15.703987604746763"><ele>303.0</ele><time>2026-04-25T07:52:03.999Z</time></trkpt><trkpt lat="38.04202627248132" lon="15.704056671095282"><ele>303.0</ele><time>2026-04-25T07:52:04.999Z</time></trkpt><trkpt lat="38.04206577140892" lon="15.704138316883936"><ele>303.0</ele><time>2026-04-25T07:52:05.999Z</time></trkpt><trkpt lat="38.04209741149777" lon="15.704233993135508"><ele>303.0</ele><time>2026-04-25T07:52:06.999Z</time></trkpt><trkpt lat="38.04213272083836" lon="15.704318935830605"><ele>303.0</ele><time>2026-04-25T07:52:07.999Z</time></trkpt><trkpt lat="38.04219608653498" lon="15.704381585979753"><ele>303.0</ele><time>2026-04-25T07:52:08.999Z</time></trkpt><trkpt lat="38.0422585318406" lon="15.704411841119846"><ele>303.0</ele><time>2026-04-25T07:52:09.999Z</time></trkpt><trkpt lat="38.04234051586241" lon="15.704467224268745"><ele>303.3333333333333</ele><time>2026-04-25T07:52:10.999Z</time></trkpt><trkpt lat="38.042436172687864" lon="15.704491127009142"><ele>303.6666666666667</ele><time>2026-04-25T07:52:11.999Z</time></trkpt><trkpt lat="38.04251888239994" lon="15.704449544862728"><ele>304.0</ele><time>2026-04-25T07:52:12.999Z</time></trkpt><trkpt lat="38.04260156880788" lon="15.704415989908068"><ele>304.33333333333337</ele><time>2026-04-25T07:52:14Z</time></trkpt><trkpt lat="38.04270055512798" lon="15.704423107332293"><ele>304.6666666666667</ele><time>2026-04-25T07:52:15Z</time></trkpt><trkpt lat="38.04277568806637" lon="15.704430026067037"><ele>305.0</ele><time>2026-04-25T07:52:16Z</time></trkpt><trkpt lat="38.04283422232481" lon="15.704474183930127"><ele>305.0</ele><time>2026-04-25T07:52:17Z</time></trkpt><trkpt lat="38.04289211354882" lon="15.704524290415108"><ele>305.0</ele><time>2026-04-25T07:52:18Z</time></trkpt><trkpt lat="38.04298009444465" lon="15.704587534479735"><ele>305.0</ele><time>2026-04-25T07:52:19Z</time></trkpt><trkpt lat="38.043025875178905" lon="15.704676804406542"><ele>305.0</ele><time>2026-04-25T07:52:20Z</time></trkpt><trkpt lat="38.043036680147324" lon="15.704813810205074"><ele>305.0</ele><time>2026-04-25T07:52:22Z</time></trkpt><trkpt lat="38.04294224658703" lon="15.704867646347576"><ele>305.0</ele><time>2026-04-25T07:52:24Z</time></trkpt><trkpt lat="38.042907522699984" lon="15.704746883323468"><ele>305.0</ele><time>2026-04-25T07:52:26Z</time></trkpt><trkpt lat="38.04283397969441" lon="15.704659704162742"><ele>305.0</ele><time>2026-04-25T07:52:28Z</time></trkpt><trkpt lat="38.04273523840674" lon="15.704645882869944"><ele>305.0</ele><time>2026-04-25T07:52:30Z</time></trkpt><trkpt lat="38.042656373787466" lon="15.704680384567466"><ele>305.0</ele><time>2026-04-25T07:52:31Z</time></trkpt><trkpt lat="38.04258246360339" lon="15.704718398174784"><ele>305.0</ele><time>2026-04-25T07:52:32Z</time></trkpt><trkpt lat="38.04252896683806" lon="15.704773089635921"><ele>305.0</ele><time>2026-04-25T07:52:33Z</time></trkpt><trkpt lat="38.042464990077576" lon="15.704869014617827"><ele>305.0</ele><time>2026-04-25T07:52:35Z</time></trkpt><trkpt lat="38.042485396779206" lon="15.704959423495378"><ele>305.0</ele><time>2026-04-25T07:52:36Z</time></trkpt><trkpt lat="38.042479233754165" lon="15.705046175761549"><ele>305.0</ele><time>2026-04-25T07:52:37Z</time></trkpt><trkpt lat="38.042421931405144" lon="15.705174946469835"><ele>305.0</ele><time>2026-04-25T07:52:39Z</time></trkpt><trkpt lat="38.04235942749035" lon="15.70528694134773"><ele>313.1666666666667</ele><time>2026-04-25T07:52:40Z</time></trkpt><trkpt lat="38.042317331259" lon="15.705384060942711"><ele>321.33333333333337</ele><time>2026-04-25T07:52:41Z</time></trkpt><trkpt lat="38.042276077653376" lon="15.705469559825348"><ele>329.5</ele><time>2026-04-25T07:52:42Z</time></trkpt><trkpt lat="38.04223301669678" lon="15.705564930357841"><ele>337.6666666666667</ele><time>2026-04-25T07:52:43Z</time></trkpt><trkpt lat="38.04218214298563" lon="15.705622355752903"><ele>345.8333333333333</ele><time>2026-04-25T07:52:44Z</time></trkpt><trkpt lat="38.04211547486917" lon="15.705699693474642"><ele>354.0</ele><time>2026-04-25T07:52:45Z</time></trkpt><trkpt lat="38.04206845588166" lon="15.705785149256076"><ele>354.0</ele><time>2026-04-25T07:52:46Z</time></trkpt><trkpt lat="38.04204285500353" lon="15.705878045166479"><ele>354.0</ele><time>2026-04-25T07:52:47Z</time></trkpt><trkpt lat="38.0420597592369" lon="15.705971343601732"><ele>354.0</ele><time>2026-04-25T07:52:48Z</time></trkpt><trkpt lat="38.04207176630142" lon="15.706064068207958"><ele>354.0</ele><time>2026-04-25T07:52:49Z</time></trkpt><trkpt lat="38.04203691349779" lon="15.70616829780042"><ele>354.0</ele><time>2026-04-25T07:52:50Z</time></trkpt><trkpt lat="38.042046541398065" lon="15.706310792032882"><ele>354.0</ele><time>2026-04-25T07:52:52Z</time></trkpt><trkpt lat="38.0420998837404" lon="15.706380478402757"><ele>355.2</ele><time>2026-04-25T07:52:53Z</time></trkpt><trkpt lat="38.042191567856975" lon="15.706362143694038"><ele>356.4</ele><time>2026-04-25T07:52:54Z</time></trkpt><trkpt lat="38.042256681312246" lon="15.70648672287532"><ele>357.6</ele><time>2026-04-25T07:52:55.999Z</time></trkpt><trkpt lat="38.04224140062202" lon="15.706641411882728"><ele>358.8</ele><time>2026-04-25T07:52:57.999Z</time></trkpt><trkpt lat="38.042212383745735" lon="15.706716640677092"><ele>360.0</ele><time>2026-04-25T07:52:58.999Z</time></trkpt><trkpt lat="38.04218462800419" lon="15.706803522236706"><ele>360.0</ele><time>2026-04-25T07:52:59.999Z</time></trkpt><trkpt lat="38.04217181623282" lon="15.706890461993208"><ele>360.0</ele><time>2026-04-25T07:53:00.999Z</time></trkpt><trkpt lat="38.042122037119164" lon="15.706969134613784"><ele>360.0</ele><time>2026-04-25T07:53:01.999Z</time></trkpt><trkpt lat="38.042079702116396" lon="15.707048413916334"><ele>360.0</ele><time>2026-04-25T07:53:02.999Z</time></trkpt><trkpt lat="38.04204660319789" lon="15.707127146700177"><ele>360.0</ele><time>2026-04-25T07:53:03.999Z</time></trkpt><trkpt lat="38.042040610585374" lon="15.707257114597654"><ele>360.0</ele><time>2026-04-25T07:53:05.999Z</time></trkpt><trkpt lat="38.0421292911074" lon="15.70731717877897"><ele>361.6666666666667</ele><time>2026-04-25T07:53:06.999Z</time></trkpt><trkpt lat="38.04222197642817" lon="15.707295074835438"><ele>363.3333333333333</ele><time>2026-04-25T07:53:07.999Z</time></trkpt><trkpt lat="38.04230790665309" lon="15.707293666296183"><ele>365.0</ele><time>2026-04-25T07:53:08.999Z</time></trkpt><trkpt lat="38.04238614255543" lon="15.707293757509943"><ele>366.66666666666663</ele><time>2026-04-25T07:53:09.999Z</time></trkpt><trkpt lat="38.04247935538417" lon="15.707303352926154"><ele>368.3333333333333</ele><time>2026-04-25T07:53:10.999Z</time></trkpt><trkpt lat="38.04255217579198" lon="15.707327920486698"><ele>370.0</ele><time>2026-04-25T07:53:11.999Z</time></trkpt><trkpt lat="38.04264218416343" lon="15.707408133820964"><ele>367.8</ele><time>2026-04-25T07:53:13.999Z</time></trkpt><trkpt lat="38.04264329774419" lon="15.707566011612853"><ele>365.6</ele><time>2026-04-25T07:53:15.999Z</time></trkpt><trkpt lat="38.04261401461272" lon="15.707639912315734"><ele>363.4</ele><time>2026-04-25T07:53:16.999Z</time></trkpt><trkpt lat="38.042571072119244" lon="15.707742121331401"><ele>361.2</ele><time>2026-04-25T07:53:17.999Z</time></trkpt><trkpt lat="38.042523139720586" lon="15.707856686491928"><ele>359.0</ele><time>2026-04-25T07:53:18.999Z</time></trkpt><trkpt lat="38.042475676867774" lon="15.707950945369328"><ele>361.2</ele><time>2026-04-25T07:53:19.999Z</time></trkpt><trkpt lat="38.04240433562145" lon="15.707976016877847"><ele>363.4</ele><time>2026-04-25T07:53:21.999Z</time></trkpt><trkpt lat="38.0424094612026" lon="15.707843376728981"><ele>365.6</ele><time>2026-04-25T07:53:23.999Z</time></trkpt><trkpt lat="38.04236821381504" lon="15.707689406692797"><ele>367.8</ele><time>2026-04-25T07:53:25.999Z</time></trkpt><trkpt lat="38.04230249507562" lon="15.707640051447862"><ele>370.0</ele><time>2026-04-25T07:53:26.999Z</time></trkpt><trkpt lat="38.04221299194469" lon="15.7076357165988"><ele>370.0</ele><time>2026-04-25T07:53:28.999Z</time></trkpt><trkpt lat="38.0421857470653" lon="15.707739730687363"><ele>370.0</ele><time>2026-04-25T07:54:27Z</time></trkpt><trkpt lat="38.042262363255226" lon="15.70787254655599"><ele>370.0</ele><time>2026-04-25T07:54:29Z</time></trkpt><trkpt lat="38.042259372544905" lon="15.70795402362009"><ele>370.0</ele><time>2026-04-25T07:54:30Z</time></trkpt><trkpt lat="38.04224189314749" lon="15.708038142267613"><ele>370.0</ele><time>2026-04-25T07:54:31Z</time></trkpt><trkpt lat="38.04222634573989" lon="15.708142126758133"><ele>370.0</ele><time>2026-04-25T07:54:32Z</time></trkpt><trkpt lat="38.04219431494405" lon="15.708229083024486"><ele>373.2</ele><time>2026-04-25T07:54:33Z</time></trkpt><trkpt lat="38.042099475162935" lon="15.708304789580062"><ele>376.4</ele><time>2026-04-25T07:54:35Z</time></trkpt><trkpt lat="38.04200830904567" lon="15.708337115878612"><ele>379.6</ele><time>2026-04-25T07:54:37Z</time></trkpt><trkpt lat="38.04201019362662" lon="15.708180818205774"><ele>382.8</ele><time>2026-04-25T07:54:40Z</time></trkpt><trkpt lat="38.04200684706991" lon="15.708079339102"><ele>386.0</ele><time>2026-04-25T07:54:41Z</time></trkpt><trkpt lat="38.041980122049274" lon="15.70798810636465"><ele>386.0</ele><time>2026-04-25T07:54:42Z</time></trkpt><trkpt lat="38.04189737597768" lon="15.7079447047754"><ele>386.0</ele><time>2026-04-25T07:54:43Z</time></trkpt><trkpt lat="38.04181295248297" lon="15.707904124570113"><ele>386.0</ele><time>2026-04-25T07:54:44Z</time></trkpt><trkpt lat="38.04172966870198" lon="15.707819566149718"><ele>386.0</ele><time>2026-04-25T07:54:45Z</time></trkpt><trkpt lat="38.04164529017011" lon="15.707744260989692"><ele>386.0</ele><time>2026-04-25T07:54:46Z</time></trkpt><trkpt lat="38.04156515133747" lon="15.707666123405842"><ele>391.99999999999994</ele><time>2026-04-25T07:54:47Z</time></trkpt><trkpt lat="38.04151060460373" lon="15.7075989769649"><ele>398.0</ele><time>2026-04-25T07:54:48Z</time></trkpt><trkpt lat="38.041467555746244" lon="15.70752499660844"><ele>404.0</ele><time>2026-04-25T07:54:49Z</time></trkpt><trkpt lat="38.04142736266873" lon="15.707428537984251"><ele>410.0</ele><time>2026-04-25T07:54:50Z</time></trkpt><trkpt lat="38.04143529933329" lon="15.707337536260006"><ele>415.99999999999994</ele><time>2026-04-25T07:54:51Z</time></trkpt><trkpt lat="38.041427213297155" lon="15.707254208544946"><ele>422.0</ele><time>2026-04-25T07:54:52Z</time></trkpt><trkpt lat="38.041382675705194" lon="15.707103164893727"><ele>421.99999999999994</ele><time>2026-04-25T07:54:53.999Z</time></trkpt><trkpt lat="38.0413484897273" lon="15.706990996273458"><ele>422.0</ele><time>2026-04-25T07:54:54.999Z</time></trkpt><trkpt lat="38.04130337796098" lon="15.706910800634745"><ele>422.0</ele><time>2026-04-25T07:54:55.999Z</time></trkpt><trkpt lat="38.04124849375472" lon="15.706813276763953"><ele>422.0</ele><time>2026-04-25T07:54:56.999Z</time></trkpt><trkpt lat="38.041199597881224" lon="15.706707743703069"><ele>421.99999999999994</ele><time>2026-04-25T07:54:57.999Z</time></trkpt><trkpt lat="38.04119257985132" lon="15.706602013771432"><ele>422.0</ele><time>2026-04-25T07:54:58.999Z</time></trkpt><trkpt lat="38.04117600200933" lon="15.706517281994033"><ele>423.8333333333333</ele><time>2026-04-25T07:54:59.999Z</time></trkpt><trkpt lat="38.04113945866235" lon="15.706437692657296"><ele>425.66666666666663</ele><time>2026-04-25T07:55:00.999Z</time></trkpt><trkpt lat="38.04107372932249" lon="15.706361292780848"><ele>427.5</ele><time>2026-04-25T07:55:01.999Z</time></trkpt><trkpt lat="38.040997572214266" lon="15.706282266100345"><ele>429.33333333333337</ele><time>2026-04-25T07:55:02.999Z</time></trkpt><trkpt lat="38.04092518541875" lon="15.706214479306173"><ele>431.1666666666667</ele><time>2026-04-25T07:55:03.999Z</time></trkpt><trkpt lat="38.040849117284274" lon="15.706156594688245"><ele>433.0</ele><time>2026-04-25T07:55:05.999Z</time></trkpt><trkpt lat="38.0407383034906" lon="15.706257450328003"><ele>433.0</ele><time>2026-04-25T07:55:07.999Z</time></trkpt><trkpt lat="38.04079781310292" lon="15.706376522309428"><ele>432.99999999999994</ele><time>2026-04-25T07:55:08.999Z</time></trkpt><trkpt lat="38.04084426659443" lon="15.706469171377215"><ele>432.99999999999994</ele><time>2026-04-25T07:55:09.999Z</time></trkpt><trkpt lat="38.04089498682116" lon="15.70653796460186"><ele>433.0</ele><time>2026-04-25T07:55:10.999Z</time></trkpt><trkpt lat="38.040918665870315" lon="15.706613406011847"><ele>433.0</ele><time>2026-04-25T07:55:11.999Z</time></trkpt><trkpt lat="38.04093651369284" lon="15.706782077474825"><ele>431.1666666666667</ele><time>2026-04-25T07:55:13.999Z</time></trkpt><trkpt lat="38.04095927118472" lon="15.706869250099354"><ele>429.33333333333337</ele><time>2026-04-25T07:55:14.999Z</time></trkpt><trkpt lat="38.04097095971548" lon="15.706997720361159"><ele>427.5</ele><time>2026-04-25T07:55:16.999Z</time></trkpt><trkpt lat="38.0409935501911" lon="15.707097238713565"><ele>425.66666666666663</ele><time>2026-04-25T07:55:17.999Z</time></trkpt><trkpt lat="38.041005167228796" lon="15.707191311552586"><ele>423.8333333333333</ele><time>2026-04-25T07:55:18.999Z</time></trkpt><trkpt lat="38.04099897773362" lon="15.707275692640476"><ele>422.0</ele><time>2026-04-25T07:55:19.999Z</time></trkpt><trkpt lat="38.04096082652414" lon="15.707430364185198"><ele>421.99999999999994</ele><time>2026-04-25T07:55:21.999Z</time></trkpt><trkpt lat="38.040928061775" lon="15.70751322646007"><ele>422.0</ele><time>2026-04-25T07:55:22.999Z</time></trkpt><trkpt lat="38.04091873542071" lon="15.70760843117507"><ele>422.0</ele><time>2026-04-25T07:55:23.999Z</time></trkpt><trkpt lat="38.04092530048031" lon="15.707700574548019"><ele>422.0</ele><time>2026-04-25T07:55:24.999Z</time></trkpt><trkpt lat="38.04094766111579" lon="15.707787167816662"><ele>421.99999999999994</ele><time>2026-04-25T07:55:25.999Z</time></trkpt><trkpt lat="38.0410011602651" lon="15.707913324385387"><ele>422.0</ele><time>2026-04-25T07:55:27.999Z</time></trkpt><trkpt lat="38.04102186231843" lon="15.707999915731437"><ele>423.8571428571429</ele><time>2026-04-25T07:55:28.999Z</time></trkpt><trkpt lat="38.04104852033114" lon="15.708089522329878"><ele>425.7142857142857</ele><time>2026-04-25T07:55:29.999Z</time></trkpt><trkpt lat="38.04106907086053" lon="15.708181569205241"><ele>427.57142857142856</ele><time>2026-04-25T07:55:30.999Z</time></trkpt><trkpt lat="38.041087849755264" lon="15.708269512208325"><ele>429.42857142857144</ele><time>2026-04-25T07:55:31.999Z</time></trkpt><trkpt lat="38.04106728038811" lon="15.708348845967175"><ele>431.2857142857143</ele><time>2026-04-25T07:55:32.999Z</time></trkpt><trkpt lat="38.041056635993556" lon="15.708431009473635"><ele>433.14285714285717</ele><time>2026-04-25T07:55:33.999Z</time></trkpt><trkpt lat="38.04103832720838" lon="15.70850876771797"><ele>435.0</ele><time>2026-04-25T07:55:34.999Z</time></trkpt><trkpt lat="38.04096936743221" lon="15.708588484639215"><ele>435.0</ele><time>2026-04-25T07:55:36.999Z</time></trkpt><trkpt lat="38.040914179015765" lon="15.708486317580803"><ele>435.0</ele><time>2026-04-25T07:55:38.999Z</time></trkpt><trkpt lat="38.0409661322009" lon="15.708410817325731"><ele>435.0</ele><time>2026-04-25T07:55:39.999Z</time></trkpt><trkpt lat="38.040966378656655" lon="15.708306758776736"><ele>435.0</ele><time>2026-04-25T07:55:40.999Z</time></trkpt><trkpt lat="38.04095332188669" lon="15.708203432641032"><ele>435.0</ele><time>2026-04-25T07:55:41.999Z</time></trkpt><trkpt lat="38.04090626472832" lon="15.708087084134982"><ele>435.0</ele><time>2026-04-25T07:55:42.999Z</time></trkpt><trkpt lat="38.040841269560374" lon="15.707976477670197"><ele>441.2</ele><time>2026-04-25T07:55:43.999Z</time></trkpt><trkpt lat="38.04078307293608" lon="15.707866251939999"><ele>447.4</ele><time>2026-04-25T07:55:44.999Z</time></trkpt><trkpt lat="38.0407323045526" lon="15.707759931099718"><ele>453.6</ele><time>2026-04-25T07:55:45.999Z</time></trkpt><trkpt lat="38.04071814215989" lon="15.707646385203391"><ele>459.8</ele><time>2026-04-25T07:55:46.999Z</time></trkpt><trkpt lat="38.04070131982919" lon="15.707547469332342"><ele>466.0</ele><time>2026-04-25T07:55:47.999Z</time></trkpt><trkpt lat="38.04066875024361" lon="15.70745516840917"><ele>466.00000000000006</ele><time>2026-04-25T07:55:48.999Z</time></trkpt><trkpt lat="38.040644704506164" lon="15.707367698142447"><ele>466.0</ele><time>2026-04-25T07:55:49.999Z</time></trkpt><trkpt lat="38.04060569541249" lon="15.70728182324018"><ele>466.0</ele><time>2026-04-25T07:55:50.999Z</time></trkpt><trkpt lat="38.040554236840535" lon="15.707204425947316"><ele>466.0</ele><time>2026-04-25T07:55:51.999Z</time></trkpt><trkpt lat="38.04049088602802" lon="15.707115495819147"><ele>466.00000000000006</ele><time>2026-04-25T07:55:52.999Z</time></trkpt><trkpt lat="38.040423059120236" lon="15.707035471050652"><ele>466.0</ele><time>2026-04-25T07:55:53.999Z</time></trkpt><trkpt lat="38.040359723396115" lon="15.706948305866478"><ele>459.4</ele><time>2026-04-25T07:55:54.999Z</time></trkpt><trkpt lat="38.04029588412338" lon="15.706853571392452"><ele>452.8</ele><time>2026-04-25T07:55:55.999Z</time></trkpt><trkpt lat="38.040222785271524" lon="15.706769546174852"><ele>446.19999999999993</ele><time>2026-04-25T07:55:56.999Z</time></trkpt><trkpt lat="38.04015930191686" lon="15.706710911262746"><ele>439.59999999999997</ele><time>2026-04-25T07:55:57.999Z</time></trkpt><trkpt lat="38.04008232603122" lon="15.706657054561335"><ele>433.0</ele><time>2026-04-25T07:55:59.999Z</time></trkpt><trkpt lat="38.040036539939045" lon="15.70678490475786"><ele>433.0</ele><time>2026-04-25T07:56:01.999Z</time></trkpt><trkpt lat="38.04008743451134" lon="15.706849394120553"><ele>432.99999999999994</ele><time>2026-04-25T07:56:02.999Z</time></trkpt><trkpt lat="38.040101237598144" lon="15.706938600417093"><ele>432.99999999999994</ele><time>2026-04-25T07:56:04.999Z</time></trkpt><trkpt lat="38.04013176378066" lon="15.707058137396746"><ele>433.0</ele><time>2026-04-25T07:56:06.999Z</time></trkpt><trkpt lat="38.04017992829319" lon="15.707188443156685"><ele>433.0</ele><time>2026-04-25T07:56:08.999Z</time></trkpt><trkpt lat="38.04025092499027" lon="15.707300149612664"><ele>439.59999999999997</ele><time>2026-04-25T07:56:10.999Z</time></trkpt><trkpt lat="38.04031959130612" lon="15.70743700549453"><ele>446.19999999999993</ele><time>2026-04-25T07:56:12.999Z</time></trkpt><trkpt lat="38.040356081398535" lon="15.70759051479162"><ele>452.8</ele><time>2026-04-25T07:56:14.999Z</time></trkpt><trkpt lat="38.040369718718274" lon="15.707675535033234"><ele>459.4</ele><time>2026-04-25T07:56:15.999Z</time></trkpt><trkpt lat="38.04038856493739" lon="15.707775170927356"><ele>466.0</ele><time>2026-04-25T07:56:16.999Z</time></trkpt><trkpt lat="38.040416720620115" lon="15.707859126291911"><ele>468.7142857142857</ele><time>2026-04-25T07:56:17.999Z</time></trkpt><trkpt lat="38.04042655036759" lon="15.707953908812563"><ele>471.42857142857144</ele><time>2026-04-25T07:56:18.999Z</time></trkpt><trkpt lat="38.04046006563702" lon="15.708036451580806"><ele>474.14285714285717</ele><time>2026-04-25T07:56:19.999Z</time></trkpt><trkpt lat="38.04047626808236" lon="15.708115080776961"><ele>476.8571428571429</ele><time>2026-04-25T07:56:20.999Z</time></trkpt><trkpt lat="38.040489625902914" lon="15.70821617773602"><ele>479.57142857142856</ele><time>2026-04-25T07:56:22.999Z</time></trkpt><trkpt lat="38.040486220042894" lon="15.708325541900097"><ele>482.28571428571433</ele><time>2026-04-25T07:56:24.999Z</time></trkpt><trkpt lat="38.04047793815091" lon="15.708404987670583"><ele>485.00000000000006</ele><time>2026-04-25T07:56:26Z</time></trkpt><trkpt lat="38.04044177622053" lon="15.708562024947488"><ele>486.28571428571433</ele><time>2026-04-25T07:56:28Z</time></trkpt><trkpt lat="38.04040295188902" lon="15.708628840916875"><ele>487.57142857142856</ele><time>2026-04-25T07:56:29Z</time></trkpt><trkpt lat="38.04037100859801" lon="15.708701334703724"><ele>488.8571428571429</ele><time>2026-04-25T07:56:30Z</time></trkpt><trkpt lat="38.04032032217022" lon="15.70879400644872"><ele>490.14285714285717</ele><time>2026-04-25T07:56:32Z</time></trkpt><trkpt lat="38.04027519627115" lon="15.70889239054618"><ele>491.42857142857144</ele><time>2026-04-25T07:56:34Z</time></trkpt><trkpt lat="38.040293651964326" lon="15.70897242584965"><ele>492.7142857142857</ele><time>2026-04-25T07:56:35Z</time></trkpt><trkpt lat="38.04033641142328" lon="15.709046695834227"><ele>494.0</ele><time>2026-04-25T07:56:36Z</time></trkpt><trkpt lat="38.040385878108694" lon="15.70912965934636"><ele>493.99999999999994</ele><time>2026-04-25T07:56:37Z</time></trkpt><trkpt lat="38.040467206951966" lon="15.709176063822017"><ele>494.0</ele><time>2026-04-25T07:56:38Z</time></trkpt><trkpt lat="38.04053574844215" lon="15.709232091893988"><ele>494.0</ele><time>2026-04-25T07:56:39Z</time></trkpt><trkpt lat="38.04060705407281" lon="15.709269442070998"><ele>494.0</ele><time>2026-04-25T07:56:40Z</time></trkpt><trkpt lat="38.040673851166474" lon="15.709367621200053"><ele>493.99999999999994</ele><time>2026-04-25T07:56:41.999Z</time></trkpt><trkpt lat="38.040652186701436" lon="15.70946073582549"><ele>494.0</ele><time>2026-04-25T07:56:42.999Z</time></trkpt><trkpt lat="38.040633540028054" lon="15.709564162486998"><ele>495.66666666666663</ele><time>2026-04-25T07:56:43.999Z</time></trkpt><trkpt lat="38.04065651841155" lon="15.709639630112932"><ele>497.3333333333333</ele><time>2026-04-25T07:56:44.999Z</time></trkpt><trkpt lat="38.040642141187476" lon="15.709753839935436"><ele>499.0</ele><time>2026-04-25T07:56:46.999Z</time></trkpt><trkpt lat="38.0405425397878" lon="15.709781265165953"><ele>500.66666666666663</ele><time>2026-04-25T07:56:48.999Z</time></trkpt><trkpt lat="38.04048330974885" lon="15.709832106755869"><ele>502.3333333333333</ele><time>2026-04-25T07:56:49.999Z</time></trkpt><trkpt lat="38.04039542719383" lon="15.709828032100654"><ele>504.0</ele><time>2026-04-25T07:56:51.999Z</time></trkpt><trkpt lat="38.04039227043923" lon="15.709706252904857"><ele>504.0</ele><time>2026-04-25T07:56:53.999Z</time></trkpt><trkpt lat="38.0403710863064" lon="15.709627452885606"><ele>504.0</ele><time>2026-04-25T07:56:54.999Z</time></trkpt><trkpt lat="38.04034664189313" lon="15.7095496703036"><ele>504.0</ele><time>2026-04-25T07:56:55.999Z</time></trkpt><trkpt lat="38.04029248276999" lon="15.709498262294131"><ele>504.0</ele><time>2026-04-25T07:56:56.999Z</time></trkpt><trkpt lat="38.04019660686282" lon="15.709410003772035"><ele>504.0</ele><time>2026-04-25T07:56:58.999Z</time></trkpt><trkpt lat="38.040104222957176" lon="15.709313328716638"><ele>504.0</ele><time>2026-04-25T07:57:00.999Z</time></trkpt><trkpt lat="38.040060590511736" lon="15.709251732152891"><ele>502.3333333333333</ele><time>2026-04-25T07:57:01.999Z</time></trkpt><trkpt lat="38.039995086271325" lon="15.709133422253476"><ele>500.66666666666663</ele><time>2026-04-25T07:57:03.999Z</time></trkpt><trkpt lat="38.03992750741456" lon="15.70909879702314"><ele>499.0</ele><time>2026-04-25T07:57:05.999Z</time></trkpt><trkpt lat="38.0398591959006" lon="15.70922439875729"><ele>497.3333333333333</ele><time>2026-04-25T07:57:07.999Z</time></trkpt><trkpt lat="38.03989179452048" lon="15.70930855671741"><ele>495.66666666666663</ele><time>2026-04-25T07:57:08.999Z</time></trkpt><trkpt lat="38.039930540666035" lon="15.709378063888835"><ele>494.0</ele><time>2026-04-25T07:57:09.999Z</time></trkpt><trkpt lat="38.03995775627248" lon="15.709461709980864"><ele>496.0</ele><time>2026-04-25T07:57:10.999Z</time></trkpt><trkpt lat="38.04001533937886" lon="15.709613808731543"><ele>498.0</ele><time>2026-04-25T07:57:12.999Z</time></trkpt><trkpt lat="38.040038488039144" lon="15.709709181949396"><ele>500.0</ele><time>2026-04-25T07:57:13.999Z</time></trkpt><trkpt lat="38.04002671046764" lon="15.709800204336975"><ele>502.0</ele><time>2026-04-25T07:57:14.999Z</time></trkpt><trkpt lat="38.039996422278534" lon="15.709922314282895"><ele>504.0</ele><time>2026-04-25T07:57:16.999Z</time></trkpt><trkpt lat="38.03991216609746" lon="15.710044424318841"><ele>505.1666666666667</ele><time>2026-04-25T07:57:18.999Z</time></trkpt><trkpt lat="38.03986376530485" lon="15.71015181384288"><ele>506.33333333333337</ele><time>2026-04-25T07:57:20.999Z</time></trkpt><trkpt lat="38.03987643424892" lon="15.71023482901402"><ele>507.5</ele><time>2026-04-25T07:57:21.999Z</time></trkpt><trkpt lat="38.039942832467595" lon="15.710316661012033"><ele>508.6666666666667</ele><time>2026-04-25T07:57:22.999Z</time></trkpt><trkpt lat="38.04002155715158" lon="15.710359062270093"><ele>509.83333333333337</ele><time>2026-04-25T07:57:23.999Z</time></trkpt><trkpt lat="38.04007084393811" lon="15.71041394809213"><ele>511.0</ele><time>2026-04-25T07:57:24.999Z</time></trkpt><trkpt lat="38.04003886745282" lon="15.710539110056608"><ele>511.0</ele><time>2026-04-25T07:57:26.999Z</time></trkpt><trkpt lat="38.04001170274831" lon="15.710612282958307"><ele>511.0</ele><time>2026-04-25T07:57:27.999Z</time></trkpt><trkpt lat="38.039982394598454" lon="15.710694080750145"><ele>511.0</ele><time>2026-04-25T07:57:28.999Z</time></trkpt><trkpt lat="38.03991290525696" lon="15.710816699557043"><ele>511.0</ele><time>2026-04-25T07:57:30.999Z</time></trkpt><trkpt lat="38.03992713426926" lon="15.71097797678625"><ele>511.0</ele><time>2026-04-25T07:57:32.999Z</time></trkpt><trkpt lat="38.03992713427145" lon="15.711065984153523"><ele>521.4</ele><time>2026-04-25T07:57:33.999Z</time></trkpt><trkpt lat="38.03988595168691" lon="15.711197566147208"><ele>531.8</ele><time>2026-04-25T07:57:35.999Z</time></trkpt><trkpt lat="38.03985270339773" lon="15.711330779110458"><ele>542.1999999999999</ele><time>2026-04-25T07:57:37.999Z</time></trkpt><trkpt lat="38.03984296707533" lon="15.711502719726717"><ele>552.6</ele><time>2026-04-25T07:57:39.999Z</time></trkpt><trkpt lat="38.039852525796434" lon="15.711599718391016"><ele>563.0</ele><time>2026-04-25T07:57:40.999Z</time></trkpt><trkpt lat="38.03987672263551" lon="15.711691447449644"><ele>563.0</ele><time>2026-04-25T07:57:41.999Z</time></trkpt><trkpt lat="38.039869940493226" lon="15.711776827512304"><ele>563.0</ele><time>2026-04-25T07:57:42.999Z</time></trkpt><trkpt lat="38.039884464774254" lon="15.711877104828458"><ele>563.0</ele><time>2026-04-25T07:57:43.999Z</time></trkpt><trkpt lat="38.039886890943094" lon="15.711969382208222"><ele>563.0</ele><time>2026-04-25T07:57:44.999Z</time></trkpt><trkpt lat="38.0398928239448" lon="15.712071121735548"><ele>563.0</ele><time>2026-04-25T07:57:45.999Z</time></trkpt><trkpt lat="38.03988589611388" lon="15.712168833619403"><ele>563.0</ele><time>2026-04-25T07:57:46.999Z</time></trkpt><trkpt lat="38.03988465900318" lon="15.712266716827456"><ele>563.0</ele><time>2026-04-25T07:57:48.999Z</time></trkpt><trkpt lat="38.03981967879268" lon="15.712273535966355"><ele>563.0</ele><time>2026-04-25T07:57:50.999Z</time></trkpt><trkpt lat="38.03979571762685" lon="15.712178963957957"><ele>563.0</ele><time>2026-04-25T07:57:52.999Z</time></trkpt><trkpt lat="38.03975940463465" lon="15.712023180147135"><ele>563.0</ele><time>2026-04-25T07:57:54.999Z</time></trkpt><trkpt lat="38.03969903730161" lon="15.711857688499897"><ele>563.0</ele><time>2026-04-25T07:57:56.999Z</time></trkpt><trkpt lat="38.03964056591084" lon="15.71175759141842"><ele>563.0</ele><time>2026-04-25T07:57:57.999Z</time></trkpt><trkpt lat="38.0396192354601" lon="15.71163823352296"><ele>563.0</ele><time>2026-04-25T07:57:58.999Z</time></trkpt><trkpt lat="38.03960161862519" lon="15.711526765264386"><ele>563.0</ele><time>2026-04-25T07:57:59.999Z</time></trkpt><trkpt lat="38.03959765055582" lon="15.711438258153713"><ele>563.0</ele><time>2026-04-25T07:58:00.999Z</time></trkpt><trkpt lat="38.03960446566542" lon="15.711343280108949"><ele>563.0</ele><time>2026-04-25T07:58:01.999Z</time></trkpt><trkpt lat="38.03959916208383" lon="15.711213740853141"><ele>563.0</ele><time>2026-04-25T07:58:03.999Z</time></trkpt><trkpt lat="38.039531348152245" lon="15.711170867551855"><ele>563.0</ele><time>2026-04-25T07:58:04.999Z</time></trkpt><trkpt lat="38.039478464619705" lon="15.711115384275123"><ele>563.0</ele><time>2026-04-25T07:58:05.999Z</time></trkpt><trkpt lat="38.039422647554204" lon="15.71105489387515"><ele>563.0</ele><time>2026-04-25T07:58:06.999Z</time></trkpt><trkpt lat="38.03937444605" lon="15.71098894644112"><ele>563.0</ele><time>2026-04-25T07:58:07.999Z</time></trkpt><trkpt lat="38.03938347956408" lon="15.71085663758994"><ele>563.0</ele><time>2026-04-25T07:58:09.999Z</time></trkpt><trkpt lat="38.03939617366563" lon="15.710753703041252"><ele>563.0</ele><time>2026-04-25T07:58:10.999Z</time></trkpt><trkpt lat="38.03939291429748" lon="15.710658311677552"><ele>562.5</ele><time>2026-04-25T07:58:11.999Z</time></trkpt><trkpt lat="38.03933300025676" lon="15.71050167157469"><ele>562.0</ele><time>2026-04-25T07:58:13.999Z</time></trkpt><trkpt lat="38.039283187347706" lon="15.710421965558108"><ele>561.5</ele><time>2026-04-25T07:58:14.999Z</time></trkpt><trkpt lat="38.03927331557875" lon="15.710336208777594"><ele>561.0</ele><time>2026-04-25T07:58:15.999Z</time></trkpt><trkpt lat="38.03928742679127" lon="15.710250792212562"><ele>560.5</ele><time>2026-04-25T07:58:16.999Z</time></trkpt><trkpt lat="38.03927354599702" lon="15.710159392428004"><ele>560.0</ele><time>2026-04-25T07:58:17.999Z</time></trkpt><trkpt lat="38.0392366326703" lon="15.710081861192606"><ele>558.1666666666666</ele><time>2026-04-25T07:58:18.999Z</time></trkpt><trkpt lat="38.039210860095515" lon="15.710006800634838"><ele>556.3333333333333</ele><time>2026-04-25T07:58:19.999Z</time></trkpt><trkpt lat="38.03916988674658" lon="15.709936041899107"><ele>554.5</ele><time>2026-04-25T07:58:20.998Z</time></trkpt><trkpt lat="38.03913667102852" lon="15.709860591815216"><ele>552.6666666666666</ele><time>2026-04-25T07:58:21.998Z</time></trkpt><trkpt lat="38.03907870238283" lon="15.709794669180145"><ele>550.8333333333334</ele><time>2026-04-25T07:58:22.998Z</time></trkpt><trkpt lat="38.03901205300016" lon="15.709728160113297"><ele>549.0</ele><time>2026-04-25T07:58:24.998Z</time></trkpt><trkpt lat="38.03900762581027" lon="15.709853821390995"><ele>560.0</ele><time>2026-04-25T07:58:25.998Z</time></trkpt><trkpt lat="38.039042501328105" lon="15.709942608811986"><ele>571.0</ele><time>2026-04-25T07:58:28.998Z</time></trkpt><trkpt lat="38.03907014496046" lon="15.710081368991188"><ele>582.0</ele><time>2026-04-25T07:58:30.998Z</time></trkpt><trkpt lat="38.03904853692085" lon="15.710227476563151"><ele>593.0</ele><time>2026-04-25T07:58:32.999Z</time></trkpt><trkpt lat="38.03903704021932" lon="15.71038026473868"><ele>604.0</ele><time>2026-04-25T07:58:34.999Z</time></trkpt><trkpt lat="38.039024524554634" lon="15.710464535334504"><ele>605.8333333333334</ele><time>2026-04-25T07:58:35.999Z</time></trkpt><trkpt lat="38.039005965191144" lon="15.710549678384618"><ele>607.6666666666667</ele><time>2026-04-25T07:58:36.999Z</time></trkpt><trkpt lat="38.03893245395293" lon="15.71062553305809"><ele>609.5</ele><time>2026-04-25T07:58:38.999Z</time></trkpt><trkpt lat="38.03891837639174" lon="15.710704154855241"><ele>611.3333333333334</ele><time>2026-04-25T07:58:39.999Z</time></trkpt><trkpt lat="38.03892268660639" lon="15.710846033765966"><ele>613.1666666666666</ele><time>2026-04-25T07:58:41.999Z</time></trkpt><trkpt lat="38.03890050238188" lon="15.710935663239066"><ele>615.0</ele><time>2026-04-25T07:58:42.999Z</time></trkpt><trkpt lat="38.03889357907551" lon="15.711038376416651"><ele>611.8571428571428</ele><time>2026-04-25T07:58:43.999Z</time></trkpt><trkpt lat="38.03890940818222" lon="15.711137238648659"><ele>608.7142857142858</ele><time>2026-04-25T07:58:44.999Z</time></trkpt><trkpt lat="38.03890832010615" lon="15.71124069521993"><ele>605.5714285714286</ele><time>2026-04-25T07:58:45.999Z</time></trkpt><trkpt lat="38.038907036410976" lon="15.711321762590153"><ele>602.4285714285713</ele><time>2026-04-25T07:58:46.999Z</time></trkpt><trkpt lat="38.038869330078526" lon="15.71139150926742"><ele>599.2857142857142</ele><time>2026-04-25T07:58:49.999Z</time></trkpt><trkpt lat="38.03882177768243" lon="15.711335075798086"><ele>596.1428571428571</ele><time>2026-04-25T07:58:51.999Z</time></trkpt><trkpt lat="38.038851944387744" lon="15.711252012506819"><ele>593.0</ele><time>2026-04-25T07:58:52.999Z</time></trkpt><trkpt lat="38.03881925899278" lon="15.711161574930925"><ele>597.4</ele><time>2026-04-25T07:58:53.999Z</time></trkpt><trkpt lat="38.03878733332262" lon="15.710992331029676"><ele>601.8</ele><time>2026-04-25T07:58:55.999Z</time></trkpt><trkpt lat="38.038772342666526" lon="15.71089661665625"><ele>606.2</ele><time>2026-04-25T07:58:56.999Z</time></trkpt><trkpt lat="38.03875021624661" lon="15.710803945669243"><ele>610.6</ele><time>2026-04-25T07:58:57.999Z</time></trkpt><trkpt lat="38.038730407935" lon="15.71069329361895"><ele>615.0</ele><time>2026-04-25T07:58:58.999Z</time></trkpt><trkpt lat="38.03874772452395" lon="15.710595856880763"><ele>615.0</ele><time>2026-04-25T07:58:59.999Z</time></trkpt><trkpt lat="38.03875796237369" lon="15.710481344428745"><ele>615.0</ele><time>2026-04-25T07:59:00.999Z</time></trkpt><trkpt lat="38.038754669529595" lon="15.710376326556252"><ele>615.0</ele><time>2026-04-25T07:59:01.999Z</time></trkpt><trkpt lat="38.03871808786044" lon="15.710299723317283"><ele>615.0</ele><time>2026-04-25T07:59:02.999Z</time></trkpt><trkpt lat="38.03867851414304" lon="15.710222925267786"><ele>615.0</ele><time>2026-04-25T07:59:03.999Z</time></trkpt><trkpt lat="38.038621843404435" lon="15.71014372635918"><ele>615.0</ele><time>2026-04-25T07:59:04.999Z</time></trkpt><trkpt lat="38.03856113350321" lon="15.710039638817392"><ele>612.8</ele><time>2026-04-25T07:59:05.999Z</time></trkpt><trkpt lat="38.038499386847455" lon="15.70995529387318"><ele>610.6</ele><time>2026-04-25T07:59:06.999Z</time></trkpt><trkpt lat="38.038442424178875" lon="15.70987569907949"><ele>608.4</ele><time>2026-04-25T07:59:07.999Z</time></trkpt><trkpt lat="38.03839083061159" lon="15.709779057656311"><ele>606.2</ele><time>2026-04-25T07:59:08.999Z</time></trkpt><trkpt lat="38.03832465388363" lon="15.709684859014057"><ele>604.0</ele><time>2026-04-25T07:59:09.999Z</time></trkpt><trkpt lat="38.03824831220242" lon="15.709643392662427"><ele>609.6666666666667</ele><time>2026-04-25T07:59:10.999Z</time></trkpt><trkpt lat="38.03816856902146" lon="15.709578810771966"><ele>615.3333333333334</ele><time>2026-04-25T07:59:12.999Z</time></trkpt><trkpt lat="38.038086103407664" lon="15.709663694626832"><ele>621.0</ele><time>2026-04-25T07:59:17.999Z</time></trkpt><trkpt lat="38.038155295768526" lon="15.709723246297319"><ele>626.6666666666666</ele><time>2026-04-25T07:59:18.999Z</time></trkpt><trkpt lat="38.03820120319461" lon="15.709788708695129"><ele>632.3333333333333</ele><time>2026-04-25T07:59:19.999Z</time></trkpt><trkpt lat="38.038216739683314" lon="15.709874851390516"><ele>638.0</ele><time>2026-04-25T07:59:20.999Z</time></trkpt><trkpt lat="38.03823913128846" lon="15.709956831164428"><ele>638.0</ele><time>2026-04-25T07:59:21.999Z</time></trkpt><trkpt lat="38.03824701213862" lon="15.710042193650661"><ele>638.0</ele><time>2026-04-25T07:59:22.999Z</time></trkpt><trkpt lat="38.0382513279658" lon="15.71013274892628"><ele>638.0</ele><time>2026-04-25T07:59:23.999Z</time></trkpt><trkpt lat="38.038257307948555" lon="15.710254145756366"><ele>638.0</ele><time>2026-04-25T07:59:24.999Z</time></trkpt><trkpt lat="38.038280007852066" lon="15.710345234352346"><ele>638.0</ele><time>2026-04-25T07:59:25.999Z</time></trkpt><trkpt lat="38.03828478524191" lon="15.710440898665464"><ele>638.0</ele><time>2026-04-25T07:59:26.999Z</time></trkpt><trkpt lat="38.03829240808756" lon="15.710539343308557"><ele>637.0</ele><time>2026-04-25T07:59:27.999Z</time></trkpt><trkpt lat="38.038296090814164" lon="15.710638489319098"><ele>636.0</ele><time>2026-04-25T07:59:28.999Z</time></trkpt><trkpt lat="38.038294736589556" lon="15.710727903302152"><ele>635.0</ele><time>2026-04-25T07:59:29.999Z</time></trkpt><trkpt lat="38.038278397787515" lon="15.710805175581356"><ele>634.0</ele><time>2026-04-25T07:59:31.999Z</time></trkpt><trkpt lat="38.0382021926362" lon="15.710774828193626"><ele>633.0</ele><time>2026-04-25T07:59:34.999Z</time></trkpt><trkpt lat="38.03820477920486" lon="15.71066934802308"><ele>632.0</ele><time>2026-04-25T07:59:36.999Z</time></trkpt><trkpt lat="38.03818386852539" lon="15.710591726012659"><ele>631.0</ele><time>2026-04-25T07:59:37.999Z</time></trkpt><trkpt lat="38.03815011654383" lon="15.710507843540046"><ele>631.0</ele><time>2026-04-25T07:59:38.999Z</time></trkpt><trkpt lat="38.03809375569889" lon="15.710434409284025"><ele>631.0</ele><time>2026-04-25T07:59:39.999Z</time></trkpt><trkpt lat="38.03804007662102" lon="15.710360104908844"><ele>631.0</ele><time>2026-04-25T07:59:40.999Z</time></trkpt><trkpt lat="38.03797643791592" lon="15.710280733916122"><ele>631.0</ele><time>2026-04-25T07:59:41.999Z</time></trkpt><trkpt lat="38.03791917488693" lon="15.710196084542075"><ele>631.0</ele><time>2026-04-25T07:59:42.999Z</time></trkpt><trkpt lat="38.037838374730626" lon="15.71011911737593"><ele>631.0</ele><time>2026-04-25T07:59:43.999Z</time></trkpt><trkpt lat="38.03773610563592" lon="15.710090773895983"><ele>632.4</ele><time>2026-04-25T07:59:44.999Z</time></trkpt><trkpt lat="38.0376464740753" lon="15.710049717330655"><ele>633.8</ele><time>2026-04-25T07:59:45.999Z</time></trkpt><trkpt lat="38.037580886360864" lon="15.709956810920687"><ele>635.1999999999999</ele><time>2026-04-25T07:59:46.999Z</time></trkpt><trkpt lat="38.03750219928671" lon="15.709872610383005"><ele>636.6</ele><time>2026-04-25T07:59:47.999Z</time></trkpt><trkpt lat="38.037417179368425" lon="15.709780821992984"><ele>638.0</ele><time>2026-04-25T07:59:48.999Z</time></trkpt><trkpt lat="38.037311716840875" lon="15.709677924262007"><ele>642.5</ele><time>2026-04-25T07:59:49.999Z</time></trkpt><trkpt lat="38.03720826386005" lon="15.70956011290487"><ele>647.0</ele><time>2026-04-25T07:59:50.999Z</time></trkpt><trkpt lat="38.03714486463247" lon="15.709421565327649"><ele>651.5</ele><time>2026-04-25T07:59:51.999Z</time></trkpt><trkpt lat="38.03705251625345" lon="15.709302699441642"><ele>656.0</ele><time>2026-04-25T07:59:52.999Z</time></trkpt><trkpt lat="38.03699461236689" lon="15.709177942725427"><ele>657.5999999999999</ele><time>2026-04-25T07:59:53.999Z</time></trkpt><trkpt lat="38.03695757078836" lon="15.70906521291175"><ele>659.2</ele><time>2026-04-25T07:59:54.999Z</time></trkpt><trkpt lat="38.03690842555922" lon="15.708960695143796"><ele>660.8</ele><time>2026-04-25T07:59:55.999Z</time></trkpt><trkpt lat="38.03685767545368" lon="15.708877719533833"><ele>662.4000000000001</ele><time>2026-04-25T07:59:56.999Z</time></trkpt><trkpt lat="38.0367739849969" lon="15.708784300434651"><ele>664.0</ele><time>2026-04-25T07:59:57.999Z</time></trkpt><trkpt lat="38.03669961086371" lon="15.708629858052753"><ele>665.2</ele><time>2026-04-25T07:59:58.999Z</time></trkpt><trkpt lat="38.036649218818134" lon="15.708511807394448"><ele>666.4000000000001</ele><time>2026-04-25T07:59:59.999Z</time></trkpt><trkpt lat="38.03660178618709" lon="15.70842817982348"><ele>667.6</ele><time>2026-04-25T08:00:00.999Z</time></trkpt><trkpt lat="38.03657856609835" lon="15.708347267020551"><ele>668.8</ele><time>2026-04-25T08:00:01.999Z</time></trkpt><trkpt lat="38.03648120296936" lon="15.708264675731813"><ele>670.0</ele><time>2026-04-25T08:00:03.999Z</time></trkpt><trkpt lat="38.036400447295776" lon="15.708279979191579"><ele>670.0</ele><time>2026-04-25T08:00:04.999Z</time></trkpt><trkpt lat="38.03630373893985" lon="15.708332156009332"><ele>670.0</ele><time>2026-04-25T08:00:05.999Z</time></trkpt><trkpt lat="38.036207140987564" lon="15.708281398591028"><ele>670.0</ele><time>2026-04-25T08:00:06.999Z</time></trkpt><trkpt lat="38.03617117711713" lon="15.708153135556687"><ele>670.0</ele><time>2026-04-25T08:00:07.999Z</time></trkpt><trkpt lat="38.036108975010535" lon="15.708087761750607"><ele>670.0</ele><time>2026-04-25T08:00:08.999Z</time></trkpt><trkpt lat="38.036028326335924" lon="15.708037529280835"><ele>670.0</ele><time>2026-04-25T08:00:10.999Z</time></trkpt><trkpt lat="38.03595367011401" lon="15.70797611192706"><ele>670.0</ele><time>2026-04-25T08:00:12.999Z</time></trkpt><trkpt lat="38.03589383402087" lon="15.70793484306441"><ele>670.0</ele><time>2026-04-25T08:00:13.999Z</time></trkpt><trkpt lat="38.03579126574844" lon="15.707940836943525"><ele>670.0</ele><time>2026-04-25T08:00:14.999Z</time></trkpt><trkpt lat="38.03571333194818" lon="15.70792810480338"><ele>670.0</ele><time>2026-04-25T08:00:15.999Z</time></trkpt><trkpt lat="38.035636942036646" lon="15.707868206505497"><ele>670.0</ele><time>2026-04-25T08:00:16.999Z</time></trkpt><trkpt lat="38.03555473219532" lon="15.707815366543189"><ele>668.3333333333334</ele><time>2026-04-25T08:00:17.999Z</time></trkpt><trkpt lat="38.035481080469886" lon="15.707745454361511"><ele>666.6666666666667</ele><time>2026-04-25T08:00:18.999Z</time></trkpt><trkpt lat="38.03542528544524" lon="15.707676054986061"><ele>665.0</ele><time>2026-04-25T08:00:19.999Z</time></trkpt><trkpt lat="38.035372864515004" lon="15.707621373988921"><ele>663.3333333333334</ele><time>2026-04-25T08:00:20.998Z</time></trkpt><trkpt lat="38.035304109651115" lon="15.707588662535288"><ele>661.6666666666666</ele><time>2026-04-25T08:00:21.998Z</time></trkpt><trkpt lat="38.03522871037457" lon="15.707595390922535"><ele>660.0</ele><time>2026-04-25T08:00:22.998Z</time></trkpt><trkpt lat="38.03516150246786" lon="15.707573080298214"><ele>660.0</ele><time>2026-04-25T08:00:23.998Z</time></trkpt><trkpt lat="38.035089148661356" lon="15.70762928894472"><ele>660.0</ele><time>2026-04-25T08:00:24.998Z</time></trkpt><trkpt lat="38.03502186347979" lon="15.707664878922424"><ele>660.0</ele><time>2026-04-25T08:00:25.998Z</time></trkpt><trkpt lat="38.034941110086805" lon="15.707692016226261"><ele>660.0</ele><time>2026-04-25T08:00:26.998Z</time></trkpt><trkpt lat="38.03486592952138" lon="15.707741561463234"><ele>660.0</ele><time>2026-04-25T08:00:27.998Z</time></trkpt><trkpt lat="38.034793142153816" lon="15.707788586322765"><ele>660.0</ele><time>2026-04-25T08:00:28.998Z</time></trkpt><trkpt lat="38.034721338225516" lon="15.707814524340828"><ele>663.3333333333334</ele><time>2026-04-25T08:00:29.998Z</time></trkpt><trkpt lat="38.03463965093856" lon="15.707812785491155"><ele>666.6666666666666</ele><time>2026-04-25T08:00:30.998Z</time></trkpt><trkpt lat="38.03456204134416" lon="15.707829777887193"><ele>670.0</ele><time>2026-04-25T08:00:31.998Z</time></trkpt><trkpt lat="38.034477897980274" lon="15.707861292356196"><ele>673.3333333333333</ele><time>2026-04-25T08:00:32.998Z</time></trkpt><trkpt lat="38.03441420192651" lon="15.707949568551992"><ele>676.6666666666666</ele><time>2026-04-25T08:00:33.998Z</time></trkpt><trkpt lat="38.03435526544008" lon="15.708013287527292"><ele>680.0</ele><time>2026-04-25T08:00:34.998Z</time></trkpt><trkpt lat="38.03429913101031" lon="15.70808073804508"><ele>680.0</ele><time>2026-04-25T08:00:35.998Z</time></trkpt><trkpt lat="38.03424683319724" lon="15.708157566347838"><ele>680.0</ele><time>2026-04-25T08:00:36.998Z</time></trkpt><trkpt lat="38.03420117355264" lon="15.708242967668907"><ele>680.0</ele><time>2026-04-25T08:00:37.999Z</time></trkpt><trkpt lat="38.034159142670866" lon="15.708323007907053"><ele>680.0</ele><time>2026-04-25T08:00:38.999Z</time></trkpt><trkpt lat="38.034071823107574" lon="15.708368055217324"><ele>680.0</ele><time>2026-04-25T08:00:40Z</time></trkpt><trkpt lat="38.034009826281604" lon="15.708454027702345"><ele>680.0</ele><time>2026-04-25T08:00:41Z</time></trkpt><trkpt lat="38.033963040610274" lon="15.708542774745222"><ele>680.5</ele><time>2026-04-25T08:00:42Z</time></trkpt><trkpt lat="38.03394873190032" lon="15.70863854832622"><ele>681.0</ele><time>2026-04-25T08:00:43Z</time></trkpt><trkpt lat="38.03397172273555" lon="15.708723746464823"><ele>681.5</ele><time>2026-04-25T08:00:44Z</time></trkpt><trkpt lat="38.03398222419057" lon="15.70881784061443"><ele>682.0</ele><time>2026-04-25T08:00:45Z</time></trkpt><trkpt lat="38.033957119609056" lon="15.708912261453586"><ele>682.5</ele><time>2026-04-25T08:00:46Z</time></trkpt><trkpt lat="38.03393769233356" lon="15.709020864507135"><ele>683.0</ele><time>2026-04-25T08:00:47Z</time></trkpt><trkpt lat="38.03391530954302" lon="15.709138609781872"><ele>683.0</ele><time>2026-04-25T08:00:48Z</time></trkpt><trkpt lat="38.033893413425965" lon="15.709247571490634"><ele>683.0</ele><time>2026-04-25T08:00:49Z</time></trkpt><trkpt lat="38.03386864247136" lon="15.709370969136742"><ele>683.0</ele><time>2026-04-25T08:00:50Z</time></trkpt><trkpt lat="38.03384527299994" lon="15.70948738523874"><ele>683.0</ele><time>2026-04-25T08:00:51Z</time></trkpt><trkpt lat="38.0338219851687" lon="15.709595086256735"><ele>683.0</ele><time>2026-04-25T08:00:52Z</time></trkpt><trkpt lat="38.033794952341864" lon="15.70968647357494"><ele>683.0</ele><time>2026-04-25T08:00:53Z</time></trkpt><trkpt lat="38.03375890427204" lon="15.70976862949975"><ele>684.4</ele><time>2026-04-25T08:00:54Z</time></trkpt><trkpt lat="38.03364081419559" lon="15.709852778305226"><ele>685.8</ele><time>2026-04-25T08:00:56Z</time></trkpt><trkpt lat="38.033573383000046" lon="15.709907141427887"><ele>687.2</ele><time>2026-04-25T08:00:57Z</time></trkpt><trkpt lat="38.03358845509397" lon="15.71007491478625"><ele>688.6</ele><time>2026-04-25T08:00:58Z</time></trkpt><trkpt lat="38.03357611906345" lon="15.71017588780379"><ele>690.0</ele><time>2026-04-25T08:00:59Z</time></trkpt><trkpt lat="38.03355125804506" lon="15.710274045875716"><ele>690.2</ele><time>2026-04-25T08:01:00Z</time></trkpt><trkpt lat="38.03355562021551" lon="15.710383876340297"><ele>690.4</ele><time>2026-04-25T08:01:01Z</time></trkpt><trkpt lat="38.03357565450952" lon="15.710522788893984"><ele>690.5999999999999</ele><time>2026-04-25T08:01:02Z</time></trkpt><trkpt lat="38.03365208751277" lon="15.710624783907953"><ele>690.8</ele><time>2026-04-25T08:01:03Z</time></trkpt><trkpt lat="38.033708061472936" lon="15.710732365844494"><ele>691.0</ele><time>2026-04-25T08:01:04Z</time></trkpt><trkpt lat="38.03371823453894" lon="15.71084641180949"><ele>691.0</ele><time>2026-04-25T08:01:05Z</time></trkpt><trkpt lat="38.03373472335865" lon="15.710964283472451"><ele>691.0</ele><time>2026-04-25T08:01:06Z</time></trkpt><trkpt lat="38.03373873473611" lon="15.711076818230984"><ele>691.0</ele><time>2026-04-25T08:01:07Z</time></trkpt><trkpt lat="38.03371722964352" lon="15.711199673722874"><ele>691.0</ele><time>2026-04-25T08:01:08Z</time></trkpt><trkpt lat="38.033684107289" lon="15.711329825685917"><ele>691.0</ele><time>2026-04-25T08:01:09Z</time></trkpt><trkpt lat="38.03366433441357" lon="15.711458839175387"><ele>690.0</ele><time>2026-04-25T08:01:10Z</time></trkpt><trkpt lat="38.03366583475282" lon="15.711578442996512"><ele>689.0</ele><time>2026-04-25T08:01:11Z</time></trkpt><trkpt lat="38.03371695651024" lon="15.71166705876785"><ele>688.0</ele><time>2026-04-25T08:01:12Z</time></trkpt><trkpt lat="38.033768863579425" lon="15.711763232670853"><ele>687.0</ele><time>2026-04-25T08:01:13Z</time></trkpt><trkpt lat="38.0338302225699" lon="15.711885564620165"><ele>686.0</ele><time>2026-04-25T08:01:14Z</time></trkpt><trkpt lat="38.03386828139816" lon="15.712051335425336"><ele>686.0</ele><time>2026-04-25T08:01:15Z</time></trkpt><trkpt lat="38.03393868996676" lon="15.712212397166812"><ele>686.0</ele><time>2026-04-25T08:01:16Z</time></trkpt><trkpt lat="38.0340023826824" lon="15.712392730418092"><ele>686.0</ele><time>2026-04-25T08:01:17Z</time></trkpt><trkpt lat="38.03406010290637" lon="15.712555016619012"><ele>686.0</ele><time>2026-04-25T08:01:18Z</time></trkpt><trkpt lat="38.034118131023014" lon="15.712688751581425"><ele>686.75</ele><time>2026-04-25T08:01:19Z</time></trkpt><trkpt lat="38.034150970584186" lon="15.712851089068812"><ele>687.5</ele><time>2026-04-25T08:01:20Z</time></trkpt><trkpt lat="38.03420219171252" lon="15.713002698484209"><ele>688.25</ele><time>2026-04-25T08:01:21Z</time></trkpt><trkpt lat="38.03422064675185" lon="15.713168121376192"><ele>689.0</ele><time>2026-04-25T08:01:22Z</time></trkpt><trkpt lat="38.03425035804086" lon="15.71332927713575"><ele>689.0</ele><time>2026-04-25T08:01:23Z</time></trkpt><trkpt lat="38.034291241501734" lon="15.71348379793384"><ele>689.0</ele><time>2026-04-25T08:01:24Z</time></trkpt><trkpt lat="38.03433024555968" lon="15.713635922807198"><ele>689.0</ele><time>2026-04-25T08:01:25Z</time></trkpt><trkpt lat="38.03436347849428" lon="15.713796047392936"><ele>689.0</ele><time>2026-04-25T08:01:26Z</time></trkpt><trkpt lat="38.034412085263625" lon="15.713945156188517"><ele>691.6</ele><time>2026-04-25T08:01:27Z</time></trkpt><trkpt lat="38.03444386497329" lon="15.714076245719921"><ele>694.2</ele><time>2026-04-25T08:01:28Z</time></trkpt><trkpt lat="38.034476506833805" lon="15.71419655936677"><ele>696.8000000000001</ele><time>2026-04-25T08:01:29Z</time></trkpt><trkpt lat="38.034454501989934" lon="15.714323495918642"><ele>699.4000000000001</ele><time>2026-04-25T08:01:30Z</time></trkpt><trkpt lat="38.034430688708596" lon="15.714456508061632"><ele>702.0</ele><time>2026-04-25T08:01:31Z</time></trkpt><trkpt lat="38.03442747889318" lon="15.714606257443574"><ele>703.0</ele><time>2026-04-25T08:01:32Z</time></trkpt><trkpt lat="38.03440127807211" lon="15.714762350481083"><ele>704.0</ele><time>2026-04-25T08:01:33Z</time></trkpt><trkpt lat="38.03439166677997" lon="15.714893958049855"><ele>705.0</ele><time>2026-04-25T08:01:34Z</time></trkpt><trkpt lat="38.034378564956654" lon="15.715019315310167"><ele>706.0</ele><time>2026-04-25T08:01:35Z</time></trkpt><trkpt lat="38.03437397298674" lon="15.715133000070418"><ele>707.0</ele><time>2026-04-25T08:01:36Z</time></trkpt><trkpt lat="38.034357673798944" lon="15.715231537940742"><ele>706.8571428571429</ele><time>2026-04-25T08:01:37Z</time></trkpt><trkpt lat="38.03433741169824" lon="15.715314231976107"><ele>706.7142857142858</ele><time>2026-04-25T08:01:38Z</time></trkpt><trkpt lat="38.03429931312797" lon="15.715388661010069"><ele>706.5714285714286</ele><time>2026-04-25T08:01:39Z</time></trkpt><trkpt lat="38.0342622147995" lon="15.715474116662385"><ele>706.4285714285714</ele><time>2026-04-25T08:01:40Z</time></trkpt><trkpt lat="38.03424088902004" lon="15.71555987082297"><ele>706.2857142857143</ele><time>2026-04-25T08:01:41Z</time></trkpt><trkpt lat="38.03419688888198" lon="15.715641028968978"><ele>706.1428571428571</ele><time>2026-04-25T08:01:42Z</time></trkpt><trkpt lat="38.03416577474385" lon="15.715713529531888"><ele>706.0</ele><time>2026-04-25T08:01:43Z</time></trkpt><trkpt lat="38.03411700891953" lon="15.715867841776175"><ele>703.4285714285714</ele><time>2026-04-25T08:01:45Z</time></trkpt><trkpt lat="38.03405444622029" lon="15.71593386561632"><ele>700.8571428571429</ele><time>2026-04-25T08:01:46Z</time></trkpt><trkpt lat="38.03401949249585" lon="15.716017922082452"><ele>698.2857142857143</ele><time>2026-04-25T08:01:47Z</time></trkpt><trkpt lat="38.034000959373664" lon="15.716105996279742"><ele>695.7142857142858</ele><time>2026-04-25T08:01:48Z</time></trkpt><trkpt lat="38.03398061315839" lon="15.716181737817932"><ele>693.1428571428571</ele><time>2026-04-25T08:01:49Z</time></trkpt><trkpt lat="38.03397875992273" lon="15.716266361069218"><ele>690.5714285714287</ele><time>2026-04-25T08:01:50Z</time></trkpt><trkpt lat="38.03397542664245" lon="15.716352811921412"><ele>688.0</ele><time>2026-04-25T08:01:51Z</time></trkpt><trkpt lat="38.03397520237134" lon="15.716438642021291"><ele>688.0</ele><time>2026-04-25T08:01:52Z</time></trkpt><trkpt lat="38.03396132480266" lon="15.716516882489563"><ele>688.0</ele><time>2026-04-25T08:01:53Z</time></trkpt><trkpt lat="38.03395902352643" lon="15.716598193092882"><ele>688.0</ele><time>2026-04-25T08:01:54Z</time></trkpt><trkpt lat="38.03396950689094" lon="15.71674975869877"><ele>688.0</ele><time>2026-04-25T08:01:56Z</time></trkpt><trkpt lat="38.03396994654763" lon="15.716835042372958"><ele>688.0</ele><time>2026-04-25T08:01:57Z</time></trkpt><trkpt lat="38.03395278401314" lon="15.716983003822548"><ele>688.0</ele><time>2026-04-25T08:01:59Z</time></trkpt><trkpt lat="38.03388993055239" lon="15.71709844404362"><ele>685.5999999999999</ele><time>2026-04-25T08:02:01Z</time></trkpt><trkpt lat="38.03382953284974" lon="15.717134715718146"><ele>683.1999999999999</ele><time>2026-04-25T08:02:02Z</time></trkpt><trkpt lat="38.03378145395671" lon="15.717196003367246"><ele>680.8</ele><time>2026-04-25T08:02:03Z</time></trkpt><trkpt lat="38.03366917202823" lon="15.717238417848133"><ele>678.4</ele><time>2026-04-25T08:02:05Z</time></trkpt><trkpt lat="38.03354508285769" lon="15.71719649012463"><ele>676.0</ele><time>2026-04-25T08:02:07Z</time></trkpt><trkpt lat="38.033445207919065" lon="15.717202402398264"><ele>676.0</ele><time>2026-04-25T08:02:09Z</time></trkpt><trkpt lat="38.03341238032009" lon="15.717278090066559"><ele>676.0</ele><time>2026-04-25T08:02:11Z</time></trkpt><trkpt lat="38.03348191044669" lon="15.717368335305268"><ele>676.0</ele><time>2026-04-25T08:02:13Z</time></trkpt><trkpt lat="38.03353653695567" lon="15.717409305059215"><ele>676.0</ele><time>2026-04-25T08:02:14Z</time></trkpt><trkpt lat="38.03359225257999" lon="15.717450560605473"><ele>676.0</ele><time>2026-04-25T08:02:15Z</time></trkpt><trkpt lat="38.03365023026824" lon="15.717506762964367"><ele>676.0</ele><time>2026-04-25T08:02:17Z</time></trkpt><trkpt lat="38.03362251132282" lon="15.717759370412912"><ele>674.6666666666667</ele><time>2026-04-25T08:03:49Z</time></trkpt><trkpt lat="38.03360844772483" lon="15.717864039870586"><ele>673.3333333333334</ele><time>2026-04-25T08:03:50Z</time></trkpt><trkpt lat="38.033595692356705" lon="15.717979971782924"><ele>672.0</ele><time>2026-04-25T08:03:51Z</time></trkpt><trkpt lat="38.033566304903516" lon="15.7180982557227"><ele>670.6666666666666</ele><time>2026-04-25T08:03:52Z</time></trkpt><trkpt lat="38.033523772111124" lon="15.718196547728159"><ele>669.3333333333333</ele><time>2026-04-25T08:03:53Z</time></trkpt><trkpt lat="38.03347151051227" lon="15.718280902957007"><ele>668.0</ele><time>2026-04-25T08:03:54Z</time></trkpt><trkpt lat="38.033412285843234" lon="15.718357243755102"><ele>668.0</ele><time>2026-04-25T08:03:55Z</time></trkpt><trkpt lat="38.03333785856663" lon="15.718402916769538"><ele>668.0</ele><time>2026-04-25T08:03:56Z</time></trkpt><trkpt lat="38.03330040397067" lon="15.718474531217192"><ele>668.0</ele><time>2026-04-25T08:03:57Z</time></trkpt><trkpt lat="38.03326624417626" lon="15.718623947751775"><ele>668.0</ele><time>2026-04-25T08:03:59Z</time></trkpt><trkpt lat="38.03326917678869" lon="15.718714416645453"><ele>668.0</ele><time>2026-04-25T08:04:00Z</time></trkpt><trkpt lat="38.03327378977687" lon="15.718815770784175"><ele>668.0</ele><time>2026-04-25T08:04:01Z</time></trkpt><trkpt lat="38.0332710919644" lon="15.718924150392484"><ele>669.0</ele><time>2026-04-25T08:04:02Z</time></trkpt><trkpt lat="38.03326263643414" lon="15.719045813626717"><ele>670.0</ele><time>2026-04-25T08:04:03Z</time></trkpt><trkpt lat="38.033243349923104" lon="15.71916369117534"><ele>671.0</ele><time>2026-04-25T08:04:04Z</time></trkpt><trkpt lat="38.03322120714124" lon="15.719295939616732"><ele>672.0</ele><time>2026-04-25T08:04:05Z</time></trkpt><trkpt lat="38.03319617498975" lon="15.719430401228655"><ele>673.0</ele><time>2026-04-25T08:04:06Z</time></trkpt><trkpt lat="38.03316509314315" lon="15.719539609511202"><ele>673.4</ele><time>2026-04-25T08:04:07Z</time></trkpt><trkpt lat="38.03316564083032" lon="15.719632481437072"><ele>673.8</ele><time>2026-04-25T08:04:08Z</time></trkpt><trkpt lat="38.03315822069381" lon="15.719750092641396"><ele>674.2</ele><time>2026-04-25T08:04:09Z</time></trkpt><trkpt lat="38.03328784625098" lon="15.719826328964574"><ele>674.6</ele><time>2026-04-25T08:04:10Z</time></trkpt><trkpt lat="38.0333362660327" lon="15.719952192546463"><ele>675.0</ele><time>2026-04-25T08:04:11Z</time></trkpt><trkpt lat="38.03336076279855" lon="15.720057237534487"><ele>675.0</ele><time>2026-04-25T08:04:12Z</time></trkpt><trkpt lat="38.033359923661024" lon="15.720202519856052"><ele>675.0</ele><time>2026-04-25T08:04:14Z</time></trkpt><trkpt lat="38.033382754041114" lon="15.720328895902625"><ele>675.0</ele><time>2026-04-25T08:04:15.999Z</time></trkpt><trkpt lat="38.03341787496147" lon="15.72040224365686"><ele>675.0</ele><time>2026-04-25T08:04:17.999Z</time></trkpt><trkpt lat="38.03340877175442" lon="15.720510355482434"><ele>675.0</ele><time>2026-04-25T08:04:30.999Z</time></trkpt><trkpt lat="38.03338943312738" lon="15.720650504294303"><ele>677.2</ele><time>2026-04-25T08:04:32.999Z</time></trkpt><trkpt lat="38.03333786513969" lon="15.720780984813928"><ele>679.4</ele><time>2026-04-25T08:04:34.999Z</time></trkpt><trkpt lat="38.03326812871508" lon="15.720900675408169"><ele>681.5999999999999</ele><time>2026-04-25T08:04:36.999Z</time></trkpt><trkpt lat="38.03323083612153" lon="15.721027284829834"><ele>683.8</ele><time>2026-04-25T08:04:38.999Z</time></trkpt><trkpt lat="38.03324840695228" lon="15.721121317892182"><ele>686.0</ele><time>2026-04-25T08:04:40.999Z</time></trkpt><trkpt lat="38.033335780235" lon="15.72121902695792"><ele>688.0</ele><time>2026-04-25T08:04:42.999Z</time></trkpt><trkpt lat="38.03339782162435" lon="15.721288568960935"><ele>690.0</ele><time>2026-04-25T08:04:43.999Z</time></trkpt><trkpt lat="38.033410830333345" lon="15.721382933840669"><ele>692.0</ele><time>2026-04-25T08:04:44.999Z</time></trkpt><trkpt lat="38.033406473627096" lon="15.72147294292338"><ele>694.0</ele><time>2026-04-25T08:04:45.999Z</time></trkpt><trkpt lat="38.03336301675163" lon="15.721562053593493"><ele>696.0</ele><time>2026-04-25T08:04:46.999Z</time></trkpt><trkpt lat="38.0333297736071" lon="15.721668700593884"><ele>698.0</ele><time>2026-04-25T08:04:47.999Z</time></trkpt><trkpt lat="38.03327543933394" lon="15.721761718971708"><ele>698.0</ele><time>2026-04-25T08:04:48.999Z</time></trkpt><trkpt lat="38.03320457244233" lon="15.721831468022955"><ele>698.0</ele><time>2026-04-25T08:04:50Z</time></trkpt><trkpt lat="38.03315369976591" lon="15.721895887509765"><ele>698.0</ele><time>2026-04-25T08:04:51Z</time></trkpt><trkpt lat="38.03310754916405" lon="15.722003473003975"><ele>698.0</ele><time>2026-04-25T08:04:53Z</time></trkpt><trkpt lat="38.03314782206395" lon="15.72212352970059"><ele>698.0</ele><time>2026-04-25T08:04:55Z</time></trkpt><trkpt lat="38.033206522132325" lon="15.722204486961607"><ele>698.0</ele><time>2026-04-25T08:04:57Z</time></trkpt><trkpt lat="38.03327846577364" lon="15.722303825457393"><ele>700.1666666666666</ele><time>2026-04-25T08:04:59Z</time></trkpt><trkpt lat="38.033321887796575" lon="15.722368684719617"><ele>702.3333333333333</ele><time>2026-04-25T08:05:00Z</time></trkpt><trkpt lat="38.033350090233164" lon="15.722448556404636"><ele>704.5</ele><time>2026-04-25T08:05:01Z</time></trkpt><trkpt lat="38.033379447296355" lon="15.722529385027814"><ele>706.6666666666666</ele><time>2026-04-25T08:05:02Z</time></trkpt><trkpt lat="38.03339810338631" lon="15.722609611821616"><ele>708.8333333333334</ele><time>2026-04-25T08:05:03Z</time></trkpt><trkpt lat="38.033387519429304" lon="15.72277615884528"><ele>711.0</ele><time>2026-04-25T08:05:05Z</time></trkpt><trkpt lat="38.03338365883706" lon="15.722865057183295"><ele>711.0</ele><time>2026-04-25T08:05:06Z</time></trkpt><trkpt lat="38.0333798502194" lon="15.722954390550093"><ele>711.0</ele><time>2026-04-25T08:05:07Z</time></trkpt><trkpt lat="38.033374695957264" lon="15.723043240305204"><ele>711.0</ele><time>2026-04-25T08:05:08Z</time></trkpt><trkpt lat="38.03337165089682" lon="15.723163578342602"><ele>711.0</ele><time>2026-04-25T08:05:10Z</time></trkpt><trkpt lat="38.033389217531536" lon="15.72327441914839"><ele>711.0</ele><time>2026-04-25T08:05:13Z</time></trkpt><trkpt lat="38.03345042871179" lon="15.723424039941728"><ele>711.0</ele><time>2026-04-25T08:05:15Z</time></trkpt><trkpt lat="38.03349378477469" lon="15.723550606374431"><ele>711.0</ele><time>2026-04-25T08:05:17Z</time></trkpt><trkpt lat="38.03352482931929" lon="15.723645930107267"><ele>711.0</ele><time>2026-04-25T08:05:19Z</time></trkpt><trkpt lat="38.03349458717607" lon="15.723545281513644"><ele>711.0</ele><time>2026-04-25T08:05:40Z</time></trkpt><trkpt lat="38.033425030303604" lon="15.723341683706165"><ele>711.0</ele><time>2026-04-25T08:05:42Z</time></trkpt><trkpt lat="38.03339335495324" lon="15.723240937072699"><ele>711.0</ele><time>2026-04-25T08:05:43Z</time></trkpt><trkpt lat="38.03338033620886" lon="15.723132718897793"><ele>711.0</ele><time>2026-04-25T08:05:44Z</time></trkpt><trkpt lat="38.03338448219757" lon="15.723016212012757"><ele>711.0</ele><time>2026-04-25T08:05:45Z</time></trkpt><trkpt lat="38.03339661927851" lon="15.722880925508951"><ele>711.0</ele><time>2026-04-25T08:05:46Z</time></trkpt><trkpt lat="38.03340905019042" lon="15.72275650766059"><ele>711.1666666666666</ele><time>2026-04-25T08:05:47Z</time></trkpt><trkpt lat="38.03341571760376" lon="15.722656435797495"><ele>711.3333333333334</ele><time>2026-04-25T08:05:48Z</time></trkpt><trkpt lat="38.03341049477911" lon="15.722568244290855"><ele>711.5</ele><time>2026-04-25T08:05:49Z</time></trkpt><trkpt lat="38.03338314256264" lon="15.722460463342324"><ele>711.6666666666667</ele><time>2026-04-25T08:05:50Z</time></trkpt><trkpt lat="38.03332779111283" lon="15.7223486739383"><ele>711.8333333333334</ele><time>2026-04-25T08:05:51Z</time></trkpt><trkpt lat="38.03327498588499" lon="15.722237546472005"><ele>712.0</ele><time>2026-04-25T08:05:52Z</time></trkpt><trkpt lat="38.03320660823245" lon="15.722168109211301"><ele>711.1666666666667</ele><time>2026-04-25T08:05:53Z</time></trkpt><trkpt lat="38.03316036225764" lon="15.722102593340596"><ele>710.3333333333334</ele><time>2026-04-25T08:05:54Z</time></trkpt><trkpt lat="38.0331599779611" lon="15.721964307442965"><ele>709.5</ele><time>2026-04-25T08:05:56Z</time></trkpt><trkpt lat="38.03321945013075" lon="15.721865432685545"><ele>708.6666666666666</ele><time>2026-04-25T08:05:58Z</time></trkpt><trkpt lat="38.0332819200851" lon="15.72180355296052"><ele>707.8333333333333</ele><time>2026-04-25T08:05:59Z</time></trkpt><trkpt lat="38.03334842174315" lon="15.721726190535325"><ele>707.0</ele><time>2026-04-25T08:06:00Z</time></trkpt><trkpt lat="38.033376187490674" lon="15.72161600321143"><ele>706.1666666666666</ele><time>2026-04-25T08:06:01Z</time></trkpt><trkpt lat="38.033400833948704" lon="15.721521221219879"><ele>705.3333333333333</ele><time>2026-04-25T08:06:02Z</time></trkpt><trkpt lat="38.03340941730549" lon="15.721425074195096"><ele>704.5</ele><time>2026-04-25T08:06:03Z</time></trkpt><trkpt lat="38.03342831117583" lon="15.721329693212647"><ele>703.6666666666666</ele><time>2026-04-25T08:06:04Z</time></trkpt><trkpt lat="38.03341635889973" lon="15.721237329131952"><ele>702.8333333333334</ele><time>2026-04-25T08:06:05Z</time></trkpt><trkpt lat="38.03332430606617" lon="15.721180996657267"><ele>702.0</ele><time>2026-04-25T08:06:06Z</time></trkpt><trkpt lat="38.0332828764888" lon="15.721114021468155"><ele>701.2</ele><time>2026-04-25T08:06:07Z</time></trkpt><trkpt lat="38.03326516707162" lon="15.721005739672833"><ele>700.4000000000001</ele><time>2026-04-25T08:06:09Z</time></trkpt><trkpt lat="38.03330374418529" lon="15.720885423003368"><ele>699.5999999999999</ele><time>2026-04-25T08:06:11Z</time></trkpt><trkpt lat="38.033347953876515" lon="15.720815132292369"><ele>698.8</ele><time>2026-04-25T08:06:12Z</time></trkpt><trkpt lat="38.03340299196441" lon="15.720687309763052"><ele>698.0</ele><time>2026-04-25T08:06:14Z</time></trkpt><trkpt lat="38.03344080803296" lon="15.720532708512348"><ele>695.5999999999999</ele><time>2026-04-25T08:06:16Z</time></trkpt><trkpt lat="38.033451566680064" lon="15.720434248188106"><ele>693.1999999999999</ele><time>2026-04-25T08:06:17Z</time></trkpt><trkpt lat="38.033446456282554" lon="15.72033961171314"><ele>690.8</ele><time>2026-04-25T08:06:18Z</time></trkpt><trkpt lat="38.033399435650836" lon="15.720218001435365"><ele>688.4</ele><time>2026-04-25T08:06:19Z</time></trkpt><trkpt lat="38.03338704266275" lon="15.720072331078946"><ele>686.0</ele><time>2026-04-25T08:06:20Z</time></trkpt><trkpt lat="38.03335140812755" lon="15.719908694761429"><ele>686.0</ele><time>2026-04-25T08:06:21Z</time></trkpt><trkpt lat="38.03330861972041" lon="15.719772079409358"><ele>686.0</ele><time>2026-04-25T08:06:22Z</time></trkpt><trkpt lat="38.0332453700243" lon="15.719676238118605"><ele>686.0</ele><time>2026-04-25T08:06:23Z</time></trkpt><trkpt lat="38.033216836220056" lon="15.71959106591211"><ele>686.0</ele><time>2026-04-25T08:06:24Z</time></trkpt><trkpt lat="38.033128004738245" lon="15.71960336692012"><ele>686.0</ele><time>2026-04-25T08:06:28Z</time></trkpt><trkpt lat="38.033156948175744" lon="15.719686300914343"><ele>686.0</ele><time>2026-04-25T08:06:30Z</time></trkpt><trkpt lat="38.03316685367047" lon="15.719776440123203"><ele>686.0</ele><time>2026-04-25T08:06:42.999Z</time></trkpt><trkpt lat="38.03321588612727" lon="15.719922757138358"><ele>686.0</ele><time>2026-04-25T08:06:44.999Z</time></trkpt><trkpt lat="38.03323261768349" lon="15.720006463688758"><ele>686.0</ele><time>2026-04-25T08:06:45.999Z</time></trkpt><trkpt lat="38.033232622577735" lon="15.72009465268281"><ele>686.0</ele><time>2026-04-25T08:06:46.999Z</time></trkpt><trkpt lat="38.03319672324801" lon="15.720164912278063"><ele>686.0</ele><time>2026-04-25T08:06:47.999Z</time></trkpt><trkpt lat="38.03315042630084" lon="15.72024866124366"><ele>686.0</ele><time>2026-04-25T08:06:48.999Z</time></trkpt><trkpt lat="38.033107722461224" lon="15.72033237864903"><ele>686.0</ele><time>2026-04-25T08:06:49.999Z</time></trkpt><trkpt lat="38.03305252996795" lon="15.720394050802202"><ele>686.0</ele><time>2026-04-25T08:06:51.999Z</time></trkpt><trkpt lat="38.03303299782348" lon="15.720233420985476"><ele>686.0</ele><time>2026-04-25T08:06:56Z</time></trkpt><trkpt lat="38.03305619667684" lon="15.72009726686051"><ele>686.0</ele><time>2026-04-25T08:06:58Z</time></trkpt><trkpt lat="38.03295125369985" lon="15.719962502238493"><ele>686.0</ele><time>2026-04-25T08:07:00Z</time></trkpt><trkpt lat="38.03286797225768" lon="15.719885844090811"><ele>686.0</ele><time>2026-04-25T08:07:01Z</time></trkpt><trkpt lat="38.03278045390502" lon="15.719807599456566"><ele>686.0</ele><time>2026-04-25T08:07:02Z</time></trkpt><trkpt lat="38.03272291582946" lon="15.719715906494455"><ele>686.0</ele><time>2026-04-25T08:07:03Z</time></trkpt><trkpt lat="38.03266947505736" lon="15.719634254867753"><ele>686.0</ele><time>2026-04-25T08:07:04Z</time></trkpt><trkpt lat="38.032620701118326" lon="15.719527651897081"><ele>686.0</ele><time>2026-04-25T08:07:05Z</time></trkpt><trkpt lat="38.03255181706799" lon="15.719419798389547"><ele>686.0</ele><time>2026-04-25T08:07:06Z</time></trkpt><trkpt lat="38.03249383843246" lon="15.719345049060646"><ele>686.0</ele><time>2026-04-25T08:07:07Z</time></trkpt><trkpt lat="38.03244815074905" lon="15.719276116320822"><ele>686.0</ele><time>2026-04-25T08:07:08Z</time></trkpt><trkpt lat="38.03253916822432" lon="15.71913865945497"><ele>686.0</ele><time>2026-04-25T08:07:11Z</time></trkpt><trkpt lat="38.03263251153238" lon="15.719069591250362"><ele>687.1999999999999</ele><time>2026-04-25T08:07:12Z</time></trkpt><trkpt lat="38.03270131448068" lon="15.718983047136245"><ele>688.4</ele><time>2026-04-25T08:07:14Z</time></trkpt><trkpt lat="38.03263763637342" lon="15.71886460865333"><ele>689.6</ele><time>2026-04-25T08:07:15Z</time></trkpt><trkpt lat="38.03257782943722" lon="15.71879778208463"><ele>690.8</ele><time>2026-04-25T08:07:16Z</time></trkpt><trkpt lat="38.032520746877644" lon="15.718694212975391"><ele>692.0</ele><time>2026-04-25T08:07:17Z</time></trkpt><trkpt lat="38.03245919848576" lon="15.718612120436779"><ele>694.8</ele><time>2026-04-25T08:07:18Z</time></trkpt><trkpt lat="38.03239472893102" lon="15.718523483419823"><ele>697.6</ele><time>2026-04-25T08:07:19Z</time></trkpt><trkpt lat="38.03234435787636" lon="15.718444209441165"><ele>700.4</ele><time>2026-04-25T08:07:20Z</time></trkpt><trkpt lat="38.03230328196211" lon="15.718357585117488"><ele>703.1999999999999</ele><time>2026-04-25T08:07:21Z</time></trkpt><trkpt lat="38.032339381953456" lon="15.71828512173251"><ele>706.0</ele><time>2026-04-25T08:07:22Z</time></trkpt><trkpt lat="38.03233913929855" lon="15.71810819320882"><ele>706.0</ele><time>2026-04-25T08:07:24Z</time></trkpt><trkpt lat="38.03232578437066" lon="15.718018229946061"><ele>706.0</ele><time>2026-04-25T08:07:25Z</time></trkpt><trkpt lat="38.03225219243763" lon="15.717852078671335"><ele>706.0</ele><time>2026-04-25T08:07:27Z</time></trkpt><trkpt lat="38.03218734755247" lon="15.71773756766379"><ele>706.0</ele><time>2026-04-25T08:07:28Z</time></trkpt><trkpt lat="38.032115911246144" lon="15.717612421228653"><ele>704.1666666666667</ele><time>2026-04-25T08:07:29Z</time></trkpt><trkpt lat="38.03205885142446" lon="15.717513951349487"><ele>702.3333333333334</ele><time>2026-04-25T08:07:30Z</time></trkpt><trkpt lat="38.03199610844059" lon="15.717422676143446"><ele>700.5</ele><time>2026-04-25T08:07:31Z</time></trkpt><trkpt lat="38.03192516924975" lon="15.717367769344627"><ele>698.6666666666666</ele><time>2026-04-25T08:07:32Z</time></trkpt><trkpt lat="38.031850765148064" lon="15.717349539311156"><ele>696.8333333333333</ele><time>2026-04-25T08:07:33Z</time></trkpt><trkpt lat="38.03177275648276" lon="15.717351549314428"><ele>695.0</ele><time>2026-04-25T08:07:34Z</time></trkpt><trkpt lat="38.03169402422357" lon="15.717360707692945"><ele>699.3333333333333</ele><time>2026-04-25T08:07:35Z</time></trkpt><trkpt lat="38.03161528988877" lon="15.717374644404808"><ele>703.6666666666666</ele><time>2026-04-25T08:07:36Z</time></trkpt><trkpt lat="38.031548933874944" lon="15.717388769636518"><ele>708.0</ele><time>2026-04-25T08:07:37Z</time></trkpt><trkpt lat="38.03148234751424" lon="15.71739722775057"><ele>712.3333333333334</ele><time>2026-04-25T08:07:38Z</time></trkpt><trkpt lat="38.03140534354522" lon="15.717341013252014"><ele>716.6666666666667</ele><time>2026-04-25T08:07:40Z</time></trkpt><trkpt lat="38.03144178104967" lon="15.717199890647683"><ele>721.0</ele><time>2026-04-25T08:07:42Z</time></trkpt><trkpt lat="38.031462024744464" lon="15.71710639143614"><ele>721.0</ele><time>2026-04-25T08:07:43Z</time></trkpt><trkpt lat="38.03148799051093" lon="15.716989740379303"><ele>721.0</ele><time>2026-04-25T08:07:44Z</time></trkpt><trkpt lat="38.03148696527388" lon="15.716895348428219"><ele>721.0</ele><time>2026-04-25T08:07:45Z</time></trkpt><trkpt lat="38.031457102369416" lon="15.716811571153512"><ele>721.0</ele><time>2026-04-25T08:07:46Z</time></trkpt><trkpt lat="38.031401528170186" lon="15.716767349614246"><ele>721.0</ele><time>2026-04-25T08:07:47Z</time></trkpt><trkpt lat="38.031276895159635" lon="15.716672561270581"><ele>719.3333333333334</ele><time>2026-04-25T08:07:49Z</time></trkpt><trkpt lat="38.031179951385205" lon="15.716679971700204"><ele>717.6666666666667</ele><time>2026-04-25T08:07:50Z</time></trkpt><trkpt lat="38.03110043548351" lon="15.71666524272285"><ele>716.0</ele><time>2026-04-25T08:07:51Z</time></trkpt><trkpt lat="38.03103643518446" lon="15.716658818370844"><ele>714.3333333333334</ele><time>2026-04-25T08:07:52Z</time></trkpt><trkpt lat="38.03099551427713" lon="15.716554561805664"><ele>712.6666666666666</ele><time>2026-04-25T08:07:54Z</time></trkpt><trkpt lat="38.03099679610508" lon="15.71646271692067"><ele>711.0</ele><time>2026-04-25T08:07:55Z</time></trkpt><trkpt lat="38.03096771761205" lon="15.716366850704633"><ele>711.0</ele><time>2026-04-25T08:07:56Z</time></trkpt><trkpt lat="38.0309048565297" lon="15.71629101713995"><ele>711.0</ele><time>2026-04-25T08:07:57Z</time></trkpt><trkpt lat="38.030841778270364" lon="15.716239293898747"><ele>711.0</ele><time>2026-04-25T08:07:58Z</time></trkpt><trkpt lat="38.03075017760749" lon="15.716243941080966"><ele>711.0</ele><time>2026-04-25T08:07:59Z</time></trkpt><trkpt lat="38.03066531219622" lon="15.716226786788155"><ele>711.0</ele><time>2026-04-25T08:08:00Z</time></trkpt><trkpt lat="38.030558415189496" lon="15.71620223320603"><ele>711.0</ele><time>2026-04-25T08:08:01Z</time></trkpt><trkpt lat="38.030478760851786" lon="15.716204845708518"><ele>711.3333333333334</ele><time>2026-04-25T08:08:02Z</time></trkpt><trkpt lat="38.030402513201025" lon="15.71621732759207"><ele>711.6666666666666</ele><time>2026-04-25T08:08:03Z</time></trkpt><trkpt lat="38.030327519948365" lon="15.716195795561768"><ele>712.0</ele><time>2026-04-25T08:08:05Z</time></trkpt><trkpt lat="38.03029245003213" lon="15.716114733191679"><ele>712.3333333333333</ele><time>2026-04-25T08:08:06Z</time></trkpt><trkpt lat="38.03028825598173" lon="15.71599562409837"><ele>712.6666666666666</ele><time>2026-04-25T08:08:07Z</time></trkpt><trkpt lat="38.0302462435588" lon="15.71588425965709"><ele>713.0</ele><time>2026-04-25T08:08:08Z</time></trkpt><trkpt lat="38.030222562099006" lon="15.715798407339108"><ele>713.0</ele><time>2026-04-25T08:08:09Z</time></trkpt><trkpt lat="38.0301838986307" lon="15.715680185780734"><ele>713.0</ele><time>2026-04-25T08:08:11Z</time></trkpt><trkpt lat="38.03013467023169" lon="15.715547430665982"><ele>713.0</ele><time>2026-04-25T08:08:13Z</time></trkpt><trkpt lat="38.030097653695925" lon="15.715468340755963"><ele>713.0</ele><time>2026-04-25T08:08:14Z</time></trkpt><trkpt lat="38.03005369329646" lon="15.715376599761315"><ele>713.0</ele><time>2026-04-25T08:08:15Z</time></trkpt><trkpt lat="38.03001240822506" lon="15.715298977732866"><ele>713.0</ele><time>2026-04-25T08:08:16Z</time></trkpt><trkpt lat="38.029970852007295" lon="15.715231140298219"><ele>713.0</ele><time>2026-04-25T08:08:17Z</time></trkpt><trkpt lat="38.02991890013826" lon="15.715165395048354"><ele>713.0</ele><time>2026-04-25T08:08:19Z</time></trkpt><trkpt lat="38.02989071965083" lon="15.715333883145988"><ele>713.0</ele><time>2026-04-25T08:08:27Z</time></trkpt><trkpt lat="38.02992211504073" lon="15.715452406459718"><ele>713.0</ele><time>2026-04-25T08:09:54Z</time></trkpt><trkpt lat="38.02998595763416" lon="15.71559136922564"><ele>713.0</ele><time>2026-04-25T08:09:56Z</time></trkpt><trkpt lat="38.03003866010295" lon="15.715667468768684"><ele>713.0</ele><time>2026-04-25T08:09:57Z</time></trkpt><trkpt lat="38.030057426433544" lon="15.715775508031056"><ele>713.0</ele><time>2026-04-25T08:09:58Z</time></trkpt><trkpt lat="38.030075717661575" lon="15.715881897280124"><ele>713.0</ele><time>2026-04-25T08:09:59Z</time></trkpt><trkpt lat="38.03008793203912" lon="15.71596883470379"><ele>713.0</ele><time>2026-04-25T08:10:00Z</time></trkpt><trkpt lat="38.03010355477366" lon="15.71613636226506"><ele>713.0</ele><time>2026-04-25T08:10:02Z</time></trkpt><trkpt lat="38.030104315577674" lon="15.716218251442687"><ele>713.0</ele><time>2026-04-25T08:10:03Z</time></trkpt><trkpt lat="38.03008906052791" lon="15.716362137600496"><ele>713.4</ele><time>2026-04-25T08:10:05Z</time></trkpt><trkpt lat="38.03008834072689" lon="15.716447846757523"><ele>713.8</ele><time>2026-04-25T08:10:06Z</time></trkpt><trkpt lat="38.030111838585164" lon="15.716546305720799"><ele>714.2</ele><time>2026-04-25T08:10:07Z</time></trkpt><trkpt lat="38.03016803598258" lon="15.716654535610822"><ele>714.6</ele><time>2026-04-25T08:10:08Z</time></trkpt><trkpt lat="38.03023089567541" lon="15.716774803357907"><ele>715.0</ele><time>2026-04-25T08:10:09Z</time></trkpt><trkpt lat="38.03027122965487" lon="15.716943932711592"><ele>715.0</ele><time>2026-04-25T08:10:10Z</time></trkpt><trkpt lat="38.030348150869145" lon="15.717112185972113"><ele>715.0</ele><time>2026-04-25T08:10:11Z</time></trkpt><trkpt lat="38.030435678485034" lon="15.717278479086495"><ele>715.0</ele><time>2026-04-25T08:10:12Z</time></trkpt><trkpt lat="38.03048288617822" lon="15.717423576382611"><ele>715.0</ele><time>2026-04-25T08:10:13Z</time></trkpt><trkpt lat="38.03051257547587" lon="15.717535878312486"><ele>715.0</ele><time>2026-04-25T08:10:14Z</time></trkpt><trkpt lat="38.030524238142824" lon="15.717648681505691"><ele>715.0</ele><time>2026-04-25T08:10:15Z</time></trkpt><trkpt lat="38.030476972957786" lon="15.717793110315231"><ele>715.0</ele><time>2026-04-25T08:10:16Z</time></trkpt><trkpt lat="38.030486032778214" lon="15.717978755911624"><ele>715.0</ele><time>2026-04-25T08:10:17Z</time></trkpt><trkpt lat="38.030440488792706" lon="15.718172364457487"><ele>717.0</ele><time>2026-04-25T08:10:18Z</time></trkpt><trkpt lat="38.030347848879046" lon="15.718335949581387"><ele>719.0</ele><time>2026-04-25T08:10:19Z</time></trkpt><trkpt lat="38.030263013813816" lon="15.7184841018842"><ele>721.0</ele><time>2026-04-25T08:10:20Z</time></trkpt><trkpt lat="38.03019086413455" lon="15.718640880180754"><ele>723.0</ele><time>2026-04-25T08:10:21Z</time></trkpt><trkpt lat="38.03012851140729" lon="15.71880478508336"><ele>724.0</ele><time>2026-04-25T08:10:22Z</time></trkpt><trkpt lat="38.030125192525844" lon="15.71896173345301"><ele>725.0</ele><time>2026-04-25T08:10:23Z</time></trkpt><trkpt lat="38.0300813149998" lon="15.719070683356668"><ele>726.0</ele><time>2026-04-25T08:10:24Z</time></trkpt><trkpt lat="38.03002841422203" lon="15.71915771753548"><ele>727.0</ele><time>2026-04-25T08:10:25Z</time></trkpt><trkpt lat="38.02995938548223" lon="15.71925938754588"><ele>728.0</ele><time>2026-04-25T08:10:26Z</time></trkpt><trkpt lat="38.02988894615477" lon="15.719401773431667"><ele>731.2</ele><time>2026-04-25T08:10:27Z</time></trkpt><trkpt lat="38.02985987865628" lon="15.719541084400115"><ele>734.4</ele><time>2026-04-25T08:10:28Z</time></trkpt><trkpt lat="38.02983150331256" lon="15.719631901532638"><ele>737.6</ele><time>2026-04-25T08:10:29Z</time></trkpt><trkpt lat="38.029820334808846" lon="15.71983028894666"><ele>740.8000000000001</ele><time>2026-04-25T08:10:31Z</time></trkpt><trkpt lat="38.029828926876945" lon="15.719958718983037"><ele>744.0</ele><time>2026-04-25T08:10:32Z</time></trkpt><trkpt lat="38.02981979620948" lon="15.720077779941173"><ele>744.0</ele><time>2026-04-25T08:10:33Z</time></trkpt><trkpt lat="38.029833330382374" lon="15.720191478483102"><ele>744.0</ele><time>2026-04-25T08:10:34Z</time></trkpt><trkpt lat="38.029853886274275" lon="15.720312489764577"><ele>744.0</ele><time>2026-04-25T08:10:35Z</time></trkpt><trkpt lat="38.029830092461545" lon="15.720414988232534"><ele>744.0</ele><time>2026-04-25T08:10:36Z</time></trkpt><trkpt lat="38.02978005969659" lon="15.720496226462775"><ele>744.0</ele><time>2026-04-25T08:10:36.999Z</time></trkpt><trkpt lat="38.02969956211138" lon="15.720555791052995"><ele>744.0</ele><time>2026-04-25T08:10:37.999Z</time></trkpt><trkpt lat="38.02961566857844" lon="15.72060119640515"><ele>745.0</ele><time>2026-04-25T08:10:38.999Z</time></trkpt><trkpt lat="38.02951118917289" lon="15.720653286705556"><ele>746.0</ele><time>2026-04-25T08:10:39.999Z</time></trkpt><trkpt lat="38.029391884799416" lon="15.720697227680144"><ele>747.0</ele><time>2026-04-25T08:10:40.999Z</time></trkpt><trkpt lat="38.02927857923521" lon="15.72074814929959"><ele>748.0</ele><time>2026-04-25T08:10:41.999Z</time></trkpt><trkpt lat="38.02917402675571" lon="15.720791177860063"><ele>748.0</ele><time>2026-04-25T08:10:42.999Z</time></trkpt><trkpt lat="38.02908013299409" lon="15.720827909460292"><ele>748.0</ele><time>2026-04-25T08:10:43.999Z</time></trkpt><trkpt lat="38.02899482824361" lon="15.720866010972392"><ele>748.0</ele><time>2026-04-25T08:10:44.999Z</time></trkpt><trkpt lat="38.028939090066444" lon="15.72094228117314"><ele>748.0</ele><time>2026-04-25T08:10:45.999Z</time></trkpt><trkpt lat="38.02889498203308" lon="15.72101041616972"><ele>748.0</ele><time>2026-04-25T08:10:46.999Z</time></trkpt><trkpt lat="38.02884785686335" lon="15.721086457727786"><ele>748.0</ele><time>2026-04-25T08:10:47.999Z</time></trkpt><trkpt lat="38.02882085023488" lon="15.721190492837883"><ele>749.2</ele><time>2026-04-25T08:10:48.999Z</time></trkpt><trkpt lat="38.02879703837405" lon="15.721298304451985"><ele>750.4</ele><time>2026-04-25T08:10:49.999Z</time></trkpt><trkpt lat="38.02878645346409" lon="15.721412947991714"><ele>751.6</ele><time>2026-04-25T08:10:50.999Z</time></trkpt><trkpt lat="38.02880138078422" lon="15.721521312248559"><ele>752.8000000000001</ele><time>2026-04-25T08:10:51.999Z</time></trkpt><trkpt lat="38.02883057486604" lon="15.721639582394669"><ele>754.0</ele><time>2026-04-25T08:10:52.999Z</time></trkpt><trkpt lat="38.02883799123889" lon="15.72176336573897"><ele>754.0</ele><time>2026-04-25T08:10:53.999Z</time></trkpt><trkpt lat="38.02880276958042" lon="15.721882824201801"><ele>754.0</ele><time>2026-04-25T08:10:54.999Z</time></trkpt><trkpt lat="38.028746775119394" lon="15.72201645203752"><ele>754.0</ele><time>2026-04-25T08:10:55.999Z</time></trkpt><trkpt lat="38.028699588623304" lon="15.722139445715293"><ele>754.0</ele><time>2026-04-25T08:10:56.999Z</time></trkpt><trkpt lat="38.028669248000796" lon="15.722252337128237"><ele>754.0</ele><time>2026-04-25T08:10:57.999Z</time></trkpt><trkpt lat="38.02865679131608" lon="15.722351341009885"><ele>756.0</ele><time>2026-04-25T08:10:58.999Z</time></trkpt><trkpt lat="38.028646584520494" lon="15.722444321999582"><ele>758.0</ele><time>2026-04-25T08:10:59.999Z</time></trkpt><trkpt lat="38.02864752023174" lon="15.72255337106813"><ele>760.0</ele><time>2026-04-25T08:11:00.999Z</time></trkpt><trkpt lat="38.02866961251292" lon="15.722656483686427"><ele>762.0</ele><time>2026-04-25T08:11:01.999Z</time></trkpt><trkpt lat="38.02869865109316" lon="15.722773496508236"><ele>764.0</ele><time>2026-04-25T08:11:02.999Z</time></trkpt><trkpt lat="38.0287180010669" lon="15.722889512880931"><ele>766.0</ele><time>2026-04-25T08:11:03.999Z</time></trkpt><trkpt lat="38.0287386279531" lon="15.723000959284684"><ele>767.5999999999999</ele><time>2026-04-25T08:11:04.999Z</time></trkpt><trkpt lat="38.02875526148484" lon="15.723105821145658"><ele>769.2</ele><time>2026-04-25T08:11:05.999Z</time></trkpt><trkpt lat="38.02873029511863" lon="15.723193056524382"><ele>770.8</ele><time>2026-04-25T08:11:06.999Z</time></trkpt><trkpt lat="38.02870820140692" lon="15.723329612634503"><ele>772.4000000000001</ele><time>2026-04-25T08:11:08Z</time></trkpt><trkpt lat="38.028701144151434" lon="15.723463777577981"><ele>774.0</ele><time>2026-04-25T08:11:09Z</time></trkpt><trkpt lat="38.02868384767321" lon="15.72358674543029"><ele>775.1666666666666</ele><time>2026-04-25T08:11:10Z</time></trkpt><trkpt lat="38.028667812003754" lon="15.723692387784084"><ele>776.3333333333333</ele><time>2026-04-25T08:11:11Z</time></trkpt><trkpt lat="38.02866820349854" lon="15.723809570775689"><ele>777.5</ele><time>2026-04-25T08:11:12Z</time></trkpt><trkpt lat="38.02864728843666" lon="15.723919415848039"><ele>778.6666666666666</ele><time>2026-04-25T08:11:13Z</time></trkpt><trkpt lat="38.028643334925626" lon="15.724019746310432"><ele>779.8333333333333</ele><time>2026-04-25T08:11:14Z</time></trkpt><trkpt lat="38.028655883116215" lon="15.72411689776265"><ele>781.0</ele><time>2026-04-25T08:11:15Z</time></trkpt><trkpt lat="38.02867888622978" lon="15.724224740532419"><ele>781.0</ele><time>2026-04-25T08:11:16Z</time></trkpt><trkpt lat="38.02872216200095" lon="15.724318264431165"><ele>781.0</ele><time>2026-04-25T08:11:17Z</time></trkpt><trkpt lat="38.02876414587021" lon="15.724430658854113"><ele>781.0</ele><time>2026-04-25T08:11:18Z</time></trkpt><trkpt lat="38.02880938659571" lon="15.724560528738598"><ele>781.0</ele><time>2026-04-25T08:11:19Z</time></trkpt><trkpt lat="38.028821002510554" lon="15.724670040566513"><ele>781.0</ele><time>2026-04-25T08:11:20Z</time></trkpt><trkpt lat="38.02883841132754" lon="15.724775691917781"><ele>782.1999999999999</ele><time>2026-04-25T08:11:21Z</time></trkpt><trkpt lat="38.02886243749275" lon="15.724872095663558"><ele>783.4</ele><time>2026-04-25T08:11:22Z</time></trkpt><trkpt lat="38.02888416379313" lon="15.725002560683443"><ele>784.6</ele><time>2026-04-25T08:11:24Z</time></trkpt><trkpt lat="38.028870511533796" lon="15.725092602957794"><ele>785.8</ele><time>2026-04-25T08:11:26Z</time></trkpt><trkpt lat="38.02881217545358" lon="15.725141476536333"><ele>787.0</ele><time>2026-04-25T08:11:28Z</time></trkpt><trkpt lat="38.02869555950317" lon="15.72521629952824"><ele>787.3333333333333</ele><time>2026-04-25T08:11:30Z</time></trkpt><trkpt lat="38.02862745599116" lon="15.725273362650041"><ele>787.6666666666666</ele><time>2026-04-25T08:11:31Z</time></trkpt><trkpt lat="38.02856925978411" lon="15.725333687223761"><ele>788.0</ele><time>2026-04-25T08:11:32Z</time></trkpt><trkpt lat="38.02853544945557" lon="15.725409700184597"><ele>788.3333333333333</ele><time>2026-04-25T08:11:33Z</time></trkpt><trkpt lat="38.02851147215762" lon="15.72551291370383"><ele>788.6666666666666</ele><time>2026-04-25T08:11:34Z</time></trkpt><trkpt lat="38.02848093970216" lon="15.7256064162328"><ele>789.0</ele><time>2026-04-25T08:11:35Z</time></trkpt><trkpt lat="38.02844322493998" lon="15.725694945955835"><ele>789.0</ele><time>2026-04-25T08:11:36Z</time></trkpt><trkpt lat="38.028396833485765" lon="15.725768251056586"><ele>789.0</ele><time>2026-04-25T08:11:37Z</time></trkpt><trkpt lat="38.028342605501685" lon="15.725887177684703"><ele>789.0</ele><time>2026-04-25T08:11:38Z</time></trkpt><trkpt lat="38.02829174523882" lon="15.7260074279558"><ele>789.0</ele><time>2026-04-25T08:11:39Z</time></trkpt><trkpt lat="38.02825408027136" lon="15.726125336739665"><ele>789.0</ele><time>2026-04-25T08:11:40Z</time></trkpt><trkpt lat="38.028238308316034" lon="15.726238725164666"><ele>789.6666666666666</ele><time>2026-04-25T08:11:41Z</time></trkpt><trkpt lat="38.02823392239832" lon="15.726355955580019"><ele>790.3333333333333</ele><time>2026-04-25T08:11:42Z</time></trkpt><trkpt lat="38.02826608883134" lon="15.72645129298823"><ele>791.0</ele><time>2026-04-25T08:11:43Z</time></trkpt><trkpt lat="38.02831006846987" lon="15.726514092667998"><ele>791.6666666666666</ele><time>2026-04-25T08:11:44Z</time></trkpt><trkpt lat="38.02836069443834" lon="15.726588622305327"><ele>792.3333333333333</ele><time>2026-04-25T08:11:45Z</time></trkpt><trkpt lat="38.02840985229877" lon="15.726669516077742"><ele>793.0</ele><time>2026-04-25T08:11:46Z</time></trkpt><trkpt lat="38.028450166996485" lon="15.726762828573918"><ele>793.2</ele><time>2026-04-25T08:11:47Z</time></trkpt><trkpt lat="38.02845114854207" lon="15.726872589090055"><ele>793.4</ele><time>2026-04-25T08:11:48Z</time></trkpt><trkpt lat="38.02844939125133" lon="15.72697938633536"><ele>793.6</ele><time>2026-04-25T08:11:49Z</time></trkpt><trkpt lat="38.02844356670505" lon="15.7270898642758"><ele>793.8000000000001</ele><time>2026-04-25T08:11:50Z</time></trkpt><trkpt lat="38.028427633847954" lon="15.727203483773732"><ele>794.0</ele><time>2026-04-25T08:11:51Z</time></trkpt><trkpt lat="38.02841051571494" lon="15.727351648429895"><ele>794.8000000000001</ele><time>2026-04-25T08:11:52Z</time></trkpt><trkpt lat="38.028398258475065" lon="15.727494257756831"><ele>795.6</ele><time>2026-04-25T08:11:53Z</time></trkpt><trkpt lat="38.02839060907544" lon="15.727612435285147"><ele>796.4</ele><time>2026-04-25T08:11:54Z</time></trkpt><trkpt lat="38.02837560697891" lon="15.727713752039854"><ele>797.2</ele><time>2026-04-25T08:11:55Z</time></trkpt><trkpt lat="38.028349865738974" lon="15.727826988236519"><ele>798.0</ele><time>2026-04-25T08:11:56Z</time></trkpt><trkpt lat="38.02830813378353" lon="15.72793330401979"><ele>799.6666666666666</ele><time>2026-04-25T08:11:57Z</time></trkpt><trkpt lat="38.028256160173285" lon="15.728016939785338"><ele>801.3333333333333</ele><time>2026-04-25T08:11:58Z</time></trkpt><trkpt lat="38.02819087479322" lon="15.728073704219375"><ele>803.0</ele><time>2026-04-25T08:11:59Z</time></trkpt><trkpt lat="38.02811928825668" lon="15.72811458117064"><ele>804.6666666666666</ele><time>2026-04-25T08:12:00Z</time></trkpt><trkpt lat="38.028033068337784" lon="15.728150211018212"><ele>806.3333333333333</ele><time>2026-04-25T08:12:01Z</time></trkpt><trkpt lat="38.027947662483896" lon="15.728201687163352"><ele>808.0</ele><time>2026-04-25T08:12:02Z</time></trkpt><trkpt lat="38.02785301340835" lon="15.728243944199711"><ele>808.0</ele><time>2026-04-25T08:12:03Z</time></trkpt><trkpt lat="38.02776308278189" lon="15.72829094641602"><ele>808.0</ele><time>2026-04-25T08:12:04Z</time></trkpt><trkpt lat="38.02769008742608" lon="15.728358374236391"><ele>808.0</ele><time>2026-04-25T08:12:05Z</time></trkpt><trkpt lat="38.027613074723675" lon="15.728429277481311"><ele>808.0</ele><time>2026-04-25T08:12:06Z</time></trkpt><trkpt lat="38.0275672832673" lon="15.728516534354963"><ele>808.0</ele><time>2026-04-25T08:12:07Z</time></trkpt><trkpt lat="38.0275676007816" lon="15.728630343594633"><ele>808.4</ele><time>2026-04-25T08:12:08Z</time></trkpt><trkpt lat="38.027574714447105" lon="15.72874048851514"><ele>808.8</ele><time>2026-04-25T08:12:09Z</time></trkpt><trkpt lat="38.02760819701413" lon="15.728861417594239"><ele>809.2</ele><time>2026-04-25T08:12:10Z</time></trkpt><trkpt lat="38.02765068520776" lon="15.728969296123857"><ele>809.6</ele><time>2026-04-25T08:12:11Z</time></trkpt><trkpt lat="38.0277133849722" lon="15.729069308141838"><ele>810.0</ele><time>2026-04-25T08:12:12Z</time></trkpt><trkpt lat="38.02779937885071" lon="15.729163161862276"><ele>810.0</ele><time>2026-04-25T08:12:13Z</time></trkpt><trkpt lat="38.02789122000218" lon="15.729269166014264"><ele>810.0</ele><time>2026-04-25T08:12:14Z</time></trkpt><trkpt lat="38.02797748474306" lon="15.729375330770656"><ele>810.0</ele><time>2026-04-25T08:12:15Z</time></trkpt><trkpt lat="38.02806672150665" lon="15.729451135253338"><ele>810.0</ele><time>2026-04-25T08:12:16Z</time></trkpt><trkpt lat="38.028177122270364" lon="15.729484375246278"><ele>809.8</ele><time>2026-04-25T08:12:17Z</time></trkpt><trkpt lat="38.02828391898385" lon="15.729512853974398"><ele>809.6</ele><time>2026-04-25T08:12:18Z</time></trkpt><trkpt lat="38.02834806216559" lon="15.729611069030442"><ele>809.4000000000001</ele><time>2026-04-25T08:12:19Z</time></trkpt><trkpt lat="38.02840976048067" lon="15.729723228706622"><ele>809.2</ele><time>2026-04-25T08:12:20Z</time></trkpt><trkpt lat="38.02845131168091" lon="15.729842718424013"><ele>809.0</ele><time>2026-04-25T08:12:21Z</time></trkpt><trkpt lat="38.02848041730042" lon="15.729959752147483"><ele>809.0000000000001</ele><time>2026-04-25T08:12:22Z</time></trkpt><trkpt lat="38.02848636280827" lon="15.730080888164306"><ele>809.0</ele><time>2026-04-25T08:12:23Z</time></trkpt><trkpt lat="38.02849400247009" lon="15.730194518770292"><ele>809.0</ele><time>2026-04-25T08:12:24Z</time></trkpt><trkpt lat="38.02850101158043" lon="15.73029927783567"><ele>809.0</ele><time>2026-04-25T08:12:25Z</time></trkpt><trkpt lat="38.02846262551479" lon="15.730385116904033"><ele>809.0000000000001</ele><time>2026-04-25T08:12:26Z</time></trkpt><trkpt lat="38.028437590055624" lon="15.730486570991832"><ele>809.0</ele><time>2026-04-25T08:12:27Z</time></trkpt><trkpt lat="38.02839754030532" lon="15.730583058573451"><ele>808.1666666666667</ele><time>2026-04-25T08:12:28Z</time></trkpt><trkpt lat="38.02839928671949" lon="15.730684477344566"><ele>807.3333333333334</ele><time>2026-04-25T08:12:29Z</time></trkpt><trkpt lat="38.02842806722847" lon="15.730792228365617"><ele>806.5</ele><time>2026-04-25T08:12:30Z</time></trkpt><trkpt lat="38.02844527361364" lon="15.730901430661262"><ele>805.6666666666667</ele><time>2026-04-25T08:12:31Z</time></trkpt><trkpt lat="38.02845166581521" lon="15.731005238553324"><ele>804.8333333333334</ele><time>2026-04-25T08:12:32Z</time></trkpt><trkpt lat="38.02846982156506" lon="15.731095861804052"><ele>804.0</ele><time>2026-04-25T08:12:33Z</time></trkpt><trkpt lat="38.028520411621194" lon="15.7311656333059"><ele>803.0</ele><time>2026-04-25T08:12:34Z</time></trkpt><trkpt lat="38.02856741898586" lon="15.731245564484135"><ele>802.0</ele><time>2026-04-25T08:12:35Z</time></trkpt><trkpt lat="38.02864246498083" lon="15.731294502856516"><ele>801.0</ele><time>2026-04-25T08:12:35.999Z</time></trkpt><trkpt lat="38.028709032527324" lon="15.731362256910005"><ele>800.0</ele><time>2026-04-25T08:12:36.999Z</time></trkpt><trkpt lat="38.028752900538194" lon="15.731462563867945"><ele>799.0</ele><time>2026-04-25T08:12:37.999Z</time></trkpt><trkpt lat="38.028785402324715" lon="15.731579463380896"><ele>798.0</ele><time>2026-04-25T08:12:38.999Z</time></trkpt><trkpt lat="38.02884111192363" lon="15.731684561419515"><ele>798.0</ele><time>2026-04-25T08:12:39.999Z</time></trkpt><trkpt lat="38.028870251349865" lon="15.731775909611141"><ele>798.0</ele><time>2026-04-25T08:12:40.999Z</time></trkpt><trkpt lat="38.02886390470544" lon="15.73186785725737"><ele>798.0</ele><time>2026-04-25T08:12:41.999Z</time></trkpt><trkpt lat="38.0288298268226" lon="15.732030450085125"><ele>798.0</ele><time>2026-04-25T08:12:43.999Z</time></trkpt><trkpt lat="38.02880544729075" lon="15.732131002658825"><ele>798.0</ele><time>2026-04-25T08:12:44.999Z</time></trkpt><trkpt lat="38.02878021074474" lon="15.732236852955879"><ele>798.6666666666666</ele><time>2026-04-25T08:12:45.999Z</time></trkpt><trkpt lat="38.028757131975915" lon="15.732331710089316"><ele>799.3333333333333</ele><time>2026-04-25T08:12:46.999Z</time></trkpt><trkpt lat="38.02872479189385" lon="15.732414661837627"><ele>800.0</ele><time>2026-04-25T08:12:47.999Z</time></trkpt><trkpt lat="38.02866784205542" lon="15.732497952919232"><ele>800.6666666666666</ele><time>2026-04-25T08:12:48.999Z</time></trkpt><trkpt lat="38.02861322675208" lon="15.7325917798586"><ele>801.3333333333333</ele><time>2026-04-25T08:12:49.999Z</time></trkpt><trkpt lat="38.028560200630125" lon="15.73268203946533"><ele>802.0</ele><time>2026-04-25T08:12:50.999Z</time></trkpt><trkpt lat="38.028515487049404" lon="15.732762397416945"><ele>802.3333333333333</ele><time>2026-04-25T08:12:51.999Z</time></trkpt><trkpt lat="38.028478496549816" lon="15.732840336200482"><ele>802.6666666666666</ele><time>2026-04-25T08:12:52.999Z</time></trkpt><trkpt lat="38.02838014045096" lon="15.732915565236505"><ele>803.0</ele><time>2026-04-25T08:12:54.999Z</time></trkpt><trkpt lat="38.02831363176071" lon="15.732968593510861"><ele>803.3333333333333</ele><time>2026-04-25T08:12:55.999Z</time></trkpt><trkpt lat="38.02824622036463" lon="15.733033450245307"><ele>803.6666666666666</ele><time>2026-04-25T08:12:56.999Z</time></trkpt><trkpt lat="38.028162073211256" lon="15.7330728209248"><ele>804.0</ele><time>2026-04-25T08:12:57.999Z</time></trkpt><trkpt lat="38.02807314380816" lon="15.733122074049396"><ele>802.2</ele><time>2026-04-25T08:12:58.999Z</time></trkpt><trkpt lat="38.02799077541071" lon="15.733179206205259"><ele>800.4000000000001</ele><time>2026-04-25T08:12:59.999Z</time></trkpt><trkpt lat="38.02790930771635" lon="15.73324984831913"><ele>798.6</ele><time>2026-04-25T08:13:00.999Z</time></trkpt><trkpt lat="38.02782956772475" lon="15.733330308305977"><ele>796.8</ele><time>2026-04-25T08:13:01.999Z</time></trkpt><trkpt lat="38.02775537952427" lon="15.73342198609107"><ele>795.0</ele><time>2026-04-25T08:13:02.999Z</time></trkpt><trkpt lat="38.02768819084766" lon="15.733497880856609"><ele>794.5</ele><time>2026-04-25T08:13:03.999Z</time></trkpt><trkpt lat="38.02762539148347" lon="15.733563310730593"><ele>794.0</ele><time>2026-04-25T08:13:04.999Z</time></trkpt><trkpt lat="38.02756529805111" lon="15.73361559801138"><ele>793.5</ele><time>2026-04-25T08:13:05.999Z</time></trkpt><trkpt lat="38.02750315962515" lon="15.733653777888048"><ele>793.0</ele><time>2026-04-25T08:13:06.999Z</time></trkpt><trkpt lat="38.02743949797372" lon="15.733697260486377"><ele>792.5</ele><time>2026-04-25T08:13:07.999Z</time></trkpt><trkpt lat="38.027371535172385" lon="15.73372983487472"><ele>792.0</ele><time>2026-04-25T08:13:08.999Z</time></trkpt><trkpt lat="38.02729388340303" lon="15.733772333186963"><ele>790.2</ele><time>2026-04-25T08:13:09.999Z</time></trkpt><trkpt lat="38.0272109893569" lon="15.73382028959939"><ele>788.4000000000001</ele><time>2026-04-25T08:13:10.999Z</time></trkpt><trkpt lat="38.02711957622444" lon="15.733878897781821"><ele>786.5999999999999</ele><time>2026-04-25T08:13:11.999Z</time></trkpt><trkpt lat="38.027027721119595" lon="15.733942158477813"><ele>784.8</ele><time>2026-04-25T08:13:12.999Z</time></trkpt><trkpt lat="38.026935865467834" lon="15.734011924479551"><ele>783.0</ele><time>2026-04-25T08:13:14Z</time></trkpt><trkpt lat="38.02685720489943" lon="15.734084268248148"><ele>783.0</ele><time>2026-04-25T08:13:15Z</time></trkpt><trkpt lat="38.026795169413795" lon="15.73415484685616"><ele>783.0</ele><time>2026-04-25T08:13:16Z</time></trkpt><trkpt lat="38.02673859600169" lon="15.734231052072449"><ele>783.0</ele><time>2026-04-25T08:13:17Z</time></trkpt><trkpt lat="38.0266688000432" lon="15.734322416471748"><ele>783.0</ele><time>2026-04-25T08:13:18Z</time></trkpt><trkpt lat="38.02658725076909" lon="15.734397545090285"><ele>783.0</ele><time>2026-04-25T08:13:19Z</time></trkpt><trkpt lat="38.02648617553708" lon="15.734465158994842"><ele>785.8</ele><time>2026-04-25T08:13:20Z</time></trkpt><trkpt lat="38.02639630452127" lon="15.734546525699113"><ele>788.5999999999999</ele><time>2026-04-25T08:13:21Z</time></trkpt><trkpt lat="38.02630771302245" lon="15.734631408716698"><ele>791.4000000000001</ele><time>2026-04-25T08:13:22Z</time></trkpt><trkpt lat="38.026260609182884" lon="15.734697644076594"><ele>794.2</ele><time>2026-04-25T08:13:23Z</time></trkpt><trkpt lat="38.02616482194001" lon="15.734727019146634"><ele>797.0</ele><time>2026-04-25T08:13:24Z</time></trkpt><trkpt lat="38.02605217692146" lon="15.73468696195175"><ele>797.0</ele><time>2026-04-25T08:13:25Z</time></trkpt><trkpt lat="38.02592859238264" lon="15.73467563122966"><ele>797.0</ele><time>2026-04-25T08:13:26Z</time></trkpt><trkpt lat="38.02582835325181" lon="15.734722621550972"><ele>797.0</ele><time>2026-04-25T08:13:27Z</time></trkpt><trkpt lat="38.02575434601153" lon="15.734774339650402"><ele>797.0</ele><time>2026-04-25T08:13:28Z</time></trkpt><trkpt lat="38.02572122059217" lon="15.734882125408989"><ele>797.0</ele><time>2026-04-25T08:13:29Z</time></trkpt><trkpt lat="38.0256681220273" lon="15.7349784867791"><ele>797.25</ele><time>2026-04-25T08:13:30Z</time></trkpt><trkpt lat="38.02561201279939" lon="15.735098052834838"><ele>797.5</ele><time>2026-04-25T08:13:31Z</time></trkpt><trkpt lat="38.02552027840478" lon="15.735189384427189"><ele>797.75</ele><time>2026-04-25T08:13:32Z</time></trkpt><trkpt lat="38.02540357666063" lon="15.735264750294123"><ele>798.0</ele><time>2026-04-25T08:13:33Z</time></trkpt><trkpt lat="38.02527471165082" lon="15.735326204198174"><ele>798.2</ele><time>2026-04-25T08:13:34Z</time></trkpt><trkpt lat="38.02516716135636" lon="15.735388820366861"><ele>798.4</ele><time>2026-04-25T08:13:35Z</time></trkpt><trkpt lat="38.02508022604113" lon="15.7354622540189"><ele>798.6</ele><time>2026-04-25T08:13:36Z</time></trkpt><trkpt lat="38.02500832759436" lon="15.735564137240958"><ele>798.8000000000001</ele><time>2026-04-25T08:13:37Z</time></trkpt><trkpt lat="38.02493413391993" lon="15.735656759460051"><ele>799.0</ele><time>2026-04-25T08:13:38Z</time></trkpt><trkpt lat="38.02487242909074" lon="15.7357419734054"><ele>799.0</ele><time>2026-04-25T08:13:39Z</time></trkpt><trkpt lat="38.024810000299986" lon="15.735838474845933"><ele>799.0</ele><time>2026-04-25T08:13:40Z</time></trkpt><trkpt lat="38.02476857660513" lon="15.735942794480524"><ele>799.0</ele><time>2026-04-25T08:13:41Z</time></trkpt><trkpt lat="38.0247430618842" lon="15.73606108449165"><ele>799.0</ele><time>2026-04-25T08:13:42Z</time></trkpt><trkpt lat="38.024718803428144" lon="15.73619208553397"><ele>799.0</ele><time>2026-04-25T08:13:43Z</time></trkpt><trkpt lat="38.02470373191394" lon="15.73633047824104"><ele>800.3333333333333</ele><time>2026-04-25T08:13:44Z</time></trkpt><trkpt lat="38.02467936067105" lon="15.736466453645296"><ele>801.6666666666666</ele><time>2026-04-25T08:13:45Z</time></trkpt><trkpt lat="38.02465043115781" lon="15.736568832801561"><ele>803.0</ele><time>2026-04-25T08:13:46Z</time></trkpt><trkpt lat="38.02459132177637" lon="15.736629422028413"><ele>804.3333333333333</ele><time>2026-04-25T08:13:47Z</time></trkpt><trkpt lat="38.024501669866225" lon="15.73666538338754"><ele>805.6666666666666</ele><time>2026-04-25T08:13:48Z</time></trkpt><trkpt lat="38.02442894506138" lon="15.736710379016824"><ele>807.0</ele><time>2026-04-25T08:13:49Z</time></trkpt><trkpt lat="38.02435839541165" lon="15.736778268222706"><ele>807.0</ele><time>2026-04-25T08:13:50Z</time></trkpt><trkpt lat="38.024273399726916" lon="15.736874735714395"><ele>807.0</ele><time>2026-04-25T08:13:51Z</time></trkpt><trkpt lat="38.024175650438224" lon="15.736956255003488"><ele>807.0</ele><time>2026-04-25T08:13:52Z</time></trkpt><trkpt lat="38.02406574418497" lon="15.737011981615177"><ele>807.0</ele><time>2026-04-25T08:13:53Z</time></trkpt><trkpt lat="38.02400481408691" lon="15.737075555875347"><ele>807.0</ele><time>2026-04-25T08:13:54Z</time></trkpt><trkpt lat="38.0239075769243" lon="15.73716765682273"><ele>809.6</ele><time>2026-04-25T08:13:56Z</time></trkpt><trkpt lat="38.02386705405602" lon="15.737254015775928"><ele>812.2</ele><time>2026-04-25T08:13:57Z</time></trkpt><trkpt lat="38.02381893343147" lon="15.737328853762932"><ele>814.8</ele><time>2026-04-25T08:13:58Z</time></trkpt><trkpt lat="38.02370183377981" lon="15.737344991424667"><ele>817.4</ele><time>2026-04-25T08:14:00Z</time></trkpt><trkpt lat="38.02358247982148" lon="15.737324847109281"><ele>820.0</ele><time>2026-04-25T08:14:02Z</time></trkpt><trkpt lat="38.02351309885463" lon="15.737315561433583"><ele>819.9999999999999</ele><time>2026-04-25T08:14:03Z</time></trkpt><trkpt lat="38.02344417507931" lon="15.737298095091601"><ele>820.0</ele><time>2026-04-25T08:14:04Z</time></trkpt><trkpt lat="38.02336253109402" lon="15.737262746488803"><ele>820.0</ele><time>2026-04-25T08:14:05Z</time></trkpt><trkpt lat="38.023281734295956" lon="15.737215643043813"><ele>820.0</ele><time>2026-04-25T08:14:06Z</time></trkpt><trkpt lat="38.02319520518623" lon="15.737168006201214"><ele>819.9999999999999</ele><time>2026-04-25T08:14:07Z</time></trkpt><trkpt lat="38.02310724202907" lon="15.737127779992711"><ele>820.0</ele><time>2026-04-25T08:14:08Z</time></trkpt><trkpt lat="38.02302416157698" lon="15.737096921774242"><ele>818.6666666666666</ele><time>2026-04-25T08:14:09Z</time></trkpt><trkpt lat="38.02295884635348" lon="15.737074114438695"><ele>817.3333333333333</ele><time>2026-04-25T08:14:10Z</time></trkpt><trkpt lat="38.022895886164825" lon="15.737055566210277"><ele>816.0</ele><time>2026-04-25T08:14:11Z</time></trkpt><trkpt lat="38.022824629808426" lon="15.737064725957934"><ele>814.6666666666667</ele><time>2026-04-25T08:14:12Z</time></trkpt><trkpt lat="38.02270390226324" lon="15.73705377392814"><ele>813.3333333333334</ele><time>2026-04-25T08:14:14Z</time></trkpt><trkpt lat="38.02260094534282" lon="15.736965473101243"><ele>812.0</ele><time>2026-04-25T08:14:16Z</time></trkpt><trkpt lat="38.022562383519166" lon="15.736901470349524"><ele>810.3333333333334</ele><time>2026-04-25T08:14:17Z</time></trkpt><trkpt lat="38.02246032780479" lon="15.73680500641271"><ele>808.6666666666667</ele><time>2026-04-25T08:14:19Z</time></trkpt><trkpt lat="38.022401861549135" lon="15.736762648293254"><ele>807.0</ele><time>2026-04-25T08:14:20Z</time></trkpt><trkpt lat="38.02233455742857" lon="15.736721801645556"><ele>805.3333333333333</ele><time>2026-04-25T08:14:21Z</time></trkpt><trkpt lat="38.02225295260866" lon="15.736695313596195"><ele>803.6666666666666</ele><time>2026-04-25T08:14:22Z</time></trkpt><trkpt lat="38.02215814905482" lon="15.736687854810569"><ele>802.0</ele><time>2026-04-25T08:14:23Z</time></trkpt><trkpt lat="38.02206750965995" lon="15.736684084760709"><ele>801.9999999999999</ele><time>2026-04-25T08:14:24Z</time></trkpt><trkpt lat="38.02199292972832" lon="15.736674354004897"><ele>802.0</ele><time>2026-04-25T08:14:25Z</time></trkpt><trkpt lat="38.02191413010544" lon="15.736669437288173"><ele>802.0</ele><time>2026-04-25T08:14:26Z</time></trkpt><trkpt lat="38.02183334549634" lon="15.736676269310445"><ele>802.0</ele><time>2026-04-25T08:14:27Z</time></trkpt><trkpt lat="38.021765646039746" lon="15.736684436693563"><ele>801.9999999999999</ele><time>2026-04-25T08:14:28Z</time></trkpt><trkpt lat="38.0216395564912" lon="15.736769354894696"><ele>802.0</ele><time>2026-04-25T08:14:29.999Z</time></trkpt><trkpt lat="38.02157772733979" lon="15.736836503029988"><ele>800.8333333333333</ele><time>2026-04-25T08:14:30.999Z</time></trkpt><trkpt lat="38.021497809934694" lon="15.736911423636366"><ele>799.6666666666666</ele><time>2026-04-25T08:14:31.999Z</time></trkpt><trkpt lat="38.02142018245078" lon="15.736974989116058"><ele>798.5</ele><time>2026-04-25T08:14:32.999Z</time></trkpt><trkpt lat="38.02135158333253" lon="15.737023575389088"><ele>797.3333333333333</ele><time>2026-04-25T08:14:33.999Z</time></trkpt><trkpt lat="38.021291557592164" lon="15.737077650751676"><ele>796.1666666666666</ele><time>2026-04-25T08:14:34.999Z</time></trkpt><trkpt lat="38.021256553055814" lon="15.737149588049908"><ele>795.0</ele><time>2026-04-25T08:14:35.999Z</time></trkpt><trkpt lat="38.021249067204074" lon="15.737244339214929"><ele>795.0</ele><time>2026-04-25T08:14:36.999Z</time></trkpt><trkpt lat="38.02123415799359" lon="15.737341538579376"><ele>795.0</ele><time>2026-04-25T08:14:37.999Z</time></trkpt><trkpt lat="38.02121892201191" lon="15.737431142553662"><ele>795.0</ele><time>2026-04-25T08:14:38.999Z</time></trkpt><trkpt lat="38.021174036285316" lon="15.737502135877547"><ele>795.0</ele><time>2026-04-25T08:14:39.999Z</time></trkpt><trkpt lat="38.02109094973618" lon="15.737547411420135"><ele>795.0</ele><time>2026-04-25T08:14:40.999Z</time></trkpt><trkpt lat="38.02101182282532" lon="15.737551829285808"><ele>795.0</ele><time>2026-04-25T08:14:41.999Z</time></trkpt><trkpt lat="38.02093241862618" lon="15.73752509646153"><ele>795.0</ele><time>2026-04-25T08:14:42.999Z</time></trkpt><trkpt lat="38.02084798327907" lon="15.737488610260025"><ele>795.0</ele><time>2026-04-25T08:14:43.999Z</time></trkpt><trkpt lat="38.02076788138774" lon="15.737454295446238"><ele>795.0</ele><time>2026-04-25T08:14:44.999Z</time></trkpt><trkpt lat="38.02069907860191" lon="15.737430923749889"><ele>795.0</ele><time>2026-04-25T08:14:45.999Z</time></trkpt><trkpt lat="38.02062382668304" lon="15.737414226822272"><ele>795.0</ele><time>2026-04-25T08:14:46.999Z</time></trkpt><trkpt lat="38.020544764227715" lon="15.737401870319783"><ele>795.0</ele><time>2026-04-25T08:14:47.999Z</time></trkpt><trkpt lat="38.020461552965536" lon="15.73739676379493"><ele>796.0</ele><time>2026-04-25T08:14:48.999Z</time></trkpt><trkpt lat="38.020395686901075" lon="15.737425621625063"><ele>797.0</ele><time>2026-04-25T08:14:49.999Z</time></trkpt><trkpt lat="38.02034722900312" lon="15.737502125249664"><ele>798.0</ele><time>2026-04-25T08:14:50.999Z</time></trkpt><trkpt lat="38.02030112170665" lon="15.737610168186288"><ele>799.0</ele><time>2026-04-25T08:14:51.999Z</time></trkpt><trkpt lat="38.020254797854406" lon="15.73772007315824"><ele>800.0</ele><time>2026-04-25T08:14:52.999Z</time></trkpt><trkpt lat="38.02019667166113" lon="15.737823174517162"><ele>801.0</ele><time>2026-04-25T08:14:53.999Z</time></trkpt><trkpt lat="38.02012476187498" lon="15.737925273644224"><ele>801.0</ele><time>2026-04-25T08:14:54.999Z</time></trkpt><trkpt lat="38.02003978968491" lon="15.738041702034588"><ele>801.0</ele><time>2026-04-25T08:14:55.999Z</time></trkpt><trkpt lat="38.0199486060516" lon="15.738161541649337"><ele>801.0</ele><time>2026-04-25T08:14:56.999Z</time></trkpt><trkpt lat="38.01987503035075" lon="15.738283809003242"><ele>801.0</ele><time>2026-04-25T08:14:57.999Z</time></trkpt><trkpt lat="38.019795125762414" lon="15.738393554813314"><ele>802.75</ele><time>2026-04-25T08:14:58.999Z</time></trkpt><trkpt lat="38.01968579819826" lon="15.738478347628327"><ele>804.5</ele><time>2026-04-25T08:14:59.999Z</time></trkpt><trkpt lat="38.019540554628406" lon="15.738556175692441"><ele>806.25</ele><time>2026-04-25T08:15:00.999Z</time></trkpt><trkpt lat="38.019436110707005" lon="15.738627995766565"><ele>808.0</ele><time>2026-04-25T08:15:01.999Z</time></trkpt><trkpt lat="38.01936361781073" lon="15.73871473331488"><ele>808.0</ele><time>2026-04-25T08:15:02.999Z</time></trkpt><trkpt lat="38.019298482770736" lon="15.73883678931744"><ele>808.0</ele><time>2026-04-25T08:15:03.999Z</time></trkpt><trkpt lat="38.01921115668612" lon="15.738947873007435"><ele>808.0</ele><time>2026-04-25T08:15:04.999Z</time></trkpt><trkpt lat="38.01913255979913" lon="15.739012029027124"><ele>808.0</ele><time>2026-04-25T08:15:05.999Z</time></trkpt><trkpt lat="38.01902919164571" lon="15.738994403408775"><ele>808.0</ele><time>2026-04-25T08:15:07.999Z</time></trkpt><trkpt lat="38.018945130548616" lon="15.738938678997847"><ele>812.5</ele><time>2026-04-25T08:15:08.999Z</time></trkpt><trkpt lat="38.01885677578057" lon="15.738833524612808"><ele>817.0</ele><time>2026-04-25T08:15:09.999Z</time></trkpt><trkpt lat="38.01875292365056" lon="15.738746646961342"><ele>821.5</ele><time>2026-04-25T08:15:10.999Z</time></trkpt><trkpt lat="38.018648005167925" lon="15.738694562562774"><ele>826.0</ele><time>2026-04-25T08:15:11.999Z</time></trkpt><trkpt lat="38.01854845517856" lon="15.73866896769604"><ele>825.9999999999999</ele><time>2026-04-25T08:15:12.999Z</time></trkpt><trkpt lat="38.018469635975876" lon="15.738658221225514"><ele>826.0</ele><time>2026-04-25T08:15:13.999Z</time></trkpt><trkpt lat="38.01839082829269" lon="15.73864447006608"><ele>826.0</ele><time>2026-04-25T08:15:14.999Z</time></trkpt><trkpt lat="38.01831418366498" lon="15.738614023838025"><ele>826.0</ele><time>2026-04-25T08:15:15.999Z</time></trkpt><trkpt lat="38.01824296103059" lon="15.738593768078825"><ele>825.9999999999999</ele><time>2026-04-25T08:15:16.999Z</time></trkpt><trkpt lat="38.018175462811975" lon="15.738569225267725"><ele>826.0</ele><time>2026-04-25T08:15:17.999Z</time></trkpt><trkpt lat="38.01811127456535" lon="15.738536909094831"><ele>828.4999999999999</ele><time>2026-04-25T08:15:20Z</time></trkpt><trkpt lat="38.01804311538117" lon="15.738513694946572"><ele>831.0</ele><time>2026-04-25T08:16:35.999Z</time></trkpt><trkpt lat="38.01796918570001" lon="15.738556293941816"><ele>833.5</ele><time>2026-04-25T08:16:46.999Z</time></trkpt><trkpt lat="38.01789974220096" lon="15.738614671019958"><ele>836.0</ele><time>2026-04-25T08:16:51.999Z</time></trkpt><trkpt lat="38.01784611051891" lon="15.738692836859565"><ele>838.4999999999999</ele><time>2026-04-25T08:16:57.999Z</time></trkpt><trkpt lat="38.01789562844358" lon="15.738617422734364"><ele>841.0</ele><time>2026-04-25T08:17:04.999Z</time></trkpt><trkpt lat="38.01795412298577" lon="15.738570370740579"><ele>841.0</ele><time>2026-04-25T08:17:09.999Z</time></trkpt><trkpt lat="38.01801123285342" lon="15.738499573132414"><ele>841.0</ele><time>2026-04-25T08:17:13.999Z</time></trkpt><trkpt lat="38.018076767970605" lon="15.738528921943315"><ele>841.0</ele><time>2026-04-25T08:17:16.999Z</time></trkpt><trkpt lat="38.018011880488096" lon="15.738507330276896"><ele>841.0</ele><time>2026-04-25T08:18:01Z</time></trkpt><trkpt lat="38.01795783388772" lon="15.738565470991508"><ele>841.0</ele><time>2026-04-25T08:18:06Z</time></trkpt><trkpt lat="38.01790663504261" lon="15.73863717340239"><ele>841.0</ele><time>2026-04-25T08:18:11Z</time></trkpt><trkpt lat="38.01785415885134" lon="15.7386883199396"><ele>841.0</ele><time>2026-04-25T08:18:14Z</time></trkpt><trkpt lat="38.01779105731762" lon="15.73877809264128"><ele>841.0</ele><time>2026-04-25T08:18:18Z</time></trkpt><trkpt lat="38.017751703422604" lon="15.738867847240147"><ele>841.0</ele><time>2026-04-25T08:18:21Z</time></trkpt><trkpt lat="38.0177196934457" lon="15.738953433832622"><ele>841.0</ele><time>2026-04-25T08:18:25Z</time></trkpt><trkpt lat="38.01767307188612" lon="15.739017385135996"><ele>841.0</ele><time>2026-04-25T08:18:30.999Z</time></trkpt><trkpt lat="38.017615702365475" lon="15.739063998026984"><ele>841.0</ele><time>2026-04-25T08:18:35.999Z</time></trkpt><trkpt lat="38.017559337249" lon="15.739113875879998"><ele>841.0</ele><time>2026-04-25T08:18:40.999Z</time></trkpt><trkpt lat="38.01751764303239" lon="15.739179956714976"><ele>841.0</ele><time>2026-04-25T08:18:46.999Z</time></trkpt><trkpt lat="38.01746509269581" lon="15.739263435384139"><ele>841.0</ele><time>2026-04-25T08:19:02.999Z</time></trkpt><trkpt lat="38.01754199183166" lon="15.73929796850837"><ele>841.0</ele><time>2026-04-25T08:19:56Z</time></trkpt><trkpt lat="38.01757084577054" lon="15.739376987021414"><ele>841.0</ele><time>2026-04-25T08:20:02Z</time></trkpt><trkpt lat="38.017588897851034" lon="15.739455425792903"><ele>841.0</ele><time>2026-04-25T08:20:08Z</time></trkpt><trkpt lat="38.017647808278504" lon="15.739484958649138"><ele>841.0</ele><time>2026-04-25T08:20:17Z</time></trkpt><trkpt lat="38.017676906264185" lon="15.739556468018314"><ele>841.0</ele><time>2026-04-25T08:20:25Z</time></trkpt><trkpt lat="38.01760974939836" lon="15.739550809385852"><ele>841.0</ele><time>2026-04-25T08:20:31.999Z</time></trkpt><trkpt lat="38.017596902416834" lon="15.739458228502443"><ele>841.0</ele><time>2026-04-25T08:20:40.999Z</time></trkpt><trkpt lat="38.01757619593296" lon="15.739367955200565"><ele>841.0</ele><time>2026-04-25T08:20:57.999Z</time></trkpt><trkpt lat="38.01754181169347" lon="15.7392987504878"><ele>841.0</ele><time>2026-04-25T08:21:05.999Z</time></trkpt><trkpt lat="38.01749025538702" lon="15.739235332048233"><ele>841.0</ele><time>2026-04-25T08:21:14.999Z</time></trkpt><trkpt lat="38.01743467720709" lon="15.73929449489779"><ele>841.0</ele><time>2026-04-25T08:21:50Z</time></trkpt><trkpt lat="38.01736933403099" lon="15.7393089090766"><ele>841.0</ele><time>2026-04-25T08:21:55Z</time></trkpt><trkpt lat="38.01730399442177" lon="15.739346107925746"><ele>841.0</ele><time>2026-04-25T08:22:01Z</time></trkpt><trkpt lat="38.01724559848856" lon="15.739397769676058"><ele>840.9999999999999</ele><time>2026-04-25T08:22:09Z</time></trkpt><trkpt lat="38.01732177880393" lon="15.739376517339602"><ele>841.0</ele><time>2026-04-25T08:25:01.999Z</time></trkpt><trkpt lat="38.01740970229917" lon="15.739296793440676"><ele>841.0</ele><time>2026-04-25T08:25:32.999Z</time></trkpt><trkpt lat="38.017453126345295" lon="15.739219874812056"><ele>841.0</ele><time>2026-04-25T08:27:06.999Z</time></trkpt><trkpt lat="38.01749114802545" lon="15.739125691752305"><ele>840.9999999999999</ele><time>2026-04-25T08:27:12.999Z</time></trkpt><trkpt lat="38.01754479809349" lon="15.739052979956497"><ele>841.0</ele><time>2026-04-25T08:27:15.999Z</time></trkpt><trkpt lat="38.01760269126271" lon="15.738993085692185"><ele>840.9999999999999</ele><time>2026-04-25T08:27:17.999Z</time></trkpt><trkpt lat="38.01765763060108" lon="15.738950858115901"><ele>841.0</ele><time>2026-04-25T08:27:19.999Z</time></trkpt><trkpt lat="38.01772711905717" lon="15.738861101074018"><ele>841.0</ele><time>2026-04-25T08:27:22.999Z</time></trkpt><trkpt lat="38.017787274771344" lon="15.738743798676161"><ele>841.0</ele><time>2026-04-25T08:27:24.999Z</time></trkpt><trkpt lat="38.01783654127731" lon="15.738672250511428"><ele>840.9999999999999</ele><time>2026-04-25T08:27:28.999Z</time></trkpt><trkpt lat="38.01788581366865" lon="15.73858485088874"><ele>841.0</ele><time>2026-04-25T08:27:31.999Z</time></trkpt><trkpt lat="38.01794204678999" lon="15.738535723171575"><ele>840.9999999999999</ele><time>2026-04-25T08:27:34.999Z</time></trkpt><trkpt lat="38.01801864850564" lon="15.738463874583244"><ele>841.0</ele><time>2026-04-25T08:27:36.999Z</time></trkpt><trkpt lat="38.018098366374645" lon="15.738509463483629"><ele>841.0</ele><time>2026-04-25T08:28:07Z</time></trkpt><trkpt lat="38.01807130082108" lon="15.738431103309424"><ele>841.0</ele><time>2026-04-25T08:29:00.999Z</time></trkpt><trkpt lat="38.01807797145401" lon="15.738514805681076"><ele>840.9999999999999</ele><time>2026-04-25T08:29:03.999Z</time></trkpt><trkpt lat="38.01798609009333" lon="15.73853406556181"><ele>841.0</ele><time>2026-04-25T08:29:05.999Z</time></trkpt><trkpt lat="38.01792110429541" lon="15.738575798794466"><ele>841.0</ele><time>2026-04-25T08:29:06.999Z</time></trkpt><trkpt lat="38.01782184113553" lon="15.738689332146647"><ele>841.0</ele><time>2026-04-25T08:29:08.999Z</time></trkpt><trkpt lat="38.017773262083125" lon="15.738796257282134"><ele>841.0</ele><time>2026-04-25T08:29:10.999Z</time></trkpt><trkpt lat="38.01771583723431" lon="15.738938105666252"><ele>841.0</ele><time>2026-04-25T08:29:12.999Z</time></trkpt><trkpt lat="38.0176431111769" lon="15.739022142739415"><ele>840.9999999999999</ele><time>2026-04-25T08:29:14.999Z</time></trkpt><trkpt lat="38.017592089036974" lon="15.739069679357128"><ele>841.0</ele><time>2026-04-25T08:29:15.999Z</time></trkpt><trkpt lat="38.01749598101307" lon="15.739173059446555"><ele>841.0</ele><time>2026-04-25T08:29:17.999Z</time></trkpt><trkpt lat="38.017463697417476" lon="15.739280507428061"><ele>841.0</ele><time>2026-04-25T08:29:19.999Z</time></trkpt><trkpt lat="38.01738006104647" lon="15.739295454660683"><ele>840.9999999999999</ele><time>2026-04-25T08:29:21.999Z</time></trkpt><trkpt lat="38.017322727649955" lon="15.739337254817269"><ele>841.0</ele><time>2026-04-25T08:29:23Z</time></trkpt><trkpt lat="38.017229806081495" lon="15.739395571510503"><ele>843.4999999999999</ele><time>2026-04-25T08:29:25Z</time></trkpt><trkpt lat="38.01716973602585" lon="15.739435994249776"><ele>846.0</ele><time>2026-04-25T08:29:39Z</time></trkpt><trkpt lat="38.017161673605145" lon="15.739343542063937"><ele>848.5</ele><time>2026-04-25T08:29:42Z</time></trkpt><trkpt lat="38.01727481709527" lon="15.739365911079314"><ele>851.0</ele><time>2026-04-25T08:40:23.999Z</time></trkpt><trkpt lat="38.01732896172362" lon="15.739322544070665"><ele>853.4999999999999</ele><time>2026-04-25T08:40:26.999Z</time></trkpt><trkpt lat="38.01739730042352" lon="15.739246233008428"><ele>856.0</ele><time>2026-04-25T08:42:32.999Z</time></trkpt><trkpt lat="38.01746518778344" lon="15.739223153828794"><ele>853.4999999999999</ele><time>2026-04-25T08:42:45Z</time></trkpt><trkpt lat="38.017508592038524" lon="15.739132746436068"><ele>851.0</ele><time>2026-04-25T08:42:49Z</time></trkpt><trkpt lat="38.017574932192396" lon="15.73906694650791"><ele>848.5</ele><time>2026-04-25T08:42:52Z</time></trkpt><trkpt lat="38.01763287028259" lon="15.739026616213057"><ele>846.0</ele><time>2026-04-25T08:42:56Z</time></trkpt><trkpt lat="38.017680000451634" lon="15.738953369616855"><ele>843.4999999999999</ele><time>2026-04-25T08:42:59Z</time></trkpt><trkpt lat="38.01771589661712" lon="15.738868203281717"><ele>841.0</ele><time>2026-04-25T08:43:01Z</time></trkpt><trkpt lat="38.01777006961465" lon="15.738750491962353"><ele>840.9999999999999</ele><time>2026-04-25T08:43:03Z</time></trkpt><trkpt lat="38.01780029266999" lon="15.73867754286181"><ele>841.0</ele><time>2026-04-25T08:43:05Z</time></trkpt><trkpt lat="38.017894932595404" lon="15.73861027962036"><ele>841.0</ele><time>2026-04-25T08:43:08Z</time></trkpt><trkpt lat="38.01795919717991" lon="15.738530333853639"><ele>841.0</ele><time>2026-04-25T08:43:10Z</time></trkpt><trkpt lat="38.01802452173456" lon="15.73848816353304"><ele>840.9999999999999</ele><time>2026-04-25T08:43:12Z</time></trkpt><trkpt lat="38.01812065057977" lon="15.73851486131517"><ele>841.0</ele><time>2026-04-25T08:45:39.999Z</time></trkpt><trkpt lat="38.01822650549236" lon="15.738582915936679"><ele>841.0</ele><time>2026-04-25T08:45:41.999Z</time></trkpt><trkpt lat="38.01829301861945" lon="15.738616536169692"><ele>841.0</ele><time>2026-04-25T08:45:42.999Z</time></trkpt><trkpt lat="38.018369030502654" lon="15.738644149631028"><ele>841.0</ele><time>2026-04-25T08:45:43.999Z</time></trkpt><trkpt lat="38.0184447951622" lon="15.73865449449859"><ele>841.0</ele><time>2026-04-25T08:45:44.999Z</time></trkpt><trkpt lat="38.01851735143428" lon="15.73867098686535"><ele>841.0</ele><time>2026-04-25T08:45:45.999Z</time></trkpt><trkpt lat="38.018587004480494" lon="15.738693758547551"><ele>841.0</ele><time>2026-04-25T08:45:46.999Z</time></trkpt><trkpt lat="38.01865856720805" lon="15.738719986079532"><ele>841.0</ele><time>2026-04-25T08:45:47.999Z</time></trkpt><trkpt lat="38.0187576656283" lon="15.738778890654661"><ele>838.8571428571429</ele><time>2026-04-25T08:45:49.999Z</time></trkpt><trkpt lat="38.01882814725052" lon="15.73881248723589"><ele>836.7142857142857</ele><time>2026-04-25T08:45:51.999Z</time></trkpt><trkpt lat="38.01889185156554" lon="15.738835963329155"><ele>834.5714285714286</ele><time>2026-04-25T08:45:55.999Z</time></trkpt><trkpt lat="38.01896368437006" lon="15.73889670875818"><ele>832.4285714285714</ele><time>2026-04-25T08:46:10.999Z</time></trkpt><trkpt lat="38.01901254901042" lon="15.738951448526846"><ele>830.2857142857142</ele><time>2026-04-25T08:46:12.999Z</time></trkpt><trkpt lat="38.019068605416436" lon="15.739000207447218"><ele>828.1428571428571</ele><time>2026-04-25T08:46:14.999Z</time></trkpt><trkpt lat="38.01914307623735" lon="15.739030523655206"><ele>826.0</ele><time>2026-04-25T08:46:17.999Z</time></trkpt><trkpt lat="38.019202403055694" lon="15.738969115860229"><ele>825.9999999999999</ele><time>2026-04-25T08:46:21.999Z</time></trkpt><trkpt lat="38.01921778716697" lon="15.73888170550643"><ele>826.0</ele><time>2026-04-25T08:46:42.999Z</time></trkpt><trkpt lat="38.019181739655984" lon="15.73895552777848"><ele>826.0</ele><time>2026-04-25T08:46:57Z</time></trkpt><trkpt lat="38.01912078773909" lon="15.738999075479276"><ele>826.0</ele><time>2026-04-25T08:47:03Z</time></trkpt><trkpt lat="38.01902194579004" lon="15.73896714933976"><ele>825.9999999999999</ele><time>2026-04-25T08:47:05Z</time></trkpt><trkpt lat="38.01891382854871" lon="15.738881590211538"><ele>826.0</ele><time>2026-04-25T08:47:07Z</time></trkpt><trkpt lat="38.018764208329266" lon="15.73878839737663"><ele>825.9999999999999</ele><time>2026-04-25T08:47:09Z</time></trkpt><trkpt lat="38.018685332943285" lon="15.738753280710782"><ele>826.0</ele><time>2026-04-25T08:47:10Z</time></trkpt><trkpt lat="38.018615201193754" lon="15.738724049525915"><ele>826.0</ele><time>2026-04-25T08:47:11Z</time></trkpt><trkpt lat="38.01854647438909" lon="15.738700130146418"><ele>826.0</ele><time>2026-04-25T08:47:12Z</time></trkpt><trkpt lat="38.01847358760041" lon="15.738680755007525"><ele>825.9999999999999</ele><time>2026-04-25T08:47:13Z</time></trkpt><trkpt lat="38.018397882700356" lon="15.738662300830054"><ele>826.0</ele><time>2026-04-25T08:47:14Z</time></trkpt><trkpt lat="38.018322846793616" lon="15.738641809265568"><ele>828.4999999999999</ele><time>2026-04-25T08:47:15Z</time></trkpt><trkpt lat="38.018251920117876" lon="15.738616902227593"><ele>831.0</ele><time>2026-04-25T08:47:16Z</time></trkpt><trkpt lat="38.018145076830365" lon="15.738576579795685"><ele>833.5</ele><time>2026-04-25T08:47:18Z</time></trkpt><trkpt lat="38.018093714185056" lon="15.738512109959697"><ele>836.0</ele><time>2026-04-25T08:47:21Z</time></trkpt><trkpt lat="38.01809164968055" lon="15.738420937696185"><ele>838.4999999999999</ele><time>2026-04-25T08:47:34Z</time></trkpt><trkpt lat="38.01816299487783" lon="15.738322089244202"><ele>841.0</ele><time>2026-04-25T08:47:36Z</time></trkpt><trkpt lat="38.01825433439909" lon="15.738220047343795"><ele>841.4285714285714</ele><time>2026-04-25T08:47:38Z</time></trkpt><trkpt lat="38.01830082979582" lon="15.738154143687366"><ele>841.8571428571428</ele><time>2026-04-25T08:47:38.999Z</time></trkpt><trkpt lat="38.01831606799927" lon="15.738076294413865"><ele>842.2857142857142</ele><time>2026-04-25T08:47:39.999Z</time></trkpt><trkpt lat="38.018328617447445" lon="15.7379883736243"><ele>842.7142857142858</ele><time>2026-04-25T08:47:40.999Z</time></trkpt><trkpt lat="38.01832908401131" lon="15.737899909095566"><ele>843.1428571428571</ele><time>2026-04-25T08:47:41.999Z</time></trkpt><trkpt lat="38.018322347046706" lon="15.737811168541421"><ele>843.5714285714286</ele><time>2026-04-25T08:47:42.999Z</time></trkpt><trkpt lat="38.01830664702052" lon="15.73773053167896"><ele>844.0</ele><time>2026-04-25T08:47:43.999Z</time></trkpt><trkpt lat="38.01829518355838" lon="15.737651516928908"><ele>844.6</ele><time>2026-04-25T08:47:44.999Z</time></trkpt><trkpt lat="38.01828443869487" lon="15.73756608974908"><ele>845.2</ele><time>2026-04-25T08:47:45.999Z</time></trkpt><trkpt lat="38.01826348769603" lon="15.737480633798823"><ele>845.8000000000001</ele><time>2026-04-25T08:47:46.999Z</time></trkpt><trkpt lat="38.01820183289074" lon="15.737353652032207"><ele>846.4000000000001</ele><time>2026-04-25T08:47:48.999Z</time></trkpt><trkpt lat="38.01812387528863" lon="15.737227977891829"><ele>847.0</ele><time>2026-04-25T08:47:50.999Z</time></trkpt><trkpt lat="38.018034280756666" lon="15.737099616354284"><ele>846.9999999999999</ele><time>2026-04-25T08:47:52.999Z</time></trkpt><trkpt lat="38.017986114486476" lon="15.737028371163339"><ele>847.0</ele><time>2026-04-25T08:47:53.999Z</time></trkpt><trkpt lat="38.017935223470246" lon="15.736953378979992"><ele>847.0</ele><time>2026-04-25T08:47:54.999Z</time></trkpt><trkpt lat="38.01788471699651" lon="15.736861909451024"><ele>847.0</ele><time>2026-04-25T08:47:55.999Z</time></trkpt><trkpt lat="38.01783624391099" lon="15.736765948545651"><ele>846.9999999999999</ele><time>2026-04-25T08:47:56.999Z</time></trkpt><trkpt lat="38.017785807936995" lon="15.736666008650872"><ele>847.0</ele><time>2026-04-25T08:47:57.999Z</time></trkpt><trkpt lat="38.017744996128826" lon="15.736556110788342"><ele>845.4000000000001</ele><time>2026-04-25T08:47:58.999Z</time></trkpt><trkpt lat="38.0176839393035" lon="15.73644606698003"><ele>843.8000000000001</ele><time>2026-04-25T08:47:59.999Z</time></trkpt><trkpt lat="38.01763063987126" lon="15.736333790460387"><ele>842.2</ele><time>2026-04-25T08:48:00.999Z</time></trkpt><trkpt lat="38.01758337942189" lon="15.736218255629604"><ele>840.6</ele><time>2026-04-25T08:48:01.999Z</time></trkpt><trkpt lat="38.01755204571626" lon="15.736099345587238"><ele>839.0</ele><time>2026-04-25T08:48:02.999Z</time></trkpt><trkpt lat="38.01752816466129" lon="15.735989358345108"><ele>838.0000000000001</ele><time>2026-04-25T08:48:03.999Z</time></trkpt><trkpt lat="38.01751191188092" lon="15.73588783265148"><ele>837.0</ele><time>2026-04-25T08:48:04.999Z</time></trkpt><trkpt lat="38.01750698881786" lon="15.735800143977698"><ele>836.0</ele><time>2026-04-25T08:48:05.999Z</time></trkpt><trkpt lat="38.017493996894096" lon="15.735717900190508"><ele>835.0</ele><time>2026-04-25T08:48:06.999Z</time></trkpt><trkpt lat="38.01746153656485" lon="15.735584646209015"><ele>834.0000000000001</ele><time>2026-04-25T08:48:08.999Z</time></trkpt><trkpt lat="38.017402418237324" lon="15.735539992015964"><ele>833.0</ele><time>2026-04-25T08:48:10.999Z</time></trkpt><trkpt lat="38.01734709036426" lon="15.73558949871733"><ele>833.0</ele><time>2026-04-25T08:48:12.999Z</time></trkpt><trkpt lat="38.01734911276866" lon="15.735710244441886"><ele>833.0</ele><time>2026-04-25T08:48:14.999Z</time></trkpt><trkpt lat="38.01736110555771" lon="15.735833917431554"><ele>833.0</ele><time>2026-04-25T08:48:16.999Z</time></trkpt><trkpt lat="38.01735677441304" lon="15.735971800764519"><ele>833.0</ele><time>2026-04-25T08:48:18.999Z</time></trkpt><trkpt lat="38.017354008118794" lon="15.736112108526088"><ele>833.0</ele><time>2026-04-25T08:48:20.999Z</time></trkpt><trkpt lat="38.017356108405544" lon="15.736192284925364"><ele>834.4285714285714</ele><time>2026-04-25T08:48:21.999Z</time></trkpt><trkpt lat="38.017358716633105" lon="15.736276244664635"><ele>835.8571428571429</ele><time>2026-04-25T08:48:22.999Z</time></trkpt><trkpt lat="38.017362266701014" lon="15.73636530199309"><ele>837.2857142857142</ele><time>2026-04-25T08:48:23.999Z</time></trkpt><trkpt lat="38.01736271418274" lon="15.736457839155042"><ele>838.7142857142858</ele><time>2026-04-25T08:48:24.999Z</time></trkpt><trkpt lat="38.01736419275732" lon="15.736553181654727"><ele>840.1428571428571</ele><time>2026-04-25T08:48:25.999Z</time></trkpt><trkpt lat="38.01736754798988" lon="15.736653031120548"><ele>841.5714285714286</ele><time>2026-04-25T08:48:26.999Z</time></trkpt><trkpt lat="38.01737062683509" lon="15.736752776282705"><ele>843.0</ele><time>2026-04-25T08:48:27.999Z</time></trkpt><trkpt lat="38.0173665078094" lon="15.736856738082633"><ele>844.0</ele><time>2026-04-25T08:48:28.999Z</time></trkpt><trkpt lat="38.01736008931706" lon="15.736970805807635"><ele>845.0</ele><time>2026-04-25T08:48:29.999Z</time></trkpt><trkpt lat="38.01735284045808" lon="15.737077803195445"><ele>846.0</ele><time>2026-04-25T08:48:30.999Z</time></trkpt><trkpt lat="38.01734224411681" lon="15.737191083506046"><ele>847.0</ele><time>2026-04-25T08:48:31.999Z</time></trkpt><trkpt lat="38.01732189744924" lon="15.737302563839698"><ele>848.0</ele><time>2026-04-25T08:48:32.999Z</time></trkpt><trkpt lat="38.01730045046257" lon="15.737412620407389"><ele>849.0</ele><time>2026-04-25T08:48:33.999Z</time></trkpt><trkpt lat="38.017281210906326" lon="15.73751604634001"><ele>849.0</ele><time>2026-04-25T08:48:34.999Z</time></trkpt><trkpt lat="38.01726300897622" lon="15.737634605615614"><ele>849.0</ele><time>2026-04-25T08:48:35.999Z</time></trkpt><trkpt lat="38.01724598495372" lon="15.73773589574053"><ele>849.0</ele><time>2026-04-25T08:48:36.999Z</time></trkpt><trkpt lat="38.01721807901093" lon="15.737851219015733"><ele>849.0</ele><time>2026-04-25T08:48:37.999Z</time></trkpt><trkpt lat="38.01719944181976" lon="15.737965445017535"><ele>849.0</ele><time>2026-04-25T08:48:38.999Z</time></trkpt><trkpt lat="38.017159620689554" lon="15.738064714017957"><ele>849.8000000000001</ele><time>2026-04-25T08:48:39.999Z</time></trkpt><trkpt lat="38.017113175556965" lon="15.73815182532117"><ele>850.6</ele><time>2026-04-25T08:48:40.999Z</time></trkpt><trkpt lat="38.01707241013202" lon="15.73824167978642"><ele>851.4</ele><time>2026-04-25T08:48:41.999Z</time></trkpt><trkpt lat="38.01702097738938" lon="15.738344327003254"><ele>852.2</ele><time>2026-04-25T08:48:42.999Z</time></trkpt><trkpt lat="38.016970424229065" lon="15.738450003088762"><ele>853.0</ele><time>2026-04-25T08:48:43.999Z</time></trkpt><trkpt lat="38.01691832197912" lon="15.738553297739866"><ele>853.5999999999999</ele><time>2026-04-25T08:48:44.999Z</time></trkpt><trkpt lat="38.01686383336287" lon="15.738656549549795"><ele>854.1999999999999</ele><time>2026-04-25T08:48:45.999Z</time></trkpt><trkpt lat="38.0168152598873" lon="15.738764701667554"><ele>854.8</ele><time>2026-04-25T08:48:46.999Z</time></trkpt><trkpt lat="38.01676432635576" lon="15.738872347833853"><ele>855.4</ele><time>2026-04-25T08:48:47.999Z</time></trkpt><trkpt lat="38.01672787088793" lon="15.738990389631605"><ele>856.0</ele><time>2026-04-25T08:48:48.999Z</time></trkpt><trkpt lat="38.016707119111466" lon="15.739104901042081"><ele>856.0</ele><time>2026-04-25T08:48:49.999Z</time></trkpt><trkpt lat="38.01668290519391" lon="15.739216531735616"><ele>855.9999999999999</ele><time>2026-04-25T08:48:50.999Z</time></trkpt><trkpt lat="38.016660360513384" lon="15.73933035234793"><ele>855.9999999999999</ele><time>2026-04-25T08:48:51.999Z</time></trkpt><trkpt lat="38.01663897459072" lon="15.739445534972713"><ele>856.0</ele><time>2026-04-25T08:48:52.999Z</time></trkpt><trkpt lat="38.0166019834786" lon="15.739562153136239"><ele>856.0</ele><time>2026-04-25T08:48:54Z</time></trkpt><trkpt lat="38.01657093429946" lon="15.739678213697719"><ele>855.75</ele><time>2026-04-25T08:48:55Z</time></trkpt><trkpt lat="38.01654780302727" lon="15.739818665688523"><ele>855.5</ele><time>2026-04-25T08:48:56Z</time></trkpt><trkpt lat="38.01651642069718" lon="15.73997649458933"><ele>855.25</ele><time>2026-04-25T08:48:57Z</time></trkpt><trkpt lat="38.01648129601095" lon="15.740132463129413"><ele>855.0</ele><time>2026-04-25T08:48:58Z</time></trkpt><trkpt lat="38.01644225789446" lon="15.740286988726488"><ele>855.0</ele><time>2026-04-25T08:48:59Z</time></trkpt><trkpt lat="38.01640270757884" lon="15.740444286832501"><ele>855.0</ele><time>2026-04-25T08:49:00Z</time></trkpt><trkpt lat="38.016379917714445" lon="15.740569574618863"><ele>855.0</ele><time>2026-04-25T08:49:01Z</time></trkpt><trkpt lat="38.01638150425512" lon="15.740708422774064"><ele>855.0</ele><time>2026-04-25T08:49:02Z</time></trkpt><trkpt lat="38.01639800754149" lon="15.740813879734093"><ele>855.0</ele><time>2026-04-25T08:49:03Z</time></trkpt><trkpt lat="38.01642468482371" lon="15.740919981836829"><ele>855.0</ele><time>2026-04-25T08:49:04Z</time></trkpt><trkpt lat="38.01642955372178" lon="15.741027701264178"><ele>855.0</ele><time>2026-04-25T08:49:05Z</time></trkpt><trkpt lat="38.01633159551537" lon="15.741218194040584"><ele>855.0</ele><time>2026-04-25T08:49:07Z</time></trkpt><trkpt lat="38.01627439819662" lon="15.741295016419633"><ele>855.0</ele><time>2026-04-25T08:49:08Z</time></trkpt><trkpt lat="38.01622585222911" lon="15.741357615153461"><ele>855.0</ele><time>2026-04-25T08:49:09Z</time></trkpt><trkpt lat="38.016170687772025" lon="15.741460792431322"><ele>855.0</ele><time>2026-04-25T08:49:11Z</time></trkpt><trkpt lat="38.016235064776204" lon="15.74138814580806"><ele>855.0</ele><time>2026-04-25T08:54:29.999Z</time></trkpt><trkpt lat="38.016290882472376" lon="15.741290887375026"><ele>855.0</ele><time>2026-04-25T08:54:31.999Z</time></trkpt><trkpt lat="38.016328860384526" lon="15.741219831679174"><ele>855.0</ele><time>2026-04-25T08:54:33.999Z</time></trkpt><trkpt lat="38.016377970596274" lon="15.741140092036858"><ele>855.0</ele><time>2026-04-25T08:55:18.999Z</time></trkpt><trkpt lat="38.01640819392312" lon="15.741030632832569"><ele>855.0</ele><time>2026-04-25T08:55:20.999Z</time></trkpt><trkpt lat="38.01641334645481" lon="15.74086638291377"><ele>855.0</ele><time>2026-04-25T08:55:22.999Z</time></trkpt><trkpt lat="38.01640562613149" lon="15.740769454402114"><ele>855.0</ele><time>2026-04-25T08:55:23.999Z</time></trkpt><trkpt lat="38.01639362035558" lon="15.740648881214552"><ele>855.0</ele><time>2026-04-25T08:55:24.999Z</time></trkpt><trkpt lat="38.016383219404645" lon="15.740543580547486"><ele>855.0</ele><time>2026-04-25T08:55:25.999Z</time></trkpt><trkpt lat="38.01639464549659" lon="15.740419302162389"><ele>855.0</ele><time>2026-04-25T08:55:26.999Z</time></trkpt><trkpt lat="38.01642482775564" lon="15.740294886450142"><ele>854.4</ele><time>2026-04-25T08:55:27.999Z</time></trkpt><trkpt lat="38.01645868432483" lon="15.74018491599018"><ele>853.8</ele><time>2026-04-25T08:55:28.999Z</time></trkpt><trkpt lat="38.016483855268326" lon="15.740067095090454"><ele>853.2</ele><time>2026-04-25T08:55:29.999Z</time></trkpt><trkpt lat="38.016508995797956" lon="15.739937623453876"><ele>852.6</ele><time>2026-04-25T08:55:30.999Z</time></trkpt><trkpt lat="38.01652951838806" lon="15.739822671423788"><ele>852.0</ele><time>2026-04-25T08:55:31.999Z</time></trkpt><trkpt lat="38.01654761422729" lon="15.739709425388654"><ele>852.0</ele><time>2026-04-25T08:55:32.999Z</time></trkpt><trkpt lat="38.01657624494125" lon="15.739600118393536"><ele>852.0</ele><time>2026-04-25T08:55:33.999Z</time></trkpt><trkpt lat="38.016597884697276" lon="15.73950403653884"><ele>852.0</ele><time>2026-04-25T08:55:34.999Z</time></trkpt><trkpt lat="38.0166225908296" lon="15.739404571518305"><ele>852.0</ele><time>2026-04-25T08:55:35.999Z</time></trkpt><trkpt lat="38.016646331449074" lon="15.739305240911513"><ele>852.0</ele><time>2026-04-25T08:55:36.999Z</time></trkpt><trkpt lat="38.01667065440433" lon="15.73920812972061"><ele>852.0</ele><time>2026-04-25T08:55:37.999Z</time></trkpt><trkpt lat="38.016693921134404" lon="15.739109007609823"><ele>852.6666666666666</ele><time>2026-04-25T08:55:38.999Z</time></trkpt><trkpt lat="38.016717103185435" lon="15.739012516339939"><ele>853.3333333333333</ele><time>2026-04-25T08:55:39.999Z</time></trkpt><trkpt lat="38.01674380863565" lon="15.738911189400055"><ele>854.0</ele><time>2026-04-25T08:55:40.999Z</time></trkpt><trkpt lat="38.01677365495924" lon="15.738821308974101"><ele>854.6666666666666</ele><time>2026-04-25T08:55:41.999Z</time></trkpt><trkpt lat="38.01681097092696" lon="15.738733511292981"><ele>855.3333333333333</ele><time>2026-04-25T08:55:42.999Z</time></trkpt><trkpt lat="38.01685619412287" lon="15.738640367915444"><ele>856.0</ele><time>2026-04-25T08:55:43.999Z</time></trkpt><trkpt lat="38.01689890601672" lon="15.738551644020104"><ele>855.4999999999999</ele><time>2026-04-25T08:55:44.999Z</time></trkpt><trkpt lat="38.01694969332288" lon="15.738465873719553"><ele>855.0</ele><time>2026-04-25T08:55:45.999Z</time></trkpt><trkpt lat="38.01700395786427" lon="15.73837756953398"><ele>854.5</ele><time>2026-04-25T08:55:46.999Z</time></trkpt><trkpt lat="38.01705015831149" lon="15.738289385339725"><ele>854.0</ele><time>2026-04-25T08:55:47.999Z</time></trkpt><trkpt lat="38.01708704795728" lon="15.738211260576923"><ele>853.4999999999999</ele><time>2026-04-25T08:55:48.999Z</time></trkpt><trkpt lat="38.01711917838397" lon="15.738133325184807"><ele>853.0</ele><time>2026-04-25T08:55:49.999Z</time></trkpt><trkpt lat="38.017172879444594" lon="15.73798945869278"><ele>853.0</ele><time>2026-04-25T08:55:51.999Z</time></trkpt><trkpt lat="38.01720609215574" lon="15.73790309388667"><ele>853.0</ele><time>2026-04-25T08:55:52.999Z</time></trkpt><trkpt lat="38.017227039614205" lon="15.737808908393449"><ele>853.0</ele><time>2026-04-25T08:55:53.999Z</time></trkpt><trkpt lat="38.01724133708505" lon="15.737727262883679"><ele>853.0</ele><time>2026-04-25T08:55:54.999Z</time></trkpt><trkpt lat="38.01725106987119" lon="15.73764505783664"><ele>853.0</ele><time>2026-04-25T08:55:55.999Z</time></trkpt><trkpt lat="38.017263125872276" lon="15.737566177885562"><ele>853.0</ele><time>2026-04-25T08:55:56.999Z</time></trkpt><trkpt lat="38.01727376727359" lon="15.73748682057435"><ele>853.0</ele><time>2026-04-25T08:55:57.999Z</time></trkpt><trkpt lat="38.01729281310391" lon="15.737400929296095"><ele>852.4285714285714</ele><time>2026-04-25T08:55:58.999Z</time></trkpt><trkpt lat="38.01730913841968" lon="15.737322706591542"><ele>851.8571428571429</ele><time>2026-04-25T08:55:59.999Z</time></trkpt><trkpt lat="38.01732536754778" lon="15.7372415672546"><ele>851.2857142857143</ele><time>2026-04-25T08:56:00.999Z</time></trkpt><trkpt lat="38.01733556724872" lon="15.737154356626707"><ele>850.7142857142858</ele><time>2026-04-25T08:56:01.999Z</time></trkpt><trkpt lat="38.017346707108786" lon="15.737070571869246"><ele>850.1428571428571</ele><time>2026-04-25T08:56:02.999Z</time></trkpt><trkpt lat="38.017349811865074" lon="15.736982283556136"><ele>849.5714285714287</ele><time>2026-04-25T08:56:03.999Z</time></trkpt><trkpt lat="38.017355210154136" lon="15.736886600949415"><ele>849.0</ele><time>2026-04-25T08:56:04.999Z</time></trkpt><trkpt lat="38.0173548596027" lon="15.73678166813265"><ele>848.0</ele><time>2026-04-25T08:56:05.999Z</time></trkpt><trkpt lat="38.01734790589941" lon="15.73667445352551"><ele>847.0</ele><time>2026-04-25T08:56:06.999Z</time></trkpt><trkpt lat="38.01734780487255" lon="15.736572246598097"><ele>846.0</ele><time>2026-04-25T08:56:07.999Z</time></trkpt><trkpt lat="38.0173454965193" lon="15.736471797310896"><ele>845.0</ele><time>2026-04-25T08:56:08.999Z</time></trkpt><trkpt lat="38.01734923876502" lon="15.736375921753995"><ele>844.0</ele><time>2026-04-25T08:56:09.999Z</time></trkpt><trkpt lat="38.017344629848445" lon="15.736281908429529"><ele>843.0</ele><time>2026-04-25T08:56:10.999Z</time></trkpt><trkpt lat="38.017342333858466" lon="15.736169500033883"><ele>843.0</ele><time>2026-04-25T08:56:11.999Z</time></trkpt><trkpt lat="38.017343413452295" lon="15.7360620983344"><ele>843.0</ele><time>2026-04-25T08:56:12.999Z</time></trkpt><trkpt lat="38.01734003930245" lon="15.735956849047477"><ele>843.0</ele><time>2026-04-25T08:56:13.999Z</time></trkpt><trkpt lat="38.01733810368508" lon="15.735854770835823"><ele>843.0</ele><time>2026-04-25T08:56:14.999Z</time></trkpt><trkpt lat="38.017341288351275" lon="15.735767083688991"><ele>843.0</ele><time>2026-04-25T08:56:15.999Z</time></trkpt><trkpt lat="38.01734271525001" lon="15.735685177387326"><ele>843.0</ele><time>2026-04-25T08:56:16.999Z</time></trkpt><trkpt lat="38.01735566031231" lon="15.73555572781928"><ele>841.3333333333334</ele><time>2026-04-25T08:56:18.999Z</time></trkpt><trkpt lat="38.017423019672194" lon="15.735527177799812"><ele>839.6666666666667</ele><time>2026-04-25T08:56:20.999Z</time></trkpt><trkpt lat="38.017477991189175" lon="15.73559979840062"><ele>838.0</ele><time>2026-04-25T08:56:22.999Z</time></trkpt><trkpt lat="38.01748862510096" lon="15.735682268021762"><ele>836.3333333333334</ele><time>2026-04-25T08:56:23.999Z</time></trkpt><trkpt lat="38.017500464410425" lon="15.735790225838988"><ele>834.6666666666667</ele><time>2026-04-25T08:56:24.999Z</time></trkpt><trkpt lat="38.017521680977495" lon="15.735909282232134"><ele>833.0</ele><time>2026-04-25T08:56:25.999Z</time></trkpt><trkpt lat="38.0175487056825" lon="15.736011773829295"><ele>834.0000000000001</ele><time>2026-04-25T08:56:26.999Z</time></trkpt><trkpt lat="38.01756918634039" lon="15.73611445404024"><ele>835.0</ele><time>2026-04-25T08:56:27.999Z</time></trkpt><trkpt lat="38.01758911009642" lon="15.736224590428765"><ele>836.0</ele><time>2026-04-25T08:56:28.999Z</time></trkpt><trkpt lat="38.017613496765314" lon="15.73632567732421"><ele>837.0</ele><time>2026-04-25T08:56:29.999Z</time></trkpt><trkpt lat="38.017652374813814" lon="15.736404354613516"><ele>838.0000000000001</ele><time>2026-04-25T08:56:30.999Z</time></trkpt><trkpt lat="38.017697093023294" lon="15.736488145724712"><ele>839.0</ele><time>2026-04-25T08:56:31.999Z</time></trkpt><trkpt lat="38.01774435451384" lon="15.736576537029723"><ele>839.0000000000001</ele><time>2026-04-25T08:56:32.999Z</time></trkpt><trkpt lat="38.01779832913345" lon="15.7366679866179"><ele>839.0</ele><time>2026-04-25T08:56:33.999Z</time></trkpt><trkpt lat="38.01784471361379" lon="15.736754170625696"><ele>839.0</ele><time>2026-04-25T08:56:34.999Z</time></trkpt><trkpt lat="38.017881256567875" lon="15.736820275218037"><ele>839.0</ele><time>2026-04-25T08:56:35.999Z</time></trkpt><trkpt lat="38.017921718041485" lon="15.736898118732014"><ele>839.0000000000001</ele><time>2026-04-25T08:56:36.999Z</time></trkpt><trkpt lat="38.017968499713966" lon="15.73697219452903"><ele>839.0</ele><time>2026-04-25T08:56:37.999Z</time></trkpt><trkpt lat="38.0180243915209" lon="15.737053353479327"><ele>840.3333333333334</ele><time>2026-04-25T08:56:38.999Z</time></trkpt><trkpt lat="38.0180803535003" lon="15.737136768758592"><ele>841.6666666666667</ele><time>2026-04-25T08:56:39.999Z</time></trkpt><trkpt lat="38.018134918301016" lon="15.737211997841817"><ele>843.0</ele><time>2026-04-25T08:56:40.999Z</time></trkpt><trkpt lat="38.01818968535014" lon="15.73729777023751"><ele>844.3333333333333</ele><time>2026-04-25T08:56:41.999Z</time></trkpt><trkpt lat="38.018233228199165" lon="15.73738911338911"><ele>845.6666666666666</ele><time>2026-04-25T08:56:42.999Z</time></trkpt><trkpt lat="38.01827754836934" lon="15.737480621196614"><ele>847.0</ele><time>2026-04-25T08:56:43.999Z</time></trkpt><trkpt lat="38.01831329599115" lon="15.737574981182357"><ele>844.8</ele><time>2026-04-25T08:56:44.999Z</time></trkpt><trkpt lat="38.018332544871505" lon="15.737684195302947"><ele>842.6</ele><time>2026-04-25T08:56:45.999Z</time></trkpt><trkpt lat="38.0183488513585" lon="15.73779892397619"><ele>840.4</ele><time>2026-04-25T08:56:46.999Z</time></trkpt><trkpt lat="38.01835465970188" lon="15.737924038707963"><ele>838.1999999999999</ele><time>2026-04-25T08:56:47.999Z</time></trkpt><trkpt lat="38.01834820965927" lon="15.738044785444924"><ele>836.0</ele><time>2026-04-25T08:56:48.999Z</time></trkpt><trkpt lat="38.0183256468523" lon="15.7381482784073"><ele>836.7142857142857</ele><time>2026-04-25T08:56:49.999Z</time></trkpt><trkpt lat="38.01828458860629" lon="15.738230274531459"><ele>837.4285714285713</ele><time>2026-04-25T08:56:50.999Z</time></trkpt><trkpt lat="38.018227392179" lon="15.738288224813738"><ele>838.1428571428571</ele><time>2026-04-25T08:56:51.999Z</time></trkpt><trkpt lat="38.018173984510604" lon="15.738334003802674"><ele>838.8571428571429</ele><time>2026-04-25T08:56:52.999Z</time></trkpt><trkpt lat="38.01811295754597" lon="15.738426313389889"><ele>839.5714285714286</ele><time>2026-04-25T08:56:55Z</time></trkpt><trkpt lat="38.01810410663527" lon="15.738507406304068"><ele>840.2857142857143</ele><time>2026-04-25T08:56:57Z</time></trkpt><trkpt lat="38.018057890880044" lon="15.738581920774413"><ele>841.0</ele><time>2026-04-25T09:01:01Z</time></trkpt><trkpt lat="38.01805678390338" lon="15.738501065978122"><ele>841.4999999999999</ele><time>2026-04-25T09:01:05Z</time></trkpt><trkpt lat="38.018116144965184" lon="15.738408450959643"><ele>842.0</ele><time>2026-04-25T09:01:07Z</time></trkpt><trkpt lat="38.01819603117689" lon="15.738314100383619"><ele>842.5</ele><time>2026-04-25T09:01:09Z</time></trkpt><trkpt lat="38.018258785403056" lon="15.738231660478851"><ele>843.0</ele><time>2026-04-25T09:01:10Z</time></trkpt><trkpt lat="38.0183115422961" lon="15.738150400957593"><ele>843.4999999999999</ele><time>2026-04-25T09:01:11Z</time></trkpt><trkpt lat="38.01833697715041" lon="15.738070565330652"><ele>844.0</ele><time>2026-04-25T09:01:12Z</time></trkpt><trkpt lat="38.01834541203405" lon="15.737981158211525"><ele>844.4999999999999</ele><time>2026-04-25T09:01:13Z</time></trkpt><trkpt lat="38.018335051297655" lon="15.737875839555569"><ele>845.0</ele><time>2026-04-25T09:01:14Z</time></trkpt><trkpt lat="38.01832128439907" lon="15.737774344923407"><ele>845.5</ele><time>2026-04-25T09:01:15Z</time></trkpt><trkpt lat="38.01831432386307" lon="15.737675403768646"><ele>846.0</ele><time>2026-04-25T09:01:16Z</time></trkpt><trkpt lat="38.01829944124595" lon="15.73757466970024"><ele>846.4999999999999</ele><time>2026-04-25T09:01:17Z</time></trkpt><trkpt lat="38.01826814345463" lon="15.737485145375075"><ele>847.0</ele><time>2026-04-25T09:01:18Z</time></trkpt><trkpt lat="38.01822845129157" lon="15.737397847848111"><ele>847.0</ele><time>2026-04-25T09:01:19Z</time></trkpt><trkpt lat="38.01816834942876" lon="15.737306441590441"><ele>847.0</ele><time>2026-04-25T09:01:20Z</time></trkpt><trkpt lat="38.0181085798467" lon="15.737210610068882"><ele>847.0</ele><time>2026-04-25T09:01:21Z</time></trkpt><trkpt lat="38.018052766984965" lon="15.737106608790441"><ele>847.0</ele><time>2026-04-25T09:01:22Z</time></trkpt><trkpt lat="38.017982139190316" lon="15.737014035715053"><ele>847.0</ele><time>2026-04-25T09:01:23Z</time></trkpt><trkpt lat="38.01791785913623" lon="15.736913716347154"><ele>845.4000000000001</ele><time>2026-04-25T09:01:24Z</time></trkpt><trkpt lat="38.01785877695234" lon="15.736803246513508"><ele>843.8000000000001</ele><time>2026-04-25T09:01:25Z</time></trkpt><trkpt lat="38.017820103770894" lon="15.736708756025992"><ele>842.2</ele><time>2026-04-25T09:01:26Z</time></trkpt><trkpt lat="38.01777179597154" lon="15.736615979150994"><ele>840.6</ele><time>2026-04-25T09:01:27Z</time></trkpt><trkpt lat="38.01772083894662" lon="15.736508977079962"><ele>839.0</ele><time>2026-04-25T09:01:28Z</time></trkpt><trkpt lat="38.01766104389347" lon="15.736402988815193"><ele>839.0</ele><time>2026-04-25T09:01:29Z</time></trkpt><trkpt lat="38.0176102078029" lon="15.736294654804986"><ele>839.0</ele><time>2026-04-25T09:01:30.001Z</time></trkpt><trkpt lat="38.01756949729433" lon="15.73617465439995"><ele>839.0</ele><time>2026-04-25T09:01:31.001Z</time></trkpt><trkpt lat="38.01754402544918" lon="15.736041444752432"><ele>839.0</ele><time>2026-04-25T09:01:32.001Z</time></trkpt><trkpt lat="38.017534438218924" lon="15.73589650169025"><ele>839.0</ele><time>2026-04-25T09:01:33.001Z</time></trkpt><trkpt lat="38.01752843423663" lon="15.735771390547077"><ele>838.0000000000001</ele><time>2026-04-25T09:01:34.001Z</time></trkpt><trkpt lat="38.01750922858948" lon="15.735667975950859"><ele>837.0</ele><time>2026-04-25T09:01:35.001Z</time></trkpt><trkpt lat="38.01748506696412" lon="15.7355825456197"><ele>836.0</ele><time>2026-04-25T09:01:36.001Z</time></trkpt><trkpt lat="38.01742550724385" lon="15.73550300992285"><ele>835.0</ele><time>2026-04-25T09:01:38.001Z</time></trkpt><trkpt lat="38.01736175641782" lon="15.73554366491601"><ele>834.0000000000001</ele><time>2026-04-25T09:01:40.001Z</time></trkpt><trkpt lat="38.01736015729549" lon="15.735666832873026"><ele>833.0</ele><time>2026-04-25T09:01:42.001Z</time></trkpt><trkpt lat="38.01737032037756" lon="15.735818358062495"><ele>833.0</ele><time>2026-04-25T09:01:44.001Z</time></trkpt><trkpt lat="38.01737366078457" lon="15.735974699318312"><ele>833.0</ele><time>2026-04-25T09:01:46.001Z</time></trkpt><trkpt lat="38.01737084704159" lon="15.736062630749318"><ele>833.0</ele><time>2026-04-25T09:01:47.001Z</time></trkpt><trkpt lat="38.01736425980933" lon="15.736153920760337"><ele>833.0</ele><time>2026-04-25T09:01:48.001Z</time></trkpt><trkpt lat="38.01735706128474" lon="15.736270691288647"><ele>833.0</ele><time>2026-04-25T09:01:49.001Z</time></trkpt><trkpt lat="38.01736871365033" lon="15.7364630684558"><ele>835.0</ele><time>2026-04-25T09:01:50.001Z</time></trkpt><trkpt lat="38.01736871590876" lon="15.736616670186843"><ele>837.0</ele><time>2026-04-25T09:01:51.001Z</time></trkpt><trkpt lat="38.0173764117133" lon="15.736752660267262"><ele>839.0</ele><time>2026-04-25T09:01:52Z</time></trkpt><trkpt lat="38.01737352766956" lon="15.736884731971648"><ele>841.0</ele><time>2026-04-25T09:01:53Z</time></trkpt><trkpt lat="38.01736112566122" lon="15.737025562137378"><ele>843.0</ele><time>2026-04-25T09:01:54Z</time></trkpt><trkpt lat="38.01734679039415" lon="15.737172039593261"><ele>844.5</ele><time>2026-04-25T09:01:55Z</time></trkpt><trkpt lat="38.017332391008466" lon="15.737313765174237"><ele>846.0</ele><time>2026-04-25T09:01:56Z</time></trkpt><trkpt lat="38.01730119334568" lon="15.737455760154338"><ele>847.5</ele><time>2026-04-25T09:01:57Z</time></trkpt><trkpt lat="38.01726697934499" lon="15.737593812126867"><ele>849.0</ele><time>2026-04-25T09:01:58Z</time></trkpt><trkpt lat="38.017244968619586" lon="15.737730920941937"><ele>849.8000000000001</ele><time>2026-04-25T09:01:59Z</time></trkpt><trkpt lat="38.01722964838913" lon="15.737855453416964"><ele>850.6</ele><time>2026-04-25T09:02:00Z</time></trkpt><trkpt lat="38.017195033026354" lon="15.737971987136186"><ele>851.4</ele><time>2026-04-25T09:02:01Z</time></trkpt><trkpt lat="38.01715199141394" lon="15.738079263900262"><ele>852.2</ele><time>2026-04-25T09:02:02Z</time></trkpt><trkpt lat="38.01710271107328" lon="15.73819432331342"><ele>853.0</ele><time>2026-04-25T09:02:03Z</time></trkpt><trkpt lat="38.0170302542047" lon="15.738323598964596"><ele>853.0</ele><time>2026-04-25T09:02:04Z</time></trkpt><trkpt lat="38.016977147570245" lon="15.738440102776202"><ele>853.0</ele><time>2026-04-25T09:02:05Z</time></trkpt><trkpt lat="38.01691926582687" lon="15.738559394307686"><ele>853.0</ele><time>2026-04-25T09:02:06Z</time></trkpt><trkpt lat="38.01685654457032" lon="15.738680167920911"><ele>853.0</ele><time>2026-04-25T09:02:07Z</time></trkpt><trkpt lat="38.01679595449658" lon="15.73880713493514"><ele>853.0</ele><time>2026-04-25T09:02:08Z</time></trkpt><trkpt lat="38.016749806102766" lon="15.738940992854282"><ele>852.75</ele><time>2026-04-25T09:02:09Z</time></trkpt><trkpt lat="38.016711240329215" lon="15.739085928628134"><ele>852.5</ele><time>2026-04-25T09:02:10Z</time></trkpt><trkpt lat="38.01667820477927" lon="15.739238036373488"><ele>852.25</ele><time>2026-04-25T09:02:11Z</time></trkpt><trkpt lat="38.016650924774765" lon="15.73939649314225"><ele>852.0</ele><time>2026-04-25T09:02:12Z</time></trkpt><trkpt lat="38.01662219066877" lon="15.739557979686953"><ele>852.0</ele><time>2026-04-25T09:02:13Z</time></trkpt><trkpt lat="38.016584460635904" lon="15.739720708049616"><ele>852.0</ele><time>2026-04-25T09:02:14Z</time></trkpt><trkpt lat="38.01654387189246" lon="15.739881787170164"><ele>852.0</ele><time>2026-04-25T09:02:15Z</time></trkpt><trkpt lat="38.01651680176653" lon="15.74005914813619"><ele>852.0</ele><time>2026-04-25T09:02:16Z</time></trkpt><trkpt lat="38.01646501554165" lon="15.740206512035813"><ele>852.75</ele><time>2026-04-25T09:02:17Z</time></trkpt><trkpt lat="38.01642937925377" lon="15.740361158612519"><ele>853.5</ele><time>2026-04-25T09:02:18Z</time></trkpt><trkpt lat="38.01640173140264" lon="15.740506558230873"><ele>854.25</ele><time>2026-04-25T09:02:19Z</time></trkpt><trkpt lat="38.01640409052551" lon="15.7406664323934"><ele>855.0</ele><time>2026-04-25T09:02:20Z</time></trkpt><trkpt lat="38.016415426495286" lon="15.740804914620691"><ele>855.0</ele><time>2026-04-25T09:02:21Z</time></trkpt><trkpt lat="38.01643836992828" lon="15.740936192491459"><ele>855.0</ele><time>2026-04-25T09:02:22Z</time></trkpt><trkpt lat="38.01642899896373" lon="15.741071214302577"><ele>855.0</ele><time>2026-04-25T09:02:23Z</time></trkpt><trkpt lat="38.016274344251634" lon="15.7413187686465"><ele>857.75</ele><time>2026-04-25T09:02:25Z</time></trkpt><trkpt lat="38.016168972254306" lon="15.741478699567148"><ele>860.5</ele><time>2026-04-25T09:02:26Z</time></trkpt><trkpt lat="38.01607592228518" lon="15.741603851018157"><ele>863.25</ele><time>2026-04-25T09:02:27Z</time></trkpt><trkpt lat="38.016008614110156" lon="15.741707336894683"><ele>866.0</ele><time>2026-04-25T09:02:27.999Z</time></trkpt><trkpt lat="38.015946603113704" lon="15.741807439140583"><ele>865.3333333333334</ele><time>2026-04-25T09:02:28.999Z</time></trkpt><trkpt lat="38.01590687999388" lon="15.741897240773257"><ele>864.6666666666667</ele><time>2026-04-25T09:02:29.999Z</time></trkpt><trkpt lat="38.01586560895018" lon="15.741987517199794"><ele>864.0</ele><time>2026-04-25T09:02:30.999Z</time></trkpt><trkpt lat="38.015821145847745" lon="15.742065555386551"><ele>863.3333333333333</ele><time>2026-04-25T09:02:31.999Z</time></trkpt><trkpt lat="38.01575509064191" lon="15.742161749734091"><ele>862.6666666666666</ele><time>2026-04-25T09:02:33.999Z</time></trkpt><trkpt lat="38.01568374650357" lon="15.742258650642077"><ele>862.0</ele><time>2026-04-25T09:02:35.999Z</time></trkpt><trkpt lat="38.01562118850485" lon="15.742352088644601"><ele>861.8</ele><time>2026-04-25T09:02:37.999Z</time></trkpt><trkpt lat="38.015539625805985" lon="15.742480691627115"><ele>861.6</ele><time>2026-04-25T09:02:39.999Z</time></trkpt><trkpt lat="38.01549209285048" lon="15.742580492998655"><ele>861.3999999999999</ele><time>2026-04-25T09:02:40.999Z</time></trkpt><trkpt lat="38.015441626512526" lon="15.742704802373499"><ele>861.1999999999999</ele><time>2026-04-25T09:02:41.999Z</time></trkpt><trkpt lat="38.01538240052968" lon="15.742825875435791"><ele>861.0</ele><time>2026-04-25T09:02:42.999Z</time></trkpt><trkpt lat="38.01530008845943" lon="15.742938417746917"><ele>861.0</ele><time>2026-04-25T09:02:43.999Z</time></trkpt><trkpt lat="38.015180919563335" lon="15.743051363949101"><ele>861.0</ele><time>2026-04-25T09:02:44.999Z</time></trkpt><trkpt lat="38.01504341521772" lon="15.743178626743633"><ele>861.0</ele><time>2026-04-25T09:02:45.999Z</time></trkpt><trkpt lat="38.0149237458068" lon="15.743296176086332"><ele>860.75</ele><time>2026-04-25T09:02:46.999Z</time></trkpt><trkpt lat="38.014812429968885" lon="15.743408731672238"><ele>860.5</ele><time>2026-04-25T09:02:47.999Z</time></trkpt><trkpt lat="38.01471529602836" lon="15.743507752380582"><ele>860.25</ele><time>2026-04-25T09:02:48.999Z</time></trkpt><trkpt lat="38.014628694775084" lon="15.743603220932538"><ele>860.0</ele><time>2026-04-25T09:02:49.999Z</time></trkpt><trkpt lat="38.014550822417085" lon="15.743731093827268"><ele>860.0</ele><time>2026-04-25T09:02:50.999Z</time></trkpt><trkpt lat="38.014480046350755" lon="15.743862670425703"><ele>860.0</ele><time>2026-04-25T09:02:51.999Z</time></trkpt><trkpt lat="38.01442206662334" lon="15.743994822989341"><ele>860.0</ele><time>2026-04-25T09:02:52.999Z</time></trkpt><trkpt lat="38.01437195255669" lon="15.744106721740904"><ele>860.0</ele><time>2026-04-25T09:02:53.999Z</time></trkpt><trkpt lat="38.01432973696079" lon="15.744200935659693"><ele>860.0</ele><time>2026-04-25T09:02:54.999Z</time></trkpt><trkpt lat="38.014320834881325" lon="15.744351468440541"><ele>859.8333333333334</ele><time>2026-04-25T09:02:56.999Z</time></trkpt><trkpt lat="38.01434803685925" lon="15.74443216831446"><ele>859.6666666666667</ele><time>2026-04-25T09:02:57.999Z</time></trkpt><trkpt lat="38.01439260548474" lon="15.744498408989442"><ele>859.5</ele><time>2026-04-25T09:02:58.999Z</time></trkpt><trkpt lat="38.0144428592115" lon="15.744574772653877"><ele>859.3333333333333</ele><time>2026-04-25T09:02:59.999Z</time></trkpt><trkpt lat="38.014496831226495" lon="15.744701860639523"><ele>859.1666666666666</ele><time>2026-04-25T09:03:01.999Z</time></trkpt><trkpt lat="38.0145860049516" lon="15.744762885170177"><ele>859.0</ele><time>2026-04-25T09:03:03.999Z</time></trkpt><trkpt lat="38.014679136248326" lon="15.74486350357318"><ele>859.0</ele><time>2026-04-25T09:03:05.999Z</time></trkpt><trkpt lat="38.01471411959507" lon="15.74496853393142"><ele>859.0000000000001</ele><time>2026-04-25T09:03:07.999Z</time></trkpt><trkpt lat="38.014754636500314" lon="15.74510414214309"><ele>859.0000000000001</ele><time>2026-04-25T09:03:09.999Z</time></trkpt><trkpt lat="38.014880537031424" lon="15.745167143607606"><ele>859.0</ele><time>2026-04-25T09:03:11.999Z</time></trkpt><trkpt lat="38.014965782524655" lon="15.74518049949783"><ele>859.0</ele><time>2026-04-25T09:03:12.999Z</time></trkpt><trkpt lat="38.01503302976973" lon="15.745275346907748"><ele>857.4000000000001</ele><time>2026-04-25T09:03:14.999Z</time></trkpt><trkpt lat="38.01502842497183" lon="15.745357653577349"><ele>855.8000000000001</ele><time>2026-04-25T09:03:15.999Z</time></trkpt><trkpt lat="38.014951923617076" lon="15.745448419614847"><ele>854.2</ele><time>2026-04-25T09:03:17.999Z</time></trkpt><trkpt lat="38.01481533480467" lon="15.745395064745074"><ele>852.5999999999999</ele><time>2026-04-25T09:03:19.999Z</time></trkpt><trkpt lat="38.01471007970202" lon="15.745362471985871"><ele>851.0</ele><time>2026-04-25T09:03:20.999Z</time></trkpt><trkpt lat="38.01460406878768" lon="15.74534958685763"><ele>851.0</ele><time>2026-04-25T09:03:21.999Z</time></trkpt><trkpt lat="38.01453804440295" lon="15.745408580101284"><ele>851.0</ele><time>2026-04-25T09:03:23.999Z</time></trkpt><trkpt lat="38.014507626312636" lon="15.745492942795613"><ele>851.0</ele><time>2026-04-25T09:03:24.999Z</time></trkpt><trkpt lat="38.01447865388222" lon="15.745612400694615"><ele>851.0</ele><time>2026-04-25T09:03:25.999Z</time></trkpt><trkpt lat="38.0144485604508" lon="15.74576722644672"><ele>851.0</ele><time>2026-04-25T09:03:26.999Z</time></trkpt><trkpt lat="38.0144231291477" lon="15.745934115235015"><ele>851.0</ele><time>2026-04-25T09:03:27.999Z</time></trkpt><trkpt lat="38.01441327955822" lon="15.746035061573382"><ele>851.0</ele><time>2026-04-25T09:03:28.999Z</time></trkpt><trkpt lat="38.01440378285151" lon="15.746160974579459"><ele>851.0</ele><time>2026-04-25T09:03:29.999Z</time></trkpt><trkpt lat="38.01437564491574" lon="15.746280386252135"><ele>851.0</ele><time>2026-04-25T09:03:30.999Z</time></trkpt><trkpt lat="38.014340914414255" lon="15.74639448115338"><ele>851.0</ele><time>2026-04-25T09:03:31.999Z</time></trkpt><trkpt lat="38.01431689439981" lon="15.746508314454243"><ele>847.5999999999999</ele><time>2026-04-25T09:03:32.999Z</time></trkpt><trkpt lat="38.01430305521291" lon="15.746633503088452"><ele>844.2</ele><time>2026-04-25T09:03:33.999Z</time></trkpt><trkpt lat="38.014274123919016" lon="15.74677880897264"><ele>840.8</ele><time>2026-04-25T09:03:34.999Z</time></trkpt><trkpt lat="38.01424641179861" lon="15.746911099006383"><ele>837.4000000000001</ele><time>2026-04-25T09:03:36Z</time></trkpt><trkpt lat="38.01421336441111" lon="15.747026668862977"><ele>834.0</ele><time>2026-04-25T09:03:37Z</time></trkpt><trkpt lat="38.01417449710296" lon="15.747135635837658"><ele>829.3333333333334</ele><time>2026-04-25T09:03:38Z</time></trkpt><trkpt lat="38.014138481547164" lon="15.747228859401156"><ele>824.6666666666667</ele><time>2026-04-25T09:03:39Z</time></trkpt><trkpt lat="38.01408192723806" lon="15.74730197828072"><ele>820.0</ele><time>2026-04-25T09:03:40Z</time></trkpt><trkpt lat="38.014008755186985" lon="15.747353771837247"><ele>815.3333333333334</ele><time>2026-04-25T09:03:41Z</time></trkpt><trkpt lat="38.01392012051843" lon="15.747377622850841"><ele>810.6666666666667</ele><time>2026-04-25T09:03:42Z</time></trkpt><trkpt lat="38.01381410221707" lon="15.74738728158529"><ele>806.0</ele><time>2026-04-25T09:03:43Z</time></trkpt><trkpt lat="38.01369692520155" lon="15.74738372800287"><ele>806.0</ele><time>2026-04-25T09:03:44Z</time></trkpt><trkpt lat="38.01357593341754" lon="15.74734462406054"><ele>806.0</ele><time>2026-04-25T09:03:45Z</time></trkpt><trkpt lat="38.013479717311625" lon="15.74731398942314"><ele>806.0</ele><time>2026-04-25T09:03:46Z</time></trkpt><trkpt lat="38.01340242352998" lon="15.74727278452771"><ele>806.0</ele><time>2026-04-25T09:03:47Z</time></trkpt><trkpt lat="38.01333267701446" lon="15.747213755628037"><ele>806.0</ele><time>2026-04-25T09:03:48Z</time></trkpt><trkpt lat="38.013271565775376" lon="15.747129691271622"><ele>803.0</ele><time>2026-04-25T09:03:49Z</time></trkpt><trkpt lat="38.01321325395945" lon="15.747010949609091"><ele>800.0</ele><time>2026-04-25T09:03:50Z</time></trkpt><trkpt lat="38.013162836846746" lon="15.74689281937973"><ele>797.0</ele><time>2026-04-25T09:03:51Z</time></trkpt><trkpt lat="38.01310988963495" lon="15.746799455247032"><ele>794.0</ele><time>2026-04-25T09:03:52Z</time></trkpt><trkpt lat="38.01305384843084" lon="15.746741443163904"><ele>791.0</ele><time>2026-04-25T09:03:53Z</time></trkpt><trkpt lat="38.01298134081064" lon="15.746704926142357"><ele>791.0000000000001</ele><time>2026-04-25T09:03:54Z</time></trkpt><trkpt lat="38.0129131872403" lon="15.746692541431102"><ele>791.0</ele><time>2026-04-25T09:03:55Z</time></trkpt><trkpt lat="38.0128461981669" lon="15.746669463206795"><ele>791.0</ele><time>2026-04-25T09:03:56Z</time></trkpt><trkpt lat="38.01279531633067" lon="15.746607177118868"><ele>791.0</ele><time>2026-04-25T09:03:57Z</time></trkpt><trkpt lat="38.01275555220816" lon="15.746518402212834"><ele>791.0000000000001</ele><time>2026-04-25T09:03:58Z</time></trkpt><trkpt lat="38.012733959405125" lon="15.746397603706637"><ele>791.0</ele><time>2026-04-25T09:03:59Z</time></trkpt><trkpt lat="38.0127124900177" lon="15.746264241288696"><ele>791.0000000000001</ele><time>2026-04-25T09:04:00Z</time></trkpt><trkpt lat="38.01267992624306" lon="15.74615022922342"><ele>791.0</ele><time>2026-04-25T09:04:01Z</time></trkpt><trkpt lat="38.01264367532174" lon="15.746053814486357"><ele>791.0</ele><time>2026-04-25T09:04:02Z</time></trkpt><trkpt lat="38.01260029953764" lon="15.74595741979211"><ele>791.0</ele><time>2026-04-25T09:04:03Z</time></trkpt><trkpt lat="38.01255548746253" lon="15.745863163434562"><ele>791.0000000000001</ele><time>2026-04-25T09:04:04Z</time></trkpt><trkpt lat="38.01250390144087" lon="15.745789338598884"><ele>791.0</ele><time>2026-04-25T09:04:05Z</time></trkpt><trkpt lat="38.01246734015948" lon="15.745720830611424"><ele>789.1666666666667</ele><time>2026-04-25T09:04:06Z</time></trkpt><trkpt lat="38.01243702983578" lon="15.7455976614853"><ele>787.3333333333334</ele><time>2026-04-25T09:04:08Z</time></trkpt><trkpt lat="38.012380998166556" lon="15.745547434285404"><ele>785.5</ele><time>2026-04-25T09:04:09Z</time></trkpt><trkpt lat="38.01229838070392" lon="15.74550953182333"><ele>783.6666666666667</ele><time>2026-04-25T09:04:10Z</time></trkpt><trkpt lat="38.01221119293294" lon="15.745465850341844"><ele>781.8333333333334</ele><time>2026-04-25T09:04:11Z</time></trkpt><trkpt lat="38.01214124796971" lon="15.745413192698013"><ele>780.0</ele><time>2026-04-25T09:04:12Z</time></trkpt><trkpt lat="38.01207069530373" lon="15.745375317736078"><ele>780.0</ele><time>2026-04-25T09:04:13Z</time></trkpt><trkpt lat="38.01198658815992" lon="15.745351601886483"><ele>780.0</ele><time>2026-04-25T09:04:14Z</time></trkpt><trkpt lat="38.01191014409487" lon="15.745333583001512"><ele>780.0</ele><time>2026-04-25T09:04:15Z</time></trkpt><trkpt lat="38.01183311569026" lon="15.745319155845756"><ele>780.0</ele><time>2026-04-25T09:04:16Z</time></trkpt><trkpt lat="38.01172926613829" lon="15.745311968125362"><ele>780.0</ele><time>2026-04-25T09:04:17Z</time></trkpt><trkpt lat="38.01164466294292" lon="15.745318548227278"><ele>780.0</ele><time>2026-04-25T09:04:18Z</time></trkpt><trkpt lat="38.011557040629384" lon="15.745295588122307"><ele>779.0</ele><time>2026-04-25T09:04:19Z</time></trkpt><trkpt lat="38.011474441552316" lon="15.745267574905776"><ele>778.0</ele><time>2026-04-25T09:04:20Z</time></trkpt><trkpt lat="38.01140683611888" lon="15.745256696546566"><ele>777.0</ele><time>2026-04-25T09:04:21Z</time></trkpt><trkpt lat="38.011331188245464" lon="15.74527148751199"><ele>776.0</ele><time>2026-04-25T09:04:22Z</time></trkpt><trkpt lat="38.01123964202422" lon="15.745313824023947"><ele>775.0</ele><time>2026-04-25T09:04:23Z</time></trkpt><trkpt lat="38.01115017454295" lon="15.745353270112044"><ele>774.0</ele><time>2026-04-25T09:04:24Z</time></trkpt><trkpt lat="38.01107421866991" lon="15.745383964492397"><ele>774.0</ele><time>2026-04-25T09:04:25Z</time></trkpt><trkpt lat="38.01100456853268" lon="15.745408491644953"><ele>774.0</ele><time>2026-04-25T09:04:26Z</time></trkpt><trkpt lat="38.01094405994305" lon="15.745438403563389"><ele>774.0</ele><time>2026-04-25T09:04:27Z</time></trkpt><trkpt lat="38.01087003373791" lon="15.745492264742182"><ele>774.0</ele><time>2026-04-25T09:04:29Z</time></trkpt><trkpt lat="38.01078254732153" lon="15.74548321193605"><ele>774.0</ele><time>2026-04-25T09:04:31Z</time></trkpt><trkpt lat="38.01071789545753" lon="15.74544692968048"><ele>774.0</ele><time>2026-04-25T09:04:32Z</time></trkpt><trkpt lat="38.01064079574708" lon="15.74539758241271"><ele>772.0</ele><time>2026-04-25T09:04:33Z</time></trkpt><trkpt lat="38.010557955266066" lon="15.74535486976205"><ele>770.0</ele><time>2026-04-25T09:04:34Z</time></trkpt><trkpt lat="38.01046233585638" lon="15.74532898984126"><ele>768.0</ele><time>2026-04-25T09:04:35Z</time></trkpt><trkpt lat="38.01036302231482" lon="15.745318546987756"><ele>766.0</ele><time>2026-04-25T09:04:36Z</time></trkpt><trkpt lat="38.01026116368995" lon="15.745311536383994"><ele>764.0</ele><time>2026-04-25T09:04:37Z</time></trkpt><trkpt lat="38.010170225101554" lon="15.745296425946318"><ele>764.0</ele><time>2026-04-25T09:04:38Z</time></trkpt><trkpt lat="38.010091601626335" lon="15.745266452033613"><ele>764.0</ele><time>2026-04-25T09:04:39Z</time></trkpt><trkpt lat="38.01002956311205" lon="15.7452175391636"><ele>764.0</ele><time>2026-04-25T09:04:40Z</time></trkpt><trkpt lat="38.00998849125004" lon="15.745142154235607"><ele>764.0</ele><time>2026-04-25T09:04:41Z</time></trkpt><trkpt lat="38.00989598461934" lon="15.745070764731983"><ele>764.0</ele><time>2026-04-25T09:04:43Z</time></trkpt><trkpt lat="38.00983923095582" lon="15.745204278398509"><ele>764.0</ele><time>2026-04-25T09:04:45Z</time></trkpt><trkpt lat="38.00985246685768" lon="15.745309588421623"><ele>764.0</ele><time>2026-04-25T09:04:46Z</time></trkpt><trkpt lat="38.00989244623045" lon="15.745435135386431"><ele>764.0</ele><time>2026-04-25T09:04:47Z</time></trkpt><trkpt lat="38.00991645875737" lon="15.745553241459577"><ele>764.0</ele><time>2026-04-25T09:04:48Z</time></trkpt><trkpt lat="38.00993555674705" lon="15.745657877642564"><ele>764.0</ele><time>2026-04-25T09:04:49Z</time></trkpt><trkpt lat="38.01002956090398" lon="15.745782506416921"><ele>764.0</ele><time>2026-04-25T09:04:51Z</time></trkpt><trkpt lat="38.01011884699253" lon="15.745931022106726"><ele>764.0</ele><time>2026-04-25T09:04:53Z</time></trkpt><trkpt lat="38.010141734332564" lon="15.7460327499009"><ele>764.0</ele><time>2026-04-25T09:04:54Z</time></trkpt><trkpt lat="38.01016350591278" lon="15.74613588910073"><ele>764.0</ele><time>2026-04-25T09:04:55Z</time></trkpt><trkpt lat="38.01020429377645" lon="15.746207612877857"><ele>764.0</ele><time>2026-04-25T09:04:56Z</time></trkpt><trkpt lat="38.010266496718856" lon="15.746278835590005"><ele>760.6666666666666</ele><time>2026-04-25T09:04:57Z</time></trkpt><trkpt lat="38.01033095982072" lon="15.746352794108494"><ele>757.3333333333333</ele><time>2026-04-25T09:04:58Z</time></trkpt><trkpt lat="38.01038838576182" lon="15.7464289237312"><ele>754.0</ele><time>2026-04-25T09:04:59Z</time></trkpt><trkpt lat="38.01043282527233" lon="15.7464870565874"><ele>750.6666666666666</ele><time>2026-04-25T09:05:00Z</time></trkpt><trkpt lat="38.01048271282425" lon="15.746592030010381"><ele>747.3333333333334</ele><time>2026-04-25T09:05:02Z</time></trkpt><trkpt lat="38.0104238077434" lon="15.746664469845514"><ele>744.0</ele><time>2026-04-25T09:05:04Z</time></trkpt><trkpt lat="38.01030554221877" lon="15.746650610402952"><ele>744.0</ele><time>2026-04-25T09:05:06Z</time></trkpt><trkpt lat="38.010248546101835" lon="15.746607788038059"><ele>744.0</ele><time>2026-04-25T09:05:07Z</time></trkpt><trkpt lat="38.01018331402334" lon="15.746548743309019"><ele>744.0</ele><time>2026-04-25T09:05:08Z</time></trkpt><trkpt lat="38.010116803309636" lon="15.746484639261979"><ele>744.0</ele><time>2026-04-25T09:05:09Z</time></trkpt><trkpt lat="38.01006052207167" lon="15.746424951729214"><ele>744.0</ele><time>2026-04-25T09:05:10Z</time></trkpt><trkpt lat="38.009999321371104" lon="15.746366889785305"><ele>744.0</ele><time>2026-04-25T09:05:11Z</time></trkpt><trkpt lat="38.009933966762716" lon="15.746309045788815"><ele>744.3333333333334</ele><time>2026-04-25T09:05:12Z</time></trkpt><trkpt lat="38.00987560848366" lon="15.746260480292712"><ele>744.6666666666666</ele><time>2026-04-25T09:05:13Z</time></trkpt><trkpt lat="38.00981470129792" lon="15.746207161052572"><ele>745.0</ele><time>2026-04-25T09:05:14Z</time></trkpt><trkpt lat="38.00976030093388" lon="15.746138111874652"><ele>745.3333333333333</ele><time>2026-04-25T09:05:15Z</time></trkpt><trkpt lat="38.00970405075396" lon="15.746053380301188"><ele>745.6666666666666</ele><time>2026-04-25T09:05:16Z</time></trkpt><trkpt lat="38.009652950696996" lon="15.745943475811506"><ele>746.0</ele><time>2026-04-25T09:05:17Z</time></trkpt><trkpt lat="38.00955977762053" lon="15.745898374181218"><ele>746.0</ele><time>2026-04-25T09:05:18Z</time></trkpt><trkpt lat="38.00947153376418" lon="15.745879963370935"><ele>746.0</ele><time>2026-04-25T09:05:19Z</time></trkpt><trkpt lat="38.00938865221824" lon="15.745855871586517"><ele>746.0</ele><time>2026-04-25T09:05:20Z</time></trkpt><trkpt lat="38.009299570888004" lon="15.745847667531576"><ele>746.0</ele><time>2026-04-25T09:05:21Z</time></trkpt><trkpt lat="38.00920988048485" lon="15.745828236925687"><ele>746.0</ele><time>2026-04-25T09:05:22Z</time></trkpt><trkpt lat="38.00909275477456" lon="15.745828236926567"><ele>742.5</ele><time>2026-04-25T09:05:23Z</time></trkpt><trkpt lat="38.00900211059233" lon="15.745820384298776"><ele>739.0</ele><time>2026-04-25T09:05:24Z</time></trkpt><trkpt lat="38.00891790419088" lon="15.745807832930078"><ele>735.5</ele><time>2026-04-25T09:05:25Z</time></trkpt><trkpt lat="38.00884332634058" lon="15.745775355045888"><ele>732.0</ele><time>2026-04-25T09:05:26Z</time></trkpt><trkpt lat="38.0087719566006" lon="15.745668097062895"><ele>728.5</ele><time>2026-04-25T09:05:28Z</time></trkpt><trkpt lat="38.00872806493808" lon="15.745607411627482"><ele>725.0</ele><time>2026-04-25T09:05:29Z</time></trkpt><trkpt lat="38.008650350183366" lon="15.745516715732714"><ele>725.0</ele><time>2026-04-25T09:05:31Z</time></trkpt><trkpt lat="38.0084979578255" lon="15.745534593809019"><ele>725.0</ele><time>2026-04-25T09:05:34Z</time></trkpt><trkpt lat="38.00840890292282" lon="15.745610497863147"><ele>725.0</ele><time>2026-04-25T09:05:36Z</time></trkpt><trkpt lat="38.00834151090229" lon="15.745688816215369"><ele>725.0</ele><time>2026-04-25T09:05:38Z</time></trkpt><trkpt lat="38.008407702704574" lon="15.745850018966543"><ele>725.0</ele><time>2026-04-25T09:05:40Z</time></trkpt><trkpt lat="38.00845653626857" lon="15.745925276168235"><ele>725.0</ele><time>2026-04-25T09:05:41Z</time></trkpt><trkpt lat="38.00851088073752" lon="15.746004498570814"><ele>725.0</ele><time>2026-04-25T09:05:42Z</time></trkpt><trkpt lat="38.00856118334846" lon="15.746077133903302"><ele>725.0</ele><time>2026-04-25T09:05:43Z</time></trkpt><trkpt lat="38.00860728692309" lon="15.746157010491567"><ele>725.0</ele><time>2026-04-25T09:05:44Z</time></trkpt><trkpt lat="38.008658619630076" lon="15.746256923567037"><ele>725.0</ele><time>2026-04-25T09:05:45Z</time></trkpt><trkpt lat="38.00870836065741" lon="15.74632645798868"><ele>721.2857142857143</ele><time>2026-04-25T09:05:46Z</time></trkpt><trkpt lat="38.00875736100581" lon="15.74640012937544"><ele>717.5714285714287</ele><time>2026-04-25T09:05:47Z</time></trkpt><trkpt lat="38.008807083283955" lon="15.746470030956095"><ele>713.8571428571429</ele><time>2026-04-25T09:05:48Z</time></trkpt><trkpt lat="38.008851389612055" lon="15.746540645997623"><ele>710.1428571428571</ele><time>2026-04-25T09:05:49Z</time></trkpt><trkpt lat="38.008900459202536" lon="15.74659340507001"><ele>706.4285714285714</ele><time>2026-04-25T09:05:50Z</time></trkpt><trkpt lat="38.00896170128761" lon="15.746635346206029"><ele>702.7142857142857</ele><time>2026-04-25T09:05:51Z</time></trkpt><trkpt lat="38.00903080077313" lon="15.74668105544332"><ele>699.0</ele><time>2026-04-25T09:05:52Z</time></trkpt><trkpt lat="38.009100423990326" lon="15.746727911608895"><ele>699.0</ele><time>2026-04-25T09:05:53Z</time></trkpt><trkpt lat="38.00914503435875" lon="15.746803424520149"><ele>699.0</ele><time>2026-04-25T09:05:54Z</time></trkpt><trkpt lat="38.00921946395382" lon="15.746865758969351"><ele>699.0</ele><time>2026-04-25T09:05:55Z</time></trkpt><trkpt lat="38.009276201558244" lon="15.746934550935435"><ele>699.0</ele><time>2026-04-25T09:05:56Z</time></trkpt><trkpt lat="38.00932874114792" lon="15.747000004896675"><ele>699.0</ele><time>2026-04-25T09:05:57Z</time></trkpt><trkpt lat="38.00937124954249" lon="15.747145797882649"><ele>699.0</ele><time>2026-04-25T09:05:59Z</time></trkpt><trkpt lat="38.00935631152119" lon="15.747235193717701"><ele>699.0</ele><time>2026-04-25T09:06:00Z</time></trkpt><trkpt lat="38.00933850792955" lon="15.747331231663303"><ele>699.0</ele><time>2026-04-25T09:06:01Z</time></trkpt><trkpt lat="38.009299497273666" lon="15.747404207329247"><ele>699.0</ele><time>2026-04-25T09:06:02Z</time></trkpt><trkpt lat="38.00922470416578" lon="15.747512866224357"><ele>699.0</ele><time>2026-04-25T09:06:04Z</time></trkpt><trkpt lat="38.00917663849524" lon="15.747576602600077"><ele>699.0</ele><time>2026-04-25T09:06:05Z</time></trkpt><trkpt lat="38.009149615495666" lon="15.747657400463407"><ele>699.0</ele><time>2026-04-25T09:06:06Z</time></trkpt><trkpt lat="38.00920244362075" lon="15.74781163283212"><ele>695.6666666666666</ele><time>2026-04-25T09:06:08Z</time></trkpt><trkpt lat="38.00929294302014" lon="15.747861978121708"><ele>692.3333333333334</ele><time>2026-04-25T09:06:09Z</time></trkpt><trkpt lat="38.00932957569709" lon="15.747962662856155"><ele>689.0</ele><time>2026-04-25T09:06:10Z</time></trkpt><trkpt lat="38.00938810324567" lon="15.748051203178223"><ele>685.6666666666667</ele><time>2026-04-25T09:06:11Z</time></trkpt><trkpt lat="38.00942759459863" lon="15.748134488193205"><ele>682.3333333333334</ele><time>2026-04-25T09:06:12Z</time></trkpt><trkpt lat="38.00944738273456" lon="15.748221949346975"><ele>679.0</ele><time>2026-04-25T09:06:13Z</time></trkpt><trkpt lat="38.00947976743557" lon="15.748298916201874"><ele>679.0</ele><time>2026-04-25T09:06:14Z</time></trkpt><trkpt lat="38.00951933194439" lon="15.748365363683027"><ele>679.0</ele><time>2026-04-25T09:06:15Z</time></trkpt><trkpt lat="38.009547134396946" lon="15.748446530173577"><ele>679.0</ele><time>2026-04-25T09:06:16Z</time></trkpt><trkpt lat="38.0095773961556" lon="15.748520091188366"><ele>679.0</ele><time>2026-04-25T09:06:17Z</time></trkpt><trkpt lat="38.00962379781305" lon="15.748586522242556"><ele>679.0</ele><time>2026-04-25T09:06:18Z</time></trkpt><trkpt lat="38.009677893240585" lon="15.748654322923132"><ele>679.0</ele><time>2026-04-25T09:06:19Z</time></trkpt><trkpt lat="38.00975671783551" lon="15.748710696909642"><ele>679.0</ele><time>2026-04-25T09:06:20Z</time></trkpt><trkpt lat="38.00982547621046" lon="15.748783612005942"><ele>678.1428571428571</ele><time>2026-04-25T09:06:21Z</time></trkpt><trkpt lat="38.009887524685524" lon="15.748846146100801"><ele>677.2857142857142</ele><time>2026-04-25T09:06:22Z</time></trkpt><trkpt lat="38.009952825917324" lon="15.748876542701135"><ele>676.4285714285714</ele><time>2026-04-25T09:06:23Z</time></trkpt><trkpt lat="38.01000435588543" lon="15.748929173559468"><ele>675.5714285714286</ele><time>2026-04-25T09:06:24Z</time></trkpt><trkpt lat="38.0100745861452" lon="15.74895615345181"><ele>674.7142857142857</ele><time>2026-04-25T09:06:25Z</time></trkpt><trkpt lat="38.01014326607977" lon="15.748967706573554"><ele>673.8571428571429</ele><time>2026-04-25T09:06:26Z</time></trkpt><trkpt lat="38.01020062586498" lon="15.749002014639142"><ele>673.0</ele><time>2026-04-25T09:06:27Z</time></trkpt><trkpt lat="38.01026487737577" lon="15.749045212765601"><ele>673.0</ele><time>2026-04-25T09:06:28Z</time></trkpt><trkpt lat="38.01034480481376" lon="15.749081763053788"><ele>673.0</ele><time>2026-04-25T09:06:29Z</time></trkpt><trkpt lat="38.0104231277145" lon="15.749108790003957"><ele>673.0</ele><time>2026-04-25T09:06:30Z</time></trkpt><trkpt lat="38.01045459858954" lon="15.749182632392156"><ele>673.0</ele><time>2026-04-25T09:06:31Z</time></trkpt><trkpt lat="38.01051792219298" lon="15.74929192192119"><ele>673.0</ele><time>2026-04-25T09:06:33Z</time></trkpt><trkpt lat="38.010556413537884" lon="15.749414209279962"><ele>673.0</ele><time>2026-04-25T09:06:35Z</time></trkpt><trkpt lat="38.010626997322646" lon="15.749535581871887"><ele>668.5</ele><time>2026-04-25T09:06:37Z</time></trkpt><trkpt lat="38.010686813909814" lon="15.749652644402548"><ele>664.0</ele><time>2026-04-25T09:06:39Z</time></trkpt><trkpt lat="38.010682638493144" lon="15.749744369736657"><ele>659.5</ele><time>2026-04-25T09:06:40Z</time></trkpt><trkpt lat="38.01068985536719" lon="15.749826422379737"><ele>655.0</ele><time>2026-04-25T09:06:41Z</time></trkpt><trkpt lat="38.01064531930498" lon="15.749926638590926"><ele>650.5</ele><time>2026-04-25T09:06:43Z</time></trkpt><trkpt lat="38.010542432354335" lon="15.749879321688473"><ele>646.0</ele><time>2026-04-25T09:06:46Z</time></trkpt><trkpt lat="38.01050791397883" lon="15.74980276930561"><ele>646.0</ele><time>2026-04-25T09:06:47Z</time></trkpt><trkpt lat="38.01043706409497" lon="15.749758949540615"><ele>646.0</ele><time>2026-04-25T09:06:48Z</time></trkpt><trkpt lat="38.010375925167665" lon="15.749694042415609"><ele>646.0</ele><time>2026-04-25T09:06:49Z</time></trkpt><trkpt lat="38.0102975598838" lon="15.749662266943364"><ele>646.0</ele><time>2026-04-25T09:06:50Z</time></trkpt><trkpt lat="38.010218705840586" lon="15.749678310570852"><ele>646.0</ele><time>2026-04-25T09:06:51Z</time></trkpt><trkpt lat="38.01014939590242" lon="15.749680401644287"><ele>646.0</ele><time>2026-04-25T09:06:52Z</time></trkpt><trkpt lat="38.01008348738855" lon="15.749676018568543"><ele>646.0</ele><time>2026-04-25T09:06:52.999Z</time></trkpt><trkpt lat="38.01002422635313" lon="15.74973108369015"><ele>646.0</ele><time>2026-04-25T09:06:53.999Z</time></trkpt><trkpt lat="38.00997055707444" lon="15.749791206226497"><ele>646.0</ele><time>2026-04-25T09:06:54.999Z</time></trkpt><trkpt lat="38.00992078913767" lon="15.749886542341384"><ele>646.0</ele><time>2026-04-25T09:06:55.999Z</time></trkpt><trkpt lat="38.009877427069696" lon="15.749981969206823"><ele>646.0</ele><time>2026-04-25T09:06:56.999Z</time></trkpt><trkpt lat="38.009814969730535" lon="15.750037233898787"><ele>646.0</ele><time>2026-04-25T09:06:57.999Z</time></trkpt><trkpt lat="38.00976201917946" lon="15.750087778474786"><ele>643.1999999999999</ele><time>2026-04-25T09:06:58.999Z</time></trkpt><trkpt lat="38.00968237290953" lon="15.750177583458958"><ele>640.4</ele><time>2026-04-25T09:07:00.999Z</time></trkpt><trkpt lat="38.009626632291614" lon="15.750259378505266"><ele>637.6</ele><time>2026-04-25T09:07:02.999Z</time></trkpt><trkpt lat="38.009568697436805" lon="15.750330424241218"><ele>634.8</ele><time>2026-04-25T09:07:04.999Z</time></trkpt><trkpt lat="38.00948543712633" lon="15.750346583999775"><ele>632.0</ele><time>2026-04-25T09:07:06.999Z</time></trkpt><trkpt lat="38.00942449942756" lon="15.750242203026895"><ele>632.0000000000001</ele><time>2026-04-25T09:07:08.999Z</time></trkpt><trkpt lat="38.00936646596083" lon="15.750185331495636"><ele>632.0</ele><time>2026-04-25T09:07:09.999Z</time></trkpt><trkpt lat="38.0093101512812" lon="15.750121599871791"><ele>632.0</ele><time>2026-04-25T09:07:10.999Z</time></trkpt><trkpt lat="38.00925886808286" lon="15.750063562493725"><ele>632.0</ele><time>2026-04-25T09:07:11.999Z</time></trkpt><trkpt lat="38.00920871004589" lon="15.750007188905968"><ele>632.0</ele><time>2026-04-25T09:07:12.999Z</time></trkpt><trkpt lat="38.00915998958482" lon="15.749953733352589"><ele>632.0000000000001</ele><time>2026-04-25T09:07:13.999Z</time></trkpt><trkpt lat="38.00910822063763" lon="15.749907637819565"><ele>632.0</ele><time>2026-04-25T09:07:14.999Z</time></trkpt><trkpt lat="38.00900961965677" lon="15.749832871012874"><ele>628.0</ele><time>2026-04-25T09:07:16.999Z</time></trkpt><trkpt lat="38.008924263908995" lon="15.749821236518649"><ele>624.0</ele><time>2026-04-25T09:07:18.999Z</time></trkpt><trkpt lat="38.00888905073083" lon="15.749899252247182"><ele>620.0</ele><time>2026-04-25T09:07:19.999Z</time></trkpt><trkpt lat="38.00893227303114" lon="15.750023534663534"><ele>616.0</ele><time>2026-04-25T09:07:20.999Z</time></trkpt><trkpt lat="38.00896138820934" lon="15.750145989256467"><ele>612.0</ele><time>2026-04-25T09:07:21.999Z</time></trkpt><trkpt lat="38.00895321098371" lon="15.750252534930626"><ele>608.0</ele><time>2026-04-25T09:07:22.999Z</time></trkpt><trkpt lat="38.00897149689698" lon="15.750339936726805"><ele>604.8</ele><time>2026-04-25T09:07:23.999Z</time></trkpt><trkpt lat="38.00894051348063" lon="15.750491258347338"><ele>601.5999999999999</ele><time>2026-04-25T09:07:25.999Z</time></trkpt><trkpt lat="38.00889656113413" lon="15.750559250249022"><ele>598.4000000000001</ele><time>2026-04-25T09:07:26.999Z</time></trkpt><trkpt lat="38.00880773945884" lon="15.750597335316604"><ele>595.2</ele><time>2026-04-25T09:07:28.999Z</time></trkpt><trkpt lat="38.008754869015995" lon="15.750474600182468"><ele>592.0</ele><time>2026-04-25T09:07:30.999Z</time></trkpt><trkpt lat="38.008699235622785" lon="15.750409067984096"><ele>592.0</ele><time>2026-04-25T09:07:31.999Z</time></trkpt><trkpt lat="38.00860158631477" lon="15.750356776709133"><ele>592.0</ele><time>2026-04-25T09:07:33.999Z</time></trkpt><trkpt lat="38.00854414594078" lon="15.750422645496975"><ele>592.0</ele><time>2026-04-25T09:07:34.999Z</time></trkpt><trkpt lat="38.008509634406906" lon="15.750529433492671"><ele>592.0</ele><time>2026-04-25T09:07:36.999Z</time></trkpt><trkpt lat="38.0085667449938" lon="15.750602390905486"><ele>592.0</ele><time>2026-04-25T09:07:37.999Z</time></trkpt><trkpt lat="38.00860885956118" lon="15.750692801780696"><ele>592.0</ele><time>2026-04-25T09:07:38.999Z</time></trkpt><trkpt lat="38.00855639732325" lon="15.750807461847147"><ele>592.0</ele><time>2026-04-25T09:07:39.999Z</time></trkpt><trkpt lat="38.008564005928555" lon="15.750919055150774"><ele>592.0</ele><time>2026-04-25T09:07:40.999Z</time></trkpt><trkpt lat="38.008624476502256" lon="15.751022378520359"><ele>592.0</ele><time>2026-04-25T09:07:41.999Z</time></trkpt><trkpt lat="38.00867136539363" lon="15.751149090136785"><ele>592.0</ele><time>2026-04-25T09:07:42.999Z</time></trkpt><trkpt lat="38.00871100088731" lon="15.751278629756808"><ele>592.0</ele><time>2026-04-25T09:07:43.999Z</time></trkpt><trkpt lat="38.00875434425629" lon="15.75139157490425"><ele>589.6666666666667</ele><time>2026-04-25T09:07:44.999Z</time></trkpt><trkpt lat="38.00880359412024" lon="15.751489402769968"><ele>587.3333333333334</ele><time>2026-04-25T09:07:45.999Z</time></trkpt><trkpt lat="38.00882952160941" lon="15.751575307940229"><ele>585.0</ele><time>2026-04-25T09:07:46.999Z</time></trkpt><trkpt lat="38.008855881287545" lon="15.751649266295749"><ele>582.6666666666666</ele><time>2026-04-25T09:07:48Z</time></trkpt><trkpt lat="38.008833229214744" lon="15.751792841347843"><ele>580.3333333333333</ele><time>2026-04-25T09:07:50Z</time></trkpt><trkpt lat="38.0087743989968" lon="15.751823136631417"><ele>578.0</ele><time>2026-04-25T09:07:51Z</time></trkpt><trkpt lat="38.00870235736613" lon="15.751830239191206"><ele>578.0</ele><time>2026-04-25T09:07:52Z</time></trkpt><trkpt lat="38.00861923003866" lon="15.75181556139348"><ele>578.0</ele><time>2026-04-25T09:07:53Z</time></trkpt><trkpt lat="38.00856664190609" lon="15.751754957074473"><ele>578.0</ele><time>2026-04-25T09:07:54Z</time></trkpt><trkpt lat="38.00853057326095" lon="15.751669532454907"><ele>578.0</ele><time>2026-04-25T09:07:55Z</time></trkpt><trkpt lat="38.00844451316653" lon="15.751550868226316"><ele>578.0</ele><time>2026-04-25T09:07:56Z</time></trkpt><trkpt lat="38.0083541223724" lon="15.751451972163611"><ele>577.6</ele><time>2026-04-25T09:07:57Z</time></trkpt><trkpt lat="38.00829582178368" lon="15.751346100114047"><ele>577.1999999999999</ele><time>2026-04-25T09:07:58Z</time></trkpt><trkpt lat="38.00822673392622" lon="15.751245471303166"><ele>576.8</ele><time>2026-04-25T09:07:59Z</time></trkpt><trkpt lat="38.00814226605493" lon="15.751173134386091"><ele>576.4</ele><time>2026-04-25T09:08:00Z</time></trkpt><trkpt lat="38.00806074528062" lon="15.751103350333837"><ele>576.0</ele><time>2026-04-25T09:08:01Z</time></trkpt><trkpt lat="38.00799522850381" lon="15.751029077388822"><ele>576.0</ele><time>2026-04-25T09:08:02Z</time></trkpt><trkpt lat="38.00795342565169" lon="15.75093479188961"><ele>576.0</ele><time>2026-04-25T09:08:03Z</time></trkpt><trkpt lat="38.00791668790062" lon="15.750850369926972"><ele>576.0</ele><time>2026-04-25T09:08:04Z</time></trkpt><trkpt lat="38.00788880030761" lon="15.750772183040459"><ele>576.0</ele><time>2026-04-25T09:08:05Z</time></trkpt><trkpt lat="38.007859959686584" lon="15.750691401068229"><ele>576.0</ele><time>2026-04-25T09:08:06Z</time></trkpt><trkpt lat="38.0078099779665" lon="15.75060935523993"><ele>576.0</ele><time>2026-04-25T09:08:07Z</time></trkpt><trkpt lat="38.007776084793775" lon="15.750527869577088"><ele>576.0</ele><time>2026-04-25T09:08:08Z</time></trkpt><trkpt lat="38.0077370620564" lon="15.750464891948463"><ele>576.0</ele><time>2026-04-25T09:08:09Z</time></trkpt><trkpt lat="38.007638106894426" lon="15.750360455645128"><ele>576.0</ele><time>2026-04-25T09:08:11Z</time></trkpt><trkpt lat="38.007600171105366" lon="15.750278068072767"><ele>576.0</ele><time>2026-04-25T09:08:12Z</time></trkpt><trkpt lat="38.007557250875394" lon="15.750202356502063"><ele>576.0</ele><time>2026-04-25T09:08:13Z</time></trkpt><trkpt lat="38.0075139693705" lon="15.750135819903335"><ele>576.0</ele><time>2026-04-25T09:08:14Z</time></trkpt><trkpt lat="38.007446846059125" lon="15.750079845250873"><ele>581.6666666666666</ele><time>2026-04-25T09:08:15Z</time></trkpt><trkpt lat="38.00737197103813" lon="15.75007489936654"><ele>587.3333333333334</ele><time>2026-04-25T09:08:16Z</time></trkpt><trkpt lat="38.007312560977745" lon="15.750118418631088"><ele>593.0</ele><time>2026-04-25T09:08:17Z</time></trkpt><trkpt lat="38.00724103680908" lon="15.75022448050187"><ele>598.6666666666667</ele><time>2026-04-25T09:08:19Z</time></trkpt><trkpt lat="38.00726153618385" lon="15.750344046745527"><ele>604.3333333333334</ele><time>2026-04-25T09:08:20Z</time></trkpt><trkpt lat="38.00727638171929" lon="15.750458260976767"><ele>610.0</ele><time>2026-04-25T09:08:21Z</time></trkpt><trkpt lat="38.0072949543655" lon="15.750591888744328"><ele>610.0</ele><time>2026-04-25T09:08:22Z</time></trkpt><trkpt lat="38.00730364992313" lon="15.750739600061"><ele>610.0</ele><time>2026-04-25T09:08:23Z</time></trkpt><trkpt lat="38.00729732751626" lon="15.750878674145936"><ele>610.0</ele><time>2026-04-25T09:08:24Z</time></trkpt><trkpt lat="38.00727902502569" lon="15.751008728599269"><ele>610.0</ele><time>2026-04-25T09:08:25Z</time></trkpt><trkpt lat="38.00726435138513" lon="15.751134527842384"><ele>610.0</ele><time>2026-04-25T09:08:26Z</time></trkpt><trkpt lat="38.00726373216652" lon="15.751256280988834"><ele>604.6</ele><time>2026-04-25T09:08:27Z</time></trkpt><trkpt lat="38.00727272492645" lon="15.751379916160058"><ele>599.2</ele><time>2026-04-25T09:08:28Z</time></trkpt><trkpt lat="38.00728705045474" lon="15.75150046148441"><ele>593.8</ele><time>2026-04-25T09:08:29Z</time></trkpt><trkpt lat="38.00730632773539" lon="15.751618417114729"><ele>588.4</ele><time>2026-04-25T09:08:30Z</time></trkpt><trkpt lat="38.00733219564949" lon="15.751724797940959"><ele>583.0</ele><time>2026-04-25T09:08:31Z</time></trkpt><trkpt lat="38.00735902815803" lon="15.751825110585758"><ele>580.3333333333334</ele><time>2026-04-25T09:08:32Z</time></trkpt><trkpt lat="38.00738468250434" lon="15.751918951725273"><ele>577.6666666666667</ele><time>2026-04-25T09:08:33Z</time></trkpt><trkpt lat="38.00740699162858" lon="15.752009091755932"><ele>575.0</ele><time>2026-04-25T09:08:34Z</time></trkpt><trkpt lat="38.00743202474809" lon="15.752093847439358"><ele>572.3333333333334</ele><time>2026-04-25T09:08:35Z</time></trkpt><trkpt lat="38.00745665204889" lon="15.752185633051527"><ele>569.6666666666666</ele><time>2026-04-25T09:08:36Z</time></trkpt><trkpt lat="38.00748565950324" lon="15.752280719663002"><ele>567.0</ele><time>2026-04-25T09:08:37Z</time></trkpt><trkpt lat="38.00751593572398" lon="15.752373964451861"><ele>565.6666666666666</ele><time>2026-04-25T09:08:38Z</time></trkpt><trkpt lat="38.00754977528982" lon="15.752459063315515"><ele>564.3333333333334</ele><time>2026-04-25T09:08:39Z</time></trkpt><trkpt lat="38.00757821479193" lon="15.752553605134235"><ele>563.0</ele><time>2026-04-25T09:08:40Z</time></trkpt><trkpt lat="38.00757117262761" lon="15.752656671742645"><ele>561.6666666666667</ele><time>2026-04-25T09:08:41Z</time></trkpt><trkpt lat="38.00756468887667" lon="15.752763109202995"><ele>560.3333333333334</ele><time>2026-04-25T09:08:42Z</time></trkpt><trkpt lat="38.00754754855893" lon="15.752866495963627"><ele>559.0</ele><time>2026-04-25T09:08:43Z</time></trkpt><trkpt lat="38.007523646116766" lon="15.752971515792767"><ele>558.8</ele><time>2026-04-25T09:08:44Z</time></trkpt><trkpt lat="38.00749499737127" lon="15.753076538261498"><ele>558.5999999999999</ele><time>2026-04-25T09:08:45Z</time></trkpt><trkpt lat="38.00746383745973" lon="15.753187707492241"><ele>558.4</ele><time>2026-04-25T09:08:46Z</time></trkpt><trkpt lat="38.00743287173415" lon="15.753293759834934"><ele>558.1999999999999</ele><time>2026-04-25T09:08:47Z</time></trkpt><trkpt lat="38.0074013376266" lon="15.75340072019817"><ele>558.0</ele><time>2026-04-25T09:08:48Z</time></trkpt><trkpt lat="38.007373990324886" lon="15.753519335975335"><ele>555.0</ele><time>2026-04-25T09:08:48.999Z</time></trkpt><trkpt lat="38.00735264774913" lon="15.753634737772195"><ele>552.0</ele><time>2026-04-25T09:08:49.999Z</time></trkpt><trkpt lat="38.00732865932785" lon="15.753773670700092"><ele>549.0</ele><time>2026-04-25T09:08:50.999Z</time></trkpt><trkpt lat="38.00729982363245" lon="15.75393623801289"><ele>546.0</ele><time>2026-04-25T09:08:51.999Z</time></trkpt><trkpt lat="38.00727883819602" lon="15.754114635143376"><ele>546.0</ele><time>2026-04-25T09:08:52.999Z</time></trkpt><trkpt lat="38.007240291522734" lon="15.754296270526758"><ele>546.0</ele><time>2026-04-25T09:08:53.999Z</time></trkpt><trkpt lat="38.00718511582525" lon="15.75447067609939"><ele>546.0</ele><time>2026-04-25T09:08:54.999Z</time></trkpt><trkpt lat="38.00714911990382" lon="15.754640911497214"><ele>546.0</ele><time>2026-04-25T09:08:55.999Z</time></trkpt><trkpt lat="38.007129269345434" lon="15.754810820356418"><ele>543.5</ele><time>2026-04-25T09:08:56.999Z</time></trkpt><trkpt lat="38.00709585916342" lon="15.754969601078136"><ele>541.0</ele><time>2026-04-25T09:08:57.999Z</time></trkpt><trkpt lat="38.00707213257128" lon="15.755129106751482"><ele>538.5</ele><time>2026-04-25T09:08:58.999Z</time></trkpt><trkpt lat="38.007056541862006" lon="15.755286518678842"><ele>536.0</ele><time>2026-04-25T09:08:59.999Z</time></trkpt><trkpt lat="38.0070149499812" lon="15.755440032093905"><ele>534.25</ele><time>2026-04-25T09:09:00.999Z</time></trkpt><trkpt lat="38.00698278725235" lon="15.755604789131263"><ele>532.5</ele><time>2026-04-25T09:09:01.999Z</time></trkpt><trkpt lat="38.00694601586702" lon="15.75577547799726"><ele>530.75</ele><time>2026-04-25T09:09:02.999Z</time></trkpt><trkpt lat="38.00691016239052" lon="15.755936714464466"><ele>529.0</ele><time>2026-04-25T09:09:03.999Z</time></trkpt><trkpt lat="38.00687495781465" lon="15.756095032788854"><ele>527.0</ele><time>2026-04-25T09:09:04.999Z</time></trkpt><trkpt lat="38.00683967060943" lon="15.756252616827723"><ele>525.0</ele><time>2026-04-25T09:09:05.999Z</time></trkpt><trkpt lat="38.00681423488413" lon="15.756412843081542"><ele>523.0</ele><time>2026-04-25T09:09:06.999Z</time></trkpt><trkpt lat="38.00677295096636" lon="15.756567725734152"><ele>521.0</ele><time>2026-04-25T09:09:07.999Z</time></trkpt><trkpt lat="38.006723771197926" lon="15.756720096975139"><ele>521.0</ele><time>2026-04-25T09:09:08.999Z</time></trkpt><trkpt lat="38.00667007026381" lon="15.756857921844201"><ele>521.0</ele><time>2026-04-25T09:09:09.999Z</time></trkpt><trkpt lat="38.00661881620329" lon="15.756972713846777"><ele>521.0</ele><time>2026-04-25T09:09:10.999Z</time></trkpt><trkpt lat="38.00657471973978" lon="15.757061685461393"><ele>521.0</ele><time>2026-04-25T09:09:11.999Z</time></trkpt><trkpt lat="38.00650520553644" lon="15.75715355180265"><ele>521.0</ele><time>2026-04-25T09:09:13.999Z</time></trkpt><trkpt lat="38.00663947100645" lon="15.757357980964143"><ele>519.8</ele><time>2026-04-25T09:09:15.999Z</time></trkpt><trkpt lat="38.00673462870272" lon="15.757419566842572"><ele>518.6</ele><time>2026-04-25T09:09:17.999Z</time></trkpt><trkpt lat="38.00679819572851" lon="15.757345240552695"><ele>517.4</ele><time>2026-04-25T09:09:19.999Z</time></trkpt><trkpt lat="38.006864330733464" lon="15.75727408523619"><ele>516.2</ele><time>2026-04-25T09:09:21.999Z</time></trkpt><trkpt lat="38.00695888872426" lon="15.757198072223508"><ele>515.0</ele><time>2026-04-25T09:09:24.999Z</time></trkpt><trkpt lat="38.006831472688376" lon="15.757465632930307"><ele>515.0</ele><time>2026-04-25T09:09:27.999Z</time></trkpt><trkpt lat="38.006769869274116" lon="15.75752317323907"><ele>515.0</ele><time>2026-04-25T09:09:29.999Z</time></trkpt><trkpt lat="38.006721364093565" lon="15.757588215401556"><ele>515.0</ele><time>2026-04-25T09:09:31.999Z</time></trkpt><trkpt lat="38.006667175184845" lon="15.757709293813722"><ele>515.0</ele><time>2026-04-25T09:09:33.999Z</time></trkpt><trkpt lat="38.006622164415234" lon="15.757789668242443"><ele>515.0</ele><time>2026-04-25T09:09:34.999Z</time></trkpt><trkpt lat="38.006568656895986" lon="15.757851079038808"><ele>515.0</ele><time>2026-04-25T09:09:35.999Z</time></trkpt><trkpt lat="38.006516423177956" lon="15.757949465632963"><ele>514.4</ele><time>2026-04-25T09:09:37.999Z</time></trkpt><trkpt lat="38.00648975372678" lon="15.758090452153157"><ele>513.8</ele><time>2026-04-25T09:09:39.999Z</time></trkpt><trkpt lat="38.00645968341586" lon="15.758164537880912"><ele>513.2</ele><time>2026-04-25T09:09:40.999Z</time></trkpt><trkpt lat="38.00641117930777" lon="15.758293059180618"><ele>512.6</ele><time>2026-04-25T09:09:42.999Z</time></trkpt><trkpt lat="38.00638075015661" lon="15.75839152450972"><ele>512.0</ele><time>2026-04-25T09:09:44.999Z</time></trkpt><trkpt lat="38.00632052240085" lon="15.75848513296987"><ele>510.99999999999994</ele><time>2026-04-25T09:09:46.999Z</time></trkpt><trkpt lat="38.00628117146366" lon="15.758568784931343"><ele>510.0</ele><time>2026-04-25T09:09:48.999Z</time></trkpt><trkpt lat="38.006217875010876" lon="15.758623135674814"><ele>509.0</ele><time>2026-04-25T09:09:54.999Z</time></trkpt><trkpt lat="38.006181355796826" lon="15.758708276869056"><ele>508.0</ele><time>2026-04-25T09:09:56.999Z</time></trkpt><trkpt lat="38.00609805604392" lon="15.758835064074727"><ele>506.99999999999994</ele><time>2026-04-25T09:09:58.999Z</time></trkpt><trkpt lat="38.006035137987816" lon="15.758889029658048"><ele>506.0</ele><time>2026-04-25T09:09:59.999Z</time></trkpt><trkpt lat="38.00600027923403" lon="15.758963477218053"><ele>505.99999999999994</ele><time>2026-04-25T09:10:01.999Z</time></trkpt><trkpt lat="38.00591051092523" lon="15.759061238272821"><ele>506.0</ele><time>2026-04-25T09:10:03.999Z</time></trkpt><trkpt lat="38.00586026447428" lon="15.759120287521808"><ele>506.0</ele><time>2026-04-25T09:10:05.999Z</time></trkpt><trkpt lat="38.00581327635522" lon="15.759196447097217"><ele>506.0</ele><time>2026-04-25T09:10:07.999Z</time></trkpt><trkpt lat="38.005773805750444" lon="15.759279812702287"><ele>505.99999999999994</ele><time>2026-04-25T09:10:09.999Z</time></trkpt><trkpt lat="38.005719730637345" lon="15.759371988661615"><ele>506.0</ele><time>2026-04-25T09:10:11.999Z</time></trkpt><trkpt lat="38.00566586314459" lon="15.759484765661815"><ele>504.0</ele><time>2026-04-25T09:10:13.999Z</time></trkpt><trkpt lat="38.00560498936283" lon="15.75957238724797"><ele>502.0</ele><time>2026-04-25T09:10:15.999Z</time></trkpt><trkpt lat="38.00550194903967" lon="15.759644606283718"><ele>500.0</ele><time>2026-04-25T09:10:17.999Z</time></trkpt><trkpt lat="38.00541753140477" lon="15.759697570963949"><ele>498.0</ele><time>2026-04-25T09:10:19.999Z</time></trkpt><trkpt lat="38.00532920293039" lon="15.759765873551412"><ele>496.0</ele><time>2026-04-25T09:10:21.999Z</time></trkpt><trkpt lat="38.00525939860617" lon="15.759874849836272"><ele>496.00000000000006</ele><time>2026-04-25T09:10:23.999Z</time></trkpt><trkpt lat="38.00521362902907" lon="15.759997240598546"><ele>496.0</ele><time>2026-04-25T09:10:25.999Z</time></trkpt><trkpt lat="38.005174541635625" lon="15.760066981695834"><ele>496.0</ele><time>2026-04-25T09:10:26.999Z</time></trkpt><trkpt lat="38.00511441858617" lon="15.760141106431414"><ele>496.0</ele><time>2026-04-25T09:10:27.999Z</time></trkpt><trkpt lat="38.00504680915178" lon="15.760210531500409"><ele>496.00000000000006</ele><time>2026-04-25T09:10:28.999Z</time></trkpt><trkpt lat="38.00499560507925" lon="15.760260568387398"><ele>496.0</ele><time>2026-04-25T09:10:29.999Z</time></trkpt><trkpt lat="38.00494770531584" lon="15.760315450270275"><ele>496.00000000000006</ele><time>2026-04-25T09:10:30.999Z</time></trkpt><trkpt lat="38.00491425046642" lon="15.760386502016868"><ele>496.0</ele><time>2026-04-25T09:10:31.999Z</time></trkpt><trkpt lat="38.00484662078991" lon="15.760513961523868"><ele>496.0</ele><time>2026-04-25T09:10:33.999Z</time></trkpt><trkpt lat="38.004795521641135" lon="15.760565978328637"><ele>496.0</ele><time>2026-04-25T09:10:34.999Z</time></trkpt><trkpt lat="38.00473362059803" lon="15.760628344018302"><ele>496.00000000000006</ele><time>2026-04-25T09:10:35.999Z</time></trkpt><trkpt lat="38.00468256114233" lon="15.760685888938792"><ele>496.0</ele><time>2026-04-25T09:10:36.999Z</time></trkpt><trkpt lat="38.00460887095331" lon="15.76079929073751"><ele>496.0</ele><time>2026-04-25T09:10:38.999Z</time></trkpt><trkpt lat="38.00456949713557" lon="15.760866322210884"><ele>496.0</ele><time>2026-04-25T09:10:39.999Z</time></trkpt><trkpt lat="38.00452822157696" lon="15.760940608776929"><ele>496.0</ele><time>2026-04-25T09:10:40.999Z</time></trkpt><trkpt lat="38.004476907099814" lon="15.761035820706047"><ele>496.0</ele><time>2026-04-25T09:10:41.999Z</time></trkpt><trkpt lat="38.00442069109253" lon="15.761180502459165"><ele>496.0</ele><time>2026-04-25T09:10:43.999Z</time></trkpt><trkpt lat="38.004375809505" lon="15.761337191969865"><ele>494.00000000000006</ele><time>2026-04-25T09:10:45.999Z</time></trkpt><trkpt lat="38.00428825882044" lon="15.761455815750082"><ele>492.0</ele><time>2026-04-25T09:10:47.999Z</time></trkpt><trkpt lat="38.00422327287615" lon="15.761513525630438"><ele>490.0</ele><time>2026-04-25T09:10:48.999Z</time></trkpt><trkpt lat="38.00416791260717" lon="15.761562216352933"><ele>488.0</ele><time>2026-04-25T09:10:49.999Z</time></trkpt><trkpt lat="38.00410834380335" lon="15.76159927322448"><ele>486.00000000000006</ele><time>2026-04-25T09:10:50.999Z</time></trkpt><trkpt lat="38.004041216598694" lon="15.761636375660178"><ele>484.0</ele><time>2026-04-25T09:10:51.999Z</time></trkpt><trkpt lat="38.00395524474772" lon="15.761659889242187"><ele>483.0</ele><time>2026-04-25T09:10:52.999Z</time></trkpt><trkpt lat="38.003859924736844" lon="15.76167761436219"><ele>482.0</ele><time>2026-04-25T09:10:53.999Z</time></trkpt><trkpt lat="38.003766616386045" lon="15.761701660797074"><ele>481.0</ele><time>2026-04-25T09:10:54.999Z</time></trkpt><trkpt lat="38.00367493247114" lon="15.761726366860374"><ele>480.0</ele><time>2026-04-25T09:10:55.999Z</time></trkpt><trkpt lat="38.00358055561625" lon="15.761753804193738"><ele>479.0</ele><time>2026-04-25T09:10:56.999Z</time></trkpt><trkpt lat="38.00348941601876" lon="15.76174041620039"><ele>478.99999999999994</ele><time>2026-04-25T09:10:57.999Z</time></trkpt><trkpt lat="38.0033944742413" lon="15.761758422352436"><ele>479.0</ele><time>2026-04-25T09:10:59.999Z</time></trkpt><trkpt lat="38.0033113202436" lon="15.761783583986293"><ele>479.0</ele><time>2026-04-25T09:11:01.999Z</time></trkpt><trkpt lat="38.00334297275661" lon="15.761865185180822"><ele>479.0</ele><time>2026-04-25T09:11:17.999Z</time></trkpt><trkpt lat="38.00341294865254" lon="15.761811060138927"><ele>478.99999999999994</ele><time>2026-04-25T09:11:22.999Z</time></trkpt><trkpt lat="38.00350761259089" lon="15.761810814078585"><ele>479.0</ele><time>2026-04-25T09:11:24.999Z</time></trkpt><trkpt lat="38.00359765207674" lon="15.761825246833274"><ele>479.0</ele><time>2026-04-25T09:11:25.999Z</time></trkpt><trkpt lat="38.003696857640215" lon="15.761859656249626"><ele>479.0</ele><time>2026-04-25T09:11:26.999Z</time></trkpt><trkpt lat="38.00379812951606" lon="15.761911589077917"><ele>479.0</ele><time>2026-04-25T09:11:27.999Z</time></trkpt><trkpt lat="38.00389633832447" lon="15.762028607361472"><ele>479.0</ele><time>2026-04-25T09:11:28.999Z</time></trkpt><trkpt lat="38.00402251433817" lon="15.762083247517817"><ele>478.75</ele><time>2026-04-25T09:11:29.999Z</time></trkpt><trkpt lat="38.00414709574005" lon="15.762104928901447"><ele>478.5</ele><time>2026-04-25T09:11:30.999Z</time></trkpt><trkpt lat="38.00426796305048" lon="15.762118505968818"><ele>478.25</ele><time>2026-04-25T09:11:31.999Z</time></trkpt><trkpt lat="38.004397007927686" lon="15.762120631667702"><ele>478.0</ele><time>2026-04-25T09:11:32.999Z</time></trkpt><trkpt lat="38.004509202660905" lon="15.76212708428858"><ele>479.75</ele><time>2026-04-25T09:11:33.999Z</time></trkpt><trkpt lat="38.00459988168056" lon="15.762165399199128"><ele>481.5</ele><time>2026-04-25T09:11:34.999Z</time></trkpt><trkpt lat="38.00468337307766" lon="15.762267313648177"><ele>483.25</ele><time>2026-04-25T09:11:35.999Z</time></trkpt><trkpt lat="38.00480711198955" lon="15.762346488025011"><ele>485.0</ele><time>2026-04-25T09:11:36.999Z</time></trkpt><trkpt lat="38.004916987418554" lon="15.762396750504058"><ele>486.6</ele><time>2026-04-25T09:11:37.999Z</time></trkpt><trkpt lat="38.0050077320303" lon="15.762448382107145"><ele>488.2</ele><time>2026-04-25T09:11:38.999Z</time></trkpt><trkpt lat="38.00510694629263" lon="15.762467276364127"><ele>489.79999999999995</ele><time>2026-04-25T09:11:39.999Z</time></trkpt><trkpt lat="38.005212606510725" lon="15.76251901186958"><ele>491.4</ele><time>2026-04-25T09:11:40.999Z</time></trkpt><trkpt lat="38.00532864091241" lon="15.762562951842154"><ele>493.0</ele><time>2026-04-25T09:11:41.999Z</time></trkpt><trkpt lat="38.00543096685312" lon="15.762618868313828"><ele>493.0</ele><time>2026-04-25T09:11:42.999Z</time></trkpt><trkpt lat="38.005526308884676" lon="15.76268441310179"><ele>492.99999999999994</ele><time>2026-04-25T09:11:43.999Z</time></trkpt><trkpt lat="38.00562248899277" lon="15.762756552150096"><ele>492.99999999999994</ele><time>2026-04-25T09:11:44.999Z</time></trkpt><trkpt lat="38.00571953280303" lon="15.76280728986274"><ele>493.0</ele><time>2026-04-25T09:11:45.999Z</time></trkpt><trkpt lat="38.00581694323805" lon="15.762878569225155"><ele>493.0</ele><time>2026-04-25T09:11:46.999Z</time></trkpt><trkpt lat="38.00591493459434" lon="15.762934684626988"><ele>495.25</ele><time>2026-04-25T09:11:47.999Z</time></trkpt><trkpt lat="38.00601879772231" lon="15.763008054749303"><ele>497.5</ele><time>2026-04-25T09:11:48.999Z</time></trkpt><trkpt lat="38.00612013910429" lon="15.763079231937944"><ele>499.75</ele><time>2026-04-25T09:11:49.999Z</time></trkpt><trkpt lat="38.00621924835577" lon="15.763163957778486"><ele>502.0</ele><time>2026-04-25T09:11:50.999Z</time></trkpt><trkpt lat="38.00630827440379" lon="15.7632456498906"><ele>502.0</ele><time>2026-04-25T09:11:51.999Z</time></trkpt><trkpt lat="38.00639278608348" lon="15.763309145553293"><ele>502.00000000000006</ele><time>2026-04-25T09:11:52.999Z</time></trkpt><trkpt lat="38.006457652642396" lon="15.76336877611098"><ele>502.00000000000006</ele><time>2026-04-25T09:11:53.999Z</time></trkpt><trkpt lat="38.0065516595104" lon="15.763468306918705"><ele>502.0</ele><time>2026-04-25T09:11:55.999Z</time></trkpt><trkpt lat="38.00664341872594" lon="15.763571214844092"><ele>502.0</ele><time>2026-04-25T09:11:57.999Z</time></trkpt><trkpt lat="38.006692230865895" lon="15.7637276612208"><ele>506.25</ele><time>2026-04-25T09:11:58.999Z</time></trkpt><trkpt lat="38.00676891887779" lon="15.763779673705267"><ele>510.5</ele><time>2026-04-25T09:11:59.999Z</time></trkpt><trkpt lat="38.00686804383341" lon="15.763835723722787"><ele>514.75</ele><time>2026-04-25T09:12:00.999Z</time></trkpt><trkpt lat="38.00699163701139" lon="15.76363155094702"><ele>519.0</ele><time>2026-04-25T09:12:01.999Z</time></trkpt><trkpt lat="38.00708290898779" lon="15.763706514106548"><ele>519.0</ele><time>2026-04-25T09:12:03.999Z</time></trkpt><trkpt lat="38.0071282159077" lon="15.763776061083863"><ele>519.0</ele><time>2026-04-25T09:12:04.999Z</time></trkpt><trkpt lat="38.007171217637655" lon="15.763845652029246"><ele>519.0</ele><time>2026-04-25T09:12:05.999Z</time></trkpt><trkpt lat="38.00721618854036" lon="15.763910256028302"><ele>519.0</ele><time>2026-04-25T09:12:06.999Z</time></trkpt><trkpt lat="38.00726477569452" lon="15.763969338396654"><ele>519.0</ele><time>2026-04-25T09:12:07.999Z</time></trkpt><trkpt lat="38.00731478156584" lon="15.764030953133522"><ele>519.0</ele><time>2026-04-25T09:12:08.999Z</time></trkpt><trkpt lat="38.007362908490954" lon="15.76410090878547"><ele>519.0</ele><time>2026-04-25T09:12:09.999Z</time></trkpt><trkpt lat="38.007416422991525" lon="15.76416466975592"><ele>519.0</ele><time>2026-04-25T09:12:10.999Z</time></trkpt><trkpt lat="38.00747010713696" lon="15.764231249186246"><ele>519.0</ele><time>2026-04-25T09:12:11.999Z</time></trkpt><trkpt lat="38.007532882055635" lon="15.764299837462875"><ele>519.0</ele><time>2026-04-25T09:12:12.999Z</time></trkpt><trkpt lat="38.00760032098016" lon="15.76440696760474"><ele>519.0</ele><time>2026-04-25T09:12:13.999Z</time></trkpt><trkpt lat="38.00768448767994" lon="15.764505883963635"><ele>519.0</ele><time>2026-04-25T09:12:14.999Z</time></trkpt><trkpt lat="38.007777703227674" lon="15.764610771228327"><ele>521.5</ele><time>2026-04-25T09:12:15.999Z</time></trkpt><trkpt lat="38.007875431083605" lon="15.764718692898612"><ele>524.0</ele><time>2026-04-25T09:12:16.999Z</time></trkpt><trkpt lat="38.007986580840715" lon="15.764814803894367"><ele>526.5</ele><time>2026-04-25T09:12:17.999Z</time></trkpt><trkpt lat="38.00808596791865" lon="15.764932871914692"><ele>529.0</ele><time>2026-04-25T09:12:18.999Z</time></trkpt><trkpt lat="38.00819514181186" lon="15.765050907234967"><ele>529.0</ele><time>2026-04-25T09:12:19.999Z</time></trkpt><trkpt lat="38.00831131579774" lon="15.765161124119642"><ele>529.0</ele><time>2026-04-25T09:12:20.999Z</time></trkpt><trkpt lat="38.00842323661761" lon="15.765291351226438"><ele>529.0</ele><time>2026-04-25T09:12:21.999Z</time></trkpt><trkpt lat="38.008561024151675" lon="15.765432751752579"><ele>531.3333333333334</ele><time>2026-04-25T09:12:22.999Z</time></trkpt><trkpt lat="38.0087267452514" lon="15.765602642760921"><ele>533.6666666666666</ele><time>2026-04-25T09:12:23.999Z</time></trkpt><trkpt lat="38.0089032390893" lon="15.765783577707001"><ele>536.0</ele><time>2026-04-25T09:12:24.999Z</time></trkpt><trkpt lat="38.00905984538465" lon="15.7659441243542"><ele>539.0</ele><time>2026-04-25T09:12:25.999Z</time></trkpt><trkpt lat="38.00919626234316" lon="15.766083971240665"><ele>542.0</ele><time>2026-04-25T09:12:26.999Z</time></trkpt><trkpt lat="38.00932988621743" lon="15.766219474911543"><ele>545.0</ele><time>2026-04-25T09:12:27.999Z</time></trkpt><trkpt lat="38.009457130080634" lon="15.766348818182124"><ele>545.0</ele><time>2026-04-25T09:12:28.999Z</time></trkpt><trkpt lat="38.009593785933866" lon="15.766463301933523"><ele>545.0</ele><time>2026-04-25T09:12:29.999Z</time></trkpt><trkpt lat="38.009717959187995" lon="15.766586837588367"><ele>545.0</ele><time>2026-04-25T09:12:30.999Z</time></trkpt><trkpt lat="38.00983226972673" lon="15.766724341523393"><ele>545.0</ele><time>2026-04-25T09:12:31.999Z</time></trkpt><trkpt lat="38.009946432666524" lon="15.76683369971366"><ele>545.0</ele><time>2026-04-25T09:12:32.999Z</time></trkpt><trkpt lat="38.010050299983035" lon="15.766917596984213"><ele>545.0</ele><time>2026-04-25T09:12:33.999Z</time></trkpt><trkpt lat="38.010154351866035" lon="15.766979935715085"><ele>545.0</ele><time>2026-04-25T09:12:34.999Z</time></trkpt><trkpt lat="38.01025039678125" lon="15.767082693479562"><ele>548.5</ele><time>2026-04-25T09:12:35.999Z</time></trkpt><trkpt lat="38.010352799236394" lon="15.767200279086818"><ele>552.0</ele><time>2026-04-25T09:12:36.999Z</time></trkpt><trkpt lat="38.01046024860865" lon="15.767327694953668"><ele>555.5</ele><time>2026-04-25T09:12:37.999Z</time></trkpt><trkpt lat="38.01057590645681" lon="15.767463600334837"><ele>559.0</ele><time>2026-04-25T09:12:38.999Z</time></trkpt><trkpt lat="38.01068993719372" lon="15.767599002621534"><ele>561.6666666666667</ele><time>2026-04-25T09:12:39.999Z</time></trkpt><trkpt lat="38.01080663665385" lon="15.767731267747873"><ele>564.3333333333334</ele><time>2026-04-25T09:12:40.999Z</time></trkpt><trkpt lat="38.01091180526561" lon="15.767878336711174"><ele>567.0</ele><time>2026-04-25T09:12:41.999Z</time></trkpt><trkpt lat="38.01102729190986" lon="15.76801018683796"><ele>567.0</ele><time>2026-04-25T09:12:42.999Z</time></trkpt><trkpt lat="38.01115451393309" lon="15.76812682633925"><ele>567.0</ele><time>2026-04-25T09:12:43.999Z</time></trkpt><trkpt lat="38.011277726127" lon="15.768256558237878"><ele>567.0</ele><time>2026-04-25T09:12:44.999Z</time></trkpt><trkpt lat="38.01141559285897" lon="15.7683770907829"><ele>567.0</ele><time>2026-04-25T09:12:45.999Z</time></trkpt><trkpt lat="38.011556974614585" lon="15.768500652742782"><ele>567.0</ele><time>2026-04-25T09:12:46.999Z</time></trkpt><trkpt lat="38.01168047115416" lon="15.768616384483687"><ele>567.0</ele><time>2026-04-25T09:12:47.999Z</time></trkpt><trkpt lat="38.011813877297186" lon="15.768709247060277"><ele>572.0</ele><time>2026-04-25T09:12:48.999Z</time></trkpt><trkpt lat="38.0119598267915" lon="15.768812600548003"><ele>577.0</ele><time>2026-04-25T09:12:49.999Z</time></trkpt><trkpt lat="38.01210583761254" lon="15.76889639364942"><ele>582.0</ele><time>2026-04-25T09:12:50.999Z</time></trkpt><trkpt lat="38.01223351130715" lon="15.768966673312212"><ele>582.0</ele><time>2026-04-25T09:12:51.999Z</time></trkpt><trkpt lat="38.01233744306408" lon="15.769022325030205"><ele>582.0</ele><time>2026-04-25T09:12:52.999Z</time></trkpt><trkpt lat="38.01244611734843" lon="15.769064360017406"><ele>582.0</ele><time>2026-04-25T09:12:53.999Z</time></trkpt><trkpt lat="38.012574784968415" lon="15.769092062795698"><ele>582.0</ele><time>2026-04-25T09:12:54.999Z</time></trkpt><trkpt lat="38.01272122534479" lon="15.76910318997171"><ele>580.6666666666666</ele><time>2026-04-25T09:12:55.999Z</time></trkpt><trkpt lat="38.01287577184796" lon="15.769117032647156"><ele>579.3333333333333</ele><time>2026-04-25T09:12:56.999Z</time></trkpt><trkpt lat="38.01303120049753" lon="15.769129602530331"><ele>578.0</ele><time>2026-04-25T09:12:57.999Z</time></trkpt><trkpt lat="38.01317447150913" lon="15.769136624890756"><ele>578.0</ele><time>2026-04-25T09:12:58.999Z</time></trkpt><trkpt lat="38.01331308603778" lon="15.769153463624265"><ele>578.0</ele><time>2026-04-25T09:12:59.999Z</time></trkpt><trkpt lat="38.01345048848862" lon="15.769138100813716"><ele>578.0</ele><time>2026-04-25T09:13:00.999Z</time></trkpt><trkpt lat="38.01358681088685" lon="15.769100037971961"><ele>578.0</ele><time>2026-04-25T09:13:01.999Z</time></trkpt><trkpt lat="38.01371650873788" lon="15.769079299461554"><ele>579.6</ele><time>2026-04-25T09:13:02.999Z</time></trkpt><trkpt lat="38.01380835435501" lon="15.769055692936533"><ele>581.1999999999999</ele><time>2026-04-25T09:13:03.999Z</time></trkpt><trkpt lat="38.01390223956608" lon="15.76907695640338"><ele>582.8</ele><time>2026-04-25T09:13:05.999Z</time></trkpt><trkpt lat="38.01395500789855" lon="15.769246896271566"><ele>584.4</ele><time>2026-04-25T09:13:07.999Z</time></trkpt><trkpt lat="38.01397091928299" lon="15.769365651026758"><ele>586.0</ele><time>2026-04-25T09:13:08.999Z</time></trkpt><trkpt lat="38.01396330046812" lon="15.769509775564497"><ele>586.25</ele><time>2026-04-25T09:13:09.999Z</time></trkpt><trkpt lat="38.01393513438651" lon="15.769669904622331"><ele>586.5</ele><time>2026-04-25T09:13:10.999Z</time></trkpt><trkpt lat="38.01393312271777" lon="15.769818328654363"><ele>586.75</ele><time>2026-04-25T09:13:11.999Z</time></trkpt><trkpt lat="38.01393374513571" lon="15.769952532774786"><ele>587.0</ele><time>2026-04-25T09:13:12.999Z</time></trkpt><trkpt lat="38.01392700711505" lon="15.770084659518934"><ele>591.0</ele><time>2026-04-25T09:13:13.999Z</time></trkpt><trkpt lat="38.013895685770464" lon="15.770227759079525"><ele>595.0</ele><time>2026-04-25T09:13:14.999Z</time></trkpt><trkpt lat="38.01384984269722" lon="15.770383383089074"><ele>599.0</ele><time>2026-04-25T09:13:15.999Z</time></trkpt><trkpt lat="38.01379671638176" lon="15.770544734636363"><ele>603.0</ele><time>2026-04-25T09:13:16.999Z</time></trkpt><trkpt lat="38.01373890043388" lon="15.770708083885227"><ele>603.0</ele><time>2026-04-25T09:13:17.999Z</time></trkpt><trkpt lat="38.013721128889124" lon="15.770884529500368"><ele>603.0</ele><time>2026-04-25T09:13:18.999Z</time></trkpt><trkpt lat="38.01370876697363" lon="15.771047690677351"><ele>603.0</ele><time>2026-04-25T09:13:19.999Z</time></trkpt><trkpt lat="38.013717753814234" lon="15.771212043494675"><ele>603.0</ele><time>2026-04-25T09:13:20.999Z</time></trkpt><trkpt lat="38.0137064090065" lon="15.77137449290361"><ele>606.25</ele><time>2026-04-25T09:13:21.999Z</time></trkpt><trkpt lat="38.01372455184436" lon="15.771545291789403"><ele>609.5</ele><time>2026-04-25T09:13:22.999Z</time></trkpt><trkpt lat="38.01377014669577" lon="15.771714448912661"><ele>612.75</ele><time>2026-04-25T09:13:23.999Z</time></trkpt><trkpt lat="38.0138161518448" lon="15.771898188376618"><ele>616.0</ele><time>2026-04-25T09:13:24.999Z</time></trkpt><trkpt lat="38.01387638536501" lon="15.772104935127112"><ele>619.0</ele><time>2026-04-25T09:13:25.999Z</time></trkpt><trkpt lat="38.013935705486766" lon="15.772297075744337"><ele>622.0</ele><time>2026-04-25T09:13:26.999Z</time></trkpt><trkpt lat="38.014001168452694" lon="15.772472285900305"><ele>625.0</ele><time>2026-04-25T09:13:27.999Z</time></trkpt><trkpt lat="38.01409727434443" lon="15.772623558287341"><ele>620.3333333333334</ele><time>2026-04-25T09:13:28.999Z</time></trkpt><trkpt lat="38.01422147097125" lon="15.77277383176396"><ele>615.6666666666666</ele><time>2026-04-25T09:13:29.999Z</time></trkpt><trkpt lat="38.01438886360703" lon="15.772940006282882"><ele>611.0</ele><time>2026-04-25T09:13:30.999Z</time></trkpt><trkpt lat="38.0145780137153" lon="15.773121634010815"><ele>611.0</ele><time>2026-04-25T09:13:31.999Z</time></trkpt><trkpt lat="38.01476194240857" lon="15.773305051903616"><ele>611.0</ele><time>2026-04-25T09:13:32.999Z</time></trkpt><trkpt lat="38.01490243056596" lon="15.773450185974156"><ele>611.0</ele><time>2026-04-25T09:13:33.999Z</time></trkpt><trkpt lat="38.01502779181841" lon="15.773558655809826"><ele>613.0</ele><time>2026-04-25T09:13:34.999Z</time></trkpt><trkpt lat="38.01513284202263" lon="15.773669860073205"><ele>615.0</ele><time>2026-04-25T09:13:35.999Z</time></trkpt><trkpt lat="38.015251938955416" lon="15.773753929970837"><ele>617.0</ele><time>2026-04-25T09:13:36.999Z</time></trkpt><trkpt lat="38.01537057085827" lon="15.773794759328036"><ele>619.0</ele><time>2026-04-25T09:13:37.999Z</time></trkpt><trkpt lat="38.01547506191577" lon="15.773820564431915"><ele>619.0</ele><time>2026-04-25T09:13:38.999Z</time></trkpt><trkpt lat="38.01558695885923" lon="15.77381268480864"><ele>619.0</ele><time>2026-04-25T09:13:39.999Z</time></trkpt><trkpt lat="38.01570502721586" lon="15.773770770515934"><ele>619.0</ele><time>2026-04-25T09:13:40.999Z</time></trkpt><trkpt lat="38.01582416338883" lon="15.773728893542033"><ele>619.0</ele><time>2026-04-25T09:13:41.999Z</time></trkpt><trkpt lat="38.015940775612" lon="15.773744565518253"><ele>620.0</ele><time>2026-04-25T09:13:42.999Z</time></trkpt><trkpt lat="38.016053218065395" lon="15.77377762820495"><ele>621.0</ele><time>2026-04-25T09:13:43.999Z</time></trkpt><trkpt lat="38.0161463696825" lon="15.77381900841465"><ele>622.0</ele><time>2026-04-25T09:13:44.999Z</time></trkpt><trkpt lat="38.016209450543826" lon="15.77386183896012"><ele>623.0</ele><time>2026-04-25T09:13:45.999Z</time></trkpt><trkpt lat="38.01624034398515" lon="15.77395101652983"><ele>624.0</ele><time>2026-04-25T09:13:46.999Z</time></trkpt><trkpt lat="38.01622121716859" lon="15.774062548206759"><ele>624.0</ele><time>2026-04-25T09:13:47.999Z</time></trkpt><trkpt lat="38.0161869950116" lon="15.774149558657781"><ele>624.0</ele><time>2026-04-25T09:13:48.999Z</time></trkpt><trkpt lat="38.01615833506262" lon="15.774236292816667"><ele>624.0</ele><time>2026-04-25T09:13:49.999Z</time></trkpt><trkpt lat="38.016132851035195" lon="15.774335930012139"><ele>624.0</ele><time>2026-04-25T09:13:50.999Z</time></trkpt><trkpt lat="38.01608336359919" lon="15.774447868878756"><ele>624.0</ele><time>2026-04-25T09:13:51.999Z</time></trkpt><trkpt lat="38.01604055667718" lon="15.774561528749585"><ele>624.0</ele><time>2026-04-25T09:13:52.999Z</time></trkpt><trkpt lat="38.01599181443576" lon="15.774697733371502"><ele>626.4</ele><time>2026-04-25T09:13:53.999Z</time></trkpt><trkpt lat="38.01594406225366" lon="15.774829168326518"><ele>628.8</ele><time>2026-04-25T09:13:54.999Z</time></trkpt><trkpt lat="38.01589536768697" lon="15.774964007197779"><ele>631.2</ele><time>2026-04-25T09:13:55.999Z</time></trkpt><trkpt lat="38.01584158753931" lon="15.775087770891307"><ele>633.6</ele><time>2026-04-25T09:13:56.999Z</time></trkpt><trkpt lat="38.01577611605038" lon="15.775169598281732"><ele>636.0</ele><time>2026-04-25T09:13:57.999Z</time></trkpt><trkpt lat="38.01569015737096" lon="15.775203859947316"><ele>636.0</ele><time>2026-04-25T09:13:58.999Z</time></trkpt><trkpt lat="38.01558176600304" lon="15.77516407351242"><ele>636.0</ele><time>2026-04-25T09:13:59.999Z</time></trkpt><trkpt lat="38.01544411944061" lon="15.77515703817194"><ele>636.0</ele><time>2026-04-25T09:14:00.999Z</time></trkpt><trkpt lat="38.015323503081284" lon="15.775162027784223"><ele>636.0</ele><time>2026-04-25T09:14:01.999Z</time></trkpt><trkpt lat="38.015218301002214" lon="15.775198373863251"><ele>638.0</ele><time>2026-04-25T09:14:02.999Z</time></trkpt><trkpt lat="38.01511683507689" lon="15.775223586336724"><ele>640.0</ele><time>2026-04-25T09:14:03.999Z</time></trkpt><trkpt lat="38.01500824175525" lon="15.775274195845558"><ele>642.0</ele><time>2026-04-25T09:14:04.999Z</time></trkpt><trkpt lat="38.01489945229063" lon="15.77531040247139"><ele>644.0</ele><time>2026-04-25T09:14:05.999Z</time></trkpt><trkpt lat="38.01479512794988" lon="15.77533791392565"><ele>646.0</ele><time>2026-04-25T09:14:06.999Z</time></trkpt><trkpt lat="38.01470661003551" lon="15.775375437197926"><ele>646.0</ele><time>2026-04-25T09:14:07.999Z</time></trkpt><trkpt lat="38.014634968085176" lon="15.775427864276208"><ele>646.0</ele><time>2026-04-25T09:14:08.999Z</time></trkpt><trkpt lat="38.014570830119396" lon="15.775484295119671"><ele>646.0</ele><time>2026-04-25T09:14:09.999Z</time></trkpt><trkpt lat="38.01450825766782" lon="15.775529702489171"><ele>646.0</ele><time>2026-04-25T09:14:10.999Z</time></trkpt><trkpt lat="38.01449389117299" lon="15.77563128461726"><ele>646.0</ele><time>2026-04-25T09:14:11.999Z</time></trkpt><trkpt lat="38.014494424305305" lon="15.77571929702217"><ele>646.0</ele><time>2026-04-25T09:14:12.999Z</time></trkpt><trkpt lat="38.01452270115574" lon="15.775816924654528"><ele>646.0</ele><time>2026-04-25T09:14:13.999Z</time></trkpt><trkpt lat="38.014493467694265" lon="15.775917729257321"><ele>646.0</ele><time>2026-04-25T09:14:14.999Z</time></trkpt><trkpt lat="38.014438438824115" lon="15.77600914163466"><ele>646.0</ele><time>2026-04-25T09:14:15.999Z</time></trkpt><trkpt lat="38.01436877822704" lon="15.77606293152202"><ele>646.0</ele><time>2026-04-25T09:14:16.999Z</time></trkpt><trkpt lat="38.01428524994981" lon="15.776093168579491"><ele>646.0</ele><time>2026-04-25T09:14:17.999Z</time></trkpt><trkpt lat="38.01421360351308" lon="15.776148303814379"><ele>646.0</ele><time>2026-04-25T09:14:18.999Z</time></trkpt><trkpt lat="38.01417465831798" lon="15.776234856486738"><ele>647.0</ele><time>2026-04-25T09:14:19.999Z</time></trkpt><trkpt lat="38.014125805262466" lon="15.776324332074871"><ele>648.0</ele><time>2026-04-25T09:14:20.999Z</time></trkpt><trkpt lat="38.01404330860205" lon="15.776389921695387"><ele>649.0</ele><time>2026-04-25T09:14:21.999Z</time></trkpt><trkpt lat="38.01394446802565" lon="15.776467949114615"><ele>650.0</ele><time>2026-04-25T09:14:22.999Z</time></trkpt><trkpt lat="38.013849002240825" lon="15.776543123588315"><ele>651.0</ele><time>2026-04-25T09:14:23.999Z</time></trkpt><trkpt lat="38.013804067396556" lon="15.776603151969754"><ele>651.0</ele><time>2026-04-25T09:14:25.999Z</time></trkpt><trkpt lat="38.01391069656745" lon="15.776494542429255"><ele>651.0</ele><time>2026-04-25T09:14:55.999Z</time></trkpt><trkpt lat="38.013976422932835" lon="15.776442786286063"><ele>651.0</ele><time>2026-04-25T09:14:57.999Z</time></trkpt><trkpt lat="38.01405275041028" lon="15.776382682302849"><ele>651.0</ele><time>2026-04-25T09:14:59.999Z</time></trkpt><trkpt lat="38.01412308414583" lon="15.776336027262822"><ele>651.0</ele><time>2026-04-25T09:15:02.999Z</time></trkpt><trkpt lat="38.01402416390468" lon="15.776420485305056"><ele>651.0</ele><time>2026-04-25T09:15:25.999Z</time></trkpt><trkpt lat="38.013969247342885" lon="15.776467949020113"><ele>651.0</ele><time>2026-04-25T09:15:26.999Z</time></trkpt><trkpt lat="38.013861178697525" lon="15.776539836740099"><ele>651.0</ele><time>2026-04-25T09:15:28.999Z</time></trkpt><trkpt lat="38.013804743684304" lon="15.776594538009352"><ele>651.0</ele><time>2026-04-25T09:15:29.999Z</time></trkpt><trkpt lat="38.01374747776708" lon="15.77667535007038"><ele>651.0</ele><time>2026-04-25T09:15:30.999Z</time></trkpt><trkpt lat="38.01371959113367" lon="15.776762306784425"><ele>651.0</ele><time>2026-04-25T09:15:31.999Z</time></trkpt><trkpt lat="38.01369524883392" lon="15.776872148472442"><ele>653.1999999999999</ele><time>2026-04-25T09:15:32.999Z</time></trkpt><trkpt lat="38.01364758954657" lon="15.776988421168939"><ele>655.4</ele><time>2026-04-25T09:15:33.999Z</time></trkpt><trkpt lat="38.01359369482235" lon="15.777118603711086"><ele>657.6</ele><time>2026-04-25T09:15:34.999Z</time></trkpt><trkpt lat="38.01357439908326" lon="15.77724246809026"><ele>659.8</ele><time>2026-04-25T09:15:35.999Z</time></trkpt><trkpt lat="38.0135261241704" lon="15.77736106105716"><ele>662.0</ele><time>2026-04-25T09:15:36.999Z</time></trkpt><trkpt lat="38.01349624507454" lon="15.777488083093537"><ele>662.0</ele><time>2026-04-25T09:15:37.999Z</time></trkpt><trkpt lat="38.013518317796205" lon="15.777608457977133"><ele>662.0</ele><time>2026-04-25T09:15:38.999Z</time></trkpt><trkpt lat="38.013517249860165" lon="15.777710322176674"><ele>662.0</ele><time>2026-04-25T09:15:39.999Z</time></trkpt><trkpt lat="38.013520750034736" lon="15.777814367842849"><ele>662.0</ele><time>2026-04-25T09:15:40.999Z</time></trkpt><trkpt lat="38.01349943987993" lon="15.777948169272657"><ele>662.0</ele><time>2026-04-25T09:15:41.999Z</time></trkpt><trkpt lat="38.0134826963711" lon="15.778092746441638"><ele>663.8333333333333</ele><time>2026-04-25T09:15:42.999Z</time></trkpt><trkpt lat="38.01346770412936" lon="15.778221498714387"><ele>665.6666666666666</ele><time>2026-04-25T09:15:43.999Z</time></trkpt><trkpt lat="38.01345518919238" lon="15.778314899450919"><ele>667.5</ele><time>2026-04-25T09:15:44.999Z</time></trkpt><trkpt lat="38.01341429125682" lon="15.778437495711612"><ele>669.3333333333334</ele><time>2026-04-25T09:15:46.999Z</time></trkpt><trkpt lat="38.01333207588477" lon="15.778442968502887"><ele>671.1666666666667</ele><time>2026-04-25T09:15:48.999Z</time></trkpt><trkpt lat="38.013271035553856" lon="15.778370697059536"><ele>673.0</ele><time>2026-04-25T09:15:49.999Z</time></trkpt><trkpt lat="38.01318296769504" lon="15.778305922855854"><ele>675.2</ele><time>2026-04-25T09:15:50.999Z</time></trkpt><trkpt lat="38.0130754157946" lon="15.778244825998419"><ele>677.4</ele><time>2026-04-25T09:15:51.999Z</time></trkpt><trkpt lat="38.01297784563651" lon="15.778233335464293"><ele>679.6</ele><time>2026-04-25T09:15:52.999Z</time></trkpt><trkpt lat="38.01290898494403" lon="15.778185759490444"><ele>681.8000000000001</ele><time>2026-04-25T09:15:53.999Z</time></trkpt><trkpt lat="38.01280571760972" lon="15.77809808200817"><ele>684.0</ele><time>2026-04-25T09:15:55.999Z</time></trkpt><trkpt lat="38.0127440286852" lon="15.778006218855335"><ele>684.0</ele><time>2026-04-25T09:15:56.999Z</time></trkpt><trkpt lat="38.012699295030515" lon="15.777895602295272"><ele>684.0</ele><time>2026-04-25T09:15:57.999Z</time></trkpt><trkpt lat="38.012675439087985" lon="15.777804040482335"><ele>684.0</ele><time>2026-04-25T09:15:58.999Z</time></trkpt><trkpt lat="38.012628291399366" lon="15.777693377774398"><ele>684.0</ele><time>2026-04-25T09:15:59.999Z</time></trkpt><trkpt lat="38.01261633083557" lon="15.77760443284659"><ele>684.0</ele><time>2026-04-25T09:16:00.999Z</time></trkpt><trkpt lat="38.012583319830036" lon="15.777531163636635"><ele>684.0</ele><time>2026-04-25T09:16:01.999Z</time></trkpt><trkpt lat="38.01252275226094" lon="15.777469300902832"><ele>684.0</ele><time>2026-04-25T09:16:02.999Z</time></trkpt><trkpt lat="38.01245107636914" lon="15.777398343037014"><ele>684.0</ele><time>2026-04-25T09:16:03.999Z</time></trkpt><trkpt lat="38.0123811009125" lon="15.77733992993764"><ele>684.0</ele><time>2026-04-25T09:16:04.999Z</time></trkpt><trkpt lat="38.01229499513404" lon="15.777293961197987"><ele>684.0</ele><time>2026-04-25T09:16:05.999Z</time></trkpt><trkpt lat="38.012217218052406" lon="15.77723535639729"><ele>684.0</ele><time>2026-04-25T09:16:06.999Z</time></trkpt><trkpt lat="38.012157290445664" lon="15.777175191281065"><ele>684.0</ele><time>2026-04-25T09:16:07.999Z</time></trkpt><trkpt lat="38.01209973027758" lon="15.777134445607262"><ele>683.9999999999999</ele><time>2026-04-25T09:16:08.999Z</time></trkpt><trkpt lat="38.01203256720382" lon="15.777137314702706"><ele>684.0</ele><time>2026-04-25T09:16:09.999Z</time></trkpt><trkpt lat="38.01196937188434" lon="15.777158554916456"><ele>684.0</ele><time>2026-04-25T09:16:11Z</time></trkpt><trkpt lat="38.01190558159295" lon="15.777198333222895"><ele>684.0</ele><time>2026-04-25T09:16:12Z</time></trkpt><trkpt lat="38.01186119816214" lon="15.77726440602324"><ele>684.0</ele><time>2026-04-25T09:16:13Z</time></trkpt><trkpt lat="38.01183005553609" lon="15.77735803283764"><ele>683.9999999999999</ele><time>2026-04-25T09:16:14Z</time></trkpt><trkpt lat="38.01179666499458" lon="15.77745411436685"><ele>684.0</ele><time>2026-04-25T09:16:15Z</time></trkpt><trkpt lat="38.01174725510078" lon="15.77753858573151"><ele>684.0</ele><time>2026-04-25T09:16:16Z</time></trkpt><trkpt lat="38.01170182679223" lon="15.777606504197063"><ele>684.0</ele><time>2026-04-25T09:16:17Z</time></trkpt><trkpt lat="38.01170244757545" lon="15.77777132681007"><ele>684.0</ele><time>2026-04-25T09:16:19Z</time></trkpt><trkpt lat="38.01173662874595" lon="15.777854457195167"><ele>684.0</ele><time>2026-04-25T09:16:20Z</time></trkpt><trkpt lat="38.01178471168212" lon="15.777934884161528"><ele>684.0</ele><time>2026-04-25T09:16:21Z</time></trkpt><trkpt lat="38.01184603229518" lon="15.778012483586936"><ele>684.0</ele><time>2026-04-25T09:16:22Z</time></trkpt><trkpt lat="38.01190884039948" lon="15.77809743492751"><ele>683.3333333333334</ele><time>2026-04-25T09:16:23Z</time></trkpt><trkpt lat="38.01197341080815" lon="15.778157061680778"><ele>682.6666666666666</ele><time>2026-04-25T09:16:24Z</time></trkpt><trkpt lat="38.01205320360763" lon="15.778199938038039"><ele>682.0</ele><time>2026-04-25T09:16:25Z</time></trkpt><trkpt lat="38.01213550655814" lon="15.778239650992969"><ele>681.3333333333333</ele><time>2026-04-25T09:16:26Z</time></trkpt><trkpt lat="38.01221644349675" lon="15.778267205839672"><ele>680.6666666666666</ele><time>2026-04-25T09:16:27Z</time></trkpt><trkpt lat="38.012275982556474" lon="15.778301714210121"><ele>680.0</ele><time>2026-04-25T09:16:28Z</time></trkpt><trkpt lat="38.012318821360715" lon="15.778378986819385"><ele>680.0</ele><time>2026-04-25T09:16:29Z</time></trkpt><trkpt lat="38.012361154724005" lon="15.778480839860947"><ele>680.0</ele><time>2026-04-25T09:16:30Z</time></trkpt><trkpt lat="38.01239940468489" lon="15.778590394486598"><ele>680.0</ele><time>2026-04-25T09:16:31Z</time></trkpt><trkpt lat="38.01243046351083" lon="15.778700208502686"><ele>680.0</ele><time>2026-04-25T09:16:32Z</time></trkpt><trkpt lat="38.01244756829372" lon="15.77882083323893"><ele>680.0</ele><time>2026-04-25T09:16:33Z</time></trkpt><trkpt lat="38.012480420712365" lon="15.778942659081906"><ele>682.1666666666666</ele><time>2026-04-25T09:16:34Z</time></trkpt><trkpt lat="38.01252449825621" lon="15.779042572541087"><ele>684.3333333333333</ele><time>2026-04-25T09:16:35Z</time></trkpt><trkpt lat="38.01252044338927" lon="15.77914571916625"><ele>686.5</ele><time>2026-04-25T09:16:36Z</time></trkpt><trkpt lat="38.01252792552365" lon="15.779250973801009"><ele>688.6666666666666</ele><time>2026-04-25T09:16:37Z</time></trkpt><trkpt lat="38.01253563287855" lon="15.77937600998679"><ele>690.8333333333334</ele><time>2026-04-25T09:16:38Z</time></trkpt><trkpt lat="38.012540697075956" lon="15.779493275143595"><ele>693.0</ele><time>2026-04-25T09:16:39Z</time></trkpt><trkpt lat="38.01253242811338" lon="15.779612815308065"><ele>694.8</ele><time>2026-04-25T09:16:40Z</time></trkpt><trkpt lat="38.01251538430517" lon="15.77973313610567"><ele>696.5999999999999</ele><time>2026-04-25T09:16:41Z</time></trkpt><trkpt lat="38.01249968174144" lon="15.77986208437057"><ele>698.4000000000001</ele><time>2026-04-25T09:16:42Z</time></trkpt><trkpt lat="38.01248716324271" lon="15.779972510712723"><ele>700.2</ele><time>2026-04-25T09:16:43Z</time></trkpt><trkpt lat="38.01247560890295" lon="15.780091240911611"><ele>702.0</ele><time>2026-04-25T09:16:44Z</time></trkpt><trkpt lat="38.01246429793357" lon="15.78021682125792"><ele>696.8</ele><time>2026-04-25T09:16:45Z</time></trkpt><trkpt lat="38.01245983469019" lon="15.78033548037545"><ele>691.6</ele><time>2026-04-25T09:16:46Z</time></trkpt><trkpt lat="38.0124577306548" lon="15.780456108606312"><ele>686.4</ele><time>2026-04-25T09:16:47Z</time></trkpt><trkpt lat="38.012438226338745" lon="15.780567169434375"><ele>681.1999999999999</ele><time>2026-04-25T09:16:48Z</time></trkpt><trkpt lat="38.012408802102584" lon="15.780678366285697"><ele>676.0</ele><time>2026-04-25T09:16:49Z</time></trkpt><trkpt lat="38.01238374393323" lon="15.780795498401183"><ele>676.0</ele><time>2026-04-25T09:16:50Z</time></trkpt><trkpt lat="38.01240532548456" lon="15.780934376169776"><ele>676.0</ele><time>2026-04-25T09:16:51Z</time></trkpt><trkpt lat="38.01238851134733" lon="15.78105469884893"><ele>676.0</ele><time>2026-04-25T09:16:52Z</time></trkpt><trkpt lat="38.01236775242253" lon="15.78118928867046"><ele>676.0</ele><time>2026-04-25T09:16:53Z</time></trkpt><trkpt lat="38.012361361915914" lon="15.781317016591748"><ele>676.0</ele><time>2026-04-25T09:16:54Z</time></trkpt><trkpt lat="38.01233815702076" lon="15.781401449542729"><ele>679.5999999999999</ele><time>2026-04-25T09:16:55Z</time></trkpt><trkpt lat="38.01229539271856" lon="15.78150959107242"><ele>683.2</ele><time>2026-04-25T09:16:57Z</time></trkpt><trkpt lat="38.01231186431618" lon="15.7816143737999"><ele>686.8</ele><time>2026-04-25T09:17:03.999Z</time></trkpt><trkpt lat="38.01238018508014" lon="15.781730213866664"><ele>690.4000000000001</ele><time>2026-04-25T09:17:05.999Z</time></trkpt><trkpt lat="38.01237932391452" lon="15.781810912560625"><ele>694.0</ele><time>2026-04-25T09:17:06.999Z</time></trkpt><trkpt lat="38.01239742681944" lon="15.781937345121612"><ele>697.0</ele><time>2026-04-25T09:17:08.999Z</time></trkpt><trkpt lat="38.01239775240374" lon="15.782020499572782"><ele>700.0</ele><time>2026-04-25T09:17:09.999Z</time></trkpt><trkpt lat="38.01239184589372" lon="15.782105203184164"><ele>703.0</ele><time>2026-04-25T09:17:10.999Z</time></trkpt><trkpt lat="38.012373446694774" lon="15.78220419911418"><ele>706.0</ele><time>2026-04-25T09:17:11.999Z</time></trkpt><trkpt lat="38.0123453872062" lon="15.782312319035443"><ele>709.0</ele><time>2026-04-25T09:17:12.999Z</time></trkpt><trkpt lat="38.012315116968246" lon="15.782439582694964"><ele>712.0</ele><time>2026-04-25T09:17:13.999Z</time></trkpt><trkpt lat="38.01229668833934" lon="15.78256628072575"><ele>712.0</ele><time>2026-04-25T09:17:14.999Z</time></trkpt><trkpt lat="38.0122804284151" lon="15.782679192017099"><ele>712.0</ele><time>2026-04-25T09:17:15.999Z</time></trkpt><trkpt lat="38.01225621642502" lon="15.782791411380899"><ele>712.0</ele><time>2026-04-25T09:17:16.999Z</time></trkpt><trkpt lat="38.01222176670004" lon="15.782927984453135"><ele>712.0</ele><time>2026-04-25T09:17:17.999Z</time></trkpt><trkpt lat="38.01219035436737" lon="15.783046346338667"><ele>712.0</ele><time>2026-04-25T09:17:18.999Z</time></trkpt><trkpt lat="38.01215842827595" lon="15.783157232493412"><ele>711.6</ele><time>2026-04-25T09:17:19.999Z</time></trkpt><trkpt lat="38.01213146004523" lon="15.783263362332415"><ele>711.2</ele><time>2026-04-25T09:17:20.999Z</time></trkpt><trkpt lat="38.01210116209588" lon="15.783406238640756"><ele>710.8</ele><time>2026-04-25T09:17:21.999Z</time></trkpt><trkpt lat="38.012068061416066" lon="15.783520951808507"><ele>710.4</ele><time>2026-04-25T09:17:22.999Z</time></trkpt><trkpt lat="38.01203209617742" lon="15.783625911364581"><ele>710.0</ele><time>2026-04-25T09:17:23.999Z</time></trkpt><trkpt lat="38.011997253779775" lon="15.783722176526087"><ele>708.6666666666666</ele><time>2026-04-25T09:17:24.999Z</time></trkpt><trkpt lat="38.01196534182379" lon="15.783810345246275"><ele>707.3333333333333</ele><time>2026-04-25T09:17:25.999Z</time></trkpt><trkpt lat="38.01193222034821" lon="15.7839012958252"><ele>706.0</ele><time>2026-04-25T09:17:26.999Z</time></trkpt><trkpt lat="38.011904336158274" lon="15.783977763113105"><ele>704.6666666666666</ele><time>2026-04-25T09:17:27.999Z</time></trkpt><trkpt lat="38.01187605499802" lon="15.784055318986624"><ele>703.3333333333334</ele><time>2026-04-25T09:17:28.999Z</time></trkpt><trkpt lat="38.011851140348234" lon="15.784138826988633"><ele>702.0</ele><time>2026-04-25T09:17:29.999Z</time></trkpt><trkpt lat="38.011890227532625" lon="15.78425675958779"><ele>702.0</ele><time>2026-04-25T09:17:31.999Z</time></trkpt><trkpt lat="38.01198009400558" lon="15.78421158412584"><ele>702.0</ele><time>2026-04-25T09:17:33.999Z</time></trkpt><trkpt lat="38.01203582465755" lon="15.784131314649711"><ele>702.0</ele><time>2026-04-25T09:17:34.999Z</time></trkpt><trkpt lat="38.01210487335026" lon="15.784059217435484"><ele>702.0</ele><time>2026-04-25T09:17:35.999Z</time></trkpt><trkpt lat="38.01214886795096" lon="15.783999435171632"><ele>702.0</ele><time>2026-04-25T09:17:36.999Z</time></trkpt><trkpt lat="38.01221117250309" lon="15.783937819552545"><ele>702.0</ele><time>2026-04-25T09:17:37.999Z</time></trkpt><trkpt lat="38.01227449792294" lon="15.783878576570599"><ele>702.0</ele><time>2026-04-25T09:17:38.999Z</time></trkpt><trkpt lat="38.01234332132491" lon="15.783814921233981"><ele>702.0</ele><time>2026-04-25T09:17:39.999Z</time></trkpt><trkpt lat="38.01240264358461" lon="15.783761679621078"><ele>702.0</ele><time>2026-04-25T09:17:40.999Z</time></trkpt><trkpt lat="38.01249973777759" lon="15.783712110064926"><ele>702.0</ele><time>2026-04-25T09:17:42.999Z</time></trkpt><trkpt lat="38.012585609233206" lon="15.783697554750539"><ele>702.0</ele><time>2026-04-25T09:17:45.999Z</time></trkpt><trkpt lat="38.012650546567706" lon="15.783702934309831"><ele>702.0</ele><time>2026-04-25T09:17:47.999Z</time></trkpt><trkpt lat="38.01273005002331" lon="15.783734332501524"><ele>696.1666666666666</ele><time>2026-04-25T09:17:50.999Z</time></trkpt><trkpt lat="38.01273293923048" lon="15.783863696592212"><ele>690.3333333333334</ele><time>2026-04-25T09:17:52.999Z</time></trkpt><trkpt lat="38.012669970810464" lon="15.783917688677597"><ele>684.5</ele><time>2026-04-25T09:17:53.999Z</time></trkpt><trkpt lat="38.01261902503758" lon="15.78400759449403"><ele>678.6666666666667</ele><time>2026-04-25T09:17:54.999Z</time></trkpt><trkpt lat="38.01259534028449" lon="15.784089611448211"><ele>672.8333333333334</ele><time>2026-04-25T09:17:55.999Z</time></trkpt><trkpt lat="38.012566830467236" lon="15.784183709295505"><ele>667.0</ele><time>2026-04-25T09:17:57.999Z</time></trkpt><trkpt lat="38.01252637798851" lon="15.78433406614674"><ele>663.5</ele><time>2026-04-25T09:17:59.999Z</time></trkpt><trkpt lat="38.012549582157014" lon="15.784491199473345"><ele>660.0</ele><time>2026-04-25T09:18:01.999Z</time></trkpt><trkpt lat="38.01254867196475" lon="15.784636666058205"><ele>656.5</ele><time>2026-04-25T09:18:03.999Z</time></trkpt><trkpt lat="38.01242909086194" lon="15.784675690934037"><ele>653.0</ele><time>2026-04-25T09:18:05.999Z</time></trkpt><trkpt lat="38.0123521466742" lon="15.784748970907266"><ele>655.3333333333333</ele><time>2026-04-25T09:18:07.999Z</time></trkpt><trkpt lat="38.01233951868017" lon="15.784829532661451"><ele>657.6666666666666</ele><time>2026-04-25T09:18:08.999Z</time></trkpt><trkpt lat="38.01234863784775" lon="15.78492551135206"><ele>660.0</ele><time>2026-04-25T09:18:09.999Z</time></trkpt><trkpt lat="38.012351745166185" lon="15.785047385900455"><ele>662.3333333333334</ele><time>2026-04-25T09:18:10.999Z</time></trkpt><trkpt lat="38.012351708687376" lon="15.78515686585312"><ele>664.6666666666667</ele><time>2026-04-25T09:18:11.999Z</time></trkpt><trkpt lat="38.01234299240465" lon="15.785265253076917"><ele>667.0</ele><time>2026-04-25T09:18:12.999Z</time></trkpt><trkpt lat="38.01230052896863" lon="15.785381060600054"><ele>667.0</ele><time>2026-04-25T09:18:13.999Z</time></trkpt><trkpt lat="38.01229019117715" lon="15.785512003953556"><ele>667.0</ele><time>2026-04-25T09:18:14.999Z</time></trkpt><trkpt lat="38.01226320436725" lon="15.78562255356195"><ele>667.0</ele><time>2026-04-25T09:18:16Z</time></trkpt><trkpt lat="38.012254017825356" lon="15.785745331806439"><ele>667.0</ele><time>2026-04-25T09:18:17Z</time></trkpt><trkpt lat="38.01224019140842" lon="15.785860637348383"><ele>667.0</ele><time>2026-04-25T09:18:18Z</time></trkpt><trkpt lat="38.01223179118134" lon="15.7859665003824"><ele>667.0</ele><time>2026-04-25T09:18:19Z</time></trkpt><trkpt lat="38.01222936211044" lon="15.786048164905399"><ele>667.0</ele><time>2026-04-25T09:18:20Z</time></trkpt><trkpt lat="38.012246178765125" lon="15.786162969106158"><ele>667.0</ele><time>2026-04-25T09:18:22Z</time></trkpt><trkpt lat="38.01235479945316" lon="15.78614641527712"><ele>667.0</ele><time>2026-04-25T09:18:24Z</time></trkpt><trkpt lat="38.01241675267031" lon="15.786059361152903"><ele>667.0</ele><time>2026-04-25T09:18:25Z</time></trkpt><trkpt lat="38.01247638343906" lon="15.785968887642317"><ele>661.3333333333334</ele><time>2026-04-25T09:18:26Z</time></trkpt><trkpt lat="38.012516427587215" lon="15.785888618119536"><ele>655.6666666666667</ele><time>2026-04-25T09:18:27Z</time></trkpt><trkpt lat="38.01254721958337" lon="15.785804165643993"><ele>650.0</ele><time>2026-04-25T09:18:28Z</time></trkpt><trkpt lat="38.01257968336304" lon="15.78571845334394"><ele>644.3333333333334</ele><time>2026-04-25T09:18:29Z</time></trkpt><trkpt lat="38.01261692887004" lon="15.785614211405651"><ele>638.6666666666666</ele><time>2026-04-25T09:18:30Z</time></trkpt><trkpt lat="38.01268578341437" lon="15.785550489396835"><ele>633.0</ele><time>2026-04-25T09:18:31Z</time></trkpt><trkpt lat="38.01274958176194" lon="15.785498160625535"><ele>633.0</ele><time>2026-04-25T09:18:32Z</time></trkpt><trkpt lat="38.01280686077124" lon="15.785458451430552"><ele>633.0</ele><time>2026-04-25T09:18:33Z</time></trkpt><trkpt lat="38.01292708288598" lon="15.785430582870621"><ele>633.0</ele><time>2026-04-25T09:18:35Z</time></trkpt><trkpt lat="38.01299288110625" lon="15.785436125954401"><ele>633.0</ele><time>2026-04-25T09:18:36Z</time></trkpt><trkpt lat="38.01306105293611" lon="15.78542855131806"><ele>633.0</ele><time>2026-04-25T09:18:37Z</time></trkpt><trkpt lat="38.01312894210617" lon="15.785409408506215"><ele>633.0</ele><time>2026-04-25T09:18:38Z</time></trkpt><trkpt lat="38.01320400851114" lon="15.78538612145623"><ele>633.0</ele><time>2026-04-25T09:18:39Z</time></trkpt><trkpt lat="38.01327398436897" lon="15.785351269531285"><ele>633.0</ele><time>2026-04-25T09:18:40Z</time></trkpt><trkpt lat="38.01333885378509" lon="15.785294998984474"><ele>633.0</ele><time>2026-04-25T09:18:41Z</time></trkpt><trkpt lat="38.0133953052812" lon="15.785208453430933"><ele>633.0</ele><time>2026-04-25T09:18:42Z</time></trkpt><trkpt lat="38.013462861705484" lon="15.785127576808641"><ele>633.0</ele><time>2026-04-25T09:18:43Z</time></trkpt><trkpt lat="38.01353462726929" lon="15.785056388867726"><ele>633.0</ele><time>2026-04-25T09:18:44Z</time></trkpt><trkpt lat="38.01360020987618" lon="15.78499029305073"><ele>631.3333333333334</ele><time>2026-04-25T09:18:45Z</time></trkpt><trkpt lat="38.013648772807805" lon="15.784933430345118"><ele>629.6666666666666</ele><time>2026-04-25T09:18:46Z</time></trkpt><trkpt lat="38.01367189065234" lon="15.784798111910588"><ele>628.0</ele><time>2026-04-25T09:18:48Z</time></trkpt><trkpt lat="38.01369163389362" lon="15.784710017687582"><ele>626.3333333333333</ele><time>2026-04-25T09:18:49Z</time></trkpt><trkpt lat="38.013757714695586" lon="15.784609950734279"><ele>624.6666666666666</ele><time>2026-04-25T09:18:50Z</time></trkpt><trkpt lat="38.013812676826255" lon="15.784511656147519"><ele>623.0</ele><time>2026-04-25T09:18:51Z</time></trkpt><trkpt lat="38.01385834040566" lon="15.784435205393358"><ele>623.0</ele><time>2026-04-25T09:18:52Z</time></trkpt><trkpt lat="38.01391108723979" lon="15.784384414938387"><ele>623.0</ele><time>2026-04-25T09:18:53Z</time></trkpt><trkpt lat="38.014025487383535" lon="15.78436500308974"><ele>623.0</ele><time>2026-04-25T09:18:55Z</time></trkpt><trkpt lat="38.01408242488134" lon="15.784419468677953"><ele>623.0</ele><time>2026-04-25T09:18:57Z</time></trkpt><trkpt lat="38.01404272855884" lon="15.784598791783962"><ele>623.0</ele><time>2026-04-25T09:18:59Z</time></trkpt><trkpt lat="38.014046230430196" lon="15.784716616487373"><ele>623.0</ele><time>2026-04-25T09:19:00Z</time></trkpt><trkpt lat="38.01402501047841" lon="15.78482841993564"><ele>623.0</ele><time>2026-04-25T09:19:01Z</time></trkpt><trkpt lat="38.01400671024054" lon="15.784937229792888"><ele>623.0</ele><time>2026-04-25T09:19:02Z</time></trkpt><trkpt lat="38.01399871858078" lon="15.785038587149826"><ele>623.0</ele><time>2026-04-25T09:19:03Z</time></trkpt><trkpt lat="38.013996160311905" lon="15.785145833168565"><ele>623.0</ele><time>2026-04-25T09:19:04Z</time></trkpt><trkpt lat="38.01400988015768" lon="15.785268627011927"><ele>623.0</ele><time>2026-04-25T09:19:05Z</time></trkpt><trkpt lat="38.01401631160899" lon="15.78538357505513"><ele>620.3333333333333</ele><time>2026-04-25T09:19:06Z</time></trkpt><trkpt lat="38.01401744238269" lon="15.785496822169227"><ele>617.6666666666666</ele><time>2026-04-25T09:19:07Z</time></trkpt><trkpt lat="38.014014512888366" lon="15.78559819119062"><ele>615.0</ele><time>2026-04-25T09:19:08Z</time></trkpt><trkpt lat="38.01401925526311" lon="15.785707182089963"><ele>612.3333333333334</ele><time>2026-04-25T09:19:09Z</time></trkpt><trkpt lat="38.01403364544173" lon="15.785808576609366"><ele>609.6666666666667</ele><time>2026-04-25T09:19:10Z</time></trkpt><trkpt lat="38.01404392736464" lon="15.785908399328834"><ele>607.0</ele><time>2026-04-25T09:19:11Z</time></trkpt><trkpt lat="38.01405762121769" lon="15.786012851515835"><ele>605.1428571428571</ele><time>2026-04-25T09:19:12Z</time></trkpt><trkpt lat="38.014046018180764" lon="15.786114769706042"><ele>603.2857142857142</ele><time>2026-04-25T09:19:13Z</time></trkpt><trkpt lat="38.01405028843731" lon="15.786200399564246"><ele>601.4285714285714</ele><time>2026-04-25T09:19:14Z</time></trkpt><trkpt lat="38.01405135742243" lon="15.786288648552386"><ele>599.5714285714286</ele><time>2026-04-25T09:19:15Z</time></trkpt><trkpt lat="38.01404902707102" lon="15.78637971111472"><ele>597.7142857142858</ele><time>2026-04-25T09:19:16Z</time></trkpt><trkpt lat="38.014041390390545" lon="15.786463209575462"><ele>595.8571428571429</ele><time>2026-04-25T09:19:17Z</time></trkpt><trkpt lat="38.014025877187066" lon="15.786542190146921"><ele>594.0</ele><time>2026-04-25T09:19:18Z</time></trkpt><trkpt lat="38.01398257329547" lon="15.786665572363363"><ele>594.0</ele><time>2026-04-25T09:19:20Z</time></trkpt><trkpt lat="38.013950709352834" lon="15.786747378976276"><ele>594.0</ele><time>2026-04-25T09:19:21Z</time></trkpt><trkpt lat="38.01395438362139" lon="15.786859591956427"><ele>594.0</ele><time>2026-04-25T09:19:21.999Z</time></trkpt><trkpt lat="38.0139491020309" lon="15.786957850766843"><ele>594.0</ele><time>2026-04-25T09:19:22.999Z</time></trkpt><trkpt lat="38.013922951740916" lon="15.787048888750096"><ele>594.0</ele><time>2026-04-25T09:19:23.999Z</time></trkpt><trkpt lat="38.01389633811974" lon="15.787135497134857"><ele>594.0</ele><time>2026-04-25T09:19:24.999Z</time></trkpt><trkpt lat="38.01390298893409" lon="15.787301576380173"><ele>592.0</ele><time>2026-04-25T09:19:26.999Z</time></trkpt><trkpt lat="38.01388733835862" lon="15.787412520056767"><ele>590.0</ele><time>2026-04-25T09:19:28.999Z</time></trkpt><trkpt lat="38.01394783940384" lon="15.787475339390978"><ele>588.0</ele><time>2026-04-25T09:19:29.999Z</time></trkpt><trkpt lat="38.01392686870754" lon="15.787551014296506"><ele>586.0</ele><time>2026-04-25T09:19:31.999Z</time></trkpt><trkpt lat="38.01392686870025" lon="15.78771325869196"><ele>584.0</ele><time>2026-04-25T09:19:33.999Z</time></trkpt><trkpt lat="38.013880308570634" lon="15.78778894647576"><ele>582.0</ele><time>2026-04-25T09:19:34.999Z</time></trkpt><trkpt lat="38.013884337114355" lon="15.787937338150414"><ele>580.75</ele><time>2026-04-25T09:19:36.999Z</time></trkpt><trkpt lat="38.01387773749355" lon="15.788086723263397"><ele>579.5</ele><time>2026-04-25T09:19:38.999Z</time></trkpt><trkpt lat="38.01384315410338" lon="15.788221150718867"><ele>578.25</ele><time>2026-04-25T09:19:40.999Z</time></trkpt><trkpt lat="38.013809363570424" lon="15.788368890392608"><ele>577.0</ele><time>2026-04-25T09:19:42.999Z</time></trkpt><trkpt lat="38.013819672010975" lon="15.78852608589572"><ele>576.0</ele><time>2026-04-25T09:19:44.999Z</time></trkpt><trkpt lat="38.01382409050661" lon="15.788614674533688"><ele>575.0</ele><time>2026-04-25T09:19:45.999Z</time></trkpt><trkpt lat="38.01382182250724" lon="15.788696923185947"><ele>574.0</ele><time>2026-04-25T09:19:46.999Z</time></trkpt><trkpt lat="38.01381516585259" lon="15.78877687698519"><ele>573.0</ele><time>2026-04-25T09:19:47.999Z</time></trkpt><trkpt lat="38.013781466190295" lon="15.788918325344259"><ele>572.0</ele><time>2026-04-25T09:19:49.999Z</time></trkpt><trkpt lat="38.013772334320805" lon="15.7890040269241"><ele>571.0</ele><time>2026-04-25T09:19:50.999Z</time></trkpt><trkpt lat="38.01377256218735" lon="15.789096255469461"><ele>571.0</ele><time>2026-04-25T09:19:51.999Z</time></trkpt><trkpt lat="38.01376044320479" lon="15.789199973428477"><ele>571.0</ele><time>2026-04-25T09:19:52.999Z</time></trkpt><trkpt lat="38.01376682180517" lon="15.789279705919045"><ele>571.0</ele><time>2026-04-25T09:19:53.999Z</time></trkpt><trkpt lat="38.01379043431021" lon="15.789401905161002"><ele>571.0</ele><time>2026-04-25T09:19:55.999Z</time></trkpt><trkpt lat="38.01380269544089" lon="15.78948193035793"><ele>571.0</ele><time>2026-04-25T09:19:56.999Z</time></trkpt><trkpt lat="38.0138079899311" lon="15.789566863225048"><ele>571.0</ele><time>2026-04-25T09:19:57.999Z</time></trkpt><trkpt lat="38.01381968630457" lon="15.789655634560235"><ele>571.0</ele><time>2026-04-25T09:19:58.999Z</time></trkpt><trkpt lat="38.01383049014812" lon="15.789738964234235"><ele>569.5</ele><time>2026-04-25T09:19:59.999Z</time></trkpt><trkpt lat="38.01382903415732" lon="15.789833510444662"><ele>568.0</ele><time>2026-04-25T09:20:00.999Z</time></trkpt><trkpt lat="38.013854886996945" lon="15.789928275141333"><ele>566.5</ele><time>2026-04-25T09:20:01.999Z</time></trkpt><trkpt lat="38.01384799783972" lon="15.790027495649692"><ele>565.0</ele><time>2026-04-25T09:20:02.999Z</time></trkpt><trkpt lat="38.013848906750795" lon="15.790132633505287"><ele>563.5</ele><time>2026-04-25T09:20:03.999Z</time></trkpt><trkpt lat="38.01388044067668" lon="15.790245300663745"><ele>562.0</ele><time>2026-04-25T09:20:04.999Z</time></trkpt><trkpt lat="38.01387218589652" lon="15.790355933305285"><ele>560.6</ele><time>2026-04-25T09:20:05.999Z</time></trkpt><trkpt lat="38.01386395822236" lon="15.790483108627775"><ele>559.2</ele><time>2026-04-25T09:20:06.999Z</time></trkpt><trkpt lat="38.013861723116456" lon="15.790594952102252"><ele>557.8</ele><time>2026-04-25T09:20:07.999Z</time></trkpt><trkpt lat="38.01384786224993" lon="15.790727688421093"><ele>556.4</ele><time>2026-04-25T09:20:08.999Z</time></trkpt><trkpt lat="38.01383973664023" lon="15.790854038891807"><ele>555.0</ele><time>2026-04-25T09:20:09.999Z</time></trkpt><trkpt lat="38.01384459875147" lon="15.790980618854784"><ele>554.3333333333334</ele><time>2026-04-25T09:20:10.999Z</time></trkpt><trkpt lat="38.01385228692981" lon="15.791083388764743"><ele>553.6666666666666</ele><time>2026-04-25T09:20:11.999Z</time></trkpt><trkpt lat="38.013871634450865" lon="15.791165513342113"><ele>553.0</ele><time>2026-04-25T09:20:12.999Z</time></trkpt><trkpt lat="38.013907159740214" lon="15.79125165047848"><ele>552.3333333333333</ele><time>2026-04-25T09:20:13.999Z</time></trkpt><trkpt lat="38.01391929953367" lon="15.791352820196566"><ele>551.6666666666666</ele><time>2026-04-25T09:20:14.999Z</time></trkpt><trkpt lat="38.0139274926723" lon="15.79143878038433"><ele>551.0</ele><time>2026-04-25T09:20:15.999Z</time></trkpt><trkpt lat="38.01394537350215" lon="15.791538643309664"><ele>551.0</ele><time>2026-04-25T09:20:16.999Z</time></trkpt><trkpt lat="38.01394877379083" lon="15.791653627670595"><ele>551.0</ele><time>2026-04-25T09:20:17.999Z</time></trkpt><trkpt lat="38.01395361398769" lon="15.791769495272094"><ele>551.0</ele><time>2026-04-25T09:20:18.999Z</time></trkpt><trkpt lat="38.01396154343702" lon="15.791887569641823"><ele>551.0</ele><time>2026-04-25T09:20:19.999Z</time></trkpt><trkpt lat="38.0139961583799" lon="15.79198673615865"><ele>551.0</ele><time>2026-04-25T09:20:20.999Z</time></trkpt><trkpt lat="38.013998634748134" lon="15.792072216073517"><ele>551.0</ele><time>2026-04-25T09:20:22Z</time></trkpt><trkpt lat="38.01399309494174" lon="15.7921709029846"><ele>549.8333333333333</ele><time>2026-04-25T09:20:23Z</time></trkpt><trkpt lat="38.01399003424888" lon="15.792267146007"><ele>548.6666666666666</ele><time>2026-04-25T09:20:24Z</time></trkpt><trkpt lat="38.01399971544309" lon="15.792393018457046"><ele>547.5</ele><time>2026-04-25T09:20:25Z</time></trkpt><trkpt lat="38.01398767139547" lon="15.792500389226875"><ele>546.3333333333334</ele><time>2026-04-25T09:20:26Z</time></trkpt><trkpt lat="38.01396993424534" lon="15.7926100174139"><ele>545.1666666666667</ele><time>2026-04-25T09:20:27Z</time></trkpt><trkpt lat="38.013987645142436" lon="15.792714926224559"><ele>544.0</ele><time>2026-04-25T09:20:28Z</time></trkpt><trkpt lat="38.01395561696022" lon="15.792811103518545"><ele>543.0</ele><time>2026-04-25T09:20:29Z</time></trkpt><trkpt lat="38.013926050704605" lon="15.792903641778787"><ele>542.0</ele><time>2026-04-25T09:20:30Z</time></trkpt><trkpt lat="38.01391377001165" lon="15.793000723770561"><ele>541.0</ele><time>2026-04-25T09:20:31Z</time></trkpt><trkpt lat="38.01391183423789" lon="15.793121986652405"><ele>540.0</ele><time>2026-04-25T09:20:32Z</time></trkpt><trkpt lat="38.01394713879814" lon="15.79324810814387"><ele>539.0</ele><time>2026-04-25T09:20:33Z</time></trkpt><trkpt lat="38.01395591136764" lon="15.793337843147775"><ele>538.0</ele><time>2026-04-25T09:20:34Z</time></trkpt><trkpt lat="38.01397908072088" lon="15.793423656331806"><ele>538.0</ele><time>2026-04-25T09:20:35Z</time></trkpt><trkpt lat="38.0140031065077" lon="15.793521685122242"><ele>538.0</ele><time>2026-04-25T09:20:36Z</time></trkpt><trkpt lat="38.01402727479943" lon="15.793621167015804"><ele>538.0</ele><time>2026-04-25T09:20:37Z</time></trkpt><trkpt lat="38.01409232321062" lon="15.793770751472254"><ele>538.0</ele><time>2026-04-25T09:20:39Z</time></trkpt><trkpt lat="38.014128545677956" lon="15.793936431743143"><ele>538.0</ele><time>2026-04-25T09:20:41Z</time></trkpt><trkpt lat="38.014133334097565" lon="15.794037490992483"><ele>538.0</ele><time>2026-04-25T09:20:42Z</time></trkpt><trkpt lat="38.014157804787594" lon="15.794121383715098"><ele>538.0</ele><time>2026-04-25T09:20:43Z</time></trkpt><trkpt lat="38.014152036804944" lon="15.794210802403745"><ele>538.0</ele><time>2026-04-25T09:20:44Z</time></trkpt><trkpt lat="38.014176806917895" lon="15.79429768962788"><ele>538.0</ele><time>2026-04-25T09:20:45Z</time></trkpt><trkpt lat="38.014201970888664" lon="15.79444386266695"><ele>538.0</ele><time>2026-04-25T09:20:47Z</time></trkpt><trkpt lat="38.01421898808339" lon="15.794555533384518"><ele>538.0</ele><time>2026-04-25T09:20:48Z</time></trkpt><trkpt lat="38.01423928911001" lon="15.794688187099837"><ele>535.1666666666667</ele><time>2026-04-25T09:20:49Z</time></trkpt><trkpt lat="38.014257483141805" lon="15.794806609808179"><ele>532.3333333333334</ele><time>2026-04-25T09:20:50Z</time></trkpt><trkpt lat="38.01427149929765" lon="15.794897839236885"><ele>529.5</ele><time>2026-04-25T09:20:51Z</time></trkpt><trkpt lat="38.01428565589951" lon="15.79498998282763"><ele>526.6666666666666</ele><time>2026-04-25T09:20:52Z</time></trkpt><trkpt lat="38.014299630769756" lon="15.795080943452923"><ele>523.8333333333333</ele><time>2026-04-25T09:20:53Z</time></trkpt><trkpt lat="38.01432587088203" lon="15.795203052736474"><ele>521.0</ele><time>2026-04-25T09:20:55Z</time></trkpt><trkpt lat="38.01437290956916" lon="15.795359316819827"><ele>520.3333333333333</ele><time>2026-04-25T09:20:57Z</time></trkpt><trkpt lat="38.01440317339035" lon="15.79548920021479"><ele>519.6666666666666</ele><time>2026-04-25T09:20:59Z</time></trkpt><trkpt lat="38.0144037623955" lon="15.795608827272096"><ele>519.0</ele><time>2026-04-25T09:21:03Z</time></trkpt><trkpt lat="38.01417326101058" lon="15.795759426989267"><ele>519.0</ele><time>2026-04-25T09:21:05Z</time></trkpt><trkpt lat="38.014176139143686" lon="15.79588668834215"><ele>519.0</ele><time>2026-04-25T09:21:08Z</time></trkpt><trkpt lat="38.01416474390555" lon="15.795994789454939"><ele>519.0</ele><time>2026-04-25T09:21:10Z</time></trkpt><trkpt lat="38.01416760990155" lon="15.796111673157787"><ele>519.0</ele><time>2026-04-25T09:21:12Z</time></trkpt><trkpt lat="38.014194371261574" lon="15.796226306202964"><ele>519.0</ele><time>2026-04-25T09:21:14Z</time></trkpt><trkpt lat="38.014236498198095" lon="15.796351667418232"><ele>519.6</ele><time>2026-04-25T09:21:16Z</time></trkpt><trkpt lat="38.01425663753831" lon="15.796427776760545"><ele>520.2</ele><time>2026-04-25T09:21:17Z</time></trkpt><trkpt lat="38.014302967814295" lon="15.79654269871506"><ele>520.8000000000001</ele><time>2026-04-25T09:21:19Z</time></trkpt><trkpt lat="38.01435154397331" lon="15.796647353650743"><ele>521.4</ele><time>2026-04-25T09:21:29.999Z</time></trkpt><trkpt lat="38.01439313277598" lon="15.796815089565849"><ele>522.0</ele><time>2026-04-25T09:21:31.999Z</time></trkpt><trkpt lat="38.01442428226458" lon="15.796916716084406"><ele>523.4</ele><time>2026-04-25T09:21:32.999Z</time></trkpt><trkpt lat="38.01445524186751" lon="15.797014074429041"><ele>524.8000000000001</ele><time>2026-04-25T09:21:33.999Z</time></trkpt><trkpt lat="38.01450508516438" lon="15.797110966355541"><ele>526.2</ele><time>2026-04-25T09:21:34.999Z</time></trkpt><trkpt lat="38.014582260038274" lon="15.797190525720765"><ele>527.6</ele><time>2026-04-25T09:21:35.999Z</time></trkpt><trkpt lat="38.01467675961553" lon="15.797255548123818"><ele>529.0</ele><time>2026-04-25T09:21:36.999Z</time></trkpt><trkpt lat="38.01478856095668" lon="15.79732294898352"><ele>529.0</ele><time>2026-04-25T09:21:37.999Z</time></trkpt><trkpt lat="38.01487945114999" lon="15.797370791042484"><ele>529.0</ele><time>2026-04-25T09:21:38.999Z</time></trkpt><trkpt lat="38.01495171243799" lon="15.7973875463071"><ele>529.0</ele><time>2026-04-25T09:21:39.999Z</time></trkpt><trkpt lat="38.01502608861237" lon="15.797419398578699"><ele>529.0</ele><time>2026-04-25T09:21:40.999Z</time></trkpt><trkpt lat="38.01507695898361" lon="15.797493035510984"><ele>529.0</ele><time>2026-04-25T09:21:41.999Z</time></trkpt><trkpt lat="38.015142066878596" lon="15.797601162950533"><ele>529.0</ele><time>2026-04-25T09:21:42.999Z</time></trkpt><trkpt lat="38.01521327181021" lon="15.797708499682935"><ele>525.3333333333334</ele><time>2026-04-25T09:21:43.999Z</time></trkpt><trkpt lat="38.01528099776953" lon="15.79777639069548"><ele>521.6666666666667</ele><time>2026-04-25T09:21:44.999Z</time></trkpt><trkpt lat="38.01535684053857" lon="15.797870117069332"><ele>518.0</ele><time>2026-04-25T09:21:45.999Z</time></trkpt><trkpt lat="38.01539640822151" lon="15.797986424268746"><ele>514.3333333333334</ele><time>2026-04-25T09:21:46.999Z</time></trkpt><trkpt lat="38.01543029937701" lon="15.798069680276246"><ele>510.6666666666667</ele><time>2026-04-25T09:21:47.999Z</time></trkpt><trkpt lat="38.01546187637941" lon="15.798147251410185"><ele>507.0</ele><time>2026-04-25T09:21:48.999Z</time></trkpt><trkpt lat="38.015505577139976" lon="15.79825460540918"><ele>507.0</ele><time>2026-04-25T09:21:49.999Z</time></trkpt><trkpt lat="38.01556738064985" lon="15.798367543149999"><ele>507.00000000000006</ele><time>2026-04-25T09:21:50.999Z</time></trkpt><trkpt lat="38.01560419754507" lon="15.798501335479445"><ele>507.00000000000006</ele><time>2026-04-25T09:21:51.999Z</time></trkpt><trkpt lat="38.015650774353375" lon="15.798604548464711"><ele>507.0</ele><time>2026-04-25T09:21:52.999Z</time></trkpt><trkpt lat="38.01570395335059" lon="15.798707711399107"><ele>507.0</ele><time>2026-04-25T09:21:53.999Z</time></trkpt><trkpt lat="38.01577774823348" lon="15.798787755666218"><ele>504.8</ele><time>2026-04-25T09:21:54.999Z</time></trkpt><trkpt lat="38.015836732381416" lon="15.798880890382557"><ele>502.6</ele><time>2026-04-25T09:21:55.999Z</time></trkpt><trkpt lat="38.01588533234312" lon="15.799013767914149"><ele>500.40000000000003</ele><time>2026-04-25T09:21:56.999Z</time></trkpt><trkpt lat="38.01594689460287" lon="15.799129629451219"><ele>498.20000000000005</ele><time>2026-04-25T09:21:57.999Z</time></trkpt><trkpt lat="38.01600732485799" lon="15.79923283885931"><ele>496.0</ele><time>2026-04-25T09:21:58.999Z</time></trkpt><trkpt lat="38.01607081827747" lon="15.799332881955424"><ele>500.75</ele><time>2026-04-25T09:21:59.999Z</time></trkpt><trkpt lat="38.016171622632115" lon="15.799434333015377"><ele>505.5</ele><time>2026-04-25T09:22:00.999Z</time></trkpt><trkpt lat="38.016302954499494" lon="15.799498462241141"><ele>510.25</ele><time>2026-04-25T09:22:01.999Z</time></trkpt><trkpt lat="38.016402235904515" lon="15.799536567712657"><ele>515.0</ele><time>2026-04-25T09:22:02.999Z</time></trkpt><trkpt lat="38.01649906735588" lon="15.799575334131298"><ele>515.0</ele><time>2026-04-25T09:22:03.999Z</time></trkpt><trkpt lat="38.01658105700939" lon="15.799612412739727"><ele>515.0</ele><time>2026-04-25T09:22:04.999Z</time></trkpt><trkpt lat="38.016653894318964" lon="15.799649096576868"><ele>515.0</ele><time>2026-04-25T09:22:05.999Z</time></trkpt><trkpt lat="38.01673077906034" lon="15.799692646357505"><ele>515.0</ele><time>2026-04-25T09:22:06.999Z</time></trkpt><trkpt lat="38.01680345102654" lon="15.799735230384526"><ele>515.0</ele><time>2026-04-25T09:22:07.999Z</time></trkpt><trkpt lat="38.01688612308392" lon="15.799785376319969"><ele>515.0</ele><time>2026-04-25T09:22:08.999Z</time></trkpt><trkpt lat="38.01696634592631" lon="15.799837796588164"><ele>509.5</ele><time>2026-04-25T09:22:09.999Z</time></trkpt><trkpt lat="38.017080872473215" lon="15.799917978318327"><ele>504.0</ele><time>2026-04-25T09:22:10.999Z</time></trkpt><trkpt lat="38.0172172208248" lon="15.799985513044081"><ele>498.5</ele><time>2026-04-25T09:22:11.999Z</time></trkpt><trkpt lat="38.01733357969541" lon="15.800066950149104"><ele>493.0</ele><time>2026-04-25T09:22:12.999Z</time></trkpt><trkpt lat="38.01744054375217" lon="15.800141481104658"><ele>489.75</ele><time>2026-04-25T09:22:13.999Z</time></trkpt><trkpt lat="38.01756089036005" lon="15.800207426644581"><ele>486.5</ele><time>2026-04-25T09:22:14.999Z</time></trkpt><trkpt lat="38.017685335065714" lon="15.8003139970997"><ele>483.25</ele><time>2026-04-25T09:22:15.999Z</time></trkpt><trkpt lat="38.017777164321075" lon="15.800414168548988"><ele>480.0</ele><time>2026-04-25T09:22:16.999Z</time></trkpt><trkpt lat="38.01784936467123" lon="15.800499772917188"><ele>480.0</ele><time>2026-04-25T09:22:17.999Z</time></trkpt><trkpt lat="38.01790504653345" lon="15.800570705866324"><ele>480.0</ele><time>2026-04-25T09:22:18.999Z</time></trkpt><trkpt lat="38.01796879320469" lon="15.800665559819388"><ele>480.0</ele><time>2026-04-25T09:22:19.999Z</time></trkpt><trkpt lat="38.01801550736808" lon="15.800756754162617"><ele>480.0</ele><time>2026-04-25T09:22:20.999Z</time></trkpt><trkpt lat="38.01808149113417" lon="15.800870996221374"><ele>480.0</ele><time>2026-04-25T09:22:22.999Z</time></trkpt><trkpt lat="38.0181411943752" lon="15.800948641864188"><ele>478.3333333333333</ele><time>2026-04-25T09:22:23.999Z</time></trkpt><trkpt lat="38.01820002404809" lon="15.801015665057502"><ele>476.66666666666663</ele><time>2026-04-25T09:22:24.999Z</time></trkpt><trkpt lat="38.01825469834631" lon="15.801076398382325"><ele>475.0</ele><time>2026-04-25T09:22:25.999Z</time></trkpt><trkpt lat="38.01836211838675" lon="15.8011814296105"><ele>473.3333333333333</ele><time>2026-04-25T09:22:28Z</time></trkpt><trkpt lat="38.01840728495108" lon="15.801240920850129"><ele>471.66666666666663</ele><time>2026-04-25T09:22:29Z</time></trkpt><trkpt lat="38.01848366024545" lon="15.80129448391023"><ele>470.0</ele><time>2026-04-25T09:22:30Z</time></trkpt><trkpt lat="38.01854344154381" lon="15.801347510862746"><ele>469.99999999999994</ele><time>2026-04-25T09:22:31Z</time></trkpt><trkpt lat="38.01859938436276" lon="15.801387956365097"><ele>470.0</ele><time>2026-04-25T09:22:32Z</time></trkpt><trkpt lat="38.01866245280992" lon="15.801448862225039"><ele>470.0</ele><time>2026-04-25T09:22:33Z</time></trkpt><trkpt lat="38.01872572105602" lon="15.801512902881969"><ele>470.0</ele><time>2026-04-25T09:22:34Z</time></trkpt><trkpt lat="38.01879444655983" lon="15.801577136916707"><ele>469.99999999999994</ele><time>2026-04-25T09:22:35Z</time></trkpt><trkpt lat="38.018848748965006" lon="15.80164191923859"><ele>470.0</ele><time>2026-04-25T09:22:36Z</time></trkpt><trkpt lat="38.01892394245348" lon="15.801644638415759"><ele>469.99999999999994</ele><time>2026-04-25T09:22:37Z</time></trkpt><trkpt lat="38.018984767186375" lon="15.801698871971682"><ele>470.0</ele><time>2026-04-25T09:22:38Z</time></trkpt><trkpt lat="38.019040563298866" lon="15.801753525283203"><ele>470.0</ele><time>2026-04-25T09:22:39Z</time></trkpt><trkpt lat="38.01913169437797" lon="15.801846079594696"><ele>470.0</ele><time>2026-04-25T09:22:41Z</time></trkpt><trkpt lat="38.01918232237507" lon="15.801897498286545"><ele>469.99999999999994</ele><time>2026-04-25T09:22:42Z</time></trkpt><trkpt lat="38.019243909421036" lon="15.801960047118696"><ele>470.0</ele><time>2026-04-25T09:22:43Z</time></trkpt><trkpt lat="38.01932940543832" lon="15.802041272939828"><ele>469.2</ele><time>2026-04-25T09:22:45Z</time></trkpt><trkpt lat="38.01940852063185" lon="15.80211435612616"><ele>468.4</ele><time>2026-04-25T09:22:47Z</time></trkpt><trkpt lat="38.019509906032155" lon="15.802196968434423"><ele>467.6</ele><time>2026-04-25T09:22:49Z</time></trkpt><trkpt lat="38.019572662390296" lon="15.802250547878428"><ele>466.8</ele><time>2026-04-25T09:22:50Z</time></trkpt><trkpt lat="38.0196309755286" lon="15.802294108519048"><ele>466.0</ele><time>2026-04-25T09:22:51Z</time></trkpt><trkpt lat="38.01978239712313" lon="15.80242169185156"><ele>466.0</ele><time>2026-04-25T09:22:53Z</time></trkpt><trkpt lat="38.019856271435124" lon="15.802538569923682"><ele>466.0</ele><time>2026-04-25T09:22:54Z</time></trkpt><trkpt lat="38.019893051994686" lon="15.802667111370432"><ele>466.0</ele><time>2026-04-25T09:22:55Z</time></trkpt><trkpt lat="38.019956407275544" lon="15.802800455672697"><ele>466.0</ele><time>2026-04-25T09:22:57Z</time></trkpt><trkpt lat="38.02000941491525" lon="15.802908315135644"><ele>466.0</ele><time>2026-04-25T09:22:58Z</time></trkpt><trkpt lat="38.02006253190315" lon="15.803038266692537"><ele>462.6</ele><time>2026-04-25T09:22:59Z</time></trkpt><trkpt lat="38.020145313442384" lon="15.803107453666039"><ele>459.20000000000005</ele><time>2026-04-25T09:23:00Z</time></trkpt><trkpt lat="38.02020221512902" lon="15.803163925482897"><ele>455.79999999999995</ele><time>2026-04-25T09:23:01Z</time></trkpt><trkpt lat="38.02028268054437" lon="15.803272896600049"><ele>452.4</ele><time>2026-04-25T09:23:03Z</time></trkpt><trkpt lat="38.020340934802256" lon="15.80336838707942"><ele>449.0</ele><time>2026-04-25T09:23:27.999Z</time></trkpt><trkpt lat="38.020334695286245" lon="15.803455982627003"><ele>448.0</ele><time>2026-04-25T09:23:28.999Z</time></trkpt><trkpt lat="38.02037587689816" lon="15.8035234186276"><ele>447.0</ele><time>2026-04-25T09:23:29.999Z</time></trkpt><trkpt lat="38.02042166918155" lon="15.80362159222448"><ele>446.0</ele><time>2026-04-25T09:23:31.999Z</time></trkpt><trkpt lat="38.02044430493752" lon="15.803738143776924"><ele>445.0</ele><time>2026-04-25T09:23:33.999Z</time></trkpt><trkpt lat="38.02054378091085" lon="15.803680821994938"><ele>444.0</ele><time>2026-04-25T09:23:38.999Z</time></trkpt><trkpt lat="38.02060674685301" lon="15.803573868709512"><ele>444.8333333333333</ele><time>2026-04-25T09:23:39.999Z</time></trkpt><trkpt lat="38.020699977694385" lon="15.803484264124641"><ele>445.66666666666663</ele><time>2026-04-25T09:23:40.999Z</time></trkpt><trkpt lat="38.020765441331136" lon="15.803418331130418"><ele>446.5</ele><time>2026-04-25T09:23:41.999Z</time></trkpt><trkpt lat="38.02081681305947" lon="15.80336949767905"><ele>447.3333333333333</ele><time>2026-04-25T09:23:42.999Z</time></trkpt><trkpt lat="38.02083437584526" lon="15.803273366423836"><ele>448.16666666666663</ele><time>2026-04-25T09:23:43.999Z</time></trkpt><trkpt lat="38.02086254197847" lon="15.803160529281493"><ele>449.0</ele><time>2026-04-25T09:23:44.999Z</time></trkpt><trkpt lat="38.02093614492324" lon="15.803096671200779"><ele>449.6</ele><time>2026-04-25T09:23:45.999Z</time></trkpt><trkpt lat="38.02099681488946" lon="15.803017803666954"><ele>450.2</ele><time>2026-04-25T09:23:46.999Z</time></trkpt><trkpt lat="38.02104133362236" lon="15.80294360605054"><ele>450.80000000000007</ele><time>2026-04-25T09:23:47.999Z</time></trkpt><trkpt lat="38.02107329323449" lon="15.80286777509561"><ele>451.40000000000003</ele><time>2026-04-25T09:23:48.999Z</time></trkpt><trkpt lat="38.02111924678568" lon="15.802810601617258"><ele>452.0</ele><time>2026-04-25T09:23:49.999Z</time></trkpt><trkpt lat="38.02120040363765" lon="15.80260051192322"><ele>452.49999999999994</ele><time>2026-04-25T09:23:51.999Z</time></trkpt><trkpt lat="38.02126641741819" lon="15.802555672725404"><ele>453.0</ele><time>2026-04-25T09:23:52.999Z</time></trkpt><trkpt lat="38.02135477356324" lon="15.802561097242004"><ele>453.5</ele><time>2026-04-25T09:23:53.999Z</time></trkpt><trkpt lat="38.02139551301206" lon="15.802486738370916"><ele>454.0</ele><time>2026-04-25T09:23:54.999Z</time></trkpt><trkpt lat="38.02147212779702" lon="15.802416856557063"><ele>454.49999999999994</ele><time>2026-04-25T09:23:55.999Z</time></trkpt><trkpt lat="38.021547874240504" lon="15.802318394999114"><ele>455.0</ele><time>2026-04-25T09:23:56.999Z</time></trkpt><trkpt lat="38.021628999504536" lon="15.80223744649477"><ele>455.6</ele><time>2026-04-25T09:23:57.999Z</time></trkpt><trkpt lat="38.02171338069715" lon="15.802181709757157"><ele>456.2</ele><time>2026-04-25T09:23:58.999Z</time></trkpt><trkpt lat="38.02179923534666" lon="15.802152689616387"><ele>456.79999999999995</ele><time>2026-04-25T09:23:59.999Z</time></trkpt><trkpt lat="38.02191450358136" lon="15.802094525298005"><ele>457.4</ele><time>2026-04-25T09:24:00.999Z</time></trkpt><trkpt lat="38.02205408060992" lon="15.80206650843938"><ele>458.0</ele><time>2026-04-25T09:24:01.999Z</time></trkpt><trkpt lat="38.022207464334144" lon="15.802034385870968"><ele>458.0</ele><time>2026-04-25T09:24:02.999Z</time></trkpt><trkpt lat="38.02233848152363" lon="15.801991864403696"><ele>458.0</ele><time>2026-04-25T09:24:03.999Z</time></trkpt><trkpt lat="38.02245662885774" lon="15.801948872363552"><ele>458.0</ele><time>2026-04-25T09:24:04.999Z</time></trkpt><trkpt lat="38.02256972473178" lon="15.801903582201428"><ele>458.0</ele><time>2026-04-25T09:24:05.999Z</time></trkpt><trkpt lat="38.02270776688906" lon="15.801859568950112"><ele>460.5</ele><time>2026-04-25T09:24:06.999Z</time></trkpt><trkpt lat="38.02284997274334" lon="15.80179631142854"><ele>463.0</ele><time>2026-04-25T09:24:07.999Z</time></trkpt><trkpt lat="38.022997133896084" lon="15.801745400371395"><ele>465.5</ele><time>2026-04-25T09:24:08.999Z</time></trkpt><trkpt lat="38.023121227613494" lon="15.801704408574206"><ele>468.0</ele><time>2026-04-25T09:24:09.999Z</time></trkpt><trkpt lat="38.023238572236615" lon="15.80164578465276"><ele>469.75</ele><time>2026-04-25T09:24:10.999Z</time></trkpt><trkpt lat="38.023363607387545" lon="15.801605092774574"><ele>471.5</ele><time>2026-04-25T09:24:11.999Z</time></trkpt><trkpt lat="38.02349251164855" lon="15.801542975473408"><ele>473.25</ele><time>2026-04-25T09:24:12.999Z</time></trkpt><trkpt lat="38.02361751982259" lon="15.801484641267987"><ele>475.0</ele><time>2026-04-25T09:24:13.999Z</time></trkpt><trkpt lat="38.02374338688292" lon="15.801464829955034"><ele>475.0</ele><time>2026-04-25T09:24:14.999Z</time></trkpt><trkpt lat="38.02387063166915" lon="15.801424705445843"><ele>475.0</ele><time>2026-04-25T09:24:15.999Z</time></trkpt><trkpt lat="38.02397587388688" lon="15.801358062443102"><ele>475.0</ele><time>2026-04-25T09:24:16.999Z</time></trkpt><trkpt lat="38.024074208952165" lon="15.801317801112146"><ele>475.0</ele><time>2026-04-25T09:24:17.999Z</time></trkpt><trkpt lat="38.02415999831457" lon="15.801272758588242"><ele>475.0</ele><time>2026-04-25T09:24:18.999Z</time></trkpt><trkpt lat="38.024238286508854" lon="15.801244636681428"><ele>476.1666666666667</ele><time>2026-04-25T09:24:19.999Z</time></trkpt><trkpt lat="38.02432027030885" lon="15.801225634400856"><ele>477.33333333333337</ele><time>2026-04-25T09:24:20.999Z</time></trkpt><trkpt lat="38.024390923857595" lon="15.801214171684192"><ele>478.5</ele><time>2026-04-25T09:24:21.999Z</time></trkpt><trkpt lat="38.024468004277686" lon="15.801180229256365"><ele>479.66666666666663</ele><time>2026-04-25T09:24:22.999Z</time></trkpt><trkpt lat="38.02453529663527" lon="15.801133174993723"><ele>480.8333333333333</ele><time>2026-04-25T09:24:23.999Z</time></trkpt><trkpt lat="38.0245944514798" lon="15.801076359229404"><ele>482.0</ele><time>2026-04-25T09:24:24.999Z</time></trkpt><trkpt lat="38.024644937751994" lon="15.801024908359121"><ele>483.25</ele><time>2026-04-25T09:24:25.999Z</time></trkpt><trkpt lat="38.024747034280175" lon="15.800968854646944"><ele>484.5</ele><time>2026-04-25T09:24:27.999Z</time></trkpt><trkpt lat="38.02484331331831" lon="15.800950333670952"><ele>485.75</ele><time>2026-04-25T09:24:29.999Z</time></trkpt><trkpt lat="38.02495152263526" lon="15.800874685799117"><ele>487.0</ele><time>2026-04-25T09:24:30.999Z</time></trkpt><trkpt lat="38.0250857132974" lon="15.800961929368036"><ele>488.0</ele><time>2026-04-25T09:24:32.999Z</time></trkpt><trkpt lat="38.0251520481499" lon="15.801019699458605"><ele>489.00000000000006</ele><time>2026-04-25T09:24:34.001Z</time></trkpt><trkpt lat="38.02519904877792" lon="15.801090922861354"><ele>490.00000000000006</ele><time>2026-04-25T09:24:35.001Z</time></trkpt><trkpt lat="38.02526212741146" lon="15.80115704377714"><ele>491.0</ele><time>2026-04-25T09:24:36.001Z</time></trkpt><trkpt lat="38.02536803559203" lon="15.801132003061253"><ele>492.0</ele><time>2026-04-25T09:24:37.001Z</time></trkpt><trkpt lat="38.025483498146365" lon="15.801095059298227"><ele>492.0</ele><time>2026-04-25T09:24:38.001Z</time></trkpt><trkpt lat="38.02556413826833" lon="15.801075767679258"><ele>492.0</ele><time>2026-04-25T09:24:39.001Z</time></trkpt><trkpt lat="38.025648937231196" lon="15.801086548637038"><ele>492.0</ele><time>2026-04-25T09:24:40.001Z</time></trkpt><trkpt lat="38.02571976939898" lon="15.80112279510514"><ele>492.0</ele><time>2026-04-25T09:24:41.001Z</time></trkpt><trkpt lat="38.02580100192118" lon="15.801118337642427"><ele>492.0</ele><time>2026-04-25T09:24:42.001Z</time></trkpt><trkpt lat="38.02589388963867" lon="15.801126799493275"><ele>492.0</ele><time>2026-04-25T09:24:43.001Z</time></trkpt><trkpt lat="38.0260098990855" lon="15.80108483406066"><ele>492.6</ele><time>2026-04-25T09:24:44.001Z</time></trkpt><trkpt lat="38.02614060869787" lon="15.801077529009122"><ele>493.20000000000005</ele><time>2026-04-25T09:24:45.001Z</time></trkpt><trkpt lat="38.02622257459222" lon="15.801034566862521"><ele>493.8</ele><time>2026-04-25T09:24:46.001Z</time></trkpt><trkpt lat="38.02630931492324" lon="15.800991045119568"><ele>494.4</ele><time>2026-04-25T09:24:47.001Z</time></trkpt><trkpt lat="38.02639852041" lon="15.80093565144478"><ele>495.0</ele><time>2026-04-25T09:24:48.001Z</time></trkpt><trkpt lat="38.02651672839597" lon="15.8008914940858"><ele>495.0</ele><time>2026-04-25T09:24:49.001Z</time></trkpt><trkpt lat="38.026640560632416" lon="15.800842508179723"><ele>495.0</ele><time>2026-04-25T09:24:50.001Z</time></trkpt><trkpt lat="38.0267495577008" lon="15.800769473235908"><ele>495.0</ele><time>2026-04-25T09:24:51.001Z</time></trkpt><trkpt lat="38.026834627886075" lon="15.800720743753654"><ele>495.0</ele><time>2026-04-25T09:24:52.001Z</time></trkpt><trkpt lat="38.026925099508816" lon="15.800654104779445"><ele>497.8</ele><time>2026-04-25T09:24:53.001Z</time></trkpt><trkpt lat="38.02702662701114" lon="15.800585030293206"><ele>500.6</ele><time>2026-04-25T09:24:54.001Z</time></trkpt><trkpt lat="38.02710281350054" lon="15.80049303289129"><ele>503.4</ele><time>2026-04-25T09:24:55.001Z</time></trkpt><trkpt lat="38.02721023222889" lon="15.80046266465841"><ele>506.2</ele><time>2026-04-25T09:24:56.001Z</time></trkpt><trkpt lat="38.02729796736965" lon="15.800399816793478"><ele>509.0</ele><time>2026-04-25T09:24:57.001Z</time></trkpt><trkpt lat="38.02740416937183" lon="15.80031160200404"><ele>509.5</ele><time>2026-04-25T09:24:58.001Z</time></trkpt><trkpt lat="38.02751646950734" lon="15.800236841083091"><ele>510.0</ele><time>2026-04-25T09:24:59.001Z</time></trkpt><trkpt lat="38.02760843565008" lon="15.800172040398238"><ele>510.5</ele><time>2026-04-25T09:25:00.001Z</time></trkpt><trkpt lat="38.02771032666392" lon="15.800113791803053"><ele>511.0</ele><time>2026-04-25T09:25:01.001Z</time></trkpt><trkpt lat="38.027807755665606" lon="15.800047243758488"><ele>511.0</ele><time>2026-04-25T09:25:02.001Z</time></trkpt><trkpt lat="38.027899048767644" lon="15.799982793681634"><ele>511.0</ele><time>2026-04-25T09:25:03.001Z</time></trkpt><trkpt lat="38.02797140652631" lon="15.799939412734306"><ele>511.0</ele><time>2026-04-25T09:25:04.001Z</time></trkpt><trkpt lat="38.02803472182461" lon="15.799871517041757"><ele>511.0</ele><time>2026-04-25T09:25:05.001Z</time></trkpt><trkpt lat="38.02811977470825" lon="15.799787980609661"><ele>511.0</ele><time>2026-04-25T09:25:06.001Z</time></trkpt><trkpt lat="38.028186194749075" lon="15.799702372897496"><ele>511.0</ele><time>2026-04-25T09:25:07.001Z</time></trkpt><trkpt lat="38.028248856072906" lon="15.799635376821485"><ele>511.0</ele><time>2026-04-25T09:25:08.001Z</time></trkpt><trkpt lat="38.028330861210684" lon="15.799533562476388"><ele>511.0</ele><time>2026-04-25T09:25:09.001Z</time></trkpt><trkpt lat="38.028412428507416" lon="15.799423831369593"><ele>511.0</ele><time>2026-04-25T09:25:10.001Z</time></trkpt><trkpt lat="38.02848896813445" lon="15.799322541412689"><ele>511.0</ele><time>2026-04-25T09:25:11Z</time></trkpt><trkpt lat="38.02856144685375" lon="15.79923751046256"><ele>513.0</ele><time>2026-04-25T09:25:12Z</time></trkpt><trkpt lat="38.02864799856657" lon="15.799155615782595"><ele>515.0</ele><time>2026-04-25T09:25:13Z</time></trkpt><trkpt lat="38.028743316875726" lon="15.79907925086523"><ele>517.0</ele><time>2026-04-25T09:25:14Z</time></trkpt><trkpt lat="38.02884566938052" lon="15.799013449137645"><ele>519.0</ele><time>2026-04-25T09:25:15Z</time></trkpt><trkpt lat="38.02895972581295" lon="15.798970397677527"><ele>519.0</ele><time>2026-04-25T09:25:16Z</time></trkpt><trkpt lat="38.029072101371774" lon="15.798944756849997"><ele>519.0</ele><time>2026-04-25T09:25:17Z</time></trkpt><trkpt lat="38.02917849723558" lon="15.7989193136263"><ele>519.0</ele><time>2026-04-25T09:25:18Z</time></trkpt><trkpt lat="38.029268381353944" lon="15.798885832814769"><ele>519.0</ele><time>2026-04-25T09:25:19Z</time></trkpt><trkpt lat="38.0293712975806" lon="15.798870588191102"><ele>519.0</ele><time>2026-04-25T09:25:20Z</time></trkpt><trkpt lat="38.02947134408288" lon="15.798871554461751"><ele>522.0</ele><time>2026-04-25T09:25:21Z</time></trkpt><trkpt lat="38.02957313243398" lon="15.79886857835484"><ele>525.0</ele><time>2026-04-25T09:25:22Z</time></trkpt><trkpt lat="38.02966295930853" lon="15.798851686732128"><ele>528.0</ele><time>2026-04-25T09:25:23Z</time></trkpt><trkpt lat="38.02974879977785" lon="15.79884517229968"><ele>531.0</ele><time>2026-04-25T09:25:24Z</time></trkpt><trkpt lat="38.029853956494804" lon="15.79885078080544"><ele>534.0</ele><time>2026-04-25T09:25:25Z</time></trkpt><trkpt lat="38.0299696832395" lon="15.79884303446103"><ele>537.8</ele><time>2026-04-25T09:25:26Z</time></trkpt><trkpt lat="38.03005343026747" lon="15.79882776257034"><ele>541.5999999999999</ele><time>2026-04-25T09:25:27Z</time></trkpt><trkpt lat="38.03013538502332" lon="15.798856651100333"><ele>545.4</ele><time>2026-04-25T09:25:28Z</time></trkpt><trkpt lat="38.030221577761694" lon="15.798936147813551"><ele>549.1999999999999</ele><time>2026-04-25T09:25:29Z</time></trkpt><trkpt lat="38.030325937384234" lon="15.798967933178355"><ele>553.0</ele><time>2026-04-25T09:25:30Z</time></trkpt><trkpt lat="38.030404942912185" lon="15.799006112236594"><ele>553.0</ele><time>2026-04-25T09:25:31Z</time></trkpt><trkpt lat="38.03048361366714" lon="15.799030773354435"><ele>553.0</ele><time>2026-04-25T09:25:32Z</time></trkpt><trkpt lat="38.03056897354644" lon="15.799061704844144"><ele>553.0</ele><time>2026-04-25T09:25:33Z</time></trkpt><trkpt lat="38.030650595304856" lon="15.799109630217263"><ele>553.0</ele><time>2026-04-25T09:25:34Z</time></trkpt><trkpt lat="38.030748012485084" lon="15.799148976641405"><ele>553.0</ele><time>2026-04-25T09:25:35Z</time></trkpt><trkpt lat="38.030844962889105" lon="15.799176243699053"><ele>555.5</ele><time>2026-04-25T09:25:36Z</time></trkpt><trkpt lat="38.03092730046224" lon="15.7991881281691"><ele>558.0</ele><time>2026-04-25T09:25:37Z</time></trkpt><trkpt lat="38.03099199879453" lon="15.799187169287935"><ele>560.5</ele><time>2026-04-25T09:25:38Z</time></trkpt><trkpt lat="38.03105835597547" lon="15.799149873903495"><ele>563.0</ele><time>2026-04-25T09:25:39Z</time></trkpt><trkpt lat="38.03113608640955" lon="15.799132638753255"><ele>565.5</ele><time>2026-04-25T09:25:40Z</time></trkpt><trkpt lat="38.031214198859075" lon="15.79911610022769"><ele>568.0</ele><time>2026-04-25T09:25:41Z</time></trkpt><trkpt lat="38.03129719369828" lon="15.79912323148749"><ele>568.0</ele><time>2026-04-25T09:25:42Z</time></trkpt><trkpt lat="38.03139075266108" lon="15.799112245234182"><ele>568.0</ele><time>2026-04-25T09:25:43Z</time></trkpt><trkpt lat="38.03148897697748" lon="15.799105391511088"><ele>568.0</ele><time>2026-04-25T09:25:44Z</time></trkpt><trkpt lat="38.03159688403463" lon="15.799096621481917"><ele>568.0</ele><time>2026-04-25T09:25:45Z</time></trkpt><trkpt lat="38.031703360482034" lon="15.799057485915153"><ele>568.0</ele><time>2026-04-25T09:25:46Z</time></trkpt><trkpt lat="38.03179656562703" lon="15.799044496752359"><ele>569.1999999999999</ele><time>2026-04-25T09:25:47Z</time></trkpt><trkpt lat="38.031882891801345" lon="15.799036427056244"><ele>570.4</ele><time>2026-04-25T09:25:48Z</time></trkpt><trkpt lat="38.03197115510804" lon="15.799033906763226"><ele>571.5999999999999</ele><time>2026-04-25T09:25:49Z</time></trkpt><trkpt lat="38.03204780087127" lon="15.799095189010794"><ele>572.8</ele><time>2026-04-25T09:25:50Z</time></trkpt><trkpt lat="38.03216087839538" lon="15.799119243050647"><ele>574.0</ele><time>2026-04-25T09:25:51Z</time></trkpt><trkpt lat="38.0322431056966" lon="15.799146865403518"><ele>574.0</ele><time>2026-04-25T09:25:52Z</time></trkpt><trkpt lat="38.03230850923693" lon="15.799140766036384"><ele>574.0</ele><time>2026-04-25T09:25:53Z</time></trkpt><trkpt lat="38.03239869815208" lon="15.799126257312011"><ele>574.0</ele><time>2026-04-25T09:25:54Z</time></trkpt><trkpt lat="38.032500307312425" lon="15.799123107058428"><ele>574.0</ele><time>2026-04-25T09:25:55Z</time></trkpt><trkpt lat="38.032606142037345" lon="15.799129908678593"><ele>574.0</ele><time>2026-04-25T09:25:56Z</time></trkpt><trkpt lat="38.032703014145795" lon="15.799122032777303"><ele>576.0</ele><time>2026-04-25T09:25:57Z</time></trkpt><trkpt lat="38.03280949338591" lon="15.799102154856985"><ele>578.0</ele><time>2026-04-25T09:25:58Z</time></trkpt><trkpt lat="38.03292151857042" lon="15.799082191816147"><ele>580.0</ele><time>2026-04-25T09:25:59Z</time></trkpt><trkpt lat="38.03303724755223" lon="15.799056418871018"><ele>582.0</ele><time>2026-04-25T09:26:00Z</time></trkpt><trkpt lat="38.03314304387232" lon="15.799035494391015"><ele>584.0</ele><time>2026-04-25T09:26:01Z</time></trkpt><trkpt lat="38.03325872432927" lon="15.799005605284234"><ele>586.2</ele><time>2026-04-25T09:26:02Z</time></trkpt><trkpt lat="38.033372802389756" lon="15.79897255786231"><ele>588.4</ele><time>2026-04-25T09:26:03Z</time></trkpt><trkpt lat="38.03348026983" lon="15.798948963754778"><ele>590.6</ele><time>2026-04-25T09:26:04Z</time></trkpt><trkpt lat="38.033591781499766" lon="15.798924864240668"><ele>592.8</ele><time>2026-04-25T09:26:05Z</time></trkpt><trkpt lat="38.03366361305935" lon="15.798912165634247"><ele>595.0</ele><time>2026-04-25T09:26:06Z</time></trkpt><trkpt lat="38.03372328901452" lon="15.798879403013915"><ele>595.0</ele><time>2026-04-25T09:26:07Z</time></trkpt><trkpt lat="38.033756636837005" lon="15.79879977891071"><ele>595.0</ele><time>2026-04-25T09:26:08Z</time></trkpt><trkpt lat="38.03381830749164" lon="15.798745601986326"><ele>595.0</ele><time>2026-04-25T09:26:09Z</time></trkpt><trkpt lat="38.03387575130151" lon="15.798711120871543"><ele>595.0</ele><time>2026-04-25T09:26:10Z</time></trkpt><trkpt lat="38.033954867119" lon="15.7986983355606"><ele>595.0</ele><time>2026-04-25T09:26:11Z</time></trkpt><trkpt lat="38.03406495838435" lon="15.79879855994298"><ele>595.0</ele><time>2026-04-25T09:26:12Z</time></trkpt><trkpt lat="38.034191077732814" lon="15.79879777235485"><ele>597.75</ele><time>2026-04-25T09:26:13Z</time></trkpt><trkpt lat="38.034334563387" lon="15.798793906814433"><ele>600.5</ele><time>2026-04-25T09:26:14Z</time></trkpt><trkpt lat="38.03447237558438" lon="15.798758802966011"><ele>603.25</ele><time>2026-04-25T09:26:15Z</time></trkpt><trkpt lat="38.034601811201796" lon="15.798742914806004"><ele>606.0</ele><time>2026-04-25T09:26:16Z</time></trkpt><trkpt lat="38.03476519178805" lon="15.798760119026634"><ele>606.0</ele><time>2026-04-25T09:26:17Z</time></trkpt><trkpt lat="38.0348979153164" lon="15.798731979045561"><ele>606.0</ele><time>2026-04-25T09:26:18Z</time></trkpt><trkpt lat="38.03502478456771" lon="15.798672171377781"><ele>606.0</ele><time>2026-04-25T09:26:19Z</time></trkpt><trkpt lat="38.035161243197905" lon="15.798618362665655"><ele>606.0</ele><time>2026-04-25T09:26:20Z</time></trkpt><trkpt lat="38.035283882833006" lon="15.798568910232591"><ele>608.5</ele><time>2026-04-25T09:26:21Z</time></trkpt><trkpt lat="38.035414213431736" lon="15.798509937555481"><ele>611.0</ele><time>2026-04-25T09:26:22Z</time></trkpt><trkpt lat="38.03553210307511" lon="15.798439084666192"><ele>613.5</ele><time>2026-04-25T09:26:23Z</time></trkpt><trkpt lat="38.03565103510989" lon="15.798372394139864"><ele>616.0</ele><time>2026-04-25T09:26:24Z</time></trkpt><trkpt lat="38.03578255124016" lon="15.798321373558675"><ele>612.5</ele><time>2026-04-25T09:26:25Z</time></trkpt><trkpt lat="38.03591084841636" lon="15.798254232365172"><ele>609.0</ele><time>2026-04-25T09:26:26Z</time></trkpt><trkpt lat="38.03602483266621" lon="15.798163696889251"><ele>605.5</ele><time>2026-04-25T09:26:27Z</time></trkpt><trkpt lat="38.03615049182742" lon="15.798079179681496"><ele>602.0</ele><time>2026-04-25T09:26:28Z</time></trkpt><trkpt lat="38.03629314680111" lon="15.798013255735135"><ele>602.0</ele><time>2026-04-25T09:26:29Z</time></trkpt><trkpt lat="38.03642977915817" lon="15.797953934582248"><ele>602.0</ele><time>2026-04-25T09:26:30Z</time></trkpt><trkpt lat="38.03657210912373" lon="15.79789919690795"><ele>602.0</ele><time>2026-04-25T09:26:31Z</time></trkpt><trkpt lat="38.036703067159976" lon="15.797874536244766"><ele>602.0</ele><time>2026-04-25T09:26:32Z</time></trkpt><trkpt lat="38.0368262357658" lon="15.79781163037831"><ele>602.0</ele><time>2026-04-25T09:26:33Z</time></trkpt><trkpt lat="38.036937194495216" lon="15.7977591634193"><ele>602.0</ele><time>2026-04-25T09:26:34Z</time></trkpt><trkpt lat="38.03704838173542" lon="15.797689033603667"><ele>602.0</ele><time>2026-04-25T09:26:35Z</time></trkpt><trkpt lat="38.03714369321015" lon="15.797625201052726"><ele>602.0</ele><time>2026-04-25T09:26:36Z</time></trkpt><trkpt lat="38.03720275040447" lon="15.797589931868902"><ele>602.0</ele><time>2026-04-25T09:26:37Z</time></trkpt><trkpt lat="38.03731747436652" lon="15.79751234009329"><ele>602.0</ele><time>2026-04-25T09:26:39Z</time></trkpt><trkpt lat="38.03738024722273" lon="15.797453609460291"><ele>602.0</ele><time>2026-04-25T09:26:40.001Z</time></trkpt><trkpt lat="38.03745006069035" lon="15.797404379405416"><ele>602.0</ele><time>2026-04-25T09:26:41.001Z</time></trkpt><trkpt lat="38.037520229823976" lon="15.79737515593827"><ele>602.0</ele><time>2026-04-25T09:26:42.001Z</time></trkpt><trkpt lat="38.03758385310925" lon="15.79734750877568"><ele>602.0</ele><time>2026-04-25T09:26:43.001Z</time></trkpt><trkpt lat="38.03765398900884" lon="15.79730617849852"><ele>602.0</ele><time>2026-04-25T09:26:44.001Z</time></trkpt><trkpt lat="38.03772879645955" lon="15.79726134930782"><ele>604.8000000000001</ele><time>2026-04-25T09:26:45.001Z</time></trkpt><trkpt lat="38.037809924760474" lon="15.797226580040274"><ele>607.6</ele><time>2026-04-25T09:26:46.001Z</time></trkpt><trkpt lat="38.03790437925285" lon="15.79722425175087"><ele>610.4000000000001</ele><time>2026-04-25T09:26:47.001Z</time></trkpt><trkpt lat="38.0379967883177" lon="15.797196312290716"><ele>613.2</ele><time>2026-04-25T09:26:48.001Z</time></trkpt><trkpt lat="38.03809346976746" lon="15.797194250998707"><ele>616.0</ele><time>2026-04-25T09:26:49.001Z</time></trkpt><trkpt lat="38.03817626448328" lon="15.797180759136074"><ele>616.0</ele><time>2026-04-25T09:26:50.001Z</time></trkpt><trkpt lat="38.03827963273801" lon="15.797154987071051"><ele>616.0</ele><time>2026-04-25T09:26:51.001Z</time></trkpt><trkpt lat="38.038378629828514" lon="15.797137129368393"><ele>616.0</ele><time>2026-04-25T09:26:52.001Z</time></trkpt><trkpt lat="38.03847824996902" lon="15.797123998517781"><ele>616.0</ele><time>2026-04-25T09:26:53.001Z</time></trkpt><trkpt lat="38.03857654244413" lon="15.797115303301242"><ele>616.0</ele><time>2026-04-25T09:26:54.001Z</time></trkpt><trkpt lat="38.03867884830496" lon="15.797150902935837"><ele>618.5</ele><time>2026-04-25T09:26:55.001Z</time></trkpt><trkpt lat="38.03878565327419" lon="15.79714996177595"><ele>621.0</ele><time>2026-04-25T09:26:56.001Z</time></trkpt><trkpt lat="38.03889760921748" lon="15.797182743072229"><ele>623.5</ele><time>2026-04-25T09:26:57.001Z</time></trkpt><trkpt lat="38.0390214028947" lon="15.797088411825703"><ele>626.0</ele><time>2026-04-25T09:26:58Z</time></trkpt><trkpt lat="38.03914322317098" lon="15.79709874189216"><ele>628.0</ele><time>2026-04-25T09:26:59Z</time></trkpt><trkpt lat="38.039219487927696" lon="15.79711159470061"><ele>630.0</ele><time>2026-04-25T09:27:00Z</time></trkpt><trkpt lat="38.03929210943431" lon="15.797108402063733"><ele>632.0</ele><time>2026-04-25T09:27:01Z</time></trkpt><trkpt lat="38.03938449219913" lon="15.797123877105596"><ele>634.0</ele><time>2026-04-25T09:27:03Z</time></trkpt><trkpt lat="38.03935136433022" lon="15.797430100706421"><ele>634.0</ele><time>2026-04-25T09:27:04Z</time></trkpt><trkpt lat="38.03939642356624" lon="15.797507397384207"><ele>634.0</ele><time>2026-04-25T09:27:05Z</time></trkpt><trkpt lat="38.03944779498733" lon="15.797589602516464"><ele>634.0</ele><time>2026-04-25T09:27:06Z</time></trkpt><trkpt lat="38.03946039882701" lon="15.797668292174398"><ele>634.0</ele><time>2026-04-25T09:27:07Z</time></trkpt><trkpt lat="38.03949238421552" lon="15.79775234212154"><ele>634.0</ele><time>2026-04-25T09:27:08Z</time></trkpt><trkpt lat="38.03954125353166" lon="15.79783478072158"><ele>634.0</ele><time>2026-04-25T09:27:09Z</time></trkpt><trkpt lat="38.03958000410306" lon="15.797924921446802"><ele>635.1666666666667</ele><time>2026-04-25T09:27:10Z</time></trkpt><trkpt lat="38.0396198506623" lon="15.798011091224158"><ele>636.3333333333334</ele><time>2026-04-25T09:27:11Z</time></trkpt><trkpt lat="38.03965359499038" lon="15.79812111602873"><ele>637.5</ele><time>2026-04-25T09:27:12Z</time></trkpt><trkpt lat="38.039687769910756" lon="15.79820564193529"><ele>638.6666666666666</ele><time>2026-04-25T09:27:13Z</time></trkpt><trkpt lat="38.03972426646456" lon="15.79827656862988"><ele>639.8333333333333</ele><time>2026-04-25T09:27:14Z</time></trkpt><trkpt lat="38.03974743051725" lon="15.798385486599164"><ele>641.0</ele><time>2026-04-25T09:27:16Z</time></trkpt><trkpt lat="38.03987329713619" lon="15.798353968453753"><ele>641.0</ele><time>2026-04-25T09:27:18Z</time></trkpt><trkpt lat="38.03993048350209" lon="15.798303529918835"><ele>641.0</ele><time>2026-04-25T09:27:19Z</time></trkpt><trkpt lat="38.039993697530534" lon="15.798288817264755"><ele>641.0</ele><time>2026-04-25T09:27:20Z</time></trkpt><trkpt lat="38.04007224435818" lon="15.79826895301228"><ele>641.0</ele><time>2026-04-25T09:27:21Z</time></trkpt><trkpt lat="38.040159304300495" lon="15.798263765356744"><ele>641.0</ele><time>2026-04-25T09:27:22Z</time></trkpt><trkpt lat="38.040239174546684" lon="15.798231606693273"><ele>641.0</ele><time>2026-04-25T09:27:23Z</time></trkpt><trkpt lat="38.04031982314527" lon="15.798205359540367"><ele>643.8</ele><time>2026-04-25T09:27:24Z</time></trkpt><trkpt lat="38.0404014072469" lon="15.798170388461362"><ele>646.5999999999999</ele><time>2026-04-25T09:27:25Z</time></trkpt><trkpt lat="38.040491596487534" lon="15.798159378259811"><ele>649.4</ele><time>2026-04-25T09:27:26Z</time></trkpt><trkpt lat="38.04057854307626" lon="15.798129062873178"><ele>652.2</ele><time>2026-04-25T09:27:27Z</time></trkpt><trkpt lat="38.040665644344664" lon="15.798078617050225"><ele>655.0</ele><time>2026-04-25T09:27:28Z</time></trkpt><trkpt lat="38.040757878078345" lon="15.798064138876786"><ele>659.0</ele><time>2026-04-25T09:27:29Z</time></trkpt><trkpt lat="38.04084364681526" lon="15.798020274465697"><ele>663.0</ele><time>2026-04-25T09:27:30Z</time></trkpt><trkpt lat="38.040930972448216" lon="15.797986801889785"><ele>667.0</ele><time>2026-04-25T09:27:31Z</time></trkpt><trkpt lat="38.04100310306342" lon="15.797925736746617"><ele>671.0</ele><time>2026-04-25T09:27:32Z</time></trkpt><trkpt lat="38.0410902197924" lon="15.797900858872467"><ele>675.0</ele><time>2026-04-25T09:27:33Z</time></trkpt><trkpt lat="38.041172615541086" lon="15.797857141144636"><ele>679.0</ele><time>2026-04-25T09:27:34Z</time></trkpt><trkpt lat="38.04125567217611" lon="15.797813182955952"><ele>679.0</ele><time>2026-04-25T09:27:35Z</time></trkpt><trkpt lat="38.041338104616834" lon="15.797772586761168"><ele>679.0</ele><time>2026-04-25T09:27:36Z</time></trkpt><trkpt lat="38.04142540036887" lon="15.79773617453768"><ele>679.0</ele><time>2026-04-25T09:27:37Z</time></trkpt><trkpt lat="38.041498947575455" lon="15.797689843118139"><ele>679.0</ele><time>2026-04-25T09:27:38Z</time></trkpt><trkpt lat="38.04157094070548" lon="15.797678580755036"><ele>679.0</ele><time>2026-04-25T09:27:39Z</time></trkpt><trkpt lat="38.041638955980304" lon="15.797658455589302"><ele>679.0</ele><time>2026-04-25T09:27:40Z</time></trkpt><trkpt lat="38.04172598739455" lon="15.797655592271296"><ele>679.0</ele><time>2026-04-25T09:27:42Z</time></trkpt><trkpt lat="38.04168321633012" lon="15.797781485481643"><ele>679.0</ele><time>2026-04-25T09:27:45Z</time></trkpt><trkpt lat="38.041577300922874" lon="15.79780842833487"><ele>679.0</ele><time>2026-04-25T09:27:47Z</time></trkpt><trkpt lat="38.04150766991119" lon="15.797832825770115"><ele>679.0</ele><time>2026-04-25T09:27:48Z</time></trkpt><trkpt lat="38.041442138061456" lon="15.797880577366284"><ele>679.0</ele><time>2026-04-25T09:27:49Z</time></trkpt><trkpt lat="38.04137718197081" lon="15.797949920353194"><ele>679.0</ele><time>2026-04-25T09:27:50Z</time></trkpt><trkpt lat="38.04131414827645" lon="15.798036976181532"><ele>679.0</ele><time>2026-04-25T09:27:51Z</time></trkpt><trkpt lat="38.041251749362004" lon="15.798122554231377"><ele>679.0</ele><time>2026-04-25T09:27:52Z</time></trkpt><trkpt lat="38.041203479564565" lon="15.798202363328036"><ele>679.0</ele><time>2026-04-25T09:27:53Z</time></trkpt><trkpt lat="38.04120584446799" lon="15.798290918663012"><ele>679.0</ele><time>2026-04-25T09:27:55Z</time></trkpt><trkpt lat="38.041276071624594" lon="15.79835377263796"><ele>679.0</ele><time>2026-04-25T09:39:53Z</time></trkpt><trkpt lat="38.04133645263952" lon="15.798394103024767"><ele>679.0</ele><time>2026-04-25T09:39:56Z</time></trkpt><trkpt lat="38.04143588737284" lon="15.798459595016055"><ele>678.1666666666667</ele><time>2026-04-25T09:40:11Z</time></trkpt><trkpt lat="38.04148954889017" lon="15.798507332207251"><ele>677.3333333333334</ele><time>2026-04-25T09:40:12Z</time></trkpt><trkpt lat="38.04154729196465" lon="15.798560964674842"><ele>676.5</ele><time>2026-04-25T09:40:13Z</time></trkpt><trkpt lat="38.04160415926246" lon="15.798617850820461"><ele>675.6666666666666</ele><time>2026-04-25T09:40:14Z</time></trkpt><trkpt lat="38.04168307011365" lon="15.798701574227122"><ele>674.8333333333333</ele><time>2026-04-25T09:40:15Z</time></trkpt><trkpt lat="38.04175490220809" lon="15.798782667942893"><ele>674.0</ele><time>2026-04-25T09:40:16Z</time></trkpt><trkpt lat="38.04180762172652" lon="15.79885515805979"><ele>679.5</ele><time>2026-04-25T09:40:16.999Z</time></trkpt><trkpt lat="38.04185051657498" lon="15.798931602934847"><ele>685.0</ele><time>2026-04-25T09:40:17.999Z</time></trkpt><trkpt lat="38.04188284199749" lon="15.799020779978088"><ele>690.5</ele><time>2026-04-25T09:40:18.999Z</time></trkpt><trkpt lat="38.041909081401684" lon="15.79912249160624"><ele>696.0</ele><time>2026-04-25T09:40:19.999Z</time></trkpt><trkpt lat="38.04193473881396" lon="15.799228385878562"><ele>701.5</ele><time>2026-04-25T09:40:20.999Z</time></trkpt><trkpt lat="38.04195737340452" lon="15.799340636751893"><ele>707.0</ele><time>2026-04-25T09:40:21.999Z</time></trkpt><trkpt lat="38.041985689487284" lon="15.799440699426054"><ele>707.0</ele><time>2026-04-25T09:40:22.999Z</time></trkpt><trkpt lat="38.04201297796146" lon="15.799530880913359"><ele>707.0</ele><time>2026-04-25T09:40:23.999Z</time></trkpt><trkpt lat="38.04204911145062" lon="15.799615232807568"><ele>707.0</ele><time>2026-04-25T09:40:25.999Z</time></trkpt><trkpt lat="38.04211811980146" lon="15.799601409389602"><ele>707.0</ele><time>2026-04-25T09:40:27.999Z</time></trkpt><trkpt lat="38.04212131255986" lon="15.799484987765112"><ele>707.0</ele><time>2026-04-25T09:40:29.999Z</time></trkpt><trkpt lat="38.04208288657032" lon="15.799335340281074"><ele>707.0</ele><time>2026-04-25T09:40:31.999Z</time></trkpt><trkpt lat="38.04207625703719" lon="15.799229287747515"><ele>707.3333333333333</ele><time>2026-04-25T09:40:32.999Z</time></trkpt><trkpt lat="38.0420816049185" lon="15.799115792154597"><ele>707.6666666666666</ele><time>2026-04-25T09:40:33.999Z</time></trkpt><trkpt lat="38.04209777284593" lon="15.79900594658991"><ele>708.0</ele><time>2026-04-25T09:40:34.999Z</time></trkpt><trkpt lat="38.04211081358773" lon="15.798897912935605"><ele>708.3333333333334</ele><time>2026-04-25T09:40:35.999Z</time></trkpt><trkpt lat="38.04211089774013" lon="15.798787680515844"><ele>708.6666666666667</ele><time>2026-04-25T09:40:36.999Z</time></trkpt><trkpt lat="38.04210016772726" lon="15.798697192945342"><ele>709.0</ele><time>2026-04-25T09:40:37.999Z</time></trkpt><trkpt lat="38.04207772886233" lon="15.798620860508084"><ele>709.0000000000001</ele><time>2026-04-25T09:40:38.999Z</time></trkpt><trkpt lat="38.04204309738569" lon="15.798521368333455"><ele>709.0</ele><time>2026-04-25T09:40:39.999Z</time></trkpt><trkpt lat="38.04203199440127" lon="15.798425790277813"><ele>709.0</ele><time>2026-04-25T09:40:40.999Z</time></trkpt><trkpt lat="38.04205861889851" lon="15.798342422737226"><ele>709.0</ele><time>2026-04-25T09:40:41.999Z</time></trkpt><trkpt lat="38.042114422887984" lon="15.798284419078952"><ele>709.0</ele><time>2026-04-25T09:40:42.999Z</time></trkpt><trkpt lat="38.042176588602736" lon="15.798242722931493"><ele>709.0000000000001</ele><time>2026-04-25T09:40:43.999Z</time></trkpt><trkpt lat="38.04223794348931" lon="15.798196413209132"><ele>709.0</ele><time>2026-04-25T09:40:44.999Z</time></trkpt><trkpt lat="38.0423038464446" lon="15.798138991268695"><ele>710.0</ele><time>2026-04-25T09:40:45.999Z</time></trkpt><trkpt lat="38.04238087346904" lon="15.798098655581216"><ele>711.0</ele><time>2026-04-25T09:40:46.999Z</time></trkpt><trkpt lat="38.042466646757454" lon="15.798081009805056"><ele>712.0</ele><time>2026-04-25T09:40:47.999Z</time></trkpt><trkpt lat="38.04255896598795" lon="15.798076572851445"><ele>713.0</ele><time>2026-04-25T09:40:48.999Z</time></trkpt><trkpt lat="38.04263873326681" lon="15.798053790883154"><ele>714.0</ele><time>2026-04-25T09:40:49.999Z</time></trkpt><trkpt lat="38.0427283765746" lon="15.797996516458984"><ele>715.0</ele><time>2026-04-25T09:40:51.999Z</time></trkpt><trkpt lat="38.04277589894164" lon="15.79785757001596"><ele>723.6</ele><time>2026-04-25T09:40:53.999Z</time></trkpt><trkpt lat="38.04281782699218" lon="15.797767508447043"><ele>732.2</ele><time>2026-04-25T09:40:54.999Z</time></trkpt><trkpt lat="38.042872072887775" lon="15.797710102440435"><ele>740.8</ele><time>2026-04-25T09:40:55.999Z</time></trkpt><trkpt lat="38.04297345373262" lon="15.797722296012825"><ele>749.4</ele><time>2026-04-25T09:40:57.999Z</time></trkpt><trkpt lat="38.04305882884879" lon="15.7978203730836"><ele>758.0</ele><time>2026-04-25T09:40:59.999Z</time></trkpt><trkpt lat="38.04316727192078" lon="15.797900052395674"><ele>758.0</ele><time>2026-04-25T09:41:01.999Z</time></trkpt><trkpt lat="38.04328860839771" lon="15.797939981406852"><ele>758.0</ele><time>2026-04-25T09:41:03.999Z</time></trkpt><trkpt lat="38.04340039197488" lon="15.797963799813136"><ele>758.0</ele><time>2026-04-25T09:41:05.999Z</time></trkpt><trkpt lat="38.04340441987644" lon="15.798069268519685"><ele>758.0</ele><time>2026-04-25T09:41:10.999Z</time></trkpt><trkpt lat="38.043300165445025" lon="15.798082513621027"><ele>758.0</ele><time>2026-04-25T09:41:12.999Z</time></trkpt><trkpt lat="38.04323255391443" lon="15.798075779671384"><ele>758.0</ele><time>2026-04-25T09:41:13.999Z</time></trkpt><trkpt lat="38.04310529807399" lon="15.798094113186608"><ele>758.0</ele><time>2026-04-25T09:41:15.999Z</time></trkpt><trkpt lat="38.043034847310714" lon="15.798119864016067"><ele>758.0</ele><time>2026-04-25T09:41:16.999Z</time></trkpt><trkpt lat="38.04297591236155" lon="15.798169438140976"><ele>758.0</ele><time>2026-04-25T09:41:17.999Z</time></trkpt><trkpt lat="38.04293439066474" lon="15.798242675191462"><ele>758.0</ele><time>2026-04-25T09:41:19Z</time></trkpt><trkpt lat="38.04289625664316" lon="15.798344841695776"><ele>758.0</ele><time>2026-04-25T09:41:20Z</time></trkpt><trkpt lat="38.04283840210462" lon="15.798434848587183"><ele>758.0</ele><time>2026-04-25T09:41:21Z</time></trkpt><trkpt lat="38.04278832915048" lon="15.798519693678976"><ele>758.0</ele><time>2026-04-25T09:41:22Z</time></trkpt><trkpt lat="38.042752950140944" lon="15.79858851002016"><ele>758.0</ele><time>2026-04-25T09:41:23Z</time></trkpt><trkpt lat="38.042749360334774" lon="15.798675722527046"><ele>758.0</ele><time>2026-04-25T09:41:26Z</time></trkpt><trkpt lat="38.04282296571371" lon="15.798672924185851"><ele>758.0</ele><time>2026-04-25T09:41:29Z</time></trkpt><trkpt lat="38.04287034557253" lon="15.798567359193502"><ele>758.0</ele><time>2026-04-25T09:41:31Z</time></trkpt><trkpt lat="38.04290710600077" lon="15.798497801376834"><ele>758.0</ele><time>2026-04-25T09:42:11Z</time></trkpt><trkpt lat="38.042990006614296" lon="15.79842543028819"><ele>758.0</ele><time>2026-04-25T09:42:13.999Z</time></trkpt><trkpt lat="38.04307511319813" lon="15.798389819252238"><ele>758.0</ele><time>2026-04-25T09:42:15.999Z</time></trkpt><trkpt lat="38.043166289983596" lon="15.798396085210053"><ele>758.0</ele><time>2026-04-25T09:42:17.999Z</time></trkpt><trkpt lat="38.04325004916677" lon="15.79842674040423"><ele>758.0</ele><time>2026-04-25T09:42:19.999Z</time></trkpt><trkpt lat="38.043319920464405" lon="15.798454981944987"><ele>758.0</ele><time>2026-04-25T09:42:21.999Z</time></trkpt><trkpt lat="38.04340107730427" lon="15.79848601182846"><ele>758.6666666666666</ele><time>2026-04-25T09:42:23.999Z</time></trkpt><trkpt lat="38.04343179799234" lon="15.798568848455574"><ele>759.3333333333333</ele><time>2026-04-25T09:42:26.999Z</time></trkpt><trkpt lat="38.04336624125099" lon="15.798589500755082"><ele>760.0</ele><time>2026-04-25T09:42:28.999Z</time></trkpt><trkpt lat="38.04326373157537" lon="15.798569028705895"><ele>760.6666666666666</ele><time>2026-04-25T09:42:30.999Z</time></trkpt><trkpt lat="38.04315251518858" lon="15.798627261556108"><ele>761.3333333333334</ele><time>2026-04-25T09:42:32.999Z</time></trkpt><trkpt lat="38.04309484679156" lon="15.798701470086936"><ele>762.0</ele><time>2026-04-25T09:42:35.999Z</time></trkpt><trkpt lat="38.04307922384859" lon="15.79880883865189"><ele>762.0</ele><time>2026-04-25T09:43:31.999Z</time></trkpt><trkpt lat="38.0431355351292" lon="15.79889955614427"><ele>762.0</ele><time>2026-04-25T09:43:33.999Z</time></trkpt><trkpt lat="38.04323410686214" lon="15.79895577555185"><ele>762.0</ele><time>2026-04-25T09:43:35.999Z</time></trkpt><trkpt lat="38.04337485098388" lon="15.798996601459336"><ele>762.0</ele><time>2026-04-25T09:43:37.999Z</time></trkpt><trkpt lat="38.04344787339034" lon="15.799021620914392"><ele>762.0</ele><time>2026-04-25T09:43:38.999Z</time></trkpt><trkpt lat="38.043554292187856" lon="15.79907710340963"><ele>766.2</ele><time>2026-04-25T09:43:39.999Z</time></trkpt><trkpt lat="38.04363567713416" lon="15.79912292939589"><ele>770.4000000000001</ele><time>2026-04-25T09:43:40.999Z</time></trkpt><trkpt lat="38.04370912513358" lon="15.799197639247103"><ele>774.5999999999999</ele><time>2026-04-25T09:43:41.999Z</time></trkpt><trkpt lat="38.043780159322836" lon="15.799286157443593"><ele>778.8</ele><time>2026-04-25T09:43:42.999Z</time></trkpt><trkpt lat="38.04385657990515" lon="15.799392259189975"><ele>783.0</ele><time>2026-04-25T09:43:43.999Z</time></trkpt><trkpt lat="38.04393759661113" lon="15.799518327934226"><ele>783.0</ele><time>2026-04-25T09:43:44.999Z</time></trkpt><trkpt lat="38.04398739973297" lon="15.799615020396692"><ele>783.0</ele><time>2026-04-25T09:43:45.999Z</time></trkpt><trkpt lat="38.04403585112464" lon="15.79967350269112"><ele>783.0</ele><time>2026-04-25T09:43:46.999Z</time></trkpt><trkpt lat="38.04409709638299" lon="15.799734735879282"><ele>783.0</ele><time>2026-04-25T09:43:47.999Z</time></trkpt><trkpt lat="38.044162704609754" lon="15.799787467156762"><ele>783.0</ele><time>2026-04-25T09:43:48.999Z</time></trkpt><trkpt lat="38.04424841127585" lon="15.799822745288584"><ele>783.0</ele><time>2026-04-25T09:43:49.999Z</time></trkpt><trkpt lat="38.04433931026719" lon="15.799845916323639"><ele>791.0</ele><time>2026-04-25T09:43:50.999Z</time></trkpt><trkpt lat="38.04440882241679" lon="15.799903454303752"><ele>799.0</ele><time>2026-04-25T09:43:51.999Z</time></trkpt><trkpt lat="38.04446168751043" lon="15.79999555579556"><ele>807.0</ele><time>2026-04-25T09:43:52.999Z</time></trkpt><trkpt lat="38.044493772562795" lon="15.800094651641405"><ele>815.0</ele><time>2026-04-25T09:43:53.999Z</time></trkpt><trkpt lat="38.04452237309182" lon="15.800170299120724"><ele>823.0</ele><time>2026-04-25T09:43:54.999Z</time></trkpt><trkpt lat="38.04462739056289" lon="15.800226165207462"><ele>831.0</ele><time>2026-04-25T09:43:56.999Z</time></trkpt><trkpt lat="38.04470924550063" lon="15.80026157558926"><ele>833.0</ele><time>2026-04-25T09:43:57.999Z</time></trkpt><trkpt lat="38.04478162908439" lon="15.800310113367892"><ele>835.0</ele><time>2026-04-25T09:43:58.999Z</time></trkpt><trkpt lat="38.044802135646805" lon="15.800409726437781"><ele>837.0</ele><time>2026-04-25T09:44:00.999Z</time></trkpt><trkpt lat="38.04472172382136" lon="15.800529015663258"><ele>839.0</ele><time>2026-04-25T09:44:02.999Z</time></trkpt><trkpt lat="38.044653152622224" lon="15.800594804318449"><ele>841.0</ele><time>2026-04-25T09:44:03.999Z</time></trkpt><trkpt lat="38.04460712703862" lon="15.800674124482267"><ele>841.0</ele><time>2026-04-25T09:44:04.999Z</time></trkpt><trkpt lat="38.044566510406575" lon="15.800800441290491"><ele>841.0</ele><time>2026-04-25T09:44:06.999Z</time></trkpt><trkpt lat="38.04451228182701" lon="15.800853315933967"><ele>841.0</ele><time>2026-04-25T09:44:07.999Z</time></trkpt><trkpt lat="38.04438894190002" lon="15.800911102655073"><ele>841.0</ele><time>2026-04-25T09:44:09.999Z</time></trkpt><trkpt lat="38.04432414475374" lon="15.800948712256902"><ele>841.0</ele><time>2026-04-25T09:44:10.999Z</time></trkpt><trkpt lat="38.04425950638133" lon="15.80100602298164"><ele>840.9999999999999</ele><time>2026-04-25T09:44:12.999Z</time></trkpt><trkpt lat="38.044303670551685" lon="15.80108175150567"><ele>841.0</ele><time>2026-04-25T09:46:00.999Z</time></trkpt><trkpt lat="38.044364514973715" lon="15.801038008039557"><ele>841.0</ele><time>2026-04-25T09:46:41.999Z</time></trkpt><trkpt lat="38.04443579372619" lon="15.801013517452798"><ele>841.0</ele><time>2026-04-25T09:46:42.999Z</time></trkpt><trkpt lat="38.04454048733022" lon="15.800942279396113"><ele>840.9999999999999</ele><time>2026-04-25T09:46:44.999Z</time></trkpt><trkpt lat="38.04460229882959" lon="15.800909444072015"><ele>841.0</ele><time>2026-04-25T09:46:45.999Z</time></trkpt><trkpt lat="38.0446615306063" lon="15.8008748611908"><ele>841.0</ele><time>2026-04-25T09:46:46.999Z</time></trkpt><trkpt lat="38.04472165506596" lon="15.800841811746603"><ele>841.0</ele><time>2026-04-25T09:46:47.999Z</time></trkpt><trkpt lat="38.04477268965485" lon="15.80078576248756"><ele>841.0</ele><time>2026-04-25T09:46:48.999Z</time></trkpt><trkpt lat="38.044873558188606" lon="15.8007349309325"><ele>841.0</ele><time>2026-04-25T09:46:50.999Z</time></trkpt><trkpt lat="38.04496867497083" lon="15.8007504228416"><ele>841.0</ele><time>2026-04-25T09:46:52.999Z</time></trkpt><trkpt lat="38.04508574998042" lon="15.80075044135449"><ele>847.8</ele><time>2026-04-25T09:46:54.999Z</time></trkpt><trkpt lat="38.04518691359848" lon="15.800675247052283"><ele>854.5999999999999</ele><time>2026-04-25T09:46:56.999Z</time></trkpt><trkpt lat="38.045273641808485" lon="15.800567211200516"><ele>861.4</ele><time>2026-04-25T09:46:58.999Z</time></trkpt><trkpt lat="38.04532786180743" lon="15.800458654360675"><ele>868.2</ele><time>2026-04-25T09:47:00.999Z</time></trkpt><trkpt lat="38.0452974758497" lon="15.80037268748982"><ele>875.0</ele><time>2026-04-25T09:47:02.999Z</time></trkpt><trkpt lat="38.04523041040436" lon="15.8002751829461"><ele>875.6</ele><time>2026-04-25T09:47:04.999Z</time></trkpt><trkpt lat="38.045157258210594" lon="15.800157037940647"><ele>876.2</ele><time>2026-04-25T09:47:06.999Z</time></trkpt><trkpt lat="38.04513260646907" lon="15.80007723166789"><ele>876.8</ele><time>2026-04-25T09:47:07.999Z</time></trkpt><trkpt lat="38.04510402337696" lon="15.79999993244654"><ele>877.4</ele><time>2026-04-25T09:47:08.999Z</time></trkpt><trkpt lat="38.04507004931416" lon="15.799910518490945"><ele>878.0</ele><time>2026-04-25T09:47:09.999Z</time></trkpt><trkpt lat="38.04501755548793" lon="15.799762226136195"><ele>878.0000000000001</ele><time>2026-04-25T09:47:11.999Z</time></trkpt><trkpt lat="38.04499905982373" lon="15.799681719435124"><ele>878.0</ele><time>2026-04-25T09:47:12.999Z</time></trkpt><trkpt lat="38.04500614829034" lon="15.799556579911597"><ele>878.0</ele><time>2026-04-25T09:47:14.999Z</time></trkpt><trkpt lat="38.04507389114459" lon="15.799548268764342"><ele>878.0</ele><time>2026-04-25T09:47:17.999Z</time></trkpt><trkpt lat="38.045089982192074" lon="15.799652866248136"><ele>878.0000000000001</ele><time>2026-04-25T09:47:19.999Z</time></trkpt><trkpt lat="38.045109547782246" lon="15.799787614375738"><ele>878.0</ele><time>2026-04-25T09:47:21.999Z</time></trkpt><trkpt lat="38.045214058716134" lon="15.799873879619511"><ele>878.0</ele><time>2026-04-25T09:47:23.999Z</time></trkpt><trkpt lat="38.045275904422105" lon="15.79992627299573"><ele>878.0</ele><time>2026-04-25T09:47:24.999Z</time></trkpt><trkpt lat="38.04533641018862" lon="15.799989581610157"><ele>878.0</ele><time>2026-04-25T09:47:25.999Z</time></trkpt><trkpt lat="38.04538601253627" lon="15.800059954686544"><ele>878.0</ele><time>2026-04-25T09:47:26.999Z</time></trkpt><trkpt lat="38.04543540415472" lon="15.800123943563593"><ele>878.0</ele><time>2026-04-25T09:47:27.999Z</time></trkpt><trkpt lat="38.04548752113129" lon="15.800170872625863"><ele>878.0</ele><time>2026-04-25T09:47:28.999Z</time></trkpt><trkpt lat="38.04554454748155" lon="15.800207829543899"><ele>878.0</ele><time>2026-04-25T09:47:29.999Z</time></trkpt><trkpt lat="38.04560744116509" lon="15.800235439126078"><ele>877.4</ele><time>2026-04-25T09:47:30.999Z</time></trkpt><trkpt lat="38.04567079853717" lon="15.800249391165726"><ele>876.8</ele><time>2026-04-25T09:47:31.999Z</time></trkpt><trkpt lat="38.04580467463865" lon="15.80023934525277"><ele>876.2</ele><time>2026-04-25T09:47:33.999Z</time></trkpt><trkpt lat="38.04587264122259" lon="15.800232210507408"><ele>875.6</ele><time>2026-04-25T09:47:34.999Z</time></trkpt><trkpt lat="38.045980692938585" lon="15.800280394619339"><ele>875.0</ele><time>2026-04-25T09:47:36.999Z</time></trkpt><trkpt lat="38.04601137589856" lon="15.800392752460905"><ele>875.0000000000001</ele><time>2026-04-25T09:47:38.999Z</time></trkpt><trkpt lat="38.04596062058895" lon="15.800496127821654"><ele>875.0</ele><time>2026-04-25T09:47:40.999Z</time></trkpt><trkpt lat="38.04588565056894" lon="15.800616589612838"><ele>875.0</ele><time>2026-04-25T09:47:42.999Z</time></trkpt><trkpt lat="38.04585881054798" lon="15.800701095612364"><ele>875.0</ele><time>2026-04-25T09:47:43.999Z</time></trkpt><trkpt lat="38.0458398706261" lon="15.800781086987671"><ele>875.0000000000001</ele><time>2026-04-25T09:47:44.999Z</time></trkpt><trkpt lat="38.045814606367074" lon="15.800862604930554"><ele>875.0</ele><time>2026-04-25T09:47:45.999Z</time></trkpt><trkpt lat="38.04579147862734" lon="15.800937070372877"><ele>880.3333333333334</ele><time>2026-04-25T09:47:46.999Z</time></trkpt><trkpt lat="38.04584783890221" lon="15.80098259797119"><ele>885.6666666666667</ele><time>2026-04-25T09:47:50.999Z</time></trkpt><trkpt lat="38.04591160136668" lon="15.800905219093318"><ele>891.0</ele><time>2026-04-25T09:47:52.999Z</time></trkpt><trkpt lat="38.04595588639331" lon="15.800798992682289"><ele>896.3333333333333</ele><time>2026-04-25T09:47:54.999Z</time></trkpt><trkpt lat="38.046010459534564" lon="15.800709570381041"><ele>901.6666666666666</ele><time>2026-04-25T09:47:56.999Z</time></trkpt><trkpt lat="38.04608345010979" lon="15.80063175898446"><ele>907.0</ele><time>2026-04-25T09:47:58.999Z</time></trkpt><trkpt lat="38.046174926461745" lon="15.80055398484149"><ele>907.0</ele><time>2026-04-25T09:48:00.999Z</time></trkpt><trkpt lat="38.04627427073533" lon="15.80046553559282"><ele>907.0</ele><time>2026-04-25T09:48:02.999Z</time></trkpt><trkpt lat="38.046308858731365" lon="15.800397152436187"><ele>907.0</ele><time>2026-04-25T09:48:03.999Z</time></trkpt><trkpt lat="38.046317384247075" lon="15.80025519811474"><ele>907.0</ele><time>2026-04-25T09:48:05.999Z</time></trkpt><trkpt lat="38.04624819558801" lon="15.800132999785792"><ele>907.0</ele><time>2026-04-25T09:48:07.999Z</time></trkpt><trkpt lat="38.04616122726367" lon="15.800022394483028"><ele>908.4000000000001</ele><time>2026-04-25T09:48:09.999Z</time></trkpt><trkpt lat="38.046069745996306" lon="15.799925967015298"><ele>909.8000000000001</ele><time>2026-04-25T09:48:11.999Z</time></trkpt><trkpt lat="38.04604166152714" lon="15.799835239485148"><ele>911.2</ele><time>2026-04-25T09:48:13.999Z</time></trkpt><trkpt lat="38.04612831428038" lon="15.799773332478479"><ele>912.6</ele><time>2026-04-25T09:48:15.999Z</time></trkpt><trkpt lat="38.04621948150695" lon="15.799823846944337"><ele>914.0</ele><time>2026-04-25T09:48:17.999Z</time></trkpt><trkpt lat="38.04627281762579" lon="15.79988956651082"><ele>914.0</ele><time>2026-04-25T09:49:14.999Z</time></trkpt><trkpt lat="38.04633257632086" lon="15.7999479814406"><ele>914.0000000000001</ele><time>2026-04-25T09:49:16.999Z</time></trkpt><trkpt lat="38.04641358298226" lon="15.799985379102816"><ele>914.0000000000001</ele><time>2026-04-25T09:49:18.999Z</time></trkpt><trkpt lat="38.04649397609397" lon="15.800015544937333"><ele>914.0</ele><time>2026-04-25T09:49:20.999Z</time></trkpt><trkpt lat="38.046582226391166" lon="15.800063994093343"><ele>914.0</ele><time>2026-04-25T09:49:22.999Z</time></trkpt><trkpt lat="38.04666162006368" lon="15.800161438028622"><ele>912.8333333333334</ele><time>2026-04-25T09:49:24.999Z</time></trkpt><trkpt lat="38.04671912185949" lon="15.800286389386638"><ele>911.6666666666667</ele><time>2026-04-25T09:49:26.999Z</time></trkpt><trkpt lat="38.04671082525945" lon="15.800432793045122"><ele>910.5</ele><time>2026-04-25T09:49:28.999Z</time></trkpt><trkpt lat="38.04668080785868" lon="15.800507056604214"><ele>909.3333333333333</ele><time>2026-04-25T09:49:29.999Z</time></trkpt><trkpt lat="38.04665235716685" lon="15.800584627015692"><ele>908.1666666666666</ele><time>2026-04-25T09:49:30.999Z</time></trkpt><trkpt lat="38.04661227937304" lon="15.80066613714082"><ele>907.0</ele><time>2026-04-25T09:49:31.999Z</time></trkpt><trkpt lat="38.04656356148374" lon="15.80076845361294"><ele>912.6</ele><time>2026-04-25T09:49:33.999Z</time></trkpt><trkpt lat="38.04663133062002" lon="15.800810777511934"><ele>918.2</ele><time>2026-04-25T09:49:35.999Z</time></trkpt><trkpt lat="38.04670845113559" lon="15.800762007892825"><ele>923.8</ele><time>2026-04-25T09:49:37.999Z</time></trkpt><trkpt lat="38.04675949829373" lon="15.800647795302826"><ele>929.4</ele><time>2026-04-25T09:49:39.999Z</time></trkpt><trkpt lat="38.04679955237367" lon="15.800500691201702"><ele>935.0</ele><time>2026-04-25T09:49:41.999Z</time></trkpt><trkpt lat="38.046851011603344" lon="15.800418994498067"><ele>935.0</ele><time>2026-04-25T09:49:43.999Z</time></trkpt><trkpt lat="38.04691163896797" lon="15.800506194467799"><ele>935.0</ele><time>2026-04-25T09:49:46.999Z</time></trkpt><trkpt lat="38.04684949644726" lon="15.800660279175755"><ele>935.0</ele><time>2026-04-25T09:49:48.999Z</time></trkpt><trkpt lat="38.04680861535594" lon="15.800808304589982"><ele>935.0</ele><time>2026-04-25T09:49:50.999Z</time></trkpt><trkpt lat="38.04680380621648" lon="15.800894541357243"><ele>935.0</ele><time>2026-04-25T09:49:51.999Z</time></trkpt><trkpt lat="38.046828563815374" lon="15.800995251509951"><ele>930.8</ele><time>2026-04-25T09:49:53.999Z</time></trkpt><trkpt lat="38.046909653429296" lon="15.801069543597464"><ele>926.6</ele><time>2026-04-25T09:49:55.999Z</time></trkpt><trkpt lat="38.04697963665565" lon="15.801124049808088"><ele>922.4000000000001</ele><time>2026-04-25T09:49:57.999Z</time></trkpt><trkpt lat="38.04706670309947" lon="15.80114987380946"><ele>918.2</ele><time>2026-04-25T09:49:59.999Z</time></trkpt><trkpt lat="38.04714630616826" lon="15.801135103205413"><ele>914.0</ele><time>2026-04-25T09:50:01.999Z</time></trkpt><trkpt lat="38.047258475266574" lon="15.80115911636758"><ele>914.0000000000001</ele><time>2026-04-25T09:50:03.999Z</time></trkpt><trkpt lat="38.047380045540905" lon="15.801192983282789"><ele>914.0</ele><time>2026-04-25T09:50:05.999Z</time></trkpt><trkpt lat="38.047461037932955" lon="15.801190948998732"><ele>914.0</ele><time>2026-04-25T09:50:06.999Z</time></trkpt><trkpt lat="38.04753013730351" lon="15.801214449123973"><ele>914.0</ele><time>2026-04-25T09:50:07.999Z</time></trkpt><trkpt lat="38.04760290522753" lon="15.801248878454002"><ele>914.0000000000001</ele><time>2026-04-25T09:50:08.999Z</time></trkpt><trkpt lat="38.04769015758362" lon="15.801288721385472"><ele>914.0</ele><time>2026-04-25T09:50:09.999Z</time></trkpt><trkpt lat="38.04777924268517" lon="15.801334633419017"><ele>919.7142857142858</ele><time>2026-04-25T09:50:10.999Z</time></trkpt><trkpt lat="38.0478516061307" lon="15.801373196056534"><ele>925.4285714285714</ele><time>2026-04-25T09:50:11.999Z</time></trkpt><trkpt lat="38.04791584705442" lon="15.8014122582086"><ele>931.1428571428571</ele><time>2026-04-25T09:50:12.999Z</time></trkpt><trkpt lat="38.04797582378429" lon="15.80146665361234"><ele>936.8571428571429</ele><time>2026-04-25T09:50:13.999Z</time></trkpt><trkpt lat="38.048031557201874" lon="15.801508988375442"><ele>942.5714285714284</ele><time>2026-04-25T09:50:14.999Z</time></trkpt><trkpt lat="38.04809529850185" lon="15.801540461405445"><ele>948.2857142857142</ele><time>2026-04-25T09:50:15.999Z</time></trkpt><trkpt lat="38.04815827589596" lon="15.801560938743686"><ele>954.0</ele><time>2026-04-25T09:50:16.999Z</time></trkpt><trkpt lat="38.04828115712707" lon="15.801580838793921"><ele>957.5</ele><time>2026-04-25T09:50:18.999Z</time></trkpt><trkpt lat="38.04835374569523" lon="15.801594949577566"><ele>961.0</ele><time>2026-04-25T09:50:19.999Z</time></trkpt><trkpt lat="38.048430661981726" lon="15.801600520054981"><ele>964.5</ele><time>2026-04-25T09:50:20.999Z</time></trkpt><trkpt lat="38.0484993454763" lon="15.801604325716811"><ele>968.0</ele><time>2026-04-25T09:50:21.999Z</time></trkpt><trkpt lat="38.04857330060753" lon="15.801617799202093"><ele>971.5</ele><time>2026-04-25T09:50:22.999Z</time></trkpt><trkpt lat="38.04864769969641" lon="15.801658518999126"><ele>975.0</ele><time>2026-04-25T09:50:23.999Z</time></trkpt><trkpt lat="38.04871629121454" lon="15.801706545153522"><ele>975.0</ele><time>2026-04-25T09:50:24.999Z</time></trkpt><trkpt lat="38.048783249608604" lon="15.801752299368339"><ele>974.9999999999999</ele><time>2026-04-25T09:50:25.999Z</time></trkpt><trkpt lat="38.048848754918666" lon="15.801780858225763"><ele>975.0</ele><time>2026-04-25T09:50:26.999Z</time></trkpt><trkpt lat="38.04891578825879" lon="15.801795813040478"><ele>975.0</ele><time>2026-04-25T09:50:27.999Z</time></trkpt><trkpt lat="38.048986879813725" lon="15.80178639792427"><ele>974.9999999999999</ele><time>2026-04-25T09:50:28.999Z</time></trkpt><trkpt lat="38.04905612178296" lon="15.801770611196588"><ele>975.0</ele><time>2026-04-25T09:50:29.999Z</time></trkpt><trkpt lat="38.04911622422042" lon="15.801734634871435"><ele>975.0</ele><time>2026-04-25T09:50:30.999Z</time></trkpt><trkpt lat="38.04917470970929" lon="15.801678561038361"><ele>978.3333333333334</ele><time>2026-04-25T09:50:31.999Z</time></trkpt><trkpt lat="38.04922619976413" lon="15.801611940241408"><ele>981.6666666666667</ele><time>2026-04-25T09:50:32.999Z</time></trkpt><trkpt lat="38.0492781265659" lon="15.801540514067652"><ele>985.0</ele><time>2026-04-25T09:50:33.999Z</time></trkpt><trkpt lat="38.0493284386324" lon="15.801464192739635"><ele>988.3333333333334</ele><time>2026-04-25T09:50:34.999Z</time></trkpt><trkpt lat="38.049380939384584" lon="15.801395012122294"><ele>991.6666666666667</ele><time>2026-04-25T09:50:35.999Z</time></trkpt><trkpt lat="38.0494554891479" lon="15.801314991104201"><ele>995.0</ele><time>2026-04-25T09:50:37.999Z</time></trkpt><trkpt lat="38.049518800142614" lon="15.801380553481897"><ele>995.0</ele><time>2026-04-25T09:50:40.999Z</time></trkpt><trkpt lat="38.049474243991995" lon="15.801486143901819"><ele>995.0</ele><time>2026-04-25T09:50:42.999Z</time></trkpt><trkpt lat="38.04941750469924" lon="15.801544561279293"><ele>995.0</ele><time>2026-04-25T09:50:43.999Z</time></trkpt><trkpt lat="38.04935429523855" lon="15.801659584316203"><ele>995.0</ele><time>2026-04-25T09:50:45.999Z</time></trkpt><trkpt lat="38.04934691602594" lon="15.801778362391998"><ele>995.0</ele><time>2026-04-25T09:50:47.999Z</time></trkpt><trkpt lat="38.0493863659724" lon="15.80188441073534"><ele>993.8333333333334</ele><time>2026-04-25T09:50:49.999Z</time></trkpt><trkpt lat="38.04948325461455" lon="15.801982744502483"><ele>992.6666666666667</ele><time>2026-04-25T09:50:51.999Z</time></trkpt><trkpt lat="38.04952755391676" lon="15.802040527652606"><ele>991.5</ele><time>2026-04-25T09:50:52.999Z</time></trkpt><trkpt lat="38.049562323271225" lon="15.802114904130853"><ele>990.3333333333333</ele><time>2026-04-25T09:50:53.999Z</time></trkpt><trkpt lat="38.049589433033226" lon="15.80219097403839"><ele>989.1666666666666</ele><time>2026-04-25T09:50:54.999Z</time></trkpt><trkpt lat="38.04961056378381" lon="15.802278237603453"><ele>988.0</ele><time>2026-04-25T09:50:55.999Z</time></trkpt><trkpt lat="38.04963412483127" lon="15.80236322917602"><ele>987.9999999999999</ele><time>2026-04-25T09:50:56.999Z</time></trkpt><trkpt lat="38.049650317994065" lon="15.80244110953342"><ele>988.0</ele><time>2026-04-25T09:50:57.999Z</time></trkpt><trkpt lat="38.0496786594256" lon="15.802574997698592"><ele>988.0</ele><time>2026-04-25T09:50:59.999Z</time></trkpt><trkpt lat="38.049722661654194" lon="15.802652315068148"><ele>988.0</ele><time>2026-04-25T09:51:01.999Z</time></trkpt><trkpt lat="38.049788871861466" lon="15.802755202227793"><ele>987.9999999999999</ele><time>2026-04-25T09:51:03.999Z</time></trkpt><trkpt lat="38.04982196689921" lon="15.802870883707353"><ele>988.0</ele><time>2026-04-25T09:51:05.999Z</time></trkpt><trkpt lat="38.049890947707674" lon="15.802948401796355"><ele>993.5999999999999</ele><time>2026-04-25T09:51:07.999Z</time></trkpt><trkpt lat="38.04998029286261" lon="15.802977165243362"><ele>999.1999999999999</ele><time>2026-04-25T09:51:09.999Z</time></trkpt><trkpt lat="38.050081750118345" lon="15.802959590680853"><ele>1004.8</ele><time>2026-04-25T09:51:11.999Z</time></trkpt><trkpt lat="38.050143634187556" lon="15.802976737391049"><ele>1010.4</ele><time>2026-04-25T09:51:12.999Z</time></trkpt><trkpt lat="38.05024074546127" lon="15.803039321985848"><ele>1016.0</ele><time>2026-04-25T09:51:14.999Z</time></trkpt><trkpt lat="38.05027412241272" lon="15.803145164994813"><ele>1016.0</ele><time>2026-04-25T09:51:16.999Z</time></trkpt><trkpt lat="38.0502979890905" lon="15.803261563688332"><ele>1015.9999999999999</ele><time>2026-04-25T09:51:18.999Z</time></trkpt><trkpt lat="38.050378090146346" lon="15.803347146574161"><ele>1015.9999999999999</ele><time>2026-04-25T09:51:20.999Z</time></trkpt><trkpt lat="38.05047229352636" lon="15.803433830154729"><ele>1016.0</ele><time>2026-04-25T09:51:22.999Z</time></trkpt><trkpt lat="38.050573390085376" lon="15.803538001784858"><ele>1016.0</ele><time>2026-04-25T09:51:24.999Z</time></trkpt><trkpt lat="38.05062967293209" lon="15.803647566197936"><ele>1015.1666666666667</ele><time>2026-04-25T09:51:26.999Z</time></trkpt><trkpt lat="38.050608530509166" lon="15.8037514195695"><ele>1014.3333333333334</ele><time>2026-04-25T09:51:28.999Z</time></trkpt><trkpt lat="38.050557943894134" lon="15.803812855766505"><ele>1013.5</ele><time>2026-04-25T09:51:30.999Z</time></trkpt><trkpt lat="38.050537573666205" lon="15.803939502340167"><ele>1012.6666666666667</ele><time>2026-04-25T09:51:32.999Z</time></trkpt><trkpt lat="38.05058340160316" lon="15.804041385065576"><ele>1011.8333333333334</ele><time>2026-04-25T09:51:34.999Z</time></trkpt><trkpt lat="38.050637830668975" lon="15.804147732617297"><ele>1011.0</ele><time>2026-04-25T09:51:36.999Z</time></trkpt><trkpt lat="38.050697466627746" lon="15.804228995396482"><ele>1006.8</ele><time>2026-04-25T09:51:38.999Z</time></trkpt><trkpt lat="38.05075734736657" lon="15.804340984622606"><ele>1002.5999999999999</ele><time>2026-04-25T09:51:40.999Z</time></trkpt><trkpt lat="38.050800768209136" lon="15.80447979411797"><ele>998.4</ele><time>2026-04-25T09:51:42.999Z</time></trkpt><trkpt lat="38.05083377581665" lon="15.804553316568493"><ele>994.2</ele><time>2026-04-25T09:51:43.999Z</time></trkpt><trkpt lat="38.05089764339138" lon="15.804677434171532"><ele>990.0</ele><time>2026-04-25T09:51:45.999Z</time></trkpt><trkpt lat="38.0509629940277" lon="15.804771655867741"><ele>999.4</ele><time>2026-04-25T09:51:47.999Z</time></trkpt><trkpt lat="38.05105527084324" lon="15.804812378030718"><ele>1008.8</ele><time>2026-04-25T09:51:49.999Z</time></trkpt><trkpt lat="38.05114599169205" lon="15.804817545963706"><ele>1018.2</ele><time>2026-04-25T09:51:51.999Z</time></trkpt><trkpt lat="38.05124398176218" lon="15.804894919044491"><ele>1027.6</ele><time>2026-04-25T09:51:53.999Z</time></trkpt><trkpt lat="38.05133366084113" lon="15.804966645908923"><ele>1037.0</ele><time>2026-04-25T09:51:55.999Z</time></trkpt><trkpt lat="38.05142118187757" lon="15.804986933355643"><ele>1037.0</ele><time>2026-04-25T09:51:57.999Z</time></trkpt><trkpt lat="38.05148123959523" lon="15.804946529822164"><ele>1037.0</ele><time>2026-04-25T09:52:00.999Z</time></trkpt><trkpt lat="38.05147329055058" lon="15.804820829269492"><ele>1037.0</ele><time>2026-04-25T09:52:02.999Z</time></trkpt><trkpt lat="38.051463669020755" lon="15.80466930102894"><ele>1037.0</ele><time>2026-04-25T09:52:04.999Z</time></trkpt><trkpt lat="38.05147466395192" lon="15.804585966267016"><ele>1037.0</ele><time>2026-04-25T09:52:05.999Z</time></trkpt><trkpt lat="38.05148110027512" lon="15.804497245500249"><ele>1037.0</ele><time>2026-04-25T09:52:07Z</time></trkpt><trkpt lat="38.05149600312897" lon="15.804405622004309"><ele>1039.6666666666667</ele><time>2026-04-25T09:52:08Z</time></trkpt><trkpt lat="38.0515103745964" lon="15.804317648825355"><ele>1042.3333333333335</ele><time>2026-04-25T09:52:09Z</time></trkpt><trkpt lat="38.05152422287815" lon="15.804237967457485"><ele>1045.0</ele><time>2026-04-25T09:52:10Z</time></trkpt><trkpt lat="38.05159148546116" lon="15.804153686965696"><ele>1047.6666666666667</ele><time>2026-04-25T09:52:12Z</time></trkpt><trkpt lat="38.05167878057919" lon="15.804161700443409"><ele>1050.3333333333333</ele><time>2026-04-25T09:52:14Z</time></trkpt><trkpt lat="38.05177936366873" lon="15.804187400454026"><ele>1053.0</ele><time>2026-04-25T09:52:16Z</time></trkpt><trkpt lat="38.051877387676534" lon="15.804235651952"><ele>1053.0</ele><time>2026-04-25T09:52:18Z</time></trkpt><trkpt lat="38.051804586862986" lon="15.804185829222895"><ele>1053.0</ele><time>2026-04-25T09:54:59Z</time></trkpt><trkpt lat="38.051717634154386" lon="15.804169543389742"><ele>1053.0</ele><time>2026-04-25T09:55:01Z</time></trkpt><trkpt lat="38.051615596179175" lon="15.804170532169875"><ele>1053.0</ele><time>2026-04-25T09:55:03Z</time></trkpt><trkpt lat="38.05155177559151" lon="15.804247672973027"><ele>1053.0</ele><time>2026-04-25T09:55:05Z</time></trkpt><trkpt lat="38.05153573988211" lon="15.804352335903431"><ele>1053.0</ele><time>2026-04-25T09:55:07Z</time></trkpt><trkpt lat="38.0515227443445" lon="15.804466057777518"><ele>1050.3333333333333</ele><time>2026-04-25T09:55:09Z</time></trkpt><trkpt lat="38.05149487509563" lon="15.804581772578684"><ele>1047.6666666666667</ele><time>2026-04-25T09:55:11Z</time></trkpt><trkpt lat="38.05147364298565" lon="15.804703338171585"><ele>1045.0</ele><time>2026-04-25T09:55:13Z</time></trkpt><trkpt lat="38.051486853000185" lon="15.804811622093768"><ele>1042.3333333333335</ele><time>2026-04-25T09:55:15Z</time></trkpt><trkpt lat="38.051481115349766" lon="15.80492677490104"><ele>1039.6666666666667</ele><time>2026-04-25T09:55:17Z</time></trkpt><trkpt lat="38.05145470578052" lon="15.805002631420297"><ele>1037.0</ele><time>2026-04-25T09:55:19Z</time></trkpt><trkpt lat="38.05138929511661" lon="15.805007618746515"><ele>1037.0</ele><time>2026-04-25T09:55:21Z</time></trkpt><trkpt lat="38.051320652408826" lon="15.804968089048375"><ele>1037.0</ele><time>2026-04-25T09:55:23Z</time></trkpt><trkpt lat="38.05126047633806" lon="15.80491819614367"><ele>1037.0</ele><time>2026-04-25T09:55:25Z</time></trkpt><trkpt lat="38.05120341710041" lon="15.804865126911086"><ele>1037.0</ele><time>2026-04-25T09:55:27Z</time></trkpt><trkpt lat="38.05113365946921" lon="15.804811602504502"><ele>1037.0</ele><time>2026-04-25T09:55:29Z</time></trkpt><trkpt lat="38.051061275388186" lon="15.804801342511372"><ele>1037.0</ele><time>2026-04-25T09:55:31Z</time></trkpt><trkpt lat="38.05099212610133" lon="15.804774655214276"><ele>1037.0</ele><time>2026-04-25T09:55:33Z</time></trkpt><trkpt lat="38.05091976834833" lon="15.804725009000142"><ele>1037.0</ele><time>2026-04-25T09:55:35Z</time></trkpt><trkpt lat="38.05086166230635" lon="15.80462506172425"><ele>1037.0</ele><time>2026-04-25T09:55:37Z</time></trkpt><trkpt lat="38.0508189123043" lon="15.804504126453002"><ele>1037.0</ele><time>2026-04-25T09:55:39Z</time></trkpt><trkpt lat="38.05077196450669" lon="15.804405878571261"><ele>1037.0</ele><time>2026-04-25T09:55:41Z</time></trkpt><trkpt lat="38.05073862864557" lon="15.804298049894358"><ele>1037.0</ele><time>2026-04-25T09:55:43Z</time></trkpt><trkpt lat="38.050680505246824" lon="15.804189477503021"><ele>1032.6666666666667</ele><time>2026-04-25T09:55:45Z</time></trkpt><trkpt lat="38.050623812679454" lon="15.804103232841378"><ele>1028.3333333333335</ele><time>2026-04-25T09:55:47Z</time></trkpt><trkpt lat="38.05058035195236" lon="15.804011000968611"><ele>1024.0</ele><time>2026-04-25T09:55:49Z</time></trkpt><trkpt lat="38.05054861981404" lon="15.803925256751633"><ele>1019.6666666666667</ele><time>2026-04-25T09:55:51Z</time></trkpt><trkpt lat="38.050556758634904" lon="15.80383481482218"><ele>1015.3333333333334</ele><time>2026-04-25T09:55:53Z</time></trkpt><trkpt lat="38.05059761616067" lon="15.803754681741813"><ele>1011.0</ele><time>2026-04-25T09:55:55Z</time></trkpt><trkpt lat="38.05061682324764" lon="15.803636344355096"><ele>1011.0</ele><time>2026-04-25T09:55:58Z</time></trkpt><trkpt lat="38.05058483734612" lon="15.803557272672201"><ele>1011.0</ele><time>2026-04-25T09:56:00Z</time></trkpt><trkpt lat="38.05051277372389" lon="15.803497206181564"><ele>1011.0</ele><time>2026-04-25T09:56:02.001Z</time></trkpt><trkpt lat="38.05043891601591" lon="15.803425423203697"><ele>1011.0</ele><time>2026-04-25T09:56:04.001Z</time></trkpt><trkpt lat="38.050375760526904" lon="15.803355920852566"><ele>1011.0</ele><time>2026-04-25T09:56:06.001Z</time></trkpt><trkpt lat="38.050320975908534" lon="15.80329006478885"><ele>1011.0</ele><time>2026-04-25T09:56:08.001Z</time></trkpt><trkpt lat="38.050277484028555" lon="15.803224304054352"><ele>1011.7142857142856</ele><time>2026-04-25T09:56:10.001Z</time></trkpt><trkpt lat="38.05025446373617" lon="15.803147295783386"><ele>1012.4285714285713</ele><time>2026-04-25T09:56:12.001Z</time></trkpt><trkpt lat="38.05021777271649" lon="15.803050207900018"><ele>1013.1428571428571</ele><time>2026-04-25T09:56:14.001Z</time></trkpt><trkpt lat="38.05015960041703" lon="15.802992502050069"><ele>1013.8571428571428</ele><time>2026-04-25T09:56:16.001Z</time></trkpt><trkpt lat="38.05008461894442" lon="15.802968713342905"><ele>1014.5714285714284</ele><time>2026-04-25T09:56:18.001Z</time></trkpt><trkpt lat="38.050019973135235" lon="15.80297204800392"><ele>1015.2857142857143</ele><time>2026-04-25T09:56:20.001Z</time></trkpt><trkpt lat="38.04993713986816" lon="15.802988000907824"><ele>1016.0</ele><time>2026-04-25T09:56:22.001Z</time></trkpt><trkpt lat="38.0498698843706" lon="15.80296190416501"><ele>1011.3333333333334</ele><time>2026-04-25T09:56:24Z</time></trkpt><trkpt lat="38.049822865514514" lon="15.802883710073301"><ele>1006.6666666666667</ele><time>2026-04-25T09:56:26Z</time></trkpt><trkpt lat="38.04979360028763" lon="15.802790750063167"><ele>1002.0</ele><time>2026-04-25T09:56:28Z</time></trkpt><trkpt lat="38.04975515557575" lon="15.80270462658858"><ele>997.3333333333333</ele><time>2026-04-25T09:56:30Z</time></trkpt><trkpt lat="38.049723868228696" lon="15.80262940176234"><ele>992.6666666666666</ele><time>2026-04-25T09:56:32Z</time></trkpt><trkpt lat="38.04967956769056" lon="15.802550643046473"><ele>988.0</ele><time>2026-04-25T09:56:34Z</time></trkpt><trkpt lat="38.04963893951086" lon="15.802446762933126"><ele>988.0</ele><time>2026-04-25T09:56:36Z</time></trkpt><trkpt lat="38.0496251042206" lon="15.802308323267711"><ele>988.0</ele><time>2026-04-25T09:56:38Z</time></trkpt><trkpt lat="38.04957715164884" lon="15.802172080234671"><ele>988.0</ele><time>2026-04-25T09:56:40Z</time></trkpt><trkpt lat="38.04951533591297" lon="15.802048380284248"><ele>988.0</ele><time>2026-04-25T09:56:42Z</time></trkpt><trkpt lat="38.049436529171125" lon="15.801945524249323"><ele>988.0</ele><time>2026-04-25T09:56:44Z</time></trkpt><trkpt lat="38.04936702120147" lon="15.801858232253522"><ele>988.0</ele><time>2026-04-25T09:56:46Z</time></trkpt><trkpt lat="38.04934328990028" lon="15.801759077617277"><ele>988.0</ele><time>2026-04-25T09:56:48Z</time></trkpt><trkpt lat="38.04937722824481" lon="15.801640825722973"><ele>988.0</ele><time>2026-04-25T09:56:50Z</time></trkpt><trkpt lat="38.04943759703882" lon="15.801520149423903"><ele>988.0</ele><time>2026-04-25T09:56:52Z</time></trkpt><trkpt lat="38.04950936059944" lon="15.801437975385221"><ele>989.4</ele><time>2026-04-25T09:56:54Z</time></trkpt><trkpt lat="38.049489309744985" lon="15.801334092232976"><ele>990.8</ele><time>2026-04-25T09:56:57Z</time></trkpt><trkpt lat="38.04942554714805" lon="15.801347746865604"><ele>992.2</ele><time>2026-04-25T09:56:59Z</time></trkpt><trkpt lat="38.04936820181738" lon="15.801426519157115"><ele>993.6</ele><time>2026-04-25T09:57:01Z</time></trkpt><trkpt lat="38.04930668448401" lon="15.801536487241425"><ele>995.0</ele><time>2026-04-25T09:57:03Z</time></trkpt><trkpt lat="38.04922670000985" lon="15.801651670509269"><ele>995.0</ele><time>2026-04-25T09:57:05Z</time></trkpt><trkpt lat="38.04914652513795" lon="15.80173609684208"><ele>995.0</ele><time>2026-04-25T09:57:07Z</time></trkpt><trkpt lat="38.04904661955987" lon="15.801793914114677"><ele>995.0</ele><time>2026-04-25T09:57:09Z</time></trkpt><trkpt lat="38.04893590770251" lon="15.80182391812838"><ele>995.0</ele><time>2026-04-25T09:57:11Z</time></trkpt><trkpt lat="38.04883412629475" lon="15.8017912356904"><ele>995.0</ele><time>2026-04-25T09:57:13Z</time></trkpt><trkpt lat="38.048709934290486" lon="15.801720124609133"><ele>991.0</ele><time>2026-04-25T09:57:15Z</time></trkpt><trkpt lat="38.04864887547231" lon="15.801678068379816"><ele>987.0</ele><time>2026-04-25T09:57:16Z</time></trkpt><trkpt lat="38.04854000574461" lon="15.80161997629335"><ele>983.0</ele><time>2026-04-25T09:57:18Z</time></trkpt><trkpt lat="38.04847533968382" lon="15.801611344723941"><ele>979.0</ele><time>2026-04-25T09:57:19Z</time></trkpt><trkpt lat="38.04835618854697" lon="15.80161585923392"><ele>975.0</ele><time>2026-04-25T09:57:21Z</time></trkpt><trkpt lat="38.048247801582065" lon="15.801599227890524"><ele>971.5</ele><time>2026-04-25T09:57:23Z</time></trkpt><trkpt lat="38.048156163883824" lon="15.801570747444442"><ele>968.0</ele><time>2026-04-25T09:57:25Z</time></trkpt><trkpt lat="38.04806707987385" lon="15.801534426429514"><ele>964.5</ele><time>2026-04-25T09:57:27Z</time></trkpt><trkpt lat="38.047990626690805" lon="15.80148634139174"><ele>961.0</ele><time>2026-04-25T09:57:29Z</time></trkpt><trkpt lat="38.04791338773039" lon="15.801424708622623"><ele>957.5</ele><time>2026-04-25T09:57:31Z</time></trkpt><trkpt lat="38.04784086757343" lon="15.801370717600669"><ele>954.0</ele><time>2026-04-25T09:57:33Z</time></trkpt><trkpt lat="38.04772576904548" lon="15.801316157205655"><ele>954.0</ele><time>2026-04-25T09:57:35Z</time></trkpt><trkpt lat="38.04763552569499" lon="15.801286379289007"><ele>954.0000000000001</ele><time>2026-04-25T09:57:37Z</time></trkpt><trkpt lat="38.047558899775396" lon="15.801250686862007"><ele>954.0000000000001</ele><time>2026-04-25T09:57:39Z</time></trkpt><trkpt lat="38.04747009888579" lon="15.801221818084867"><ele>954.0</ele><time>2026-04-25T09:57:41Z</time></trkpt><trkpt lat="38.04736208705584" lon="15.801201375462078"><ele>954.0</ele><time>2026-04-25T09:57:43Z</time></trkpt><trkpt lat="38.04725134695506" lon="15.801180907157415"><ele>950.8333333333334</ele><time>2026-04-25T09:57:45Z</time></trkpt><trkpt lat="38.04715721123161" lon="15.801186714907994"><ele>947.6666666666667</ele><time>2026-04-25T09:57:47Z</time></trkpt><trkpt lat="38.047084215211186" lon="15.80117229673281"><ele>944.5</ele><time>2026-04-25T09:57:49Z</time></trkpt><trkpt lat="38.04701602243156" lon="15.801171903188385"><ele>941.3333333333334</ele><time>2026-04-25T09:57:51Z</time></trkpt><trkpt lat="38.046926202129754" lon="15.801132331475104"><ele>938.1666666666667</ele><time>2026-04-25T09:57:54Z</time></trkpt><trkpt lat="38.04686206752496" lon="15.801051515675521"><ele>935.0</ele><time>2026-04-25T09:57:57Z</time></trkpt><trkpt lat="38.046827494206035" lon="15.800950172409005"><ele>935.0000000000001</ele><time>2026-04-25T09:58:00Z</time></trkpt><trkpt lat="38.046839739716326" lon="15.800817467832346"><ele>935.0</ele><time>2026-04-25T09:58:03Z</time></trkpt><trkpt lat="38.04686472670764" lon="15.800704430339252"><ele>935.0</ele><time>2026-04-25T09:58:05Z</time></trkpt><trkpt lat="38.04690113408856" lon="15.800595156926338"><ele>935.0</ele><time>2026-04-25T09:58:07Z</time></trkpt><trkpt lat="38.04691312078647" lon="15.800506857552753"><ele>935.0000000000001</ele><time>2026-04-25T09:58:09Z</time></trkpt><trkpt lat="38.04684226229735" lon="15.800456103882519"><ele>935.0</ele><time>2026-04-25T09:58:12Z</time></trkpt><trkpt lat="38.04678967228535" lon="15.80053797512653"><ele>935.0000000000001</ele><time>2026-04-25T09:58:15Z</time></trkpt><trkpt lat="38.0467724041709" lon="15.80063015279756"><ele>935.0</ele><time>2026-04-25T09:58:17Z</time></trkpt><trkpt lat="38.04674521776334" lon="15.80070400788373"><ele>935.0</ele><time>2026-04-25T09:58:19Z</time></trkpt><trkpt lat="38.04668893078136" lon="15.800791589554299"><ele>935.0</ele><time>2026-04-25T09:58:21Z</time></trkpt><trkpt lat="38.04660908027393" lon="15.800812669951531"><ele>935.0000000000001</ele><time>2026-04-25T09:58:23Z</time></trkpt><trkpt lat="38.04658427910786" lon="15.800716294088428"><ele>935.0</ele><time>2026-04-25T09:58:25Z</time></trkpt><trkpt lat="38.046640959019555" lon="15.80061861840049"><ele>935.0</ele><time>2026-04-25T09:58:27Z</time></trkpt><trkpt lat="38.04669578172376" lon="15.800501569346602"><ele>935.0</ele><time>2026-04-25T09:58:29Z</time></trkpt><trkpt lat="38.04671452549837" lon="15.800402511929807"><ele>935.0</ele><time>2026-04-25T09:58:31Z</time></trkpt><trkpt lat="38.046704662787235" lon="15.800294013103324"><ele>935.0</ele><time>2026-04-25T09:58:33Z</time></trkpt><trkpt lat="38.04666185808316" lon="15.800172251723092"><ele>935.0</ele><time>2026-04-25T09:58:35Z</time></trkpt><trkpt lat="38.046593067006945" lon="15.800085725128627"><ele>930.8</ele><time>2026-04-25T09:58:37Z</time></trkpt><trkpt lat="38.04652597106891" lon="15.800027721990899"><ele>926.6</ele><time>2026-04-25T09:58:39Z</time></trkpt><trkpt lat="38.04644731692156" lon="15.799993256625832"><ele>922.4000000000001</ele><time>2026-04-25T09:58:41Z</time></trkpt><trkpt lat="38.04635650437117" lon="15.799960663927118"><ele>918.2</ele><time>2026-04-25T09:58:43Z</time></trkpt><trkpt lat="38.04626074653613" lon="15.799888764417927"><ele>914.0</ele><time>2026-04-25T09:58:45Z</time></trkpt><trkpt lat="38.046175215792424" lon="15.799806622155431"><ele>914.0000000000001</ele><time>2026-04-25T09:58:47Z</time></trkpt><trkpt lat="38.04609872512184" lon="15.799804237083931"><ele>914.0</ele><time>2026-04-25T09:58:49Z</time></trkpt><trkpt lat="38.046064132102224" lon="15.79989675211537"><ele>914.0</ele><time>2026-04-25T09:58:51Z</time></trkpt><trkpt lat="38.046110950253755" lon="15.79997738855181"><ele>914.0</ele><time>2026-04-25T09:58:53Z</time></trkpt><trkpt lat="38.046163108646994" lon="15.80002628488459"><ele>914.0000000000001</ele><time>2026-04-25T09:58:54Z</time></trkpt><trkpt lat="38.04621969219899" lon="15.800080230663333"><ele>914.0</ele><time>2026-04-25T09:58:55Z</time></trkpt><trkpt lat="38.0462940883479" lon="15.800196292879814"><ele>912.6</ele><time>2026-04-25T09:58:57Z</time></trkpt><trkpt lat="38.04632970591713" lon="15.800330248662267"><ele>911.2</ele><time>2026-04-25T09:58:59Z</time></trkpt><trkpt lat="38.04629534684707" lon="15.800462615727135"><ele>909.8000000000001</ele><time>2026-04-25T09:59:01Z</time></trkpt><trkpt lat="38.04620740417963" lon="15.80054524375263"><ele>908.4000000000001</ele><time>2026-04-25T09:59:03Z</time></trkpt><trkpt lat="38.04611490823751" lon="15.800611678301813"><ele>907.0</ele><time>2026-04-25T09:59:05Z</time></trkpt><trkpt lat="38.04602815537522" lon="15.800699707959097"><ele>906.9999999999999</ele><time>2026-04-25T09:59:07Z</time></trkpt><trkpt lat="38.04598910659355" lon="15.800765566906703"><ele>907.0</ele><time>2026-04-25T09:59:08Z</time></trkpt><trkpt lat="38.045922319667426" lon="15.80087555688057"><ele>907.0</ele><time>2026-04-25T09:59:10Z</time></trkpt><trkpt lat="38.045878484534505" lon="15.800954995180465"><ele>907.0</ele><time>2026-04-25T09:59:12Z</time></trkpt><trkpt lat="38.045812058407364" lon="15.80099887850157"><ele>906.9999999999999</ele><time>2026-04-25T09:59:14Z</time></trkpt><trkpt lat="38.04576457914562" lon="15.800933886371519"><ele>907.0</ele><time>2026-04-25T09:59:18Z</time></trkpt><trkpt lat="38.045819534134246" lon="15.80082848141869"><ele>906.9999999999999</ele><time>2026-04-25T09:59:21Z</time></trkpt><trkpt lat="38.045870880706715" lon="15.800742706111782"><ele>907.0</ele><time>2026-04-25T09:59:23Z</time></trkpt><trkpt lat="38.04589168514074" lon="15.80062616488708"><ele>907.0</ele><time>2026-04-25T09:59:25Z</time></trkpt><trkpt lat="38.04593455002712" lon="15.800514206720994"><ele>907.0</ele><time>2026-04-25T09:59:27Z</time></trkpt><trkpt lat="38.046003714379644" lon="15.800433045726647"><ele>906.9999999999999</ele><time>2026-04-25T09:59:29Z</time></trkpt><trkpt lat="38.046001215976666" lon="15.800333806658516"><ele>907.0</ele><time>2026-04-25T09:59:31Z</time></trkpt><trkpt lat="38.04593091079956" lon="15.800264714499832"><ele>907.0</ele><time>2026-04-25T09:59:33Z</time></trkpt><trkpt lat="38.04581516816768" lon="15.800246322434315"><ele>907.0</ele><time>2026-04-25T09:59:35Z</time></trkpt><trkpt lat="38.04575204783793" lon="15.800259678235147"><ele>907.0</ele><time>2026-04-25T09:59:36Z</time></trkpt><trkpt lat="38.045646727087416" lon="15.800271953999196"><ele>907.0</ele><time>2026-04-25T09:59:38Z</time></trkpt><trkpt lat="38.04554920055888" lon="15.8002374008291"><ele>907.0</ele><time>2026-04-25T09:59:40Z</time></trkpt><trkpt lat="38.04546244263136" lon="15.800173210700937"><ele>901.2</ele><time>2026-04-25T09:59:42Z</time></trkpt><trkpt lat="38.04538110469779" lon="15.80008588430073"><ele>895.4000000000001</ele><time>2026-04-25T09:59:44Z</time></trkpt><trkpt lat="38.045309455363835" lon="15.79998942341285"><ele>889.5999999999999</ele><time>2026-04-25T09:59:46Z</time></trkpt><trkpt lat="38.045232559030936" lon="15.799899997919626"><ele>883.8</ele><time>2026-04-25T09:59:48Z</time></trkpt><trkpt lat="38.04514803295575" lon="15.7998206389569"><ele>878.0</ele><time>2026-04-25T09:59:50Z</time></trkpt><trkpt lat="38.04510032467076" lon="15.79975212259413"><ele>878.0000000000001</ele><time>2026-04-25T09:59:52Z</time></trkpt><trkpt lat="38.04508596086739" lon="15.799663131697791"><ele>878.0</ele><time>2026-04-25T09:59:54Z</time></trkpt><trkpt lat="38.0450744206101" lon="15.799574194636472"><ele>878.0</ele><time>2026-04-25T09:59:56Z</time></trkpt><trkpt lat="38.04500569317088" lon="15.799571614776681"><ele>878.0</ele><time>2026-04-25T10:00:00Z</time></trkpt><trkpt lat="38.04500013502868" lon="15.799664551590839"><ele>878.0000000000001</ele><time>2026-04-25T10:00:02Z</time></trkpt><trkpt lat="38.0450291424189" lon="15.799776758483812"><ele>878.0</ele><time>2026-04-25T10:00:04Z</time></trkpt><trkpt lat="38.04505821013801" lon="15.79986710028025"><ele>878.0000000000001</ele><time>2026-04-25T10:00:06Z</time></trkpt><trkpt lat="38.04510349913403" lon="15.799964677060624"><ele>878.0</ele><time>2026-04-25T10:00:08Z</time></trkpt><trkpt lat="38.045145679667485" lon="15.800063729072688"><ele>878.0</ele><time>2026-04-25T10:00:10Z</time></trkpt><trkpt lat="38.04517729933402" lon="15.800155759089185"><ele>878.0</ele><time>2026-04-25T10:00:12Z</time></trkpt><trkpt lat="38.04521908151765" lon="15.80025886397534"><ele>878.0000000000001</ele><time>2026-04-25T10:00:14Z</time></trkpt><trkpt lat="38.0452843227577" lon="15.800326173076936"><ele>878.0</ele><time>2026-04-25T10:00:16Z</time></trkpt><trkpt lat="38.04534501672572" lon="15.800401741786054"><ele>877.5000000000001</ele><time>2026-04-25T10:00:18Z</time></trkpt><trkpt lat="38.04534465649253" lon="15.80050724735353"><ele>877.0</ele><time>2026-04-25T10:00:21Z</time></trkpt><trkpt lat="38.045280523131936" lon="15.800584266136685"><ele>876.5</ele><time>2026-04-25T10:00:23Z</time></trkpt><trkpt lat="38.045212057409344" lon="15.800657225152385"><ele>876.0</ele><time>2026-04-25T10:00:25Z</time></trkpt><trkpt lat="38.04513735187201" lon="15.800737073873377"><ele>875.5000000000001</ele><time>2026-04-25T10:00:27Z</time></trkpt><trkpt lat="38.04505227245656" lon="15.800768282535172"><ele>875.0</ele><time>2026-04-25T10:00:29Z</time></trkpt><trkpt lat="38.04497262732649" lon="15.80074398343354"><ele>875.0</ele><time>2026-04-25T10:00:31Z</time></trkpt><trkpt lat="38.0448901612752" lon="15.800739641905114"><ele>875.0</ele><time>2026-04-25T10:01:29Z</time></trkpt><trkpt lat="38.04481574540531" lon="15.800739888025392"><ele>875.0</ele><time>2026-04-25T10:01:32Z</time></trkpt><trkpt lat="38.04488646675335" lon="15.800744742865309"><ele>875.0</ele><time>2026-04-25T10:01:45Z</time></trkpt><trkpt lat="38.044952049675665" lon="15.800747124880996"><ele>875.0</ele><time>2026-04-25T10:01:47Z</time></trkpt><trkpt lat="38.045027937124914" lon="15.80074542213906"><ele>875.0</ele><time>2026-04-25T10:01:49Z</time></trkpt><trkpt lat="38.045103277066836" lon="15.800734966342164"><ele>875.0</ele><time>2026-04-25T10:01:50Z</time></trkpt><trkpt lat="38.045167233838285" lon="15.800689864264488"><ele>875.0</ele><time>2026-04-25T10:01:51Z</time></trkpt><trkpt lat="38.04521771388325" lon="15.800618027858512"><ele>875.0</ele><time>2026-04-25T10:01:52Z</time></trkpt><trkpt lat="38.045275318762386" lon="15.800548307628974"><ele>875.0</ele><time>2026-04-25T10:01:53Z</time></trkpt><trkpt lat="38.0453242893845" lon="15.800444149884873"><ele>875.0</ele><time>2026-04-25T10:01:55Z</time></trkpt><trkpt lat="38.04526334508618" lon="15.80036655079273"><ele>875.0</ele><time>2026-04-25T10:01:57Z</time></trkpt><trkpt lat="38.0451925212756" lon="15.800234061727407"><ele>875.5000000000001</ele><time>2026-04-25T10:01:59Z</time></trkpt><trkpt lat="38.04514418346841" lon="15.800158598281541"><ele>876.0</ele><time>2026-04-25T10:02:00Z</time></trkpt><trkpt lat="38.04510258664279" lon="15.80005145288441"><ele>876.5</ele><time>2026-04-25T10:02:01Z</time></trkpt><trkpt lat="38.04505670377017" lon="15.799925457011913"><ele>877.0</ele><time>2026-04-25T10:02:02Z</time></trkpt><trkpt lat="38.04502056552997" lon="15.799836508060734"><ele>877.5000000000001</ele><time>2026-04-25T10:02:03Z</time></trkpt><trkpt lat="38.04499851186472" lon="15.799745767830924"><ele>878.0</ele><time>2026-04-25T10:02:04Z</time></trkpt><trkpt lat="38.044984381607286" lon="15.7996258673921"><ele>878.0</ele><time>2026-04-25T10:02:05Z</time></trkpt><trkpt lat="38.04501109101984" lon="15.799544419179787"><ele>878.0</ele><time>2026-04-25T10:02:07Z</time></trkpt><trkpt lat="38.04506778308685" lon="15.799604176455084"><ele>878.0</ele><time>2026-04-25T10:02:09Z</time></trkpt><trkpt lat="38.04509860259594" lon="15.799770550031916"><ele>878.0</ele><time>2026-04-25T10:02:11Z</time></trkpt><trkpt lat="38.04520173612627" lon="15.799872197325337"><ele>878.0</ele><time>2026-04-25T10:02:13Z</time></trkpt><trkpt lat="38.04526187054177" lon="15.799920806168807"><ele>878.0</ele><time>2026-04-25T10:02:14Z</time></trkpt><trkpt lat="38.04531622376142" lon="15.799981946766358"><ele>878.0</ele><time>2026-04-25T10:02:15Z</time></trkpt><trkpt lat="38.045400107308936" lon="15.800079325875231"><ele>878.0</ele><time>2026-04-25T10:02:16Z</time></trkpt><trkpt lat="38.045464504698714" lon="15.800145649873931"><ele>878.0</ele><time>2026-04-25T10:02:17Z</time></trkpt><trkpt lat="38.04555433888033" lon="15.800216027454082"><ele>878.0</ele><time>2026-04-25T10:02:19Z</time></trkpt><trkpt lat="38.045639089491004" lon="15.800243800678103"><ele>877.5000000000001</ele><time>2026-04-25T10:02:20Z</time></trkpt><trkpt lat="38.045719136599466" lon="15.800252965431854"><ele>877.0</ele><time>2026-04-25T10:02:21Z</time></trkpt><trkpt lat="38.045803401424145" lon="15.800242247552932"><ele>876.5</ele><time>2026-04-25T10:02:22Z</time></trkpt><trkpt lat="38.045879937190065" lon="15.80022906750384"><ele>876.0</ele><time>2026-04-25T10:02:23Z</time></trkpt><trkpt lat="38.04594367154187" lon="15.800244397728681"><ele>875.5000000000001</ele><time>2026-04-25T10:02:24Z</time></trkpt><trkpt lat="38.04598987906416" lon="15.800298760887303"><ele>875.0</ele><time>2026-04-25T10:02:25Z</time></trkpt><trkpt lat="38.04599973185605" lon="15.80040871660016"><ele>875.0</ele><time>2026-04-25T10:02:27Z</time></trkpt><trkpt lat="38.04592431597275" lon="15.800537836474486"><ele>875.0</ele><time>2026-04-25T10:02:29Z</time></trkpt><trkpt lat="38.04587474637789" lon="15.8006285716133"><ele>875.0</ele><time>2026-04-25T10:02:30Z</time></trkpt><trkpt lat="38.04584076901323" lon="15.800743707902482"><ele>875.0</ele><time>2026-04-25T10:02:31Z</time></trkpt><trkpt lat="38.04581329323277" lon="15.800853641805645"><ele>875.0</ele><time>2026-04-25T10:02:32Z</time></trkpt><trkpt lat="38.04577424033626" lon="15.80095796631908"><ele>880.3333333333334</ele><time>2026-04-25T10:02:34Z</time></trkpt><trkpt lat="38.04584453771535" lon="15.800961731581435"><ele>885.6666666666667</ele><time>2026-04-25T10:02:42Z</time></trkpt><trkpt lat="38.045896268536126" lon="15.800872792906716"><ele>891.0</ele><time>2026-04-25T10:02:44Z</time></trkpt><trkpt lat="38.045975311864744" lon="15.800754630885098"><ele>896.3333333333333</ele><time>2026-04-25T10:02:46Z</time></trkpt><trkpt lat="38.04602205483939" lon="15.800695905671887"><ele>901.6666666666666</ele><time>2026-04-25T10:02:47Z</time></trkpt><trkpt lat="38.04607011722284" lon="15.8006372675205"><ele>907.0</ele><time>2026-04-25T10:02:48Z</time></trkpt><trkpt lat="38.04612786039686" lon="15.800577265828434"><ele>907.0</ele><time>2026-04-25T10:02:49Z</time></trkpt><trkpt lat="38.046194094548746" lon="15.800533122974036"><ele>907.0</ele><time>2026-04-25T10:02:50Z</time></trkpt><trkpt lat="38.04625846469092" lon="15.80047732196396"><ele>907.0</ele><time>2026-04-25T10:02:51Z</time></trkpt><trkpt lat="38.046306042638115" lon="15.800405579086538"><ele>907.0</ele><time>2026-04-25T10:02:52Z</time></trkpt><trkpt lat="38.04631771774694" lon="15.80026886236776"><ele>907.0</ele><time>2026-04-25T10:02:54Z</time></trkpt><trkpt lat="38.046258047092344" lon="15.800126112328629"><ele>908.4000000000001</ele><time>2026-04-25T10:02:56Z</time></trkpt><trkpt lat="38.04620570619961" lon="15.800059086811123"><ele>909.8000000000001</ele><time>2026-04-25T10:02:57Z</time></trkpt><trkpt lat="38.046147522509905" lon="15.799989743889844"><ele>911.2</ele><time>2026-04-25T10:02:58Z</time></trkpt><trkpt lat="38.04607599798448" lon="15.799921698981253"><ele>912.6</ele><time>2026-04-25T10:02:59Z</time></trkpt><trkpt lat="38.04604867079935" lon="15.79982535982378"><ele>914.0</ele><time>2026-04-25T10:03:01Z</time></trkpt><trkpt lat="38.046167011317564" lon="15.79976535838591"><ele>914.0</ele><time>2026-04-25T10:03:03Z</time></trkpt><trkpt lat="38.04623368803612" lon="15.79981444479775"><ele>914.0000000000001</ele><time>2026-04-25T10:03:04Z</time></trkpt><trkpt lat="38.0462977529046" lon="15.799892676545296"><ele>914.0000000000001</ele><time>2026-04-25T10:03:05Z</time></trkpt><trkpt lat="38.04637557969905" lon="15.799976693433612"><ele>914.0</ele><time>2026-04-25T10:03:06Z</time></trkpt><trkpt lat="38.04646351898789" lon="15.80000929252496"><ele>914.0</ele><time>2026-04-25T10:03:07Z</time></trkpt><trkpt lat="38.04656090441077" lon="15.800050145283267"><ele>914.3333333333334</ele><time>2026-04-25T10:03:08Z</time></trkpt><trkpt lat="38.046632356208015" lon="15.80010848765433"><ele>914.6666666666667</ele><time>2026-04-25T10:03:09Z</time></trkpt><trkpt lat="38.04669249565627" lon="15.800191970990939"><ele>915.0</ele><time>2026-04-25T10:03:10Z</time></trkpt><trkpt lat="38.046729175449826" lon="15.80028408291705"><ele>915.3333333333333</ele><time>2026-04-25T10:03:11Z</time></trkpt><trkpt lat="38.0467359159374" lon="15.800369672675288"><ele>915.6666666666666</ele><time>2026-04-25T10:03:12Z</time></trkpt><trkpt lat="38.04672881991028" lon="15.80044934556257"><ele>916.0</ele><time>2026-04-25T10:03:13Z</time></trkpt><trkpt lat="38.0466657613537" lon="15.800592644295751"><ele>914.4999999999999</ele><time>2026-04-25T10:03:15Z</time></trkpt><trkpt lat="38.04662584691701" lon="15.800674537869709"><ele>913.0</ele><time>2026-04-25T10:03:16Z</time></trkpt><trkpt lat="38.04658171981249" lon="15.800733379890051"><ele>911.5</ele><time>2026-04-25T10:03:17Z</time></trkpt><trkpt lat="38.0466530013239" lon="15.800807585961566"><ele>910.0</ele><time>2026-04-25T10:03:20Z</time></trkpt><trkpt lat="38.046750797603494" lon="15.8007174942362"><ele>908.4999999999999</ele><time>2026-04-25T10:03:22Z</time></trkpt><trkpt lat="38.04677547761597" lon="15.800629805914829"><ele>907.0</ele><time>2026-04-25T10:03:23Z</time></trkpt><trkpt lat="38.04680138440854" lon="15.8005328454982"><ele>911.6666666666666</ele><time>2026-04-25T10:03:25Z</time></trkpt><trkpt lat="38.046828236320096" lon="15.80045940944282"><ele>916.3333333333333</ele><time>2026-04-25T10:03:26Z</time></trkpt><trkpt lat="38.04690592282721" lon="15.800432297641953"><ele>921.0</ele><time>2026-04-25T10:03:28Z</time></trkpt><trkpt lat="38.0468996970425" lon="15.800546088154316"><ele>925.6666666666667</ele><time>2026-04-25T10:03:30Z</time></trkpt><trkpt lat="38.04686883707238" lon="15.800638115693253"><ele>930.3333333333334</ele><time>2026-04-25T10:03:31Z</time></trkpt><trkpt lat="38.04684256211069" lon="15.80072483418733"><ele>935.0</ele><time>2026-04-25T10:03:32Z</time></trkpt><trkpt lat="38.04681987741021" lon="15.800832698862619"><ele>935.0</ele><time>2026-04-25T10:03:33Z</time></trkpt><trkpt lat="38.04682071860352" lon="15.800964004762323"><ele>935.0</ele><time>2026-04-25T10:03:35Z</time></trkpt><trkpt lat="38.04687110473054" lon="15.80104777681723"><ele>935.0</ele><time>2026-04-25T10:03:37Z</time></trkpt><trkpt lat="38.046977002263255" lon="15.801132912095364"><ele>935.0</ele><time>2026-04-25T10:03:39Z</time></trkpt><trkpt lat="38.047108720022926" lon="15.801148805488001"><ele>935.0</ele><time>2026-04-25T10:03:41Z</time></trkpt><trkpt lat="38.047238206115956" lon="15.801144505887331"><ele>938.8</ele><time>2026-04-25T10:03:43Z</time></trkpt><trkpt lat="38.04732267100681" lon="15.801164333967163"><ele>942.6</ele><time>2026-04-25T10:03:44Z</time></trkpt><trkpt lat="38.047428249284145" lon="15.801180811729665"><ele>946.4000000000001</ele><time>2026-04-25T10:03:45Z</time></trkpt><trkpt lat="38.04752632862263" lon="15.801203658283198"><ele>950.2</ele><time>2026-04-25T10:03:46Z</time></trkpt><trkpt lat="38.047609247297274" lon="15.801233302429733"><ele>954.0</ele><time>2026-04-25T10:03:47Z</time></trkpt><trkpt lat="38.04769546508839" lon="15.801286309080034"><ele>954.0</ele><time>2026-04-25T10:03:48Z</time></trkpt><trkpt lat="38.0477892030096" lon="15.801331191035477"><ele>954.0000000000001</ele><time>2026-04-25T10:03:49Z</time></trkpt><trkpt lat="38.04787571214949" lon="15.801372691753757"><ele>954.0000000000001</ele><time>2026-04-25T10:03:50Z</time></trkpt><trkpt lat="38.047952539715205" lon="15.801436031099716"><ele>954.0</ele><time>2026-04-25T10:03:51Z</time></trkpt><trkpt lat="38.04802097056673" lon="15.801504835384142"><ele>954.0</ele><time>2026-04-25T10:03:52Z</time></trkpt><trkpt lat="38.04809786132672" lon="15.801539675746971"><ele>954.0</ele><time>2026-04-25T10:03:53Z</time></trkpt><trkpt lat="38.04818476560678" lon="15.80156927919753"><ele>954.0000000000001</ele><time>2026-04-25T10:03:54Z</time></trkpt><trkpt lat="38.04826909890895" lon="15.801577554550622"><ele>954.0000000000001</ele><time>2026-04-25T10:03:55Z</time></trkpt><trkpt lat="38.04837134891007" lon="15.80159797722459"><ele>954.0</ele><time>2026-04-25T10:03:56Z</time></trkpt><trkpt lat="38.04848137431218" lon="15.801607199457981"><ele>954.0</ele><time>2026-04-25T10:03:57Z</time></trkpt><trkpt lat="38.0485781348929" lon="15.801625503636394"><ele>957.5</ele><time>2026-04-25T10:03:58Z</time></trkpt><trkpt lat="38.04865279515092" lon="15.80164730127132"><ele>961.0</ele><time>2026-04-25T10:03:59Z</time></trkpt><trkpt lat="38.04872161648462" lon="15.801696025375263"><ele>964.5</ele><time>2026-04-25T10:04:00Z</time></trkpt><trkpt lat="38.04880353343446" lon="15.80176366829627"><ele>968.0</ele><time>2026-04-25T10:04:01Z</time></trkpt><trkpt lat="38.04888710580548" lon="15.801802167685898"><ele>971.5</ele><time>2026-04-25T10:04:02Z</time></trkpt><trkpt lat="38.04895744089211" lon="15.801801306984832"><ele>975.0</ele><time>2026-04-25T10:04:03Z</time></trkpt><trkpt lat="38.04904200229001" lon="15.80179166946172"><ele>975.0</ele><time>2026-04-25T10:04:04Z</time></trkpt><trkpt lat="38.04912098082562" lon="15.801757712808785"><ele>975.0</ele><time>2026-04-25T10:04:05Z</time></trkpt><trkpt lat="38.04919386028525" lon="15.801684128748127"><ele>975.0</ele><time>2026-04-25T10:04:06Z</time></trkpt><trkpt lat="38.04926351593054" lon="15.801588050262614"><ele>975.0</ele><time>2026-04-25T10:04:07Z</time></trkpt><trkpt lat="38.049336947657395" lon="15.801471156248075"><ele>975.0</ele><time>2026-04-25T10:04:08Z</time></trkpt><trkpt lat="38.04937891541541" lon="15.80138961819136"><ele>979.0</ele><time>2026-04-25T10:04:09Z</time></trkpt><trkpt lat="38.04946630272182" lon="15.801309972062423"><ele>983.0</ele><time>2026-04-25T10:04:11Z</time></trkpt><trkpt lat="38.049516945249835" lon="15.80138490812672"><ele>987.0</ele><time>2026-04-25T10:04:12.999Z</time></trkpt><trkpt lat="38.04947325786493" lon="15.801503150706475"><ele>991.0</ele><time>2026-04-25T10:04:14.999Z</time></trkpt><trkpt lat="38.0494111912746" lon="15.80154891483436"><ele>995.0</ele><time>2026-04-25T10:04:15.999Z</time></trkpt><trkpt lat="38.04934432281184" lon="15.801670995687296"><ele>995.0</ele><time>2026-04-25T10:04:17.999Z</time></trkpt><trkpt lat="38.04934817538367" lon="15.801761431923277"><ele>995.0</ele><time>2026-04-25T10:04:19.999Z</time></trkpt><trkpt lat="38.04941502003148" lon="15.801896227447164"><ele>995.0</ele><time>2026-04-25T10:04:21.999Z</time></trkpt><trkpt lat="38.04948216905636" lon="15.801976942259529"><ele>995.0</ele><time>2026-04-25T10:04:22.999Z</time></trkpt><trkpt lat="38.049538646981595" lon="15.802057640667488"><ele>995.0</ele><time>2026-04-25T10:04:23.999Z</time></trkpt><trkpt lat="38.049584888780615" lon="15.802157220635364"><ele>993.6</ele><time>2026-04-25T10:04:25Z</time></trkpt><trkpt lat="38.04962987772196" lon="15.802273404195168"><ele>992.2</ele><time>2026-04-25T10:04:26Z</time></trkpt><trkpt lat="38.04965401726073" lon="15.802384782466884"><ele>990.8</ele><time>2026-04-25T10:04:27Z</time></trkpt><trkpt lat="38.04966261531099" lon="15.802491318922458"><ele>989.4</ele><time>2026-04-25T10:04:28Z</time></trkpt><trkpt lat="38.049687795942155" lon="15.80258290444596"><ele>988.0</ele><time>2026-04-25T10:04:29Z</time></trkpt><trkpt lat="38.04974946699097" lon="15.802683070581105"><ele>992.6666666666666</ele><time>2026-04-25T10:04:31Z</time></trkpt><trkpt lat="38.04979014112541" lon="15.802744865246964"><ele>997.3333333333333</ele><time>2026-04-25T10:04:32Z</time></trkpt><trkpt lat="38.04981862974455" lon="15.802821827158017"><ele>1002.0</ele><time>2026-04-25T10:04:33Z</time></trkpt><trkpt lat="38.049878071268274" lon="15.80294655859562"><ele>1006.6666666666667</ele><time>2026-04-25T10:04:35Z</time></trkpt><trkpt lat="38.04997500845034" lon="15.802991554544016"><ele>1011.3333333333334</ele><time>2026-04-25T10:04:37Z</time></trkpt><trkpt lat="38.05005820245162" lon="15.80295560417419"><ele>1016.0</ele><time>2026-04-25T10:04:39Z</time></trkpt><trkpt lat="38.05012798693027" lon="15.802968784076974"><ele>1016.0</ele><time>2026-04-25T10:04:40Z</time></trkpt><trkpt lat="38.05018721205204" lon="15.802997125375569"><ele>1015.9999999999999</ele><time>2026-04-25T10:04:41Z</time></trkpt><trkpt lat="38.050266974916745" lon="15.803097204549207"><ele>1015.9999999999999</ele><time>2026-04-25T10:04:43Z</time></trkpt><trkpt lat="38.05029547998159" lon="15.80323675261042"><ele>1016.0</ele><time>2026-04-25T10:04:45Z</time></trkpt><trkpt lat="38.050351425698" lon="15.803330870783196"><ele>1016.0</ele><time>2026-04-25T10:04:47Z</time></trkpt><trkpt lat="38.05043107385581" lon="15.803418451445546"><ele>1016.0</ele><time>2026-04-25T10:04:49Z</time></trkpt><trkpt lat="38.05053097261734" lon="15.803486469141385"><ele>1015.9999999999999</ele><time>2026-04-25T10:04:51Z</time></trkpt><trkpt lat="38.05059456489638" lon="15.803545557966967"><ele>1015.9999999999999</ele><time>2026-04-25T10:04:52Z</time></trkpt><trkpt lat="38.05062704578235" lon="15.803649884830062"><ele>1016.0</ele><time>2026-04-25T10:04:54Z</time></trkpt><trkpt lat="38.05059426001197" lon="15.803775636475482"><ele>1016.0</ele><time>2026-04-25T10:04:56Z</time></trkpt><trkpt lat="38.05054933148597" lon="15.803896408927546"><ele>1015.0</ele><time>2026-04-25T10:04:58Z</time></trkpt><trkpt lat="38.05057560693211" lon="15.804015995760157"><ele>1013.9999999999999</ele><time>2026-04-25T10:05:01Z</time></trkpt><trkpt lat="38.05063902283109" lon="15.804107909845028"><ele>1012.9999999999999</ele><time>2026-04-25T10:05:03Z</time></trkpt><trkpt lat="38.05070451016052" lon="15.804214719588925"><ele>1012.0</ele><time>2026-04-25T10:05:05Z</time></trkpt><trkpt lat="38.05074444051603" lon="15.804292429977068"><ele>1011.0</ele><time>2026-04-25T10:05:06Z</time></trkpt><trkpt lat="38.0508001678675" lon="15.804425672661816"><ele>1016.1999999999999</ele><time>2026-04-25T10:05:08Z</time></trkpt><trkpt lat="38.05083085403041" lon="15.804510221052315"><ele>1021.3999999999999</ele><time>2026-04-25T10:05:09Z</time></trkpt><trkpt lat="38.05087882738824" lon="15.804608372623315"><ele>1026.6</ele><time>2026-04-25T10:05:10Z</time></trkpt><trkpt lat="38.05091919431102" lon="15.804693774838265"><ele>1031.8</ele><time>2026-04-25T10:05:11Z</time></trkpt><trkpt lat="38.05101171549262" lon="15.804776103338707"><ele>1037.0</ele><time>2026-04-25T10:05:13Z</time></trkpt><trkpt lat="38.051154441998754" lon="15.804808081135604"><ele>1037.0</ele><time>2026-04-25T10:05:15Z</time></trkpt><trkpt lat="38.05122228646946" lon="15.804837023457218"><ele>1037.0</ele><time>2026-04-25T10:05:16Z</time></trkpt><trkpt lat="38.05132679972029" lon="15.80494112366624"><ele>1037.0</ele><time>2026-04-25T10:05:18Z</time></trkpt><trkpt lat="38.05139194863696" lon="15.804980345622825"><ele>1037.0</ele><time>2026-04-25T10:05:19Z</time></trkpt><trkpt lat="38.051455421682334" lon="15.804977583860627"><ele>1037.0</ele><time>2026-04-25T10:05:21Z</time></trkpt><trkpt lat="38.05149479943067" lon="15.804877775302591"><ele>1037.0</ele><time>2026-04-25T10:05:23Z</time></trkpt><trkpt lat="38.051490854473776" lon="15.80477661053229"><ele>1037.0</ele><time>2026-04-25T10:05:24Z</time></trkpt><trkpt lat="38.051465461423874" lon="15.80465436291099"><ele>1037.0</ele><time>2026-04-25T10:05:25Z</time></trkpt><trkpt lat="38.051472066366166" lon="15.804528554698281"><ele>1037.0</ele><time>2026-04-25T10:05:26Z</time></trkpt><trkpt lat="38.05149152333119" lon="15.804409292505158"><ele>1037.0</ele><time>2026-04-25T10:05:27Z</time></trkpt><trkpt lat="38.05152607734734" lon="15.804272659345264"><ele>1037.0</ele><time>2026-04-25T10:05:28Z</time></trkpt><trkpt lat="38.05154710052734" lon="15.804171880607527"><ele>1040.8333333333335</ele><time>2026-04-25T10:05:29Z</time></trkpt><trkpt lat="38.05163458514079" lon="15.804133005041024"><ele>1044.6666666666667</ele><time>2026-04-25T10:05:31Z</time></trkpt><trkpt lat="38.05170662928647" lon="15.804147758344374"><ele>1048.5</ele><time>2026-04-25T10:05:32Z</time></trkpt><trkpt lat="38.051783968031415" lon="15.804175886583101"><ele>1052.3333333333333</ele><time>2026-04-25T10:05:33Z</time></trkpt><trkpt lat="38.05184765088302" lon="15.80420280567768"><ele>1056.1666666666665</ele><time>2026-04-25T10:05:34Z</time></trkpt><trkpt lat="38.05190728615042" lon="15.804260809189772"><ele>1060.0</ele><time>2026-04-25T10:05:37Z</time></trkpt><trkpt lat="38.051980097002634" lon="15.804311765172185"><ele>1062.0</ele><time>2026-04-25T10:10:20.999Z</time></trkpt><trkpt lat="38.05203418497262" lon="15.804366378692123"><ele>1064.0</ele><time>2026-04-25T10:10:21.999Z</time></trkpt><trkpt lat="38.05209602016757" lon="15.804418562483567"><ele>1066.0</ele><time>2026-04-25T10:10:22.999Z</time></trkpt><trkpt lat="38.05217618734814" lon="15.804481646142325"><ele>1068.0</ele><time>2026-04-25T10:10:23.999Z</time></trkpt><trkpt lat="38.05227417408172" lon="15.804557967118036"><ele>1070.0</ele><time>2026-04-25T10:10:24.999Z</time></trkpt><trkpt lat="38.05239266636605" lon="15.804647583588515"><ele>1070.6</ele><time>2026-04-25T10:10:25.999Z</time></trkpt><trkpt lat="38.05251850283476" lon="15.80475492623289"><ele>1071.2</ele><time>2026-04-25T10:10:26.999Z</time></trkpt><trkpt lat="38.052623655423794" lon="15.804855498311431"><ele>1071.8</ele><time>2026-04-25T10:10:27.999Z</time></trkpt><trkpt lat="38.05269469664486" lon="15.804928768693205"><ele>1072.4</ele><time>2026-04-25T10:10:28.999Z</time></trkpt><trkpt lat="38.052739171511654" lon="15.804992311373415"><ele>1073.0</ele><time>2026-04-25T10:10:29.999Z</time></trkpt><trkpt lat="38.052760323576315" lon="15.805068467312402"><ele>1073.0</ele><time>2026-04-25T10:10:30.999Z</time></trkpt><trkpt lat="38.05278537513163" lon="15.805143545935556"><ele>1073.0</ele><time>2026-04-25T10:10:31.999Z</time></trkpt><trkpt lat="38.05284843608995" lon="15.805224945634672"><ele>1073.0</ele><time>2026-04-25T10:10:32.999Z</time></trkpt><trkpt lat="38.05295596912551" lon="15.805277656989883"><ele>1073.0</ele><time>2026-04-25T10:10:33.999Z</time></trkpt><trkpt lat="38.05308007594901" lon="15.80534157680903"><ele>1073.0</ele><time>2026-04-25T10:10:34.999Z</time></trkpt><trkpt lat="38.053168558320195" lon="15.805406050643118"><ele>1073.6</ele><time>2026-04-25T10:10:35.999Z</time></trkpt><trkpt lat="38.053238596387374" lon="15.80547202417135"><ele>1074.1999999999998</ele><time>2026-04-25T10:10:36.999Z</time></trkpt><trkpt lat="38.05329618431148" lon="15.805505611910734"><ele>1074.8</ele><time>2026-04-25T10:10:37.999Z</time></trkpt><trkpt lat="38.05339237265021" lon="15.80554186482812"><ele>1075.3999999999999</ele><time>2026-04-25T10:10:38.999Z</time></trkpt><trkpt lat="38.05350270636234" lon="15.805597721460396"><ele>1076.0</ele><time>2026-04-25T10:10:39.999Z</time></trkpt><trkpt lat="38.05359260484759" lon="15.805642092142572"><ele>1076.0</ele><time>2026-04-25T10:10:40.999Z</time></trkpt><trkpt lat="38.05368221686425" lon="15.805686643112427"><ele>1076.0</ele><time>2026-04-25T10:10:41.999Z</time></trkpt><trkpt lat="38.053762573570125" lon="15.805730701080549"><ele>1076.0</ele><time>2026-04-25T10:10:43Z</time></trkpt><trkpt lat="38.05384838927028" lon="15.805758678002809"><ele>1076.0</ele><time>2026-04-25T10:10:44Z</time></trkpt><trkpt lat="38.053936796213414" lon="15.805790677010892"><ele>1076.0</ele><time>2026-04-25T10:10:45Z</time></trkpt><trkpt lat="38.05401928532394" lon="15.805800304498046"><ele>1076.0</ele><time>2026-04-25T10:10:46Z</time></trkpt><trkpt lat="38.05409155703158" lon="15.805810893051989"><ele>1078.6</ele><time>2026-04-25T10:10:47Z</time></trkpt><trkpt lat="38.05418923158425" lon="15.805846260823758"><ele>1081.1999999999998</ele><time>2026-04-25T10:10:48Z</time></trkpt><trkpt lat="38.05428475827907" lon="15.805868315076497"><ele>1083.8000000000002</ele><time>2026-04-25T10:10:49Z</time></trkpt><trkpt lat="38.05438967774651" lon="15.80588780684179"><ele>1086.4</ele><time>2026-04-25T10:10:50Z</time></trkpt><trkpt lat="38.05448161147128" lon="15.8059066955928"><ele>1089.0</ele><time>2026-04-25T10:10:51Z</time></trkpt><trkpt lat="38.054573959815485" lon="15.805925957232274"><ele>1089.0</ele><time>2026-04-25T10:10:52Z</time></trkpt><trkpt lat="38.05466802321575" lon="15.805945589561826"><ele>1089.0</ele><time>2026-04-25T10:10:53Z</time></trkpt><trkpt lat="38.054750342042524" lon="15.805964372090017"><ele>1089.0</ele><time>2026-04-25T10:10:54Z</time></trkpt><trkpt lat="38.05482502873502" lon="15.805998640881688"><ele>1089.0</ele><time>2026-04-25T10:10:55Z</time></trkpt><trkpt lat="38.05488870512859" lon="15.806027705009488"><ele>1089.0</ele><time>2026-04-25T10:10:56Z</time></trkpt><trkpt lat="38.054950082339964" lon="15.806009243194868"><ele>1089.0</ele><time>2026-04-25T10:10:58Z</time></trkpt><trkpt lat="38.05499830309609" lon="15.805883915421376"><ele>1091.1666666666667</ele><time>2026-04-25T10:11:00Z</time></trkpt><trkpt lat="38.05505965605101" lon="15.805840956928598"><ele>1093.3333333333333</ele><time>2026-04-25T10:11:02Z</time></trkpt><trkpt lat="38.05512302889136" lon="15.805931114755833"><ele>1095.5</ele><time>2026-04-25T10:11:05Z</time></trkpt><trkpt lat="38.0551162229623" lon="15.806013964577662"><ele>1097.6666666666665</ele><time>2026-04-25T10:11:06Z</time></trkpt><trkpt lat="38.055117163438744" lon="15.806115663544782"><ele>1099.8333333333333</ele><time>2026-04-25T10:11:07Z</time></trkpt><trkpt lat="38.05513413055611" lon="15.806214539387025"><ele>1102.0</ele><time>2026-04-25T10:11:08Z</time></trkpt><trkpt lat="38.05516701594869" lon="15.806304246820769"><ele>1102.0</ele><time>2026-04-25T10:11:09Z</time></trkpt><trkpt lat="38.05520778295063" lon="15.806377014103921"><ele>1102.0</ele><time>2026-04-25T10:11:10Z</time></trkpt><trkpt lat="38.0552532391804" lon="15.80643943332543"><ele>1102.0</ele><time>2026-04-25T10:11:11Z</time></trkpt><trkpt lat="38.0553779673176" lon="15.806481014866861"><ele>1102.0</ele><time>2026-04-25T10:11:13Z</time></trkpt><trkpt lat="38.05545325529111" lon="15.806467701977624"><ele>1102.0</ele><time>2026-04-25T10:11:14Z</time></trkpt><trkpt lat="38.05553218441772" lon="15.806443300442382"><ele>1102.0</ele><time>2026-04-25T10:11:15Z</time></trkpt><trkpt lat="38.055601360385616" lon="15.806420206630737"><ele>1102.0</ele><time>2026-04-25T10:11:16Z</time></trkpt><trkpt lat="38.05566822999873" lon="15.80637624806697"><ele>1102.0</ele><time>2026-04-25T10:11:17Z</time></trkpt><trkpt lat="38.05572397505919" lon="15.806315629758068"><ele>1102.0</ele><time>2026-04-25T10:11:18Z</time></trkpt><trkpt lat="38.055772755246345" lon="15.80623729950061"><ele>1102.0</ele><time>2026-04-25T10:11:19Z</time></trkpt><trkpt lat="38.05582950518203" lon="15.806133629966482"><ele>1102.0</ele><time>2026-04-25T10:11:20Z</time></trkpt><trkpt lat="38.0559048730254" lon="15.806029188255165"><ele>1102.0</ele><time>2026-04-25T10:11:21Z</time></trkpt><trkpt lat="38.055977891860344" lon="15.805958093825705"><ele>1104.2</ele><time>2026-04-25T10:11:22Z</time></trkpt><trkpt lat="38.056042430014095" lon="15.80590346449281"><ele>1106.4</ele><time>2026-04-25T10:11:23Z</time></trkpt><trkpt lat="38.05610873919199" lon="15.805864869034103"><ele>1108.6</ele><time>2026-04-25T10:11:24Z</time></trkpt><trkpt lat="38.05621750846172" lon="15.805808800749094"><ele>1110.8</ele><time>2026-04-25T10:11:26Z</time></trkpt><trkpt lat="38.056338105167264" lon="15.805762784672684"><ele>1113.0</ele><time>2026-04-25T10:11:28Z</time></trkpt><trkpt lat="38.056407553258644" lon="15.80575366465147"><ele>1113.0</ele><time>2026-04-25T10:11:29Z</time></trkpt><trkpt lat="38.05647169751703" lon="15.805735679587581"><ele>1113.0</ele><time>2026-04-25T10:11:30Z</time></trkpt><trkpt lat="38.05657358641901" lon="15.8057126209385"><ele>1113.0</ele><time>2026-04-25T10:11:32Z</time></trkpt><trkpt lat="38.05662494913298" lon="15.80566396447365"><ele>1113.0</ele><time>2026-04-25T10:13:05Z</time></trkpt><trkpt lat="38.05665875535733" lon="15.805576127708898"><ele>1113.0</ele><time>2026-04-25T10:13:07Z</time></trkpt><trkpt lat="38.056659847306875" lon="15.80549407252913"><ele>1113.0</ele><time>2026-04-25T10:13:08Z</time></trkpt><trkpt lat="38.05666114874766" lon="15.8053934279848"><ele>1114.6</ele><time>2026-04-25T10:13:09Z</time></trkpt><trkpt lat="38.0566743162888" lon="15.805280334423973"><ele>1116.1999999999998</ele><time>2026-04-25T10:13:10Z</time></trkpt><trkpt lat="38.05668751361381" lon="15.805158001550366"><ele>1117.8</ele><time>2026-04-25T10:13:11Z</time></trkpt><trkpt lat="38.05669951533242" lon="15.805028181668414"><ele>1119.3999999999999</ele><time>2026-04-25T10:13:12Z</time></trkpt><trkpt lat="38.05671216520806" lon="15.804890625618013"><ele>1121.0</ele><time>2026-04-25T10:13:13Z</time></trkpt><trkpt lat="38.0567330681418" lon="15.804755999254075"><ele>1121.0</ele><time>2026-04-25T10:13:14Z</time></trkpt><trkpt lat="38.056753582347724" lon="15.804622050714736"><ele>1121.0</ele><time>2026-04-25T10:13:15Z</time></trkpt><trkpt lat="38.056782314141856" lon="15.80448862972881"><ele>1121.0</ele><time>2026-04-25T10:13:16Z</time></trkpt><trkpt lat="38.056807482520085" lon="15.804349271939335"><ele>1121.0</ele><time>2026-04-25T10:13:17Z</time></trkpt><trkpt lat="38.056835071605605" lon="15.804211983771616"><ele>1121.0</ele><time>2026-04-25T10:13:18Z</time></trkpt><trkpt lat="38.05686232135257" lon="15.804084524861828"><ele>1119.6</ele><time>2026-04-25T10:13:19Z</time></trkpt><trkpt lat="38.05688836645051" lon="15.803961941563012"><ele>1118.1999999999998</ele><time>2026-04-25T10:13:20Z</time></trkpt><trkpt lat="38.05691411607852" lon="15.803833007966892"><ele>1116.8000000000002</ele><time>2026-04-25T10:13:21Z</time></trkpt><trkpt lat="38.056944139944015" lon="15.803707946885858"><ele>1115.4</ele><time>2026-04-25T10:13:22Z</time></trkpt><trkpt lat="38.0569839874404" lon="15.803580408220792"><ele>1114.0</ele><time>2026-04-25T10:13:23Z</time></trkpt><trkpt lat="38.057029125808754" lon="15.803461123838082"><ele>1114.0</ele><time>2026-04-25T10:13:24Z</time></trkpt><trkpt lat="38.057079867014785" lon="15.803341501088255"><ele>1114.0</ele><time>2026-04-25T10:13:25Z</time></trkpt><trkpt lat="38.05713493819088" lon="15.80322941811968"><ele>1114.0</ele><time>2026-04-25T10:13:26Z</time></trkpt><trkpt lat="38.057199719539206" lon="15.803125297576697"><ele>1114.0</ele><time>2026-04-25T10:13:27Z</time></trkpt><trkpt lat="38.05727089129624" lon="15.803029029112604"><ele>1114.0</ele><time>2026-04-25T10:13:27.999Z</time></trkpt><trkpt lat="38.05735200515105" lon="15.802940627523"><ele>1114.0</ele><time>2026-04-25T10:13:28.999Z</time></trkpt><trkpt lat="38.057434569418874" lon="15.802849691429849"><ele>1114.0</ele><time>2026-04-25T10:13:29.999Z</time></trkpt><trkpt lat="38.057528696443704" lon="15.802745066022496"><ele>1114.0</ele><time>2026-04-25T10:13:30.999Z</time></trkpt><trkpt lat="38.05762413182231" lon="15.802636016920111"><ele>1114.0</ele><time>2026-04-25T10:13:31.999Z</time></trkpt><trkpt lat="38.057717127745754" lon="15.802528660494644"><ele>1114.25</ele><time>2026-04-25T10:13:32.999Z</time></trkpt><trkpt lat="38.05780239601426" lon="15.80243063800231"><ele>1114.5</ele><time>2026-04-25T10:13:33.999Z</time></trkpt><trkpt lat="38.0578908706615" lon="15.802328643240681"><ele>1114.75</ele><time>2026-04-25T10:13:34.999Z</time></trkpt><trkpt lat="38.05797797707986" lon="15.802230232690704"><ele>1115.0</ele><time>2026-04-25T10:13:35.999Z</time></trkpt><trkpt lat="38.058064665241105" lon="15.802132097959579"><ele>1115.0</ele><time>2026-04-25T10:13:36.999Z</time></trkpt><trkpt lat="38.058150751391" lon="15.802038523318984"><ele>1115.0</ele><time>2026-04-25T10:13:37.999Z</time></trkpt><trkpt lat="38.058235434642576" lon="15.801940144656413"><ele>1115.0</ele><time>2026-04-25T10:13:38.999Z</time></trkpt><trkpt lat="38.05832346014923" lon="15.801834128486037"><ele>1115.0</ele><time>2026-04-25T10:13:39.999Z</time></trkpt><trkpt lat="38.058417441127915" lon="15.801725511023681"><ele>1115.5</ele><time>2026-04-25T10:13:40.999Z</time></trkpt><trkpt lat="38.05850946586837" lon="15.801621944503005"><ele>1116.0</ele><time>2026-04-25T10:13:41.999Z</time></trkpt><trkpt lat="38.05860404532677" lon="15.801517653326938"><ele>1116.5</ele><time>2026-04-25T10:13:42.999Z</time></trkpt><trkpt lat="38.05869387237045" lon="15.801413716230249"><ele>1117.0</ele><time>2026-04-25T10:13:43.999Z</time></trkpt><trkpt lat="38.05876942734949" lon="15.801327917251168"><ele>1117.0</ele><time>2026-04-25T10:13:44.999Z</time></trkpt><trkpt lat="38.058834936788315" lon="15.801253066232112"><ele>1117.0</ele><time>2026-04-25T10:13:45.999Z</time></trkpt><trkpt lat="38.05889716911467" lon="15.801175913939858"><ele>1117.0</ele><time>2026-04-25T10:13:46.999Z</time></trkpt><trkpt lat="38.05895468094581" lon="15.80110686566428"><ele>1117.0</ele><time>2026-04-25T10:13:47.999Z</time></trkpt><trkpt lat="38.059009267784" lon="15.801041452899064"><ele>1117.0</ele><time>2026-04-25T10:13:48.999Z</time></trkpt><trkpt lat="38.059066258866444" lon="15.800981081186531"><ele>1117.0</ele><time>2026-04-25T10:13:49.999Z</time></trkpt><trkpt lat="38.05912699092001" lon="15.800942425686673"><ele>1116.8333333333333</ele><time>2026-04-25T10:13:50.999Z</time></trkpt><trkpt lat="38.05919061801423" lon="15.800911638573895"><ele>1116.6666666666665</ele><time>2026-04-25T10:13:51.999Z</time></trkpt><trkpt lat="38.05927121775591" lon="15.800861435650244"><ele>1116.5</ele><time>2026-04-25T10:13:52.999Z</time></trkpt><trkpt lat="38.059345364140086" lon="15.800812408440892"><ele>1116.3333333333333</ele><time>2026-04-25T10:13:53.999Z</time></trkpt><trkpt lat="38.059411242648274" lon="15.800761490349487"><ele>1116.1666666666667</ele><time>2026-04-25T10:13:54.999Z</time></trkpt><trkpt lat="38.05948540927288" lon="15.800719619830396"><ele>1116.0</ele><time>2026-04-25T10:13:55.999Z</time></trkpt><trkpt lat="38.05957104446941" lon="15.800675183282253"><ele>1116.0</ele><time>2026-04-25T10:13:56.999Z</time></trkpt><trkpt lat="38.05965777788164" lon="15.800632372753194"><ele>1116.0</ele><time>2026-04-25T10:13:57.999Z</time></trkpt><trkpt lat="38.05974914089068" lon="15.80059112913323"><ele>1116.0</ele><time>2026-04-25T10:13:58.999Z</time></trkpt><trkpt lat="38.059861873189014" lon="15.8005482536634"><ele>1116.0</ele><time>2026-04-25T10:13:59.999Z</time></trkpt><trkpt lat="38.05995884278958" lon="15.800510025884499"><ele>1116.0</ele><time>2026-04-25T10:14:00.999Z</time></trkpt><trkpt lat="38.06004684891449" lon="15.800473629071659"><ele>1117.3999999999999</ele><time>2026-04-25T10:14:01.999Z</time></trkpt><trkpt lat="38.060142748496695" lon="15.800436922301776"><ele>1118.8</ele><time>2026-04-25T10:14:02.999Z</time></trkpt><trkpt lat="38.060257028290685" lon="15.80040294353249"><ele>1120.1999999999998</ele><time>2026-04-25T10:14:03.999Z</time></trkpt><trkpt lat="38.06036745019468" lon="15.800367520599952"><ele>1121.6</ele><time>2026-04-25T10:14:04.999Z</time></trkpt><trkpt lat="38.060473126666814" lon="15.800313900290204"><ele>1123.0</ele><time>2026-04-25T10:14:05.999Z</time></trkpt><trkpt lat="38.06058933175671" lon="15.800229367514177"><ele>1122.8</ele><time>2026-04-25T10:14:06.999Z</time></trkpt><trkpt lat="38.06068072277567" lon="15.800148798284859"><ele>1122.6</ele><time>2026-04-25T10:14:07.999Z</time></trkpt><trkpt lat="38.06076793778782" lon="15.80008735921619"><ele>1122.4</ele><time>2026-04-25T10:14:08.999Z</time></trkpt><trkpt lat="38.06085029877047" lon="15.80005744238689"><ele>1122.2</ele><time>2026-04-25T10:14:09.999Z</time></trkpt><trkpt lat="38.06094236063865" lon="15.800045825912362"><ele>1122.0</ele><time>2026-04-25T10:14:10.999Z</time></trkpt><trkpt lat="38.06104878295492" lon="15.800057476017589"><ele>1122.0</ele><time>2026-04-25T10:14:11.999Z</time></trkpt><trkpt lat="38.06115934178961" lon="15.80005868524032"><ele>1122.0</ele><time>2026-04-25T10:14:12.999Z</time></trkpt><trkpt lat="38.06124496194805" lon="15.800046799787642"><ele>1122.0</ele><time>2026-04-25T10:14:13.999Z</time></trkpt><trkpt lat="38.06130716004893" lon="15.800024802797347"><ele>1122.0</ele><time>2026-04-25T10:14:14.999Z</time></trkpt><trkpt lat="38.06137710554256" lon="15.799999146930856"><ele>1122.0</ele><time>2026-04-25T10:14:17.999Z</time></trkpt><trkpt lat="38.061488340874504" lon="15.799923402272356"><ele>1122.0</ele><time>2026-04-25T10:14:19.999Z</time></trkpt><trkpt lat="38.061569469276726" lon="15.799896639035296"><ele>1122.0</ele><time>2026-04-25T10:14:20.999Z</time></trkpt><trkpt lat="38.06165064218776" lon="15.799877859165289"><ele>1122.0</ele><time>2026-04-25T10:14:21.999Z</time></trkpt><trkpt lat="38.061725446650776" lon="15.799833283276943"><ele>1122.0</ele><time>2026-04-25T10:14:22.999Z</time></trkpt><trkpt lat="38.06178423868484" lon="15.799786723080329"><ele>1122.0</ele><time>2026-04-25T10:14:23.999Z</time></trkpt><trkpt lat="38.06183690525581" lon="15.79973183539329"><ele>1122.0</ele><time>2026-04-25T10:14:24.999Z</time></trkpt><trkpt lat="38.06190505599439" lon="15.799630629704275"><ele>1121.4</ele><time>2026-04-25T10:14:26.999Z</time></trkpt><trkpt lat="38.06198976509058" lon="15.799531161332188"><ele>1120.8000000000002</ele><time>2026-04-25T10:14:28.999Z</time></trkpt><trkpt lat="38.06206400762872" lon="15.79943827389122"><ele>1120.2</ele><time>2026-04-25T10:14:30.999Z</time></trkpt><trkpt lat="38.06208043437467" lon="15.799354631697408"><ele>1119.6000000000001</ele><time>2026-04-25T10:14:31.999Z</time></trkpt><trkpt lat="38.06209283318907" lon="15.799248122122716"><ele>1119.0</ele><time>2026-04-25T10:14:32.999Z</time></trkpt><trkpt lat="38.0620996137521" lon="15.799131864478671"><ele>1119.0</ele><time>2026-04-25T10:14:33.999Z</time></trkpt><trkpt lat="38.062126748869645" lon="15.799047046633351"><ele>1119.0</ele><time>2026-04-25T10:14:34.999Z</time></trkpt><trkpt lat="38.0621869061602" lon="15.798992950694968"><ele>1119.0</ele><time>2026-04-25T10:14:36.999Z</time></trkpt><trkpt lat="38.06215761644691" lon="15.799111625025635"><ele>1119.0</ele><time>2026-04-25T10:15:21.999Z</time></trkpt><trkpt lat="38.06215051879126" lon="15.799261550275295"><ele>1119.0</ele><time>2026-04-25T10:15:23.999Z</time></trkpt><trkpt lat="38.06215412183242" lon="15.799387628415133"><ele>1119.0</ele><time>2026-04-25T10:15:24.999Z</time></trkpt><trkpt lat="38.062142588033936" lon="15.7995010686957"><ele>1119.0</ele><time>2026-04-25T10:15:25.999Z</time></trkpt><trkpt lat="38.06212466174782" lon="15.799603100558798"><ele>1119.0</ele><time>2026-04-25T10:15:26.999Z</time></trkpt><trkpt lat="38.06214738353731" lon="15.799697192705986"><ele>1119.0</ele><time>2026-04-25T10:15:29.999Z</time></trkpt><trkpt lat="38.06221287775533" lon="15.799718858671396"><ele>1119.0</ele><time>2026-04-25T10:15:33.999Z</time></trkpt><trkpt lat="38.06227985134089" lon="15.799712179069802"><ele>1119.0</ele><time>2026-04-25T10:15:39.999Z</time></trkpt><trkpt lat="38.06236143037701" lon="15.799684117290171"><ele>1119.0</ele><time>2026-04-25T10:15:41.999Z</time></trkpt><trkpt lat="38.06244000871217" lon="15.799684393109139"><ele>1119.0</ele><time>2026-04-25T10:16:00.999Z</time></trkpt><trkpt lat="38.062521074257276" lon="15.799735901241311"><ele>1119.0</ele><time>2026-04-25T10:16:03.999Z</time></trkpt><trkpt lat="38.062640433930014" lon="15.799752863732357"><ele>1119.0</ele><time>2026-04-25T10:16:06.999Z</time></trkpt><trkpt lat="38.062714195903325" lon="15.799786457612438"><ele>1119.0</ele><time>2026-04-25T10:16:07.999Z</time></trkpt><trkpt lat="38.06278172464561" lon="15.799819637349282"><ele>1119.0</ele><time>2026-04-25T10:16:08.999Z</time></trkpt><trkpt lat="38.06285040062829" lon="15.799853387060978"><ele>1118.4</ele><time>2026-04-25T10:16:09.999Z</time></trkpt><trkpt lat="38.06295070139314" lon="15.799883473618536"><ele>1117.8000000000002</ele><time>2026-04-25T10:16:10.999Z</time></trkpt><trkpt lat="38.06303812502099" lon="15.799920867330336"><ele>1117.1999999999998</ele><time>2026-04-25T10:16:11.999Z</time></trkpt><trkpt lat="38.06313099232098" lon="15.799947868074845"><ele>1116.6</ele><time>2026-04-25T10:16:12.999Z</time></trkpt><trkpt lat="38.0632078959257" lon="15.799972023636865"><ele>1116.0</ele><time>2026-04-25T10:16:13.999Z</time></trkpt><trkpt lat="38.06328770824103" lon="15.800004352815455"><ele>1116.0</ele><time>2026-04-25T10:16:14.999Z</time></trkpt><trkpt lat="38.06337476138253" lon="15.800041390637011"><ele>1116.0</ele><time>2026-04-25T10:16:15.999Z</time></trkpt><trkpt lat="38.063464579383314" lon="15.800090763725722"><ele>1116.0</ele><time>2026-04-25T10:16:16.999Z</time></trkpt><trkpt lat="38.063559808683216" lon="15.800141996249119"><ele>1116.0</ele><time>2026-04-25T10:16:17.999Z</time></trkpt><trkpt lat="38.063659279607286" lon="15.800181100520305"><ele>1116.0</ele><time>2026-04-25T10:16:18.999Z</time></trkpt><trkpt lat="38.06376860952186" lon="15.800232832296743"><ele>1115.75</ele><time>2026-04-25T10:16:19.999Z</time></trkpt><trkpt lat="38.06386764562121" lon="15.80026478124073"><ele>1115.5</ele><time>2026-04-25T10:16:20.999Z</time></trkpt><trkpt lat="38.06400339576663" lon="15.80030209314274"><ele>1115.25</ele><time>2026-04-25T10:16:22.999Z</time></trkpt><trkpt lat="38.064097704425784" lon="15.800301519661073"><ele>1115.0</ele><time>2026-04-25T10:16:23.999Z</time></trkpt><trkpt lat="38.06421947505747" lon="15.800277343685154"><ele>1117.0</ele><time>2026-04-25T10:16:24.999Z</time></trkpt><trkpt lat="38.064360803409514" lon="15.800271005523797"><ele>1119.0</ele><time>2026-04-25T10:16:25.999Z</time></trkpt><trkpt lat="38.06449411199014" lon="15.800267719255622"><ele>1121.0</ele><time>2026-04-25T10:16:26.999Z</time></trkpt><trkpt lat="38.06462239702034" lon="15.800252287093945"><ele>1123.0</ele><time>2026-04-25T10:16:27.999Z</time></trkpt><trkpt lat="38.0647337559652" lon="15.800240334762961"><ele>1123.0</ele><time>2026-04-25T10:16:28.999Z</time></trkpt><trkpt lat="38.06483111076821" lon="15.800211972367151"><ele>1123.0</ele><time>2026-04-25T10:16:29.999Z</time></trkpt><trkpt lat="38.06493700593208" lon="15.80016620409014"><ele>1123.0</ele><time>2026-04-25T10:16:30.999Z</time></trkpt><trkpt lat="38.06502964946709" lon="15.800125367962066"><ele>1123.0</ele><time>2026-04-25T10:16:31.999Z</time></trkpt><trkpt lat="38.065102959682434" lon="15.800088759039726"><ele>1123.0</ele><time>2026-04-25T10:16:32.999Z</time></trkpt><trkpt lat="38.06517197763731" lon="15.800061293199"><ele>1123.4</ele><time>2026-04-25T10:16:33.999Z</time></trkpt><trkpt lat="38.065227993371145" lon="15.800135612873438"><ele>1123.8</ele><time>2026-04-25T10:16:36.999Z</time></trkpt><trkpt lat="38.06525035977851" lon="15.800291019414564"><ele>1124.2</ele><time>2026-04-25T10:16:38.999Z</time></trkpt><trkpt lat="38.06526772344404" lon="15.800398904053571"><ele>1124.6</ele><time>2026-04-25T10:16:39.999Z</time></trkpt><trkpt lat="38.06529457296461" lon="15.800514927060728"><ele>1125.0</ele><time>2026-04-25T10:16:40.999Z</time></trkpt><trkpt lat="38.06533766819097" lon="15.800643620730204"><ele>1125.0</ele><time>2026-04-25T10:16:41.999Z</time></trkpt><trkpt lat="38.065379995292645" lon="15.80077423514107"><ele>1125.0</ele><time>2026-04-25T10:16:42.999Z</time></trkpt><trkpt lat="38.06542304684688" lon="15.800914165438792"><ele>1125.0</ele><time>2026-04-25T10:16:43.999Z</time></trkpt><trkpt lat="38.065462131436504" lon="15.801026447606398"><ele>1125.0</ele><time>2026-04-25T10:16:44.999Z</time></trkpt><trkpt lat="38.065491606597" lon="15.801128374448968"><ele>1125.0</ele><time>2026-04-25T10:16:45.999Z</time></trkpt><trkpt lat="38.06550365635344" lon="15.801226939180058"><ele>1125.0</ele><time>2026-04-25T10:16:46.999Z</time></trkpt><trkpt lat="38.065507000485205" lon="15.801370470101745"><ele>1125.0</ele><time>2026-04-25T10:16:47.999Z</time></trkpt><trkpt lat="38.06550494073508" lon="15.801513513742838"><ele>1125.0</ele><time>2026-04-25T10:16:48.999Z</time></trkpt><trkpt lat="38.06550929800934" lon="15.801646112239421"><ele>1125.0</ele><time>2026-04-25T10:16:49.999Z</time></trkpt><trkpt lat="38.06551224149961" lon="15.801787992793779"><ele>1125.0</ele><time>2026-04-25T10:16:50.999Z</time></trkpt><trkpt lat="38.06551037970897" lon="15.801929455106348"><ele>1125.0</ele><time>2026-04-25T10:16:51.999Z</time></trkpt><trkpt lat="38.065493716610135" lon="15.80208191719213"><ele>1125.0</ele><time>2026-04-25T10:16:52.999Z</time></trkpt><trkpt lat="38.065500364007214" lon="15.802210179042655"><ele>1125.0</ele><time>2026-04-25T10:16:53.999Z</time></trkpt><trkpt lat="38.06552355334841" lon="15.802331653566243"><ele>1125.0</ele><time>2026-04-25T10:16:54.999Z</time></trkpt><trkpt lat="38.065552938406725" lon="15.80244814021332"><ele>1125.0</ele><time>2026-04-25T10:16:55.999Z</time></trkpt><trkpt lat="38.065584274104204" lon="15.802561049016468"><ele>1125.0</ele><time>2026-04-25T10:16:56.999Z</time></trkpt><trkpt lat="38.06560596749674" lon="15.80265597189186"><ele>1125.0</ele><time>2026-04-25T10:16:57.999Z</time></trkpt><trkpt lat="38.06562419824788" lon="15.802753388466474"><ele>1125.0</ele><time>2026-04-25T10:16:58.998Z</time></trkpt><trkpt lat="38.06566771379968" lon="15.802874177827674"><ele>1125.0</ele><time>2026-04-25T10:16:59.998Z</time></trkpt><trkpt lat="38.065723567892476" lon="15.80303078529985"><ele>1125.0</ele><time>2026-04-25T10:17:00.999Z</time></trkpt><trkpt lat="38.06576722181184" lon="15.803185185144393"><ele>1126.5</ele><time>2026-04-25T10:17:01.999Z</time></trkpt><trkpt lat="38.06580083378136" lon="15.80332697096708"><ele>1128.0</ele><time>2026-04-25T10:17:02.999Z</time></trkpt><trkpt lat="38.065838870220404" lon="15.803472705638047"><ele>1129.5</ele><time>2026-04-25T10:17:03.999Z</time></trkpt><trkpt lat="38.06588271609075" lon="15.803620181485469"><ele>1131.0</ele><time>2026-04-25T10:17:04.999Z</time></trkpt><trkpt lat="38.06591023867496" lon="15.803743400591229"><ele>1132.0</ele><time>2026-04-25T10:17:05.999Z</time></trkpt><trkpt lat="38.06592948105642" lon="15.803862991740901"><ele>1133.0</ele><time>2026-04-25T10:17:06.999Z</time></trkpt><trkpt lat="38.06595289481126" lon="15.803981321482802"><ele>1134.0</ele><time>2026-04-25T10:17:07.999Z</time></trkpt><trkpt lat="38.06598252090854" lon="15.804113357274263"><ele>1135.0</ele><time>2026-04-25T10:17:08.999Z</time></trkpt><trkpt lat="38.066023883561925" lon="15.804261792575605"><ele>1136.0</ele><time>2026-04-25T10:17:09.999Z</time></trkpt><trkpt lat="38.0660529262737" lon="15.80441918173175"><ele>1136.6</ele><time>2026-04-25T10:17:10.999Z</time></trkpt><trkpt lat="38.066059719939325" lon="15.804567679195442"><ele>1137.1999999999998</ele><time>2026-04-25T10:17:11.999Z</time></trkpt><trkpt lat="38.066067831458405" lon="15.804684145167574"><ele>1137.8000000000002</ele><time>2026-04-25T10:17:12.999Z</time></trkpt><trkpt lat="38.066083449634014" lon="15.804803192825968"><ele>1138.4</ele><time>2026-04-25T10:17:13.999Z</time></trkpt><trkpt lat="38.066100738173226" lon="15.80490704425723"><ele>1139.0</ele><time>2026-04-25T10:17:14.999Z</time></trkpt><trkpt lat="38.06610663714141" lon="15.804995615824973"><ele>1139.0</ele><time>2026-04-25T10:17:15.999Z</time></trkpt><trkpt lat="38.066091986984986" lon="15.805089341717991"><ele>1139.0</ele><time>2026-04-25T10:17:16.999Z</time></trkpt><trkpt lat="38.06607581156117" lon="15.805209568132987"><ele>1139.0</ele><time>2026-04-25T10:17:17.999Z</time></trkpt><trkpt lat="38.066074046823864" lon="15.805360642465807"><ele>1139.0</ele><time>2026-04-25T10:17:18.999Z</time></trkpt><trkpt lat="38.06609975353912" lon="15.805540166751651"><ele>1139.0</ele><time>2026-04-25T10:17:19.999Z</time></trkpt><trkpt lat="38.06614176551291" lon="15.805707655478994"><ele>1139.4</ele><time>2026-04-25T10:17:20.999Z</time></trkpt><trkpt lat="38.06616864977356" lon="15.805837229494466"><ele>1139.8000000000002</ele><time>2026-04-25T10:17:21.999Z</time></trkpt><trkpt lat="38.066197259914965" lon="15.805962277350373"><ele>1140.1999999999998</ele><time>2026-04-25T10:17:22.999Z</time></trkpt><trkpt lat="38.06621528430853" lon="15.806113818337819"><ele>1140.6</ele><time>2026-04-25T10:17:23.999Z</time></trkpt><trkpt lat="38.06623682095294" lon="15.80625479930409"><ele>1141.0</ele><time>2026-04-25T10:17:24.999Z</time></trkpt><trkpt lat="38.06624868237855" lon="15.80633408887507"><ele>1141.3333333333333</ele><time>2026-04-25T10:17:25.999Z</time></trkpt><trkpt lat="38.06626556123823" lon="15.806414283195647"><ele>1141.6666666666665</ele><time>2026-04-25T10:17:26.999Z</time></trkpt><trkpt lat="38.06627287617416" lon="15.806542353654697"><ele>1142.0</ele><time>2026-04-25T10:17:28.999Z</time></trkpt><trkpt lat="38.06626252287834" lon="15.806459213061732"><ele>1142.3333333333333</ele><time>2026-04-25T10:17:36.999Z</time></trkpt><trkpt lat="38.06628824941365" lon="15.80658396707937"><ele>1142.6666666666667</ele><time>2026-04-25T10:17:55.999Z</time></trkpt><trkpt lat="38.06632129816301" lon="15.806665052620156"><ele>1143.0</ele><time>2026-04-25T10:17:56.999Z</time></trkpt><trkpt lat="38.06635763270063" lon="15.806749287946163"><ele>1143.5</ele><time>2026-04-25T10:17:57.999Z</time></trkpt><trkpt lat="38.06639284447019" lon="15.806835335184587"><ele>1144.0</ele><time>2026-04-25T10:17:58.999Z</time></trkpt><trkpt lat="38.06640442972354" lon="15.806954455412367"><ele>1144.5</ele><time>2026-04-25T10:17:59.999Z</time></trkpt><trkpt lat="38.066413868399714" lon="15.807073067863652"><ele>1145.0</ele><time>2026-04-25T10:18:00.999Z</time></trkpt><trkpt lat="38.066433325850916" lon="15.807183536763056"><ele>1145.5</ele><time>2026-04-25T10:18:01.999Z</time></trkpt><trkpt lat="38.066456431646195" lon="15.807288521935064"><ele>1146.0</ele><time>2026-04-25T10:18:02.999Z</time></trkpt><trkpt lat="38.06647542143221" lon="15.807390142879921"><ele>1146.0</ele><time>2026-04-25T10:18:03.999Z</time></trkpt><trkpt lat="38.06649556410521" lon="15.8074833260014"><ele>1146.0</ele><time>2026-04-25T10:18:04.999Z</time></trkpt><trkpt lat="38.06651837007821" lon="15.807582750041696"><ele>1146.0</ele><time>2026-04-25T10:18:05.999Z</time></trkpt><trkpt lat="38.066538390898465" lon="15.807672985452632"><ele>1146.0</ele><time>2026-04-25T10:18:06.999Z</time></trkpt><trkpt lat="38.06655689654382" lon="15.807758705712434"><ele>1146.0</ele><time>2026-04-25T10:18:07.999Z</time></trkpt><trkpt lat="38.06657982392172" lon="15.80785705212043"><ele>1146.0</ele><time>2026-04-25T10:18:08.999Z</time></trkpt><trkpt lat="38.06659296295895" lon="15.807959794550138"><ele>1146.8</ele><time>2026-04-25T10:18:09.999Z</time></trkpt><trkpt lat="38.06660806639276" lon="15.8080736978931"><ele>1147.6</ele><time>2026-04-25T10:18:10.999Z</time></trkpt><trkpt lat="38.066617622665404" lon="15.808205954109798"><ele>1148.4</ele><time>2026-04-25T10:18:11.999Z</time></trkpt><trkpt lat="38.06663567430491" lon="15.80836782692892"><ele>1149.2</ele><time>2026-04-25T10:18:12.999Z</time></trkpt><trkpt lat="38.06666319752504" lon="15.808506389475207"><ele>1150.0</ele><time>2026-04-25T10:18:13.999Z</time></trkpt><trkpt lat="38.066678913955414" lon="15.808615284141748"><ele>1150.0</ele><time>2026-04-25T10:18:14.999Z</time></trkpt><trkpt lat="38.066699108594925" lon="15.808715968139486"><ele>1150.0</ele><time>2026-04-25T10:18:15.999Z</time></trkpt><trkpt lat="38.06673701927771" lon="15.808854781616088"><ele>1150.0</ele><time>2026-04-25T10:18:16.999Z</time></trkpt><trkpt lat="38.06677925643737" lon="15.808993944165758"><ele>1150.0</ele><time>2026-04-25T10:18:17.999Z</time></trkpt><trkpt lat="38.066813517993964" lon="15.8091345942697"><ele>1150.0</ele><time>2026-04-25T10:18:18.999Z</time></trkpt><trkpt lat="38.0668537505368" lon="15.809274832859739"><ele>1150.25</ele><time>2026-04-25T10:18:19.999Z</time></trkpt><trkpt lat="38.06691896790343" lon="15.809441350781288"><ele>1150.5</ele><time>2026-04-25T10:18:20.999Z</time></trkpt><trkpt lat="38.06698038839225" lon="15.80963110966932"><ele>1150.75</ele><time>2026-04-25T10:18:21.999Z</time></trkpt><trkpt lat="38.06703459501958" lon="15.809785154786262"><ele>1151.0</ele><time>2026-04-25T10:18:22.999Z</time></trkpt><trkpt lat="38.06708533711302" lon="15.809912997033935"><ele>1151.0</ele><time>2026-04-25T10:18:23.999Z</time></trkpt><trkpt lat="38.06714020912658" lon="15.810025317318944"><ele>1151.0</ele><time>2026-04-25T10:18:24.999Z</time></trkpt><trkpt lat="38.067186374619155" lon="15.810128333569804"><ele>1151.0</ele><time>2026-04-25T10:18:25.999Z</time></trkpt><trkpt lat="38.06722617726638" lon="15.810226209260295"><ele>1151.0</ele><time>2026-04-25T10:18:26.999Z</time></trkpt><trkpt lat="38.06727279378898" lon="15.810289347773299"><ele>1151.0</ele><time>2026-04-25T10:18:27.999Z</time></trkpt><trkpt lat="38.06733860379623" lon="15.810385249551098"><ele>1152.2</ele><time>2026-04-25T10:18:28.999Z</time></trkpt><trkpt lat="38.067392025089696" lon="15.810476607715406"><ele>1153.3999999999999</ele><time>2026-04-25T10:18:29.999Z</time></trkpt><trkpt lat="38.06744399262487" lon="15.810575397406357"><ele>1154.6</ele><time>2026-04-25T10:18:30.999Z</time></trkpt><trkpt lat="38.067493929411015" lon="15.810640928583258"><ele>1155.8</ele><time>2026-04-25T10:18:31.999Z</time></trkpt><trkpt lat="38.067575281867015" lon="15.810710367725404"><ele>1157.0</ele><time>2026-04-25T10:18:33.999Z</time></trkpt><trkpt lat="38.06769783160941" lon="15.810823567299929"><ele>1157.25</ele><time>2026-04-25T10:18:35.999Z</time></trkpt><trkpt lat="38.06779005440962" lon="15.810912700514187"><ele>1157.5</ele><time>2026-04-25T10:18:36.999Z</time></trkpt><trkpt lat="38.06789048086548" lon="15.810995464307327"><ele>1157.75</ele><time>2026-04-25T10:18:37.999Z</time></trkpt><trkpt lat="38.06800372983888" lon="15.811074699230646"><ele>1158.0</ele><time>2026-04-25T10:18:38.999Z</time></trkpt><trkpt lat="38.068107207786284" lon="15.811140588600386"><ele>1158.4</ele><time>2026-04-25T10:18:39.999Z</time></trkpt><trkpt lat="38.068191668642235" lon="15.811209924079733"><ele>1158.8</ele><time>2026-04-25T10:18:40.999Z</time></trkpt><trkpt lat="38.06826532762997" lon="15.811277852315264"><ele>1159.2</ele><time>2026-04-25T10:18:41.999Z</time></trkpt><trkpt lat="38.068323956722345" lon="15.811365026841884"><ele>1159.6</ele><time>2026-04-25T10:18:42.999Z</time></trkpt><trkpt lat="38.06837888766438" lon="15.811486364488017"><ele>1160.0</ele><time>2026-04-25T10:18:43.999Z</time></trkpt><trkpt lat="38.068418544284924" lon="15.811619150244784"><ele>1160.4</ele><time>2026-04-25T10:18:44.999Z</time></trkpt><trkpt lat="38.06844139129329" lon="15.81177828001611"><ele>1160.8</ele><time>2026-04-25T10:18:45.999Z</time></trkpt><trkpt lat="38.06846356188427" lon="15.811920954461511"><ele>1161.2</ele><time>2026-04-25T10:18:46.999Z</time></trkpt><trkpt lat="38.06848748960309" lon="15.81202734755504"><ele>1161.6</ele><time>2026-04-25T10:18:47.999Z</time></trkpt><trkpt lat="38.068523549855236" lon="15.812129439391141"><ele>1162.0</ele><time>2026-04-25T10:18:48.999Z</time></trkpt><trkpt lat="38.0685796243166" lon="15.812220210361685"><ele>1162.5</ele><time>2026-04-25T10:18:49.999Z</time></trkpt><trkpt lat="38.06865027160187" lon="15.812339424149707"><ele>1163.0</ele><time>2026-04-25T10:18:50.999Z</time></trkpt><trkpt lat="38.068722309085146" lon="15.81245924813234"><ele>1163.5</ele><time>2026-04-25T10:18:51.999Z</time></trkpt><trkpt lat="38.06880155437011" lon="15.812577124184944"><ele>1164.0</ele><time>2026-04-25T10:18:52.999Z</time></trkpt><trkpt lat="38.06886772748724" lon="15.812702057624147"><ele>1164.25</ele><time>2026-04-25T10:18:53.999Z</time></trkpt><trkpt lat="38.0689099811377" lon="15.81282412907456"><ele>1164.5</ele><time>2026-04-25T10:18:54.999Z</time></trkpt><trkpt lat="38.06895105517254" lon="15.812963173553907"><ele>1164.75</ele><time>2026-04-25T10:18:55.999Z</time></trkpt><trkpt lat="38.069002396826505" lon="15.813095967158237"><ele>1165.0</ele><time>2026-04-25T10:18:56.999Z</time></trkpt><trkpt lat="38.06906897610972" lon="15.813221222273869"><ele>1165.75</ele><time>2026-04-25T10:18:57.999Z</time></trkpt><trkpt lat="38.06914211218041" lon="15.813340580796327"><ele>1166.5</ele><time>2026-04-25T10:18:58.999Z</time></trkpt><trkpt lat="38.069222861530584" lon="15.813459801390032"><ele>1167.25</ele><time>2026-04-25T10:18:59.999Z</time></trkpt><trkpt lat="38.06932254785742" lon="15.813575442482499"><ele>1168.0</ele><time>2026-04-25T10:19:00.999Z</time></trkpt><trkpt lat="38.069433728379416" lon="15.81369901183522"><ele>1168.5</ele><time>2026-04-25T10:19:01.999Z</time></trkpt><trkpt lat="38.06951881205938" lon="15.81381487293728"><ele>1169.0</ele><time>2026-04-25T10:19:02.999Z</time></trkpt><trkpt lat="38.069591745306234" lon="15.813913769516486"><ele>1169.5</ele><time>2026-04-25T10:19:03.999Z</time></trkpt><trkpt lat="38.06966478286695" lon="15.814033456018661"><ele>1170.0</ele><time>2026-04-25T10:19:04.999Z</time></trkpt><trkpt lat="38.069737084207354" lon="15.814206032619243"><ele>1170.3333333333333</ele><time>2026-04-25T10:19:05.998Z</time></trkpt><trkpt lat="38.06981315478642" lon="15.814400122068454"><ele>1170.6666666666665</ele><time>2026-04-25T10:19:06.999Z</time></trkpt><trkpt lat="38.069888064207575" lon="15.81458056905381"><ele>1171.0</ele><time>2026-04-25T10:19:07.999Z</time></trkpt><trkpt lat="38.069941021976426" lon="15.814733857859084"><ele>1171.6666666666665</ele><time>2026-04-25T10:19:08.999Z</time></trkpt><trkpt lat="38.06997164477728" lon="15.814925323194915"><ele>1172.3333333333333</ele><time>2026-04-25T10:19:09.999Z</time></trkpt><trkpt lat="38.070019530188816" lon="15.815174481294305"><ele>1173.0</ele><time>2026-04-25T10:19:10.999Z</time></trkpt><trkpt lat="38.07008778226254" lon="15.815412918928695"><ele>1173.6666666666667</ele><time>2026-04-25T10:19:11.999Z</time></trkpt><trkpt lat="38.070178135021905" lon="15.81561875467398"><ele>1174.3333333333335</ele><time>2026-04-25T10:19:12.999Z</time></trkpt><trkpt lat="38.070252065535236" lon="15.815773606983587"><ele>1175.0</ele><time>2026-04-25T10:19:13.999Z</time></trkpt><trkpt lat="38.07030146542025" lon="15.815925652025356"><ele>1175.0</ele><time>2026-04-25T10:19:14.999Z</time></trkpt><trkpt lat="38.07034402784023" lon="15.816045444865322"><ele>1175.0</ele><time>2026-04-25T10:19:15.999Z</time></trkpt><trkpt lat="38.07037004742862" lon="15.81614275805987"><ele>1175.0</ele><time>2026-04-25T10:19:16.999Z</time></trkpt><trkpt lat="38.07041695159987" lon="15.816226423729356"><ele>1175.0</ele><time>2026-04-25T10:19:18.999Z</time></trkpt><trkpt lat="38.07040753218028" lon="15.816332228843239"><ele>1175.0</ele><time>2026-04-25T10:19:20.999Z</time></trkpt><trkpt lat="38.070382668585204" lon="15.8164657127879"><ele>1175.0</ele><time>2026-04-25T10:19:21.999Z</time></trkpt><trkpt lat="38.07036265641218" lon="15.816624681549701"><ele>1175.0</ele><time>2026-04-25T10:19:22.999Z</time></trkpt><trkpt lat="38.070372769250966" lon="15.81680388382952"><ele>1175.0</ele><time>2026-04-25T10:19:23.999Z</time></trkpt><trkpt lat="38.07040331633111" lon="15.816990808959204"><ele>1175.0</ele><time>2026-04-25T10:19:24.999Z</time></trkpt><trkpt lat="38.07044707756481" lon="15.81717902643092"><ele>1176.0</ele><time>2026-04-25T10:19:25.999Z</time></trkpt><trkpt lat="38.07049396777714" lon="15.817374164551524"><ele>1177.0</ele><time>2026-04-25T10:19:26.999Z</time></trkpt><trkpt lat="38.07054397520946" lon="15.817565290225241"><ele>1178.0</ele><time>2026-04-25T10:19:27.999Z</time></trkpt><trkpt lat="38.07059213812695" lon="15.817759421944793"><ele>1179.0</ele><time>2026-04-25T10:19:28.999Z</time></trkpt><trkpt lat="38.070635484363514" lon="15.817952906299258"><ele>1180.0</ele><time>2026-04-25T10:19:29.999Z</time></trkpt><trkpt lat="38.070674084590294" lon="15.81814304744062"><ele>1181.0</ele><time>2026-04-25T10:19:30.999Z</time></trkpt><trkpt lat="38.07071087169969" lon="15.818322026940159"><ele>1181.0</ele><time>2026-04-25T10:19:31.999Z</time></trkpt><trkpt lat="38.0707544660468" lon="15.818505598841677"><ele>1181.0</ele><time>2026-04-25T10:19:32.999Z</time></trkpt><trkpt lat="38.07080770293743" lon="15.818694739749903"><ele>1181.0</ele><time>2026-04-25T10:19:33.999Z</time></trkpt><trkpt lat="38.0708600478247" lon="15.818887786170388"><ele>1181.0</ele><time>2026-04-25T10:19:34.999Z</time></trkpt><trkpt lat="38.07090582545226" lon="15.819077750234941"><ele>1181.0</ele><time>2026-04-25T10:19:35.999Z</time></trkpt><trkpt lat="38.07093922061621" lon="15.819260231453883"><ele>1181.0</ele><time>2026-04-25T10:19:36.999Z</time></trkpt><trkpt lat="38.07097120481925" lon="15.81943815565216"><ele>1181.0</ele><time>2026-04-25T10:19:37.999Z</time></trkpt><trkpt lat="38.07100506848992" lon="15.819619554517566"><ele>1182.6666666666667</ele><time>2026-04-25T10:19:38.999Z</time></trkpt><trkpt lat="38.07103831267301" lon="15.819806018439538"><ele>1184.3333333333333</ele><time>2026-04-25T10:19:39.999Z</time></trkpt><trkpt lat="38.07106500871263" lon="15.819998993219517"><ele>1186.0</ele><time>2026-04-25T10:19:41Z</time></trkpt><trkpt lat="38.07109534679751" lon="15.820196830113284"><ele>1186.0</ele><time>2026-04-25T10:19:42Z</time></trkpt><trkpt lat="38.07112305066545" lon="15.82039677084003"><ele>1186.0</ele><time>2026-04-25T10:19:43Z</time></trkpt><trkpt lat="38.07115099326078" lon="15.820598396669368"><ele>1186.0</ele><time>2026-04-25T10:19:44Z</time></trkpt><trkpt lat="38.071179336620034" lon="15.820798618372212"><ele>1186.0</ele><time>2026-04-25T10:19:45Z</time></trkpt><trkpt lat="38.07120550581496" lon="15.820974834664602"><ele>1186.0</ele><time>2026-04-25T10:19:46Z</time></trkpt><trkpt lat="38.07123305548349" lon="15.82111374935646"><ele>1186.0</ele><time>2026-04-25T10:19:47Z</time></trkpt><trkpt lat="38.0712843138904" lon="15.821247844427853"><ele>1186.0</ele><time>2026-04-25T10:19:48Z</time></trkpt><trkpt lat="38.07136488043633" lon="15.821390260464744"><ele>1186.75</ele><time>2026-04-25T10:19:49Z</time></trkpt><trkpt lat="38.071464493408364" lon="15.821532652774213"><ele>1187.5</ele><time>2026-04-25T10:19:50Z</time></trkpt><trkpt lat="38.07155939401197" lon="15.821678132732558"><ele>1188.25</ele><time>2026-04-25T10:19:51Z</time></trkpt><trkpt lat="38.07164712271051" lon="15.82182144443053"><ele>1189.0</ele><time>2026-04-25T10:19:52Z</time></trkpt><trkpt lat="38.07171644816907" lon="15.821936198866702"><ele>1190.8</ele><time>2026-04-25T10:19:53Z</time></trkpt><trkpt lat="38.07177910081337" lon="15.822029827824599"><ele>1192.6000000000001</ele><time>2026-04-25T10:19:54Z</time></trkpt><trkpt lat="38.07183105494428" lon="15.822122946673337"><ele>1194.4</ele><time>2026-04-25T10:19:55Z</time></trkpt><trkpt lat="38.071834420600155" lon="15.822232867639356"><ele>1196.2</ele><time>2026-04-25T10:19:57Z</time></trkpt><trkpt lat="38.071770850688594" lon="15.822246537111766"><ele>1198.0</ele><time>2026-04-25T10:19:59Z</time></trkpt><trkpt lat="38.071630809566436" lon="15.822224778409629"><ele>1197.1666666666665</ele><time>2026-04-25T10:20:01Z</time></trkpt><trkpt lat="38.071564977364105" lon="15.82215869432951"><ele>1196.3333333333333</ele><time>2026-04-25T10:20:03Z</time></trkpt><trkpt lat="38.07149205462453" lon="15.822160191105308"><ele>1195.5</ele><time>2026-04-25T10:20:05Z</time></trkpt><trkpt lat="38.071422296020806" lon="15.822126026823028"><ele>1194.6666666666667</ele><time>2026-04-25T10:20:07Z</time></trkpt><trkpt lat="38.07152176783899" lon="15.822154714328827"><ele>1193.8333333333335</ele><time>2026-04-25T10:20:23Z</time></trkpt><trkpt lat="38.07158388777934" lon="15.82210411790438"><ele>1193.0</ele><time>2026-04-25T10:20:35Z</time></trkpt><trkpt lat="38.0715749019251" lon="15.822021079374926"><ele>1193.0</ele><time>2026-04-25T10:27:03Z</time></trkpt><trkpt lat="38.07139205967128" lon="15.822027778950552"><ele>1193.0</ele><time>2026-04-25T10:31:11.461Z</time></trkpt><trkpt lat="38.071453192988415" lon="15.822154318460516"><ele>1193.0</ele><time>2026-04-25T10:33:44.997Z</time></trkpt><trkpt lat="38.071508266366635" lon="15.822293821319589"><ele>1193.0</ele><time>2026-04-25T10:33:46.997Z</time></trkpt><trkpt lat="38.07156115243403" lon="15.822221196788671"><ele>1193.0</ele><time>2026-04-25T10:33:51.001Z</time></trkpt><trkpt lat="38.071582482626475" lon="15.822134057973804"><ele>1193.0</ele><time>2026-04-25T10:34:06Z</time></trkpt><trkpt lat="38.07167593249083" lon="15.822174004418876"><ele>1193.0</ele><time>2026-04-25T10:39:08.999Z</time></trkpt><trkpt lat="38.071744108635365" lon="15.822229168664581"><ele>1193.0</ele><time>2026-04-25T10:39:10.999Z</time></trkpt><trkpt lat="38.07182697946276" lon="15.822276018594204"><ele>1193.0</ele><time>2026-04-25T10:39:12.999Z</time></trkpt><trkpt lat="38.07192164873136" lon="15.822338072118859"><ele>1193.0</ele><time>2026-04-25T10:39:14.999Z</time></trkpt><trkpt lat="38.071892461340425" lon="15.822471043893207"><ele>1194.0</ele><time>2026-04-25T10:39:17.999Z</time></trkpt><trkpt lat="38.07186064902363" lon="15.822582280738743"><ele>1195.0</ele><time>2026-04-25T10:39:19.999Z</time></trkpt><trkpt lat="38.071811493091374" lon="15.822719856338255"><ele>1196.0</ele><time>2026-04-25T10:39:21.999Z</time></trkpt><trkpt lat="38.07176653876422" lon="15.822783866553921"><ele>1197.0</ele><time>2026-04-25T10:39:22.999Z</time></trkpt><trkpt lat="38.07171709284312" lon="15.822863882142526"><ele>1198.0</ele><time>2026-04-25T10:39:23.999Z</time></trkpt><trkpt lat="38.07165113193957" lon="15.822947684981871"><ele>1198.0</ele><time>2026-04-25T10:39:24.999Z</time></trkpt><trkpt lat="38.07158421685752" lon="15.823048941739957"><ele>1198.0</ele><time>2026-04-25T10:39:25.999Z</time></trkpt><trkpt lat="38.071526557488895" lon="15.82313987804783"><ele>1198.0</ele><time>2026-04-25T10:39:26.999Z</time></trkpt><trkpt lat="38.07146714375461" lon="15.823250518039822"><ele>1198.0</ele><time>2026-04-25T10:39:27.999Z</time></trkpt><trkpt lat="38.07140526627605" lon="15.823338060634388"><ele>1198.0</ele><time>2026-04-25T10:39:28.999Z</time></trkpt><trkpt lat="38.07133793854956" lon="15.823433392765347"><ele>1199.0</ele><time>2026-04-25T10:39:29.999Z</time></trkpt><trkpt lat="38.0712717816738" lon="15.823522861753862"><ele>1200.0</ele><time>2026-04-25T10:39:30.999Z</time></trkpt><trkpt lat="38.07121945716316" lon="15.823622447773298"><ele>1201.0</ele><time>2026-04-25T10:39:31.999Z</time></trkpt><trkpt lat="38.071162634795726" lon="15.82374201039235"><ele>1202.0</ele><time>2026-04-25T10:39:32.999Z</time></trkpt><trkpt lat="38.071087993032386" lon="15.82388582959688"><ele>1203.0</ele><time>2026-04-25T10:39:33.999Z</time></trkpt><trkpt lat="38.071015442337966" lon="15.824058697938915"><ele>1203.0</ele><time>2026-04-25T10:39:34.999Z</time></trkpt><trkpt lat="38.0709491627966" lon="15.824216397966147"><ele>1203.0</ele><time>2026-04-25T10:39:35.999Z</time></trkpt><trkpt lat="38.070873025317425" lon="15.824372182772295"><ele>1203.0</ele><time>2026-04-25T10:39:36.999Z</time></trkpt><trkpt lat="38.07081958131328" lon="15.824512930212626"><ele>1203.0</ele><time>2026-04-25T10:39:37.999Z</time></trkpt><trkpt lat="38.07078382204385" lon="15.824639348902258"><ele>1203.0</ele><time>2026-04-25T10:39:38.999Z</time></trkpt><trkpt lat="38.07075935408521" lon="15.824762394783042"><ele>1203.0</ele><time>2026-04-25T10:39:39.999Z</time></trkpt><trkpt lat="38.07073889486241" lon="15.824881184510643"><ele>1203.0</ele><time>2026-04-25T10:39:40.999Z</time></trkpt><trkpt lat="38.07070157047184" lon="15.825010668402134"><ele>1203.0</ele><time>2026-04-25T10:39:41.999Z</time></trkpt><trkpt lat="38.070667733511705" lon="15.82514143224573"><ele>1203.0</ele><time>2026-04-25T10:39:42.999Z</time></trkpt><trkpt lat="38.070633274586186" lon="15.825289250170691"><ele>1205.0</ele><time>2026-04-25T10:39:43.999Z</time></trkpt><trkpt lat="38.070598249668215" lon="15.825432913337483"><ele>1207.0</ele><time>2026-04-25T10:39:44.999Z</time></trkpt><trkpt lat="38.07056666093492" lon="15.825581076588323"><ele>1209.0</ele><time>2026-04-25T10:39:45.999Z</time></trkpt><trkpt lat="38.07052346488268" lon="15.825732459151952"><ele>1211.0</ele><time>2026-04-25T10:39:46.999Z</time></trkpt><trkpt lat="38.07049222721927" lon="15.825881738425808"><ele>1212.6</ele><time>2026-04-25T10:39:47.999Z</time></trkpt><trkpt lat="38.07045846063776" lon="15.826036889357967"><ele>1214.1999999999998</ele><time>2026-04-25T10:39:48.999Z</time></trkpt><trkpt lat="38.070430862364226" lon="15.82618011300297"><ele>1215.8000000000002</ele><time>2026-04-25T10:39:49.999Z</time></trkpt><trkpt lat="38.07041039530338" lon="15.826299834746637"><ele>1217.4</ele><time>2026-04-25T10:39:50.999Z</time></trkpt><trkpt lat="38.07038770988102" lon="15.826404755306221"><ele>1219.0</ele><time>2026-04-25T10:39:51.999Z</time></trkpt><trkpt lat="38.07037108468017" lon="15.826484329911652"><ele>1219.0</ele><time>2026-04-25T10:39:52.999Z</time></trkpt><trkpt lat="38.070372069757" lon="15.826594394576812"><ele>1219.0</ele><time>2026-04-25T10:39:53.999Z</time></trkpt><trkpt lat="38.07041077306888" lon="15.8267615599851"><ele>1219.0</ele><time>2026-04-25T10:39:54.999Z</time></trkpt><trkpt lat="38.07045028465164" lon="15.8269248879821"><ele>1219.0</ele><time>2026-04-25T10:39:55.999Z</time></trkpt><trkpt lat="38.07045667880459" lon="15.827054492838487"><ele>1218.2</ele><time>2026-04-25T10:39:56.999Z</time></trkpt><trkpt lat="38.07048402581454" lon="15.82715404545267"><ele>1217.4</ele><time>2026-04-25T10:39:57.999Z</time></trkpt><trkpt lat="38.0705172153068" lon="15.827223012809121"><ele>1216.6</ele><time>2026-04-25T10:39:58.999Z</time></trkpt><trkpt lat="38.0706333871329" lon="15.827260507351033"><ele>1215.8</ele><time>2026-04-25T10:40:00.999Z</time></trkpt><trkpt lat="38.0707168621286" lon="15.827236955249864"><ele>1215.0</ele><time>2026-04-25T10:40:01.999Z</time></trkpt><trkpt lat="38.070820560712015" lon="15.827232163660693"><ele>1215.0</ele><time>2026-04-25T10:40:02.999Z</time></trkpt><trkpt lat="38.07091830637237" lon="15.827278657808675"><ele>1215.0</ele><time>2026-04-25T10:40:03.999Z</time></trkpt><trkpt lat="38.07098264240334" lon="15.827335910446287"><ele>1215.0</ele><time>2026-04-25T10:40:04.999Z</time></trkpt><trkpt lat="38.07103987202265" lon="15.827442293009785"><ele>1215.0</ele><time>2026-04-25T10:40:06.999Z</time></trkpt><trkpt lat="38.070994647781454" lon="15.827545998275365"><ele>1215.0</ele><time>2026-04-25T10:40:09Z</time></trkpt><trkpt lat="38.07093613008932" lon="15.827587570875494"><ele>1215.0</ele><time>2026-04-25T10:40:10Z</time></trkpt><trkpt lat="38.07085923936728" lon="15.827615446915066"><ele>1215.0</ele><time>2026-04-25T10:40:11Z</time></trkpt><trkpt lat="38.07078490281951" lon="15.827636486263566"><ele>1215.0</ele><time>2026-04-25T10:40:12Z</time></trkpt><trkpt lat="38.07072301421261" lon="15.827745630548112"><ele>1215.0</ele><time>2026-04-25T10:40:14Z</time></trkpt><trkpt lat="38.07072353121317" lon="15.827869071625605"><ele>1215.0</ele><time>2026-04-25T10:40:15Z</time></trkpt><trkpt lat="38.07072443784378" lon="15.828013645723267"><ele>1215.0</ele><time>2026-04-25T10:40:16Z</time></trkpt><trkpt lat="38.07073400533952" lon="15.828199923131551"><ele>1212.0</ele><time>2026-04-25T10:40:17Z</time></trkpt><trkpt lat="38.07074596775459" lon="15.82837902529437"><ele>1209.0</ele><time>2026-04-25T10:40:18Z</time></trkpt><trkpt lat="38.07074267071567" lon="15.828524726629833"><ele>1206.0</ele><time>2026-04-25T10:40:19Z</time></trkpt><trkpt lat="38.07073671929668" lon="15.828650373775586"><ele>1203.0</ele><time>2026-04-25T10:40:20Z</time></trkpt><trkpt lat="38.07074031781385" lon="15.828737353492821"><ele>1200.0</ele><time>2026-04-25T10:40:21Z</time></trkpt><trkpt lat="38.070764079796064" lon="15.828823983620513"><ele>1199.5</ele><time>2026-04-25T10:40:22Z</time></trkpt><trkpt lat="38.070817182591966" lon="15.828905166395419"><ele>1199.0</ele><time>2026-04-25T10:40:23Z</time></trkpt><trkpt lat="38.07087532948178" lon="15.82896089616396"><ele>1198.5</ele><time>2026-04-25T10:40:24Z</time></trkpt><trkpt lat="38.070951634273825" lon="15.828981162457143"><ele>1198.0</ele><time>2026-04-25T10:40:25Z</time></trkpt><trkpt lat="38.07103660845112" lon="15.828962225569766"><ele>1197.5</ele><time>2026-04-25T10:40:26Z</time></trkpt><trkpt lat="38.0711331998641" lon="15.828897470872807"><ele>1197.0</ele><time>2026-04-25T10:40:27Z</time></trkpt><trkpt lat="38.07123489312046" lon="15.828842358140825"><ele>1197.0</ele><time>2026-04-25T10:40:28Z</time></trkpt><trkpt lat="38.0713357608476" lon="15.828838948199136"><ele>1197.0</ele><time>2026-04-25T10:40:29Z</time></trkpt><trkpt lat="38.071436983364464" lon="15.828850505897847"><ele>1197.0</ele><time>2026-04-25T10:40:30Z</time></trkpt><trkpt lat="38.07150848611844" lon="15.828883670008485"><ele>1197.0</ele><time>2026-04-25T10:40:31Z</time></trkpt><trkpt lat="38.07159806394406" lon="15.828914010724612"><ele>1197.0</ele><time>2026-04-25T10:40:33Z</time></trkpt><trkpt lat="38.071652414951004" lon="15.829050270718604"><ele>1197.0</ele><time>2026-04-25T10:40:35Z</time></trkpt><trkpt lat="38.07159219562317" lon="15.82918007976278"><ele>1197.0</ele><time>2026-04-25T10:40:37Z</time></trkpt><trkpt lat="38.07152616414359" lon="15.829209293508297"><ele>1197.0</ele><time>2026-04-25T10:40:38Z</time></trkpt><trkpt lat="38.07144280870311" lon="15.82920581833875"><ele>1197.0</ele><time>2026-04-25T10:40:39Z</time></trkpt><trkpt lat="38.07134975124758" lon="15.829206628041286"><ele>1197.0</ele><time>2026-04-25T10:40:40Z</time></trkpt><trkpt lat="38.07124493040767" lon="15.829214011141847"><ele>1197.0</ele><time>2026-04-25T10:40:41Z</time></trkpt><trkpt lat="38.0711526701155" lon="15.829235963846637"><ele>1197.0</ele><time>2026-04-25T10:40:42Z</time></trkpt><trkpt lat="38.071078883259574" lon="15.82926965763844"><ele>1197.0</ele><time>2026-04-25T10:40:43Z</time></trkpt><trkpt lat="38.07102253186878" lon="15.829330254029093"><ele>1197.0</ele><time>2026-04-25T10:40:44Z</time></trkpt><trkpt lat="38.07097457990967" lon="15.829428803303824"><ele>1197.0</ele><time>2026-04-25T10:40:45Z</time></trkpt><trkpt lat="38.07095087584871" lon="15.829525195280466"><ele>1197.0</ele><time>2026-04-25T10:40:46Z</time></trkpt><trkpt lat="38.07089912495057" lon="15.829649467702245"><ele>1195.4</ele><time>2026-04-25T10:40:47Z</time></trkpt><trkpt lat="38.07082870315556" lon="15.829752585177559"><ele>1193.8000000000002</ele><time>2026-04-25T10:40:48Z</time></trkpt><trkpt lat="38.07078023856034" lon="15.829845877221102"><ele>1192.2</ele><time>2026-04-25T10:40:49Z</time></trkpt><trkpt lat="38.070734554584575" lon="15.829931303668817"><ele>1190.6000000000001</ele><time>2026-04-25T10:40:49.999Z</time></trkpt><trkpt lat="38.07064668813394" lon="15.829984142626332"><ele>1189.0</ele><time>2026-04-25T10:40:51.999Z</time></trkpt><trkpt lat="38.070507829873065" lon="15.82993248561114"><ele>1187.6000000000001</ele><time>2026-04-25T10:40:53.999Z</time></trkpt><trkpt lat="38.07041190180048" lon="15.829877582625576"><ele>1186.2</ele><time>2026-04-25T10:40:54.999Z</time></trkpt><trkpt lat="38.07031241669345" lon="15.829827441575112"><ele>1184.8000000000002</ele><time>2026-04-25T10:40:55.999Z</time></trkpt><trkpt lat="38.07021967209212" lon="15.829812112480187"><ele>1183.4</ele><time>2026-04-25T10:40:56.999Z</time></trkpt><trkpt lat="38.07013291428096" lon="15.829815768603211"><ele>1182.0</ele><time>2026-04-25T10:40:57.999Z</time></trkpt><trkpt lat="38.070028371365375" lon="15.829836324606642"><ele>1179.4</ele><time>2026-04-25T10:40:58.999Z</time></trkpt><trkpt lat="38.06992459906188" lon="15.82986612602987"><ele>1176.8000000000002</ele><time>2026-04-25T10:40:59.999Z</time></trkpt><trkpt lat="38.06983411072677" lon="15.8298657312138"><ele>1174.2</ele><time>2026-04-25T10:41:00.999Z</time></trkpt><trkpt lat="38.06974363586694" lon="15.82985084016347"><ele>1171.6000000000001</ele><time>2026-04-25T10:41:01.999Z</time></trkpt><trkpt lat="38.069630218165806" lon="15.829862372400571"><ele>1169.0</ele><time>2026-04-25T10:41:02.999Z</time></trkpt><trkpt lat="38.06951911628324" lon="15.829850122665139"><ele>1169.0</ele><time>2026-04-25T10:41:03.999Z</time></trkpt><trkpt lat="38.06942634470666" lon="15.829839871785188"><ele>1169.0</ele><time>2026-04-25T10:41:04.999Z</time></trkpt><trkpt lat="38.069322455255985" lon="15.829842150519525"><ele>1169.0</ele><time>2026-04-25T10:41:05.999Z</time></trkpt><trkpt lat="38.06921323407292" lon="15.829859779569476"><ele>1169.0</ele><time>2026-04-25T10:41:06.999Z</time></trkpt><trkpt lat="38.0691227833752" lon="15.829889859675676"><ele>1169.0</ele><time>2026-04-25T10:41:07.999Z</time></trkpt><trkpt lat="38.06903106539003" lon="15.829886862782425"><ele>1163.8</ele><time>2026-04-25T10:41:08.999Z</time></trkpt><trkpt lat="38.068959416516954" lon="15.829921764262826"><ele>1158.6000000000001</ele><time>2026-04-25T10:41:09.999Z</time></trkpt><trkpt lat="38.06886922159099" lon="15.830007085772026"><ele>1153.4</ele><time>2026-04-25T10:41:11.999Z</time></trkpt><trkpt lat="38.06887603187128" lon="15.830130705349118"><ele>1148.2</ele><time>2026-04-25T10:41:12.999Z</time></trkpt><trkpt lat="38.0689550587452" lon="15.830226679443784"><ele>1143.0</ele><time>2026-04-25T10:41:13.999Z</time></trkpt><trkpt lat="38.069064554382216" lon="15.830283382629915"><ele>1145.0</ele><time>2026-04-25T10:41:14.999Z</time></trkpt><trkpt lat="38.06913615881371" lon="15.830443792135567"><ele>1147.0</ele><time>2026-04-25T10:41:15.999Z</time></trkpt><trkpt lat="38.069213021909874" lon="15.83055897293403"><ele>1149.0</ele><time>2026-04-25T10:41:16.999Z</time></trkpt><trkpt lat="38.069296973037616" lon="15.830629408428551"><ele>1151.0</ele><time>2026-04-25T10:41:17.999Z</time></trkpt><trkpt lat="38.069339017028746" lon="15.830721393022317"><ele>1153.0</ele><time>2026-04-25T10:41:18.999Z</time></trkpt><trkpt lat="38.069364502303586" lon="15.830803836431263"><ele>1153.0</ele><time>2026-04-25T10:41:19.999Z</time></trkpt><trkpt lat="38.06932681985214" lon="15.83088887053989"><ele>1153.0</ele><time>2026-04-25T10:41:20.999Z</time></trkpt><trkpt lat="38.06930407616745" lon="15.83101763312019"><ele>1153.0</ele><time>2026-04-25T10:41:21.999Z</time></trkpt><trkpt lat="38.06928265906101" lon="15.831141510198586"><ele>1153.0</ele><time>2026-04-25T10:41:22.999Z</time></trkpt><trkpt lat="38.06928383603701" lon="15.831241110129216"><ele>1153.0</ele><time>2026-04-25T10:41:23.999Z</time></trkpt><trkpt lat="38.06931342387732" lon="15.831324220390213"><ele>1153.0</ele><time>2026-04-25T10:41:24.999Z</time></trkpt><trkpt lat="38.06939293394688" lon="15.831351445753247"><ele>1148.4</ele><time>2026-04-25T10:41:25.999Z</time></trkpt><trkpt lat="38.06952611675401" lon="15.831379620420174"><ele>1143.8</ele><time>2026-04-25T10:41:27.999Z</time></trkpt><trkpt lat="38.069607330947946" lon="15.831400039794648"><ele>1139.2</ele><time>2026-04-25T10:41:28.999Z</time></trkpt><trkpt lat="38.06968014375738" lon="15.831366578546962"><ele>1134.6</ele><time>2026-04-25T10:41:29.999Z</time></trkpt><trkpt lat="38.069780744745536" lon="15.831366648028627"><ele>1130.0</ele><time>2026-04-25T10:41:31.999Z</time></trkpt><trkpt lat="38.06983006761449" lon="15.83143816999529"><ele>1130.0</ele><time>2026-04-25T10:41:34.999Z</time></trkpt><trkpt lat="38.0697237375202" lon="15.831471874120941"><ele>1130.0</ele><time>2026-04-25T10:41:36.999Z</time></trkpt><trkpt lat="38.06961568982761" lon="15.8315449026545"><ele>1130.0</ele><time>2026-04-25T10:41:38.999Z</time></trkpt><trkpt lat="38.06956257864447" lon="15.831644888388759"><ele>1130.0</ele><time>2026-04-25T10:41:40.999Z</time></trkpt><trkpt lat="38.06959441817754" lon="15.831731696875575"><ele>1130.0</ele><time>2026-04-25T10:41:42.999Z</time></trkpt><trkpt lat="38.0696850681807" lon="15.831732104398867"><ele>1130.0</ele><time>2026-04-25T10:41:44.999Z</time></trkpt><trkpt lat="38.06973807792377" lon="15.831673456864372"><ele>1130.0</ele><time>2026-04-25T10:41:45.999Z</time></trkpt><trkpt lat="38.06982304103332" lon="15.831610098339544"><ele>1130.0</ele><time>2026-04-25T10:41:46.999Z</time></trkpt><trkpt lat="38.0699063558677" lon="15.831560456502192"><ele>1130.0</ele><time>2026-04-25T10:41:47.999Z</time></trkpt><trkpt lat="38.06998477706931" lon="15.831509061768129"><ele>1130.0</ele><time>2026-04-25T10:41:48.999Z</time></trkpt><trkpt lat="38.0700513656889" lon="15.831443863356162"><ele>1130.0</ele><time>2026-04-25T10:41:49.999Z</time></trkpt><trkpt lat="38.070113939795846" lon="15.831381797819045"><ele>1131.0</ele><time>2026-04-25T10:41:50.999Z</time></trkpt><trkpt lat="38.070186029567175" lon="15.831355413789263"><ele>1132.0</ele><time>2026-04-25T10:41:51.999Z</time></trkpt><trkpt lat="38.07027459315697" lon="15.831304401107152"><ele>1133.0</ele><time>2026-04-25T10:41:52.999Z</time></trkpt><trkpt lat="38.07035195284624" lon="15.831235673764356"><ele>1134.0</ele><time>2026-04-25T10:41:53.999Z</time></trkpt><trkpt lat="38.07043688476925" lon="15.831199953402892"><ele>1135.0</ele><time>2026-04-25T10:41:54.999Z</time></trkpt><trkpt lat="38.07052421345883" lon="15.831192985011436"><ele>1136.0</ele><time>2026-04-25T10:41:55.999Z</time></trkpt><trkpt lat="38.07060433043824" lon="15.831152052285608"><ele>1136.0</ele><time>2026-04-25T10:41:56.999Z</time></trkpt><trkpt lat="38.07069056941046" lon="15.831147098032048"><ele>1136.0</ele><time>2026-04-25T10:41:57.999Z</time></trkpt><trkpt lat="38.070767331935215" lon="15.831105027199936"><ele>1136.0</ele><time>2026-04-25T10:41:58.999Z</time></trkpt><trkpt lat="38.070847271572724" lon="15.831097980029721"><ele>1136.0</ele><time>2026-04-25T10:41:59.999Z</time></trkpt><trkpt lat="38.07092921100828" lon="15.83111565558431"><ele>1136.0</ele><time>2026-04-25T10:42:00.999Z</time></trkpt><trkpt lat="38.07100246690521" lon="15.831175094973892"><ele>1136.0</ele><time>2026-04-25T10:42:01.999Z</time></trkpt><trkpt lat="38.071073820465244" lon="15.831202973438751"><ele>1132.0</ele><time>2026-04-25T10:42:02.999Z</time></trkpt><trkpt lat="38.071148847923176" lon="15.831233531209728"><ele>1128.0</ele><time>2026-04-25T10:42:03.999Z</time></trkpt><trkpt lat="38.071226657429186" lon="15.83127544014826"><ele>1124.0</ele><time>2026-04-25T10:42:04.999Z</time></trkpt><trkpt lat="38.07129880498104" lon="15.831321368028147"><ele>1120.0</ele><time>2026-04-25T10:42:05.999Z</time></trkpt><trkpt lat="38.07136694945581" lon="15.831364699826079"><ele>1116.0</ele><time>2026-04-25T10:42:06.999Z</time></trkpt><trkpt lat="38.07143560008353" lon="15.831390735126872"><ele>1112.0</ele><time>2026-04-25T10:42:07.999Z</time></trkpt><trkpt lat="38.07151705731045" lon="15.83148440863043"><ele>1112.0</ele><time>2026-04-25T10:42:09.999Z</time></trkpt><trkpt lat="38.07148093126022" lon="15.831557125161899"><ele>1112.0</ele><time>2026-04-25T10:42:12.999Z</time></trkpt><trkpt lat="38.071352638990746" lon="15.83150375507408"><ele>1112.0</ele><time>2026-04-25T10:42:14.999Z</time></trkpt><trkpt lat="38.07126247803429" lon="15.831450423244714"><ele>1112.0</ele><time>2026-04-25T10:42:15.999Z</time></trkpt><trkpt lat="38.071174006793775" lon="15.831456732333363"><ele>1112.0</ele><time>2026-04-25T10:42:16.999Z</time></trkpt><trkpt lat="38.07109185568761" lon="15.83147955941816"><ele>1112.0</ele><time>2026-04-25T10:42:17.999Z</time></trkpt><trkpt lat="38.07102984984477" lon="15.831578164881336"><ele>1112.0</ele><time>2026-04-25T10:42:18.999Z</time></trkpt><trkpt lat="38.070961825848606" lon="15.831654426302268"><ele>1112.0</ele><time>2026-04-25T10:42:19.999Z</time></trkpt><trkpt lat="38.07087450405686" lon="15.831741684845642"><ele>1112.0</ele><time>2026-04-25T10:42:20.999Z</time></trkpt><trkpt lat="38.07078589142502" lon="15.831871443232622"><ele>1112.0</ele><time>2026-04-25T10:42:21.999Z</time></trkpt><trkpt lat="38.07067893557023" lon="15.831982156166283"><ele>1107.0</ele><time>2026-04-25T10:42:22.999Z</time></trkpt><trkpt lat="38.07059877938305" lon="15.832099543691847"><ele>1102.0</ele><time>2026-04-25T10:42:23.999Z</time></trkpt><trkpt lat="38.07049921900202" lon="15.832159212157535"><ele>1097.0</ele><time>2026-04-25T10:42:24.999Z</time></trkpt><trkpt lat="38.07044172235221" lon="15.832235397949608"><ele>1092.0</ele><time>2026-04-25T10:42:25.999Z</time></trkpt><trkpt lat="38.07040100029506" lon="15.832328257674392"><ele>1087.0</ele><time>2026-04-25T10:42:27.999Z</time></trkpt><trkpt lat="38.0704973310434" lon="15.832383945682611"><ele>1087.0</ele><time>2026-04-25T10:42:29.999Z</time></trkpt><trkpt lat="38.07059124000514" lon="15.83240624168348"><ele>1087.0</ele><time>2026-04-25T10:42:30.999Z</time></trkpt><trkpt lat="38.07067732146664" lon="15.832465832029774"><ele>1087.0</ele><time>2026-04-25T10:42:31.999Z</time></trkpt><trkpt lat="38.070755431654256" lon="15.832523360665032"><ele>1087.0</ele><time>2026-04-25T10:42:32.999Z</time></trkpt><trkpt lat="38.07081362148661" lon="15.832576215005426"><ele>1087.0</ele><time>2026-04-25T10:42:33.999Z</time></trkpt><trkpt lat="38.07088839757366" lon="15.832580572301454"><ele>1087.0</ele><time>2026-04-25T10:42:34.999Z</time></trkpt><trkpt lat="38.070905242484905" lon="15.832680430908935"><ele>1087.0</ele><time>2026-04-25T10:42:36.999Z</time></trkpt><trkpt lat="38.07082196921223" lon="15.832718073787488"><ele>1087.0</ele><time>2026-04-25T10:42:38.999Z</time></trkpt><trkpt lat="38.070704602745266" lon="15.832634038617492"><ele>1087.0</ele><time>2026-04-25T10:42:40.999Z</time></trkpt><trkpt lat="38.07061521612426" lon="15.832658184285508"><ele>1087.0</ele><time>2026-04-25T10:42:42.999Z</time></trkpt><trkpt lat="38.07059498173393" lon="15.832748592332488"><ele>1087.0</ele><time>2026-04-25T10:42:43.999Z</time></trkpt><trkpt lat="38.07063071695707" lon="15.832832949891856"><ele>1081.5</ele><time>2026-04-25T10:42:44.999Z</time></trkpt><trkpt lat="38.07073769607687" lon="15.832839186561092"><ele>1076.0</ele><time>2026-04-25T10:42:45.999Z</time></trkpt><trkpt lat="38.07079864932484" lon="15.832864292036922"><ele>1070.5</ele><time>2026-04-25T10:42:46.999Z</time></trkpt><trkpt lat="38.07078982002715" lon="15.832946823813927"><ele>1065.0</ele><time>2026-04-25T10:42:48.999Z</time></trkpt><trkpt lat="38.07067744381417" lon="15.832900210954238"><ele>1059.5</ele><time>2026-04-25T10:42:50.999Z</time></trkpt><trkpt lat="38.07058635252368" lon="15.832889112483354"><ele>1054.0</ele><time>2026-04-25T10:42:51.999Z</time></trkpt><trkpt lat="38.07050707318911" lon="15.832865947904818"><ele>1053.0</ele><time>2026-04-25T10:42:52.999Z</time></trkpt><trkpt lat="38.07044692229793" lon="15.832828064547568"><ele>1052.0</ele><time>2026-04-25T10:42:53.999Z</time></trkpt><trkpt lat="38.07037409498751" lon="15.832811322748979"><ele>1051.0</ele><time>2026-04-25T10:42:54.999Z</time></trkpt><trkpt lat="38.070297131164324" lon="15.832841931913089"><ele>1050.0</ele><time>2026-04-25T10:42:55.999Z</time></trkpt><trkpt lat="38.07023291204955" lon="15.83286484180123"><ele>1049.0</ele><time>2026-04-25T10:42:56.999Z</time></trkpt><trkpt lat="38.070095564942285" lon="15.832905141005831"><ele>1048.0</ele><time>2026-04-25T10:42:58.999Z</time></trkpt><trkpt lat="38.07001237559904" lon="15.832956488521951"><ele>1050.8</ele><time>2026-04-25T10:42:59.999Z</time></trkpt><trkpt lat="38.06991690622751" lon="15.83299969898635"><ele>1053.6</ele><time>2026-04-25T10:43:00.999Z</time></trkpt><trkpt lat="38.06982752706194" lon="15.833023332032964"><ele>1056.4</ele><time>2026-04-25T10:43:01.999Z</time></trkpt><trkpt lat="38.06973979114652" lon="15.833072224811952"><ele>1059.2</ele><time>2026-04-25T10:43:02.999Z</time></trkpt><trkpt lat="38.069655488416736" lon="15.833122281415495"><ele>1062.0</ele><time>2026-04-25T10:43:03.999Z</time></trkpt><trkpt lat="38.069571208081186" lon="15.83317450787263"><ele>1062.0</ele><time>2026-04-25T10:43:04.999Z</time></trkpt><trkpt lat="38.069508287630455" lon="15.833241010311417"><ele>1062.0</ele><time>2026-04-25T10:43:05.999Z</time></trkpt><trkpt lat="38.069434030294246" lon="15.833273397223559"><ele>1062.0</ele><time>2026-04-25T10:43:06.999Z</time></trkpt><trkpt lat="38.06937266439934" lon="15.833293546659071"><ele>1062.0</ele><time>2026-04-25T10:43:07.999Z</time></trkpt><trkpt lat="38.069246381596436" lon="15.833322934898709"><ele>1062.0</ele><time>2026-04-25T10:43:09.999Z</time></trkpt><trkpt lat="38.069137298146586" lon="15.833399394406104"><ele>1057.0</ele><time>2026-04-25T10:43:11.999Z</time></trkpt><trkpt lat="38.069028841029464" lon="15.833508840065523"><ele>1052.0</ele><time>2026-04-25T10:43:13.999Z</time></trkpt><trkpt lat="38.06897589116605" lon="15.833615035678452"><ele>1047.0</ele><time>2026-04-25T10:43:14.999Z</time></trkpt><trkpt lat="38.06884687418749" lon="15.83365900418133"><ele>1042.0</ele><time>2026-04-25T10:43:15.999Z</time></trkpt><trkpt lat="38.06876064921266" lon="15.83374094563188"><ele>1042.0</ele><time>2026-04-25T10:43:16.999Z</time></trkpt><trkpt lat="38.06868962528969" lon="15.83383897902515"><ele>1042.0</ele><time>2026-04-25T10:43:17.999Z</time></trkpt><trkpt lat="38.068640368613636" lon="15.833920025488952"><ele>1042.0</ele><time>2026-04-25T10:43:18.999Z</time></trkpt><trkpt lat="38.06860175874275" lon="15.834009669951886"><ele>1042.0</ele><time>2026-04-25T10:43:19.999Z</time></trkpt><trkpt lat="38.06855860422834" lon="15.834088469123262"><ele>1042.0</ele><time>2026-04-25T10:43:20.999Z</time></trkpt><trkpt lat="38.06851621499159" lon="15.834170204583122"><ele>1042.0</ele><time>2026-04-25T10:43:21.999Z</time></trkpt><trkpt lat="38.068469036766935" lon="15.834267895282093"><ele>1037.8333333333333</ele><time>2026-04-25T10:43:22.999Z</time></trkpt><trkpt lat="38.06843315080921" lon="15.83437270177818"><ele>1033.6666666666665</ele><time>2026-04-25T10:43:23.999Z</time></trkpt><trkpt lat="38.06838868337938" lon="15.834462633361998"><ele>1029.5</ele><time>2026-04-25T10:43:24.999Z</time></trkpt><trkpt lat="38.06835125335025" lon="15.83454723404309"><ele>1025.3333333333333</ele><time>2026-04-25T10:43:25.999Z</time></trkpt><trkpt lat="38.06830790306453" lon="15.834632061495022"><ele>1021.1666666666666</ele><time>2026-04-25T10:43:26.999Z</time></trkpt><trkpt lat="38.068244823357965" lon="15.834713496001887"><ele>1017.0</ele><time>2026-04-25T10:43:27.999Z</time></trkpt><trkpt lat="38.06817968799616" lon="15.834775116849952"><ele>1014.6666666666666</ele><time>2026-04-25T10:43:28.999Z</time></trkpt><trkpt lat="38.06811597757559" lon="15.83483299859317"><ele>1012.3333333333333</ele><time>2026-04-25T10:43:29.999Z</time></trkpt><trkpt lat="38.06806108997392" lon="15.834883698512389"><ele>1010.0</ele><time>2026-04-25T10:43:30.999Z</time></trkpt><trkpt lat="38.06795909423079" lon="15.83490160569332"><ele>1007.6666666666666</ele><time>2026-04-25T10:43:32.999Z</time></trkpt><trkpt lat="38.06788936475332" lon="15.834879653905993"><ele>1005.3333333333333</ele><time>2026-04-25T10:43:33.999Z</time></trkpt><trkpt lat="38.067824907792904" lon="15.834829968931668"><ele>1003.0</ele><time>2026-04-25T10:43:34.999Z</time></trkpt><trkpt lat="38.06773117188495" lon="15.834710181064745"><ele>1002.9999999999999</ele><time>2026-04-25T10:43:36.999Z</time></trkpt><trkpt lat="38.06768210198276" lon="15.8346067504183"><ele>1003.0</ele><time>2026-04-25T10:43:37.999Z</time></trkpt><trkpt lat="38.067636927638596" lon="15.834520211989165"><ele>1003.0</ele><time>2026-04-25T10:43:38.999Z</time></trkpt><trkpt lat="38.06758955410919" lon="15.834441733759952"><ele>1003.0</ele><time>2026-04-25T10:43:39.999Z</time></trkpt><trkpt lat="38.06754288925654" lon="15.834348157843515"><ele>1002.9999999999999</ele><time>2026-04-25T10:43:41.999Z</time></trkpt><trkpt lat="38.06748117573323" lon="15.834421179496669"><ele>1003.0</ele><time>2026-04-25T10:43:44.999Z</time></trkpt><trkpt lat="38.06748440092698" lon="15.834588008218324"><ele>1002.9999999999999</ele><time>2026-04-25T10:43:46.999Z</time></trkpt><trkpt lat="38.06750465451825" lon="15.834676512884036"><ele>1003.0</ele><time>2026-04-25T10:43:47.999Z</time></trkpt><trkpt lat="38.06751706969938" lon="15.83475965910952"><ele>1003.0</ele><time>2026-04-25T10:43:48.999Z</time></trkpt><trkpt lat="38.06752978559056" lon="15.834841648327728"><ele>1003.0</ele><time>2026-04-25T10:43:49.999Z</time></trkpt><trkpt lat="38.06755059029237" lon="15.834931311694644"><ele>1002.9999999999999</ele><time>2026-04-25T10:43:50.999Z</time></trkpt><trkpt lat="38.0675888225585" lon="15.835044010396517"><ele>1003.0</ele><time>2026-04-25T10:43:51.999Z</time></trkpt><trkpt lat="38.0676410078737" lon="15.835119604879544"><ele>997.9999999999999</ele><time>2026-04-25T10:43:52.999Z</time></trkpt><trkpt lat="38.06770305458279" lon="15.835172186917529"><ele>993.0</ele><time>2026-04-25T10:43:53.999Z</time></trkpt><trkpt lat="38.06776612638367" lon="15.835215571421843"><ele>988.0</ele><time>2026-04-25T10:43:54.999Z</time></trkpt><trkpt lat="38.06785680856517" lon="15.835296188258937"><ele>983.0</ele><time>2026-04-25T10:43:56.999Z</time></trkpt><trkpt lat="38.06786992518308" lon="15.835380321621743"><ele>977.9999999999999</ele><time>2026-04-25T10:43:59.999Z</time></trkpt><trkpt lat="38.06779944042852" lon="15.835407896416028"><ele>973.0</ele><time>2026-04-25T10:44:01.998Z</time></trkpt><trkpt lat="38.06774332248106" lon="15.835367310714034"><ele>972.9999999999999</ele><time>2026-04-25T10:44:02.998Z</time></trkpt><trkpt lat="38.067696549776066" lon="15.83529443893094"><ele>973.0</ele><time>2026-04-25T10:44:03.998Z</time></trkpt><trkpt lat="38.06762780632848" lon="15.835223420496174"><ele>973.0</ele><time>2026-04-25T10:44:04.998Z</time></trkpt><trkpt lat="38.06756059581736" lon="15.835171552160096"><ele>973.0</ele><time>2026-04-25T10:44:05.998Z</time></trkpt><trkpt lat="38.06749473489696" lon="15.835111403061449"><ele>972.9999999999999</ele><time>2026-04-25T10:44:06.998Z</time></trkpt><trkpt lat="38.067431775913" lon="15.835049449067405"><ele>973.0</ele><time>2026-04-25T10:44:07.998Z</time></trkpt><trkpt lat="38.06737074483596" lon="15.834984014490315"><ele>970.3333333333333</ele><time>2026-04-25T10:44:08.998Z</time></trkpt><trkpt lat="38.06732009437154" lon="15.834935762195231"><ele>967.6666666666666</ele><time>2026-04-25T10:44:09.998Z</time></trkpt><trkpt lat="38.06728448567225" lon="15.834864985131423"><ele>965.0</ele><time>2026-04-25T10:44:10.998Z</time></trkpt><trkpt lat="38.0672324397385" lon="15.834767595713632"><ele>962.3333333333333</ele><time>2026-04-25T10:44:12.998Z</time></trkpt><trkpt lat="38.067156366399985" lon="15.83482591672657"><ele>959.6666666666666</ele><time>2026-04-25T10:44:16.998Z</time></trkpt><trkpt lat="38.06719467647702" lon="15.834935512609732"><ele>957.0</ele><time>2026-04-25T10:44:18.998Z</time></trkpt><trkpt lat="38.06725086239869" lon="15.83500841262686"><ele>957.0</ele><time>2026-04-25T10:44:19.999Z</time></trkpt><trkpt lat="38.06733180096053" lon="15.835111453082474"><ele>957.0</ele><time>2026-04-25T10:44:20.999Z</time></trkpt><trkpt lat="38.06741471273683" lon="15.835223870582071"><ele>957.0</ele><time>2026-04-25T10:44:21.999Z</time></trkpt><trkpt lat="38.0674812531357" lon="15.835324953130472"><ele>957.0</ele><time>2026-04-25T10:44:22.999Z</time></trkpt><trkpt lat="38.067535263935916" lon="15.83540694933255"><ele>957.0</ele><time>2026-04-25T10:44:23.999Z</time></trkpt><trkpt lat="38.067575386831635" lon="15.835481374591225"><ele>959.6666666666666</ele><time>2026-04-25T10:44:24.999Z</time></trkpt><trkpt lat="38.067609923801015" lon="15.83557478514708"><ele>962.3333333333333</ele><time>2026-04-25T10:44:25.999Z</time></trkpt><trkpt lat="38.06763571782192" lon="15.83566934333244"><ele>965.0</ele><time>2026-04-25T10:44:26.999Z</time></trkpt><trkpt lat="38.06766234226909" lon="15.835756795027148"><ele>967.6666666666666</ele><time>2026-04-25T10:44:27.999Z</time></trkpt><trkpt lat="38.06772654127555" lon="15.835841721408734"><ele>970.3333333333333</ele><time>2026-04-25T10:44:29.999Z</time></trkpt><trkpt lat="38.06782477850174" lon="15.835868062951075"><ele>973.0</ele><time>2026-04-25T10:44:31.999Z</time></trkpt><trkpt lat="38.067815261930605" lon="15.835973707834318"><ele>972.9999999999999</ele><time>2026-04-25T10:44:35.999Z</time></trkpt><trkpt lat="38.0677144821577" lon="15.83595476664467"><ele>973.0</ele><time>2026-04-25T10:44:37.999Z</time></trkpt><trkpt lat="38.067643823735395" lon="15.835900533006205"><ele>973.0</ele><time>2026-04-25T10:44:38.999Z</time></trkpt><trkpt lat="38.06758454318389" lon="15.835863197772914"><ele>973.0</ele><time>2026-04-25T10:44:39.999Z</time></trkpt><trkpt lat="38.06752411591298" lon="15.835821889844317"><ele>972.9999999999999</ele><time>2026-04-25T10:44:40.999Z</time></trkpt><trkpt lat="38.06747244266073" lon="15.835766394340343"><ele>973.0</ele><time>2026-04-25T10:44:41.999Z</time></trkpt><trkpt lat="38.0674299513255" lon="15.835687792632337"><ele>966.4</ele><time>2026-04-25T10:44:42.999Z</time></trkpt><trkpt lat="38.06738097882418" lon="15.835591740316522"><ele>959.8</ele><time>2026-04-25T10:44:43.999Z</time></trkpt><trkpt lat="38.06731891913517" lon="15.835487906075208"><ele>953.2</ele><time>2026-04-25T10:44:44.999Z</time></trkpt><trkpt lat="38.06723196011305" lon="15.835386559876037"><ele>946.6</ele><time>2026-04-25T10:44:45.999Z</time></trkpt><trkpt lat="38.06713682915675" lon="15.835297050520973"><ele>940.0</ele><time>2026-04-25T10:44:46.999Z</time></trkpt><trkpt lat="38.06706203686131" lon="15.835260017707952"><ele>939.9999999999999</ele><time>2026-04-25T10:44:47.999Z</time></trkpt><trkpt lat="38.06698181677885" lon="15.835229216095263"><ele>940.0</ele><time>2026-04-25T10:44:48.999Z</time></trkpt><trkpt lat="38.066891220861265" lon="15.83522268597695"><ele>940.0</ele><time>2026-04-25T10:44:49.999Z</time></trkpt><trkpt lat="38.06681875030298" lon="15.835203331693195"><ele>940.0</ele><time>2026-04-25T10:44:50.999Z</time></trkpt><trkpt lat="38.066762218593425" lon="15.835155971630607"><ele>939.9999999999999</ele><time>2026-04-25T10:44:51.999Z</time></trkpt><trkpt lat="38.066714086417704" lon="15.835027047054876"><ele>940.0</ele><time>2026-04-25T10:44:53.999Z</time></trkpt><trkpt lat="38.06670233811185" lon="15.834946373542216"><ele>942.8333333333333</ele><time>2026-04-25T10:44:54.999Z</time></trkpt><trkpt lat="38.066762688406705" lon="15.83479282262227"><ele>945.6666666666666</ele><time>2026-04-25T10:44:56.999Z</time></trkpt><trkpt lat="38.06680490940608" lon="15.834701706550021"><ele>948.5</ele><time>2026-04-25T10:44:57.999Z</time></trkpt><trkpt lat="38.06682671525771" lon="15.834598017025552"><ele>951.3333333333333</ele><time>2026-04-25T10:44:58.999Z</time></trkpt><trkpt lat="38.06683532717017" lon="15.8345077456617"><ele>954.1666666666666</ele><time>2026-04-25T10:44:59.999Z</time></trkpt><trkpt lat="38.06684138819735" lon="15.834424494591925"><ele>957.0</ele><time>2026-04-25T10:45:00.999Z</time></trkpt><trkpt lat="38.06684965950897" lon="15.834342524281324"><ele>957.0</ele><time>2026-04-25T10:45:01.999Z</time></trkpt><trkpt lat="38.066823163200034" lon="15.834244206504673"><ele>957.0</ele><time>2026-04-25T10:45:04.999Z</time></trkpt><trkpt lat="38.066764212326476" lon="15.834278600349338"><ele>957.0</ele><time>2026-04-25T10:45:06.999Z</time></trkpt><trkpt lat="38.066725574152734" lon="15.834463477570532"><ele>957.0</ele><time>2026-04-25T10:45:08.999Z</time></trkpt><trkpt lat="38.06668616232237" lon="15.834591902842478"><ele>957.0</ele><time>2026-04-25T10:45:09.999Z</time></trkpt><trkpt lat="38.06662804864061" lon="15.834702116039628"><ele>954.1666666666666</ele><time>2026-04-25T10:45:10.999Z</time></trkpt><trkpt lat="38.0665795102619" lon="15.834784911282336"><ele>951.3333333333333</ele><time>2026-04-25T10:45:11.999Z</time></trkpt><trkpt lat="38.06652780851355" lon="15.834899337576356"><ele>948.5</ele><time>2026-04-25T10:45:13.999Z</time></trkpt><trkpt lat="38.066531951424146" lon="15.835008371004974"><ele>945.6666666666666</ele><time>2026-04-25T10:45:15.999Z</time></trkpt><trkpt lat="38.066554529114086" lon="15.835090968077534"><ele>942.8333333333333</ele><time>2026-04-25T10:45:16.999Z</time></trkpt><trkpt lat="38.06658914134745" lon="15.835184331516826"><ele>940.0</ele><time>2026-04-25T10:45:17.999Z</time></trkpt><trkpt lat="38.06662769477536" lon="15.835299696513"><ele>939.9999999999999</ele><time>2026-04-25T10:45:18.999Z</time></trkpt><trkpt lat="38.06666688124809" lon="15.835371245870457"><ele>940.0</ele><time>2026-04-25T10:45:19.999Z</time></trkpt><trkpt lat="38.06677162557206" lon="15.835439471023069"><ele>940.0</ele><time>2026-04-25T10:45:21.999Z</time></trkpt><trkpt lat="38.06684916263741" lon="15.835464027674329"><ele>940.0</ele><time>2026-04-25T10:45:22.999Z</time></trkpt><trkpt lat="38.066941538247434" lon="15.835499310453063"><ele>939.9999999999999</ele><time>2026-04-25T10:45:23.999Z</time></trkpt><trkpt lat="38.06701467021326" lon="15.835541203864736"><ele>940.0</ele><time>2026-04-25T10:45:24.999Z</time></trkpt><trkpt lat="38.06707426675215" lon="15.835605366869817"><ele>939.9999999999999</ele><time>2026-04-25T10:45:25.999Z</time></trkpt><trkpt lat="38.06712845979634" lon="15.835701116107787"><ele>940.0</ele><time>2026-04-25T10:45:26.999Z</time></trkpt><trkpt lat="38.06716347763951" lon="15.835785360804582"><ele>940.0</ele><time>2026-04-25T10:45:27.999Z</time></trkpt><trkpt lat="38.067184561217054" lon="15.835882473450916"><ele>940.0</ele><time>2026-04-25T10:45:28.999Z</time></trkpt><trkpt lat="38.06720590913777" lon="15.835998044368452"><ele>939.9999999999999</ele><time>2026-04-25T10:45:29.999Z</time></trkpt><trkpt lat="38.067232853499746" lon="15.836087795636931"><ele>940.0</ele><time>2026-04-25T10:45:30.999Z</time></trkpt><trkpt lat="38.0672755606417" lon="15.836159810783936"><ele>937.4999999999999</ele><time>2026-04-25T10:45:31.999Z</time></trkpt><trkpt lat="38.06732390673369" lon="15.836232503395422"><ele>935.0</ele><time>2026-04-25T10:45:32.999Z</time></trkpt><trkpt lat="38.06743675911892" lon="15.836304850247695"><ele>932.5</ele><time>2026-04-25T10:45:34.999Z</time></trkpt><trkpt lat="38.06750838617227" lon="15.836318929288543"><ele>930.0</ele><time>2026-04-25T10:45:35.999Z</time></trkpt><trkpt lat="38.067586463001625" lon="15.83632099652683"><ele>927.4999999999999</ele><time>2026-04-25T10:45:36.999Z</time></trkpt><trkpt lat="38.06765739651686" lon="15.836336227271685"><ele>925.0</ele><time>2026-04-25T10:45:37.999Z</time></trkpt><trkpt lat="38.067753715316435" lon="15.836459970858067"><ele>924.9999999999999</ele><time>2026-04-25T10:45:39.999Z</time></trkpt><trkpt lat="38.067800381061744" lon="15.836526344170371"><ele>925.0</ele><time>2026-04-25T10:45:40.999Z</time></trkpt><trkpt lat="38.06788448441303" lon="15.83652134825828"><ele>925.0</ele><time>2026-04-25T10:45:42.999Z</time></trkpt><trkpt lat="38.0679531602296" lon="15.836479411179015"><ele>925.0</ele><time>2026-04-25T10:45:43.999Z</time></trkpt><trkpt lat="38.06805463698364" lon="15.83643550681451"><ele>924.9999999999999</ele><time>2026-04-25T10:45:44.999Z</time></trkpt><trkpt lat="38.06814485836572" lon="15.836422663988307"><ele>925.0</ele><time>2026-04-25T10:45:45.999Z</time></trkpt><trkpt lat="38.06821367506354" lon="15.836427928949858"><ele>925.4</ele><time>2026-04-25T10:45:46.999Z</time></trkpt><trkpt lat="38.0682780669012" lon="15.83642009077664"><ele>925.8</ele><time>2026-04-25T10:45:47.999Z</time></trkpt><trkpt lat="38.06841643188221" lon="15.836317944487899"><ele>926.2</ele><time>2026-04-25T10:45:49.999Z</time></trkpt><trkpt lat="38.06850462559268" lon="15.836247687561942"><ele>926.6</ele><time>2026-04-25T10:45:50.999Z</time></trkpt><trkpt lat="38.068572680908716" lon="15.836186769845039"><ele>927.0</ele><time>2026-04-25T10:45:51.999Z</time></trkpt><trkpt lat="38.06864029281604" lon="15.836135502376491"><ele>927.0</ele><time>2026-04-25T10:45:52.999Z</time></trkpt><trkpt lat="38.068686352745736" lon="15.83606217658477"><ele>927.0</ele><time>2026-04-25T10:45:53.999Z</time></trkpt><trkpt lat="38.068727689261834" lon="15.835990775022156"><ele>927.0</ele><time>2026-04-25T10:45:54.999Z</time></trkpt><trkpt lat="38.06876927402863" lon="15.83593000385178"><ele>927.0</ele><time>2026-04-25T10:45:55.999Z</time></trkpt><trkpt lat="38.06884295328563" lon="15.835874074427158"><ele>927.0</ele><time>2026-04-25T10:45:57.999Z</time></trkpt><trkpt lat="38.06894576822603" lon="15.835923191833823"><ele>927.0</ele><time>2026-04-25T10:45:59.999Z</time></trkpt><trkpt lat="38.06898861223457" lon="15.836000898288717"><ele>927.0</ele><time>2026-04-25T10:46:00.999Z</time></trkpt><trkpt lat="38.0690227463288" lon="15.836085448360155"><ele>927.0</ele><time>2026-04-25T10:46:01.999Z</time></trkpt><trkpt lat="38.069140345982404" lon="15.836174242289585"><ele>927.0</ele><time>2026-04-25T10:46:03.999Z</time></trkpt><trkpt lat="38.069226358866885" lon="15.836227737098403"><ele>927.0</ele><time>2026-04-25T10:46:04.999Z</time></trkpt><trkpt lat="38.069290942662114" lon="15.836253925321948"><ele>927.0</ele><time>2026-04-25T10:46:05.999Z</time></trkpt><trkpt lat="38.06940593647959" lon="15.836275054979769"><ele>925.6666666666666</ele><time>2026-04-25T10:46:07.999Z</time></trkpt><trkpt lat="38.069501245039284" lon="15.836205627428328"><ele>924.3333333333333</ele><time>2026-04-25T10:46:09.999Z</time></trkpt><trkpt lat="38.06958792726939" lon="15.836109747863809"><ele>923.0</ele><time>2026-04-25T10:46:11.999Z</time></trkpt><trkpt lat="38.06964960691908" lon="15.836087145805054"><ele>921.6666666666666</ele><time>2026-04-25T10:46:12.999Z</time></trkpt><trkpt lat="38.06971922703863" lon="15.83608250077873"><ele>920.3333333333333</ele><time>2026-04-25T10:46:13.999Z</time></trkpt><trkpt lat="38.06978785802797" lon="15.83609096639882"><ele>919.0</ele><time>2026-04-25T10:46:14.999Z</time></trkpt><trkpt lat="38.06986206781324" lon="15.836103525821445"><ele>918.9999999999999</ele><time>2026-04-25T10:46:15.999Z</time></trkpt><trkpt lat="38.06993103191426" lon="15.836119881218819"><ele>919.0</ele><time>2026-04-25T10:46:16.998Z</time></trkpt><trkpt lat="38.069991964301124" lon="15.836143684420456"><ele>919.0</ele><time>2026-04-25T10:46:17.998Z</time></trkpt><trkpt lat="38.070100681382456" lon="15.836224593675086"><ele>919.0</ele><time>2026-04-25T10:46:19.998Z</time></trkpt><trkpt lat="38.070201757595875" lon="15.836310645732448"><ele>918.9999999999999</ele><time>2026-04-25T10:46:21.998Z</time></trkpt><trkpt lat="38.07025381734836" lon="15.836357844705446"><ele>919.0</ele><time>2026-04-25T10:46:22.998Z</time></trkpt><trkpt lat="38.07031416299293" lon="15.836394191036792"><ele>919.1666666666666</ele><time>2026-04-25T10:46:23.998Z</time></trkpt><trkpt lat="38.070373586237075" lon="15.836434961690589"><ele>919.3333333333333</ele><time>2026-04-25T10:46:24.998Z</time></trkpt><trkpt lat="38.070441873222535" lon="15.836566047103087"><ele>919.5</ele><time>2026-04-25T10:46:26.999Z</time></trkpt><trkpt lat="38.07047457490703" lon="15.836642397587065"><ele>919.6666666666667</ele><time>2026-04-25T10:46:27.999Z</time></trkpt><trkpt lat="38.07049386116472" lon="15.836728476633665"><ele>919.8333333333334</ele><time>2026-04-25T10:46:28.999Z</time></trkpt><trkpt lat="38.07050764722123" lon="15.836808000006991"><ele>920.0</ele><time>2026-04-25T10:46:29.999Z</time></trkpt><trkpt lat="38.07057218109122" lon="15.836898721336128"><ele>920.8333333333334</ele><time>2026-04-25T10:46:31.999Z</time></trkpt><trkpt lat="38.070640828089566" lon="15.836941909233355"><ele>921.6666666666667</ele><time>2026-04-25T10:46:32.999Z</time></trkpt><trkpt lat="38.07071831715094" lon="15.836993905551756"><ele>922.5</ele><time>2026-04-25T10:46:33.999Z</time></trkpt><trkpt lat="38.07079272661782" lon="15.837035705556795"><ele>923.3333333333333</ele><time>2026-04-25T10:46:34.999Z</time></trkpt><trkpt lat="38.070851876259496" lon="15.837082970327726"><ele>924.1666666666666</ele><time>2026-04-25T10:46:35.999Z</time></trkpt><trkpt lat="38.07089448650382" lon="15.837148099222027"><ele>925.0</ele><time>2026-04-25T10:46:36.999Z</time></trkpt><trkpt lat="38.07095840539974" lon="15.837228720048863"><ele>925.0</ele><time>2026-04-25T10:46:38.999Z</time></trkpt><trkpt lat="38.07102856422858" lon="15.837230185773656"><ele>925.0</ele><time>2026-04-25T10:46:41.999Z</time></trkpt><trkpt lat="38.07102162758169" lon="15.8373330420846"><ele>925.0</ele><time>2026-04-25T10:46:45.999Z</time></trkpt><trkpt lat="38.070908257464325" lon="15.83742491089384"><ele>925.0</ele><time>2026-04-25T10:46:47.999Z</time></trkpt><trkpt lat="38.07080097465049" lon="15.837452264899671"><ele>925.0</ele><time>2026-04-25T10:46:49.999Z</time></trkpt><trkpt lat="38.07074194563683" lon="15.837420887795044"><ele>924.9999999999999</ele><time>2026-04-25T10:46:51.999Z</time></trkpt><trkpt lat="38.070658436635256" lon="15.837353424100687"><ele>925.0</ele><time>2026-04-25T10:46:53.999Z</time></trkpt><trkpt lat="38.07057762359202" lon="15.837320856520934"><ele>925.0</ele><time>2026-04-25T10:46:54.999Z</time></trkpt><trkpt lat="38.07050670167084" lon="15.837301419849613"><ele>925.0</ele><time>2026-04-25T10:46:55.999Z</time></trkpt><trkpt lat="38.07041636911692" lon="15.83727686642845"><ele>924.9999999999999</ele><time>2026-04-25T10:46:56.999Z</time></trkpt><trkpt lat="38.07032285821082" lon="15.837262556838423"><ele>925.0</ele><time>2026-04-25T10:46:57.999Z</time></trkpt><trkpt lat="38.07022945540546" lon="15.837251224189933"><ele>925.0</ele><time>2026-04-25T10:46:58.999Z</time></trkpt><trkpt lat="38.07014963031519" lon="15.837195343881534"><ele>925.0</ele><time>2026-04-25T10:46:59.999Z</time></trkpt><trkpt lat="38.07007270920255" lon="15.83713720743813"><ele>925.0</ele><time>2026-04-25T10:47:00.999Z</time></trkpt><trkpt lat="38.070006978745525" lon="15.837197163518962"><ele>925.0</ele><time>2026-04-25T10:47:02.999Z</time></trkpt><trkpt lat="38.06998660368221" lon="15.837348067414844"><ele>925.0</ele><time>2026-04-25T10:47:04.999Z</time></trkpt><trkpt lat="38.06995010945087" lon="15.83744184121313"><ele>923.25</ele><time>2026-04-25T10:47:05.999Z</time></trkpt><trkpt lat="38.06989838911514" lon="15.8375718758163"><ele>921.5</ele><time>2026-04-25T10:47:06.999Z</time></trkpt><trkpt lat="38.06984119654513" lon="15.837737335882025"><ele>919.75</ele><time>2026-04-25T10:47:07.999Z</time></trkpt><trkpt lat="38.06977796817036" lon="15.837888100256947"><ele>918.0</ele><time>2026-04-25T10:47:08.999Z</time></trkpt><trkpt lat="38.069726373378536" lon="15.837988573969167"><ele>918.0</ele><time>2026-04-25T10:47:09.999Z</time></trkpt><trkpt lat="38.06967858588106" lon="15.838057696365622"><ele>918.0</ele><time>2026-04-25T10:47:10.999Z</time></trkpt><trkpt lat="38.06960982907047" lon="15.838098030014232"><ele>918.0</ele><time>2026-04-25T10:47:11.999Z</time></trkpt><trkpt lat="38.069523234442286" lon="15.838144916607058"><ele>918.0</ele><time>2026-04-25T10:47:12.999Z</time></trkpt><trkpt lat="38.06947371356204" lon="15.838286283057814"><ele>918.0</ele><time>2026-04-25T10:47:14.999Z</time></trkpt><trkpt lat="38.06945324943506" lon="15.838409852562927"><ele>918.0</ele><time>2026-04-25T10:47:15.999Z</time></trkpt><trkpt lat="38.06939945018528" lon="15.838534146787232"><ele>918.0</ele><time>2026-04-25T10:47:16.999Z</time></trkpt><trkpt lat="38.06935832496635" lon="15.838630139880847"><ele>918.0</ele><time>2026-04-25T10:47:17.999Z</time></trkpt><trkpt lat="38.06931172011783" lon="15.838690430664913"><ele>918.0</ele><time>2026-04-25T10:47:19Z</time></trkpt><trkpt lat="38.069228741845556" lon="15.838727610341795"><ele>918.0</ele><time>2026-04-25T10:47:20Z</time></trkpt><trkpt lat="38.06914651888456" lon="15.83875744237804"><ele>918.0</ele><time>2026-04-25T10:47:21Z</time></trkpt><trkpt lat="38.06909951099559" lon="15.838897915393725"><ele>918.0</ele><time>2026-04-25T10:47:23Z</time></trkpt><trkpt lat="38.06902477545271" lon="15.839027804946301"><ele>918.0</ele><time>2026-04-25T10:47:25Z</time></trkpt><trkpt lat="38.068992269301475" lon="15.839200614275276"><ele>918.0</ele><time>2026-04-25T10:47:27Z</time></trkpt><trkpt lat="38.06897334383176" lon="15.839332874559338"><ele>918.0</ele><time>2026-04-25T10:47:28Z</time></trkpt><trkpt lat="38.06894391849398" lon="15.839460282993421"><ele>925.3333333333334</ele><time>2026-04-25T10:47:29Z</time></trkpt><trkpt lat="38.068933614871575" lon="15.839541130047289"><ele>932.6666666666667</ele><time>2026-04-25T10:47:30Z</time></trkpt><trkpt lat="38.06886904465798" lon="15.839600679268544"><ele>940.0</ele><time>2026-04-25T10:47:32Z</time></trkpt><trkpt lat="38.06877897981311" lon="15.839600469691838"><ele>947.3333333333334</ele><time>2026-04-25T10:47:34Z</time></trkpt><trkpt lat="38.06871471001241" lon="15.839562308245823"><ele>954.6666666666667</ele><time>2026-04-25T10:47:35Z</time></trkpt><trkpt lat="38.06863787685591" lon="15.839508820788323"><ele>962.0</ele><time>2026-04-25T10:47:36Z</time></trkpt><trkpt lat="38.06854486542544" lon="15.839463529094477"><ele>962.0000000000001</ele><time>2026-04-25T10:47:37Z</time></trkpt><trkpt lat="38.068474663490875" lon="15.839422232685301"><ele>962.0</ele><time>2026-04-25T10:47:38Z</time></trkpt><trkpt lat="38.06839245460188" lon="15.839359086115348"><ele>962.0</ele><time>2026-04-25T10:47:39Z</time></trkpt><trkpt lat="38.06832620546481" lon="15.839309569387057"><ele>962.0</ele><time>2026-04-25T10:47:40Z</time></trkpt><trkpt lat="38.068241515798825" lon="15.839258556526397"><ele>962.0000000000001</ele><time>2026-04-25T10:47:41Z</time></trkpt><trkpt lat="38.06815642306567" lon="15.839208139182206"><ele>962.0</ele><time>2026-04-25T10:47:42Z</time></trkpt><trkpt lat="38.06808030837666" lon="15.839172538786258"><ele>955.4000000000001</ele><time>2026-04-25T10:47:43Z</time></trkpt><trkpt lat="38.06801154300225" lon="15.839138777373375"><ele>948.8000000000001</ele><time>2026-04-25T10:47:44Z</time></trkpt><trkpt lat="38.06792941404471" lon="15.83909694060578"><ele>942.2</ele><time>2026-04-25T10:47:45Z</time></trkpt><trkpt lat="38.06784974711507" lon="15.839040718611464"><ele>935.6</ele><time>2026-04-25T10:47:46Z</time></trkpt><trkpt lat="38.06777283312956" lon="15.83897378056751"><ele>929.0</ele><time>2026-04-25T10:47:47Z</time></trkpt><trkpt lat="38.06768171544437" lon="15.838903342397314"><ele>929.0</ele><time>2026-04-25T10:47:48Z</time></trkpt><trkpt lat="38.06758140889781" lon="15.838850849318009"><ele>929.0000000000001</ele><time>2026-04-25T10:47:49Z</time></trkpt><trkpt lat="38.067486499120264" lon="15.838786318451762"><ele>929.0000000000001</ele><time>2026-04-25T10:47:50Z</time></trkpt><trkpt lat="38.06741098173811" lon="15.838707371338836"><ele>929.0</ele><time>2026-04-25T10:47:51Z</time></trkpt><trkpt lat="38.06735650747122" lon="15.838605683820774"><ele>929.0</ele><time>2026-04-25T10:47:52Z</time></trkpt><trkpt lat="38.06731271696259" lon="15.838528932255064"><ele>931.3333333333334</ele><time>2026-04-25T10:47:53Z</time></trkpt><trkpt lat="38.06725619380974" lon="15.838483578656653"><ele>933.6666666666667</ele><time>2026-04-25T10:47:54Z</time></trkpt><trkpt lat="38.06717248360229" lon="15.838474105021938"><ele>936.0</ele><time>2026-04-25T10:47:55Z</time></trkpt><trkpt lat="38.06708048011643" lon="15.838434544850791"><ele>938.3333333333333</ele><time>2026-04-25T10:47:56Z</time></trkpt><trkpt lat="38.067018739544544" lon="15.838377340632828"><ele>940.6666666666666</ele><time>2026-04-25T10:47:57Z</time></trkpt><trkpt lat="38.06698136824349" lon="15.838292891759824"><ele>943.0</ele><time>2026-04-25T10:47:58Z</time></trkpt><trkpt lat="38.066907758620154" lon="15.838227539582705"><ele>934.4</ele><time>2026-04-25T10:48:00Z</time></trkpt><trkpt lat="38.06677805675796" lon="15.838282379222736"><ele>925.8</ele><time>2026-04-25T10:48:02Z</time></trkpt><trkpt lat="38.06670871492244" lon="15.83832387210085"><ele>917.2</ele><time>2026-04-25T10:48:03Z</time></trkpt><trkpt lat="38.06663007896458" lon="15.838355046906946"><ele>908.6</ele><time>2026-04-25T10:48:04Z</time></trkpt><trkpt lat="38.06651996806527" lon="15.838378427118748"><ele>900.0</ele><time>2026-04-25T10:48:05Z</time></trkpt><trkpt lat="38.06643494316352" lon="15.838361837603568"><ele>900.0</ele><time>2026-04-25T10:48:06Z</time></trkpt><trkpt lat="38.06634800290235" lon="15.83832390522001"><ele>900.0</ele><time>2026-04-25T10:48:07Z</time></trkpt><trkpt lat="38.066260279561014" lon="15.83825756144426"><ele>900.0</ele><time>2026-04-25T10:48:08Z</time></trkpt><trkpt lat="38.066158931756185" lon="15.838174828837195"><ele>900.0</ele><time>2026-04-25T10:48:09Z</time></trkpt><trkpt lat="38.06604929321654" lon="15.838057063607177"><ele>900.0</ele><time>2026-04-25T10:48:10Z</time></trkpt><trkpt lat="38.065947270439835" lon="15.837942293133233"><ele>900.0</ele><time>2026-04-25T10:48:11Z</time></trkpt><trkpt lat="38.065874985496855" lon="15.837870535776688"><ele>900.0</ele><time>2026-04-25T10:48:12Z</time></trkpt><trkpt lat="38.06581451054878" lon="15.837827993068373"><ele>900.0</ele><time>2026-04-25T10:48:13Z</time></trkpt><trkpt lat="38.06572256556873" lon="15.837874288681554"><ele>900.0</ele><time>2026-04-25T10:48:15Z</time></trkpt><trkpt lat="38.06566055634431" lon="15.837949062910406"><ele>899.0</ele><time>2026-04-25T10:48:16Z</time></trkpt><trkpt lat="38.065599820851865" lon="15.838019780441126"><ele>898.0</ele><time>2026-04-25T10:48:17Z</time></trkpt><trkpt lat="38.065552062333154" lon="15.83807865496895"><ele>897.0</ele><time>2026-04-25T10:48:18Z</time></trkpt><trkpt lat="38.06550625038063" lon="15.838266953649608"><ele>896.0</ele><time>2026-04-25T10:48:19.999Z</time></trkpt><trkpt lat="38.065484434221545" lon="15.838407779099054"><ele>895.0</ele><time>2026-04-25T10:48:20.999Z</time></trkpt><trkpt lat="38.06545838979383" lon="15.838503685808305"><ele>894.9999999999999</ele><time>2026-04-25T10:48:21.999Z</time></trkpt><trkpt lat="38.065367100761016" lon="15.83856802420285"><ele>895.0</ele><time>2026-04-25T10:48:23.999Z</time></trkpt><trkpt lat="38.065302044521474" lon="15.838558467514677"><ele>895.0</ele><time>2026-04-25T10:48:24.999Z</time></trkpt><trkpt lat="38.065237502873366" lon="15.838532447424209"><ele>895.0</ele><time>2026-04-25T10:48:25.999Z</time></trkpt><trkpt lat="38.06516491921362" lon="15.838474050131458"><ele>894.9999999999999</ele><time>2026-04-25T10:48:26.999Z</time></trkpt><trkpt lat="38.06512097890548" lon="15.83837600159575"><ele>895.0</ele><time>2026-04-25T10:48:27.999Z</time></trkpt><trkpt lat="38.06508685443437" lon="15.838261596687829"><ele>894.9999999999999</ele><time>2026-04-25T10:48:28.999Z</time></trkpt><trkpt lat="38.06506303190975" lon="15.838171942002434"><ele>895.0</ele><time>2026-04-25T10:48:29.999Z</time></trkpt><trkpt lat="38.06500906471558" lon="15.838075522662265"><ele>895.0</ele><time>2026-04-25T10:48:31Z</time></trkpt><trkpt lat="38.06493908254274" lon="15.837985242627587"><ele>895.0</ele><time>2026-04-25T10:48:32Z</time></trkpt><trkpt lat="38.06485723025437" lon="15.8379213519701"><ele>894.9999999999999</ele><time>2026-04-25T10:48:33Z</time></trkpt><trkpt lat="38.06480378213887" lon="15.83787338343525"><ele>895.0</ele><time>2026-04-25T10:48:34Z</time></trkpt><trkpt lat="38.064692964370614" lon="15.83782093303804"><ele>894.4999999999999</ele><time>2026-04-25T10:48:35Z</time></trkpt><trkpt lat="38.06461455951033" lon="15.837716598249205"><ele>894.0</ele><time>2026-04-25T10:48:36Z</time></trkpt><trkpt lat="38.06455364451055" lon="15.837664070801313"><ele>893.5</ele><time>2026-04-25T10:48:37Z</time></trkpt><trkpt lat="38.064489186261575" lon="15.837634848255282"><ele>893.0</ele><time>2026-04-25T10:48:38Z</time></trkpt><trkpt lat="38.06441469330816" lon="15.837627696887033"><ele>892.4999999999999</ele><time>2026-04-25T10:48:39Z</time></trkpt><trkpt lat="38.064329082396725" lon="15.837614819239915"><ele>892.0</ele><time>2026-04-25T10:48:40Z</time></trkpt><trkpt lat="38.06423137259469" lon="15.837608077229518"><ele>901.25</ele><time>2026-04-25T10:48:41Z</time></trkpt><trkpt lat="38.06411021990663" lon="15.837624201474597"><ele>910.5</ele><time>2026-04-25T10:48:42Z</time></trkpt><trkpt lat="38.06398833666598" lon="15.837610359343543"><ele>919.75</ele><time>2026-04-25T10:48:43Z</time></trkpt><trkpt lat="38.06386604619765" lon="15.837577998590268"><ele>929.0</ele><time>2026-04-25T10:48:44Z</time></trkpt><trkpt lat="38.063753436696125" lon="15.83753028830035"><ele>929.0</ele><time>2026-04-25T10:48:45Z</time></trkpt><trkpt lat="38.06367868058918" lon="15.837487289408996"><ele>929.0000000000001</ele><time>2026-04-25T10:48:46Z</time></trkpt><trkpt lat="38.06360403429784" lon="15.837368828242909"><ele>929.0000000000001</ele><time>2026-04-25T10:48:48Z</time></trkpt><trkpt lat="38.063556746385295" lon="15.83724553740187"><ele>929.0</ele><time>2026-04-25T10:48:49Z</time></trkpt><trkpt lat="38.06347887552525" lon="15.837111782018432"><ele>929.0</ele><time>2026-04-25T10:48:50Z</time></trkpt><trkpt lat="38.06341691320477" lon="15.837016363433602"><ele>929.0</ele><time>2026-04-25T10:48:51Z</time></trkpt><trkpt lat="38.063323531060945" lon="15.836910981754459"><ele>929.0000000000001</ele><time>2026-04-25T10:48:53Z</time></trkpt><trkpt lat="38.063228588954104" lon="15.836825275256894"><ele>929.0000000000001</ele><time>2026-04-25T10:48:54Z</time></trkpt><trkpt lat="38.0631357235588" lon="15.83671093258063"><ele>929.0</ele><time>2026-04-25T10:48:55Z</time></trkpt><trkpt lat="38.06308244190423" lon="15.836644927668198"><ele>929.0</ele><time>2026-04-25T10:48:56Z</time></trkpt><trkpt lat="38.062969506474694" lon="15.83660917566505"><ele>925.4000000000001</ele><time>2026-04-25T10:48:58Z</time></trkpt><trkpt lat="38.06289778935013" lon="15.836619714981511"><ele>921.8000000000001</ele><time>2026-04-25T10:48:59Z</time></trkpt><trkpt lat="38.06280872933392" lon="15.836636310271073"><ele>918.1999999999999</ele><time>2026-04-25T10:49:00Z</time></trkpt><trkpt lat="38.0627026126327" lon="15.836662405258112"><ele>914.5999999999999</ele><time>2026-04-25T10:49:01Z</time></trkpt><trkpt lat="38.06256769462911" lon="15.836700979822702"><ele>911.0</ele><time>2026-04-25T10:49:02Z</time></trkpt><trkpt lat="38.06244902281257" lon="15.836719418935905"><ele>909.6666666666667</ele><time>2026-04-25T10:49:03Z</time></trkpt><trkpt lat="38.06236988900694" lon="15.83671995591984"><ele>908.3333333333334</ele><time>2026-04-25T10:49:04Z</time></trkpt><trkpt lat="38.062360134189234" lon="15.836825792770465"><ele>907.0</ele><time>2026-04-25T10:49:08Z</time></trkpt><trkpt lat="38.06246314753782" lon="15.836826221520868"><ele>905.6666666666667</ele><time>2026-04-25T10:49:10Z</time></trkpt><trkpt lat="38.062539555294705" lon="15.836840406819945"><ele>904.3333333333334</ele><time>2026-04-25T10:49:11Z</time></trkpt><trkpt lat="38.062617574758576" lon="15.836850495058982"><ele>903.0</ele><time>2026-04-25T10:49:12Z</time></trkpt><trkpt lat="38.06270491443105" lon="15.836857226988482"><ele>911.3333333333334</ele><time>2026-04-25T10:49:13Z</time></trkpt><trkpt lat="38.06281494541328" lon="15.836890349551894"><ele>919.6666666666667</ele><time>2026-04-25T10:49:15Z</time></trkpt><trkpt lat="38.062885895296965" lon="15.836911013259337"><ele>928.0</ele><time>2026-04-25T10:49:16Z</time></trkpt><trkpt lat="38.06296156949669" lon="15.836937602964424"><ele>936.3333333333334</ele><time>2026-04-25T10:49:17Z</time></trkpt><trkpt lat="38.06303032807152" lon="15.836975853303786"><ele>944.6666666666667</ele><time>2026-04-25T10:49:18Z</time></trkpt><trkpt lat="38.06311192320228" lon="15.837018255460759"><ele>953.0</ele><time>2026-04-25T10:49:19Z</time></trkpt><trkpt lat="38.063182581573166" lon="15.837048115397211"><ele>953.0000000000001</ele><time>2026-04-25T10:49:21Z</time></trkpt><trkpt lat="38.063128649270844" lon="15.837124068250896"><ele>953.0</ele><time>2026-04-25T10:49:42Z</time></trkpt><trkpt lat="38.06301937113862" lon="15.837091495658761"><ele>953.0</ele><time>2026-04-25T10:49:44Z</time></trkpt><trkpt lat="38.06291641871153" lon="15.837045399870863"><ele>953.0</ele><time>2026-04-25T10:49:46Z</time></trkpt><trkpt lat="38.06284263941863" lon="15.837059959049062"><ele>953.0000000000001</ele><time>2026-04-25T10:49:48Z</time></trkpt><trkpt lat="38.062781702085914" lon="15.837085446466856"><ele>953.0</ele><time>2026-04-25T10:49:49Z</time></trkpt><trkpt lat="38.062700574750835" lon="15.837125136720093"><ele>953.0</ele><time>2026-04-25T10:49:50Z</time></trkpt><trkpt lat="38.06260496478067" lon="15.837158048559797"><ele>953.0</ele><time>2026-04-25T10:49:51Z</time></trkpt><trkpt lat="38.06251828054183" lon="15.83718291432134"><ele>953.0</ele><time>2026-04-25T10:49:52Z</time></trkpt><trkpt lat="38.06243288703702" lon="15.837189825576772"><ele>953.0</ele><time>2026-04-25T10:49:53Z</time></trkpt><trkpt lat="38.06231139203055" lon="15.837184595819492"><ele>953.0</ele><time>2026-04-25T10:49:54Z</time></trkpt><trkpt lat="38.06217813965076" lon="15.837172395745721"><ele>953.5999999999999</ele><time>2026-04-25T10:49:55Z</time></trkpt><trkpt lat="38.06204764586777" lon="15.837156402670493"><ele>954.1999999999999</ele><time>2026-04-25T10:49:56Z</time></trkpt><trkpt lat="38.06194475140567" lon="15.837125612388213"><ele>954.8</ele><time>2026-04-25T10:49:57Z</time></trkpt><trkpt lat="38.061866177398855" lon="15.837105236650928"><ele>955.4</ele><time>2026-04-25T10:49:58Z</time></trkpt><trkpt lat="38.061787533160896" lon="15.83710900010584"><ele>956.0</ele><time>2026-04-25T10:49:59Z</time></trkpt><trkpt lat="38.0617186568058" lon="15.837094705826171"><ele>956.0000000000001</ele><time>2026-04-25T10:50:00Z</time></trkpt><trkpt lat="38.06163977063564" lon="15.837122135600119"><ele>956.0</ele><time>2026-04-25T10:50:02Z</time></trkpt><trkpt lat="38.06159341817596" lon="15.837195205016949"><ele>956.0</ele><time>2026-04-25T10:50:03Z</time></trkpt><trkpt lat="38.06152894619268" lon="15.837261794852857"><ele>956.0</ele><time>2026-04-25T10:50:05Z</time></trkpt><trkpt lat="38.061458589622674" lon="15.837306109421915"><ele>956.0000000000001</ele><time>2026-04-25T10:50:37Z</time></trkpt><trkpt lat="38.06139644797889" lon="15.837366495117541"><ele>956.0</ele><time>2026-04-25T10:50:39Z</time></trkpt><trkpt lat="38.06130705913869" lon="15.837444644330274"><ele>957.6666666666667</ele><time>2026-04-25T10:50:41Z</time></trkpt><trkpt lat="38.06124779370322" lon="15.83750041198575"><ele>959.3333333333334</ele><time>2026-04-25T10:50:42Z</time></trkpt><trkpt lat="38.061167880977585" lon="15.83755655194894"><ele>961.0</ele><time>2026-04-25T10:50:43Z</time></trkpt><trkpt lat="38.0611014620171" lon="15.837591280810223"><ele>962.6666666666667</ele><time>2026-04-25T10:50:44Z</time></trkpt><trkpt lat="38.06101512214189" lon="15.83763999273966"><ele>964.3333333333334</ele><time>2026-04-25T10:50:46Z</time></trkpt><trkpt lat="38.06092173842577" lon="15.837652729384109"><ele>966.0</ele><time>2026-04-25T10:50:48Z</time></trkpt><trkpt lat="38.0608187409012" lon="15.837650737715228"><ele>956.5</ele><time>2026-04-25T10:50:50Z</time></trkpt><trkpt lat="38.06073579674499" lon="15.837667828518288"><ele>947.0</ele><time>2026-04-25T10:50:52Z</time></trkpt><trkpt lat="38.06068318748216" lon="15.837750246966204"><ele>937.5</ele><time>2026-04-25T10:50:54Z</time></trkpt><trkpt lat="38.06062212522113" lon="15.837865135908874"><ele>928.0</ele><time>2026-04-25T10:50:56Z</time></trkpt><trkpt lat="38.060606566726406" lon="15.83794955444631"><ele>918.5</ele><time>2026-04-25T10:50:58Z</time></trkpt><trkpt lat="38.06062743191611" lon="15.8380397476339"><ele>909.0</ele><time>2026-04-25T10:51:00Z</time></trkpt><trkpt lat="38.06064580001236" lon="15.838177766100184"><ele>909.0</ele><time>2026-04-25T10:51:02Z</time></trkpt><trkpt lat="38.060640580064195" lon="15.838257790575934"><ele>909.0000000000001</ele><time>2026-04-25T10:51:03Z</time></trkpt><trkpt lat="38.06061649241977" lon="15.838398610654123"><ele>909.0000000000001</ele><time>2026-04-25T10:51:05Z</time></trkpt><trkpt lat="38.06061035759783" lon="15.838493632339926"><ele>909.0</ele><time>2026-04-25T10:51:07Z</time></trkpt><trkpt lat="38.06064725061893" lon="15.838587273525748"><ele>909.0</ele><time>2026-04-25T10:51:09Z</time></trkpt><trkpt lat="38.060735748973165" lon="15.838682952532256"><ele>917.1666666666666</ele><time>2026-04-25T10:51:11Z</time></trkpt><trkpt lat="38.0607830721036" lon="15.838741481325515"><ele>925.3333333333333</ele><time>2026-04-25T10:51:12Z</time></trkpt><trkpt lat="38.060868837309116" lon="15.838866601609569"><ele>933.5</ele><time>2026-04-25T10:51:14Z</time></trkpt><trkpt lat="38.060920964317795" lon="15.838928993136268"><ele>941.6666666666666</ele><time>2026-04-25T10:51:15Z</time></trkpt><trkpt lat="38.06098296091811" lon="15.838991714365838"><ele>949.8333333333333</ele><time>2026-04-25T10:51:16Z</time></trkpt><trkpt lat="38.061042141547475" lon="15.839034217322267"><ele>958.0</ele><time>2026-04-25T10:51:17Z</time></trkpt><trkpt lat="38.06109450582633" lon="15.839083085581454"><ele>957.9999999999999</ele><time>2026-04-25T10:51:18Z</time></trkpt><trkpt lat="38.06115362782993" lon="15.83912837324426"><ele>958.0</ele><time>2026-04-25T10:51:19Z</time></trkpt><trkpt lat="38.061214779984624" lon="15.839174688839712"><ele>958.0</ele><time>2026-04-25T10:51:20Z</time></trkpt><trkpt lat="38.06126824488202" lon="15.839216941068132"><ele>958.0</ele><time>2026-04-25T10:51:21Z</time></trkpt><trkpt lat="38.061365347725214" lon="15.839336853456528"><ele>957.9999999999999</ele><time>2026-04-25T10:51:23Z</time></trkpt><trkpt lat="38.06142213558026" lon="15.839411579014554"><ele>958.0</ele><time>2026-04-25T10:51:24Z</time></trkpt><trkpt lat="38.06149029682779" lon="15.839502071779675"><ele>953.25</ele><time>2026-04-25T10:51:25Z</time></trkpt><trkpt lat="38.06156945919158" lon="15.83961288664964"><ele>948.5</ele><time>2026-04-25T10:51:26Z</time></trkpt><trkpt lat="38.06165906708771" lon="15.839726916790573"><ele>943.75</ele><time>2026-04-25T10:51:27Z</time></trkpt><trkpt lat="38.06174569719156" lon="15.83983376831555"><ele>939.0</ele><time>2026-04-25T10:51:28Z</time></trkpt><trkpt lat="38.061816464596276" lon="15.839931302555529"><ele>948.4000000000001</ele><time>2026-04-25T10:51:29Z</time></trkpt><trkpt lat="38.06187187180915" lon="15.840030074025261"><ele>957.8000000000001</ele><time>2026-04-25T10:51:30Z</time></trkpt><trkpt lat="38.06191073747851" lon="15.84012639114567"><ele>967.1999999999999</ele><time>2026-04-25T10:51:31Z</time></trkpt><trkpt lat="38.06194776392179" lon="15.840228428107556"><ele>976.5999999999999</ele><time>2026-04-25T10:51:32Z</time></trkpt><trkpt lat="38.06198371930587" lon="15.840386585934318"><ele>986.0</ele><time>2026-04-25T10:51:33Z</time></trkpt><trkpt lat="38.06201635845241" lon="15.840563994245068"><ele>988.4</ele><time>2026-04-25T10:51:34Z</time></trkpt><trkpt lat="38.062029401005624" lon="15.840697381551514"><ele>990.8</ele><time>2026-04-25T10:51:35Z</time></trkpt><trkpt lat="38.06205210697989" lon="15.840834731238683"><ele>993.1999999999999</ele><time>2026-04-25T10:51:37Z</time></trkpt><trkpt lat="38.06202374402546" lon="15.84091973673712"><ele>995.5999999999999</ele><time>2026-04-25T10:51:38Z</time></trkpt><trkpt lat="38.06191704634289" lon="15.840974278067588"><ele>998.0</ele><time>2026-04-25T10:51:40Z</time></trkpt><trkpt lat="38.0618267036393" lon="15.840953569773172"><ele>998.0</ele><time>2026-04-25T10:51:41Z</time></trkpt><trkpt lat="38.061683177843115" lon="15.84096510925112"><ele>998.0</ele><time>2026-04-25T10:51:42Z</time></trkpt><trkpt lat="38.061538908703255" lon="15.84094956837774"><ele>998.0</ele><time>2026-04-25T10:51:43Z</time></trkpt><trkpt lat="38.06145314197137" lon="15.840959394799519"><ele>998.0</ele><time>2026-04-25T10:51:44Z</time></trkpt><trkpt lat="38.06138090244689" lon="15.84102000271804"><ele>998.8</ele><time>2026-04-25T10:51:45Z</time></trkpt><trkpt lat="38.06129791399477" lon="15.841111156424601"><ele>999.5999999999999</ele><time>2026-04-25T10:51:46Z</time></trkpt><trkpt lat="38.06120010871537" lon="15.841151332367014"><ele>1000.4000000000001</ele><time>2026-04-25T10:51:47Z</time></trkpt><trkpt lat="38.061103668644094" lon="15.841177417170453"><ele>1001.2</ele><time>2026-04-25T10:51:48Z</time></trkpt><trkpt lat="38.06100391282233" lon="15.841236036217795"><ele>1002.0</ele><time>2026-04-25T10:51:50Z</time></trkpt><trkpt lat="38.060975642602145" lon="15.841327767105188"><ele>1002.0</ele><time>2026-04-25T10:51:51Z</time></trkpt><trkpt lat="38.060959957053015" lon="15.841444449016624"><ele>1002.0</ele><time>2026-04-25T10:51:52Z</time></trkpt><trkpt lat="38.06093837552786" lon="15.841614431662311"><ele>1002.0</ele><time>2026-04-25T10:51:53Z</time></trkpt><trkpt lat="38.06089598974402" lon="15.841802472407304"><ele>1002.0</ele><time>2026-04-25T10:51:54Z</time></trkpt><trkpt lat="38.060845936242984" lon="15.841967059080767"><ele>999.6666666666666</ele><time>2026-04-25T10:51:55Z</time></trkpt><trkpt lat="38.06080972485863" lon="15.842109660159029"><ele>997.3333333333333</ele><time>2026-04-25T10:51:56Z</time></trkpt><trkpt lat="38.060802604176054" lon="15.842230391203596"><ele>995.0</ele><time>2026-04-25T10:51:57Z</time></trkpt><trkpt lat="38.060817937359474" lon="15.842316609089819"><ele>992.6666666666666</ele><time>2026-04-25T10:51:58Z</time></trkpt><trkpt lat="38.060831058414976" lon="15.842403237420525"><ele>990.3333333333333</ele><time>2026-04-25T10:51:59Z</time></trkpt><trkpt lat="38.06081121918686" lon="15.842482423399627"><ele>988.0</ele><time>2026-04-25T10:52:00Z</time></trkpt><trkpt lat="38.06075878526707" lon="15.842548095007052"><ele>988.0</ele><time>2026-04-25T10:52:01Z</time></trkpt><trkpt lat="38.06067299414317" lon="15.842617739884805"><ele>988.0</ele><time>2026-04-25T10:52:02Z</time></trkpt><trkpt lat="38.060577130910175" lon="15.84268268578124"><ele>988.0</ele><time>2026-04-25T10:52:03Z</time></trkpt><trkpt lat="38.06045909238981" lon="15.842767078415756"><ele>988.0</ele><time>2026-04-25T10:52:04Z</time></trkpt><trkpt lat="38.06032149161892" lon="15.842863513984701"><ele>984.5999999999999</ele><time>2026-04-25T10:52:05Z</time></trkpt><trkpt lat="38.06017451824877" lon="15.842968323826794"><ele>981.1999999999999</ele><time>2026-04-25T10:52:06Z</time></trkpt><trkpt lat="38.06008202162355" lon="15.843026181173917"><ele>977.8</ele><time>2026-04-25T10:52:07Z</time></trkpt><trkpt lat="38.06001125262634" lon="15.843070389842257"><ele>974.4</ele><time>2026-04-25T10:52:08Z</time></trkpt><trkpt lat="38.05995656874081" lon="15.843138590056604"><ele>971.0</ele><time>2026-04-25T10:52:09Z</time></trkpt><trkpt lat="38.05990116270859" lon="15.843227438459191"><ele>971.0</ele><time>2026-04-25T10:52:10Z</time></trkpt><trkpt lat="38.05985083759967" lon="15.843341881314526"><ele>970.9999999999999</ele><time>2026-04-25T10:52:11Z</time></trkpt><trkpt lat="38.05982477338368" lon="15.843447987037429"><ele>970.9999999999999</ele><time>2026-04-25T10:52:12Z</time></trkpt><trkpt lat="38.05984049501782" lon="15.843578907007313"><ele>971.0</ele><time>2026-04-25T10:52:14Z</time></trkpt><trkpt lat="38.05987886839074" lon="15.843693145473457"><ele>971.0</ele><time>2026-04-25T10:52:15Z</time></trkpt><trkpt lat="38.05990885007259" lon="15.843811990989098"><ele>971.25</ele><time>2026-04-25T10:52:16Z</time></trkpt><trkpt lat="38.05993622309792" lon="15.843943039681829"><ele>971.5</ele><time>2026-04-25T10:52:17Z</time></trkpt><trkpt lat="38.05998541238818" lon="15.844090920907725"><ele>971.75</ele><time>2026-04-25T10:52:18Z</time></trkpt><trkpt lat="38.0600456957665" lon="15.844260807390526"><ele>972.0</ele><time>2026-04-25T10:52:19Z</time></trkpt><trkpt lat="38.06007607168679" lon="15.844395741671917"><ele>979.5</ele><time>2026-04-25T10:52:20Z</time></trkpt><trkpt lat="38.06008966833463" lon="15.844478819455375"><ele>987.0</ele><time>2026-04-25T10:52:21Z</time></trkpt><trkpt lat="38.06009182145144" lon="15.844570989742099"><ele>994.5</ele><time>2026-04-25T10:52:22Z</time></trkpt><trkpt lat="38.0600623346169" lon="15.844642333048071"><ele>1002.0</ele><time>2026-04-25T10:52:23Z</time></trkpt><trkpt lat="38.06001402625043" lon="15.844727336006665"><ele>1009.5</ele><time>2026-04-25T10:52:24Z</time></trkpt><trkpt lat="38.059973205089165" lon="15.844816073925825"><ele>1017.0</ele><time>2026-04-25T10:52:25Z</time></trkpt><trkpt lat="38.060007015784116" lon="15.844949079972054"><ele>1017.0</ele><time>2026-04-25T10:52:27Z</time></trkpt><trkpt lat="38.06014090981872" lon="15.84496768300721"><ele>1017.0</ele><time>2026-04-25T10:52:29Z</time></trkpt><trkpt lat="38.06021182674281" lon="15.845012781703632"><ele>1017.0</ele><time>2026-04-25T10:52:30Z</time></trkpt><trkpt lat="38.0602730239817" lon="15.845083675736314"><ele>1017.0</ele><time>2026-04-25T10:52:31Z</time></trkpt><trkpt lat="38.06031193389086" lon="15.84516267557603"><ele>1017.0</ele><time>2026-04-25T10:52:32Z</time></trkpt><trkpt lat="38.060348197276035" lon="15.845242869537575"><ele>1017.0</ele><time>2026-04-25T10:52:33Z</time></trkpt><trkpt lat="38.06037396644036" lon="15.845317638727824"><ele>1019.2</ele><time>2026-04-25T10:52:34Z</time></trkpt><trkpt lat="38.06044872536795" lon="15.845423077678289"><ele>1021.4000000000001</ele><time>2026-04-25T10:52:36Z</time></trkpt><trkpt lat="38.06047598495895" lon="15.845523242136876"><ele>1023.5999999999999</ele><time>2026-04-25T10:52:38Z</time></trkpt><trkpt lat="38.06041133827777" lon="15.845602097741676"><ele>1025.8</ele><time>2026-04-25T10:52:40Z</time></trkpt><trkpt lat="38.060317225119604" lon="15.845606570240465"><ele>1028.0</ele><time>2026-04-25T10:52:42.001Z</time></trkpt><trkpt lat="38.060204539728815" lon="15.845566523857144"><ele>1028.0</ele><time>2026-04-25T10:52:44.001Z</time></trkpt><trkpt lat="38.06014155668482" lon="15.845540664653063"><ele>1028.0</ele><time>2026-04-25T10:52:45.001Z</time></trkpt><trkpt lat="38.06002834029416" lon="15.845551583344346"><ele>1028.0</ele><time>2026-04-25T10:52:47.001Z</time></trkpt><trkpt lat="38.059983516397025" lon="15.845610795919542"><ele>1028.0</ele><time>2026-04-25T10:52:48.001Z</time></trkpt><trkpt lat="38.059944598983144" lon="15.845693238825405"><ele>1028.0</ele><time>2026-04-25T10:52:49.001Z</time></trkpt><trkpt lat="38.059906093045036" lon="15.845786843493528"><ele>1028.0</ele><time>2026-04-25T10:52:50.001Z</time></trkpt><trkpt lat="38.05986855693449" lon="15.845878018841045"><ele>1026.5</ele><time>2026-04-25T10:52:51.001Z</time></trkpt><trkpt lat="38.059820784446714" lon="15.84595687808298"><ele>1025.0</ele><time>2026-04-25T10:52:52.001Z</time></trkpt><trkpt lat="38.05976452739243" lon="15.84600906659012"><ele>1023.5</ele><time>2026-04-25T10:52:53.001Z</time></trkpt><trkpt lat="38.05969094680242" lon="15.846059063056096"><ele>1022.0</ele><time>2026-04-25T10:52:54.001Z</time></trkpt><trkpt lat="38.05961195858812" lon="15.846109619550983"><ele>1020.5000000000001</ele><time>2026-04-25T10:52:55.001Z</time></trkpt><trkpt lat="38.059541026712026" lon="15.846151323156311"><ele>1019.0</ele><time>2026-04-25T10:52:56.001Z</time></trkpt><trkpt lat="38.05946840433308" lon="15.846153537379"><ele>1027.0</ele><time>2026-04-25T10:52:57Z</time></trkpt><trkpt lat="38.059387392352946" lon="15.8461300457707"><ele>1035.0</ele><time>2026-04-25T10:52:58Z</time></trkpt><trkpt lat="38.059305436559335" lon="15.846123637835053"><ele>1043.0</ele><time>2026-04-25T10:52:59Z</time></trkpt><trkpt lat="38.05921986243872" lon="15.846122371000584"><ele>1051.0</ele><time>2026-04-25T10:53:00Z</time></trkpt><trkpt lat="38.05915382031551" lon="15.84612285677384"><ele>1059.0</ele><time>2026-04-25T10:53:01Z</time></trkpt><trkpt lat="38.05909410023313" lon="15.846095569135272"><ele>1067.0</ele><time>2026-04-25T10:53:02Z</time></trkpt><trkpt lat="38.05903577506046" lon="15.846030320094952"><ele>1068.0</ele><time>2026-04-25T10:53:03Z</time></trkpt><trkpt lat="38.058973780890454" lon="15.845918332142219"><ele>1069.0</ele><time>2026-04-25T10:53:04Z</time></trkpt><trkpt lat="38.05891364274388" lon="15.845826906705662"><ele>1070.0</ele><time>2026-04-25T10:53:05Z</time></trkpt><trkpt lat="38.05881241592803" lon="15.845808900397946"><ele>1071.0</ele><time>2026-04-25T10:53:07Z</time></trkpt><trkpt lat="38.05872509524789" lon="15.84592172586651"><ele>1072.0</ele><time>2026-04-25T10:53:09Z</time></trkpt><trkpt lat="38.05868103011859" lon="15.84601530652249"><ele>1072.0</ele><time>2026-04-25T10:53:10Z</time></trkpt><trkpt lat="38.0586116895933" lon="15.84611040703369"><ele>1072.0</ele><time>2026-04-25T10:53:11Z</time></trkpt><trkpt lat="38.05855592522552" lon="15.846162645554868"><ele>1072.0</ele><time>2026-04-25T10:53:12Z</time></trkpt><trkpt lat="38.05848139271682" lon="15.846206321177714"><ele>1072.0</ele><time>2026-04-25T10:53:13Z</time></trkpt><trkpt lat="38.058417398219554" lon="15.846139677711061"><ele>1072.0</ele><time>2026-04-25T10:53:15Z</time></trkpt><trkpt lat="38.05840609393694" lon="15.845964979860348"><ele>1067.8</ele><time>2026-04-25T10:53:17Z</time></trkpt><trkpt lat="38.0583727393215" lon="15.845836735434041"><ele>1063.6</ele><time>2026-04-25T10:53:18Z</time></trkpt><trkpt lat="38.05828605748658" lon="15.845746038175976"><ele>1059.3999999999999</ele><time>2026-04-25T10:53:19Z</time></trkpt><trkpt lat="38.058192696437395" lon="15.845698636670617"><ele>1055.2</ele><time>2026-04-25T10:53:20Z</time></trkpt><trkpt lat="38.058122419126086" lon="15.845666768937733"><ele>1051.0</ele><time>2026-04-25T10:53:21Z</time></trkpt><trkpt lat="38.05800904325357" lon="15.845651684554355"><ele>1051.0</ele><time>2026-04-25T10:53:22Z</time></trkpt><trkpt lat="38.0578995987432" lon="15.845630698632583"><ele>1051.0</ele><time>2026-04-25T10:53:23Z</time></trkpt><trkpt lat="38.057803492060536" lon="15.845574978584485"><ele>1051.0</ele><time>2026-04-25T10:53:24Z</time></trkpt><trkpt lat="38.05770156576519" lon="15.845481558207174"><ele>1051.0</ele><time>2026-04-25T10:53:25Z</time></trkpt><trkpt lat="38.05759231601609" lon="15.845357748867414"><ele>1051.0</ele><time>2026-04-25T10:53:26Z</time></trkpt><trkpt lat="38.05753209455263" lon="15.845273045350558"><ele>1051.0</ele><time>2026-04-25T10:53:27Z</time></trkpt><trkpt lat="38.057480612473846" lon="15.845166443492618"><ele>1051.0</ele><time>2026-04-25T10:53:28Z</time></trkpt><trkpt lat="38.05744531685505" lon="15.845021436095875"><ele>1051.0</ele><time>2026-04-25T10:53:29Z</time></trkpt><trkpt lat="38.0574092148235" lon="15.844806090688603"><ele>1046.8</ele><time>2026-04-25T10:53:30Z</time></trkpt><trkpt lat="38.057388874565035" lon="15.844634589760386"><ele>1042.6</ele><time>2026-04-25T10:53:31Z</time></trkpt><trkpt lat="38.057387514441764" lon="15.844501050272372"><ele>1038.4</ele><time>2026-04-25T10:53:32Z</time></trkpt><trkpt lat="38.05738696288" lon="15.844397790843502"><ele>1034.2</ele><time>2026-04-25T10:53:33Z</time></trkpt><trkpt lat="38.057375279313376" lon="15.844314773296308"><ele>1030.0</ele><time>2026-04-25T10:53:34Z</time></trkpt><trkpt lat="38.05727006902726" lon="15.84420364418636"><ele>1030.0</ele><time>2026-04-25T10:53:36Z</time></trkpt><trkpt lat="38.057176108131685" lon="15.844158421294095"><ele>1030.0</ele><time>2026-04-25T10:53:37Z</time></trkpt><trkpt lat="38.0571032459465" lon="15.844139223543436"><ele>1030.0</ele><time>2026-04-25T10:53:38Z</time></trkpt><trkpt lat="38.056993006829586" lon="15.844225006958899"><ele>1030.0</ele><time>2026-04-25T10:53:40Z</time></trkpt><trkpt lat="38.05691034948919" lon="15.844308457092458"><ele>1030.0</ele><time>2026-04-25T10:53:41Z</time></trkpt><trkpt lat="38.05680641514988" lon="15.84436159100476"><ele>1030.0</ele><time>2026-04-25T10:53:42Z</time></trkpt><trkpt lat="38.05668440220369" lon="15.844382014807396"><ele>1030.0</ele><time>2026-04-25T10:53:43Z</time></trkpt><trkpt lat="38.05659443270356" lon="15.844420307568477"><ele>1030.0</ele><time>2026-04-25T10:53:44Z</time></trkpt><trkpt lat="38.0565259220806" lon="15.844463884800438"><ele>1030.0</ele><time>2026-04-25T10:53:45Z</time></trkpt><trkpt lat="38.05649128923184" lon="15.844573734172087"><ele>1030.0</ele><time>2026-04-25T10:53:47Z</time></trkpt><trkpt lat="38.05649433947941" lon="15.844671611830405"><ele>1030.4</ele><time>2026-04-25T10:53:48Z</time></trkpt><trkpt lat="38.05650798179947" lon="15.844800115313442"><ele>1030.8</ele><time>2026-04-25T10:53:49Z</time></trkpt><trkpt lat="38.05652547410707" lon="15.84494024303634"><ele>1031.2</ele><time>2026-04-25T10:53:50Z</time></trkpt><trkpt lat="38.05651189200746" lon="15.845050856024278"><ele>1031.6</ele><time>2026-04-25T10:53:51Z</time></trkpt><trkpt lat="38.05647965781389" lon="15.845149257872114"><ele>1032.0</ele><time>2026-04-25T10:53:52Z</time></trkpt><trkpt lat="38.05644238677895" lon="15.845224716244736"><ele>1032.0</ele><time>2026-04-25T10:53:53Z</time></trkpt><trkpt lat="38.05638815727683" lon="15.845269923704787"><ele>1032.0</ele><time>2026-04-25T10:53:54Z</time></trkpt><trkpt lat="38.0563264524204" lon="15.845305326983077"><ele>1032.0</ele><time>2026-04-25T10:53:55Z</time></trkpt><trkpt lat="38.056219789756874" lon="15.845354410438915"><ele>1032.0</ele><time>2026-04-25T10:53:56Z</time></trkpt><trkpt lat="38.05609969287393" lon="15.845398936471792"><ele>1032.0</ele><time>2026-04-25T10:53:57Z</time></trkpt><trkpt lat="38.05602263335665" lon="15.84544715138604"><ele>1032.0</ele><time>2026-04-25T10:53:58Z</time></trkpt><trkpt lat="38.055976773986174" lon="15.845506129468928"><ele>1032.0</ele><time>2026-04-25T10:53:59Z</time></trkpt><trkpt lat="38.055931529355504" lon="15.845600698425702"><ele>1032.0</ele><time>2026-04-25T10:54:00Z</time></trkpt><trkpt lat="38.05590753474703" lon="15.845708575955307"><ele>1032.0</ele><time>2026-04-25T10:54:01Z</time></trkpt><trkpt lat="38.05589508087247" lon="15.845843015195081"><ele>1032.0</ele><time>2026-04-25T10:54:02Z</time></trkpt><trkpt lat="38.05585636668416" lon="15.845917042560291"><ele>1032.0</ele><time>2026-04-25T10:54:03Z</time></trkpt><trkpt lat="38.05579896714175" lon="15.845968900448765"><ele>1038.2</ele><time>2026-04-25T10:54:04Z</time></trkpt><trkpt lat="38.055712587977474" lon="15.845988139586051"><ele>1044.4</ele><time>2026-04-25T10:54:05Z</time></trkpt><trkpt lat="38.05560928842127" lon="15.846034435067399"><ele>1050.6</ele><time>2026-04-25T10:54:06Z</time></trkpt><trkpt lat="38.055505211882476" lon="15.846090094974862"><ele>1056.8</ele><time>2026-04-25T10:54:07Z</time></trkpt><trkpt lat="38.05542553520417" lon="15.846101161274927"><ele>1063.0</ele><time>2026-04-25T10:54:09Z</time></trkpt><trkpt lat="38.05535830199134" lon="15.845994823275058"><ele>1056.2</ele><time>2026-04-25T10:54:11Z</time></trkpt><trkpt lat="38.05532297624256" lon="15.845889233808826"><ele>1049.4</ele><time>2026-04-25T10:54:12Z</time></trkpt><trkpt lat="38.05530511792622" lon="15.845781365459006"><ele>1042.6000000000001</ele><time>2026-04-25T10:54:13Z</time></trkpt><trkpt lat="38.055224462461545" lon="15.845639705587061"><ele>1035.8</ele><time>2026-04-25T10:54:15Z</time></trkpt><trkpt lat="38.05515643323748" lon="15.84557862047554"><ele>1029.0</ele><time>2026-04-25T10:54:16Z</time></trkpt><trkpt lat="38.05505943287974" lon="15.845585076546525"><ele>1029.0</ele><time>2026-04-25T10:54:18Z</time></trkpt><trkpt lat="38.05500335071326" lon="15.845662297106694"><ele>1029.0</ele><time>2026-04-25T10:54:20Z</time></trkpt><trkpt lat="38.05492782110193" lon="15.845771665091828"><ele>1029.0</ele><time>2026-04-25T10:54:22Z</time></trkpt><trkpt lat="38.054873895687024" lon="15.845917176565832"><ele>1029.0</ele><time>2026-04-25T10:54:24Z</time></trkpt><trkpt lat="38.054846540841986" lon="15.8460561245923"><ele>1029.0</ele><time>2026-04-25T10:54:26Z</time></trkpt><trkpt lat="38.054756019726355" lon="15.846145842103782"><ele>1032.4</ele><time>2026-04-25T10:54:28Z</time></trkpt><trkpt lat="38.054618913370035" lon="15.846175150483317"><ele>1035.8000000000002</ele><time>2026-04-25T10:54:30Z</time></trkpt><trkpt lat="38.05455443072176" lon="15.846208378536609"><ele>1039.1999999999998</ele><time>2026-04-25T10:54:31Z</time></trkpt><trkpt lat="38.05448759516543" lon="15.846245750924275"><ele>1042.6</ele><time>2026-04-25T10:54:32Z</time></trkpt><trkpt lat="38.05438891622972" lon="15.846343239783383"><ele>1046.0</ele><time>2026-04-25T10:54:34Z</time></trkpt><trkpt lat="38.05434417580942" lon="15.846401125148459"><ele>1046.0</ele><time>2026-04-25T10:54:35Z</time></trkpt><trkpt lat="38.0542511427218" lon="15.846517100649425"><ele>1046.0</ele><time>2026-04-25T10:54:37Z</time></trkpt><trkpt lat="38.05420036384974" lon="15.846581221232528"><ele>1046.0</ele><time>2026-04-25T10:54:38Z</time></trkpt><trkpt lat="38.054145519666825" lon="15.846652539062385"><ele>1046.0</ele><time>2026-04-25T10:54:39Z</time></trkpt><trkpt lat="38.05408767213008" lon="15.84669981485382"><ele>1046.0</ele><time>2026-04-25T10:54:40Z</time></trkpt><trkpt lat="38.05396787116525" lon="15.846709537858239"><ele>1044.0</ele><time>2026-04-25T10:54:42Z</time></trkpt><trkpt lat="38.053900311256704" lon="15.846696258680401"><ele>1042.0</ele><time>2026-04-25T10:54:43Z</time></trkpt><trkpt lat="38.05383107176509" lon="15.846684213392155"><ele>1040.0</ele><time>2026-04-25T10:54:44Z</time></trkpt><trkpt lat="38.053754793984794" lon="15.846718005194294"><ele>1038.0</ele><time>2026-04-25T10:54:46Z</time></trkpt><trkpt lat="38.053736140219264" lon="15.846798044694046"><ele>1036.0</ele><time>2026-04-25T10:54:47.001Z</time></trkpt><trkpt lat="38.05368233338022" lon="15.846895792552342"><ele>1034.0</ele><time>2026-04-25T10:54:48.001Z</time></trkpt><trkpt lat="38.053587668564006" lon="15.846976518892152"><ele>1034.0</ele><time>2026-04-25T10:54:49.001Z</time></trkpt><trkpt lat="38.05346700512138" lon="15.847057497969747"><ele>1034.0</ele><time>2026-04-25T10:54:50.001Z</time></trkpt><trkpt lat="38.05339086898386" lon="15.847124928200621"><ele>1034.0</ele><time>2026-04-25T10:54:51.001Z</time></trkpt><trkpt lat="38.05335091719918" lon="15.847190829685234"><ele>1034.0</ele><time>2026-04-25T10:54:52.001Z</time></trkpt><trkpt lat="38.05334835595473" lon="15.847322374604"><ele>1034.0</ele><time>2026-04-25T10:54:54.001Z</time></trkpt><trkpt lat="38.053374813602616" lon="15.847421817108103"><ele>1034.0</ele><time>2026-04-25T10:54:55.001Z</time></trkpt><trkpt lat="38.0534128499829" lon="15.84755357093894"><ele>1034.0</ele><time>2026-04-25T10:54:56.001Z</time></trkpt><trkpt lat="38.053444672719095" lon="15.847683129657165"><ele>1034.0</ele><time>2026-04-25T10:54:57.001Z</time></trkpt><trkpt lat="38.05343512418192" lon="15.847784253777654"><ele>1034.0</ele><time>2026-04-25T10:54:58.001Z</time></trkpt><trkpt lat="38.053432309511784" lon="15.847876242985203"><ele>1034.0</ele><time>2026-04-25T10:54:59.001Z</time></trkpt><trkpt lat="38.05346005485003" lon="15.847960873545137"><ele>1034.0</ele><time>2026-04-25T10:55:00.001Z</time></trkpt><trkpt lat="38.05351593785944" lon="15.848049054629488"><ele>1035.5</ele><time>2026-04-25T10:55:01.001Z</time></trkpt><trkpt lat="38.053588683104465" lon="15.848116046210434"><ele>1037.0</ele><time>2026-04-25T10:55:02.001Z</time></trkpt><trkpt lat="38.053656574974376" lon="15.848152614346622"><ele>1038.5</ele><time>2026-04-25T10:55:03.001Z</time></trkpt><trkpt lat="38.05366999845586" lon="15.848270945463257"><ele>1040.0</ele><time>2026-04-25T10:55:05.001Z</time></trkpt><trkpt lat="38.053633889635115" lon="15.848338851266119"><ele>1041.5</ele><time>2026-04-25T10:55:06.001Z</time></trkpt><trkpt lat="38.05357211238792" lon="15.848416934078093"><ele>1043.0</ele><time>2026-04-25T10:55:07.001Z</time></trkpt><trkpt lat="38.05350058993344" lon="15.848508398118112"><ele>1040.8</ele><time>2026-04-25T10:55:08Z</time></trkpt><trkpt lat="38.053419375731686" lon="15.848581718688116"><ele>1038.6</ele><time>2026-04-25T10:55:09Z</time></trkpt><trkpt lat="38.0533398219398" lon="15.848635924281805"><ele>1036.4</ele><time>2026-04-25T10:55:10Z</time></trkpt><trkpt lat="38.053252768490296" lon="15.848699912378647"><ele>1034.2</ele><time>2026-04-25T10:55:12Z</time></trkpt><trkpt lat="38.053252634552884" lon="15.848859719910507"><ele>1032.0</ele><time>2026-04-25T10:55:14Z</time></trkpt><trkpt lat="38.053280245005716" lon="15.848973855039285"><ele>1039.6</ele><time>2026-04-25T10:55:15Z</time></trkpt><trkpt lat="38.05331145164323" lon="15.84910643985687"><ele>1047.2</ele><time>2026-04-25T10:55:16Z</time></trkpt><trkpt lat="38.053340310151754" lon="15.849223958935307"><ele>1054.8</ele><time>2026-04-25T10:55:17Z</time></trkpt><trkpt lat="38.05335530054429" lon="15.849313579060512"><ele>1062.4</ele><time>2026-04-25T10:55:18Z</time></trkpt><trkpt lat="38.053336547582774" lon="15.849416902753896"><ele>1070.0</ele><time>2026-04-25T10:55:20Z</time></trkpt><trkpt lat="38.05322246086032" lon="15.849451959478474"><ele>1070.0</ele><time>2026-04-25T10:55:22Z</time></trkpt><trkpt lat="38.05312228996268" lon="15.849444075067705"><ele>1070.0</ele><time>2026-04-25T10:55:23Z</time></trkpt><trkpt lat="38.05305215368209" lon="15.84945913955019"><ele>1070.0</ele><time>2026-04-25T10:55:24Z</time></trkpt><trkpt lat="38.05297049831939" lon="15.84953644168438"><ele>1070.0</ele><time>2026-04-25T10:55:26Z</time></trkpt><trkpt lat="38.05294328545296" lon="15.849622563176645"><ele>1070.0</ele><time>2026-04-25T10:55:27Z</time></trkpt><trkpt lat="38.05291379237758" lon="15.849734349596016"><ele>1070.0</ele><time>2026-04-25T10:55:28Z</time></trkpt><trkpt lat="38.05287278887075" lon="15.849845063688186"><ele>1070.0</ele><time>2026-04-25T10:55:29Z</time></trkpt><trkpt lat="38.0528226004265" lon="15.84995673533049"><ele>1070.0</ele><time>2026-04-25T10:55:30Z</time></trkpt><trkpt lat="38.05278282786027" lon="15.850053943304921"><ele>1070.0</ele><time>2026-04-25T10:55:31Z</time></trkpt><trkpt lat="38.05274750043774" lon="15.850162641781619"><ele>1070.0</ele><time>2026-04-25T10:55:32Z</time></trkpt><trkpt lat="38.05270755856813" lon="15.850254167722717"><ele>1070.0</ele><time>2026-04-25T10:55:33Z</time></trkpt><trkpt lat="38.052697750620325" lon="15.850396538542823"><ele>1076.2857142857142</ele><time>2026-04-25T10:55:35Z</time></trkpt><trkpt lat="38.052672911788555" lon="15.850477278957209"><ele>1082.5714285714287</ele><time>2026-04-25T10:55:37Z</time></trkpt><trkpt lat="38.052599416274475" lon="15.850527382260115"><ele>1088.857142857143</ele><time>2026-04-25T10:56:17Z</time></trkpt><trkpt lat="38.052536101420515" lon="15.850501861112875"><ele>1095.142857142857</ele><time>2026-04-25T10:57:03.001Z</time></trkpt><trkpt lat="38.05247707360665" lon="15.850446834489645"><ele>1101.4285714285713</ele><time>2026-04-25T10:58:38Z</time></trkpt><trkpt lat="38.05242300366739" lon="15.850384412202912"><ele>1107.7142857142858</ele><time>2026-04-25T10:58:39Z</time></trkpt><trkpt lat="38.05236327208299" lon="15.850309474122014"><ele>1114.0</ele><time>2026-04-25T10:58:40Z</time></trkpt><trkpt lat="38.052293739989615" lon="15.850252168674578"><ele>1116.6666666666665</ele><time>2026-04-25T10:58:41Z</time></trkpt><trkpt lat="38.05221392318835" lon="15.850218717665676"><ele>1119.3333333333333</ele><time>2026-04-25T10:58:42Z</time></trkpt><trkpt lat="38.052125528481845" lon="15.85019919895904"><ele>1122.0</ele><time>2026-04-25T10:58:42.999Z</time></trkpt><trkpt lat="38.05203566843833" lon="15.850193822296212"><ele>1124.6666666666667</ele><time>2026-04-25T10:58:43.999Z</time></trkpt><trkpt lat="38.05197304213426" lon="15.850168207569306"><ele>1127.3333333333335</ele><time>2026-04-25T10:58:44.999Z</time></trkpt><trkpt lat="38.051921422137" lon="15.850096508318511"><ele>1130.0</ele><time>2026-04-25T10:58:45.999Z</time></trkpt><trkpt lat="38.051854922086136" lon="15.849994695385107"><ele>1124.25</ele><time>2026-04-25T10:58:46.999Z</time></trkpt><trkpt lat="38.051758938307046" lon="15.849868130111142"><ele>1118.5</ele><time>2026-04-25T10:58:47.999Z</time></trkpt><trkpt lat="38.05163428117347" lon="15.849733519551886"><ele>1112.75</ele><time>2026-04-25T10:58:48.999Z</time></trkpt><trkpt lat="38.05154587253415" lon="15.849627424230523"><ele>1107.0</ele><time>2026-04-25T10:58:49.999Z</time></trkpt><trkpt lat="38.05148738671501" lon="15.849533990443556"><ele>1107.0</ele><time>2026-04-25T10:58:50.999Z</time></trkpt><trkpt lat="38.051441240572366" lon="15.849469176429604"><ele>1107.0</ele><time>2026-04-25T10:58:51.999Z</time></trkpt><trkpt lat="38.05137599685453" lon="15.849443565027752"><ele>1107.0</ele><time>2026-04-25T10:58:52.999Z</time></trkpt><trkpt lat="38.05128454072158" lon="15.84944403629189"><ele>1107.0</ele><time>2026-04-25T10:58:53.999Z</time></trkpt><trkpt lat="38.05118357875395" lon="15.849472638426665"><ele>1107.0</ele><time>2026-04-25T10:58:54.999Z</time></trkpt><trkpt lat="38.05107655728714" lon="15.849537838261433"><ele>1107.0</ele><time>2026-04-25T10:58:55.999Z</time></trkpt><trkpt lat="38.0509908755018" lon="15.849602468642125"><ele>1107.0</ele><time>2026-04-25T10:58:56.999Z</time></trkpt><trkpt lat="38.050921149445664" lon="15.84964858785903"><ele>1107.0</ele><time>2026-04-25T10:58:57.999Z</time></trkpt><trkpt lat="38.05083168530436" lon="15.84958437661362"><ele>1107.0</ele><time>2026-04-25T10:59:00Z</time></trkpt><trkpt lat="38.050766304838945" lon="15.849454942489722"><ele>1107.0</ele><time>2026-04-25T10:59:02Z</time></trkpt><trkpt lat="38.05068248107001" lon="15.849335794685134"><ele>1108.5</ele><time>2026-04-25T10:59:03Z</time></trkpt><trkpt lat="38.05057973854496" lon="15.849207583299872"><ele>1110.0</ele><time>2026-04-25T10:59:04Z</time></trkpt><trkpt lat="38.05048074302316" lon="15.849081024569859"><ele>1111.5</ele><time>2026-04-25T10:59:05Z</time></trkpt><trkpt lat="38.0504157723293" lon="15.848972129242854"><ele>1113.0</ele><time>2026-04-25T10:59:06Z</time></trkpt><trkpt lat="38.05037283984324" lon="15.848850453213382"><ele>1113.0</ele><time>2026-04-25T10:59:07Z</time></trkpt><trkpt lat="38.0503459060036" lon="15.848692419408598"><ele>1113.0</ele><time>2026-04-25T10:59:08Z</time></trkpt><trkpt lat="38.05032894429932" lon="15.848510497071658"><ele>1113.0</ele><time>2026-04-25T10:59:09Z</time></trkpt><trkpt lat="38.05031048289511" lon="15.84836167550295"><ele>1113.0</ele><time>2026-04-25T10:59:10Z</time></trkpt><trkpt lat="38.0503215124894" lon="15.8482551052533"><ele>1107.25</ele><time>2026-04-25T10:59:11Z</time></trkpt><trkpt lat="38.050352648263264" lon="15.848167224899745"><ele>1101.5</ele><time>2026-04-25T10:59:12Z</time></trkpt><trkpt lat="38.05031368763718" lon="15.848008578420473"><ele>1095.75</ele><time>2026-04-25T10:59:14Z</time></trkpt><trkpt lat="38.050239220724166" lon="15.847917551242842"><ele>1090.0</ele><time>2026-04-25T10:59:15Z</time></trkpt><trkpt lat="38.05010858401945" lon="15.847806063846061"><ele>1090.0</ele><time>2026-04-25T10:59:16Z</time></trkpt><trkpt lat="38.049959876186335" lon="15.847684593929094"><ele>1090.0</ele><time>2026-04-25T10:59:17Z</time></trkpt><trkpt lat="38.04984503162268" lon="15.84759384563974"><ele>1090.0</ele><time>2026-04-25T10:59:18Z</time></trkpt><trkpt lat="38.04978244174287" lon="15.847502801164195"><ele>1090.0</ele><time>2026-04-25T10:59:19Z</time></trkpt><trkpt lat="38.04975050541877" lon="15.847399131186584"><ele>1093.75</ele><time>2026-04-25T10:59:20Z</time></trkpt><trkpt lat="38.04973650292838" lon="15.847253520154611"><ele>1097.5</ele><time>2026-04-25T10:59:21Z</time></trkpt><trkpt lat="38.049712648843816" lon="15.847058479761914"><ele>1101.25</ele><time>2026-04-25T10:59:22Z</time></trkpt><trkpt lat="38.04969430229755" lon="15.846933060070459"><ele>1105.0</ele><time>2026-04-25T10:59:23Z</time></trkpt><trkpt lat="38.049607953297965" lon="15.84680621284309"><ele>1100.0</ele><time>2026-04-25T10:59:25Z</time></trkpt><trkpt lat="38.04950991370037" lon="15.846754180425588"><ele>1095.0</ele><time>2026-04-25T10:59:26Z</time></trkpt><trkpt lat="38.04938553988622" lon="15.846683684667846"><ele>1090.0</ele><time>2026-04-25T10:59:27Z</time></trkpt><trkpt lat="38.04925251280134" lon="15.846566945112261"><ele>1085.0</ele><time>2026-04-25T10:59:28Z</time></trkpt><trkpt lat="38.04914043078346" lon="15.846414783681924"><ele>1086.0</ele><time>2026-04-25T10:59:29Z</time></trkpt><trkpt lat="38.04906107900754" lon="15.846281752490357"><ele>1087.0</ele><time>2026-04-25T10:59:30Z</time></trkpt><trkpt lat="38.049006068246364" lon="15.846183383947134"><ele>1088.0</ele><time>2026-04-25T10:59:31Z</time></trkpt><trkpt lat="38.04894635200138" lon="15.846130070315795"><ele>1089.0</ele><time>2026-04-25T10:59:32Z</time></trkpt><trkpt lat="38.04882991458073" lon="15.846088426453163"><ele>1090.0</ele><time>2026-04-25T10:59:33Z</time></trkpt><trkpt lat="38.04873524430354" lon="15.846028750111481"><ele>1090.0</ele><time>2026-04-25T10:59:34Z</time></trkpt><trkpt lat="38.048665649930406" lon="15.845976245582428"><ele>1090.0</ele><time>2026-04-25T10:59:35Z</time></trkpt><trkpt lat="38.04856301213974" lon="15.845988643251891"><ele>1090.0</ele><time>2026-04-25T10:59:37Z</time></trkpt><trkpt lat="38.04849199861343" lon="15.846033159578989"><ele>1090.0</ele><time>2026-04-25T10:59:38Z</time></trkpt><trkpt lat="38.04841678668419" lon="15.846084488307767"><ele>1090.0</ele><time>2026-04-25T10:59:39Z</time></trkpt><trkpt lat="38.04829726764792" lon="15.846148397229577"><ele>1083.5</ele><time>2026-04-25T10:59:40Z</time></trkpt><trkpt lat="38.048178110672" lon="15.846201911746308"><ele>1077.0</ele><time>2026-04-25T10:59:41Z</time></trkpt><trkpt lat="38.04806010043267" lon="15.846246979595096"><ele>1070.5</ele><time>2026-04-25T10:59:42Z</time></trkpt><trkpt lat="38.04794631771543" lon="15.846268404423464"><ele>1064.0</ele><time>2026-04-25T10:59:43Z</time></trkpt><trkpt lat="38.04783841512736" lon="15.84626947309341"><ele>1064.0</ele><time>2026-04-25T10:59:44Z</time></trkpt><trkpt lat="38.047744309537734" lon="15.846250654648504"><ele>1064.0</ele><time>2026-04-25T10:59:45Z</time></trkpt><trkpt lat="38.047667900922626" lon="15.846241012781944"><ele>1064.0</ele><time>2026-04-25T10:59:46Z</time></trkpt><trkpt lat="38.04760934546245" lon="15.846270988708127"><ele>1064.0</ele><time>2026-04-25T10:59:47Z</time></trkpt><trkpt lat="38.04756756630694" lon="15.846347147300799"><ele>1064.0</ele><time>2026-04-25T10:59:48Z</time></trkpt><trkpt lat="38.04751666003933" lon="15.846457965393833"><ele>1064.0</ele><time>2026-04-25T10:59:49Z</time></trkpt><trkpt lat="38.04746794211291" lon="15.846609586569835"><ele>1061.5</ele><time>2026-04-25T10:59:50Z</time></trkpt><trkpt lat="38.047404328692934" lon="15.84679502651841"><ele>1059.0</ele><time>2026-04-25T10:59:51Z</time></trkpt><trkpt lat="38.04733436029805" lon="15.846964348963379"><ele>1056.5</ele><time>2026-04-25T10:59:52Z</time></trkpt><trkpt lat="38.047282677475735" lon="15.847083776587658"><ele>1054.0</ele><time>2026-04-25T10:59:53Z</time></trkpt><trkpt lat="38.0472504373372" lon="15.847190437705764"><ele>1054.0</ele><time>2026-04-25T10:59:54Z</time></trkpt><trkpt lat="38.047220328732806" lon="15.847332111961114"><ele>1054.0</ele><time>2026-04-25T10:59:55Z</time></trkpt><trkpt lat="38.04718864088199" lon="15.84747015573687"><ele>1054.0</ele><time>2026-04-25T10:59:56Z</time></trkpt><trkpt lat="38.047170767562065" lon="15.847565165103923"><ele>1054.0</ele><time>2026-04-25T10:59:57Z</time></trkpt><trkpt lat="38.04713606198326" lon="15.84764252623505"><ele>1054.0</ele><time>2026-04-25T10:59:58Z</time></trkpt><trkpt lat="38.04706963045647" lon="15.847674898178472"><ele>1054.0</ele><time>2026-04-25T10:59:59Z</time></trkpt><trkpt lat="38.046985852770746" lon="15.84773829655704"><ele>1057.5</ele><time>2026-04-25T11:00:00Z</time></trkpt><trkpt lat="38.04688917751804" lon="15.847826045502794"><ele>1061.0</ele><time>2026-04-25T11:00:01Z</time></trkpt><trkpt lat="38.046806652818525" lon="15.847863548622154"><ele>1064.5</ele><time>2026-04-25T11:00:02Z</time></trkpt><trkpt lat="38.046736163365416" lon="15.847877278798933"><ele>1068.0</ele><time>2026-04-25T11:00:03Z</time></trkpt><trkpt lat="38.04664534316818" lon="15.847857063441992"><ele>1071.5</ele><time>2026-04-25T11:00:05Z</time></trkpt><trkpt lat="38.046569738733076" lon="15.847850218482657"><ele>1075.0</ele><time>2026-04-25T11:00:08Z</time></trkpt><trkpt lat="38.04650250094096" lon="15.847866268520038"><ele>1075.0</ele><time>2026-04-25T11:00:22Z</time></trkpt><trkpt lat="38.04643369941868" lon="15.84789723739787"><ele>1075.0</ele><time>2026-04-25T11:00:23Z</time></trkpt><trkpt lat="38.0463712185606" lon="15.847946299338844"><ele>1075.0</ele><time>2026-04-25T11:00:24Z</time></trkpt><trkpt lat="38.046288051866775" lon="15.847993308431949"><ele>1075.0</ele><time>2026-04-25T11:00:25Z</time></trkpt><trkpt lat="38.046202583829285" lon="15.848025969302183"><ele>1075.0</ele><time>2026-04-25T11:00:26Z</time></trkpt><trkpt lat="38.04609689897184" lon="15.848007845664975"><ele>1075.0</ele><time>2026-04-25T11:00:27Z</time></trkpt><trkpt lat="38.04597316290559" lon="15.847981806806073"><ele>1075.0</ele><time>2026-04-25T11:00:28Z</time></trkpt><trkpt lat="38.045873057781215" lon="15.847981186868736"><ele>1075.0</ele><time>2026-04-25T11:00:29Z</time></trkpt><trkpt lat="38.04575723857679" lon="15.847993753153949"><ele>1075.0</ele><time>2026-04-25T11:00:30Z</time></trkpt><trkpt lat="38.0455897856588" lon="15.848029943550484"><ele>1075.0</ele><time>2026-04-25T11:00:31Z</time></trkpt><trkpt lat="38.04541497746264" lon="15.84806432475273"><ele>1071.6666666666665</ele><time>2026-04-25T11:00:32Z</time></trkpt><trkpt lat="38.045259201128935" lon="15.848104193003186"><ele>1068.3333333333333</ele><time>2026-04-25T11:00:33Z</time></trkpt><trkpt lat="38.04510387490413" lon="15.848158792228457"><ele>1065.0</ele><time>2026-04-25T11:00:34Z</time></trkpt><trkpt lat="38.04496418822587" lon="15.848195407853414"><ele>1063.75</ele><time>2026-04-25T11:00:35Z</time></trkpt><trkpt lat="38.04484973142635" lon="15.84821784831495"><ele>1062.5</ele><time>2026-04-25T11:00:36Z</time></trkpt><trkpt lat="38.04473762859264" lon="15.848214515515778"><ele>1061.25</ele><time>2026-04-25T11:00:37Z</time></trkpt><trkpt lat="38.04462920028231" lon="15.848245368766799"><ele>1060.0</ele><time>2026-04-25T11:00:38Z</time></trkpt><trkpt lat="38.04450889584316" lon="15.848307129299517"><ele>1060.0</ele><time>2026-04-25T11:00:39Z</time></trkpt><trkpt lat="38.04439028661552" lon="15.848329530374999"><ele>1060.0</ele><time>2026-04-25T11:00:39.999Z</time></trkpt><trkpt lat="38.044278309799566" lon="15.84829637757014"><ele>1060.0</ele><time>2026-04-25T11:00:40.999Z</time></trkpt><trkpt lat="38.0441645844359" lon="15.848226668184898"><ele>1060.0</ele><time>2026-04-25T11:00:41.999Z</time></trkpt><trkpt lat="38.04405966899276" lon="15.848166375530267"><ele>1058.6666666666665</ele><time>2026-04-25T11:00:42.999Z</time></trkpt><trkpt lat="38.04396912539319" lon="15.848142838182342"><ele>1057.3333333333333</ele><time>2026-04-25T11:00:43.999Z</time></trkpt><trkpt lat="38.04388816622571" lon="15.848157397854054"><ele>1056.0</ele><time>2026-04-25T11:00:44.999Z</time></trkpt><trkpt lat="38.04380822737712" lon="15.84819709134841"><ele>1054.6666666666667</ele><time>2026-04-25T11:00:45.999Z</time></trkpt><trkpt lat="38.04374258643434" lon="15.848267569181735"><ele>1053.3333333333335</ele><time>2026-04-25T11:00:46.999Z</time></trkpt><trkpt lat="38.04370556022104" lon="15.84837875835506"><ele>1052.0</ele><time>2026-04-25T11:00:47.999Z</time></trkpt><trkpt lat="38.04367844158156" lon="15.848532577868673"><ele>1052.0</ele><time>2026-04-25T11:00:48.999Z</time></trkpt><trkpt lat="38.04362682677939" lon="15.848700691913832"><ele>1052.0</ele><time>2026-04-25T11:00:49.999Z</time></trkpt><trkpt lat="38.043558590226056" lon="15.848796466820529"><ele>1052.0</ele><time>2026-04-25T11:00:50.999Z</time></trkpt><trkpt lat="38.04348338090751" lon="15.848874745970766"><ele>1052.0</ele><time>2026-04-25T11:00:51.999Z</time></trkpt><trkpt lat="38.04341020832382" lon="15.848989337094899"><ele>1052.0</ele><time>2026-04-25T11:00:52.999Z</time></trkpt><trkpt lat="38.043342092732544" lon="15.849133006129218"><ele>1052.0</ele><time>2026-04-25T11:00:53.999Z</time></trkpt><trkpt lat="38.04328365429641" lon="15.849245377632258"><ele>1052.0</ele><time>2026-04-25T11:00:54.999Z</time></trkpt><trkpt lat="38.04331331654459" lon="15.849334184787311"><ele>1052.0</ele><time>2026-04-25T11:00:56.999Z</time></trkpt><trkpt lat="38.04337171595508" lon="15.849404668863974"><ele>1052.0</ele><time>2026-04-25T11:00:57.999Z</time></trkpt><trkpt lat="38.04345007773953" lon="15.849495511601763"><ele>1052.0</ele><time>2026-04-25T11:00:58.999Z</time></trkpt><trkpt lat="38.04352322420506" lon="15.849534407255268"><ele>1052.0</ele><time>2026-04-25T11:00:59.999Z</time></trkpt><trkpt lat="38.043601742359975" lon="15.849525455907685"><ele>1052.0</ele><time>2026-04-25T11:01:00.999Z</time></trkpt><trkpt lat="38.043674998284665" lon="15.849475759997155"><ele>1052.0</ele><time>2026-04-25T11:01:01.999Z</time></trkpt><trkpt lat="38.043731954420636" lon="15.849411975347858"><ele>1052.0</ele><time>2026-04-25T11:01:02.999Z</time></trkpt><trkpt lat="38.04378600781735" lon="15.849334219765884"><ele>1052.0</ele><time>2026-04-25T11:01:04Z</time></trkpt><trkpt lat="38.04385702111957" lon="15.849289341538922"><ele>1052.0</ele><time>2026-04-25T11:01:05Z</time></trkpt><trkpt lat="38.04393812310039" lon="15.849284713793995"><ele>1052.0</ele><time>2026-04-25T11:01:06Z</time></trkpt><trkpt lat="38.04402550417232" lon="15.849293234914612"><ele>1052.0</ele><time>2026-04-25T11:01:07Z</time></trkpt><trkpt lat="38.044111074753545" lon="15.849339341866651"><ele>1052.0</ele><time>2026-04-25T11:01:08Z</time></trkpt><trkpt lat="38.044191217591944" lon="15.849409381046222"><ele>1052.0</ele><time>2026-04-25T11:01:09Z</time></trkpt><trkpt lat="38.04426645084888" lon="15.84948550609776"><ele>1050.1666666666667</ele><time>2026-04-25T11:01:10Z</time></trkpt><trkpt lat="38.04433631768463" lon="15.849512193133043"><ele>1048.3333333333335</ele><time>2026-04-25T11:01:11Z</time></trkpt><trkpt lat="38.04444232037112" lon="15.849432969648298"><ele>1046.5</ele><time>2026-04-25T11:01:13Z</time></trkpt><trkpt lat="38.04448453796803" lon="15.849353617527965"><ele>1044.6666666666667</ele><time>2026-04-25T11:01:14Z</time></trkpt><trkpt lat="38.04453159186576" lon="15.849281404041905"><ele>1042.8333333333333</ele><time>2026-04-25T11:01:15Z</time></trkpt><trkpt lat="38.04463271687301" lon="15.84927399851443"><ele>1041.0</ele><time>2026-04-25T11:01:17Z</time></trkpt><trkpt lat="38.04472015181304" lon="15.84931417955133"><ele>1041.0</ele><time>2026-04-25T11:01:18Z</time></trkpt><trkpt lat="38.04481953246859" lon="15.849382136289064"><ele>1041.0</ele><time>2026-04-25T11:01:19Z</time></trkpt><trkpt lat="38.04495563629455" lon="15.84947998803042"><ele>1041.0</ele><time>2026-04-25T11:01:20Z</time></trkpt><trkpt lat="38.04508617403239" lon="15.849545772436098"><ele>1041.0</ele><time>2026-04-25T11:01:21Z</time></trkpt><trkpt lat="38.04518278161631" lon="15.849615110107749"><ele>1042.2</ele><time>2026-04-25T11:01:22Z</time></trkpt><trkpt lat="38.04526657386548" lon="15.849717727505206"><ele>1043.3999999999999</ele><time>2026-04-25T11:01:23Z</time></trkpt><trkpt lat="38.04533802793591" lon="15.849781227306389"><ele>1044.6</ele><time>2026-04-25T11:01:24Z</time></trkpt><trkpt lat="38.04540998536348" lon="15.849812504348431"><ele>1045.8</ele><time>2026-04-25T11:01:25Z</time></trkpt><trkpt lat="38.045509011198" lon="15.849799742968242"><ele>1047.0</ele><time>2026-04-25T11:01:26Z</time></trkpt><trkpt lat="38.045643171378245" lon="15.849791961165241"><ele>1047.0</ele><time>2026-04-25T11:01:27Z</time></trkpt><trkpt lat="38.04577782954841" lon="15.849826826065025"><ele>1047.0</ele><time>2026-04-25T11:01:28Z</time></trkpt><trkpt lat="38.04589576491886" lon="15.849884394189711"><ele>1047.0</ele><time>2026-04-25T11:01:29Z</time></trkpt><trkpt lat="38.04603246401421" lon="15.849993624588913"><ele>1047.0</ele><time>2026-04-25T11:01:30Z</time></trkpt><trkpt lat="38.04614265490145" lon="15.850089413278091"><ele>1047.8333333333333</ele><time>2026-04-25T11:01:31Z</time></trkpt><trkpt lat="38.046239937252274" lon="15.850156207070798"><ele>1048.6666666666667</ele><time>2026-04-25T11:01:32Z</time></trkpt><trkpt lat="38.04631744469674" lon="15.850210791244072"><ele>1049.5</ele><time>2026-04-25T11:01:33Z</time></trkpt><trkpt lat="38.04636841610609" lon="15.850267677088118"><ele>1050.3333333333335</ele><time>2026-04-25T11:01:34Z</time></trkpt><trkpt lat="38.046403472532646" lon="15.850401738581985"><ele>1051.1666666666667</ele><time>2026-04-25T11:01:36Z</time></trkpt><trkpt lat="38.04636738793341" lon="15.850475478084379"><ele>1052.0</ele><time>2026-04-25T11:01:37Z</time></trkpt><trkpt lat="38.04629114076967" lon="15.85053200097243"><ele>1052.0</ele><time>2026-04-25T11:01:38Z</time></trkpt><trkpt lat="38.046195917763725" lon="15.850567100396622"><ele>1052.0</ele><time>2026-04-25T11:01:39Z</time></trkpt><trkpt lat="38.0460981241253" lon="15.850595497697391"><ele>1052.0</ele><time>2026-04-25T11:01:40Z</time></trkpt><trkpt lat="38.046018083481506" lon="15.850634849765147"><ele>1052.0</ele><time>2026-04-25T11:01:41Z</time></trkpt><trkpt lat="38.045952985576875" lon="15.850700417264896"><ele>1052.0</ele><time>2026-04-25T11:01:42Z</time></trkpt><trkpt lat="38.04586473112391" lon="15.850781644488597"><ele>1047.5</ele><time>2026-04-25T11:01:43Z</time></trkpt><trkpt lat="38.04575121374388" lon="15.850926575992293"><ele>1043.0</ele><time>2026-04-25T11:01:44Z</time></trkpt><trkpt lat="38.04565368034646" lon="15.851037294231263"><ele>1038.5</ele><time>2026-04-25T11:01:45Z</time></trkpt><trkpt lat="38.04557869352887" lon="15.851102603079887"><ele>1034.0</ele><time>2026-04-25T11:01:46Z</time></trkpt><trkpt lat="38.04552985508553" lon="15.851172937232663"><ele>1034.0</ele><time>2026-04-25T11:01:47Z</time></trkpt><trkpt lat="38.0454999083296" lon="15.85131650587539"><ele>1034.0</ele><time>2026-04-25T11:01:49Z</time></trkpt><trkpt lat="38.045481338542096" lon="15.851414538557366"><ele>1034.0</ele><time>2026-04-25T11:01:50Z</time></trkpt><trkpt lat="38.04547356422198" lon="15.851519372559007"><ele>1034.0</ele><time>2026-04-25T11:01:51Z</time></trkpt><trkpt lat="38.0454719404595" lon="15.851623314038923"><ele>1034.0</ele><time>2026-04-25T11:01:52Z</time></trkpt><trkpt lat="38.045458601132296" lon="15.851762005908999"><ele>1034.3333333333335</ele><time>2026-04-25T11:01:53Z</time></trkpt><trkpt lat="38.04546432906248" lon="15.85186382356359"><ele>1034.6666666666667</ele><time>2026-04-25T11:01:54Z</time></trkpt><trkpt lat="38.0454915034275" lon="15.851951787529067"><ele>1035.0</ele><time>2026-04-25T11:01:56Z</time></trkpt><trkpt lat="38.0455689451062" lon="15.851991239222457"><ele>1035.3333333333333</ele><time>2026-04-25T11:01:58Z</time></trkpt><trkpt lat="38.04564736224681" lon="15.852028963189861"><ele>1035.6666666666665</ele><time>2026-04-25T11:01:59Z</time></trkpt><trkpt lat="38.04573015030996" lon="15.852087953522116"><ele>1036.0</ele><time>2026-04-25T11:02:00Z</time></trkpt><trkpt lat="38.045814537999235" lon="15.852168109180491"><ele>1038.6</ele><time>2026-04-25T11:02:01Z</time></trkpt><trkpt lat="38.045886762566454" lon="15.852247567993132"><ele>1041.1999999999998</ele><time>2026-04-25T11:02:02Z</time></trkpt><trkpt lat="38.04596499277617" lon="15.852266388712076"><ele>1043.8000000000002</ele><time>2026-04-25T11:02:03Z</time></trkpt><trkpt lat="38.04606270498315" lon="15.85223382631094"><ele>1046.4</ele><time>2026-04-25T11:02:04Z</time></trkpt><trkpt lat="38.04618258942565" lon="15.852196404152528"><ele>1049.0</ele><time>2026-04-25T11:02:05Z</time></trkpt><trkpt lat="38.046333550689845" lon="15.85216832845982"><ele>1049.0</ele><time>2026-04-25T11:02:06Z</time></trkpt><trkpt lat="38.04651004461719" lon="15.85214435240753"><ele>1049.0</ele><time>2026-04-25T11:02:07Z</time></trkpt><trkpt lat="38.04667896897675" lon="15.852122773015012"><ele>1049.0</ele><time>2026-04-25T11:02:08Z</time></trkpt><trkpt lat="38.04682281972414" lon="15.852128177117295"><ele>1053.3333333333335</ele><time>2026-04-25T11:02:09Z</time></trkpt><trkpt lat="38.04698467584635" lon="15.852168834903683"><ele>1057.6666666666667</ele><time>2026-04-25T11:02:10Z</time></trkpt><trkpt lat="38.047175811103784" lon="15.852239616760103"><ele>1062.0</ele><time>2026-04-25T11:02:11Z</time></trkpt><trkpt lat="38.047342293001165" lon="15.85232808259648"><ele>1065.75</ele><time>2026-04-25T11:02:12Z</time></trkpt><trkpt lat="38.047468086357064" lon="15.852394935079266"><ele>1069.5</ele><time>2026-04-25T11:02:13Z</time></trkpt><trkpt lat="38.047589626648076" lon="15.852425252959668"><ele>1073.25</ele><time>2026-04-25T11:02:14Z</time></trkpt><trkpt lat="38.04771908571496" lon="15.852413399435477"><ele>1077.0</ele><time>2026-04-25T11:02:15Z</time></trkpt><trkpt lat="38.04783983902875" lon="15.852366182044452"><ele>1077.0</ele><time>2026-04-25T11:02:16Z</time></trkpt><trkpt lat="38.047937439240854" lon="15.852341858863253"><ele>1077.0</ele><time>2026-04-25T11:02:17Z</time></trkpt><trkpt lat="38.048010005722375" lon="15.852380455346829"><ele>1077.0</ele><time>2026-04-25T11:02:18Z</time></trkpt><trkpt lat="38.04805944907203" lon="15.852471462609225"><ele>1077.0</ele><time>2026-04-25T11:02:19Z</time></trkpt><trkpt lat="38.04808637555699" lon="15.852610122059247"><ele>1077.0</ele><time>2026-04-25T11:02:19.999Z</time></trkpt><trkpt lat="38.04812170331988" lon="15.852778184305114"><ele>1077.3333333333333</ele><time>2026-04-25T11:02:20.999Z</time></trkpt><trkpt lat="38.048177130698065" lon="15.85290660366813"><ele>1077.6666666666667</ele><time>2026-04-25T11:02:21.999Z</time></trkpt><trkpt lat="38.04824454403016" lon="15.85298527759519"><ele>1078.0</ele><time>2026-04-25T11:02:22.999Z</time></trkpt><trkpt lat="38.04832342433924" lon="15.853025651652318"><ele>1078.3333333333335</ele><time>2026-04-25T11:02:23.999Z</time></trkpt><trkpt lat="38.04840842012416" lon="15.853018655892788"><ele>1078.6666666666667</ele><time>2026-04-25T11:02:24.999Z</time></trkpt><trkpt lat="38.04846422107332" lon="15.852970718334971"><ele>1079.0</ele><time>2026-04-25T11:02:25.999Z</time></trkpt><trkpt lat="38.048466477715586" lon="15.852886336028423"><ele>1079.0</ele><time>2026-04-25T11:02:26.999Z</time></trkpt><trkpt lat="38.04843072330903" lon="15.852810907617242"><ele>1079.0</ele><time>2026-04-25T11:02:27.999Z</time></trkpt><trkpt lat="38.048367352019625" lon="15.852719876077986"><ele>1079.0</ele><time>2026-04-25T11:02:28.999Z</time></trkpt><trkpt lat="38.04831937972154" lon="15.85261900432351"><ele>1079.0</ele><time>2026-04-25T11:02:29.999Z</time></trkpt><trkpt lat="38.04832105242509" lon="15.85250121931762"><ele>1079.0</ele><time>2026-04-25T11:02:30.999Z</time></trkpt><trkpt lat="38.0483511542189" lon="15.852341350462812"><ele>1078.5</ele><time>2026-04-25T11:02:31.999Z</time></trkpt><trkpt lat="38.048354301344034" lon="15.852184623873795"><ele>1078.0</ele><time>2026-04-25T11:02:32.999Z</time></trkpt><trkpt lat="38.04831147454282" lon="15.852039995055355"><ele>1077.5</ele><time>2026-04-25T11:02:33.999Z</time></trkpt><trkpt lat="38.04823693623064" lon="15.851904665428416"><ele>1077.0</ele><time>2026-04-25T11:02:34.999Z</time></trkpt><trkpt lat="38.048147458118684" lon="15.851771871213757"><ele>1082.25</ele><time>2026-04-25T11:02:35.999Z</time></trkpt><trkpt lat="38.04807257120402" lon="15.851634276700855"><ele>1087.5</ele><time>2026-04-25T11:02:36.999Z</time></trkpt><trkpt lat="38.04802318687858" lon="15.851486332804843"><ele>1092.75</ele><time>2026-04-25T11:02:37.999Z</time></trkpt><trkpt lat="38.047995631319544" lon="15.851321807503577"><ele>1098.0</ele><time>2026-04-25T11:02:38.999Z</time></trkpt><trkpt lat="38.04796515451654" lon="15.851141780771753"><ele>1098.0</ele><time>2026-04-25T11:02:39.999Z</time></trkpt><trkpt lat="38.04792625197465" lon="15.850960546956864"><ele>1098.0</ele><time>2026-04-25T11:02:40.999Z</time></trkpt><trkpt lat="38.04787890065685" lon="15.85077891065449"><ele>1098.0</ele><time>2026-04-25T11:02:41.999Z</time></trkpt><trkpt lat="38.047817689409534" lon="15.850616061356964"><ele>1098.0</ele><time>2026-04-25T11:02:42.999Z</time></trkpt><trkpt lat="38.047747182245075" lon="15.850484572206769"><ele>1098.3333333333333</ele><time>2026-04-25T11:02:43.999Z</time></trkpt><trkpt lat="38.04767505870637" lon="15.850386542253274"><ele>1098.6666666666667</ele><time>2026-04-25T11:02:44.999Z</time></trkpt><trkpt lat="38.047610541532364" lon="15.850298931801305"><ele>1099.0</ele><time>2026-04-25T11:02:45.999Z</time></trkpt><trkpt lat="38.04756182735925" lon="15.850223107049711"><ele>1099.3333333333335</ele><time>2026-04-25T11:02:46.999Z</time></trkpt><trkpt lat="38.047530339096554" lon="15.850143716899302"><ele>1099.6666666666667</ele><time>2026-04-25T11:02:47.999Z</time></trkpt><trkpt lat="38.047499486330516" lon="15.850049721335155"><ele>1100.0</ele><time>2026-04-25T11:02:48.999Z</time></trkpt><trkpt lat="38.04747443894674" lon="15.849953068900467"><ele>1102.3333333333335</ele><time>2026-04-25T11:02:49.999Z</time></trkpt><trkpt lat="38.047449808032454" lon="15.849854013374914"><ele>1104.6666666666667</ele><time>2026-04-25T11:02:50.999Z</time></trkpt><trkpt lat="38.04743154211197" lon="15.849775699489122"><ele>1107.0</ele><time>2026-04-25T11:02:51.999Z</time></trkpt><trkpt lat="38.04741990110779" lon="15.849666451425355"><ele>1109.3333333333333</ele><time>2026-04-25T11:02:53.999Z</time></trkpt><trkpt lat="38.047470434364186" lon="15.849591368974917"><ele>1111.6666666666665</ele><time>2026-04-25T11:03:16Z</time></trkpt><trkpt lat="38.04757726055944" lon="15.84956511693687"><ele>1114.0</ele><time>2026-04-25T11:03:18Z</time></trkpt><trkpt lat="38.04764278084471" lon="15.84958525828735"><ele>1114.0</ele><time>2026-04-25T11:03:19Z</time></trkpt><trkpt lat="38.04771938896939" lon="15.849633903316633"><ele>1114.0</ele><time>2026-04-25T11:03:20Z</time></trkpt><trkpt lat="38.04778549944881" lon="15.849677218900457"><ele>1114.0</ele><time>2026-04-25T11:03:21Z</time></trkpt><trkpt lat="38.04785515865268" lon="15.849718530368929"><ele>1114.0</ele><time>2026-04-25T11:03:22Z</time></trkpt><trkpt lat="38.047947793336604" lon="15.84976390117511"><ele>1114.0</ele><time>2026-04-25T11:03:23Z</time></trkpt><trkpt lat="38.04804792126945" lon="15.849807517588069"><ele>1114.0</ele><time>2026-04-25T11:03:24Z</time></trkpt><trkpt lat="38.04815610835229" lon="15.849858404694128"><ele>1114.0</ele><time>2026-04-25T11:03:25Z</time></trkpt><trkpt lat="38.04827091027959" lon="15.849912627576536"><ele>1114.0</ele><time>2026-04-25T11:03:26Z</time></trkpt><trkpt lat="38.048391799331384" lon="15.849975409711634"><ele>1114.0</ele><time>2026-04-25T11:03:27Z</time></trkpt><trkpt lat="38.04851491710393" lon="15.850044179202783"><ele>1114.0</ele><time>2026-04-25T11:03:28Z</time></trkpt><trkpt lat="38.04864230004926" lon="15.850115917180736"><ele>1115.75</ele><time>2026-04-25T11:03:29Z</time></trkpt><trkpt lat="38.04876973945364" lon="15.850191926362928"><ele>1117.5</ele><time>2026-04-25T11:03:30Z</time></trkpt><trkpt lat="38.04890049510389" lon="15.850263749563048"><ele>1119.25</ele><time>2026-04-25T11:03:31Z</time></trkpt><trkpt lat="38.049032992382536" lon="15.850331884716354"><ele>1121.0</ele><time>2026-04-25T11:03:32Z</time></trkpt><trkpt lat="38.04916305683924" lon="15.850408980063694"><ele>1126.6666666666667</ele><time>2026-04-25T11:03:33Z</time></trkpt><trkpt lat="38.04928434250221" lon="15.850508665088256"><ele>1132.3333333333333</ele><time>2026-04-25T11:03:34Z</time></trkpt><trkpt lat="38.04940774586633" lon="15.850634198352394"><ele>1138.0</ele><time>2026-04-25T11:03:35Z</time></trkpt><trkpt lat="38.04954168931906" lon="15.850791789256483"><ele>1138.0</ele><time>2026-04-25T11:03:36Z</time></trkpt><trkpt lat="38.049668723848065" lon="15.850949765328918"><ele>1138.0</ele><time>2026-04-25T11:03:37Z</time></trkpt><trkpt lat="38.04978206714864" lon="15.851093604891025"><ele>1138.0</ele><time>2026-04-25T11:03:38Z</time></trkpt><trkpt lat="38.04988196002168" lon="15.851213369038398"><ele>1140.5</ele><time>2026-04-25T11:03:39Z</time></trkpt><trkpt lat="38.04998496898839" lon="15.851325420579562"><ele>1143.0</ele><time>2026-04-25T11:03:40Z</time></trkpt><trkpt lat="38.050091325156906" lon="15.851429310663844"><ele>1145.5</ele><time>2026-04-25T11:03:41Z</time></trkpt><trkpt lat="38.05019884186136" lon="15.851533319907613"><ele>1148.0</ele><time>2026-04-25T11:03:42Z</time></trkpt><trkpt lat="38.0503104270653" lon="15.851640744951034"><ele>1148.0</ele><time>2026-04-25T11:03:43Z</time></trkpt><trkpt lat="38.050433150208306" lon="15.85175826304563"><ele>1148.0</ele><time>2026-04-25T11:03:44Z</time></trkpt><trkpt lat="38.05055738451465" lon="15.851882811907034"><ele>1148.0</ele><time>2026-04-25T11:03:45Z</time></trkpt><trkpt lat="38.05066597504051" lon="15.85201956115232"><ele>1148.5</ele><time>2026-04-25T11:03:46Z</time></trkpt><trkpt lat="38.05075511166992" lon="15.852157731002857"><ele>1149.0</ele><time>2026-04-25T11:03:47Z</time></trkpt><trkpt lat="38.05083011406656" lon="15.85227808371834"><ele>1149.5</ele><time>2026-04-25T11:03:48Z</time></trkpt><trkpt lat="38.05090883456085" lon="15.852369849437023"><ele>1150.0</ele><time>2026-04-25T11:03:49Z</time></trkpt><trkpt lat="38.05098515285131" lon="15.852445791067426"><ele>1150.0</ele><time>2026-04-25T11:03:50Z</time></trkpt><trkpt lat="38.05106575673088" lon="15.852503360050367"><ele>1150.0</ele><time>2026-04-25T11:03:51Z</time></trkpt><trkpt lat="38.051160014815956" lon="15.85253577165186"><ele>1150.0</ele><time>2026-04-25T11:03:52Z</time></trkpt><trkpt lat="38.051275841233775" lon="15.852546941273085"><ele>1150.0</ele><time>2026-04-25T11:03:53Z</time></trkpt><trkpt lat="38.051414755269114" lon="15.85254725600283"><ele>1150.0</ele><time>2026-04-25T11:03:54Z</time></trkpt><trkpt lat="38.05156879991484" lon="15.852542406708157"><ele>1152.25</ele><time>2026-04-25T11:03:55Z</time></trkpt><trkpt lat="38.05172945209689" lon="15.852525737972803"><ele>1154.5</ele><time>2026-04-25T11:03:56Z</time></trkpt><trkpt lat="38.05187793979303" lon="15.852514109668007"><ele>1156.75</ele><time>2026-04-25T11:03:57Z</time></trkpt><trkpt lat="38.05199728639959" lon="15.852518475339496"><ele>1159.0</ele><time>2026-04-25T11:03:58Z</time></trkpt><trkpt lat="38.052094849505174" lon="15.852532205446272"><ele>1159.0</ele><time>2026-04-25T11:03:59Z</time></trkpt><trkpt lat="38.052171826831454" lon="15.852525499542088"><ele>1159.0</ele><time>2026-04-25T11:04:00Z</time></trkpt><trkpt lat="38.0522355711117" lon="15.852491742574317"><ele>1159.0</ele><time>2026-04-25T11:04:01Z</time></trkpt><trkpt lat="38.05231828073901" lon="15.85242364428115"><ele>1159.0</ele><time>2026-04-25T11:04:02Z</time></trkpt><trkpt lat="38.052412813723336" lon="15.852336804071296"><ele>1159.0</ele><time>2026-04-25T11:04:03Z</time></trkpt><trkpt lat="38.052511198429514" lon="15.852260331967834"><ele>1159.4</ele><time>2026-04-25T11:04:04Z</time></trkpt><trkpt lat="38.05262208528041" lon="15.85222262641552"><ele>1159.8000000000002</ele><time>2026-04-25T11:04:05Z</time></trkpt><trkpt lat="38.052737346152796" lon="15.852201292686363"><ele>1160.1999999999998</ele><time>2026-04-25T11:04:05.999Z</time></trkpt><trkpt lat="38.05284632715887" lon="15.852161378156074"><ele>1160.6</ele><time>2026-04-25T11:04:06.999Z</time></trkpt><trkpt lat="38.05294567125941" lon="15.852129544060332"><ele>1161.0</ele><time>2026-04-25T11:04:07.999Z</time></trkpt><trkpt lat="38.0530363836219" lon="15.852144170564825"><ele>1161.0</ele><time>2026-04-25T11:04:08.999Z</time></trkpt><trkpt lat="38.05312356616931" lon="15.852212779990827"><ele>1161.0</ele><time>2026-04-25T11:04:09.999Z</time></trkpt><trkpt lat="38.05319556051245" lon="15.852310256284191"><ele>1161.0</ele><time>2026-04-25T11:04:10.999Z</time></trkpt><trkpt lat="38.05323975507922" lon="15.852421962536672"><ele>1161.0</ele><time>2026-04-25T11:04:11.999Z</time></trkpt><trkpt lat="38.05328204479773" lon="15.852498062746054"><ele>1161.0</ele><time>2026-04-25T11:04:12.999Z</time></trkpt><trkpt lat="38.053342164144375" lon="15.852535838691665"><ele>1161.0</ele><time>2026-04-25T11:04:13.999Z</time></trkpt><trkpt lat="38.05344940094244" lon="15.85247150807174"><ele>1163.0</ele><time>2026-04-25T11:04:15.999Z</time></trkpt><trkpt lat="38.0535018732418" lon="15.852388064744897"><ele>1165.0</ele><time>2026-04-25T11:04:16.999Z</time></trkpt><trkpt lat="38.05356344033841" lon="15.852262883400705"><ele>1167.0</ele><time>2026-04-25T11:04:17.999Z</time></trkpt><trkpt lat="38.05363143165025" lon="15.852104137056038"><ele>1169.0</ele><time>2026-04-25T11:04:18.999Z</time></trkpt><trkpt lat="38.05371325241218" lon="15.851931527173123"><ele>1169.0</ele><time>2026-04-25T11:04:19.999Z</time></trkpt><trkpt lat="38.05378251795875" lon="15.851800746487388"><ele>1169.0</ele><time>2026-04-25T11:04:20.999Z</time></trkpt><trkpt lat="38.053845396775635" lon="15.851751903426157"><ele>1169.0</ele><time>2026-04-25T11:04:21.999Z</time></trkpt><trkpt lat="38.05396095438718" lon="15.8517011176424"><ele>1169.0</ele><time>2026-04-25T11:04:22.999Z</time></trkpt><trkpt lat="38.05411700916261" lon="15.851624766140743"><ele>1172.25</ele><time>2026-04-25T11:04:23.999Z</time></trkpt><trkpt lat="38.05424747785287" lon="15.851531177654158"><ele>1175.5</ele><time>2026-04-25T11:04:24.999Z</time></trkpt><trkpt lat="38.054336495204524" lon="15.851474023656076"><ele>1178.75</ele><time>2026-04-25T11:04:25.999Z</time></trkpt><trkpt lat="38.054424459834884" lon="15.85143165310193"><ele>1182.0</ele><time>2026-04-25T11:04:26.999Z</time></trkpt><trkpt lat="38.05456332810267" lon="15.851402194801258"><ele>1182.0</ele><time>2026-04-25T11:04:27.999Z</time></trkpt><trkpt lat="38.05469931389741" lon="15.851372399873162"><ele>1182.0</ele><time>2026-04-25T11:04:28.999Z</time></trkpt><trkpt lat="38.054846424623136" lon="15.851358313927866"><ele>1182.0</ele><time>2026-04-25T11:04:29.999Z</time></trkpt><trkpt lat="38.05499511606879" lon="15.85136060848484"><ele>1182.0</ele><time>2026-04-25T11:04:30.999Z</time></trkpt><trkpt lat="38.05512296732622" lon="15.851354871288128"><ele>1183.0</ele><time>2026-04-25T11:04:31.999Z</time></trkpt><trkpt lat="38.055223484377066" lon="15.851335508790436"><ele>1184.0</ele><time>2026-04-25T11:04:32.999Z</time></trkpt><trkpt lat="38.055306862211175" lon="15.85131660467071"><ele>1185.0</ele><time>2026-04-25T11:04:33.999Z</time></trkpt><trkpt lat="38.055380913717734" lon="15.851326455635837"><ele>1186.0</ele><time>2026-04-25T11:04:34.999Z</time></trkpt><trkpt lat="38.055440244627775" lon="15.851359038821549"><ele>1187.0</ele><time>2026-04-25T11:04:35.999Z</time></trkpt><trkpt lat="38.05550243878071" lon="15.851499753927795"><ele>1187.0</ele><time>2026-04-25T11:04:37.999Z</time></trkpt><trkpt lat="38.05549471669422" lon="15.851582529277803"><ele>1187.0</ele><time>2026-04-25T11:04:38.999Z</time></trkpt><trkpt lat="38.055472407940535" lon="15.851659990152607"><ele>1187.0</ele><time>2026-04-25T11:04:39.999Z</time></trkpt><trkpt lat="38.05546303287602" lon="15.851769082164923"><ele>1187.0</ele><time>2026-04-25T11:04:40.999Z</time></trkpt><trkpt lat="38.05548120921114" lon="15.851869767253309"><ele>1187.0</ele><time>2026-04-25T11:04:41.999Z</time></trkpt><trkpt lat="38.05552187373737" lon="15.851962810369796"><ele>1187.0</ele><time>2026-04-25T11:04:42.999Z</time></trkpt><trkpt lat="38.0555738509534" lon="15.852064507474505"><ele>1187.8</ele><time>2026-04-25T11:04:43.999Z</time></trkpt><trkpt lat="38.05563107955676" lon="15.852152869513784"><ele>1188.6</ele><time>2026-04-25T11:04:44.999Z</time></trkpt><trkpt lat="38.05571249505826" lon="15.852224906909484"><ele>1189.3999999999999</ele><time>2026-04-25T11:04:45.999Z</time></trkpt><trkpt lat="38.055811887043795" lon="15.852295975233705"><ele>1190.2</ele><time>2026-04-25T11:04:46.999Z</time></trkpt><trkpt lat="38.05591297990019" lon="15.852386385547236"><ele>1191.0</ele><time>2026-04-25T11:04:47.999Z</time></trkpt><trkpt lat="38.05598278382193" lon="15.85249199909374"><ele>1191.0</ele><time>2026-04-25T11:04:48.999Z</time></trkpt><trkpt lat="38.05601880859573" lon="15.85259487786004"><ele>1191.0</ele><time>2026-04-25T11:04:49.999Z</time></trkpt><trkpt lat="38.05604396477067" lon="15.85274299569315"><ele>1191.0</ele><time>2026-04-25T11:04:50.999Z</time></trkpt><trkpt lat="38.05606449927503" lon="15.852891997464853"><ele>1191.0</ele><time>2026-04-25T11:04:51.999Z</time></trkpt><trkpt lat="38.05607053466941" lon="15.852991938395554"><ele>1191.0</ele><time>2026-04-25T11:04:52.999Z</time></trkpt><trkpt lat="38.05604865086107" lon="15.853068673067494"><ele>1192.3999999999999</ele><time>2026-04-25T11:04:53.999Z</time></trkpt><trkpt lat="38.05601211610154" lon="15.853139826133148"><ele>1193.8</ele><time>2026-04-25T11:04:54.999Z</time></trkpt><trkpt lat="38.055884007557644" lon="15.853153753348767"><ele>1195.1999999999998</ele><time>2026-04-25T11:04:56.999Z</time></trkpt><trkpt lat="38.0557934597714" lon="15.853159000720447"><ele>1196.6</ele><time>2026-04-25T11:04:57.999Z</time></trkpt><trkpt lat="38.05575376784076" lon="15.853262390730103"><ele>1198.0</ele><time>2026-04-25T11:04:59.999Z</time></trkpt><trkpt lat="38.05575533577173" lon="15.853361889374805"><ele>1198.8</ele><time>2026-04-25T11:05:00.999Z</time></trkpt><trkpt lat="38.05578537925093" lon="15.853455053937514"><ele>1199.6</ele><time>2026-04-25T11:05:01.999Z</time></trkpt><trkpt lat="38.05582979321155" lon="15.853521565610691"><ele>1200.4</ele><time>2026-04-25T11:05:03.999Z</time></trkpt><trkpt lat="38.05590574039886" lon="15.853643033868206"><ele>1201.2</ele><time>2026-04-25T11:05:14.999Z</time></trkpt><trkpt lat="38.05594933357696" lon="15.853745961435656"><ele>1202.0</ele><time>2026-04-25T11:05:15.999Z</time></trkpt><trkpt lat="38.05600240909999" lon="15.853857463916784"><ele>1202.0</ele><time>2026-04-25T11:05:16.999Z</time></trkpt><trkpt lat="38.05604258203351" lon="15.85397385297981"><ele>1202.0</ele><time>2026-04-25T11:05:17.999Z</time></trkpt><trkpt lat="38.056077592452546" lon="15.8540895027194"><ele>1202.0</ele><time>2026-04-25T11:05:18.999Z</time></trkpt><trkpt lat="38.056118118828124" lon="15.854222111338512"><ele>1202.0</ele><time>2026-04-25T11:05:19.999Z</time></trkpt><trkpt lat="38.05614912452644" lon="15.85438911390478"><ele>1202.0</ele><time>2026-04-25T11:05:20.999Z</time></trkpt><trkpt lat="38.056174332361195" lon="15.854566603457462"><ele>1201.6</ele><time>2026-04-25T11:05:21.999Z</time></trkpt><trkpt lat="38.0561914192751" lon="15.854728749428308"><ele>1201.2</ele><time>2026-04-25T11:05:22.999Z</time></trkpt><trkpt lat="38.05620949139623" lon="15.854829218440685"><ele>1200.8</ele><time>2026-04-25T11:05:23.999Z</time></trkpt><trkpt lat="38.05624482211347" lon="15.854899265945605"><ele>1200.4</ele><time>2026-04-25T11:05:24.999Z</time></trkpt><trkpt lat="38.05629458241733" lon="15.854964750913478"><ele>1200.0</ele><time>2026-04-25T11:05:25.999Z</time></trkpt><trkpt lat="38.056397441800264" lon="15.85503625527967"><ele>1198.0</ele><time>2026-04-25T11:05:26.999Z</time></trkpt><trkpt lat="38.05652630877561" lon="15.855121508428763"><ele>1196.0</ele><time>2026-04-25T11:05:27.999Z</time></trkpt><trkpt lat="38.05663383240007" lon="15.85520138792816"><ele>1194.0</ele><time>2026-04-25T11:05:28.999Z</time></trkpt><trkpt lat="38.05673873371948" lon="15.855290449272125"><ele>1192.0</ele><time>2026-04-25T11:05:29.999Z</time></trkpt><trkpt lat="38.0567821646308" lon="15.855378252658056"><ele>1195.4</ele><time>2026-04-25T11:05:31.999Z</time></trkpt><trkpt lat="38.05684577205454" lon="15.855398172529073"><ele>1198.8000000000002</ele><time>2026-04-25T11:05:32.999Z</time></trkpt><trkpt lat="38.05694661517941" lon="15.85540834328456"><ele>1202.2</ele><time>2026-04-25T11:05:33.999Z</time></trkpt><trkpt lat="38.057054656904" lon="15.855352636992613"><ele>1205.6000000000001</ele><time>2026-04-25T11:05:34.999Z</time></trkpt><trkpt lat="38.05715401161516" lon="15.855290155122555"><ele>1209.0</ele><time>2026-04-25T11:05:35.999Z</time></trkpt><trkpt lat="38.0572473058677" lon="15.855289619598159"><ele>1209.0</ele><time>2026-04-25T11:05:37.999Z</time></trkpt><trkpt lat="38.05728918313043" lon="15.855403584473743"><ele>1209.0</ele><time>2026-04-25T11:05:39.999Z</time></trkpt><trkpt lat="38.05728428381819" lon="15.855517005460012"><ele>1209.0</ele><time>2026-04-25T11:05:41.999Z</time></trkpt><trkpt lat="38.05730439797225" lon="15.855597032400995"><ele>1209.0</ele><time>2026-04-25T11:05:42.999Z</time></trkpt><trkpt lat="38.057376775195856" lon="15.855649545891"><ele>1209.0</ele><time>2026-04-25T11:05:43.999Z</time></trkpt><trkpt lat="38.05746200204578" lon="15.855736080696225"><ele>1209.0</ele><time>2026-04-25T11:05:44.999Z</time></trkpt><trkpt lat="38.057523695462685" lon="15.85578805839628"><ele>1211.4</ele><time>2026-04-25T11:05:45.999Z</time></trkpt><trkpt lat="38.05762423719404" lon="15.855843072702267"><ele>1213.8000000000002</ele><time>2026-04-25T11:05:47.999Z</time></trkpt><trkpt lat="38.05763662360963" lon="15.855716497806203"><ele>1216.1999999999998</ele><time>2026-04-25T11:05:49.999Z</time></trkpt><trkpt lat="38.05757336689792" lon="15.855559325646261"><ele>1218.6</ele><time>2026-04-25T11:05:51.999Z</time></trkpt><trkpt lat="38.057520495814785" lon="15.855484521709668"><ele>1221.0</ele><time>2026-04-25T11:05:52.999Z</time></trkpt><trkpt lat="38.05750677183739" lon="15.85539933385681"><ele>1221.0</ele><time>2026-04-25T11:05:53.999Z</time></trkpt><trkpt lat="38.05753982479894" lon="15.855278940945276"><ele>1221.0</ele><time>2026-04-25T11:05:54.999Z</time></trkpt><trkpt lat="38.05758538369989" lon="15.855158075285345"><ele>1221.0</ele><time>2026-04-25T11:05:55.999Z</time></trkpt><trkpt lat="38.057620615318044" lon="15.855034569716167"><ele>1221.0</ele><time>2026-04-25T11:05:56.999Z</time></trkpt><trkpt lat="38.05764614527245" lon="15.85493242778063"><ele>1221.0</ele><time>2026-04-25T11:05:57.999Z</time></trkpt><trkpt lat="38.057629256514645" lon="15.854806670419451"><ele>1220.2</ele><time>2026-04-25T11:05:59.999Z</time></trkpt><trkpt lat="38.057506204243225" lon="15.854744665830514"><ele>1219.3999999999999</ele><time>2026-04-25T11:06:01.999Z</time></trkpt><trkpt lat="38.05740374863744" lon="15.85473807423846"><ele>1218.6</ele><time>2026-04-25T11:06:02.999Z</time></trkpt><trkpt lat="38.05732223764202" lon="15.854697682206554"><ele>1217.8</ele><time>2026-04-25T11:06:03.999Z</time></trkpt><trkpt lat="38.057268614675344" lon="15.854631053027846"><ele>1217.0</ele><time>2026-04-25T11:06:04.999Z</time></trkpt><trkpt lat="38.057285203101735" lon="15.854442232749324"><ele>1217.0</ele><time>2026-04-25T11:06:06.999Z</time></trkpt><trkpt lat="38.05734087084446" lon="15.854336132230399"><ele>1217.0</ele><time>2026-04-25T11:06:07.999Z</time></trkpt><trkpt lat="38.05741994091838" lon="15.854218230431384"><ele>1217.0</ele><time>2026-04-25T11:06:08.999Z</time></trkpt><trkpt lat="38.05749189153018" lon="15.854124448246521"><ele>1217.0</ele><time>2026-04-25T11:06:09.999Z</time></trkpt><trkpt lat="38.057568414733495" lon="15.854054202335165"><ele>1217.0</ele><time>2026-04-25T11:06:10.999Z</time></trkpt><trkpt lat="38.057656101396816" lon="15.85399249954232"><ele>1219.6</ele><time>2026-04-25T11:06:11.999Z</time></trkpt><trkpt lat="38.057730530292915" lon="15.853947141463088"><ele>1222.2</ele><time>2026-04-25T11:06:12.999Z</time></trkpt><trkpt lat="38.05782377482215" lon="15.853976416454174"><ele>1224.8</ele><time>2026-04-25T11:06:14.999Z</time></trkpt><trkpt lat="38.05787584182241" lon="15.854123668568999"><ele>1227.4</ele><time>2026-04-25T11:06:16.999Z</time></trkpt><trkpt lat="38.05791322781636" lon="15.854244531157606"><ele>1230.0</ele><time>2026-04-25T11:06:17.999Z</time></trkpt><trkpt lat="38.05798441039858" lon="15.854359305706993"><ele>1230.0</ele><time>2026-04-25T11:06:18.999Z</time></trkpt><trkpt lat="38.05808335039427" lon="15.854472069652097"><ele>1230.0</ele><time>2026-04-25T11:06:19.999Z</time></trkpt><trkpt lat="38.05814415364871" lon="15.854562942296697"><ele>1230.0</ele><time>2026-04-25T11:06:20.999Z</time></trkpt><trkpt lat="38.058156477612755" lon="15.854752129226597"><ele>1230.0</ele><time>2026-04-25T11:06:22.999Z</time></trkpt><trkpt lat="38.0581445894757" lon="15.854834692258342"><ele>1230.0</ele><time>2026-04-25T11:06:23.999Z</time></trkpt><trkpt lat="38.05822578583603" lon="15.854889633949526"><ele>1230.0</ele><time>2026-04-25T11:06:26.999Z</time></trkpt><trkpt lat="38.05828376041392" lon="15.854851820888504"><ele>1230.0</ele><time>2026-04-25T11:06:27.999Z</time></trkpt><trkpt lat="38.05830009262284" lon="15.854760986511112"><ele>1230.0</ele><time>2026-04-25T11:06:28.999Z</time></trkpt><trkpt lat="38.058291716120785" lon="15.854637254255193"><ele>1230.0</ele><time>2026-04-25T11:06:29.999Z</time></trkpt><trkpt lat="38.05827859703938" lon="15.854483712705326"><ele>1230.0</ele><time>2026-04-25T11:06:30.999Z</time></trkpt><trkpt lat="38.05825352387334" lon="15.854309808229875"><ele>1230.6666666666667</ele><time>2026-04-25T11:06:31.999Z</time></trkpt><trkpt lat="38.05826021488455" lon="15.854193814865633"><ele>1231.3333333333333</ele><time>2026-04-25T11:06:32.999Z</time></trkpt><trkpt lat="38.05829246237659" lon="15.854100544891295"><ele>1232.0</ele><time>2026-04-25T11:06:33.999Z</time></trkpt><trkpt lat="38.05834934531316" lon="15.8540152583297"><ele>1232.6666666666665</ele><time>2026-04-25T11:06:34.999Z</time></trkpt><trkpt lat="38.058391163435694" lon="15.853924031558186"><ele>1233.3333333333333</ele><time>2026-04-25T11:06:35.999Z</time></trkpt><trkpt lat="38.05845488785298" lon="15.85385890666809"><ele>1234.0</ele><time>2026-04-25T11:06:36.999Z</time></trkpt><trkpt lat="38.058557888384954" lon="15.853788690040666"><ele>1237.2</ele><time>2026-04-25T11:06:37.999Z</time></trkpt><trkpt lat="38.058662721182266" lon="15.853719830208332"><ele>1240.4</ele><time>2026-04-25T11:06:38.999Z</time></trkpt><trkpt lat="38.05876616190771" lon="15.853654639746525"><ele>1243.6</ele><time>2026-04-25T11:06:39.999Z</time></trkpt><trkpt lat="38.058857726010075" lon="15.85363476719153"><ele>1246.8</ele><time>2026-04-25T11:06:40.999Z</time></trkpt><trkpt lat="38.05893264140472" lon="15.853643790898545"><ele>1250.0</ele><time>2026-04-25T11:06:41.999Z</time></trkpt><trkpt lat="38.059022478447716" lon="15.853658738976758"><ele>1250.0</ele><time>2026-04-25T11:06:42.999Z</time></trkpt><trkpt lat="38.059103164692644" lon="15.85367025109444"><ele>1250.0</ele><time>2026-04-25T11:06:43.999Z</time></trkpt><trkpt lat="38.059176233964976" lon="15.853641144483097"><ele>1250.0</ele><time>2026-04-25T11:06:44.999Z</time></trkpt><trkpt lat="38.05923850171774" lon="15.853560763361516"><ele>1250.0</ele><time>2026-04-25T11:06:45.999Z</time></trkpt><trkpt lat="38.05931085145911" lon="15.853465545029092"><ele>1250.0</ele><time>2026-04-25T11:06:46.999Z</time></trkpt><trkpt lat="38.05938916777017" lon="15.853391586539113"><ele>1250.0</ele><time>2026-04-25T11:06:47.999Z</time></trkpt><trkpt lat="38.059472946882686" lon="15.853367784457461"><ele>1253.0</ele><time>2026-04-25T11:06:48.999Z</time></trkpt><trkpt lat="38.059581141497446" lon="15.853372054803467"><ele>1256.0</ele><time>2026-04-25T11:06:49.999Z</time></trkpt><trkpt lat="38.059703158547464" lon="15.853388731401727"><ele>1259.0</ele><time>2026-04-25T11:06:50.999Z</time></trkpt><trkpt lat="38.059825420667565" lon="15.853399813900886"><ele>1262.0</ele><time>2026-04-25T11:06:51.999Z</time></trkpt><trkpt lat="38.05991199761784" lon="15.853396189864954"><ele>1265.0</ele><time>2026-04-25T11:06:52.999Z</time></trkpt><trkpt lat="38.05998146275679" lon="15.853358518683674"><ele>1265.0</ele><time>2026-04-25T11:06:53.999Z</time></trkpt><trkpt lat="38.060063667715696" lon="15.853278927508468"><ele>1265.0</ele><time>2026-04-25T11:06:54.999Z</time></trkpt><trkpt lat="38.06014929479619" lon="15.853179453501708"><ele>1265.0</ele><time>2026-04-25T11:06:55.999Z</time></trkpt><trkpt lat="38.060259235019984" lon="15.853053694258856"><ele>1265.0</ele><time>2026-04-25T11:06:56.999Z</time></trkpt><trkpt lat="38.060381087745945" lon="15.852923518238185"><ele>1265.0</ele><time>2026-04-25T11:06:57.999Z</time></trkpt><trkpt lat="38.060493494472006" lon="15.852823771383392"><ele>1265.0</ele><time>2026-04-25T11:06:58.999Z</time></trkpt><trkpt lat="38.060606200858196" lon="15.852732782067342"><ele>1265.0</ele><time>2026-04-25T11:06:59.999Z</time></trkpt><trkpt lat="38.060720700074356" lon="15.85264380433817"><ele>1265.0</ele><time>2026-04-25T11:07:00.999Z</time></trkpt><trkpt lat="38.06082290102974" lon="15.852553710436297"><ele>1268.4</ele><time>2026-04-25T11:07:01.999Z</time></trkpt><trkpt lat="38.06090868403731" lon="15.852474703390376"><ele>1271.8</ele><time>2026-04-25T11:07:02.999Z</time></trkpt><trkpt lat="38.06098353455761" lon="15.852399391028605"><ele>1275.1999999999998</ele><time>2026-04-25T11:07:03.999Z</time></trkpt><trkpt lat="38.06104117956801" lon="15.852339267145624"><ele>1278.6</ele><time>2026-04-25T11:07:04.999Z</time></trkpt><trkpt lat="38.061149521522495" lon="15.85229596547224"><ele>1282.0</ele><time>2026-04-25T11:07:06.999Z</time></trkpt><trkpt lat="38.06127631140966" lon="15.852375276757634"><ele>1282.0</ele><time>2026-04-25T11:07:08.999Z</time></trkpt><trkpt lat="38.06135686964546" lon="15.852458956016154"><ele>1282.0</ele><time>2026-04-25T11:07:09.999Z</time></trkpt><trkpt lat="38.06142380382323" lon="15.852526016860452"><ele>1282.0</ele><time>2026-04-25T11:07:10.999Z</time></trkpt><trkpt lat="38.061486386885406" lon="15.85256954918763"><ele>1282.0</ele><time>2026-04-25T11:07:11.999Z</time></trkpt><trkpt lat="38.0615626827737" lon="15.852608591608073"><ele>1282.0</ele><time>2026-04-25T11:07:12.999Z</time></trkpt><trkpt lat="38.061656297118674" lon="15.852651052397938"><ele>1282.0</ele><time>2026-04-25T11:07:13.999Z</time></trkpt><trkpt lat="38.06174946161831" lon="15.852663079086431"><ele>1280.0</ele><time>2026-04-25T11:07:14.999Z</time></trkpt><trkpt lat="38.06182250672973" lon="15.852659061627426"><ele>1278.0</ele><time>2026-04-25T11:07:15.999Z</time></trkpt><trkpt lat="38.06188627762088" lon="15.85261977260934"><ele>1276.0</ele><time>2026-04-25T11:07:16.999Z</time></trkpt><trkpt lat="38.061957518851244" lon="15.852543706422063"><ele>1274.0</ele><time>2026-04-25T11:07:17.999Z</time></trkpt><trkpt lat="38.06202133225245" lon="15.852429668424344"><ele>1272.0</ele><time>2026-04-25T11:07:18.999Z</time></trkpt><trkpt lat="38.06207114104989" lon="15.852331219710154"><ele>1270.0</ele><time>2026-04-25T11:07:19.999Z</time></trkpt><trkpt lat="38.06209740245048" lon="15.85225508011039"><ele>1270.0</ele><time>2026-04-25T11:07:20.999Z</time></trkpt><trkpt lat="38.062101464547226" lon="15.852171395801971"><ele>1270.0</ele><time>2026-04-25T11:07:22Z</time></trkpt><trkpt lat="38.06207888046904" lon="15.852092173223852"><ele>1270.0</ele><time>2026-04-25T11:07:23Z</time></trkpt><trkpt lat="38.06204106777819" lon="15.852011788208195"><ele>1270.0</ele><time>2026-04-25T11:07:24Z</time></trkpt><trkpt lat="38.06200602104787" lon="15.851878381765824"><ele>1270.0</ele><time>2026-04-25T11:07:26Z</time></trkpt><trkpt lat="38.06204319329224" lon="15.851744035756788"><ele>1270.0</ele><time>2026-04-25T11:07:28Z</time></trkpt><trkpt lat="38.0621001841337" lon="15.851692449580232"><ele>1271.4</ele><time>2026-04-25T11:07:29Z</time></trkpt><trkpt lat="38.0621708138709" lon="15.851656399642922"><ele>1272.8</ele><time>2026-04-25T11:07:30Z</time></trkpt><trkpt lat="38.06227928277527" lon="15.851655127550014"><ele>1274.2</ele><time>2026-04-25T11:07:31Z</time></trkpt><trkpt lat="38.06238109910102" lon="15.851656299778302"><ele>1275.6</ele><time>2026-04-25T11:07:32Z</time></trkpt><trkpt lat="38.06245984027104" lon="15.85164127020395"><ele>1277.0</ele><time>2026-04-25T11:07:33Z</time></trkpt><trkpt lat="38.06253689184642" lon="15.85159866321538"><ele>1273.8</ele><time>2026-04-25T11:07:34Z</time></trkpt><trkpt lat="38.062631056217235" lon="15.851525034260941"><ele>1270.6</ele><time>2026-04-25T11:07:35Z</time></trkpt><trkpt lat="38.06273258491289" lon="15.851475121773314"><ele>1267.3999999999999</ele><time>2026-04-25T11:07:36Z</time></trkpt><trkpt lat="38.06282713812286" lon="15.851454452949113"><ele>1264.2</ele><time>2026-04-25T11:07:37Z</time></trkpt><trkpt lat="38.062913411698666" lon="15.85144620437318"><ele>1261.0</ele><time>2026-04-25T11:07:38Z</time></trkpt><trkpt lat="38.06298979338313" lon="15.85143820878324"><ele>1261.0</ele><time>2026-04-25T11:07:39Z</time></trkpt><trkpt lat="38.063070557084764" lon="15.85139874279838"><ele>1261.0</ele><time>2026-04-25T11:07:40Z</time></trkpt><trkpt lat="38.063160249619074" lon="15.851310603846096"><ele>1261.0</ele><time>2026-04-25T11:07:41Z</time></trkpt><trkpt lat="38.06327136076468" lon="15.85119135071025"><ele>1261.0</ele><time>2026-04-25T11:07:42Z</time></trkpt><trkpt lat="38.06340123747049" lon="15.851091368132062"><ele>1257.75</ele><time>2026-04-25T11:07:42.999Z</time></trkpt><trkpt lat="38.06353181960712" lon="15.85100667190753"><ele>1254.5</ele><time>2026-04-25T11:07:43.999Z</time></trkpt><trkpt lat="38.063645291375856" lon="15.850935209589318"><ele>1251.25</ele><time>2026-04-25T11:07:44.999Z</time></trkpt><trkpt lat="38.06374159194651" lon="15.8508670232838"><ele>1248.0</ele><time>2026-04-25T11:07:45.999Z</time></trkpt><trkpt lat="38.063844632721356" lon="15.850778212567954"><ele>1248.0</ele><time>2026-04-25T11:07:46.999Z</time></trkpt><trkpt lat="38.063947227525276" lon="15.850707892576073"><ele>1248.0</ele><time>2026-04-25T11:07:47.999Z</time></trkpt><trkpt lat="38.06404109428823" lon="15.850670270214907"><ele>1248.0</ele><time>2026-04-25T11:07:48.999Z</time></trkpt><trkpt lat="38.06412963768939" lon="15.850671134426316"><ele>1248.0</ele><time>2026-04-25T11:07:49.999Z</time></trkpt><trkpt lat="38.06420621248113" lon="15.850701062266134"><ele>1248.0</ele><time>2026-04-25T11:07:50.999Z</time></trkpt><trkpt lat="38.06426843010301" lon="15.850737155799834"><ele>1249.1666666666667</ele><time>2026-04-25T11:07:51.999Z</time></trkpt><trkpt lat="38.064354732437934" lon="15.850755753704512"><ele>1250.3333333333333</ele><time>2026-04-25T11:07:53.999Z</time></trkpt><trkpt lat="38.06441880325328" lon="15.850704252841888"><ele>1251.5</ele><time>2026-04-25T11:07:54.999Z</time></trkpt><trkpt lat="38.06447773094015" lon="15.85063648093746"><ele>1252.6666666666665</ele><time>2026-04-25T11:07:55.999Z</time></trkpt><trkpt lat="38.06454693751271" lon="15.850574589880145"><ele>1253.8333333333333</ele><time>2026-04-25T11:07:56.999Z</time></trkpt><trkpt lat="38.064640915706335" lon="15.85053233207488"><ele>1255.0</ele><time>2026-04-25T11:07:57.999Z</time></trkpt><trkpt lat="38.064730000991815" lon="15.850520855083964"><ele>1255.0</ele><time>2026-04-25T11:07:58.999Z</time></trkpt><trkpt lat="38.0648237342875" lon="15.850503557900772"><ele>1255.0</ele><time>2026-04-25T11:07:59.999Z</time></trkpt><trkpt lat="38.064907745884845" lon="15.850470877471837"><ele>1255.0</ele><time>2026-04-25T11:08:00.999Z</time></trkpt><trkpt lat="38.064965205395694" lon="15.850420744478452"><ele>1255.0</ele><time>2026-04-25T11:08:01.999Z</time></trkpt><trkpt lat="38.06501749521297" lon="15.850348441269466"><ele>1255.0</ele><time>2026-04-25T11:08:02.999Z</time></trkpt><trkpt lat="38.0650645639963" lon="15.850255346668323"><ele>1255.0</ele><time>2026-04-25T11:08:03.999Z</time></trkpt><trkpt lat="38.06511017185283" lon="15.850139676924945"><ele>1258.8</ele><time>2026-04-25T11:08:04.999Z</time></trkpt><trkpt lat="38.065154389429495" lon="15.850036593615727"><ele>1262.6</ele><time>2026-04-25T11:08:05.999Z</time></trkpt><trkpt lat="38.06519698359588" lon="15.849922085850427"><ele>1266.4</ele><time>2026-04-25T11:08:06.999Z</time></trkpt><trkpt lat="38.06522969647789" lon="15.849806426242312"><ele>1270.2</ele><time>2026-04-25T11:08:07.999Z</time></trkpt><trkpt lat="38.0652513353644" lon="15.849676444327379"><ele>1274.0</ele><time>2026-04-25T11:08:08.999Z</time></trkpt><trkpt lat="38.0652773120909" lon="15.849522737573423"><ele>1274.0</ele><time>2026-04-25T11:08:09.999Z</time></trkpt><trkpt lat="38.06530532471739" lon="15.849378153488919"><ele>1274.0</ele><time>2026-04-25T11:08:10.999Z</time></trkpt><trkpt lat="38.06534305971408" lon="15.84927884663172"><ele>1274.0</ele><time>2026-04-25T11:08:11.999Z</time></trkpt><trkpt lat="38.065400880580455" lon="15.849193674967461"><ele>1274.0</ele><time>2026-04-25T11:08:12.999Z</time></trkpt><trkpt lat="38.06548678116223" lon="15.849100982991779"><ele>1274.0</ele><time>2026-04-25T11:08:13.999Z</time></trkpt><trkpt lat="38.06557662452237" lon="15.84900352586895"><ele>1273.1666666666667</ele><time>2026-04-25T11:08:14.999Z</time></trkpt><trkpt lat="38.06565121496125" lon="15.848935452714542"><ele>1272.3333333333335</ele><time>2026-04-25T11:08:15.999Z</time></trkpt><trkpt lat="38.065730834714756" lon="15.848887517017262"><ele>1271.5</ele><time>2026-04-25T11:08:16.999Z</time></trkpt><trkpt lat="38.06581429031089" lon="15.848865459797686"><ele>1270.6666666666667</ele><time>2026-04-25T11:08:17.999Z</time></trkpt><trkpt lat="38.06590163752326" lon="15.848864834422123"><ele>1269.8333333333333</ele><time>2026-04-25T11:08:18.999Z</time></trkpt><trkpt lat="38.06597030700681" lon="15.84885619143653"><ele>1269.0</ele><time>2026-04-25T11:08:19.999Z</time></trkpt><trkpt lat="38.06603232366662" lon="15.848811182375375"><ele>1271.0</ele><time>2026-04-25T11:08:20.999Z</time></trkpt><trkpt lat="38.06607582819773" lon="15.848740292464703"><ele>1273.0</ele><time>2026-04-25T11:08:21.999Z</time></trkpt><trkpt lat="38.06610702519871" lon="15.848641087701198"><ele>1275.0</ele><time>2026-04-25T11:08:22.999Z</time></trkpt><trkpt lat="38.06612829210693" lon="15.848512957188092"><ele>1277.0</ele><time>2026-04-25T11:08:23.999Z</time></trkpt><trkpt lat="38.06614775947521" lon="15.848357570155208"><ele>1279.0</ele><time>2026-04-25T11:08:24.999Z</time></trkpt><trkpt lat="38.06622009818863" lon="15.848217742917681"><ele>1281.2</ele><time>2026-04-25T11:08:25.999Z</time></trkpt><trkpt lat="38.066307497709715" lon="15.848074527697888"><ele>1283.4</ele><time>2026-04-25T11:08:26.999Z</time></trkpt><trkpt lat="38.06638749227425" lon="15.847963430152333"><ele>1285.6</ele><time>2026-04-25T11:08:27.999Z</time></trkpt><trkpt lat="38.066447399479614" lon="15.847881910284014"><ele>1287.8</ele><time>2026-04-25T11:08:28.999Z</time></trkpt><trkpt lat="38.066512024488745" lon="15.847826904045522"><ele>1290.0</ele><time>2026-04-25T11:08:29.999Z</time></trkpt><trkpt lat="38.06657342899055" lon="15.847794695821152"><ele>1290.0</ele><time>2026-04-25T11:08:30.999Z</time></trkpt><trkpt lat="38.0666724473033" lon="15.847843630559025"><ele>1290.0</ele><time>2026-04-25T11:08:32.999Z</time></trkpt><trkpt lat="38.06672973941285" lon="15.84792589157984"><ele>1290.0</ele><time>2026-04-25T11:08:33.999Z</time></trkpt><trkpt lat="38.0667898344654" lon="15.848027404568612"><ele>1290.0</ele><time>2026-04-25T11:08:34.999Z</time></trkpt><trkpt lat="38.0668804948454" lon="15.848117968044349"><ele>1290.0</ele><time>2026-04-25T11:08:35.999Z</time></trkpt><trkpt lat="38.06697285347078" lon="15.84821665821541"><ele>1290.0</ele><time>2026-04-25T11:08:36.999Z</time></trkpt><trkpt lat="38.06703351001225" lon="15.848309125521508"><ele>1290.0</ele><time>2026-04-25T11:08:37.999Z</time></trkpt><trkpt lat="38.06707142388169" lon="15.848383996992483"><ele>1290.0</ele><time>2026-04-25T11:08:38.999Z</time></trkpt><trkpt lat="38.06717735683158" lon="15.848469789252588"><ele>1290.0</ele><time>2026-04-25T11:08:40.999Z</time></trkpt><trkpt lat="38.06726714538886" lon="15.848493687319726"><ele>1290.0</ele><time>2026-04-25T11:08:41.999Z</time></trkpt><trkpt lat="38.06739862184423" lon="15.84853045733455"><ele>1290.2</ele><time>2026-04-25T11:08:42.999Z</time></trkpt><trkpt lat="38.067486613002174" lon="15.848572099252525"><ele>1290.4</ele><time>2026-04-25T11:08:43.999Z</time></trkpt><trkpt lat="38.0675583252912" lon="15.848627994210505"><ele>1290.6</ele><time>2026-04-25T11:08:44.999Z</time></trkpt><trkpt lat="38.06762107591597" lon="15.84871441719222"><ele>1290.8</ele><time>2026-04-25T11:08:45.999Z</time></trkpt><trkpt lat="38.06768337881475" lon="15.848817112641829"><ele>1291.0</ele><time>2026-04-25T11:08:46.999Z</time></trkpt><trkpt lat="38.06775372872819" lon="15.848928613769115"><ele>1291.0</ele><time>2026-04-25T11:08:47.999Z</time></trkpt><trkpt lat="38.06782801873264" lon="15.8490431579723"><ele>1291.0</ele><time>2026-04-25T11:08:48.999Z</time></trkpt><trkpt lat="38.06788423602917" lon="15.84914566017913"><ele>1291.0</ele><time>2026-04-25T11:08:49.999Z</time></trkpt><trkpt lat="38.06792828231116" lon="15.84925242466902"><ele>1291.0</ele><time>2026-04-25T11:08:50.999Z</time></trkpt><trkpt lat="38.06802020717175" lon="15.849349676639351"><ele>1291.0</ele><time>2026-04-25T11:08:52.999Z</time></trkpt><trkpt lat="38.068108928426255" lon="15.849366372721029"><ele>1291.6</ele><time>2026-04-25T11:08:53.999Z</time></trkpt><trkpt lat="38.068176428103605" lon="15.8493780969722"><ele>1292.1999999999998</ele><time>2026-04-25T11:08:54.999Z</time></trkpt><trkpt lat="38.06823066813262" lon="15.849469761853387"><ele>1292.8000000000002</ele><time>2026-04-25T11:08:56.999Z</time></trkpt><trkpt lat="38.06822020984863" lon="15.849619662895524"><ele>1293.4</ele><time>2026-04-25T11:08:58.999Z</time></trkpt><trkpt lat="38.06822409331763" lon="15.849716301874803"><ele>1294.0</ele><time>2026-04-25T11:08:59.999Z</time></trkpt><trkpt lat="38.06824889026232" lon="15.849839038755164"><ele>1294.8000000000002</ele><time>2026-04-25T11:09:00.999Z</time></trkpt><trkpt lat="38.068323139541775" lon="15.849929711012711"><ele>1295.6000000000001</ele><time>2026-04-25T11:09:02.999Z</time></trkpt><trkpt lat="38.06839994456101" lon="15.84993546423809"><ele>1296.4</ele><time>2026-04-25T11:09:03.999Z</time></trkpt><trkpt lat="38.068493356578216" lon="15.849936208552624"><ele>1297.2</ele><time>2026-04-25T11:09:04.999Z</time></trkpt><trkpt lat="38.068574592845955" lon="15.850044257385726"><ele>1298.0</ele><time>2026-04-25T11:09:06.999Z</time></trkpt><trkpt lat="38.0686014542218" lon="15.850140796986889"><ele>1298.0</ele><time>2026-04-25T11:09:07.999Z</time></trkpt><trkpt lat="38.06865958971932" lon="15.850242492827157"><ele>1298.0</ele><time>2026-04-25T11:09:09.999Z</time></trkpt><trkpt lat="38.06878822291105" lon="15.85031036979576"><ele>1298.0</ele><time>2026-04-25T11:09:11.999Z</time></trkpt><trkpt lat="38.06889357894674" lon="15.850332508592377"><ele>1298.0</ele><time>2026-04-25T11:09:12.999Z</time></trkpt><trkpt lat="38.06903176721873" lon="15.85035069979241"><ele>1299.2</ele><time>2026-04-25T11:09:13.999Z</time></trkpt><trkpt lat="38.06913032008537" lon="15.85036491679827"><ele>1300.4</ele><time>2026-04-25T11:09:14.999Z</time></trkpt><trkpt lat="38.069243290069934" lon="15.850299128153837"><ele>1301.6000000000001</ele><time>2026-04-25T11:09:16.999Z</time></trkpt><trkpt lat="38.06931313334666" lon="15.850230309608914"><ele>1302.8000000000002</ele><time>2026-04-25T11:09:17.999Z</time></trkpt><trkpt lat="38.06943326056386" lon="15.850245302171837"><ele>1304.0</ele><time>2026-04-25T11:09:18.999Z</time></trkpt><trkpt lat="38.06950889031221" lon="15.850171989241513"><ele>1304.0</ele><time>2026-04-25T11:09:19.999Z</time></trkpt><trkpt lat="38.069568864163294" lon="15.85014501525974"><ele>1304.0</ele><time>2026-04-25T11:09:20.999Z</time></trkpt><trkpt lat="38.06960986719954" lon="15.850224290536836"><ele>1304.0</ele><time>2026-04-25T11:09:22.999Z</time></trkpt><trkpt lat="38.0696406582517" lon="15.850365250777124"><ele>1304.0</ele><time>2026-04-25T11:09:24.999Z</time></trkpt><trkpt lat="38.069650982182736" lon="15.850506682616517"><ele>1304.0</ele><time>2026-04-25T11:09:26.999Z</time></trkpt><trkpt lat="38.06978305268572" lon="15.850542119730807"><ele>1304.0</ele><time>2026-04-25T11:09:29Z</time></trkpt><trkpt lat="38.06986806549993" lon="15.850516115466165"><ele>1304.0</ele><time>2026-04-25T11:09:30Z</time></trkpt><trkpt lat="38.06997527406439" lon="15.850439094123617"><ele>1304.0</ele><time>2026-04-25T11:09:31Z</time></trkpt><trkpt lat="38.07006211299805" lon="15.850388060633355"><ele>1304.0</ele><time>2026-04-25T11:09:32Z</time></trkpt><trkpt lat="38.07013075812662" lon="15.850352226978464"><ele>1304.0</ele><time>2026-04-25T11:09:33Z</time></trkpt><trkpt lat="38.070216560011595" lon="15.850242767319001"><ele>1303.6</ele><time>2026-04-25T11:09:35Z</time></trkpt><trkpt lat="38.070256096938984" lon="15.850179072213752"><ele>1303.2</ele><time>2026-04-25T11:09:36Z</time></trkpt><trkpt lat="38.07031926465582" lon="15.85005301724429"><ele>1302.8</ele><time>2026-04-25T11:09:38Z</time></trkpt><trkpt lat="38.07046205457753" lon="15.850036855800663"><ele>1302.3999999999999</ele><time>2026-04-25T11:09:40Z</time></trkpt><trkpt lat="38.07053488347977" lon="15.850053479500245"><ele>1302.0</ele><time>2026-04-25T11:09:41Z</time></trkpt><trkpt lat="38.07063321181754" lon="15.850135617094583"><ele>1302.0</ele><time>2026-04-25T11:09:43Z</time></trkpt><trkpt lat="38.07066099364256" lon="15.850217514409488"><ele>1302.0</ele><time>2026-04-25T11:09:44Z</time></trkpt><trkpt lat="38.07066707918788" lon="15.85032824273624"><ele>1302.0</ele><time>2026-04-25T11:09:45Z</time></trkpt><trkpt lat="38.07068053771927" lon="15.850445940047459"><ele>1302.0</ele><time>2026-04-25T11:09:46Z</time></trkpt><trkpt lat="38.07070859648118" lon="15.850576089861322"><ele>1302.0</ele><time>2026-04-25T11:09:47Z</time></trkpt><trkpt lat="38.07074688452856" lon="15.850686932408198"><ele>1302.75</ele><time>2026-04-25T11:09:47.999Z</time></trkpt><trkpt lat="38.070782659598805" lon="15.850822506854906"><ele>1303.5</ele><time>2026-04-25T11:09:48.999Z</time></trkpt><trkpt lat="38.07083864824446" lon="15.850966712048965"><ele>1304.25</ele><time>2026-04-25T11:09:49.999Z</time></trkpt><trkpt lat="38.07088635186404" lon="15.851114179563389"><ele>1305.0</ele><time>2026-04-25T11:09:50.999Z</time></trkpt><trkpt lat="38.07092419801482" lon="15.851224118472143"><ele>1305.0</ele><time>2026-04-25T11:09:51.999Z</time></trkpt><trkpt lat="38.0709598735747" lon="15.851337400395776"><ele>1305.0</ele><time>2026-04-25T11:09:52.999Z</time></trkpt><trkpt lat="38.07097599789763" lon="15.85143307635408"><ele>1305.0</ele><time>2026-04-25T11:09:53.999Z</time></trkpt><trkpt lat="38.07100789930296" lon="15.851566626123981"><ele>1305.0</ele><time>2026-04-25T11:09:54.999Z</time></trkpt><trkpt lat="38.07104924712505" lon="15.85168988966832"><ele>1305.0</ele><time>2026-04-25T11:09:55.999Z</time></trkpt><trkpt lat="38.071099034840536" lon="15.851812944317075"><ele>1304.5</ele><time>2026-04-25T11:09:56.999Z</time></trkpt><trkpt lat="38.07114671349265" lon="15.851912595619915"><ele>1304.0</ele><time>2026-04-25T11:09:57.999Z</time></trkpt><trkpt lat="38.071194537566754" lon="15.852022252977989"><ele>1303.5</ele><time>2026-04-25T11:09:58.999Z</time></trkpt><trkpt lat="38.071239454160704" lon="15.8521219366616"><ele>1303.0</ele><time>2026-04-25T11:09:59.999Z</time></trkpt><trkpt lat="38.07128884185097" lon="15.852212825426301"><ele>1302.5</ele><time>2026-04-25T11:10:00.999Z</time></trkpt><trkpt lat="38.07133100967115" lon="15.852283243319091"><ele>1302.0</ele><time>2026-04-25T11:10:01.999Z</time></trkpt><trkpt lat="38.071393654869105" lon="15.852333459273678"><ele>1302.0</ele><time>2026-04-25T11:10:02.999Z</time></trkpt><trkpt lat="38.07146673762178" lon="15.852385562555847"><ele>1302.0</ele><time>2026-04-25T11:10:03.999Z</time></trkpt><trkpt lat="38.07155790811082" lon="15.852418609844694"><ele>1302.0</ele><time>2026-04-25T11:10:04.999Z</time></trkpt><trkpt lat="38.07166026705258" lon="15.852432622690028"><ele>1302.0</ele><time>2026-04-25T11:10:05.999Z</time></trkpt><trkpt lat="38.07172186821727" lon="15.852449452065722"><ele>1302.0</ele><time>2026-04-25T11:10:06.999Z</time></trkpt><trkpt lat="38.071767793891276" lon="15.852560513379727"><ele>1302.0</ele><time>2026-04-25T11:10:08.999Z</time></trkpt><trkpt lat="38.07178216516857" lon="15.852647003429855"><ele>1300.8333333333333</ele><time>2026-04-25T11:10:09.999Z</time></trkpt><trkpt lat="38.071793552129705" lon="15.852727521118107"><ele>1299.6666666666667</ele><time>2026-04-25T11:10:10.999Z</time></trkpt><trkpt lat="38.07181902397151" lon="15.852825156136598"><ele>1298.5</ele><time>2026-04-25T11:10:11.999Z</time></trkpt><trkpt lat="38.07187366515048" lon="15.85292587196123"><ele>1297.3333333333335</ele><time>2026-04-25T11:10:12.999Z</time></trkpt><trkpt lat="38.071930815787674" lon="15.852989891648743"><ele>1296.1666666666667</ele><time>2026-04-25T11:10:13.999Z</time></trkpt><trkpt lat="38.07199713291727" lon="15.853049390306897"><ele>1295.0</ele><time>2026-04-25T11:10:14.999Z</time></trkpt><trkpt lat="38.07208680293324" lon="15.853106073987021"><ele>1295.0</ele><time>2026-04-25T11:10:15.999Z</time></trkpt><trkpt lat="38.07218942179423" lon="15.853156885097633"><ele>1295.0</ele><time>2026-04-25T11:10:16.999Z</time></trkpt><trkpt lat="38.07228152643986" lon="15.853186834532794"><ele>1295.0</ele><time>2026-04-25T11:10:17.999Z</time></trkpt><trkpt lat="38.072377775491816" lon="15.85321056051561"><ele>1295.0</ele><time>2026-04-25T11:10:18.999Z</time></trkpt><trkpt lat="38.07245747819903" lon="15.853233382749377"><ele>1295.0</ele><time>2026-04-25T11:10:19.999Z</time></trkpt><trkpt lat="38.072517577071565" lon="15.853259918395041"><ele>1295.0</ele><time>2026-04-25T11:10:20.999Z</time></trkpt><trkpt lat="38.07259473503677" lon="15.853313350684454"><ele>1294.6</ele><time>2026-04-25T11:10:21.999Z</time></trkpt><trkpt lat="38.0726834526313" lon="15.853385493338545"><ele>1294.2</ele><time>2026-04-25T11:10:22.999Z</time></trkpt><trkpt lat="38.072775242558485" lon="15.853465863620054"><ele>1293.8000000000002</ele><time>2026-04-25T11:10:23.999Z</time></trkpt><trkpt lat="38.07286615025665" lon="15.853551443318146"><ele>1293.4</ele><time>2026-04-25T11:10:24.999Z</time></trkpt><trkpt lat="38.07292920993864" lon="15.853629270272851"><ele>1293.0</ele><time>2026-04-25T11:10:25.999Z</time></trkpt><trkpt lat="38.07298749522387" lon="15.853703174464654"><ele>1293.0</ele><time>2026-04-25T11:10:26.999Z</time></trkpt><trkpt lat="38.07301773450989" lon="15.85379057259396"><ele>1293.0</ele><time>2026-04-25T11:10:27.999Z</time></trkpt><trkpt lat="38.073019617034305" lon="15.853892064927015"><ele>1293.0</ele><time>2026-04-25T11:10:28.999Z</time></trkpt><trkpt lat="38.07297268672755" lon="15.854031524224421"><ele>1293.0</ele><time>2026-04-25T11:10:29.999Z</time></trkpt><trkpt lat="38.072928244920696" lon="15.854154828929149"><ele>1293.0</ele><time>2026-04-25T11:10:30.999Z</time></trkpt><trkpt lat="38.07286675836581" lon="15.8542594222452"><ele>1292.6666666666667</ele><time>2026-04-25T11:10:31.999Z</time></trkpt><trkpt lat="38.072796268176596" lon="15.854371530148846"><ele>1292.3333333333333</ele><time>2026-04-25T11:10:32.999Z</time></trkpt><trkpt lat="38.072729048868915" lon="15.854484986977374"><ele>1292.0</ele><time>2026-04-25T11:10:33.999Z</time></trkpt><trkpt lat="38.07268038317952" lon="15.854573181594597"><ele>1291.6666666666665</ele><time>2026-04-25T11:10:34.999Z</time></trkpt><trkpt lat="38.07263486961355" lon="15.854630258449694"><ele>1291.3333333333333</ele><time>2026-04-25T11:10:35.999Z</time></trkpt><trkpt lat="38.07257554524203" lon="15.854682033412406"><ele>1291.0</ele><time>2026-04-25T11:10:36.999Z</time></trkpt><trkpt lat="38.07248860666854" lon="15.854713163716537"><ele>1291.0</ele><time>2026-04-25T11:10:37.999Z</time></trkpt><trkpt lat="38.07241625741543" lon="15.854749738681923"><ele>1291.0</ele><time>2026-04-25T11:10:38.999Z</time></trkpt><trkpt lat="38.07239911019033" lon="15.854882482957601"><ele>1291.0</ele><time>2026-04-25T11:10:40.999Z</time></trkpt><trkpt lat="38.072455597778635" lon="15.854955609275477"><ele>1291.0</ele><time>2026-04-25T11:10:41.999Z</time></trkpt><trkpt lat="38.07249946253748" lon="15.85504474065588"><ele>1291.0</ele><time>2026-04-25T11:10:42.999Z</time></trkpt><trkpt lat="38.07252484586304" lon="15.855163087058681"><ele>1291.0</ele><time>2026-04-25T11:10:43.999Z</time></trkpt><trkpt lat="38.072531022203364" lon="15.85531900736483"><ele>1291.0</ele><time>2026-04-25T11:10:44.999Z</time></trkpt><trkpt lat="38.0725420392239" lon="15.855479535297908"><ele>1291.0</ele><time>2026-04-25T11:10:45.999Z</time></trkpt><trkpt lat="38.072550411645594" lon="15.855623677457528"><ele>1291.0</ele><time>2026-04-25T11:10:46.999Z</time></trkpt><trkpt lat="38.072587706988855" lon="15.85575047691632"><ele>1291.0</ele><time>2026-04-25T11:10:48.999Z</time></trkpt><trkpt lat="38.072651252010694" lon="15.855788467975056"><ele>1291.0</ele><time>2026-04-25T11:10:50.999Z</time></trkpt><trkpt lat="38.07278375909378" lon="15.855700875323867"><ele>1291.0</ele><time>2026-04-25T11:10:52.999Z</time></trkpt><trkpt lat="38.07286820555973" lon="15.85570464648784"><ele>1291.0</ele><time>2026-04-25T11:10:53.999Z</time></trkpt><trkpt lat="38.07296139324738" lon="15.855698352849476"><ele>1291.0</ele><time>2026-04-25T11:10:54.999Z</time></trkpt><trkpt lat="38.07302653933206" lon="15.855656283538409"><ele>1291.0</ele><time>2026-04-25T11:10:55.999Z</time></trkpt><trkpt lat="38.07310347892535" lon="15.855612971765227"><ele>1291.0</ele><time>2026-04-25T11:10:56.999Z</time></trkpt><trkpt lat="38.073130203224274" lon="15.85552815265243"><ele>1291.0</ele><time>2026-04-25T11:10:57.999Z</time></trkpt><trkpt lat="38.07319285430704" lon="15.85555440354297"><ele>1291.0</ele><time>2026-04-25T11:11:00.999Z</time></trkpt><trkpt lat="38.07312964407746" lon="15.855714018456315"><ele>1291.0</ele><time>2026-04-25T11:11:02.999Z</time></trkpt><trkpt lat="38.07307500416001" lon="15.855908853388796"><ele>1291.0</ele><time>2026-04-25T11:11:04.999Z</time></trkpt><trkpt lat="38.0730818023754" lon="15.856032127436954"><ele>1291.0</ele><time>2026-04-25T11:11:05.999Z</time></trkpt><trkpt lat="38.073078114672576" lon="15.856148195240394"><ele>1289.3333333333333</ele><time>2026-04-25T11:11:06.999Z</time></trkpt><trkpt lat="38.07312939425673" lon="15.856242999921902"><ele>1287.6666666666665</ele><time>2026-04-25T11:11:08.999Z</time></trkpt><trkpt lat="38.07320225992008" lon="15.856222155363566"><ele>1286.0</ele><time>2026-04-25T11:11:10.999Z</time></trkpt><trkpt lat="38.07324557300091" lon="15.856136014950964"><ele>1284.3333333333333</ele><time>2026-04-25T11:11:15.999Z</time></trkpt><trkpt lat="38.07328016880968" lon="15.85606869419348"><ele>1282.6666666666667</ele><time>2026-04-25T11:11:16.999Z</time></trkpt><trkpt lat="38.073329172381655" lon="15.855982050129555"><ele>1281.0</ele><time>2026-04-25T11:11:17.999Z</time></trkpt><trkpt lat="38.07336212503258" lon="15.855900458533425"><ele>1286.0</ele><time>2026-04-25T11:11:18.999Z</time></trkpt><trkpt lat="38.07338744174015" lon="15.855801650667708"><ele>1291.0</ele><time>2026-04-25T11:11:19.999Z</time></trkpt><trkpt lat="38.073468217586274" lon="15.855802722675367"><ele>1296.0</ele><time>2026-04-25T11:11:22.999Z</time></trkpt><trkpt lat="38.07350646141621" lon="15.855899379436883"><ele>1301.0</ele><time>2026-04-25T11:11:24.999Z</time></trkpt><trkpt lat="38.073511459189895" lon="15.85606236619745"><ele>1306.0</ele><time>2026-04-25T11:11:26.999Z</time></trkpt><trkpt lat="38.073522803627874" lon="15.856181839912875"><ele>1306.0</ele><time>2026-04-25T11:11:27.999Z</time></trkpt><trkpt lat="38.07353718855788" lon="15.856310337013928"><ele>1306.0</ele><time>2026-04-25T11:11:28.999Z</time></trkpt><trkpt lat="38.073568825853854" lon="15.85639777417637"><ele>1306.0</ele><time>2026-04-25T11:11:29.999Z</time></trkpt><trkpt lat="38.07361177275391" lon="15.856468971281043"><ele>1306.0</ele><time>2026-04-25T11:11:30.999Z</time></trkpt><trkpt lat="38.0736628265985" lon="15.856535471192014"><ele>1306.0</ele><time>2026-04-25T11:11:31.999Z</time></trkpt><trkpt lat="38.07372725773877" lon="15.856590329237273"><ele>1306.0</ele><time>2026-04-25T11:11:33Z</time></trkpt><trkpt lat="38.07381749080398" lon="15.856640138308544"><ele>1306.0</ele><time>2026-04-25T11:11:34Z</time></trkpt><trkpt lat="38.07390534945675" lon="15.85668524833331"><ele>1306.0</ele><time>2026-04-25T11:11:35Z</time></trkpt><trkpt lat="38.07400928606205" lon="15.856639352204732"><ele>1306.0</ele><time>2026-04-25T11:11:37Z</time></trkpt><trkpt lat="38.074081887029955" lon="15.856566552207683"><ele>1306.0</ele><time>2026-04-25T11:11:38Z</time></trkpt><trkpt lat="38.074172606702184" lon="15.856496673467769"><ele>1306.0</ele><time>2026-04-25T11:11:39Z</time></trkpt><trkpt lat="38.074261633022225" lon="15.85647499116596"><ele>1310.4</ele><time>2026-04-25T11:11:40Z</time></trkpt><trkpt lat="38.07435618877504" lon="15.85650053372395"><ele>1314.8</ele><time>2026-04-25T11:11:41Z</time></trkpt><trkpt lat="38.07446014332195" lon="15.856525112085325"><ele>1319.2</ele><time>2026-04-25T11:11:42Z</time></trkpt><trkpt lat="38.0745208642432" lon="15.856569986461405"><ele>1323.6000000000001</ele><time>2026-04-25T11:11:43Z</time></trkpt><trkpt lat="38.07458224353372" lon="15.856665571871243"><ele>1328.0</ele><time>2026-04-25T11:11:44Z</time></trkpt><trkpt lat="38.074671770773186" lon="15.856730539964879"><ele>1328.0</ele><time>2026-04-25T11:11:45Z</time></trkpt><trkpt lat="38.07474365872239" lon="15.856769985790562"><ele>1328.0</ele><time>2026-04-25T11:11:46Z</time></trkpt><trkpt lat="38.07485490136353" lon="15.856792971230519"><ele>1328.0</ele><time>2026-04-25T11:11:47Z</time></trkpt><trkpt lat="38.07495079804271" lon="15.8567960444704"><ele>1328.0</ele><time>2026-04-25T11:11:48Z</time></trkpt><trkpt lat="38.07505944609466" lon="15.85679873199606"><ele>1328.0</ele><time>2026-04-25T11:11:49Z</time></trkpt><trkpt lat="38.075150483204055" lon="15.856775486509612"><ele>1329.25</ele><time>2026-04-25T11:11:50Z</time></trkpt><trkpt lat="38.07524336627962" lon="15.85672545454254"><ele>1330.5</ele><time>2026-04-25T11:11:51Z</time></trkpt><trkpt lat="38.07537599456534" lon="15.856707425517538"><ele>1331.75</ele><time>2026-04-25T11:11:52Z</time></trkpt><trkpt lat="38.075522610297185" lon="15.85668700285668"><ele>1333.0</ele><time>2026-04-25T11:11:53Z</time></trkpt><trkpt lat="38.07563329335384" lon="15.856675731995768"><ele>1333.0</ele><time>2026-04-25T11:11:54Z</time></trkpt><trkpt lat="38.07572925640227" lon="15.856677452929656"><ele>1333.0</ele><time>2026-04-25T11:11:55Z</time></trkpt><trkpt lat="38.07582624681396" lon="15.856664221509497"><ele>1333.0</ele><time>2026-04-25T11:11:56Z</time></trkpt><trkpt lat="38.07592026631668" lon="15.856617827034835"><ele>1333.0</ele><time>2026-04-25T11:11:57Z</time></trkpt><trkpt lat="38.07601561973369" lon="15.856545121377598"><ele>1333.0</ele><time>2026-04-25T11:11:58Z</time></trkpt><trkpt lat="38.07609578641833" lon="15.856459336206104"><ele>1331.2</ele><time>2026-04-25T11:11:59Z</time></trkpt><trkpt lat="38.07615352823811" lon="15.856403358180774"><ele>1329.4</ele><time>2026-04-25T11:12:00Z</time></trkpt><trkpt lat="38.07622338184985" lon="15.856359505941935"><ele>1327.6000000000001</ele><time>2026-04-25T11:12:01Z</time></trkpt><trkpt lat="38.076309295681085" lon="15.856341819620834"><ele>1325.8000000000002</ele><time>2026-04-25T11:12:02Z</time></trkpt><trkpt lat="38.076439254926356" lon="15.856334014753243"><ele>1324.0</ele><time>2026-04-25T11:12:02.999Z</time></trkpt><trkpt lat="38.076553208310216" lon="15.856335938127556"><ele>1324.0</ele><time>2026-04-25T11:12:03.999Z</time></trkpt><trkpt lat="38.07664692507912" lon="15.856341406742914"><ele>1324.0</ele><time>2026-04-25T11:12:04.999Z</time></trkpt><trkpt lat="38.07672225692606" lon="15.85633750686169"><ele>1324.0</ele><time>2026-04-25T11:12:05.999Z</time></trkpt><trkpt lat="38.0767896387546" lon="15.856341796857556"><ele>1324.0</ele><time>2026-04-25T11:12:06.999Z</time></trkpt><trkpt lat="38.07685424919832" lon="15.856346334252816"><ele>1324.0</ele><time>2026-04-25T11:12:07.999Z</time></trkpt><trkpt lat="38.07692570852714" lon="15.856405188512413"><ele>1324.0</ele><time>2026-04-25T11:12:09.999Z</time></trkpt><trkpt lat="38.07692406937717" lon="15.85650814599948"><ele>1324.0</ele><time>2026-04-25T11:12:11.999Z</time></trkpt><trkpt lat="38.076931759289785" lon="15.856648194902418"><ele>1324.0</ele><time>2026-04-25T11:12:13.999Z</time></trkpt><trkpt lat="38.07697154642859" lon="15.856720666521921"><ele>1324.0</ele><time>2026-04-25T11:12:14.999Z</time></trkpt><trkpt lat="38.07703522617003" lon="15.85677470910129"><ele>1324.0</ele><time>2026-04-25T11:12:15.999Z</time></trkpt><trkpt lat="38.0771039756297" lon="15.856825328286227"><ele>1324.0</ele><time>2026-04-25T11:12:16.999Z</time></trkpt><trkpt lat="38.07716599473761" lon="15.856867329836618"><ele>1324.0</ele><time>2026-04-25T11:12:17.999Z</time></trkpt><trkpt lat="38.07722314135899" lon="15.856903028001778"><ele>1325.8000000000002</ele><time>2026-04-25T11:12:18.999Z</time></trkpt><trkpt lat="38.077256138530764" lon="15.857000997712875"><ele>1327.6000000000001</ele><time>2026-04-25T11:12:20.999Z</time></trkpt><trkpt lat="38.077213145089985" lon="15.85709080812506"><ele>1329.4</ele><time>2026-04-25T11:12:22.999Z</time></trkpt><trkpt lat="38.077092326700196" lon="15.857113685850821"><ele>1331.2</ele><time>2026-04-25T11:12:24.999Z</time></trkpt><trkpt lat="38.07698917039707" lon="15.857092303694047"><ele>1333.0</ele><time>2026-04-25T11:12:25.999Z</time></trkpt><trkpt lat="38.076908871929525" lon="15.857076191858086"><ele>1333.0</ele><time>2026-04-25T11:12:26.999Z</time></trkpt><trkpt lat="38.07681521154793" lon="15.857087275888693"><ele>1333.0</ele><time>2026-04-25T11:12:27.999Z</time></trkpt><trkpt lat="38.07672931763729" lon="15.857109050642585"><ele>1333.0</ele><time>2026-04-25T11:12:28.999Z</time></trkpt><trkpt lat="38.07665935135044" lon="15.857109447482479"><ele>1333.0</ele><time>2026-04-25T11:12:29.999Z</time></trkpt><trkpt lat="38.07658651899482" lon="15.857126455789109"><ele>1333.0</ele><time>2026-04-25T11:12:30.999Z</time></trkpt><trkpt lat="38.07648587216429" lon="15.857161417621294"><ele>1333.0</ele><time>2026-04-25T11:12:31.999Z</time></trkpt><trkpt lat="38.07641871136636" lon="15.857201192321845"><ele>1330.2</ele><time>2026-04-25T11:12:32.999Z</time></trkpt><trkpt lat="38.076353941986156" lon="15.857357166258547"><ele>1327.4</ele><time>2026-04-25T11:12:34.999Z</time></trkpt><trkpt lat="38.076294697053875" lon="15.857493834483373"><ele>1324.6000000000001</ele><time>2026-04-25T11:12:35.999Z</time></trkpt><trkpt lat="38.07623491407421" lon="15.85760075641569"><ele>1321.8000000000002</ele><time>2026-04-25T11:12:36.999Z</time></trkpt><trkpt lat="38.07617638212066" lon="15.857668109289621"><ele>1319.0</ele><time>2026-04-25T11:12:37.999Z</time></trkpt><trkpt lat="38.07612774147472" lon="15.857769282609336"><ele>1319.0</ele><time>2026-04-25T11:12:38.999Z</time></trkpt><trkpt lat="38.07611578171883" lon="15.857849629377164"><ele>1319.0</ele><time>2026-04-25T11:12:39.999Z</time></trkpt><trkpt lat="38.07609494330665" lon="15.857980412026157"><ele>1319.0</ele><time>2026-04-25T11:12:40.999Z</time></trkpt><trkpt lat="38.07607500179078" lon="15.858125530311034"><ele>1319.0</ele><time>2026-04-25T11:12:41.999Z</time></trkpt><trkpt lat="38.076054829696545" lon="15.85823280412837"><ele>1319.0</ele><time>2026-04-25T11:12:42.999Z</time></trkpt><trkpt lat="38.076007975034614" lon="15.858366004167205"><ele>1321.4</ele><time>2026-04-25T11:12:43.999Z</time></trkpt><trkpt lat="38.075970608485704" lon="15.858499195549715"><ele>1323.8000000000002</ele><time>2026-04-25T11:12:44.999Z</time></trkpt><trkpt lat="38.07596021387913" lon="15.858603714306977"><ele>1326.1999999999998</ele><time>2026-04-25T11:12:45.999Z</time></trkpt><trkpt lat="38.07595172641153" lon="15.85875156424272"><ele>1328.6</ele><time>2026-04-25T11:12:46.999Z</time></trkpt><trkpt lat="38.07593695722939" lon="15.858919125522243"><ele>1331.0</ele><time>2026-04-25T11:12:47.999Z</time></trkpt><trkpt lat="38.07592050824528" lon="15.859097019972873"><ele>1331.0</ele><time>2026-04-25T11:12:48.999Z</time></trkpt><trkpt lat="38.075907266415676" lon="15.859273035752052"><ele>1331.0</ele><time>2026-04-25T11:12:49.999Z</time></trkpt><trkpt lat="38.07588039207233" lon="15.859406229067773"><ele>1331.0</ele><time>2026-04-25T11:12:50.999Z</time></trkpt><trkpt lat="38.07586163222087" lon="15.85952730678466"><ele>1331.0</ele><time>2026-04-25T11:12:51.999Z</time></trkpt><trkpt lat="38.0758469135033" lon="15.85966918791263"><ele>1333.6</ele><time>2026-04-25T11:12:52.999Z</time></trkpt><trkpt lat="38.075829504992335" lon="15.859809697934512"><ele>1336.1999999999998</ele><time>2026-04-25T11:12:53.999Z</time></trkpt><trkpt lat="38.075827308471396" lon="15.859908080093623"><ele>1338.8000000000002</ele><time>2026-04-25T11:12:54.999Z</time></trkpt><trkpt lat="38.075849994480826" lon="15.86001801584216"><ele>1341.4</ele><time>2026-04-25T11:12:55.999Z</time></trkpt><trkpt lat="38.07589333986989" lon="15.860131215952318"><ele>1344.0</ele><time>2026-04-25T11:12:56.999Z</time></trkpt><trkpt lat="38.07593293330196" lon="15.860226774720186"><ele>1344.5</ele><time>2026-04-25T11:12:57.999Z</time></trkpt><trkpt lat="38.07595961669756" lon="15.860299319997901"><ele>1345.0</ele><time>2026-04-25T11:12:58.999Z</time></trkpt><trkpt lat="38.07594325073411" lon="15.860390379735968"><ele>1345.5</ele><time>2026-04-25T11:13:00.999Z</time></trkpt><trkpt lat="38.07583768262522" lon="15.860405096901916"><ele>1346.0</ele><time>2026-04-25T11:13:02.999Z</time></trkpt><trkpt lat="38.07576243032653" lon="15.860370827640265"><ele>1346.5</ele><time>2026-04-25T11:13:03.999Z</time></trkpt><trkpt lat="38.07565952819687" lon="15.860337200866848"><ele>1347.0</ele><time>2026-04-25T11:13:04.999Z</time></trkpt><trkpt lat="38.07554299449662" lon="15.86030206220923"><ele>1347.0</ele><time>2026-04-25T11:13:05.999Z</time></trkpt><trkpt lat="38.075449747849994" lon="15.86026317135495"><ele>1347.0</ele><time>2026-04-25T11:13:06.999Z</time></trkpt><trkpt lat="38.07538728601541" lon="15.860197334310376"><ele>1347.0</ele><time>2026-04-25T11:13:07.999Z</time></trkpt><trkpt lat="38.07531340950181" lon="15.860122642567989"><ele>1347.0</ele><time>2026-04-25T11:13:08.999Z</time></trkpt><trkpt lat="38.075260727921766" lon="15.860077006137955"><ele>1347.0</ele><time>2026-04-25T11:13:09.999Z</time></trkpt><trkpt lat="38.07516605858464" lon="15.860105607185824"><ele>1347.0</ele><time>2026-04-25T11:13:11.999Z</time></trkpt><trkpt lat="38.075111744218354" lon="15.860160498987605"><ele>1347.0</ele><time>2026-04-25T11:13:12.999Z</time></trkpt><trkpt lat="38.0750568976361" lon="15.86023403123484"><ele>1347.0</ele><time>2026-04-25T11:13:13.999Z</time></trkpt><trkpt lat="38.07500792767711" lon="15.860321456536452"><ele>1347.0</ele><time>2026-04-25T11:13:14.999Z</time></trkpt><trkpt lat="38.0749599722986" lon="15.860415259011575"><ele>1347.0</ele><time>2026-04-25T11:13:15.999Z</time></trkpt><trkpt lat="38.0749206992752" lon="15.860512996621111"><ele>1347.0</ele><time>2026-04-25T11:13:16.999Z</time></trkpt><trkpt lat="38.074906998328785" lon="15.860611833534847"><ele>1347.0</ele><time>2026-04-25T11:13:17.999Z</time></trkpt><trkpt lat="38.07490656942641" lon="15.860702866762766"><ele>1347.0</ele><time>2026-04-25T11:13:18.999Z</time></trkpt><trkpt lat="38.074930128463414" lon="15.860807163157526"><ele>1347.0</ele><time>2026-04-25T11:13:19.999Z</time></trkpt><trkpt lat="38.07496600734536" lon="15.860911365501535"><ele>1347.0</ele><time>2026-04-25T11:13:20.999Z</time></trkpt><trkpt lat="38.074995849464294" lon="15.861017272002712"><ele>1347.0</ele><time>2026-04-25T11:13:21.999Z</time></trkpt><trkpt lat="38.07500746917097" lon="15.861139450545217"><ele>1347.0</ele><time>2026-04-25T11:13:22.999Z</time></trkpt><trkpt lat="38.07500958664722" lon="15.861254903500981"><ele>1347.0</ele><time>2026-04-25T11:13:23.999Z</time></trkpt><trkpt lat="38.0749966988594" lon="15.86136710896812"><ele>1347.0</ele><time>2026-04-25T11:13:24.999Z</time></trkpt><trkpt lat="38.07497073200288" lon="15.861476058483206"><ele>1347.0</ele><time>2026-04-25T11:13:25.999Z</time></trkpt><trkpt lat="38.07493403622379" lon="15.861599493730381"><ele>1347.0</ele><time>2026-04-25T11:13:26.999Z</time></trkpt><trkpt lat="38.07489856859438" lon="15.861702460763826"><ele>1347.0</ele><time>2026-04-25T11:13:27.999Z</time></trkpt><trkpt lat="38.07486887433034" lon="15.861789469389091"><ele>1347.0</ele><time>2026-04-25T11:13:28.999Z</time></trkpt><trkpt lat="38.074793821973486" lon="15.861879580154419"><ele>1347.0</ele><time>2026-04-25T11:13:30.999Z</time></trkpt><trkpt lat="38.07469327012377" lon="15.861869193601736"><ele>1347.0</ele><time>2026-04-25T11:13:32.999Z</time></trkpt><trkpt lat="38.07461298701288" lon="15.861773067078143"><ele>1347.0</ele><time>2026-04-25T11:13:34.999Z</time></trkpt><trkpt lat="38.07457652175333" lon="15.86169205074645"><ele>1347.0</ele><time>2026-04-25T11:13:35.999Z</time></trkpt><trkpt lat="38.07452117762176" lon="15.861645470402065"><ele>1347.0</ele><time>2026-04-25T11:13:36.999Z</time></trkpt><trkpt lat="38.07445146932803" lon="15.861644358019747"><ele>1347.0</ele><time>2026-04-25T11:13:37.999Z</time></trkpt><trkpt lat="38.07435613302119" lon="15.861653516669257"><ele>1347.0</ele><time>2026-04-25T11:13:39Z</time></trkpt><trkpt lat="38.0742703530886" lon="15.861644191270125"><ele>1347.0</ele><time>2026-04-25T11:13:40Z</time></trkpt><trkpt lat="38.07419456588985" lon="15.86161770934123"><ele>1347.0</ele><time>2026-04-25T11:13:41Z</time></trkpt><trkpt lat="38.07407986528832" lon="15.861612816928035"><ele>1347.0</ele><time>2026-04-25T11:13:43Z</time></trkpt><trkpt lat="38.0740217376467" lon="15.861671437246168"><ele>1347.0</ele><time>2026-04-25T11:13:44Z</time></trkpt><trkpt lat="38.07395542328068" lon="15.861755089903523"><ele>1347.0</ele><time>2026-04-25T11:13:45Z</time></trkpt><trkpt lat="38.07392002018144" lon="15.861839756233007"><ele>1347.5714285714284</ele><time>2026-04-25T11:13:46Z</time></trkpt><trkpt lat="38.073898907837645" lon="15.861930425381251"><ele>1348.142857142857</ele><time>2026-04-25T11:13:47Z</time></trkpt><trkpt lat="38.073889673273946" lon="15.862037185111317"><ele>1348.7142857142858</ele><time>2026-04-25T11:13:48Z</time></trkpt><trkpt lat="38.07388253548867" lon="15.862140747352942"><ele>1349.2857142857142</ele><time>2026-04-25T11:13:49Z</time></trkpt><trkpt lat="38.07387053843184" lon="15.862237404894266"><ele>1349.857142857143</ele><time>2026-04-25T11:13:50Z</time></trkpt><trkpt lat="38.07384974471309" lon="15.862314780641036"><ele>1350.4285714285713</ele><time>2026-04-25T11:13:51Z</time></trkpt><trkpt lat="38.07381133670414" lon="15.862383306839071"><ele>1351.0</ele><time>2026-04-25T11:13:52Z</time></trkpt><trkpt lat="38.073703638244446" lon="15.862476579129778"><ele>1351.0</ele><time>2026-04-25T11:13:54Z</time></trkpt><trkpt lat="38.07362792743457" lon="15.86249492910609"><ele>1351.0</ele><time>2026-04-25T11:13:55Z</time></trkpt><trkpt lat="38.07355621607391" lon="15.862490482861912"><ele>1351.0</ele><time>2026-04-25T11:13:56Z</time></trkpt><trkpt lat="38.07348213042278" lon="15.862481097449702"><ele>1351.0</ele><time>2026-04-25T11:13:58Z</time></trkpt><trkpt lat="38.07351763686571" lon="15.862590409514956"><ele>1351.0</ele><time>2026-04-25T11:14:44.999Z</time></trkpt><trkpt lat="38.07352803911582" lon="15.86274559631661"><ele>1351.0</ele><time>2026-04-25T11:14:46.999Z</time></trkpt><trkpt lat="38.073494808249436" lon="15.86283274550345"><ele>1351.6</ele><time>2026-04-25T11:14:47.999Z</time></trkpt><trkpt lat="38.073459920878584" lon="15.862910259588075"><ele>1352.1999999999998</ele><time>2026-04-25T11:14:48.999Z</time></trkpt><trkpt lat="38.07348238428134" lon="15.863032035583423"><ele>1352.8000000000002</ele><time>2026-04-25T11:14:50.999Z</time></trkpt><trkpt lat="38.073606544004264" lon="15.863064599778996"><ele>1353.4</ele><time>2026-04-25T11:14:52.999Z</time></trkpt><trkpt lat="38.07370800383778" lon="15.863021226115789"><ele>1354.0</ele><time>2026-04-25T11:14:54.999Z</time></trkpt><trkpt lat="38.073758680610545" lon="15.862964947025457"><ele>1354.0</ele><time>2026-04-25T11:14:55.999Z</time></trkpt><trkpt lat="38.07381863321076" lon="15.862901861493684"><ele>1354.0</ele><time>2026-04-25T11:14:56.999Z</time></trkpt><trkpt lat="38.07390688767278" lon="15.862815903634935"><ele>1354.0</ele><time>2026-04-25T11:14:57.999Z</time></trkpt><trkpt lat="38.074031800544574" lon="15.862706636344942"><ele>1354.0</ele><time>2026-04-25T11:14:58.999Z</time></trkpt><trkpt lat="38.074149389411694" lon="15.86262220207536"><ele>1355.0</ele><time>2026-04-25T11:14:59.999Z</time></trkpt><trkpt lat="38.0742240995768" lon="15.862592566752488"><ele>1356.0</ele><time>2026-04-25T11:15:00.999Z</time></trkpt><trkpt lat="38.07427100910805" lon="15.862665122397756"><ele>1357.0</ele><time>2026-04-25T11:15:03Z</time></trkpt><trkpt lat="38.07422623040188" lon="15.862771634082849"><ele>1358.0</ele><time>2026-04-25T11:15:05Z</time></trkpt><trkpt lat="38.07416501255979" lon="15.862822964787746"><ele>1359.0</ele><time>2026-04-25T11:15:06Z</time></trkpt><trkpt lat="38.074135173515806" lon="15.86293322054001"><ele>1360.0</ele><time>2026-04-25T11:15:08Z</time></trkpt><trkpt lat="38.07426519635776" lon="15.862947068907644"><ele>1361.8</ele><time>2026-04-25T11:15:10Z</time></trkpt><trkpt lat="38.07433937881311" lon="15.862900350876156"><ele>1363.6</ele><time>2026-04-25T11:15:11Z</time></trkpt><trkpt lat="38.07442132211654" lon="15.862825388133016"><ele>1365.4</ele><time>2026-04-25T11:15:12Z</time></trkpt><trkpt lat="38.0745287672123" lon="15.862770926587832"><ele>1367.2</ele><time>2026-04-25T11:15:13Z</time></trkpt><trkpt lat="38.074672155854735" lon="15.862739389769775"><ele>1369.0</ele><time>2026-04-25T11:15:14Z</time></trkpt><trkpt lat="38.07481731095206" lon="15.862712902949765"><ele>1372.4</ele><time>2026-04-25T11:15:15Z</time></trkpt><trkpt lat="38.074939366748616" lon="15.862719038461744"><ele>1375.8000000000002</ele><time>2026-04-25T11:15:16Z</time></trkpt><trkpt lat="38.075055604070194" lon="15.862746449832068"><ele>1379.1999999999998</ele><time>2026-04-25T11:15:17Z</time></trkpt><trkpt lat="38.07516436049472" lon="15.862765599210778"><ele>1382.6</ele><time>2026-04-25T11:15:18Z</time></trkpt><trkpt lat="38.07525691395372" lon="15.862755684955836"><ele>1386.0</ele><time>2026-04-25T11:15:19Z</time></trkpt><trkpt lat="38.07530742104155" lon="15.86269454605644"><ele>1382.6</ele><time>2026-04-25T11:15:20Z</time></trkpt><trkpt lat="38.075357189207594" lon="15.862612940300675"><ele>1379.1999999999998</ele><time>2026-04-25T11:15:21Z</time></trkpt><trkpt lat="38.07538967954558" lon="15.862508063358232"><ele>1375.8000000000002</ele><time>2026-04-25T11:15:22Z</time></trkpt><trkpt lat="38.07541071894515" lon="15.862376542391939"><ele>1372.4</ele><time>2026-04-25T11:15:23Z</time></trkpt><trkpt lat="38.075445421744924" lon="15.86225679746762"><ele>1369.0</ele><time>2026-04-25T11:15:24Z</time></trkpt><trkpt lat="38.075514348030644" lon="15.862169612156494"><ele>1369.0</ele><time>2026-04-25T11:15:25Z</time></trkpt><trkpt lat="38.07560601358233" lon="15.86211034000114"><ele>1369.0</ele><time>2026-04-25T11:15:26Z</time></trkpt><trkpt lat="38.07571238247492" lon="15.862071976841731"><ele>1369.0</ele><time>2026-04-25T11:15:27Z</time></trkpt><trkpt lat="38.07582432084707" lon="15.862070372651747"><ele>1369.0</ele><time>2026-04-25T11:15:28Z</time></trkpt><trkpt lat="38.075941483531906" lon="15.862111636769413"><ele>1369.0</ele><time>2026-04-25T11:15:29Z</time></trkpt><trkpt lat="38.07607887039819" lon="15.862176486312377"><ele>1374.6666666666665</ele><time>2026-04-25T11:15:30Z</time></trkpt><trkpt lat="38.07624905677038" lon="15.86225348659516"><ele>1380.3333333333333</ele><time>2026-04-25T11:15:31Z</time></trkpt><trkpt lat="38.0763943442772" lon="15.86230428438327"><ele>1386.0</ele><time>2026-04-25T11:15:32Z</time></trkpt><trkpt lat="38.07650932410069" lon="15.862353915916465"><ele>1386.0</ele><time>2026-04-25T11:15:33Z</time></trkpt><trkpt lat="38.07660046117299" lon="15.86239896811611"><ele>1386.0</ele><time>2026-04-25T11:15:34Z</time></trkpt><trkpt lat="38.076673657962125" lon="15.862455480998417"><ele>1386.0</ele><time>2026-04-25T11:15:35Z</time></trkpt><trkpt lat="38.07671770284854" lon="15.862534000723391"><ele>1386.0</ele><time>2026-04-25T11:15:36Z</time></trkpt><trkpt lat="38.07675048637723" lon="15.862608979173274"><ele>1386.0</ele><time>2026-04-25T11:15:37Z</time></trkpt><trkpt lat="38.07684260479172" lon="15.86265079522329"><ele>1386.0</ele><time>2026-04-25T11:15:39Z</time></trkpt><trkpt lat="38.07690894520648" lon="15.862628786427477"><ele>1387.4</ele><time>2026-04-25T11:15:40Z</time></trkpt><trkpt lat="38.07697925392797" lon="15.862576497401502"><ele>1388.8</ele><time>2026-04-25T11:15:41Z</time></trkpt><trkpt lat="38.077063302952084" lon="15.86248312306947"><ele>1390.2</ele><time>2026-04-25T11:15:42Z</time></trkpt><trkpt lat="38.077157227180955" lon="15.862396245258466"><ele>1391.6000000000001</ele><time>2026-04-25T11:15:43Z</time></trkpt><trkpt lat="38.07724152579088" lon="15.862359149630848"><ele>1393.0</ele><time>2026-04-25T11:15:44.001Z</time></trkpt><trkpt lat="38.077316109460305" lon="15.862373917371404"><ele>1393.0</ele><time>2026-04-25T11:15:45.001Z</time></trkpt><trkpt lat="38.07739280215125" lon="15.86239415169502"><ele>1393.0</ele><time>2026-04-25T11:15:46.001Z</time></trkpt><trkpt lat="38.07747407742374" lon="15.862305072209562"><ele>1393.0</ele><time>2026-04-25T11:15:48.001Z</time></trkpt><trkpt lat="38.077474928717415" lon="15.862203116973618"><ele>1393.0</ele><time>2026-04-25T11:15:49.001Z</time></trkpt><trkpt lat="38.07746128042182" lon="15.862064328256473"><ele>1393.0</ele><time>2026-04-25T11:15:50.001Z</time></trkpt><trkpt lat="38.07747231253531" lon="15.861917529868983"><ele>1395.6000000000001</ele><time>2026-04-25T11:15:51.001Z</time></trkpt><trkpt lat="38.07751489241275" lon="15.861787938860642"><ele>1398.2</ele><time>2026-04-25T11:15:52.001Z</time></trkpt><trkpt lat="38.077573841234035" lon="15.861711857873766"><ele>1400.8</ele><time>2026-04-25T11:15:53.001Z</time></trkpt><trkpt lat="38.07765679929173" lon="15.861652862452994"><ele>1403.4</ele><time>2026-04-25T11:15:54.001Z</time></trkpt><trkpt lat="38.07774846007508" lon="15.861585622398536"><ele>1406.0</ele><time>2026-04-25T11:15:55.001Z</time></trkpt><trkpt lat="38.07784913218825" lon="15.861492355583735"><ele>1406.0</ele><time>2026-04-25T11:15:56.001Z</time></trkpt><trkpt lat="38.077954060305515" lon="15.861392153114203"><ele>1406.0</ele><time>2026-04-25T11:15:57.001Z</time></trkpt><trkpt lat="38.07805600589294" lon="15.861327982950423"><ele>1406.0</ele><time>2026-04-25T11:15:58.001Z</time></trkpt><trkpt lat="38.0781456171944" lon="15.861284379545628"><ele>1406.0</ele><time>2026-04-25T11:15:59.001Z</time></trkpt><trkpt lat="38.07824587571157" lon="15.861266042740036"><ele>1406.0</ele><time>2026-04-25T11:16:00.001Z</time></trkpt><trkpt lat="38.07833997762191" lon="15.861268718630523"><ele>1409.25</ele><time>2026-04-25T11:16:01.001Z</time></trkpt><trkpt lat="38.078436877458536" lon="15.861279191452713"><ele>1412.5</ele><time>2026-04-25T11:16:02.001Z</time></trkpt><trkpt lat="38.078554602651465" lon="15.861288467023757"><ele>1415.75</ele><time>2026-04-25T11:16:03.001Z</time></trkpt><trkpt lat="38.078676623023654" lon="15.861301202470127"><ele>1419.0</ele><time>2026-04-25T11:16:04.001Z</time></trkpt><trkpt lat="38.07879588693768" lon="15.861301454018294"><ele>1419.0</ele><time>2026-04-25T11:16:05.001Z</time></trkpt><trkpt lat="38.078912260406305" lon="15.861299771173371"><ele>1419.0</ele><time>2026-04-25T11:16:06.001Z</time></trkpt><trkpt lat="38.07901932772493" lon="15.861310260561549"><ele>1419.0</ele><time>2026-04-25T11:16:07.001Z</time></trkpt><trkpt lat="38.07912198391972" lon="15.861338464166481"><ele>1419.0</ele><time>2026-04-25T11:16:08.001Z</time></trkpt><trkpt lat="38.07921908766847" lon="15.861372154260307"><ele>1419.0</ele><time>2026-04-25T11:16:09Z</time></trkpt><trkpt lat="38.07930688433548" lon="15.861372932549369"><ele>1418.2</ele><time>2026-04-25T11:16:10Z</time></trkpt><trkpt lat="38.0793994611408" lon="15.861344256515933"><ele>1417.4</ele><time>2026-04-25T11:16:11Z</time></trkpt><trkpt lat="38.0794951242563" lon="15.861278978394001"><ele>1416.6</ele><time>2026-04-25T11:16:12Z</time></trkpt><trkpt lat="38.079593218309356" lon="15.861193438601152"><ele>1415.8</ele><time>2026-04-25T11:16:13Z</time></trkpt><trkpt lat="38.079686430655954" lon="15.861136282145948"><ele>1415.0</ele><time>2026-04-25T11:16:14Z</time></trkpt><trkpt lat="38.0797586514226" lon="15.861125883529404"><ele>1415.0</ele><time>2026-04-25T11:16:15Z</time></trkpt><trkpt lat="38.07983453001135" lon="15.861166035124752"><ele>1415.0</ele><time>2026-04-25T11:16:16Z</time></trkpt><trkpt lat="38.07993941765055" lon="15.861201946885545"><ele>1415.0</ele><time>2026-04-25T11:16:17Z</time></trkpt><trkpt lat="38.08002705048668" lon="15.86119073575748"><ele>1415.0</ele><time>2026-04-25T11:16:18Z</time></trkpt><trkpt lat="38.080096971499955" lon="15.86112456825233"><ele>1415.0</ele><time>2026-04-25T11:16:19Z</time></trkpt><trkpt lat="38.08016938422074" lon="15.861049239286535"><ele>1415.0</ele><time>2026-04-25T11:16:20Z</time></trkpt><trkpt lat="38.0802520204829" lon="15.860998810253438"><ele>1415.0</ele><time>2026-04-25T11:16:21Z</time></trkpt><trkpt lat="38.08034678945405" lon="15.861007677731509"><ele>1415.0</ele><time>2026-04-25T11:16:22Z</time></trkpt><trkpt lat="38.08044694105313" lon="15.861055876944032"><ele>1415.0</ele><time>2026-04-25T11:16:23Z</time></trkpt><trkpt lat="38.080547344085296" lon="15.861133484698838"><ele>1415.0</ele><time>2026-04-25T11:16:24Z</time></trkpt><trkpt lat="38.08064256658679" lon="15.861212934826401"><ele>1415.0</ele><time>2026-04-25T11:16:25Z</time></trkpt><trkpt lat="38.080744574536254" lon="15.861251465355496"><ele>1415.0</ele><time>2026-04-25T11:16:26Z</time></trkpt><trkpt lat="38.08084296899244" lon="15.861256078816677"><ele>1415.0</ele><time>2026-04-25T11:16:27Z</time></trkpt><trkpt lat="38.08094255898097" lon="15.861231405196545"><ele>1415.0</ele><time>2026-04-25T11:16:28Z</time></trkpt><trkpt lat="38.08105884536603" lon="15.861183674293994"><ele>1415.0</ele><time>2026-04-25T11:16:29Z</time></trkpt><trkpt lat="38.08118351020578" lon="15.86113220064447"><ele>1411.75</ele><time>2026-04-25T11:16:30Z</time></trkpt><trkpt lat="38.08130996333014" lon="15.861085573518338"><ele>1408.5</ele><time>2026-04-25T11:16:31Z</time></trkpt><trkpt lat="38.08141899254327" lon="15.861026315090378"><ele>1405.25</ele><time>2026-04-25T11:16:32Z</time></trkpt><trkpt lat="38.08151129250944" lon="15.860940272047252"><ele>1402.0</ele><time>2026-04-25T11:16:33Z</time></trkpt><trkpt lat="38.081598724847176" lon="15.86084179732501"><ele>1402.0</ele><time>2026-04-25T11:16:34Z</time></trkpt><trkpt lat="38.08170290361146" lon="15.860733397182564"><ele>1402.0</ele><time>2026-04-25T11:16:35Z</time></trkpt><trkpt lat="38.08183023803918" lon="15.860671855243323"><ele>1402.0</ele><time>2026-04-25T11:16:36Z</time></trkpt><trkpt lat="38.08199486350198" lon="15.860609402332148"><ele>1402.0</ele><time>2026-04-25T11:16:37Z</time></trkpt><trkpt lat="38.08215129927777" lon="15.860532888174987"><ele>1402.0</ele><time>2026-04-25T11:16:38Z</time></trkpt><trkpt lat="38.082274678824355" lon="15.860453824463976"><ele>1402.0</ele><time>2026-04-25T11:16:39Z</time></trkpt><trkpt lat="38.08239015018293" lon="15.86037085895871"><ele>1402.0</ele><time>2026-04-25T11:16:40Z</time></trkpt><trkpt lat="38.08251608723011" lon="15.860273695353758"><ele>1402.0</ele><time>2026-04-25T11:16:41Z</time></trkpt><trkpt lat="38.08266001134238" lon="15.860206764030533"><ele>1401.3333333333333</ele><time>2026-04-25T11:16:42Z</time></trkpt><trkpt lat="38.082820651766276" lon="15.860151305610787"><ele>1400.6666666666667</ele><time>2026-04-25T11:16:43Z</time></trkpt><trkpt lat="38.08297900680544" lon="15.860086499195015"><ele>1400.0</ele><time>2026-04-25T11:16:44Z</time></trkpt><trkpt lat="38.08311829733191" lon="15.860011258061423"><ele>1402.0</ele><time>2026-04-25T11:16:45Z</time></trkpt><trkpt lat="38.08323640919385" lon="15.8599286466231"><ele>1404.0</ele><time>2026-04-25T11:16:46Z</time></trkpt><trkpt lat="38.08332563474553" lon="15.859853231922399"><ele>1406.0</ele><time>2026-04-25T11:16:47Z</time></trkpt><trkpt lat="38.08339685353396" lon="15.859821277237282"><ele>1408.0</ele><time>2026-04-25T11:16:48Z</time></trkpt><trkpt lat="38.08349193926654" lon="15.859904114232616"><ele>1410.0</ele><time>2026-04-25T11:16:50Z</time></trkpt><trkpt lat="38.083547742298364" lon="15.859987680506517"><ele>1409.0</ele><time>2026-04-25T11:16:51Z</time></trkpt><trkpt lat="38.083634909607675" lon="15.86008686543341"><ele>1408.0</ele><time>2026-04-25T11:16:52Z</time></trkpt><trkpt lat="38.08373562493934" lon="15.860183111782066"><ele>1407.0</ele><time>2026-04-25T11:16:53Z</time></trkpt><trkpt lat="38.083843124855825" lon="15.860231986496482"><ele>1406.0</ele><time>2026-04-25T11:16:54Z</time></trkpt><trkpt lat="38.08393534169248" lon="15.860256104212375"><ele>1406.0</ele><time>2026-04-25T11:16:55Z</time></trkpt><trkpt lat="38.084020582425175" lon="15.860251841581798"><ele>1406.0</ele><time>2026-04-25T11:16:56Z</time></trkpt><trkpt lat="38.08413288267385" lon="15.860205511957844"><ele>1406.0</ele><time>2026-04-25T11:16:57Z</time></trkpt><trkpt lat="38.08422168343663" lon="15.860109673567809"><ele>1406.0</ele><time>2026-04-25T11:16:58Z</time></trkpt><trkpt lat="38.08432109347896" lon="15.860015506809631"><ele>1406.0</ele><time>2026-04-25T11:16:59Z</time></trkpt><trkpt lat="38.08442945375976" lon="15.859926434084064"><ele>1408.4</ele><time>2026-04-25T11:17:00Z</time></trkpt><trkpt lat="38.084511521828304" lon="15.859837695378413"><ele>1410.8</ele><time>2026-04-25T11:17:01Z</time></trkpt><trkpt lat="38.08456810826255" lon="15.859755764001056"><ele>1413.2</ele><time>2026-04-25T11:17:02Z</time></trkpt><trkpt lat="38.08462811507931" lon="15.859709119394505"><ele>1415.6000000000001</ele><time>2026-04-25T11:17:03Z</time></trkpt><trkpt lat="38.08472153830519" lon="15.85979632769092"><ele>1418.0</ele><time>2026-04-25T11:17:05Z</time></trkpt><trkpt lat="38.084765136510526" lon="15.859885622381242"><ele>1418.0</ele><time>2026-04-25T11:17:06Z</time></trkpt><trkpt lat="38.08481768525471" lon="15.859990326702409"><ele>1418.0</ele><time>2026-04-25T11:17:07Z</time></trkpt><trkpt lat="38.08489607170476" lon="15.86008947853388"><ele>1418.0</ele><time>2026-04-25T11:17:08Z</time></trkpt><trkpt lat="38.08498968973726" lon="15.860180204557796"><ele>1418.0</ele><time>2026-04-25T11:17:09Z</time></trkpt><trkpt lat="38.08509521235195" lon="15.86026154746494"><ele>1417.6000000000001</ele><time>2026-04-25T11:17:10Z</time></trkpt><trkpt lat="38.08517507392472" lon="15.860351324437971"><ele>1417.2</ele><time>2026-04-25T11:17:11Z</time></trkpt><trkpt lat="38.08524965946942" lon="15.860440006631942"><ele>1416.8</ele><time>2026-04-25T11:17:12Z</time></trkpt><trkpt lat="38.08531791410202" lon="15.86053106316738"><ele>1416.4</ele><time>2026-04-25T11:17:13Z</time></trkpt><trkpt lat="38.085374502398174" lon="15.860640909992547"><ele>1416.0</ele><time>2026-04-25T11:17:14Z</time></trkpt><trkpt lat="38.08542902559272" lon="15.860770528896277"><ele>1416.0</ele><time>2026-04-25T11:17:15Z</time></trkpt><trkpt lat="38.08547250566436" lon="15.860913228604028"><ele>1416.0</ele><time>2026-04-25T11:17:16Z</time></trkpt><trkpt lat="38.085504941711" lon="15.861066956848319"><ele>1416.0</ele><time>2026-04-25T11:17:17Z</time></trkpt><trkpt lat="38.08552089881887" lon="15.861229520802247"><ele>1416.0</ele><time>2026-04-25T11:17:18Z</time></trkpt><trkpt lat="38.08553087433562" lon="15.86139880773583"><ele>1414.75</ele><time>2026-04-25T11:17:19Z</time></trkpt><trkpt lat="38.085550778150036" lon="15.861544417239921"><ele>1413.5</ele><time>2026-04-25T11:17:20Z</time></trkpt><trkpt lat="38.085596227704094" lon="15.861678862823961"><ele>1412.25</ele><time>2026-04-25T11:17:21Z</time></trkpt><trkpt lat="38.08566426333828" lon="15.861818589974398"><ele>1411.0</ele><time>2026-04-25T11:17:22Z</time></trkpt><trkpt lat="38.085754207958175" lon="15.861977194888222"><ele>1411.3333333333333</ele><time>2026-04-25T11:17:23Z</time></trkpt><trkpt lat="38.08585266263879" lon="15.862132755017427"><ele>1411.6666666666667</ele><time>2026-04-25T11:17:24Z</time></trkpt><trkpt lat="38.08596639555679" lon="15.862257209952988"><ele>1412.0</ele><time>2026-04-25T11:17:25Z</time></trkpt><trkpt lat="38.08608384369467" lon="15.862365066212822"><ele>1412.0</ele><time>2026-04-25T11:17:26Z</time></trkpt><trkpt lat="38.086199652034914" lon="15.86246675696673"><ele>1412.0</ele><time>2026-04-25T11:17:27Z</time></trkpt><trkpt lat="38.08633074136622" lon="15.862551917013118"><ele>1412.0</ele><time>2026-04-25T11:17:28Z</time></trkpt><trkpt lat="38.0864755141047" lon="15.862636208179476"><ele>1412.0</ele><time>2026-04-25T11:17:29Z</time></trkpt><trkpt lat="38.086628530826665" lon="15.862728226280662"><ele>1411.25</ele><time>2026-04-25T11:17:30Z</time></trkpt><trkpt lat="38.0867723056524" lon="15.862806895562857"><ele>1410.5</ele><time>2026-04-25T11:17:31Z</time></trkpt><trkpt lat="38.08689718412953" lon="15.862874020570132"><ele>1409.75</ele><time>2026-04-25T11:17:32Z</time></trkpt><trkpt lat="38.08701998308891" lon="15.86294080227258"><ele>1409.0</ele><time>2026-04-25T11:17:33Z</time></trkpt><trkpt lat="38.08713534873356" lon="15.863016908151577"><ele>1409.0</ele><time>2026-04-25T11:17:34Z</time></trkpt><trkpt lat="38.08724669298156" lon="15.863111053288726"><ele>1409.0</ele><time>2026-04-25T11:17:35Z</time></trkpt><trkpt lat="38.08735908158679" lon="15.863221269228806"><ele>1409.0</ele><time>2026-04-25T11:17:36Z</time></trkpt><trkpt lat="38.087468208250044" lon="15.863336962296412"><ele>1409.0</ele><time>2026-04-25T11:17:37Z</time></trkpt><trkpt lat="38.0875767331779" lon="15.863471572473154"><ele>1406.75</ele><time>2026-04-25T11:17:38Z</time></trkpt><trkpt lat="38.087667742095825" lon="15.86361858646659"><ele>1404.5</ele><time>2026-04-25T11:17:39Z</time></trkpt><trkpt lat="38.087746494048126" lon="15.86377016009769"><ele>1402.25</ele><time>2026-04-25T11:17:40Z</time></trkpt><trkpt lat="38.08781165375377" lon="15.86391305840974"><ele>1400.0</ele><time>2026-04-25T11:17:41Z</time></trkpt><trkpt lat="38.087866132117114" lon="15.864047766897212"><ele>1400.0</ele><time>2026-04-25T11:17:42Z</time></trkpt><trkpt lat="38.08790204708863" lon="15.864174210999527"><ele>1400.0</ele><time>2026-04-25T11:17:43Z</time></trkpt><trkpt lat="38.087914106389995" lon="15.864295422304714"><ele>1400.0</ele><time>2026-04-25T11:17:44Z</time></trkpt><trkpt lat="38.087902167936534" lon="15.864412812375853"><ele>1400.0</ele><time>2026-04-25T11:17:45Z</time></trkpt><trkpt lat="38.08786447870473" lon="15.864527543182504"><ele>1400.0</ele><time>2026-04-25T11:17:46Z</time></trkpt><trkpt lat="38.087792831551916" lon="15.864681349800808"><ele>1398.25</ele><time>2026-04-25T11:17:47Z</time></trkpt><trkpt lat="38.087738957031384" lon="15.86486928386056"><ele>1396.5</ele><time>2026-04-25T11:17:48Z</time></trkpt><trkpt lat="38.087706908034285" lon="15.865037670262666"><ele>1394.75</ele><time>2026-04-25T11:17:49.001Z</time></trkpt><trkpt lat="38.087690657218054" lon="15.865200988684151"><ele>1393.0</ele><time>2026-04-25T11:17:50.001Z</time></trkpt><trkpt lat="38.08767788636305" lon="15.865336811915254"><ele>1392.0</ele><time>2026-04-25T11:17:51.001Z</time></trkpt><trkpt lat="38.087676605118304" lon="15.86545965140986"><ele>1391.0</ele><time>2026-04-25T11:17:52.001Z</time></trkpt><trkpt lat="38.08769369266395" lon="15.865589529246087"><ele>1390.0</ele><time>2026-04-25T11:17:53.001Z</time></trkpt><trkpt lat="38.08772991791001" lon="15.865731149934978"><ele>1389.0</ele><time>2026-04-25T11:17:54.001Z</time></trkpt><trkpt lat="38.087778845228684" lon="15.865878629979168"><ele>1388.0</ele><time>2026-04-25T11:17:55.001Z</time></trkpt><trkpt lat="38.08783495081307" lon="15.866024304040808"><ele>1388.0</ele><time>2026-04-25T11:17:56.001Z</time></trkpt><trkpt lat="38.087885424042355" lon="15.866147582239142"><ele>1388.0</ele><time>2026-04-25T11:17:57.001Z</time></trkpt><trkpt lat="38.087905259217635" lon="15.866245676168962"><ele>1388.0</ele><time>2026-04-25T11:17:58.001Z</time></trkpt><trkpt lat="38.087895400427875" lon="15.866362955254367"><ele>1388.0</ele><time>2026-04-25T11:17:59.001Z</time></trkpt><trkpt lat="38.08788324199641" lon="15.866506221788024"><ele>1388.0</ele><time>2026-04-25T11:18:00.001Z</time></trkpt><trkpt lat="38.08787083234194" lon="15.866635855881142"><ele>1388.0</ele><time>2026-04-25T11:18:01.001Z</time></trkpt><trkpt lat="38.08789456480525" lon="15.866731161870183"><ele>1388.0</ele><time>2026-04-25T11:18:02.001Z</time></trkpt><trkpt lat="38.08801683385093" lon="15.866827174665415"><ele>1388.0</ele><time>2026-04-25T11:18:04.001Z</time></trkpt><trkpt lat="38.08812383110963" lon="15.866907823956952"><ele>1388.0</ele><time>2026-04-25T11:18:05.001Z</time></trkpt><trkpt lat="38.08823557907246" lon="15.866977585142973"><ele>1388.0</ele><time>2026-04-25T11:18:06.001Z</time></trkpt><trkpt lat="38.08835265097505" lon="15.867030164943234"><ele>1388.0</ele><time>2026-04-25T11:18:07.001Z</time></trkpt><trkpt lat="38.0884750857514" lon="15.86706229345621"><ele>1388.0</ele><time>2026-04-25T11:18:08.001Z</time></trkpt><trkpt lat="38.088593402647895" lon="15.867071917076043"><ele>1388.0</ele><time>2026-04-25T11:18:09.001Z</time></trkpt><trkpt lat="38.08871172281051" lon="15.867108675954233"><ele>1388.0</ele><time>2026-04-25T11:18:10.001Z</time></trkpt><trkpt lat="38.088830307368475" lon="15.867168642980998"><ele>1388.0</ele><time>2026-04-25T11:18:11.001Z</time></trkpt><trkpt lat="38.08894598240126" lon="15.867248863639384"><ele>1388.0</ele><time>2026-04-25T11:18:12.001Z</time></trkpt><trkpt lat="38.089060563168104" lon="15.867350477943953"><ele>1388.0</ele><time>2026-04-25T11:18:13Z</time></trkpt><trkpt lat="38.089170726834645" lon="15.86744532329834"><ele>1387.75</ele><time>2026-04-25T11:18:14Z</time></trkpt><trkpt lat="38.08928603702014" lon="15.867541601078942"><ele>1387.5</ele><time>2026-04-25T11:18:15Z</time></trkpt><trkpt lat="38.08939791104191" lon="15.867624810677622"><ele>1387.25</ele><time>2026-04-25T11:18:16Z</time></trkpt><trkpt lat="38.08950043407975" lon="15.867710511133806"><ele>1387.0</ele><time>2026-04-25T11:18:17Z</time></trkpt><trkpt lat="38.08960718107652" lon="15.86780152376422"><ele>1386.0</ele><time>2026-04-25T11:18:18Z</time></trkpt><trkpt lat="38.0897083616632" lon="15.867881361424944"><ele>1385.0</ele><time>2026-04-25T11:18:19Z</time></trkpt><trkpt lat="38.089781341582835" lon="15.867908113289067"><ele>1384.0</ele><time>2026-04-25T11:18:21Z</time></trkpt><trkpt lat="38.08985228542557" lon="15.867871059980004"><ele>1383.0</ele><time>2026-04-25T11:18:25Z</time></trkpt><trkpt lat="38.089964747308564" lon="15.867900285492079"><ele>1382.0</ele><time>2026-04-25T11:18:27Z</time></trkpt><trkpt lat="38.09005379289009" lon="15.867906435105132"><ele>1384.1999999999998</ele><time>2026-04-25T11:18:29Z</time></trkpt><trkpt lat="38.09016577143626" lon="15.86792422434887"><ele>1386.4</ele><time>2026-04-25T11:18:31Z</time></trkpt><trkpt lat="38.09027317323738" lon="15.867955130403798"><ele>1388.6</ele><time>2026-04-25T11:18:33Z</time></trkpt><trkpt lat="38.090355489063484" lon="15.86796430750765"><ele>1390.8000000000002</ele><time>2026-04-25T11:18:34Z</time></trkpt><trkpt lat="38.09044745207391" lon="15.867958550128689"><ele>1393.0</ele><time>2026-04-25T11:18:35Z</time></trkpt><trkpt lat="38.090562840048584" lon="15.867950091539901"><ele>1393.0</ele><time>2026-04-25T11:18:36Z</time></trkpt><trkpt lat="38.09066019006999" lon="15.867934694296828"><ele>1393.0</ele><time>2026-04-25T11:18:37Z</time></trkpt><trkpt lat="38.09073899325645" lon="15.86793010161808"><ele>1393.0</ele><time>2026-04-25T11:18:38Z</time></trkpt><trkpt lat="38.0908178545071" lon="15.867912244759864"><ele>1393.0</ele><time>2026-04-25T11:18:39Z</time></trkpt><trkpt lat="38.09090354695721" lon="15.867816218742899"><ele>1393.0</ele><time>2026-04-25T11:18:41Z</time></trkpt><trkpt lat="38.09093265527407" lon="15.867727274033903"><ele>1393.0</ele><time>2026-04-25T11:18:42Z</time></trkpt><trkpt lat="38.090966140781525" lon="15.867560747019452"><ele>1394.5</ele><time>2026-04-25T11:18:44Z</time></trkpt><trkpt lat="38.09097828024335" lon="15.867468681194081"><ele>1396.0</ele><time>2026-04-25T11:18:45Z</time></trkpt><trkpt lat="38.091002984260626" lon="15.867376806191249"><ele>1397.5</ele><time>2026-04-25T11:18:46Z</time></trkpt><trkpt lat="38.09105799124765" lon="15.867272681434875"><ele>1399.0</ele><time>2026-04-25T11:18:47Z</time></trkpt><trkpt lat="38.091123228420145" lon="15.867172276515932"><ele>1400.5</ele><time>2026-04-25T11:18:48Z</time></trkpt><trkpt lat="38.09118663532521" lon="15.867089647604839"><ele>1402.0</ele><time>2026-04-25T11:18:49Z</time></trkpt><trkpt lat="38.09124716092357" lon="15.86701713085919"><ele>1402.0</ele><time>2026-04-25T11:18:50Z</time></trkpt><trkpt lat="38.091319228241616" lon="15.866919563079076"><ele>1402.0</ele><time>2026-04-25T11:18:51Z</time></trkpt><trkpt lat="38.09138323362777" lon="15.866855476647602"><ele>1402.0</ele><time>2026-04-25T11:18:52Z</time></trkpt><trkpt lat="38.091456806684555" lon="15.866836680476442"><ele>1402.0</ele><time>2026-04-25T11:18:53Z</time></trkpt><trkpt lat="38.091530073769654" lon="15.86684130383001"><ele>1402.0</ele><time>2026-04-25T11:18:54Z</time></trkpt><trkpt lat="38.09160715710552" lon="15.866854805093556"><ele>1402.0</ele><time>2026-04-25T11:18:55Z</time></trkpt><trkpt lat="38.09169580062882" lon="15.86685222343098"><ele>1404.6</ele><time>2026-04-25T11:18:57Z</time></trkpt><trkpt lat="38.09174944075752" lon="15.866797341012889"><ele>1407.1999999999998</ele><time>2026-04-25T11:18:59Z</time></trkpt><trkpt lat="38.091764688525586" lon="15.866643545440356"><ele>1409.8</ele><time>2026-04-25T11:19:02Z</time></trkpt><trkpt lat="38.091748818684" lon="15.86655359898813"><ele>1412.4</ele><time>2026-04-25T11:19:03Z</time></trkpt><trkpt lat="38.0917409137811" lon="15.866416012860224"><ele>1415.0</ele><time>2026-04-25T11:19:05Z</time></trkpt><trkpt lat="38.09180671653949" lon="15.866317882252448"><ele>1415.0</ele><time>2026-04-25T11:19:07Z</time></trkpt><trkpt lat="38.09187586169753" lon="15.866233613254108"><ele>1415.0</ele><time>2026-04-25T11:19:08Z</time></trkpt><trkpt lat="38.09192355812541" lon="15.866163842546154"><ele>1415.0</ele><time>2026-04-25T11:19:09Z</time></trkpt><trkpt lat="38.091933683342326" lon="15.866082149042875"><ele>1415.0</ele><time>2026-04-25T11:19:10Z</time></trkpt><trkpt lat="38.0918852583418" lon="15.865950556494495"><ele>1415.0</ele><time>2026-04-25T11:19:12Z</time></trkpt><trkpt lat="38.09183365456977" lon="15.865884993915625"><ele>1415.0</ele><time>2026-04-25T11:19:13Z</time></trkpt><trkpt lat="38.09177686851503" lon="15.865831111683065"><ele>1414.1666666666667</ele><time>2026-04-25T11:19:14Z</time></trkpt><trkpt lat="38.09173040460554" lon="15.865757754562072"><ele>1413.3333333333335</ele><time>2026-04-25T11:19:15Z</time></trkpt><trkpt lat="38.09167712102653" lon="15.86566478592118"><ele>1412.5</ele><time>2026-04-25T11:19:16Z</time></trkpt><trkpt lat="38.091644514987095" lon="15.865583338019194"><ele>1411.6666666666667</ele><time>2026-04-25T11:19:17Z</time></trkpt><trkpt lat="38.091635946433776" lon="15.865487891335968"><ele>1410.8333333333333</ele><time>2026-04-25T11:19:18Z</time></trkpt><trkpt lat="38.091631009376314" lon="15.86538830747036"><ele>1410.0</ele><time>2026-04-25T11:19:19Z</time></trkpt><trkpt lat="38.09162736953376" lon="15.865265271210511"><ele>1410.0</ele><time>2026-04-25T11:19:20Z</time></trkpt><trkpt lat="38.0916447489464" lon="15.86512231077245"><ele>1410.0</ele><time>2026-04-25T11:19:21Z</time></trkpt><trkpt lat="38.09167338403605" lon="15.864968223013946"><ele>1410.0</ele><time>2026-04-25T11:19:23Z</time></trkpt><trkpt lat="38.09174438533788" lon="15.864830610052593"><ele>1410.0</ele><time>2026-04-25T11:19:25Z</time></trkpt><trkpt lat="38.09181833713657" lon="15.864793626098681"><ele>1410.0</ele><time>2026-04-25T11:19:26Z</time></trkpt><trkpt lat="38.091903876116085" lon="15.864763215058014"><ele>1409.0</ele><time>2026-04-25T11:19:27Z</time></trkpt><trkpt lat="38.09196426520702" lon="15.864728744435824"><ele>1408.0</ele><time>2026-04-25T11:19:28Z</time></trkpt><trkpt lat="38.09199485737767" lon="15.864600117876055"><ele>1407.0</ele><time>2026-04-25T11:19:30Z</time></trkpt><trkpt lat="38.09195459786355" lon="15.864502463027682"><ele>1406.0</ele><time>2026-04-25T11:19:31Z</time></trkpt><trkpt lat="38.091905770709175" lon="15.86440899588701"><ele>1405.0</ele><time>2026-04-25T11:19:32Z</time></trkpt><trkpt lat="38.09191798329256" lon="15.864298861407862"><ele>1404.0</ele><time>2026-04-25T11:19:34Z</time></trkpt><trkpt lat="38.09190195111466" lon="15.864161509456808"><ele>1401.6666666666667</ele><time>2026-04-25T11:19:36Z</time></trkpt><trkpt lat="38.09184653341731" lon="15.864118976795641"><ele>1399.3333333333333</ele><time>2026-04-25T11:19:37Z</time></trkpt><trkpt lat="38.0918093069578" lon="15.863997313555224"><ele>1397.0</ele><time>2026-04-25T11:19:39Z</time></trkpt><trkpt lat="38.09183399648214" lon="15.863920921013595"><ele>1394.6666666666665</ele><time>2026-04-25T11:19:40Z</time></trkpt><trkpt lat="38.09186600826361" lon="15.863834215664422"><ele>1392.3333333333333</ele><time>2026-04-25T11:19:41Z</time></trkpt><trkpt lat="38.091915702229926" lon="15.863739956375175"><ele>1390.0</ele><time>2026-04-25T11:19:42Z</time></trkpt><trkpt lat="38.09197038727126" lon="15.863660070873507"><ele>1390.0</ele><time>2026-04-25T11:19:43Z</time></trkpt><trkpt lat="38.09205182069495" lon="15.863608089315532"><ele>1390.0</ele><time>2026-04-25T11:19:45Z</time></trkpt><trkpt lat="38.09213060921043" lon="15.86359153720509"><ele>1390.0</ele><time>2026-04-25T11:19:46Z</time></trkpt><trkpt lat="38.09224680539849" lon="15.863565825922329"><ele>1390.0</ele><time>2026-04-25T11:19:47Z</time></trkpt><trkpt lat="38.092354544278926" lon="15.863532728206737"><ele>1390.0</ele><time>2026-04-25T11:19:48Z</time></trkpt><trkpt lat="38.09246252102558" lon="15.863562506295757"><ele>1389.6</ele><time>2026-04-25T11:19:49.999Z</time></trkpt><trkpt lat="38.09253598123394" lon="15.863609730087216"><ele>1389.2</ele><time>2026-04-25T11:19:50.999Z</time></trkpt><trkpt lat="38.09262336192047" lon="15.86364010416588"><ele>1388.8000000000002</ele><time>2026-04-25T11:19:51.999Z</time></trkpt><trkpt lat="38.09268843235022" lon="15.863639304804469"><ele>1388.4</ele><time>2026-04-25T11:19:52.999Z</time></trkpt><trkpt lat="38.09278808050661" lon="15.86353987220544"><ele>1388.0</ele><time>2026-04-25T11:19:55.001Z</time></trkpt><trkpt lat="38.092829697106026" lon="15.863438053170805"><ele>1388.0</ele><time>2026-04-25T11:19:56.001Z</time></trkpt><trkpt lat="38.09288272715139" lon="15.86339404313587"><ele>1388.0</ele><time>2026-04-25T11:19:57.001Z</time></trkpt><trkpt lat="38.09300860325339" lon="15.86338949789276"><ele>1388.0</ele><time>2026-04-25T11:19:59.001Z</time></trkpt><trkpt lat="38.09314021188716" lon="15.863446653757858"><ele>1388.0</ele><time>2026-04-25T11:20:01.001Z</time></trkpt><trkpt lat="38.09322031679929" lon="15.863504480152109"><ele>1388.0</ele><time>2026-04-25T11:20:02.001Z</time></trkpt><trkpt lat="38.09327518449317" lon="15.863562447162638"><ele>1392.6000000000001</ele><time>2026-04-25T11:20:03.001Z</time></trkpt><trkpt lat="38.093325461379244" lon="15.863618314251626"><ele>1397.2</ele><time>2026-04-25T11:20:04.001Z</time></trkpt><trkpt lat="38.09337490341162" lon="15.863678856381638"><ele>1401.8</ele><time>2026-04-25T11:20:05.001Z</time></trkpt><trkpt lat="38.09343417916772" lon="15.863752694625513"><ele>1406.4</ele><time>2026-04-25T11:20:06.001Z</time></trkpt><trkpt lat="38.09352370593526" lon="15.863862230083441"><ele>1411.0</ele><time>2026-04-25T11:20:07.001Z</time></trkpt><trkpt lat="38.093612653567334" lon="15.863965860086806"><ele>1411.0</ele><time>2026-04-25T11:20:08.001Z</time></trkpt><trkpt lat="38.093674571141754" lon="15.864088987754563"><ele>1411.0</ele><time>2026-04-25T11:20:09.001Z</time></trkpt><trkpt lat="38.09372194213533" lon="15.864158064775093"><ele>1411.0</ele><time>2026-04-25T11:20:10Z</time></trkpt><trkpt lat="38.093806154756244" lon="15.864222548431616"><ele>1411.0</ele><time>2026-04-25T11:20:12Z</time></trkpt><trkpt lat="38.093866300885004" lon="15.864141639183673"><ele>1411.0</ele><time>2026-04-25T11:20:14Z</time></trkpt><trkpt lat="38.09384171342585" lon="15.864039062271212"><ele>1411.0</ele><time>2026-04-25T11:20:16Z</time></trkpt><trkpt lat="38.09378611545572" lon="15.863938884588467"><ele>1411.0</ele><time>2026-04-25T11:20:17Z</time></trkpt><trkpt lat="38.09374332207591" lon="15.86384029568318"><ele>1411.0</ele><time>2026-04-25T11:20:18Z</time></trkpt><trkpt lat="38.09375820411319" lon="15.863731385573317"><ele>1411.0</ele><time>2026-04-25T11:20:19Z</time></trkpt><trkpt lat="38.09378051000128" lon="15.863652923518952"><ele>1411.0</ele><time>2026-04-25T11:20:20Z</time></trkpt><trkpt lat="38.09384280057175" lon="15.863600408433516"><ele>1411.0</ele><time>2026-04-25T11:20:21Z</time></trkpt><trkpt lat="38.093918967076206" lon="15.863540844485252"><ele>1411.0</ele><time>2026-04-25T11:20:22Z</time></trkpt><trkpt lat="38.09397636447297" lon="15.863494017345525"><ele>1411.0</ele><time>2026-04-25T11:20:23Z</time></trkpt><trkpt lat="38.09397455805899" lon="15.863373870856714"><ele>1411.0</ele><time>2026-04-25T11:20:25Z</time></trkpt><trkpt lat="38.093892111443274" lon="15.863250404971371"><ele>1411.0</ele><time>2026-04-25T11:20:27Z</time></trkpt><trkpt lat="38.09380458120852" lon="15.86318426493033"><ele>1411.0</ele><time>2026-04-25T11:20:28Z</time></trkpt><trkpt lat="38.09373740934825" lon="15.863104441942257"><ele>1406.1999999999998</ele><time>2026-04-25T11:20:29Z</time></trkpt><trkpt lat="38.09369125396056" lon="15.862982767705304"><ele>1401.3999999999999</ele><time>2026-04-25T11:20:31Z</time></trkpt><trkpt lat="38.093739553742296" lon="15.862849666817892"><ele>1396.6</ele><time>2026-04-25T11:20:33Z</time></trkpt><trkpt lat="38.093807359581696" lon="15.862771525554988"><ele>1391.8</ele><time>2026-04-25T11:20:34Z</time></trkpt><trkpt lat="38.09388402888219" lon="15.862728954182229"><ele>1387.0</ele><time>2026-04-25T11:20:35Z</time></trkpt><trkpt lat="38.093955336974076" lon="15.86272425155237"><ele>1387.0</ele><time>2026-04-25T11:20:36Z</time></trkpt><trkpt lat="38.094026870326246" lon="15.86265687837156"><ele>1387.0</ele><time>2026-04-25T11:20:38Z</time></trkpt><trkpt lat="38.09400861824571" lon="15.862552969541248"><ele>1387.0</ele><time>2026-04-25T11:20:40Z</time></trkpt><trkpt lat="38.09401334932144" lon="15.86245856961843"><ele>1387.0</ele><time>2026-04-25T11:20:41Z</time></trkpt><trkpt lat="38.094035227743966" lon="15.862338798075694"><ele>1387.0</ele><time>2026-04-25T11:20:42Z</time></trkpt><trkpt lat="38.09398940147594" lon="15.862245413136188"><ele>1387.0</ele><time>2026-04-25T11:20:44Z</time></trkpt><trkpt lat="38.09392394637238" lon="15.862182822208277"><ele>1383.0</ele><time>2026-04-25T11:20:46Z</time></trkpt><trkpt lat="38.09375909140998" lon="15.862142515126296"><ele>1379.0</ele><time>2026-04-25T11:20:48Z</time></trkpt><trkpt lat="38.09367589102815" lon="15.862113383938055"><ele>1375.0</ele><time>2026-04-25T11:20:49Z</time></trkpt><trkpt lat="38.09356735715105" lon="15.861990130309412"><ele>1371.0</ele><time>2026-04-25T11:20:51Z</time></trkpt><trkpt lat="38.09353692048854" lon="15.861915777068138"><ele>1371.0</ele><time>2026-04-25T11:20:52Z</time></trkpt><trkpt lat="38.09354274835709" lon="15.861833002116432"><ele>1371.0</ele><time>2026-04-25T11:20:54Z</time></trkpt><trkpt lat="38.09355090861571" lon="15.861707671033818"><ele>1371.0</ele><time>2026-04-25T11:20:56Z</time></trkpt><trkpt lat="38.09358262558007" lon="15.861614852233311"><ele>1371.0</ele><time>2026-04-25T11:20:57Z</time></trkpt><trkpt lat="38.09361331390658" lon="15.86151237487023"><ele>1371.0</ele><time>2026-04-25T11:20:58Z</time></trkpt><trkpt lat="38.09363022717193" lon="15.861391403324365"><ele>1371.0</ele><time>2026-04-25T11:20:59Z</time></trkpt><trkpt lat="38.0936342366097" lon="15.861278011434194"><ele>1370.8333333333333</ele><time>2026-04-25T11:21:00Z</time></trkpt><trkpt lat="38.093630611149536" lon="15.861185256901138"><ele>1370.6666666666667</ele><time>2026-04-25T11:21:01Z</time></trkpt><trkpt lat="38.09363181795578" lon="15.861104763816801"><ele>1370.5</ele><time>2026-04-25T11:21:02Z</time></trkpt><trkpt lat="38.09363048934659" lon="15.861023071518975"><ele>1370.3333333333335</ele><time>2026-04-25T11:21:03Z</time></trkpt><trkpt lat="38.09362587463343" lon="15.86088973548903"><ele>1370.1666666666667</ele><time>2026-04-25T11:21:05Z</time></trkpt><trkpt lat="38.09356240917928" lon="15.860799922173555"><ele>1370.0</ele><time>2026-04-25T11:21:08Z</time></trkpt><trkpt lat="38.09343694388528" lon="15.86075943058034"><ele>1370.0</ele><time>2026-04-25T11:21:10Z</time></trkpt><trkpt lat="38.093355286008986" lon="15.860733042188961"><ele>1370.0</ele><time>2026-04-25T11:21:12Z</time></trkpt><trkpt lat="38.093295956909856" lon="15.860699953370588"><ele>1370.0</ele><time>2026-04-25T11:21:14Z</time></trkpt><trkpt lat="38.09327872847457" lon="15.860603955806999"><ele>1370.0</ele><time>2026-04-25T11:21:16Z</time></trkpt><trkpt lat="38.09322303200757" lon="15.860509910202747"><ele>1370.0</ele><time>2026-04-25T11:21:18Z</time></trkpt><trkpt lat="38.09314379682989" lon="15.86043134462369"><ele>1370.0</ele><time>2026-04-25T11:21:21Z</time></trkpt><trkpt lat="38.09310739284761" lon="15.86029765518359"><ele>1367.1666666666667</ele><time>2026-04-25T11:21:23Z</time></trkpt><trkpt lat="38.09305716905801" lon="15.86024885684493"><ele>1364.3333333333335</ele><time>2026-04-25T11:21:32Z</time></trkpt><trkpt lat="38.09299728076224" lon="15.86020076223167"><ele>1361.5</ele><time>2026-04-25T11:21:34Z</time></trkpt><trkpt lat="38.092948278389336" lon="15.860140528557958"><ele>1358.6666666666667</ele><time>2026-04-25T11:21:35Z</time></trkpt><trkpt lat="38.0928935962328" lon="15.860007762276599"><ele>1355.8333333333333</ele><time>2026-04-25T11:21:37Z</time></trkpt><trkpt lat="38.09290197151178" lon="15.859892162209311"><ele>1353.0</ele><time>2026-04-25T11:21:38.999Z</time></trkpt><trkpt lat="38.0928839878958" lon="15.8597716272181"><ele>1353.0</ele><time>2026-04-25T11:21:39.999Z</time></trkpt><trkpt lat="38.09289833045385" lon="15.8596690659565"><ele>1353.0</ele><time>2026-04-25T11:21:40.999Z</time></trkpt><trkpt lat="38.09292086281222" lon="15.859580637036633"><ele>1353.0</ele><time>2026-04-25T11:21:41.999Z</time></trkpt><trkpt lat="38.092964298423155" lon="15.859487433477403"><ele>1353.0</ele><time>2026-04-25T11:21:42.999Z</time></trkpt><trkpt lat="38.09301560601588" lon="15.859427568393967"><ele>1353.0</ele><time>2026-04-25T11:21:43.999Z</time></trkpt><trkpt lat="38.09302437805752" lon="15.859308837540292"><ele>1353.0</ele><time>2026-04-25T11:21:45.999Z</time></trkpt><trkpt lat="38.09300832343428" lon="15.859212623648608"><ele>1350.8333333333333</ele><time>2026-04-25T11:21:46.999Z</time></trkpt><trkpt lat="38.09299951472018" lon="15.859123312380438"><ele>1348.6666666666667</ele><time>2026-04-25T11:21:47.999Z</time></trkpt><trkpt lat="38.09300722815452" lon="15.859002226942806"><ele>1346.5</ele><time>2026-04-25T11:21:48.999Z</time></trkpt><trkpt lat="38.09302409870774" lon="15.858907231280615"><ele>1344.3333333333335</ele><time>2026-04-25T11:21:49.999Z</time></trkpt><trkpt lat="38.0930660449814" lon="15.858822760269812"><ele>1342.1666666666667</ele><time>2026-04-25T11:21:50.999Z</time></trkpt><trkpt lat="38.093125437558875" lon="15.858726467024342"><ele>1340.0</ele><time>2026-04-25T11:21:51.999Z</time></trkpt><trkpt lat="38.093181687560936" lon="15.858612366029172"><ele>1340.0</ele><time>2026-04-25T11:21:52.999Z</time></trkpt><trkpt lat="38.09322641973866" lon="15.858506773773417"><ele>1340.0</ele><time>2026-04-25T11:21:53.999Z</time></trkpt><trkpt lat="38.09326879983551" lon="15.858423350033007"><ele>1340.0</ele><time>2026-04-25T11:21:54.999Z</time></trkpt><trkpt lat="38.09330675215848" lon="15.858351623605762"><ele>1340.0</ele><time>2026-04-25T11:21:55.999Z</time></trkpt><trkpt lat="38.09341413513838" lon="15.858209263460955"><ele>1340.0</ele><time>2026-04-25T11:21:57.999Z</time></trkpt><trkpt lat="38.093471396070264" lon="15.858118798105286"><ele>1342.2</ele><time>2026-04-25T11:21:58.999Z</time></trkpt><trkpt lat="38.093526059817854" lon="15.85803562204603"><ele>1344.4</ele><time>2026-04-25T11:21:59.999Z</time></trkpt><trkpt lat="38.093608903866595" lon="15.857918557489134"><ele>1346.6</ele><time>2026-04-25T11:22:02Z</time></trkpt><trkpt lat="38.093671632141294" lon="15.857888608462554"><ele>1348.8</ele><time>2026-04-25T11:22:03Z</time></trkpt><trkpt lat="38.093773483283066" lon="15.857832891613242"><ele>1351.0</ele><time>2026-04-25T11:22:05Z</time></trkpt><trkpt lat="38.09385437394132" lon="15.857735608547406"><ele>1346.8</ele><time>2026-04-25T11:22:07Z</time></trkpt><trkpt lat="38.09387342291207" lon="15.857598696046873"><ele>1342.6</ele><time>2026-04-25T11:22:09Z</time></trkpt><trkpt lat="38.09383101931067" lon="15.857476696487666"><ele>1338.4</ele><time>2026-04-25T11:22:10Z</time></trkpt><trkpt lat="38.093796444383976" lon="15.857374932620253"><ele>1334.2</ele><time>2026-04-25T11:22:12Z</time></trkpt><trkpt lat="38.093757628698974" lon="15.85722646282093"><ele>1330.0</ele><time>2026-04-25T11:22:14Z</time></trkpt><trkpt lat="38.09371388548836" lon="15.85715624254336"><ele>1330.0</ele><time>2026-04-25T11:22:15Z</time></trkpt><trkpt lat="38.09364864007243" lon="15.857104878509809"><ele>1330.0</ele><time>2026-04-25T11:22:16Z</time></trkpt><trkpt lat="38.09361288042648" lon="15.857030515907503"><ele>1330.0</ele><time>2026-04-25T11:22:17Z</time></trkpt><trkpt lat="38.0936202477928" lon="15.856896081603539"><ele>1330.0</ele><time>2026-04-25T11:22:19Z</time></trkpt><trkpt lat="38.0936526977841" lon="15.856824881201867"><ele>1330.0</ele><time>2026-04-25T11:22:20Z</time></trkpt><trkpt lat="38.09369823118006" lon="15.856750399963856"><ele>1330.0</ele><time>2026-04-25T11:22:21Z</time></trkpt><trkpt lat="38.09374284723703" lon="15.856664839487522"><ele>1327.1666666666665</ele><time>2026-04-25T11:22:22Z</time></trkpt><trkpt lat="38.093784429825455" lon="15.856598468948025"><ele>1324.3333333333333</ele><time>2026-04-25T11:22:23Z</time></trkpt><trkpt lat="38.093829584531285" lon="15.856509350660323"><ele>1321.5</ele><time>2026-04-25T11:22:24Z</time></trkpt><trkpt lat="38.093877581718026" lon="15.856438479237996"><ele>1318.6666666666667</ele><time>2026-04-25T11:22:25Z</time></trkpt><trkpt lat="38.09391289997272" lon="15.856371116007928"><ele>1315.8333333333335</ele><time>2026-04-25T11:22:26Z</time></trkpt><trkpt lat="38.09401240498713" lon="15.856256039618787"><ele>1313.0</ele><time>2026-04-25T11:22:27Z</time></trkpt><trkpt lat="38.09407279113928" lon="15.856182493289186"><ele>1314.1666666666667</ele><time>2026-04-25T11:22:28Z</time></trkpt><trkpt lat="38.094122432526106" lon="15.85609220510487"><ele>1315.3333333333335</ele><time>2026-04-25T11:22:29Z</time></trkpt><trkpt lat="38.094180306330195" lon="15.855975389130366"><ele>1316.5</ele><time>2026-04-25T11:22:30Z</time></trkpt><trkpt lat="38.094229525758266" lon="15.855888382759499"><ele>1317.6666666666667</ele><time>2026-04-25T11:22:31Z</time></trkpt><trkpt lat="38.09427371538811" lon="15.85581645675738"><ele>1318.8333333333333</ele><time>2026-04-25T11:22:32Z</time></trkpt><trkpt lat="38.09431456795759" lon="15.855744552430103"><ele>1320.0</ele><time>2026-04-25T11:22:33Z</time></trkpt><trkpt lat="38.09436849274963" lon="15.85566957600653"><ele>1320.0</ele><time>2026-04-25T11:22:34Z</time></trkpt><trkpt lat="38.094414273658955" lon="15.855601161109286"><ele>1320.0</ele><time>2026-04-25T11:22:35Z</time></trkpt><trkpt lat="38.09446435457056" lon="15.85553534401254"><ele>1320.0</ele><time>2026-04-25T11:22:36Z</time></trkpt><trkpt lat="38.09455493985952" lon="15.855434357238629"><ele>1320.0</ele><time>2026-04-25T11:22:38Z</time></trkpt><trkpt lat="38.094583973895524" lon="15.85528497615709"><ele>1320.0</ele><time>2026-04-25T11:22:40Z</time></trkpt><trkpt lat="38.09457701706548" lon="15.855197348411524"><ele>1316.1666666666667</ele><time>2026-04-25T11:22:41Z</time></trkpt><trkpt lat="38.09457455782718" lon="15.855113855670684"><ele>1312.3333333333333</ele><time>2026-04-25T11:22:42Z</time></trkpt><trkpt lat="38.09460822646229" lon="15.854985612786104"><ele>1308.5</ele><time>2026-04-25T11:22:44Z</time></trkpt><trkpt lat="38.09465227795934" lon="15.85486241535127"><ele>1304.6666666666665</ele><time>2026-04-25T11:22:46Z</time></trkpt><trkpt lat="38.094698573756105" lon="15.854797942349787"><ele>1300.8333333333333</ele><time>2026-04-25T11:22:47Z</time></trkpt><trkpt lat="38.094742737733284" lon="15.85474092530945"><ele>1297.0</ele><time>2026-04-25T11:22:48Z</time></trkpt><trkpt lat="38.0948300456732" lon="15.854683381956136"><ele>1297.0</ele><time>2026-04-25T11:22:50Z</time></trkpt><trkpt lat="38.094861065229225" lon="15.854605675964262"><ele>1297.0</ele><time>2026-04-25T11:22:51Z</time></trkpt><trkpt lat="38.094871078115325" lon="15.854511341356059"><ele>1297.0</ele><time>2026-04-25T11:22:52Z</time></trkpt><trkpt lat="38.09485201920664" lon="15.854363934187257"><ele>1297.0</ele><time>2026-04-25T11:22:54Z</time></trkpt><trkpt lat="38.09483851522611" lon="15.854230809370533"><ele>1297.0</ele><time>2026-04-25T11:22:56Z</time></trkpt><trkpt lat="38.09486316157306" lon="15.854104685600692"><ele>1297.6666666666665</ele><time>2026-04-25T11:22:58Z</time></trkpt><trkpt lat="38.0948998811361" lon="15.853996780795955"><ele>1298.3333333333333</ele><time>2026-04-25T11:23:00Z</time></trkpt><trkpt lat="38.09495692846568" lon="15.853934936010194"><ele>1299.0</ele><time>2026-04-25T11:23:02Z</time></trkpt><trkpt lat="38.09504610938171" lon="15.853894323059743"><ele>1299.6666666666667</ele><time>2026-04-25T11:23:04Z</time></trkpt><trkpt lat="38.09509285954619" lon="15.853836344708172"><ele>1300.3333333333335</ele><time>2026-04-25T11:23:06Z</time></trkpt><trkpt lat="38.095163750380024" lon="15.853786145808531"><ele>1301.0</ele><time>2026-04-25T11:23:15Z</time></trkpt><trkpt lat="38.095233256167674" lon="15.853736227381978"><ele>1301.0</ele><time>2026-04-25T11:23:17Z</time></trkpt><trkpt lat="38.09530508149373" lon="15.853730412579711"><ele>1301.0</ele><time>2026-04-25T11:23:19Z</time></trkpt><trkpt lat="38.095387251182046" lon="15.853756419780359"><ele>1301.0</ele><time>2026-04-25T11:23:21Z</time></trkpt><trkpt lat="38.09548446689779" lon="15.85383858836807"><ele>1301.0</ele><time>2026-04-25T11:23:23Z</time></trkpt><trkpt lat="38.095525340274484" lon="15.853902993680572"><ele>1301.0</ele><time>2026-04-25T11:23:24Z</time></trkpt><trkpt lat="38.09559435588351" lon="15.85401585639369"><ele>1301.0</ele><time>2026-04-25T11:23:26Z</time></trkpt><trkpt lat="38.09568678779361" lon="15.854071465475908"><ele>1301.0</ele><time>2026-04-25T11:23:28Z</time></trkpt><trkpt lat="38.09575280316131" lon="15.854091975669686"><ele>1301.0</ele><time>2026-04-25T11:23:29Z</time></trkpt><trkpt lat="38.095817317196584" lon="15.85411307928509"><ele>1301.0</ele><time>2026-04-25T11:23:30Z</time></trkpt><trkpt lat="38.09588144040304" lon="15.854136729924612"><ele>1301.0</ele><time>2026-04-25T11:23:31Z</time></trkpt><trkpt lat="38.09592490628112" lon="15.8542540953604"><ele>1301.0</ele><time>2026-04-25T11:23:33Z</time></trkpt><trkpt lat="38.09589275221609" lon="15.854359900654448"><ele>1303.1999999999998</ele><time>2026-04-25T11:23:35Z</time></trkpt><trkpt lat="38.09587212775261" lon="15.854500711871136"><ele>1305.3999999999999</ele><time>2026-04-25T11:23:36.999Z</time></trkpt><trkpt lat="38.09588982360166" lon="15.854602245998574"><ele>1307.6</ele><time>2026-04-25T11:23:38.999Z</time></trkpt><trkpt lat="38.09593281956731" lon="15.854700742939709"><ele>1309.8</ele><time>2026-04-25T11:23:40.999Z</time></trkpt><trkpt lat="38.09600793040679" lon="15.854767281404138"><ele>1312.0</ele><time>2026-04-25T11:23:42.999Z</time></trkpt><trkpt lat="38.0960871611508" lon="15.854809626840126"><ele>1312.0</ele><time>2026-04-25T11:23:45.999Z</time></trkpt><trkpt lat="38.09616127456944" lon="15.85478966560545"><ele>1312.0</ele><time>2026-04-25T11:24:05.999Z</time></trkpt><trkpt lat="38.09623600201406" lon="15.85484486297201"><ele>1312.0</ele><time>2026-04-25T11:24:09Z</time></trkpt><trkpt lat="38.0963128972743" lon="15.854838361736174"><ele>1312.0</ele><time>2026-04-25T11:24:12Z</time></trkpt><trkpt lat="38.096329942347" lon="15.854752929888397"><ele>1312.0</ele><time>2026-04-25T11:24:14Z</time></trkpt><trkpt lat="38.09627563090391" lon="15.854642157947751"><ele>1312.0</ele><time>2026-04-25T11:24:16Z</time></trkpt><trkpt lat="38.096291932300744" lon="15.854557799261382"><ele>1312.0</ele><time>2026-04-25T11:24:19Z</time></trkpt><trkpt lat="38.096355603722046" lon="15.85453369833557"><ele>1312.0</ele><time>2026-04-25T11:24:21Z</time></trkpt><trkpt lat="38.096428188761465" lon="15.854492257044342"><ele>1312.0</ele><time>2026-04-25T11:24:23Z</time></trkpt><trkpt lat="38.09644134420303" lon="15.854408587147702"><ele>1312.0</ele><time>2026-04-25T11:24:25Z</time></trkpt><trkpt lat="38.09644583349919" lon="15.854305896036854"><ele>1312.0</ele><time>2026-04-25T11:24:27Z</time></trkpt><trkpt lat="38.09643046023246" lon="15.854194538924634"><ele>1312.0</ele><time>2026-04-25T11:24:29Z</time></trkpt><trkpt lat="38.0963764412948" lon="15.854081988672819"><ele>1307.8</ele><time>2026-04-25T11:24:31Z</time></trkpt><trkpt lat="38.09634925037096" lon="15.854006444741215"><ele>1303.6</ele><time>2026-04-25T11:24:32Z</time></trkpt><trkpt lat="38.096310512059915" lon="15.853782212502427"><ele>1299.3999999999999</ele><time>2026-04-25T11:24:34Z</time></trkpt><trkpt lat="38.09628853899125" lon="15.853694452528638"><ele>1295.1999999999998</ele><time>2026-04-25T11:24:35Z</time></trkpt><trkpt lat="38.09625977815194" lon="15.853555177017506"><ele>1291.0</ele><time>2026-04-25T11:24:37Z</time></trkpt><trkpt lat="38.09632063159339" lon="15.853419600779565"><ele>1289.0</ele><time>2026-04-25T11:24:39Z</time></trkpt><trkpt lat="38.09633698340724" lon="15.853334880429603"><ele>1287.0</ele><time>2026-04-25T11:24:40Z</time></trkpt><trkpt lat="38.09634032217347" lon="15.853240478892264"><ele>1285.0</ele><time>2026-04-25T11:24:41Z</time></trkpt><trkpt lat="38.096336179629176" lon="15.853142129529953"><ele>1283.0</ele><time>2026-04-25T11:24:42Z</time></trkpt><trkpt lat="38.096322955278076" lon="15.853041868344306"><ele>1281.0</ele><time>2026-04-25T11:24:43Z</time></trkpt><trkpt lat="38.09630961453111" lon="15.852948877132848"><ele>1279.0</ele><time>2026-04-25T11:24:44Z</time></trkpt><trkpt lat="38.09630104888641" lon="15.852852195920635"><ele>1279.0</ele><time>2026-04-25T11:24:45Z</time></trkpt><trkpt lat="38.096294065125555" lon="15.85272983913756"><ele>1279.0</ele><time>2026-04-25T11:24:46Z</time></trkpt><trkpt lat="38.09627565095347" lon="15.852634490212054"><ele>1279.0</ele><time>2026-04-25T11:24:47Z</time></trkpt><trkpt lat="38.09619973105999" lon="15.85255548517644"><ele>1279.0</ele><time>2026-04-25T11:24:49Z</time></trkpt><trkpt lat="38.09613825175531" lon="15.852518319406565"><ele>1279.0</ele><time>2026-04-25T11:24:50Z</time></trkpt><trkpt lat="38.09600983413446" lon="15.852471812575928"><ele>1278.3333333333333</ele><time>2026-04-25T11:24:51Z</time></trkpt><trkpt lat="38.09590561834582" lon="15.85246534966379"><ele>1277.6666666666665</ele><time>2026-04-25T11:24:52Z</time></trkpt><trkpt lat="38.09581752866148" lon="15.852423590023545"><ele>1277.0</ele><time>2026-04-25T11:24:53Z</time></trkpt><trkpt lat="38.09574828901732" lon="15.852369153652486"><ele>1276.3333333333333</ele><time>2026-04-25T11:24:54Z</time></trkpt><trkpt lat="38.09569260858139" lon="15.852314298722122"><ele>1275.6666666666667</ele><time>2026-04-25T11:24:55Z</time></trkpt><trkpt lat="38.095656741467735" lon="15.852232769421608"><ele>1275.0</ele><time>2026-04-25T11:24:57Z</time></trkpt><trkpt lat="38.09568500211184" lon="15.852145463363062"><ele>1275.0</ele><time>2026-04-25T11:24:59Z</time></trkpt><trkpt lat="38.09574246860211" lon="15.85204587067654"><ele>1275.0</ele><time>2026-04-25T11:25:01Z</time></trkpt><trkpt lat="38.095875790175505" lon="15.851983124506942"><ele>1275.0</ele><time>2026-04-25T11:25:03Z</time></trkpt><trkpt lat="38.095971296852944" lon="15.851939101537756"><ele>1275.0</ele><time>2026-04-25T11:25:04Z</time></trkpt><trkpt lat="38.09606000646016" lon="15.851891144950217"><ele>1275.0</ele><time>2026-04-25T11:25:05Z</time></trkpt><trkpt lat="38.096133621929596" lon="15.851827264450064"><ele>1277.8</ele><time>2026-04-25T11:25:06Z</time></trkpt><trkpt lat="38.096200207740495" lon="15.851736009542673"><ele>1280.6</ele><time>2026-04-25T11:25:07Z</time></trkpt><trkpt lat="38.09624642421298" lon="15.851675965613945"><ele>1283.4</ele><time>2026-04-25T11:25:08Z</time></trkpt><trkpt lat="38.09636281166714" lon="15.851613225484057"><ele>1286.2</ele><time>2026-04-25T11:25:10Z</time></trkpt><trkpt lat="38.09645125137264" lon="15.851601654998031"><ele>1289.0</ele><time>2026-04-25T11:25:11Z</time></trkpt><trkpt lat="38.096540164055355" lon="15.851622811696732"><ele>1293.3333333333335</ele><time>2026-04-25T11:25:12Z</time></trkpt><trkpt lat="38.096613205700315" lon="15.851628102769018"><ele>1297.6666666666667</ele><time>2026-04-25T11:25:13Z</time></trkpt><trkpt lat="38.09669860857891" lon="15.851637650351421"><ele>1302.0</ele><time>2026-04-25T11:25:14Z</time></trkpt><trkpt lat="38.09678836515167" lon="15.851625134077555"><ele>1306.3333333333333</ele><time>2026-04-25T11:25:15Z</time></trkpt><trkpt lat="38.096879031219395" lon="15.851601155839267"><ele>1310.6666666666665</ele><time>2026-04-25T11:25:16Z</time></trkpt><trkpt lat="38.096948272686696" lon="15.85156003236358"><ele>1315.0</ele><time>2026-04-25T11:25:17Z</time></trkpt><trkpt lat="38.09701679175888" lon="15.85152388814309"><ele>1315.0</ele><time>2026-04-25T11:25:18Z</time></trkpt><trkpt lat="38.09710087268148" lon="15.851473657139985"><ele>1315.0</ele><time>2026-04-25T11:25:20Z</time></trkpt><trkpt lat="38.097189499905944" lon="15.851381858520643"><ele>1315.0</ele><time>2026-04-25T11:25:22Z</time></trkpt><trkpt lat="38.097234287172036" lon="15.851304424384592"><ele>1315.0</ele><time>2026-04-25T11:25:24Z</time></trkpt><trkpt lat="38.097210179967036" lon="15.851222552484149"><ele>1315.0</ele><time>2026-04-25T11:25:26Z</time></trkpt><trkpt lat="38.09709547870378" lon="15.851209726129113"><ele>1315.0</ele><time>2026-04-25T11:25:28Z</time></trkpt><trkpt lat="38.09703025598261" lon="15.85123694299707"><ele>1315.0</ele><time>2026-04-25T11:25:29Z</time></trkpt><trkpt lat="38.09695931482685" lon="15.851237484373774"><ele>1315.0</ele><time>2026-04-25T11:25:30Z</time></trkpt><trkpt lat="38.0968821046178" lon="15.851220265337249"><ele>1315.0</ele><time>2026-04-25T11:25:31Z</time></trkpt><trkpt lat="38.09680908912717" lon="15.851184847184456"><ele>1315.0</ele><time>2026-04-25T11:25:32Z</time></trkpt><trkpt lat="38.09673321344443" lon="15.851089168535811"><ele>1315.0</ele><time>2026-04-25T11:25:34Z</time></trkpt><trkpt lat="38.096654892609045" lon="15.850943814563779"><ele>1314.8333333333333</ele><time>2026-04-25T11:25:35.999Z</time></trkpt><trkpt lat="38.09660734939317" lon="15.850848352190509"><ele>1314.6666666666665</ele><time>2026-04-25T11:25:36.999Z</time></trkpt><trkpt lat="38.096553705849075" lon="15.850732720578744"><ele>1314.5</ele><time>2026-04-25T11:25:37.999Z</time></trkpt><trkpt lat="38.09648266439103" lon="15.85063004917901"><ele>1314.3333333333333</ele><time>2026-04-25T11:25:38.999Z</time></trkpt><trkpt lat="38.09645469622457" lon="15.850533444516442"><ele>1314.1666666666667</ele><time>2026-04-25T11:25:39.999Z</time></trkpt><trkpt lat="38.09646163949272" lon="15.850453937044499"><ele>1314.0</ele><time>2026-04-25T11:25:40.999Z</time></trkpt><trkpt lat="38.09650363109263" lon="15.850384765694452"><ele>1314.0</ele><time>2026-04-25T11:25:41.999Z</time></trkpt><trkpt lat="38.09657361311548" lon="15.85029064791637"><ele>1314.0</ele><time>2026-04-25T11:25:42.999Z</time></trkpt><trkpt lat="38.096614821893084" lon="15.85019047566179"><ele>1314.0</ele><time>2026-04-25T11:25:43.999Z</time></trkpt><trkpt lat="38.09662517866678" lon="15.850110198525998"><ele>1314.0</ele><time>2026-04-25T11:25:44.999Z</time></trkpt><trkpt lat="38.09659919221449" lon="15.849977211964188"><ele>1314.0</ele><time>2026-04-25T11:25:46.999Z</time></trkpt><trkpt lat="38.096548404279474" lon="15.849914648240409"><ele>1314.0</ele><time>2026-04-25T11:25:47.999Z</time></trkpt><trkpt lat="38.09647661783147" lon="15.849846436101585"><ele>1305.25</ele><time>2026-04-25T11:25:48.999Z</time></trkpt><trkpt lat="38.09644343824045" lon="15.849689526203207"><ele>1296.5</ele><time>2026-04-25T11:25:50.999Z</time></trkpt><trkpt lat="38.09645363840311" lon="15.849566225617323"><ele>1287.75</ele><time>2026-04-25T11:25:51.999Z</time></trkpt><trkpt lat="38.09649008805992" lon="15.849439540888639"><ele>1279.0</ele><time>2026-04-25T11:25:52.999Z</time></trkpt><trkpt lat="38.096542403406566" lon="15.849299696924374"><ele>1281.6</ele><time>2026-04-25T11:25:53.999Z</time></trkpt><trkpt lat="38.096591479472" lon="15.849163499509372"><ele>1284.2</ele><time>2026-04-25T11:25:54.999Z</time></trkpt><trkpt lat="38.096632378462616" lon="15.849064923920132"><ele>1286.8</ele><time>2026-04-25T11:25:55.999Z</time></trkpt><trkpt lat="38.09667494762675" lon="15.848949720533874"><ele>1289.3999999999999</ele><time>2026-04-25T11:25:57.999Z</time></trkpt><trkpt lat="38.09662522370237" lon="15.848869447209145"><ele>1292.0</ele><time>2026-04-25T11:25:59.999Z</time></trkpt><trkpt lat="38.09651210513283" lon="15.848757853208816"><ele>1292.0</ele><time>2026-04-25T11:26:01.999Z</time></trkpt><trkpt lat="38.096419455211226" lon="15.84873395272205"><ele>1292.0</ele><time>2026-04-25T11:26:02.999Z</time></trkpt><trkpt lat="38.096320056521236" lon="15.848731676540345"><ele>1292.0</ele><time>2026-04-25T11:26:03.999Z</time></trkpt><trkpt lat="38.09624306808887" lon="15.848700114398763"><ele>1292.0</ele><time>2026-04-25T11:26:04.999Z</time></trkpt><trkpt lat="38.09620712304578" lon="15.848597402242625"><ele>1292.0</ele><time>2026-04-25T11:26:06.999Z</time></trkpt><trkpt lat="38.09624149058213" lon="15.848465004676983"><ele>1294.1428571428573</ele><time>2026-04-25T11:26:08.999Z</time></trkpt><trkpt lat="38.09628480251926" lon="15.848382302918504"><ele>1296.2857142857142</ele><time>2026-04-25T11:26:09.999Z</time></trkpt><trkpt lat="38.0962916334869" lon="15.848296854841069"><ele>1298.4285714285716</ele><time>2026-04-25T11:26:10.999Z</time></trkpt><trkpt lat="38.09629172541871" lon="15.848212206454686"><ele>1300.5714285714287</ele><time>2026-04-25T11:26:11.999Z</time></trkpt><trkpt lat="38.096295742023464" lon="15.848120847831504"><ele>1302.7142857142858</ele><time>2026-04-25T11:26:13Z</time></trkpt><trkpt lat="38.09632200994132" lon="15.848034762042827"><ele>1304.857142857143</ele><time>2026-04-25T11:26:14Z</time></trkpt><trkpt lat="38.09634756985877" lon="15.84795704183976"><ele>1307.0</ele><time>2026-04-25T11:26:16Z</time></trkpt><trkpt lat="38.096297177509946" lon="15.847891857853048"><ele>1307.0</ele><time>2026-04-25T11:26:18Z</time></trkpt><trkpt lat="38.09616869496874" lon="15.8478327868403"><ele>1307.0</ele><time>2026-04-25T11:26:20Z</time></trkpt><trkpt lat="38.09609274540204" lon="15.847790990950081"><ele>1307.0</ele><time>2026-04-25T11:26:21Z</time></trkpt><trkpt lat="38.09601039591626" lon="15.847742913924144"><ele>1307.0</ele><time>2026-04-25T11:26:22Z</time></trkpt><trkpt lat="38.09591465738418" lon="15.84770765163838"><ele>1307.0</ele><time>2026-04-25T11:26:23Z</time></trkpt><trkpt lat="38.0958132226443" lon="15.8476745251843"><ele>1306.0</ele><time>2026-04-25T11:26:24Z</time></trkpt><trkpt lat="38.09573697285118" lon="15.84764113407776"><ele>1305.0</ele><time>2026-04-25T11:26:25Z</time></trkpt><trkpt lat="38.09565464549573" lon="15.847526799337198"><ele>1304.0</ele><time>2026-04-25T11:26:27Z</time></trkpt><trkpt lat="38.095665152920816" lon="15.847380152635681"><ele>1303.0</ele><time>2026-04-25T11:26:29Z</time></trkpt><trkpt lat="38.095688504546494" lon="15.84730202743147"><ele>1302.0</ele><time>2026-04-25T11:26:30Z</time></trkpt><trkpt lat="38.095686833041896" lon="15.847158617963629"><ele>1302.0</ele><time>2026-04-25T11:26:32Z</time></trkpt><trkpt lat="38.0956426041324" lon="15.84708917898362"><ele>1302.0</ele><time>2026-04-25T11:26:33Z</time></trkpt><trkpt lat="38.09558332777369" lon="15.847026709514545"><ele>1302.0</ele><time>2026-04-25T11:26:34Z</time></trkpt><trkpt lat="38.09554400259929" lon="15.846961536987344"><ele>1302.0</ele><time>2026-04-25T11:26:35Z</time></trkpt><trkpt lat="38.09553278584672" lon="15.846881967390347"><ele>1302.0</ele><time>2026-04-25T11:26:36Z</time></trkpt><trkpt lat="38.09554769233218" lon="15.846796593251629"><ele>1302.0</ele><time>2026-04-25T11:26:37Z</time></trkpt><trkpt lat="38.09559386776291" lon="15.846715402424095"><ele>1302.0</ele><time>2026-04-25T11:26:38Z</time></trkpt><trkpt lat="38.09564089277779" lon="15.846637022600714"><ele>1304.3333333333333</ele><time>2026-04-25T11:26:39Z</time></trkpt><trkpt lat="38.0956570362144" lon="15.8465552040136"><ele>1306.6666666666667</ele><time>2026-04-25T11:26:40Z</time></trkpt><trkpt lat="38.095624312229525" lon="15.846483336170266"><ele>1309.0</ele><time>2026-04-25T11:26:41Z</time></trkpt><trkpt lat="38.09555329821208" lon="15.846414659495643"><ele>1311.3333333333335</ele><time>2026-04-25T11:26:42Z</time></trkpt><trkpt lat="38.09546754267107" lon="15.84638082241584"><ele>1313.6666666666667</ele><time>2026-04-25T11:26:43Z</time></trkpt><trkpt lat="38.095370426789636" lon="15.846363706378446"><ele>1316.0</ele><time>2026-04-25T11:26:44Z</time></trkpt><trkpt lat="38.09525033541803" lon="15.846341406571097"><ele>1316.0</ele><time>2026-04-25T11:26:45Z</time></trkpt><trkpt lat="38.09513345598137" lon="15.846287709185265"><ele>1316.0</ele><time>2026-04-25T11:26:46Z</time></trkpt><trkpt lat="38.09502251588289" lon="15.846217476939962"><ele>1316.0</ele><time>2026-04-25T11:26:47Z</time></trkpt><trkpt lat="38.094944231939365" lon="15.84617863399508"><ele>1316.0</ele><time>2026-04-25T11:26:48Z</time></trkpt><trkpt lat="38.094846062599004" lon="15.846060026562103"><ele>1315.5</ele><time>2026-04-25T11:26:50Z</time></trkpt><trkpt lat="38.09479200111851" lon="15.84595470578107"><ele>1315.0</ele><time>2026-04-25T11:26:51Z</time></trkpt><trkpt lat="38.09472659031977" lon="15.845818039826339"><ele>1314.5</ele><time>2026-04-25T11:26:52Z</time></trkpt><trkpt lat="38.09463797829776" lon="15.845682309381097"><ele>1314.0</ele><time>2026-04-25T11:26:53Z</time></trkpt><trkpt lat="38.09453326691874" lon="15.845578718238295"><ele>1314.0</ele><time>2026-04-25T11:26:54Z</time></trkpt><trkpt lat="38.09446085884068" lon="15.84547682840418"><ele>1314.0</ele><time>2026-04-25T11:26:55Z</time></trkpt><trkpt lat="38.09442616020227" lon="15.845367382714791"><ele>1314.0</ele><time>2026-04-25T11:26:56Z</time></trkpt><trkpt lat="38.09441901029584" lon="15.845256334831104"><ele>1314.0</ele><time>2026-04-25T11:26:57Z</time></trkpt><trkpt lat="38.09442213519432" lon="15.845127898056411"><ele>1314.0</ele><time>2026-04-25T11:26:58Z</time></trkpt><trkpt lat="38.09443494256997" lon="15.845004042938621"><ele>1317.4</ele><time>2026-04-25T11:26:59Z</time></trkpt><trkpt lat="38.09443016302168" lon="15.84488128592672"><ele>1320.8000000000002</ele><time>2026-04-25T11:27:00Z</time></trkpt><trkpt lat="38.09437695972028" lon="15.844766880083458"><ele>1324.1999999999998</ele><time>2026-04-25T11:27:01Z</time></trkpt><trkpt lat="38.0943121422975" lon="15.844687225594997"><ele>1327.6</ele><time>2026-04-25T11:27:02Z</time></trkpt><trkpt lat="38.09423413597766" lon="15.844634224761569"><ele>1331.0</ele><time>2026-04-25T11:27:03Z</time></trkpt><trkpt lat="38.0941361956361" lon="15.844609434687362"><ele>1326.6</ele><time>2026-04-25T11:27:04Z</time></trkpt><trkpt lat="38.09402657067292" lon="15.844607001794678"><ele>1322.1999999999998</ele><time>2026-04-25T11:27:05Z</time></trkpt><trkpt lat="38.0939217614139" lon="15.844583319776211"><ele>1317.8000000000002</ele><time>2026-04-25T11:27:06Z</time></trkpt><trkpt lat="38.09382137694899" lon="15.844529877582415"><ele>1313.4</ele><time>2026-04-25T11:27:07Z</time></trkpt><trkpt lat="38.09373422201136" lon="15.844449378611639"><ele>1309.0</ele><time>2026-04-25T11:27:08Z</time></trkpt><trkpt lat="38.09365833704769" lon="15.844350787440446"><ele>1315.5</ele><time>2026-04-25T11:27:09Z</time></trkpt><trkpt lat="38.09360436975108" lon="15.844240134496081"><ele>1322.0</ele><time>2026-04-25T11:27:10Z</time></trkpt><trkpt lat="38.093582650612504" lon="15.844111428639357"><ele>1328.5</ele><time>2026-04-25T11:27:11Z</time></trkpt><trkpt lat="38.09354955132367" lon="15.843944509956513"><ele>1335.0</ele><time>2026-04-25T11:27:12Z</time></trkpt><trkpt lat="38.093500618070955" lon="15.84379933673368"><ele>1335.0</ele><time>2026-04-25T11:27:13Z</time></trkpt><trkpt lat="38.0934162572439" lon="15.843691357455594"><ele>1335.0</ele><time>2026-04-25T11:27:14Z</time></trkpt><trkpt lat="38.093321891834336" lon="15.843588902037949"><ele>1335.0</ele><time>2026-04-25T11:27:15Z</time></trkpt><trkpt lat="38.09327191592773" lon="15.843491975651169"><ele>1335.0</ele><time>2026-04-25T11:27:16Z</time></trkpt><trkpt lat="38.09326467661764" lon="15.843386935069043"><ele>1335.0</ele><time>2026-04-25T11:27:17Z</time></trkpt><trkpt lat="38.09329135604721" lon="15.843278768512066"><ele>1337.75</ele><time>2026-04-25T11:27:18Z</time></trkpt><trkpt lat="38.093336023803936" lon="15.843140633227977"><ele>1340.5</ele><time>2026-04-25T11:27:19Z</time></trkpt><trkpt lat="38.093395132442176" lon="15.842983770044599"><ele>1343.25</ele><time>2026-04-25T11:27:20Z</time></trkpt><trkpt lat="38.093457308637745" lon="15.842800297939904"><ele>1346.0</ele><time>2026-04-25T11:27:21Z</time></trkpt><trkpt lat="38.093475168236374" lon="15.84263368596823"><ele>1345.75</ele><time>2026-04-25T11:27:22Z</time></trkpt><trkpt lat="38.09346902343924" lon="15.842451500082964"><ele>1345.5</ele><time>2026-04-25T11:27:23Z</time></trkpt><trkpt lat="38.09345654900497" lon="15.842252522775123"><ele>1345.25</ele><time>2026-04-25T11:27:24Z</time></trkpt><trkpt lat="38.093446406059776" lon="15.842072965330654"><ele>1345.0</ele><time>2026-04-25T11:27:25Z</time></trkpt><trkpt lat="38.093436605486154" lon="15.841925195519833"><ele>1344.0</ele><time>2026-04-25T11:27:26Z</time></trkpt><trkpt lat="38.09344054604302" lon="15.841793651989935"><ele>1343.0</ele><time>2026-04-25T11:27:27Z</time></trkpt><trkpt lat="38.09345864998593" lon="15.841645996537334"><ele>1342.0</ele><time>2026-04-25T11:27:27.999Z</time></trkpt><trkpt lat="38.09349749782362" lon="15.841495494064619"><ele>1341.0</ele><time>2026-04-25T11:27:28.999Z</time></trkpt><trkpt lat="38.09356344029265" lon="15.841355877317524"><ele>1341.0</ele><time>2026-04-25T11:27:29.999Z</time></trkpt><trkpt lat="38.093632925476605" lon="15.841264758029133"><ele>1341.0</ele><time>2026-04-25T11:27:30.999Z</time></trkpt><trkpt lat="38.09372054052202" lon="15.841221161887374"><ele>1341.0</ele><time>2026-04-25T11:27:31.999Z</time></trkpt><trkpt lat="38.09383223267037" lon="15.841203041324803"><ele>1341.0</ele><time>2026-04-25T11:27:32.999Z</time></trkpt><trkpt lat="38.0939703064652" lon="15.841209166113263"><ele>1341.0</ele><time>2026-04-25T11:27:33.999Z</time></trkpt><trkpt lat="38.09412947423374" lon="15.841237655784445"><ele>1348.0</ele><time>2026-04-25T11:27:34.999Z</time></trkpt><trkpt lat="38.09426986883694" lon="15.841271402295735"><ele>1355.0</ele><time>2026-04-25T11:27:35.999Z</time></trkpt><trkpt lat="38.09438282294735" lon="15.841310237539522"><ele>1362.0</ele><time>2026-04-25T11:27:36.999Z</time></trkpt><trkpt lat="38.094477943214805" lon="15.841367348194975"><ele>1369.0</ele><time>2026-04-25T11:27:37.999Z</time></trkpt><trkpt lat="38.09456801143233" lon="15.841422663058001"><ele>1369.0</ele><time>2026-04-25T11:27:38.999Z</time></trkpt><trkpt lat="38.094661312256385" lon="15.841448108706587"><ele>1369.0</ele><time>2026-04-25T11:27:39.999Z</time></trkpt><trkpt lat="38.09475303341721" lon="15.84142801438018"><ele>1369.0</ele><time>2026-04-25T11:27:40.999Z</time></trkpt><trkpt lat="38.09483357043361" lon="15.84136305762256"><ele>1369.0</ele><time>2026-04-25T11:27:41.999Z</time></trkpt><trkpt lat="38.094881873973414" lon="15.84126996701872"><ele>1369.0</ele><time>2026-04-25T11:27:42.999Z</time></trkpt><trkpt lat="38.094892065410384" lon="15.841151804704403"><ele>1369.0</ele><time>2026-04-25T11:27:43.999Z</time></trkpt><trkpt lat="38.0948684218534" lon="15.841020218584557"><ele>1369.0</ele><time>2026-04-25T11:27:44.999Z</time></trkpt><trkpt lat="38.09481342293218" lon="15.840872809465566"><ele>1369.0</ele><time>2026-04-25T11:27:45.999Z</time></trkpt><trkpt lat="38.09474837934066" lon="15.840721519632963"><ele>1369.0</ele><time>2026-04-25T11:27:46.999Z</time></trkpt><trkpt lat="38.094693651550585" lon="15.840562237449866"><ele>1368.0</ele><time>2026-04-25T11:27:47.999Z</time></trkpt><trkpt lat="38.09464462454508" lon="15.840397153364087"><ele>1367.0</ele><time>2026-04-25T11:27:48.999Z</time></trkpt><trkpt lat="38.09459450766522" lon="15.840228267971263"><ele>1366.0</ele><time>2026-04-25T11:27:49.999Z</time></trkpt><trkpt lat="38.0945449044908" lon="15.84006025805433"><ele>1365.0</ele><time>2026-04-25T11:27:50.999Z</time></trkpt><trkpt lat="38.0944999462938" lon="15.839892055831536"><ele>1365.0</ele><time>2026-04-25T11:27:51.999Z</time></trkpt><trkpt lat="38.0944524936959" lon="15.839726336337595"><ele>1365.0</ele><time>2026-04-25T11:27:52.999Z</time></trkpt><trkpt lat="38.09440285261521" lon="15.83956420206174"><ele>1365.0</ele><time>2026-04-25T11:27:53.999Z</time></trkpt><trkpt lat="38.09435813959839" lon="15.839425655288537"><ele>1365.0</ele><time>2026-04-25T11:27:54.999Z</time></trkpt><trkpt lat="38.09432664654427" lon="15.83931034043307"><ele>1366.6666666666667</ele><time>2026-04-25T11:27:55.999Z</time></trkpt><trkpt lat="38.0943123142754" lon="15.839207876821941"><ele>1368.3333333333333</ele><time>2026-04-25T11:27:56.999Z</time></trkpt><trkpt lat="38.09432858957111" lon="15.839109636903682"><ele>1370.0</ele><time>2026-04-25T11:27:57.999Z</time></trkpt><trkpt lat="38.09436693247021" lon="15.839037817303915"><ele>1371.6666666666665</ele><time>2026-04-25T11:27:58.999Z</time></trkpt><trkpt lat="38.09442494312004" lon="15.838996992233493"><ele>1373.3333333333333</ele><time>2026-04-25T11:27:59.999Z</time></trkpt><trkpt lat="38.094503753274225" lon="15.838984878156813"><ele>1375.0</ele><time>2026-04-25T11:28:00.999Z</time></trkpt><trkpt lat="38.09461423953001" lon="15.83899896813464"><ele>1375.0</ele><time>2026-04-25T11:28:01.999Z</time></trkpt><trkpt lat="38.094738349723265" lon="15.839020041719483"><ele>1375.0</ele><time>2026-04-25T11:28:02.999Z</time></trkpt><trkpt lat="38.09486922310146" lon="15.839034648610982"><ele>1375.0</ele><time>2026-04-25T11:28:03.999Z</time></trkpt><trkpt lat="38.094990716083224" lon="15.839025748009323"><ele>1375.0</ele><time>2026-04-25T11:28:04.999Z</time></trkpt><trkpt lat="38.09511054798958" lon="15.838994665776815"><ele>1376.75</ele><time>2026-04-25T11:28:05.999Z</time></trkpt><trkpt lat="38.09523778806584" lon="15.83896536906569"><ele>1378.5</ele><time>2026-04-25T11:28:06.999Z</time></trkpt><trkpt lat="38.095364757253435" lon="15.838948166541755"><ele>1380.25</ele><time>2026-04-25T11:28:07.999Z</time></trkpt><trkpt lat="38.09547319300541" lon="15.838937774946718"><ele>1382.0</ele><time>2026-04-25T11:28:08.999Z</time></trkpt><trkpt lat="38.09557497993982" lon="15.838944103027552"><ele>1382.0</ele><time>2026-04-25T11:28:09.999Z</time></trkpt><trkpt lat="38.095669425621914" lon="15.838993647384296"><ele>1382.0</ele><time>2026-04-25T11:28:10.999Z</time></trkpt><trkpt lat="38.095763327518114" lon="15.839066024382715"><ele>1382.0</ele><time>2026-04-25T11:28:11.999Z</time></trkpt><trkpt lat="38.09586466117551" lon="15.839133436062744"><ele>1382.0</ele><time>2026-04-25T11:28:12.999Z</time></trkpt><trkpt lat="38.0959749988619" lon="15.839183808902538"><ele>1382.0</ele><time>2026-04-25T11:28:13.999Z</time></trkpt><trkpt lat="38.096097633883275" lon="15.839196762945168"><ele>1383.0</ele><time>2026-04-25T11:28:14.999Z</time></trkpt><trkpt lat="38.096212428173466" lon="15.839196528360024"><ele>1384.0</ele><time>2026-04-25T11:28:15.999Z</time></trkpt><trkpt lat="38.09632016358481" lon="15.839166751663917"><ele>1385.0</ele><time>2026-04-25T11:28:16.999Z</time></trkpt><trkpt lat="38.09643337463345" lon="15.839122079974395"><ele>1386.0</ele><time>2026-04-25T11:28:17.999Z</time></trkpt><trkpt lat="38.09654795729015" lon="15.839078062826896"><ele>1385.0</ele><time>2026-04-25T11:28:19Z</time></trkpt><trkpt lat="38.09667747367219" lon="15.839028880939905"><ele>1384.0</ele><time>2026-04-25T11:28:20Z</time></trkpt><trkpt lat="38.09678864308543" lon="15.838968722085017"><ele>1383.0</ele><time>2026-04-25T11:28:21Z</time></trkpt><trkpt lat="38.09689743023589" lon="15.838891958435497"><ele>1382.0</ele><time>2026-04-25T11:28:22Z</time></trkpt><trkpt lat="38.09700566255925" lon="15.838805140114527"><ele>1382.0</ele><time>2026-04-25T11:28:23Z</time></trkpt><trkpt lat="38.097104042883906" lon="15.838735552300896"><ele>1382.0</ele><time>2026-04-25T11:28:24Z</time></trkpt><trkpt lat="38.09719012955765" lon="15.838682927148689"><ele>1382.0</ele><time>2026-04-25T11:28:25Z</time></trkpt><trkpt lat="38.097289005252705" lon="15.83864662672358"><ele>1382.0</ele><time>2026-04-25T11:28:26Z</time></trkpt><trkpt lat="38.097391540875186" lon="15.838626801139242"><ele>1382.0</ele><time>2026-04-25T11:28:27Z</time></trkpt><trkpt lat="38.09750626071439" lon="15.838588979013377"><ele>1385.0</ele><time>2026-04-25T11:28:28Z</time></trkpt><trkpt lat="38.09761620261752" lon="15.838528738923964"><ele>1388.0</ele><time>2026-04-25T11:28:29Z</time></trkpt><trkpt lat="38.097715000534095" lon="15.83843884508183"><ele>1391.0</ele><time>2026-04-25T11:28:30Z</time></trkpt><trkpt lat="38.09780109022384" lon="15.838344197349091"><ele>1394.0</ele><time>2026-04-25T11:28:31Z</time></trkpt><trkpt lat="38.09788085042391" lon="15.838281040878767"><ele>1397.0</ele><time>2026-04-25T11:28:32Z</time></trkpt><trkpt lat="38.0979744688288" lon="15.838282917485044"><ele>1397.0</ele><time>2026-04-25T11:28:33Z</time></trkpt><trkpt lat="38.098057107076365" lon="15.838324170131289"><ele>1397.0</ele><time>2026-04-25T11:28:34Z</time></trkpt><trkpt lat="38.0981354277644" lon="15.838394571098805"><ele>1397.0</ele><time>2026-04-25T11:28:35Z</time></trkpt><trkpt lat="38.09819258187441" lon="15.838503273245754"><ele>1397.0</ele><time>2026-04-25T11:28:36Z</time></trkpt><trkpt lat="38.098230697133154" lon="15.838634930709919"><ele>1397.0</ele><time>2026-04-25T11:28:37Z</time></trkpt><trkpt lat="38.09827189418687" lon="15.838783195882472"><ele>1395.0</ele><time>2026-04-25T11:28:38Z</time></trkpt><trkpt lat="38.098317021809876" lon="15.838969404297123"><ele>1393.0</ele><time>2026-04-25T11:28:39Z</time></trkpt><trkpt lat="38.09839973265479" lon="15.839162570370192"><ele>1391.0</ele><time>2026-04-25T11:28:40Z</time></trkpt><trkpt lat="38.09848347884408" lon="15.839345680231435"><ele>1395.1999999999998</ele><time>2026-04-25T11:28:41Z</time></trkpt><trkpt lat="38.09854327505876" lon="15.839503617984313"><ele>1399.3999999999999</ele><time>2026-04-25T11:28:42Z</time></trkpt><trkpt lat="38.0985877657809" lon="15.839628344658664"><ele>1403.6</ele><time>2026-04-25T11:28:43Z</time></trkpt><trkpt lat="38.09863950840949" lon="15.839718283434"><ele>1407.8</ele><time>2026-04-25T11:28:44Z</time></trkpt><trkpt lat="38.098707660141095" lon="15.839765904615264"><ele>1412.0</ele><time>2026-04-25T11:28:45Z</time></trkpt><trkpt lat="38.09878336103427" lon="15.839769208253934"><ele>1412.0</ele><time>2026-04-25T11:28:46Z</time></trkpt><trkpt lat="38.09886645356421" lon="15.839732944346101"><ele>1412.0</ele><time>2026-04-25T11:28:47Z</time></trkpt><trkpt lat="38.09895029225569" lon="15.839658317283687"><ele>1412.0</ele><time>2026-04-25T11:28:48Z</time></trkpt><trkpt lat="38.09903716537867" lon="15.839605007363284"><ele>1412.0</ele><time>2026-04-25T11:28:49Z</time></trkpt><trkpt lat="38.09913276938635" lon="15.839594301470381"><ele>1412.0</ele><time>2026-04-25T11:28:50Z</time></trkpt><trkpt lat="38.099225324108204" lon="15.839634572329677"><ele>1408.6</ele><time>2026-04-25T11:28:51Z</time></trkpt><trkpt lat="38.099322789168504" lon="15.839691193687715"><ele>1405.1999999999998</ele><time>2026-04-25T11:28:52Z</time></trkpt><trkpt lat="38.099416049879636" lon="15.83974499061614"><ele>1401.8</ele><time>2026-04-25T11:28:53Z</time></trkpt><trkpt lat="38.09951086498752" lon="15.839751687577298"><ele>1398.4</ele><time>2026-04-25T11:28:54Z</time></trkpt><trkpt lat="38.09960174771755" lon="15.83970309199581"><ele>1395.0</ele><time>2026-04-25T11:28:55Z</time></trkpt><trkpt lat="38.09969407931211" lon="15.839617710039747"><ele>1395.0</ele><time>2026-04-25T11:28:56Z</time></trkpt><trkpt lat="38.09978762016305" lon="15.839507227164708"><ele>1395.0</ele><time>2026-04-25T11:28:57Z</time></trkpt><trkpt lat="38.09987649557263" lon="15.839430005706989"><ele>1395.0</ele><time>2026-04-25T11:28:58Z</time></trkpt><trkpt lat="38.09995235200842" lon="15.839402882138135"><ele>1395.0</ele><time>2026-04-25T11:28:59Z</time></trkpt><trkpt lat="38.10003936453606" lon="15.839420182035944"><ele>1395.0</ele><time>2026-04-25T11:29:00Z</time></trkpt><trkpt lat="38.10014094384754" lon="15.839465574140364"><ele>1394.0</ele><time>2026-04-25T11:29:01Z</time></trkpt><trkpt lat="38.10025862771539" lon="15.839547204160187"><ele>1393.0</ele><time>2026-04-25T11:29:02Z</time></trkpt><trkpt lat="38.10039742579213" lon="15.83965790897235"><ele>1392.0</ele><time>2026-04-25T11:29:03Z</time></trkpt><trkpt lat="38.100543082615964" lon="15.839763202425969"><ele>1392.0</ele><time>2026-04-25T11:29:04Z</time></trkpt><trkpt lat="38.10067929454178" lon="15.839845107660798"><ele>1392.0</ele><time>2026-04-25T11:29:05Z</time></trkpt><trkpt lat="38.10081731382461" lon="15.839930843664673"><ele>1392.0</ele><time>2026-04-25T11:29:06Z</time></trkpt><trkpt lat="38.100960786801814" lon="15.840031423050418"><ele>1398.6666666666667</ele><time>2026-04-25T11:29:07Z</time></trkpt><trkpt lat="38.101099307906146" lon="15.840146608956776"><ele>1405.3333333333335</ele><time>2026-04-25T11:29:08Z</time></trkpt><trkpt lat="38.101237499169336" lon="15.840258586894391"><ele>1412.0</ele><time>2026-04-25T11:29:09Z</time></trkpt><trkpt lat="38.10137192626749" lon="15.840356409368075"><ele>1412.0</ele><time>2026-04-25T11:29:10Z</time></trkpt><trkpt lat="38.10150550720687" lon="15.840455469931435"><ele>1412.0</ele><time>2026-04-25T11:29:11Z</time></trkpt><trkpt lat="38.10164166902782" lon="15.840555844421283"><ele>1412.0</ele><time>2026-04-25T11:29:12Z</time></trkpt><trkpt lat="38.101775159231615" lon="15.840659622387331"><ele>1411.75</ele><time>2026-04-25T11:29:13Z</time></trkpt><trkpt lat="38.10189664695241" lon="15.840768452725722"><ele>1411.5</ele><time>2026-04-25T11:29:14Z</time></trkpt><trkpt lat="38.102004366820786" lon="15.840874564983698"><ele>1411.25</ele><time>2026-04-25T11:29:15Z</time></trkpt><trkpt lat="38.10208800891934" lon="15.840968771972012"><ele>1411.0</ele><time>2026-04-25T11:29:16Z</time></trkpt><trkpt lat="38.10215932411251" lon="15.841078379432458"><ele>1411.0</ele><time>2026-04-25T11:29:17Z</time></trkpt><trkpt lat="38.102218514469556" lon="15.84120542392627"><ele>1411.0</ele><time>2026-04-25T11:29:18Z</time></trkpt><trkpt lat="38.1022572794794" lon="15.841332532574093"><ele>1411.0</ele><time>2026-04-25T11:29:19Z</time></trkpt><trkpt lat="38.10231473147702" lon="15.841421101300611"><ele>1411.0</ele><time>2026-04-25T11:29:20Z</time></trkpt><trkpt lat="38.10239323028165" lon="15.841455591697565"><ele>1411.0</ele><time>2026-04-25T11:29:20.999Z</time></trkpt><trkpt lat="38.10250370406232" lon="15.841469188991258"><ele>1402.5</ele><time>2026-04-25T11:29:21.999Z</time></trkpt><trkpt lat="38.10262279595475" lon="15.84147256961947"><ele>1394.0</ele><time>2026-04-25T11:29:22.999Z</time></trkpt><trkpt lat="38.102740200076816" lon="15.841504496656027"><ele>1385.5</ele><time>2026-04-25T11:29:23.999Z</time></trkpt><trkpt lat="38.1028500777583" lon="15.84154518571413"><ele>1377.0</ele><time>2026-04-25T11:29:24.999Z</time></trkpt><trkpt lat="38.10295639487104" lon="15.841609803183863"><ele>1377.0</ele><time>2026-04-25T11:29:25.999Z</time></trkpt><trkpt lat="38.10304992702309" lon="15.841671560565967"><ele>1377.0</ele><time>2026-04-25T11:29:26.999Z</time></trkpt><trkpt lat="38.10313450450518" lon="15.841730698482934"><ele>1377.0</ele><time>2026-04-25T11:29:27.999Z</time></trkpt><trkpt lat="38.10320208704027" lon="15.841811767107194"><ele>1377.0</ele><time>2026-04-25T11:29:28.999Z</time></trkpt><trkpt lat="38.103261684065906" lon="15.841925081007094"><ele>1377.0</ele><time>2026-04-25T11:29:29.999Z</time></trkpt><trkpt lat="38.10332273072111" lon="15.842046176821794"><ele>1379.1999999999998</ele><time>2026-04-25T11:29:30.999Z</time></trkpt><trkpt lat="38.10338209276819" lon="15.842116653030743"><ele>1381.4</ele><time>2026-04-25T11:29:31.999Z</time></trkpt><trkpt lat="38.10346774335006" lon="15.842145439854695"><ele>1383.6</ele><time>2026-04-25T11:29:32.999Z</time></trkpt><trkpt lat="38.103576080842885" lon="15.842147501800024"><ele>1385.8000000000002</ele><time>2026-04-25T11:29:33.999Z</time></trkpt><trkpt lat="38.10369132256557" lon="15.842169437106246"><ele>1388.0</ele><time>2026-04-25T11:29:34.999Z</time></trkpt><trkpt lat="38.10381180097843" lon="15.842218281166863"><ele>1388.0</ele><time>2026-04-25T11:29:35.999Z</time></trkpt><trkpt lat="38.10393105327853" lon="15.842301536511409"><ele>1388.0</ele><time>2026-04-25T11:29:36.999Z</time></trkpt><trkpt lat="38.10404714816953" lon="15.842407468411158"><ele>1388.0</ele><time>2026-04-25T11:29:37.999Z</time></trkpt><trkpt lat="38.104150846292455" lon="15.842529340001557"><ele>1388.0</ele><time>2026-04-25T11:29:38.999Z</time></trkpt><trkpt lat="38.10424025189063" lon="15.842661786227772"><ele>1388.4</ele><time>2026-04-25T11:29:39.999Z</time></trkpt><trkpt lat="38.10431742371419" lon="15.842786395614034"><ele>1388.8000000000002</ele><time>2026-04-25T11:29:40.999Z</time></trkpt><trkpt lat="38.10439389028214" lon="15.842885849129912"><ele>1389.2</ele><time>2026-04-25T11:29:41.999Z</time></trkpt><trkpt lat="38.104468383710085" lon="15.842970817368611"><ele>1389.6</ele><time>2026-04-25T11:29:42.999Z</time></trkpt><trkpt lat="38.10455824800477" lon="15.843022973617034"><ele>1390.0</ele><time>2026-04-25T11:29:43.999Z</time></trkpt><trkpt lat="38.104654765464886" lon="15.843045804044461"><ele>1390.0</ele><time>2026-04-25T11:29:44.999Z</time></trkpt><trkpt lat="38.104734102208205" lon="15.843075439502064"><ele>1390.0</ele><time>2026-04-25T11:29:45.999Z</time></trkpt><trkpt lat="38.104802243736415" lon="15.843132704873211"><ele>1390.0</ele><time>2026-04-25T11:29:46.999Z</time></trkpt><trkpt lat="38.104873803762814" lon="15.843239105170685"><ele>1390.0</ele><time>2026-04-25T11:29:47.999Z</time></trkpt><trkpt lat="38.10491825945807" lon="15.843368880199108"><ele>1390.0</ele><time>2026-04-25T11:29:48.999Z</time></trkpt><trkpt lat="38.10497015578288" lon="15.843510383440941"><ele>1386.6</ele><time>2026-04-25T11:29:49.999Z</time></trkpt><trkpt lat="38.10502341736102" lon="15.843621273325498"><ele>1383.2</ele><time>2026-04-25T11:29:50.999Z</time></trkpt><trkpt lat="38.105055016562716" lon="15.843737544784231"><ele>1379.8000000000002</ele><time>2026-04-25T11:29:51.999Z</time></trkpt><trkpt lat="38.10508948885441" lon="15.843852800530525"><ele>1376.4</ele><time>2026-04-25T11:29:52.999Z</time></trkpt><trkpt lat="38.10515336634659" lon="15.843949969484317"><ele>1373.0</ele><time>2026-04-25T11:29:53.999Z</time></trkpt><trkpt lat="38.105237323583594" lon="15.844030066363782"><ele>1373.0</ele><time>2026-04-25T11:29:54.999Z</time></trkpt><trkpt lat="38.105323044135226" lon="15.844104914452396"><ele>1373.0</ele><time>2026-04-25T11:29:55.999Z</time></trkpt><trkpt lat="38.10538458231727" lon="15.844195919910028"><ele>1373.0</ele><time>2026-04-25T11:29:56.999Z</time></trkpt><trkpt lat="38.10541839830973" lon="15.844307616648498"><ele>1373.0</ele><time>2026-04-25T11:29:57.999Z</time></trkpt><trkpt lat="38.10543638647113" lon="15.844447685765134"><ele>1373.0</ele><time>2026-04-25T11:29:58.999Z</time></trkpt><trkpt lat="38.10544023458597" lon="15.844580529607054"><ele>1375.2</ele><time>2026-04-25T11:29:59.999Z</time></trkpt><trkpt lat="38.10542822793758" lon="15.844711125973902"><ele>1377.4</ele><time>2026-04-25T11:30:00.999Z</time></trkpt><trkpt lat="38.10541820333699" lon="15.844809247425859"><ele>1379.6000000000001</ele><time>2026-04-25T11:30:01.999Z</time></trkpt><trkpt lat="38.10542264632027" lon="15.844890672070623"><ele>1381.8000000000002</ele><time>2026-04-25T11:30:02.999Z</time></trkpt><trkpt lat="38.10548773467636" lon="15.845010708123015"><ele>1384.0</ele><time>2026-04-25T11:30:04.999Z</time></trkpt><trkpt lat="38.10561183466094" lon="15.84507017880868"><ele>1384.0</ele><time>2026-04-25T11:30:06.999Z</time></trkpt><trkpt lat="38.10569271016743" lon="15.845044827329245"><ele>1384.0</ele><time>2026-04-25T11:30:07.999Z</time></trkpt><trkpt lat="38.10577883180546" lon="15.845003691053074"><ele>1384.0</ele><time>2026-04-25T11:30:08.999Z</time></trkpt><trkpt lat="38.10587166645991" lon="15.84497116855278"><ele>1384.0</ele><time>2026-04-25T11:30:09.999Z</time></trkpt><trkpt lat="38.10597453409652" lon="15.844969880023074"><ele>1384.0</ele><time>2026-04-25T11:30:10.999Z</time></trkpt><trkpt lat="38.10608778605306" lon="15.844987786320248"><ele>1376.0</ele><time>2026-04-25T11:30:11.999Z</time></trkpt><trkpt lat="38.10620614074947" lon="15.844988812913"><ele>1368.0</ele><time>2026-04-25T11:30:12.999Z</time></trkpt><trkpt lat="38.106330732577995" lon="15.844954460960627"><ele>1360.0</ele><time>2026-04-25T11:30:13.999Z</time></trkpt><trkpt lat="38.10644563832982" lon="15.844914828994213"><ele>1352.0</ele><time>2026-04-25T11:30:14.999Z</time></trkpt><trkpt lat="38.10653393644476" lon="15.84490401589417"><ele>1349.1666666666667</ele><time>2026-04-25T11:30:15.999Z</time></trkpt><trkpt lat="38.10662405967544" lon="15.844923294286186"><ele>1346.3333333333335</ele><time>2026-04-25T11:30:16.999Z</time></trkpt><trkpt lat="38.10670164489269" lon="15.844980000143705"><ele>1343.5</ele><time>2026-04-25T11:30:17.999Z</time></trkpt><trkpt lat="38.106772004797804" lon="15.845036851246462"><ele>1340.6666666666667</ele><time>2026-04-25T11:30:18.999Z</time></trkpt><trkpt lat="38.1068400087206" lon="15.845097135763506"><ele>1337.8333333333333</ele><time>2026-04-25T11:30:19.999Z</time></trkpt><trkpt lat="38.10690073535106" lon="15.84516622433306"><ele>1335.0</ele><time>2026-04-25T11:30:20.999Z</time></trkpt><trkpt lat="38.106958132494455" lon="15.845241672510907"><ele>1343.4</ele><time>2026-04-25T11:30:21.999Z</time></trkpt><trkpt lat="38.107019241921606" lon="15.845321741548856"><ele>1351.8</ele><time>2026-04-25T11:30:22.999Z</time></trkpt><trkpt lat="38.107083391367794" lon="15.8454085348327"><ele>1360.1999999999998</ele><time>2026-04-25T11:30:23.999Z</time></trkpt><trkpt lat="38.107152202573566" lon="15.84550540724699"><ele>1368.6</ele><time>2026-04-25T11:30:25Z</time></trkpt><trkpt lat="38.10720629578449" lon="15.845622889221309"><ele>1377.0</ele><time>2026-04-25T11:30:26Z</time></trkpt><trkpt lat="38.107268148657674" lon="15.845748113291723"><ele>1377.0</ele><time>2026-04-25T11:30:27Z</time></trkpt><trkpt lat="38.10733086423628" lon="15.845877003509209"><ele>1377.0</ele><time>2026-04-25T11:30:28Z</time></trkpt><trkpt lat="38.10737599045551" lon="15.846013883596259"><ele>1377.0</ele><time>2026-04-25T11:30:29Z</time></trkpt><trkpt lat="38.1074025481088" lon="15.846154996036322"><ele>1377.0</ele><time>2026-04-25T11:30:30Z</time></trkpt><trkpt lat="38.107405859887976" lon="15.846304112712476"><ele>1377.1999999999998</ele><time>2026-04-25T11:30:31Z</time></trkpt><trkpt lat="38.10739113966019" lon="15.84645150646203"><ele>1377.4</ele><time>2026-04-25T11:30:32Z</time></trkpt><trkpt lat="38.1073646946566" lon="15.846577761501853"><ele>1377.6</ele><time>2026-04-25T11:30:33Z</time></trkpt><trkpt lat="38.10732295422459" lon="15.846677136314614"><ele>1377.8000000000002</ele><time>2026-04-25T11:30:34Z</time></trkpt><trkpt lat="38.10726147656833" lon="15.846760534555571"><ele>1378.0</ele><time>2026-04-25T11:30:35Z</time></trkpt><trkpt lat="38.10717667382465" lon="15.846853914232437"><ele>1378.0</ele><time>2026-04-25T11:30:36Z</time></trkpt><trkpt lat="38.10709944432572" lon="15.846975567875454"><ele>1378.0</ele><time>2026-04-25T11:30:37Z</time></trkpt><trkpt lat="38.10705034461105" lon="15.847118181686008"><ele>1378.0</ele><time>2026-04-25T11:30:38Z</time></trkpt><trkpt lat="38.10703024867479" lon="15.847282316773864"><ele>1378.0</ele><time>2026-04-25T11:30:39Z</time></trkpt><trkpt lat="38.10700875934723" lon="15.84742353989422"><ele>1378.0</ele><time>2026-04-25T11:30:40Z</time></trkpt><trkpt lat="38.10699711639358" lon="15.847529468863588"><ele>1378.0</ele><time>2026-04-25T11:30:41Z</time></trkpt><trkpt lat="38.107000968786444" lon="15.847618397791038"><ele>1378.0</ele><time>2026-04-25T11:30:42Z</time></trkpt><trkpt lat="38.10702064210136" lon="15.847710416211873"><ele>1378.0</ele><time>2026-04-25T11:30:43Z</time></trkpt><trkpt lat="38.10707097831137" lon="15.847794484459145"><ele>1378.0</ele><time>2026-04-25T11:30:44Z</time></trkpt><trkpt lat="38.10714539759326" lon="15.847858229866038"><ele>1378.0</ele><time>2026-04-25T11:30:45Z</time></trkpt><trkpt lat="38.107227501068394" lon="15.84788708689273"><ele>1377.4</ele><time>2026-04-25T11:30:46Z</time></trkpt><trkpt lat="38.107307405834" lon="15.847884635161641"><ele>1376.8000000000002</ele><time>2026-04-25T11:30:47Z</time></trkpt><trkpt lat="38.107386016038134" lon="15.847853399180355"><ele>1376.2</ele><time>2026-04-25T11:30:48Z</time></trkpt><trkpt lat="38.10748086352248" lon="15.84779857391578"><ele>1375.6</ele><time>2026-04-25T11:30:49Z</time></trkpt><trkpt lat="38.10760404100197" lon="15.84772911833495"><ele>1375.0</ele><time>2026-04-25T11:30:50Z</time></trkpt><trkpt lat="38.10775670796577" lon="15.847651267686352"><ele>1365.0</ele><time>2026-04-25T11:30:51Z</time></trkpt><trkpt lat="38.10790819699739" lon="15.847551340492785"><ele>1355.0</ele><time>2026-04-25T11:30:52Z</time></trkpt><trkpt lat="38.10801816872549" lon="15.847511400857297"><ele>1345.0</ele><time>2026-04-25T11:30:53Z</time></trkpt><trkpt lat="38.10811834206156" lon="15.847463449808922"><ele>1335.0</ele><time>2026-04-25T11:30:54Z</time></trkpt><trkpt lat="38.10820759808263" lon="15.847420201195883"><ele>1338.4</ele><time>2026-04-25T11:30:55Z</time></trkpt><trkpt lat="38.10829371933889" lon="15.847380008641341"><ele>1341.8</ele><time>2026-04-25T11:30:56Z</time></trkpt><trkpt lat="38.10837861137081" lon="15.847300647723445"><ele>1345.1999999999998</ele><time>2026-04-25T11:30:57Z</time></trkpt><trkpt lat="38.10845129210699" lon="15.847183805508324"><ele>1348.6</ele><time>2026-04-25T11:30:58Z</time></trkpt><trkpt lat="38.10852046856298" lon="15.847058960079611"><ele>1352.0</ele><time>2026-04-25T11:30:59Z</time></trkpt><trkpt lat="38.10861369232991" lon="15.84695015141161"><ele>1352.0</ele><time>2026-04-25T11:31:00Z</time></trkpt><trkpt lat="38.10874836937149" lon="15.84684462415174"><ele>1352.0</ele><time>2026-04-25T11:31:01Z</time></trkpt><trkpt lat="38.10890211233563" lon="15.846735609152145"><ele>1352.0</ele><time>2026-04-25T11:31:02Z</time></trkpt><trkpt lat="38.10902602816593" lon="15.846643165134477"><ele>1352.6</ele><time>2026-04-25T11:31:03Z</time></trkpt><trkpt lat="38.109123546173194" lon="15.846568917934878"><ele>1353.1999999999998</ele><time>2026-04-25T11:31:04Z</time></trkpt><trkpt lat="38.10921778887414" lon="15.846495483718083"><ele>1353.8</ele><time>2026-04-25T11:31:05Z</time></trkpt><trkpt lat="38.10928700489939" lon="15.846404036730078"><ele>1354.4</ele><time>2026-04-25T11:31:06Z</time></trkpt><trkpt lat="38.109341055734006" lon="15.846275560692536"><ele>1355.0</ele><time>2026-04-25T11:31:07Z</time></trkpt><trkpt lat="38.109370821100846" lon="15.846120010262984"><ele>1355.0</ele><time>2026-04-25T11:31:08Z</time></trkpt><trkpt lat="38.10940119630189" lon="15.846000165430487"><ele>1355.0</ele><time>2026-04-25T11:31:09Z</time></trkpt><trkpt lat="38.10945715087724" lon="15.845929618991162"><ele>1355.0</ele><time>2026-04-25T11:31:10Z</time></trkpt><trkpt lat="38.10955021116133" lon="15.845906674604558"><ele>1355.0</ele><time>2026-04-25T11:31:11Z</time></trkpt><trkpt lat="38.109659134459925" lon="15.845906903307368"><ele>1355.0</ele><time>2026-04-25T11:31:12Z</time></trkpt><trkpt lat="38.10978172580972" lon="15.845938470554586"><ele>1355.0</ele><time>2026-04-25T11:31:13Z</time></trkpt><trkpt lat="38.10987211605071" lon="15.845978651729432"><ele>1355.0</ele><time>2026-04-25T11:31:14Z</time></trkpt><trkpt lat="38.10994453268" lon="15.845985989497544"><ele>1355.0</ele><time>2026-04-25T11:31:15Z</time></trkpt><trkpt lat="38.11001707411281" lon="15.84597234217691"><ele>1355.0</ele><time>2026-04-25T11:31:16Z</time></trkpt><trkpt lat="38.110068797881496" lon="15.845903965514916"><ele>1355.0</ele><time>2026-04-25T11:31:17Z</time></trkpt><trkpt lat="38.11010908169203" lon="15.845795887995793"><ele>1355.0</ele><time>2026-04-25T11:31:18Z</time></trkpt><trkpt lat="38.11012636361573" lon="15.845653511012358"><ele>1355.75</ele><time>2026-04-25T11:31:19Z</time></trkpt><trkpt lat="38.110121126937784" lon="15.845478819299156"><ele>1356.5</ele><time>2026-04-25T11:31:19.999Z</time></trkpt><trkpt lat="38.110120846750505" lon="15.845309721801963"><ele>1357.25</ele><time>2026-04-25T11:31:20.999Z</time></trkpt><trkpt lat="38.110124131007545" lon="15.8451621781911"><ele>1358.0</ele><time>2026-04-25T11:31:21.999Z</time></trkpt><trkpt lat="38.11010514129933" lon="15.84501218016974"><ele>1359.0</ele><time>2026-04-25T11:31:22.999Z</time></trkpt><trkpt lat="38.1100690082854" lon="15.844867503775028"><ele>1360.0</ele><time>2026-04-25T11:31:23.999Z</time></trkpt><trkpt lat="38.110018540264136" lon="15.844744164079858"><ele>1361.0</ele><time>2026-04-25T11:31:24.999Z</time></trkpt><trkpt lat="38.10994522935327" lon="15.844639090925126"><ele>1362.0</ele><time>2026-04-25T11:31:25.999Z</time></trkpt><trkpt lat="38.109838601273445" lon="15.844552695833157"><ele>1364.0</ele><time>2026-04-25T11:31:26.999Z</time></trkpt><trkpt lat="38.109716514305155" lon="15.84445018991711"><ele>1366.0</ele><time>2026-04-25T11:31:27.999Z</time></trkpt><trkpt lat="38.10959529266212" lon="15.844335314764164"><ele>1368.0</ele><time>2026-04-25T11:31:28.999Z</time></trkpt><trkpt lat="38.10948475093895" lon="15.844225492979461"><ele>1370.0</ele><time>2026-04-25T11:31:29.999Z</time></trkpt><trkpt lat="38.109370123877696" lon="15.844137063792132"><ele>1370.0</ele><time>2026-04-25T11:31:30.999Z</time></trkpt><trkpt lat="38.10927221193203" lon="15.844068478451915"><ele>1370.0</ele><time>2026-04-25T11:31:31.999Z</time></trkpt><trkpt lat="38.10917768651597" lon="15.843990809009341"><ele>1370.0</ele><time>2026-04-25T11:31:32.999Z</time></trkpt><trkpt lat="38.10909460419163" lon="15.84388212402829"><ele>1370.0</ele><time>2026-04-25T11:31:33.999Z</time></trkpt><trkpt lat="38.109018976451885" lon="15.843781513032816"><ele>1364.2</ele><time>2026-04-25T11:31:34.999Z</time></trkpt><trkpt lat="38.108965362681" lon="15.843685127163193"><ele>1358.4</ele><time>2026-04-25T11:31:35.999Z</time></trkpt><trkpt lat="38.108941537119" lon="15.843586562517542"><ele>1352.6</ele><time>2026-04-25T11:31:36.999Z</time></trkpt><trkpt lat="38.10891603060971" lon="15.843480950072406"><ele>1346.8</ele><time>2026-04-25T11:31:37.999Z</time></trkpt><trkpt lat="38.10890632768685" lon="15.843334808991992"><ele>1341.0</ele><time>2026-04-25T11:31:38.999Z</time></trkpt><trkpt lat="38.10889239835862" lon="15.843158248368033"><ele>1341.0</ele><time>2026-04-25T11:31:39.999Z</time></trkpt><trkpt lat="38.108874699605884" lon="15.842977888831474"><ele>1341.0</ele><time>2026-04-25T11:31:40.999Z</time></trkpt><trkpt lat="38.10884749147806" lon="15.84283085223139"><ele>1341.0</ele><time>2026-04-25T11:31:41.999Z</time></trkpt><trkpt lat="38.10878974206176" lon="15.842694578250557"><ele>1341.0</ele><time>2026-04-25T11:31:42.999Z</time></trkpt><trkpt lat="38.10870927284506" lon="15.842550217335988"><ele>1346.25</ele><time>2026-04-25T11:31:43.999Z</time></trkpt><trkpt lat="38.10861338953449" lon="15.842414582218598"><ele>1351.5</ele><time>2026-04-25T11:31:44.999Z</time></trkpt><trkpt lat="38.10850189113227" lon="15.842285224433962"><ele>1356.75</ele><time>2026-04-25T11:31:45.999Z</time></trkpt><trkpt lat="38.108409180934345" lon="15.842189401199775"><ele>1362.0</ele><time>2026-04-25T11:31:46.999Z</time></trkpt><trkpt lat="38.108369923993806" lon="15.842087145014089"><ele>1362.0</ele><time>2026-04-25T11:31:47.999Z</time></trkpt><trkpt lat="38.10835579360099" lon="15.841956715824809"><ele>1362.0</ele><time>2026-04-25T11:31:48.999Z</time></trkpt><trkpt lat="38.108342324979745" lon="15.84182194918683"><ele>1362.0</ele><time>2026-04-25T11:31:49.999Z</time></trkpt><trkpt lat="38.10832445100694" lon="15.841656931328702"><ele>1362.0</ele><time>2026-04-25T11:31:50.999Z</time></trkpt><trkpt lat="38.108308122404964" lon="15.841517386984364"><ele>1364.5</ele><time>2026-04-25T11:31:51.999Z</time></trkpt><trkpt lat="38.10832272582492" lon="15.841401882750837"><ele>1367.0</ele><time>2026-04-25T11:31:52.999Z</time></trkpt><trkpt lat="38.10835995595009" lon="15.841310290877603"><ele>1369.5</ele><time>2026-04-25T11:31:53.999Z</time></trkpt><trkpt lat="38.10842630308194" lon="15.84126350756534"><ele>1372.0</ele><time>2026-04-25T11:31:54.999Z</time></trkpt><trkpt lat="38.10850860113634" lon="15.84127388417582"><ele>1374.5</ele><time>2026-04-25T11:31:55.999Z</time></trkpt><trkpt lat="38.10860974446373" lon="15.841307632291857"><ele>1377.0</ele><time>2026-04-25T11:31:56.999Z</time></trkpt><trkpt lat="38.10873191229142" lon="15.84135854115001"><ele>1377.0</ele><time>2026-04-25T11:31:57.999Z</time></trkpt><trkpt lat="38.10883791924096" lon="15.84142625436397"><ele>1377.0</ele><time>2026-04-25T11:31:58.999Z</time></trkpt><trkpt lat="38.108940222673255" lon="15.841471986930596"><ele>1377.0</ele><time>2026-04-25T11:31:59.999Z</time></trkpt><trkpt lat="38.109046068316495" lon="15.841511873647926"><ele>1377.0</ele><time>2026-04-25T11:32:00.999Z</time></trkpt><trkpt lat="38.10915070854224" lon="15.841541982103713"><ele>1377.0</ele><time>2026-04-25T11:32:01.999Z</time></trkpt><trkpt lat="38.10924468123221" lon="15.841570733332487"><ele>1379.6</ele><time>2026-04-25T11:32:02.999Z</time></trkpt><trkpt lat="38.109333647756785" lon="15.84159408312904"><ele>1382.1999999999998</ele><time>2026-04-25T11:32:03.999Z</time></trkpt><trkpt lat="38.10941941162395" lon="15.841584305444048"><ele>1384.8</ele><time>2026-04-25T11:32:04.999Z</time></trkpt><trkpt lat="38.10951461403022" lon="15.841561794769623"><ele>1387.4</ele><time>2026-04-25T11:32:05.999Z</time></trkpt><trkpt lat="38.10960695437495" lon="15.841534507789063"><ele>1390.0</ele><time>2026-04-25T11:32:06.999Z</time></trkpt><trkpt lat="38.109696906535156" lon="15.841474601668915"><ele>1390.0</ele><time>2026-04-25T11:32:07.999Z</time></trkpt><trkpt lat="38.10975353879496" lon="15.841365973318618"><ele>1390.0</ele><time>2026-04-25T11:32:08.999Z</time></trkpt><trkpt lat="38.10977645282366" lon="15.841229352074379"><ele>1390.0</ele><time>2026-04-25T11:32:09.999Z</time></trkpt><trkpt lat="38.10978452514347" lon="15.84107253020911"><ele>1390.0</ele><time>2026-04-25T11:32:10.999Z</time></trkpt><trkpt lat="38.109771004200894" lon="15.840918158011917"><ele>1390.2</ele><time>2026-04-25T11:32:11.999Z</time></trkpt><trkpt lat="38.10979393727116" lon="15.84078211094008"><ele>1390.4</ele><time>2026-04-25T11:32:12.999Z</time></trkpt><trkpt lat="38.109848097708785" lon="15.840685129482159"><ele>1390.6</ele><time>2026-04-25T11:32:13.999Z</time></trkpt><trkpt lat="38.109915431203554" lon="15.84061699537505"><ele>1390.8</ele><time>2026-04-25T11:32:14.999Z</time></trkpt><trkpt lat="38.11000228931808" lon="15.840562799569417"><ele>1391.0</ele><time>2026-04-25T11:32:15.999Z</time></trkpt><trkpt lat="38.11009974461203" lon="15.840530644090926"><ele>1391.0</ele><time>2026-04-25T11:32:16.999Z</time></trkpt><trkpt lat="38.11020288019506" lon="15.840509171224229"><ele>1391.0</ele><time>2026-04-25T11:32:17.999Z</time></trkpt><trkpt lat="38.11030972633934" lon="15.840555174429657"><ele>1391.0</ele><time>2026-04-25T11:32:18.999Z</time></trkpt><trkpt lat="38.11041897294524" lon="15.840615936331075"><ele>1391.0</ele><time>2026-04-25T11:32:19.999Z</time></trkpt><trkpt lat="38.11053325921824" lon="15.840678815343816"><ele>1391.0</ele><time>2026-04-25T11:32:20.999Z</time></trkpt><trkpt lat="38.11063656804673" lon="15.840750488664554"><ele>1391.0</ele><time>2026-04-25T11:32:21.999Z</time></trkpt><trkpt lat="38.11074456464962" lon="15.840835304706731"><ele>1391.0</ele><time>2026-04-25T11:32:22.999Z</time></trkpt><trkpt lat="38.11085222716026" lon="15.840944227767828"><ele>1391.0</ele><time>2026-04-25T11:32:23.999Z</time></trkpt><trkpt lat="38.110959880446856" lon="15.841067222345547"><ele>1396.5</ele><time>2026-04-25T11:32:24.999Z</time></trkpt><trkpt lat="38.11106723062984" lon="15.84118037478458"><ele>1402.0</ele><time>2026-04-25T11:32:25.999Z</time></trkpt><trkpt lat="38.111172914869215" lon="15.84129695516774"><ele>1407.5</ele><time>2026-04-25T11:32:26.999Z</time></trkpt><trkpt lat="38.111272453697104" lon="15.841408188018972"><ele>1413.0</ele><time>2026-04-25T11:32:27.999Z</time></trkpt><trkpt lat="38.11137381796154" lon="15.841512980477123"><ele>1413.0</ele><time>2026-04-25T11:32:28.999Z</time></trkpt><trkpt lat="38.11146589622894" lon="15.84160636980514"><ele>1413.0</ele><time>2026-04-25T11:32:29.999Z</time></trkpt><trkpt lat="38.11154229388738" lon="15.841696207955325"><ele>1413.0</ele><time>2026-04-25T11:32:31Z</time></trkpt><trkpt lat="38.11160177825513" lon="15.841782678064137"><ele>1413.0</ele><time>2026-04-25T11:32:32Z</time></trkpt><trkpt lat="38.11165532381152" lon="15.841881408214215"><ele>1413.0</ele><time>2026-04-25T11:32:33Z</time></trkpt><trkpt lat="38.11171145358245" lon="15.841981080003507"><ele>1412.6000000000001</ele><time>2026-04-25T11:32:34Z</time></trkpt><trkpt lat="38.11174733475775" lon="15.842094118743276"><ele>1412.2</ele><time>2026-04-25T11:32:35Z</time></trkpt><trkpt lat="38.11178004972707" lon="15.842215231203804"><ele>1411.8</ele><time>2026-04-25T11:32:36Z</time></trkpt><trkpt lat="38.11181101725228" lon="15.842308952992628"><ele>1411.4</ele><time>2026-04-25T11:32:37Z</time></trkpt><trkpt lat="38.11186428057955" lon="15.842387497692874"><ele>1411.0</ele><time>2026-04-25T11:32:38Z</time></trkpt><trkpt lat="38.11194983092253" lon="15.842444489795502"><ele>1411.0</ele><time>2026-04-25T11:32:39Z</time></trkpt><trkpt lat="38.11206058226328" lon="15.842488612911115"><ele>1411.0</ele><time>2026-04-25T11:32:40Z</time></trkpt><trkpt lat="38.11216483340277" lon="15.842524971901463"><ele>1411.0</ele><time>2026-04-25T11:32:41Z</time></trkpt><trkpt lat="38.11227225436553" lon="15.84256142292574"><ele>1411.0</ele><time>2026-04-25T11:32:42Z</time></trkpt><trkpt lat="38.11238546544815" lon="15.842582928115853"><ele>1414.25</ele><time>2026-04-25T11:32:43Z</time></trkpt><trkpt lat="38.11248649752494" lon="15.842603419583071"><ele>1417.5</ele><time>2026-04-25T11:32:44Z</time></trkpt><trkpt lat="38.112619671014784" lon="15.842633262360259"><ele>1420.75</ele><time>2026-04-25T11:32:45Z</time></trkpt><trkpt lat="38.112741461914645" lon="15.842666794563787"><ele>1424.0</ele><time>2026-04-25T11:32:46Z</time></trkpt><trkpt lat="38.112840284340805" lon="15.842679850791738"><ele>1424.0</ele><time>2026-04-25T11:32:47Z</time></trkpt><trkpt lat="38.11294481889102" lon="15.842682504296647"><ele>1424.0</ele><time>2026-04-25T11:32:48Z</time></trkpt><trkpt lat="38.11304502603763" lon="15.842648253579693"><ele>1424.0</ele><time>2026-04-25T11:32:49Z</time></trkpt><trkpt lat="38.11315618600485" lon="15.842641669520388"><ele>1424.0</ele><time>2026-04-25T11:32:50Z</time></trkpt><trkpt lat="38.113261521086926" lon="15.842650589547723"><ele>1424.0</ele><time>2026-04-25T11:32:51Z</time></trkpt><trkpt lat="38.113371639816926" lon="15.842685162701253"><ele>1422.4</ele><time>2026-04-25T11:32:52Z</time></trkpt><trkpt lat="38.11348682026335" lon="15.842749994292037"><ele>1420.8000000000002</ele><time>2026-04-25T11:32:53Z</time></trkpt><trkpt lat="38.11358526445159" lon="15.842836566086941"><ele>1419.1999999999998</ele><time>2026-04-25T11:32:54Z</time></trkpt><trkpt lat="38.113658416849255" lon="15.842911298323724"><ele>1417.6</ele><time>2026-04-25T11:32:55Z</time></trkpt><trkpt lat="38.11374308666028" lon="15.842921883740672"><ele>1416.0</ele><time>2026-04-25T11:32:56Z</time></trkpt><trkpt lat="38.11383255195475" lon="15.842880639411954"><ele>1416.0</ele><time>2026-04-25T11:32:57Z</time></trkpt><trkpt lat="38.113929442856325" lon="15.842806412129054"><ele>1416.0</ele><time>2026-04-25T11:32:58Z</time></trkpt><trkpt lat="38.1140198635785" lon="15.842730635969646"><ele>1416.0</ele><time>2026-04-25T11:32:59Z</time></trkpt><trkpt lat="38.114100689663175" lon="15.842722533391797"><ele>1416.0</ele><time>2026-04-25T11:33:00Z</time></trkpt><trkpt lat="38.11418465522329" lon="15.842797328789501"><ele>1416.0</ele><time>2026-04-25T11:33:01Z</time></trkpt><trkpt lat="38.114247573333714" lon="15.842892344133235"><ele>1412.6</ele><time>2026-04-25T11:33:02Z</time></trkpt><trkpt lat="38.11430464489601" lon="15.84302613607885"><ele>1409.1999999999998</ele><time>2026-04-25T11:33:03Z</time></trkpt><trkpt lat="38.114375110749805" lon="15.843184104599333"><ele>1405.8000000000002</ele><time>2026-04-25T11:33:04Z</time></trkpt><trkpt lat="38.114443315496835" lon="15.843294755401763"><ele>1402.4</ele><time>2026-04-25T11:33:05Z</time></trkpt><trkpt lat="38.114503977630555" lon="15.843349766650276"><ele>1399.0</ele><time>2026-04-25T11:33:06Z</time></trkpt><trkpt lat="38.114625360862036" lon="15.843385645407823"><ele>1399.0</ele><time>2026-04-25T11:33:08Z</time></trkpt><trkpt lat="38.1147059908666" lon="15.84339135514307"><ele>1399.0</ele><time>2026-04-25T11:33:09Z</time></trkpt><trkpt lat="38.114802558284545" lon="15.843362691458895"><ele>1399.0</ele><time>2026-04-25T11:33:10Z</time></trkpt><trkpt lat="38.11490104699897" lon="15.843299363363922"><ele>1399.0</ele><time>2026-04-25T11:33:11Z</time></trkpt><trkpt lat="38.115004354117026" lon="15.843228121459827"><ele>1399.0</ele><time>2026-04-25T11:33:12Z</time></trkpt><trkpt lat="38.11509820491282" lon="15.843143293046507"><ele>1396.2</ele><time>2026-04-25T11:33:13Z</time></trkpt><trkpt lat="38.11516503398108" lon="15.843057106072"><ele>1393.4</ele><time>2026-04-25T11:33:14Z</time></trkpt><trkpt lat="38.115238881449386" lon="15.842964481714214"><ele>1390.6</ele><time>2026-04-25T11:33:15Z</time></trkpt><trkpt lat="38.115308700876824" lon="15.842901565672985"><ele>1387.8</ele><time>2026-04-25T11:33:16Z</time></trkpt><trkpt lat="38.11539285266063" lon="15.84286236110761"><ele>1385.0</ele><time>2026-04-25T11:33:16.999Z</time></trkpt><trkpt lat="38.11547353422967" lon="15.842848995908051"><ele>1385.0</ele><time>2026-04-25T11:33:17.999Z</time></trkpt><trkpt lat="38.11555352814647" lon="15.84282544019305"><ele>1385.0</ele><time>2026-04-25T11:33:18.999Z</time></trkpt><trkpt lat="38.11562928211903" lon="15.842833724309461"><ele>1385.0</ele><time>2026-04-25T11:33:19.999Z</time></trkpt><trkpt lat="38.115700258305445" lon="15.842884994339636"><ele>1385.0</ele><time>2026-04-25T11:33:20.999Z</time></trkpt><trkpt lat="38.115760582538584" lon="15.842955643202409"><ele>1385.0</ele><time>2026-04-25T11:33:21.999Z</time></trkpt><trkpt lat="38.11581195764025" lon="15.843020182834541"><ele>1385.0</ele><time>2026-04-25T11:33:22.999Z</time></trkpt><trkpt lat="38.11587118352715" lon="15.843075109687955"><ele>1386.8</ele><time>2026-04-25T11:33:23.999Z</time></trkpt><trkpt lat="38.11593616605384" lon="15.843117420372243"><ele>1388.6</ele><time>2026-04-25T11:33:24.999Z</time></trkpt><trkpt lat="38.116014321979144" lon="15.843146218692976"><ele>1390.4</ele><time>2026-04-25T11:33:25.999Z</time></trkpt><trkpt lat="38.116105572658334" lon="15.843164018071958"><ele>1392.2</ele><time>2026-04-25T11:33:26.999Z</time></trkpt><trkpt lat="38.11620628904578" lon="15.84317513557989"><ele>1394.0</ele><time>2026-04-25T11:33:27.999Z</time></trkpt><trkpt lat="38.116312089209956" lon="15.843172114423396"><ele>1394.0</ele><time>2026-04-25T11:33:28.999Z</time></trkpt><trkpt lat="38.11641652016348" lon="15.843143711580323"><ele>1394.0</ele><time>2026-04-25T11:33:29.999Z</time></trkpt><trkpt lat="38.11652057778764" lon="15.84310234389224"><ele>1394.0</ele><time>2026-04-25T11:33:30.999Z</time></trkpt><trkpt lat="38.11661684744857" lon="15.843056047330007"><ele>1394.0</ele><time>2026-04-25T11:33:31.999Z</time></trkpt><trkpt lat="38.11670088755495" lon="15.843015846349262"><ele>1394.0</ele><time>2026-04-25T11:33:32.999Z</time></trkpt><trkpt lat="38.11677949331429" lon="15.843021627733103"><ele>1388.0</ele><time>2026-04-25T11:33:33.999Z</time></trkpt><trkpt lat="38.11690483083269" lon="15.843193496114251"><ele>1382.0</ele><time>2026-04-25T11:33:34.999Z</time></trkpt><trkpt lat="38.117030476463015" lon="15.843249054667824"><ele>1376.0</ele><time>2026-04-25T11:33:35.999Z</time></trkpt><trkpt lat="38.117157737094146" lon="15.843298527799831"><ele>1376.0</ele><time>2026-04-25T11:33:36.999Z</time></trkpt><trkpt lat="38.117269543948105" lon="15.843361967519698"><ele>1376.0</ele><time>2026-04-25T11:33:37.999Z</time></trkpt><trkpt lat="38.11736396360853" lon="15.84343053291057"><ele>1376.0</ele><time>2026-04-25T11:33:38.999Z</time></trkpt><trkpt lat="38.11745057296287" lon="15.843464544252123"><ele>1376.0</ele><time>2026-04-25T11:33:39.999Z</time></trkpt><trkpt lat="38.11751657986094" lon="15.843497937583729"><ele>1376.0</ele><time>2026-04-25T11:33:40.999Z</time></trkpt><trkpt lat="38.11762326063353" lon="15.843460280784868"><ele>1375.1999999999998</ele><time>2026-04-25T11:33:42.999Z</time></trkpt><trkpt lat="38.11771211115076" lon="15.843339298586839"><ele>1374.3999999999999</ele><time>2026-04-25T11:33:44.999Z</time></trkpt><trkpt lat="38.11773071723893" lon="15.84321746757091"><ele>1373.6</ele><time>2026-04-25T11:33:45.999Z</time></trkpt><trkpt lat="38.117724149947264" lon="15.843095948440352"><ele>1372.8</ele><time>2026-04-25T11:33:46.999Z</time></trkpt><trkpt lat="38.11769848581029" lon="15.842965050594467"><ele>1372.0</ele><time>2026-04-25T11:33:47.999Z</time></trkpt><trkpt lat="38.117653382380276" lon="15.842832771208718"><ele>1372.0</ele><time>2026-04-25T11:33:48.999Z</time></trkpt><trkpt lat="38.11758250682514" lon="15.842717394517466"><ele>1372.0</ele><time>2026-04-25T11:33:49.999Z</time></trkpt><trkpt lat="38.1174821919697" lon="15.842627503695272"><ele>1372.0</ele><time>2026-04-25T11:33:50.999Z</time></trkpt><trkpt lat="38.11738242290786" lon="15.842547739207422"><ele>1372.0</ele><time>2026-04-25T11:33:51.999Z</time></trkpt><trkpt lat="38.11731233504581" lon="15.84245521119773"><ele>1368.5</ele><time>2026-04-25T11:33:52.999Z</time></trkpt><trkpt lat="38.11726630584995" lon="15.842348049553278"><ele>1365.0</ele><time>2026-04-25T11:33:53.999Z</time></trkpt><trkpt lat="38.117235611396374" lon="15.84218712626354"><ele>1361.5</ele><time>2026-04-25T11:33:54.999Z</time></trkpt><trkpt lat="38.11715824305779" lon="15.841988771522853"><ele>1358.0</ele><time>2026-04-25T11:33:55.999Z</time></trkpt><trkpt lat="38.11709574052488" lon="15.841854184486786"><ele>1363.75</ele><time>2026-04-25T11:33:56.999Z</time></trkpt><trkpt lat="38.117003516408715" lon="15.841737680407677"><ele>1369.5</ele><time>2026-04-25T11:33:57.999Z</time></trkpt><trkpt lat="38.116895157082745" lon="15.841655870979931"><ele>1375.25</ele><time>2026-04-25T11:33:58.999Z</time></trkpt><trkpt lat="38.116785765657404" lon="15.841629436160552"><ele>1381.0</ele><time>2026-04-25T11:33:59.999Z</time></trkpt><trkpt lat="38.116657198776394" lon="15.841629425641784"><ele>1374.75</ele><time>2026-04-25T11:34:00.999Z</time></trkpt><trkpt lat="38.11652357627917" lon="15.841598467049993"><ele>1368.5</ele><time>2026-04-25T11:34:01.999Z</time></trkpt><trkpt lat="38.11639632140266" lon="15.841561173216748"><ele>1362.25</ele><time>2026-04-25T11:34:02.999Z</time></trkpt><trkpt lat="38.11629964935688" lon="15.841511624545086"><ele>1356.0</ele><time>2026-04-25T11:34:03.999Z</time></trkpt><trkpt lat="38.11619768649177" lon="15.841446832528392"><ele>1356.0</ele><time>2026-04-25T11:34:04.999Z</time></trkpt><trkpt lat="38.11610271617409" lon="15.841375139042466"><ele>1356.0</ele><time>2026-04-25T11:34:05.999Z</time></trkpt><trkpt lat="38.116003535638896" lon="15.84128539564707"><ele>1356.0</ele><time>2026-04-25T11:34:06.999Z</time></trkpt><trkpt lat="38.11590295554646" lon="15.8411948333372"><ele>1356.0</ele><time>2026-04-25T11:34:07.999Z</time></trkpt><trkpt lat="38.1158289112799" lon="15.841110969031478"><ele>1356.0</ele><time>2026-04-25T11:34:08.999Z</time></trkpt><trkpt lat="38.11578250412462" lon="15.840999186477513"><ele>1356.0</ele><time>2026-04-25T11:34:09.999Z</time></trkpt><trkpt lat="38.115737599473974" lon="15.840840932099905"><ele>1356.0</ele><time>2026-04-25T11:34:10.999Z</time></trkpt><trkpt lat="38.11568519610351" lon="15.84067816695257"><ele>1356.0</ele><time>2026-04-25T11:34:11.999Z</time></trkpt><trkpt lat="38.1156058483663" lon="15.840523735964297"><ele>1351.6666666666667</ele><time>2026-04-25T11:34:12.999Z</time></trkpt><trkpt lat="38.11550366700598" lon="15.840377639720757"><ele>1347.3333333333335</ele><time>2026-04-25T11:34:13.999Z</time></trkpt><trkpt lat="38.11538424090456" lon="15.840224562956434"><ele>1343.0</ele><time>2026-04-25T11:34:14.999Z</time></trkpt><trkpt lat="38.11526882150569" lon="15.840056355218923"><ele>1349.75</ele><time>2026-04-25T11:34:15.999Z</time></trkpt><trkpt lat="38.11516879555449" lon="15.839888912982252"><ele>1356.5</ele><time>2026-04-25T11:34:16.999Z</time></trkpt><trkpt lat="38.115084732831384" lon="15.839747635758282"><ele>1363.25</ele><time>2026-04-25T11:34:17.999Z</time></trkpt><trkpt lat="38.115022558264336" lon="15.83961938045725"><ele>1370.0</ele><time>2026-04-25T11:34:18.999Z</time></trkpt><trkpt lat="38.11499441451473" lon="15.839494548056924"><ele>1370.0</ele><time>2026-04-25T11:34:19.999Z</time></trkpt><trkpt lat="38.114987795114175" lon="15.839377583643309"><ele>1370.0</ele><time>2026-04-25T11:34:20.999Z</time></trkpt><trkpt lat="38.11500477953934" lon="15.839241420161068"><ele>1370.0</ele><time>2026-04-25T11:34:21.999Z</time></trkpt><trkpt lat="38.11504256353777" lon="15.839099909034525"><ele>1370.0</ele><time>2026-04-25T11:34:22.999Z</time></trkpt><trkpt lat="38.11508959143877" lon="15.838977848609419"><ele>1370.0</ele><time>2026-04-25T11:34:23.999Z</time></trkpt><trkpt lat="38.11518239736341" lon="15.838882666289628"><ele>1370.0</ele><time>2026-04-25T11:34:24.999Z</time></trkpt><trkpt lat="38.115284724210824" lon="15.838802504684637"><ele>1370.0</ele><time>2026-04-25T11:34:25.999Z</time></trkpt><trkpt lat="38.11541296352356" lon="15.838691790382576"><ele>1370.0</ele><time>2026-04-25T11:34:26.999Z</time></trkpt><trkpt lat="38.115531726979334" lon="15.838563794116064"><ele>1370.0</ele><time>2026-04-25T11:34:27.999Z</time></trkpt><trkpt lat="38.115634570933366" lon="15.838418904135425"><ele>1370.0</ele><time>2026-04-25T11:34:28.999Z</time></trkpt><trkpt lat="38.11572207187262" lon="15.838239659487465"><ele>1370.0</ele><time>2026-04-25T11:34:29.999Z</time></trkpt><trkpt lat="38.11578446902575" lon="15.83806124220524"><ele>1370.0</ele><time>2026-04-25T11:34:30.999Z</time></trkpt><trkpt lat="38.115849108596365" lon="15.837911593001902"><ele>1375.6</ele><time>2026-04-25T11:34:31.999Z</time></trkpt><trkpt lat="38.11591567628796" lon="15.837829739404159"><ele>1381.2</ele><time>2026-04-25T11:34:32.999Z</time></trkpt><trkpt lat="38.1160122614175" lon="15.837754767291207"><ele>1386.8000000000002</ele><time>2026-04-25T11:34:33.999Z</time></trkpt><trkpt lat="38.1161161413177" lon="15.837718585672919"><ele>1392.4</ele><time>2026-04-25T11:34:34.999Z</time></trkpt><trkpt lat="38.11623610713051" lon="15.837711614136865"><ele>1398.0</ele><time>2026-04-25T11:34:35.999Z</time></trkpt><trkpt lat="38.11635612290156" lon="15.837736825912883"><ele>1398.0</ele><time>2026-04-25T11:34:37Z</time></trkpt><trkpt lat="38.116481213872554" lon="15.837765038563685"><ele>1398.0</ele><time>2026-04-25T11:34:38Z</time></trkpt><trkpt lat="38.116598893239306" lon="15.8377846325351"><ele>1398.0</ele><time>2026-04-25T11:34:39Z</time></trkpt><trkpt lat="38.11669528715058" lon="15.837782392466908"><ele>1398.0</ele><time>2026-04-25T11:34:40Z</time></trkpt><trkpt lat="38.1167963898359" lon="15.83775303883738"><ele>1398.0</ele><time>2026-04-25T11:34:41Z</time></trkpt><trkpt lat="38.11689447433793" lon="15.837674726005257"><ele>1393.75</ele><time>2026-04-25T11:34:42Z</time></trkpt><trkpt lat="38.11698772124164" lon="15.837581633890544"><ele>1389.5</ele><time>2026-04-25T11:34:43Z</time></trkpt><trkpt lat="38.11707693063582" lon="15.837467309688073"><ele>1385.25</ele><time>2026-04-25T11:34:44Z</time></trkpt><trkpt lat="38.11715186014425" lon="15.837332152787926"><ele>1381.0</ele><time>2026-04-25T11:34:45Z</time></trkpt><trkpt lat="38.11719903862463" lon="15.837185896728245"><ele>1381.0</ele><time>2026-04-25T11:34:46Z</time></trkpt><trkpt lat="38.11722796832201" lon="15.837031393276426"><ele>1381.0</ele><time>2026-04-25T11:34:47Z</time></trkpt><trkpt lat="38.11725101199489" lon="15.836895645434854"><ele>1381.0</ele><time>2026-04-25T11:34:48Z</time></trkpt><trkpt lat="38.11729527026062" lon="15.836787816049513"><ele>1381.0</ele><time>2026-04-25T11:34:49Z</time></trkpt><trkpt lat="38.11737927020602" lon="15.83669260597282"><ele>1381.0</ele><time>2026-04-25T11:34:50Z</time></trkpt><trkpt lat="38.11749018869074" lon="15.836599373199833"><ele>1381.5</ele><time>2026-04-25T11:34:51Z</time></trkpt><trkpt lat="38.1176110844981" lon="15.83651465513774"><ele>1382.0</ele><time>2026-04-25T11:34:52Z</time></trkpt><trkpt lat="38.117737517236414" lon="15.836424539181293"><ele>1382.5</ele><time>2026-04-25T11:34:53Z</time></trkpt><trkpt lat="38.11787096886761" lon="15.836338574383316"><ele>1383.0</ele><time>2026-04-25T11:34:54Z</time></trkpt><trkpt lat="38.11800920328731" lon="15.836255229472137"><ele>1383.0</ele><time>2026-04-25T11:34:55Z</time></trkpt><trkpt lat="38.118150184800385" lon="15.836169531759868"><ele>1383.0</ele><time>2026-04-25T11:34:56Z</time></trkpt><trkpt lat="38.11829500797252" lon="15.836090499942006"><ele>1383.0</ele><time>2026-04-25T11:34:57Z</time></trkpt><trkpt lat="38.118438689079916" lon="15.836015097019484"><ele>1381.75</ele><time>2026-04-25T11:34:58Z</time></trkpt><trkpt lat="38.118557907054246" lon="15.835939261199576"><ele>1380.5</ele><time>2026-04-25T11:34:59Z</time></trkpt><trkpt lat="38.11865424261065" lon="15.835841618087118"><ele>1379.25</ele><time>2026-04-25T11:35:00Z</time></trkpt><trkpt lat="38.118730263148954" lon="15.83570360473162"><ele>1378.0</ele><time>2026-04-25T11:35:01Z</time></trkpt><trkpt lat="38.118800755349" lon="15.835540411951815"><ele>1378.0</ele><time>2026-04-25T11:35:02Z</time></trkpt><trkpt lat="38.11886464305599" lon="15.835354475524582"><ele>1378.0</ele><time>2026-04-25T11:35:03Z</time></trkpt><trkpt lat="38.118918226647" lon="15.835196731913019"><ele>1378.0</ele><time>2026-04-25T11:35:04Z</time></trkpt><trkpt lat="38.118991220509166" lon="15.835076984135528"><ele>1378.0</ele><time>2026-04-25T11:35:05Z</time></trkpt><trkpt lat="38.11909544712501" lon="15.835000804940218"><ele>1379.0</ele><time>2026-04-25T11:35:06Z</time></trkpt><trkpt lat="38.11922015948297" lon="15.83496456651794"><ele>1380.0</ele><time>2026-04-25T11:35:07Z</time></trkpt><trkpt lat="38.11935678988852" lon="15.834947018803456"><ele>1381.0</ele><time>2026-04-25T11:35:08Z</time></trkpt><trkpt lat="38.11947944252269" lon="15.834942962964446"><ele>1382.0</ele><time>2026-04-25T11:35:09Z</time></trkpt><trkpt lat="38.119566839746675" lon="15.83495285503767"><ele>1382.0</ele><time>2026-04-25T11:35:10Z</time></trkpt><trkpt lat="38.11963225142441" lon="15.834993950692162"><ele>1382.0</ele><time>2026-04-25T11:35:11Z</time></trkpt><trkpt lat="38.11966448497642" lon="15.835078765684345"><ele>1382.0</ele><time>2026-04-25T11:35:12Z</time></trkpt><trkpt lat="38.1196587894162" lon="15.83519092331447"><ele>1382.0</ele><time>2026-04-25T11:35:13Z</time></trkpt><trkpt lat="38.11962371424887" lon="15.835325273678027"><ele>1382.0</ele><time>2026-04-25T11:35:13.999Z</time></trkpt><trkpt lat="38.119579806246826" lon="15.835486481308173"><ele>1386.6</ele><time>2026-04-25T11:35:14.999Z</time></trkpt><trkpt lat="38.119593979951325" lon="15.835637986472953"><ele>1391.1999999999998</ele><time>2026-04-25T11:35:15.999Z</time></trkpt><trkpt lat="38.119650495982995" lon="15.835733527366164"><ele>1395.8</ele><time>2026-04-25T11:35:16.999Z</time></trkpt><trkpt lat="38.119735337497495" lon="15.835811303848107"><ele>1400.4</ele><time>2026-04-25T11:35:17.999Z</time></trkpt><trkpt lat="38.11981128911845" lon="15.835905710084342"><ele>1405.0</ele><time>2026-04-25T11:35:18.999Z</time></trkpt><trkpt lat="38.11991887523498" lon="15.835970870611018"><ele>1405.25</ele><time>2026-04-25T11:35:19.999Z</time></trkpt><trkpt lat="38.12001723640462" lon="15.83598664272545"><ele>1405.5</ele><time>2026-04-25T11:35:20.999Z</time></trkpt><trkpt lat="38.12012148701053" lon="15.835965690101682"><ele>1405.75</ele><time>2026-04-25T11:35:21.999Z</time></trkpt><trkpt lat="38.120233716132084" lon="15.835929673194592"><ele>1406.0</ele><time>2026-04-25T11:35:22.999Z</time></trkpt><trkpt lat="38.12037437379977" lon="15.835924616530205"><ele>1414.0</ele><time>2026-04-25T11:35:23.999Z</time></trkpt><trkpt lat="38.12054326182056" lon="15.835971161902842"><ele>1422.0</ele><time>2026-04-25T11:35:24.999Z</time></trkpt><trkpt lat="38.120680305324264" lon="15.836016418807512"><ele>1430.0</ele><time>2026-04-25T11:35:25.999Z</time></trkpt><trkpt lat="38.12078074610101" lon="15.836024632042353"><ele>1438.0</ele><time>2026-04-25T11:35:26.999Z</time></trkpt><trkpt lat="38.12087005523738" lon="15.836001038746423"><ele>1431.8000000000002</ele><time>2026-04-25T11:35:27.999Z</time></trkpt><trkpt lat="38.12095048470998" lon="15.83593288186934"><ele>1425.6</ele><time>2026-04-25T11:35:28.999Z</time></trkpt><trkpt lat="38.12101149838871" lon="15.835822528229384"><ele>1419.4</ele><time>2026-04-25T11:35:29.999Z</time></trkpt><trkpt lat="38.12104132036696" lon="15.835686467881839"><ele>1413.1999999999998</ele><time>2026-04-25T11:35:30.999Z</time></trkpt><trkpt lat="38.121039998059516" lon="15.835537066441049"><ele>1407.0</ele><time>2026-04-25T11:35:31.999Z</time></trkpt><trkpt lat="38.1210440588766" lon="15.835366274259435"><ele>1407.0</ele><time>2026-04-25T11:35:32.999Z</time></trkpt><trkpt lat="38.12106913562399" lon="15.835197546609727"><ele>1407.0</ele><time>2026-04-25T11:35:33.999Z</time></trkpt><trkpt lat="38.12110633928157" lon="15.835035838981506"><ele>1407.0</ele><time>2026-04-25T11:35:34.999Z</time></trkpt><trkpt lat="38.121159854572895" lon="15.834890107149223"><ele>1407.0</ele><time>2026-04-25T11:35:35.999Z</time></trkpt><trkpt lat="38.121224535099294" lon="15.834752187939053"><ele>1403.25</ele><time>2026-04-25T11:35:36.999Z</time></trkpt><trkpt lat="38.12131224300375" lon="15.834619779380933"><ele>1399.5</ele><time>2026-04-25T11:35:37.999Z</time></trkpt><trkpt lat="38.12136750327916" lon="15.834479374767339"><ele>1395.75</ele><time>2026-04-25T11:35:38.999Z</time></trkpt><trkpt lat="38.12139790582682" lon="15.834310442465226"><ele>1392.0</ele><time>2026-04-25T11:35:39.999Z</time></trkpt><trkpt lat="38.12140702568254" lon="15.834139003593464"><ele>1389.0</ele><time>2026-04-25T11:35:40.999Z</time></trkpt><trkpt lat="38.121404853913695" lon="15.83396598642672"><ele>1386.0</ele><time>2026-04-25T11:35:41.999Z</time></trkpt><trkpt lat="38.121416953895206" lon="15.833758328933698"><ele>1383.0</ele><time>2026-04-25T11:35:42.999Z</time></trkpt><trkpt lat="38.12137342938782" lon="15.833574265604415"><ele>1386.0</ele><time>2026-04-25T11:35:43.999Z</time></trkpt><trkpt lat="38.12132956568622" lon="15.833404413867777"><ele>1389.0</ele><time>2026-04-25T11:35:44.999Z</time></trkpt><trkpt lat="38.12131251649727" lon="15.833260444533657"><ele>1392.0</ele><time>2026-04-25T11:35:45.999Z</time></trkpt><trkpt lat="38.12133000669984" lon="15.833156499689144"><ele>1395.0</ele><time>2026-04-25T11:35:46.999Z</time></trkpt><trkpt lat="38.12136665341586" lon="15.833073790638531"><ele>1398.0</ele><time>2026-04-25T11:35:47.999Z</time></trkpt><trkpt lat="38.12149907586693" lon="15.832995574379959"><ele>1403.0</ele><time>2026-04-25T11:35:49.999Z</time></trkpt><trkpt lat="38.12159912969843" lon="15.832982242754737"><ele>1408.0</ele><time>2026-04-25T11:35:50.999Z</time></trkpt><trkpt lat="38.12169863890462" lon="15.832994197840575"><ele>1413.0</ele><time>2026-04-25T11:35:51.999Z</time></trkpt><trkpt lat="38.12181425314554" lon="15.833022166378566"><ele>1418.0</ele><time>2026-04-25T11:35:52.999Z</time></trkpt><trkpt lat="38.12195352311247" lon="15.833044860339815"><ele>1418.0</ele><time>2026-04-25T11:35:53.999Z</time></trkpt><trkpt lat="38.12211086910373" lon="15.833071485362371"><ele>1418.0</ele><time>2026-04-25T11:35:54.999Z</time></trkpt><trkpt lat="38.12225491103217" lon="15.833092370622722"><ele>1418.0</ele><time>2026-04-25T11:35:55.999Z</time></trkpt><trkpt lat="38.1223737888658" lon="15.83311614927291"><ele>1418.0</ele><time>2026-04-25T11:35:56.999Z</time></trkpt><trkpt lat="38.12248609470317" lon="15.833156709089266"><ele>1417.5</ele><time>2026-04-25T11:35:57.999Z</time></trkpt><trkpt lat="38.122574116447204" lon="15.833237009779511"><ele>1417.0</ele><time>2026-04-25T11:35:58.999Z</time></trkpt><trkpt lat="38.12265100397558" lon="15.833341353565356"><ele>1416.5</ele><time>2026-04-25T11:35:59.999Z</time></trkpt><trkpt lat="38.12271001936514" lon="15.833491958860458"><ele>1416.0</ele><time>2026-04-25T11:36:00.999Z</time></trkpt><trkpt lat="38.1227623787104" lon="15.83364110099228"><ele>1419.4</ele><time>2026-04-25T11:36:01.999Z</time></trkpt><trkpt lat="38.122804023073826" lon="15.833782594160699"><ele>1422.8</ele><time>2026-04-25T11:36:02.999Z</time></trkpt><trkpt lat="38.122832089907504" lon="15.833905149908642"><ele>1426.2</ele><time>2026-04-25T11:36:03.999Z</time></trkpt><trkpt lat="38.12287305372297" lon="15.833993241739488"><ele>1429.6000000000001</ele><time>2026-04-25T11:36:04.999Z</time></trkpt><trkpt lat="38.122962844914035" lon="15.834035322202402"><ele>1433.0</ele><time>2026-04-25T11:36:05.999Z</time></trkpt><trkpt lat="38.12304670495204" lon="15.834087470856145"><ele>1433.0</ele><time>2026-04-25T11:36:06.999Z</time></trkpt><trkpt lat="38.1231540731709" lon="15.834102121526119"><ele>1433.0</ele><time>2026-04-25T11:36:07.999Z</time></trkpt><trkpt lat="38.1232760669723" lon="15.834066988517852"><ele>1433.0</ele><time>2026-04-25T11:36:08.999Z</time></trkpt><trkpt lat="38.123390420468795" lon="15.8340358490952"><ele>1433.0</ele><time>2026-04-25T11:36:09.999Z</time></trkpt><trkpt lat="38.123480941998785" lon="15.834038053192753"><ele>1433.0</ele><time>2026-04-25T11:36:10.999Z</time></trkpt><trkpt lat="38.123570808515055" lon="15.834093253995198"><ele>1433.25</ele><time>2026-04-25T11:36:11.999Z</time></trkpt><trkpt lat="38.12366421482213" lon="15.834187784934445"><ele>1433.5</ele><time>2026-04-25T11:36:12.999Z</time></trkpt><trkpt lat="38.123760878917494" lon="15.834341168414953"><ele>1433.75</ele><time>2026-04-25T11:36:13.999Z</time></trkpt><trkpt lat="38.12387375874756" lon="15.83451043996866"><ele>1434.0</ele><time>2026-04-25T11:36:14.999Z</time></trkpt><trkpt lat="38.12397084281669" lon="15.834688995630584"><ele>1429.2</ele><time>2026-04-25T11:36:15.999Z</time></trkpt><trkpt lat="38.12406486510714" lon="15.834806638434584"><ele>1424.4</ele><time>2026-04-25T11:36:16.999Z</time></trkpt><trkpt lat="38.1241461308492" lon="15.83489855115958"><ele>1419.6</ele><time>2026-04-25T11:36:17.999Z</time></trkpt><trkpt lat="38.124213647897875" lon="15.834941619554572"><ele>1414.8</ele><time>2026-04-25T11:36:18.999Z</time></trkpt><trkpt lat="38.12433183111725" lon="15.834927736870348"><ele>1410.0</ele><time>2026-04-25T11:36:20.999Z</time></trkpt><trkpt lat="38.12439161052326" lon="15.83485663351725"><ele>1410.0</ele><time>2026-04-25T11:36:21.999Z</time></trkpt><trkpt lat="38.124462227378" lon="15.834746171969648"><ele>1410.0</ele><time>2026-04-25T11:36:22.999Z</time></trkpt><trkpt lat="38.12452841827142" lon="15.83458796941369"><ele>1410.0</ele><time>2026-04-25T11:36:23.999Z</time></trkpt><trkpt lat="38.12458957480211" lon="15.834407033110617"><ele>1410.0</ele><time>2026-04-25T11:36:24.999Z</time></trkpt><trkpt lat="38.12464066873695" lon="15.834259612344166"><ele>1407.2</ele><time>2026-04-25T11:36:25.999Z</time></trkpt><trkpt lat="38.12470602696403" lon="15.834161753240295"><ele>1404.4</ele><time>2026-04-25T11:36:26.999Z</time></trkpt><trkpt lat="38.124792481528125" lon="15.834100885686974"><ele>1401.6</ele><time>2026-04-25T11:36:27.999Z</time></trkpt><trkpt lat="38.12488245178826" lon="15.834074180229843"><ele>1398.8</ele><time>2026-04-25T11:36:28.999Z</time></trkpt><trkpt lat="38.124991792445286" lon="15.834069930651149"><ele>1396.0</ele><time>2026-04-25T11:36:29.999Z</time></trkpt><trkpt lat="38.12510322571258" lon="15.834095788841951"><ele>1396.0</ele><time>2026-04-25T11:36:30.999Z</time></trkpt><trkpt lat="38.12522207050239" lon="15.83414048342513"><ele>1396.0</ele><time>2026-04-25T11:36:31.999Z</time></trkpt><trkpt lat="38.125348302483445" lon="15.834187582645121"><ele>1396.0</ele><time>2026-04-25T11:36:32.999Z</time></trkpt><trkpt lat="38.125481523706995" lon="15.834227446522904"><ele>1396.0</ele><time>2026-04-25T11:36:33.999Z</time></trkpt><trkpt lat="38.12560473553096" lon="15.834265082956314"><ele>1398.0</ele><time>2026-04-25T11:36:34.999Z</time></trkpt><trkpt lat="38.12571416794704" lon="15.834306124527718"><ele>1400.0</ele><time>2026-04-25T11:36:35.999Z</time></trkpt><trkpt lat="38.12580440865078" lon="15.834383997057703"><ele>1402.0</ele><time>2026-04-25T11:36:36.999Z</time></trkpt><trkpt lat="38.12588409106014" lon="15.834473993547206"><ele>1404.0</ele><time>2026-04-25T11:36:37.999Z</time></trkpt><trkpt lat="38.125938913272606" lon="15.834585978834049"><ele>1406.0</ele><time>2026-04-25T11:36:38.999Z</time></trkpt><trkpt lat="38.12596939518499" lon="15.834708597075325"><ele>1406.0</ele><time>2026-04-25T11:36:39.999Z</time></trkpt><trkpt lat="38.1259877945753" lon="15.83483670375868"><ele>1406.0</ele><time>2026-04-25T11:36:40.999Z</time></trkpt><trkpt lat="38.12602607311555" lon="15.834959862775193"><ele>1406.0</ele><time>2026-04-25T11:36:41.998Z</time></trkpt><trkpt lat="38.126085900671555" lon="15.835067270164373"><ele>1406.0</ele><time>2026-04-25T11:36:43Z</time></trkpt><trkpt lat="38.12616987667021" lon="15.835147731855908"><ele>1406.0</ele><time>2026-04-25T11:36:44Z</time></trkpt><trkpt lat="38.126263596599884" lon="15.835204251983637"><ele>1406.0</ele><time>2026-04-25T11:36:45Z</time></trkpt><trkpt lat="38.126353287648364" lon="15.835266727244559"><ele>1406.0</ele><time>2026-04-25T11:36:46Z</time></trkpt><trkpt lat="38.12644551440539" lon="15.83533604695916"><ele>1406.0</ele><time>2026-04-25T11:36:47Z</time></trkpt><trkpt lat="38.1265348044265" lon="15.835406201759886"><ele>1406.0</ele><time>2026-04-25T11:36:48Z</time></trkpt><trkpt lat="38.126632949164666" lon="15.83547116803052"><ele>1406.0</ele><time>2026-04-25T11:36:49Z</time></trkpt><trkpt lat="38.12673174216237" lon="15.835536673579911"><ele>1406.0</ele><time>2026-04-25T11:36:50Z</time></trkpt><trkpt lat="38.126825837654984" lon="15.835609489942874"><ele>1406.0</ele><time>2026-04-25T11:36:51Z</time></trkpt><trkpt lat="38.126917720242204" lon="15.835697968529287"><ele>1406.0</ele><time>2026-04-25T11:36:52Z</time></trkpt><trkpt lat="38.12701174539097" lon="15.83578272702426"><ele>1406.0</ele><time>2026-04-25T11:36:53Z</time></trkpt><trkpt lat="38.12711562250001" lon="15.835852862258152"><ele>1406.0</ele><time>2026-04-25T11:36:54Z</time></trkpt><trkpt lat="38.12723081313265" lon="15.835901036059385"><ele>1406.0</ele><time>2026-04-25T11:36:55Z</time></trkpt><trkpt lat="38.127342699373266" lon="15.835949550812385"><ele>1406.0</ele><time>2026-04-25T11:36:56Z</time></trkpt><trkpt lat="38.12744387617266" lon="15.836005434494902"><ele>1406.0</ele><time>2026-04-25T11:36:57Z</time></trkpt><trkpt lat="38.12753473074945" lon="15.836057088365848"><ele>1406.0</ele><time>2026-04-25T11:36:58Z</time></trkpt><trkpt lat="38.12762722101721" lon="15.836089267652643"><ele>1406.1999999999998</ele><time>2026-04-25T11:36:59Z</time></trkpt><trkpt lat="38.12772755420228" lon="15.836081264997723"><ele>1406.3999999999999</ele><time>2026-04-25T11:37:00Z</time></trkpt><trkpt lat="38.127826591372326" lon="15.83603627355207"><ele>1406.6</ele><time>2026-04-25T11:37:01Z</time></trkpt><trkpt lat="38.12792083033328" lon="15.835968211006467"><ele>1406.8</ele><time>2026-04-25T11:37:02Z</time></trkpt><trkpt lat="38.12799657624484" lon="15.835883175091292"><ele>1407.0</ele><time>2026-04-25T11:37:03Z</time></trkpt><trkpt lat="38.12808084287519" lon="15.83584549059346"><ele>1403.1999999999998</ele><time>2026-04-25T11:37:04Z</time></trkpt><trkpt lat="38.12817416432448" lon="15.835855874621089"><ele>1399.4</ele><time>2026-04-25T11:37:05Z</time></trkpt><trkpt lat="38.128263161795864" lon="15.835922370890342"><ele>1395.6</ele><time>2026-04-25T11:37:06Z</time></trkpt><trkpt lat="38.128340554741456" lon="15.836004732717246"><ele>1391.8000000000002</ele><time>2026-04-25T11:37:07Z</time></trkpt><trkpt lat="38.12840586556297" lon="15.836091902286427"><ele>1388.0</ele><time>2026-04-25T11:37:08Z</time></trkpt><trkpt lat="38.12847635540773" lon="15.836174641840488"><ele>1388.0</ele><time>2026-04-25T11:37:09Z</time></trkpt><trkpt lat="38.12854444010143" lon="15.836267538097642"><ele>1388.0</ele><time>2026-04-25T11:37:10Z</time></trkpt><trkpt lat="38.128618619496606" lon="15.836357377714751"><ele>1388.0</ele><time>2026-04-25T11:37:11Z</time></trkpt><trkpt lat="38.1286740832756" lon="15.836465523180424"><ele>1388.0</ele><time>2026-04-25T11:37:12Z</time></trkpt><trkpt lat="38.12870777496806" lon="15.836587547317386"><ele>1388.0</ele><time>2026-04-25T11:37:13Z</time></trkpt><trkpt lat="38.12872952234189" lon="15.836708143326467"><ele>1391.6000000000001</ele><time>2026-04-25T11:37:14Z</time></trkpt><trkpt lat="38.12873600164557" lon="15.836828051575301"><ele>1395.2</ele><time>2026-04-25T11:37:14.999Z</time></trkpt><trkpt lat="38.128750298252164" lon="15.836948702753174"><ele>1398.8</ele><time>2026-04-25T11:37:15.999Z</time></trkpt><trkpt lat="38.12877790972383" lon="15.83706417497715"><ele>1402.4</ele><time>2026-04-25T11:37:16.999Z</time></trkpt><trkpt lat="38.12881727238807" lon="15.837174326027117"><ele>1406.0</ele><time>2026-04-25T11:37:17.999Z</time></trkpt><trkpt lat="38.12887064461638" lon="15.837275380066846"><ele>1406.0</ele><time>2026-04-25T11:37:18.999Z</time></trkpt><trkpt lat="38.12892852890274" lon="15.837367035463712"><ele>1406.0</ele><time>2026-04-25T11:37:19.999Z</time></trkpt><trkpt lat="38.129002234726485" lon="15.837445877009763"><ele>1406.0</ele><time>2026-04-25T11:37:20.999Z</time></trkpt><trkpt lat="38.12907947692211" lon="15.83750348285637"><ele>1406.0</ele><time>2026-04-25T11:37:21.999Z</time></trkpt><trkpt lat="38.1291706728858" lon="15.837518879457209"><ele>1406.0</ele><time>2026-04-25T11:37:22.999Z</time></trkpt><trkpt lat="38.1292595094628" lon="15.837530132785215"><ele>1401.3333333333335</ele><time>2026-04-25T11:37:23.999Z</time></trkpt><trkpt lat="38.12933961140056" lon="15.837500358242137"><ele>1396.6666666666667</ele><time>2026-04-25T11:37:24.999Z</time></trkpt><trkpt lat="38.129413303700424" lon="15.837448710264502"><ele>1392.0</ele><time>2026-04-25T11:37:25.999Z</time></trkpt><trkpt lat="38.129462702643316" lon="15.837366634585175"><ele>1387.3333333333333</ele><time>2026-04-25T11:37:26.999Z</time></trkpt><trkpt lat="38.129499455275145" lon="15.837300425741473"><ele>1382.6666666666665</ele><time>2026-04-25T11:37:27.999Z</time></trkpt><trkpt lat="38.12953554694421" lon="15.837231602819262"><ele>1378.0</ele><time>2026-04-25T11:37:28.999Z</time></trkpt><trkpt lat="38.129587384217125" lon="15.837164610079816"><ele>1378.0</ele><time>2026-04-25T11:37:29.999Z</time></trkpt><trkpt lat="38.12964021362243" lon="15.837093462528717"><ele>1378.0</ele><time>2026-04-25T11:37:30.999Z</time></trkpt><trkpt lat="38.129696479032695" lon="15.83700334200788"><ele>1378.0</ele><time>2026-04-25T11:37:31.999Z</time></trkpt><trkpt lat="38.12976563732092" lon="15.836921795629632"><ele>1378.0</ele><time>2026-04-25T11:37:32.999Z</time></trkpt><trkpt lat="38.12981133354936" lon="15.836817708220616"><ele>1378.0</ele><time>2026-04-25T11:37:33.999Z</time></trkpt><trkpt lat="38.12986621654102" lon="15.836723210076277"><ele>1378.0</ele><time>2026-04-25T11:37:34.999Z</time></trkpt><trkpt lat="38.129924061568715" lon="15.836632772261066"><ele>1377.6000000000001</ele><time>2026-04-25T11:37:35.999Z</time></trkpt><trkpt lat="38.12999513193648" lon="15.836546174165742"><ele>1377.2</ele><time>2026-04-25T11:37:36.999Z</time></trkpt><trkpt lat="38.13005728055978" lon="15.83644466076075"><ele>1376.8</ele><time>2026-04-25T11:37:37.999Z</time></trkpt><trkpt lat="38.130115633065884" lon="15.836342109710387"><ele>1376.4</ele><time>2026-04-25T11:37:38.999Z</time></trkpt><trkpt lat="38.130172711173294" lon="15.836219211668022"><ele>1376.0</ele><time>2026-04-25T11:37:39.999Z</time></trkpt><trkpt lat="38.130238691674975" lon="15.836092660401025"><ele>1374.0</ele><time>2026-04-25T11:37:40.999Z</time></trkpt><trkpt lat="38.1303077819924" lon="15.835962295241334"><ele>1372.0</ele><time>2026-04-25T11:37:41.999Z</time></trkpt><trkpt lat="38.130379017657724" lon="15.835846263793991"><ele>1370.0</ele><time>2026-04-25T11:37:42.999Z</time></trkpt><trkpt lat="38.13043018039145" lon="15.835735518532308"><ele>1368.0</ele><time>2026-04-25T11:37:43.999Z</time></trkpt><trkpt lat="38.130492186531455" lon="15.835641744834245"><ele>1366.0</ele><time>2026-04-25T11:37:44.999Z</time></trkpt><trkpt lat="38.130562962925104" lon="15.835578590444964"><ele>1366.0</ele><time>2026-04-25T11:37:45.999Z</time></trkpt><trkpt lat="38.130638480065215" lon="15.835539956028596"><ele>1366.0</ele><time>2026-04-25T11:37:46.999Z</time></trkpt><trkpt lat="38.130717996656095" lon="15.835523030654445"><ele>1366.0</ele><time>2026-04-25T11:37:47.999Z</time></trkpt><trkpt lat="38.13080012509543" lon="15.835541474957761"><ele>1366.0</ele><time>2026-04-25T11:37:48.999Z</time></trkpt><trkpt lat="38.13087996478682" lon="15.835581879960431"><ele>1366.0</ele><time>2026-04-25T11:37:49.999Z</time></trkpt><trkpt lat="38.130961825979746" lon="15.835646397193605"><ele>1366.0</ele><time>2026-04-25T11:37:50.999Z</time></trkpt><trkpt lat="38.131032382480804" lon="15.835722712439283"><ele>1368.8</ele><time>2026-04-25T11:37:51.999Z</time></trkpt><trkpt lat="38.13112170950433" lon="15.83580890567193"><ele>1371.6</ele><time>2026-04-25T11:37:52.999Z</time></trkpt><trkpt lat="38.13119560075786" lon="15.83591653156064"><ele>1374.4</ele><time>2026-04-25T11:37:53.999Z</time></trkpt><trkpt lat="38.13128643715574" lon="15.83601209729113"><ele>1377.2</ele><time>2026-04-25T11:37:54.999Z</time></trkpt><trkpt lat="38.131350671118646" lon="15.836049758602488"><ele>1380.0</ele><time>2026-04-25T11:37:55.999Z</time></trkpt><trkpt lat="38.131417966567234" lon="15.83607956081853"><ele>1380.3333333333333</ele><time>2026-04-25T11:37:56.999Z</time></trkpt><trkpt lat="38.13148189920904" lon="15.836105277979984"><ele>1380.6666666666667</ele><time>2026-04-25T11:37:57.999Z</time></trkpt><trkpt lat="38.13154243114689" lon="15.836082053498181"><ele>1381.0</ele><time>2026-04-25T11:37:58.999Z</time></trkpt><trkpt lat="38.131614066693174" lon="15.836005722844302"><ele>1381.3333333333335</ele><time>2026-04-25T11:37:59.999Z</time></trkpt><trkpt lat="38.13170326486193" lon="15.83591269383757"><ele>1381.6666666666667</ele><time>2026-04-25T11:38:00.999Z</time></trkpt><trkpt lat="38.13172646329424" lon="15.835834586310805"><ele>1382.0</ele><time>2026-04-25T11:38:01.999Z</time></trkpt><trkpt lat="38.13176095542989" lon="15.83571675523911"><ele>1382.0</ele><time>2026-04-25T11:38:02.999Z</time></trkpt><trkpt lat="38.13181976414016" lon="15.835587726227113"><ele>1382.0</ele><time>2026-04-25T11:38:03.999Z</time></trkpt><trkpt lat="38.1318852897996" lon="15.835502441482667"><ele>1382.0</ele><time>2026-04-25T11:38:04.999Z</time></trkpt><trkpt lat="38.13196385200846" lon="15.835451181288343"><ele>1382.0</ele><time>2026-04-25T11:38:05.999Z</time></trkpt><trkpt lat="38.13205667948138" lon="15.83543511183691"><ele>1382.0</ele><time>2026-04-25T11:38:06.999Z</time></trkpt><trkpt lat="38.13217039742885" lon="15.835452915130016"><ele>1382.0</ele><time>2026-04-25T11:38:07.999Z</time></trkpt><trkpt lat="38.13230045023503" lon="15.835490610919061"><ele>1382.0</ele><time>2026-04-25T11:38:08.999Z</time></trkpt><trkpt lat="38.132433889425094" lon="15.835506123992134"><ele>1382.0</ele><time>2026-04-25T11:38:09.999Z</time></trkpt><trkpt lat="38.13256312409203" lon="15.83551000592568"><ele>1382.0</ele><time>2026-04-25T11:38:10.999Z</time></trkpt><trkpt lat="38.13267167274029" lon="15.835528625109871"><ele>1382.6</ele><time>2026-04-25T11:38:11.999Z</time></trkpt><trkpt lat="38.13276770797087" lon="15.835580851131532"><ele>1383.1999999999998</ele><time>2026-04-25T11:38:12.999Z</time></trkpt><trkpt lat="38.13283429043845" lon="15.835675121635633"><ele>1383.8</ele><time>2026-04-25T11:38:13.999Z</time></trkpt><trkpt lat="38.13287682246644" lon="15.835795984533817"><ele>1384.4</ele><time>2026-04-25T11:38:14.999Z</time></trkpt><trkpt lat="38.13290478898762" lon="15.835947412065345"><ele>1385.0</ele><time>2026-04-25T11:38:15.999Z</time></trkpt><trkpt lat="38.13292652182485" lon="15.836128749621789"><ele>1389.5</ele><time>2026-04-25T11:38:16.999Z</time></trkpt><trkpt lat="38.132959535027595" lon="15.836291133343483"><ele>1394.0</ele><time>2026-04-25T11:38:17.999Z</time></trkpt><trkpt lat="38.13301871198333" lon="15.83643238973341"><ele>1398.5</ele><time>2026-04-25T11:38:18.999Z</time></trkpt><trkpt lat="38.13308045166687" lon="15.836549329626514"><ele>1403.0</ele><time>2026-04-25T11:38:19.999Z</time></trkpt><trkpt lat="38.133135941029245" lon="15.836672795795796"><ele>1403.0</ele><time>2026-04-25T11:38:20.999Z</time></trkpt><trkpt lat="38.13317668105037" lon="15.836785197663826"><ele>1403.0</ele><time>2026-04-25T11:38:21.999Z</time></trkpt><trkpt lat="38.133204063509005" lon="15.83691989855066"><ele>1403.0</ele><time>2026-04-25T11:38:22.999Z</time></trkpt><trkpt lat="38.133212991115826" lon="15.837063499774338"><ele>1403.0</ele><time>2026-04-25T11:38:23.999Z</time></trkpt><trkpt lat="38.1332173157016" lon="15.837204159832886"><ele>1403.0</ele><time>2026-04-25T11:38:24.999Z</time></trkpt><trkpt lat="38.13321880016426" lon="15.837330978595835"><ele>1399.0</ele><time>2026-04-25T11:38:25.999Z</time></trkpt><trkpt lat="38.13323483994308" lon="15.837431049789139"><ele>1395.0</ele><time>2026-04-25T11:38:26.999Z</time></trkpt><trkpt lat="38.133271037646715" lon="15.837519380955161"><ele>1391.0</ele><time>2026-04-25T11:38:27.999Z</time></trkpt><trkpt lat="38.13333166662795" lon="15.837586439915038"><ele>1387.0</ele><time>2026-04-25T11:38:28.999Z</time></trkpt><trkpt lat="38.13343291866778" lon="15.837619826360688"><ele>1383.0</ele><time>2026-04-25T11:38:29.999Z</time></trkpt><trkpt lat="38.13354680353055" lon="15.837607644937618"><ele>1383.0</ele><time>2026-04-25T11:38:30.999Z</time></trkpt><trkpt lat="38.13363416485725" lon="15.837531033361326"><ele>1383.0</ele><time>2026-04-25T11:38:31.999Z</time></trkpt><trkpt lat="38.133691117847484" lon="15.837430030291136"><ele>1383.0</ele><time>2026-04-25T11:38:32.999Z</time></trkpt><trkpt lat="38.133750445380784" lon="15.837295306647913"><ele>1383.0</ele><time>2026-04-25T11:38:33.999Z</time></trkpt><trkpt lat="38.1337928341408" lon="15.837171062747581"><ele>1383.0</ele><time>2026-04-25T11:38:34.999Z</time></trkpt><trkpt lat="38.13384402678558" lon="15.837033483303546"><ele>1383.0</ele><time>2026-04-25T11:38:35.999Z</time></trkpt><trkpt lat="38.1338872755025" lon="15.836889290512493"><ele>1383.0</ele><time>2026-04-25T11:38:36.999Z</time></trkpt><trkpt lat="38.13392561724979" lon="15.836770916157684"><ele>1383.0</ele><time>2026-04-25T11:38:37.999Z</time></trkpt><trkpt lat="38.13397373458949" lon="15.836641642742991"><ele>1383.0</ele><time>2026-04-25T11:38:38.999Z</time></trkpt><trkpt lat="38.13403153103961" lon="15.836519942513744"><ele>1383.0</ele><time>2026-04-25T11:38:39.999Z</time></trkpt><trkpt lat="38.13410390525037" lon="15.836398527170912"><ele>1382.5</ele><time>2026-04-25T11:38:40.999Z</time></trkpt><trkpt lat="38.134185062098915" lon="15.836297936684083"><ele>1382.0</ele><time>2026-04-25T11:38:41.999Z</time></trkpt><trkpt lat="38.13427258375816" lon="15.836206612455477"><ele>1381.5</ele><time>2026-04-25T11:38:42.999Z</time></trkpt><trkpt lat="38.13435787737693" lon="15.836108580334107"><ele>1381.0</ele><time>2026-04-25T11:38:43.999Z</time></trkpt><trkpt lat="38.134460384450016" lon="15.836039496809056"><ele>1381.0</ele><time>2026-04-25T11:38:44.998Z</time></trkpt><trkpt lat="38.13455651203838" lon="15.835972716289687"><ele>1381.0</ele><time>2026-04-25T11:38:45.998Z</time></trkpt><trkpt lat="38.134668284962046" lon="15.835929337111521"><ele>1381.0</ele><time>2026-04-25T11:38:46.998Z</time></trkpt><trkpt lat="38.13477756722437" lon="15.835903456454664"><ele>1381.0</ele><time>2026-04-25T11:38:47.998Z</time></trkpt><trkpt lat="38.13489748951762" lon="15.8358992253713"><ele>1378.25</ele><time>2026-04-25T11:38:49Z</time></trkpt><trkpt lat="38.13502290116179" lon="15.835929263875018"><ele>1375.5</ele><time>2026-04-25T11:38:50Z</time></trkpt><trkpt lat="38.13515322039628" lon="15.835963174083528"><ele>1372.75</ele><time>2026-04-25T11:38:51Z</time></trkpt><trkpt lat="38.13528003138638" lon="15.835988991985959"><ele>1370.0</ele><time>2026-04-25T11:38:52Z</time></trkpt><trkpt lat="38.135403668509305" lon="15.836023465663526"><ele>1373.25</ele><time>2026-04-25T11:38:53Z</time></trkpt><trkpt lat="38.135524610355475" lon="15.836069189352168"><ele>1376.5</ele><time>2026-04-25T11:38:54Z</time></trkpt><trkpt lat="38.1356425561212" lon="15.83614088952299"><ele>1379.75</ele><time>2026-04-25T11:38:55Z</time></trkpt><trkpt lat="38.135748457780444" lon="15.836248683915931"><ele>1383.0</ele><time>2026-04-25T11:38:56Z</time></trkpt><trkpt lat="38.13584198039036" lon="15.836384610671082"><ele>1383.0</ele><time>2026-04-25T11:38:57Z</time></trkpt><trkpt lat="38.13592011054581" lon="15.836516559941302"><ele>1383.0</ele><time>2026-04-25T11:38:58Z</time></trkpt><trkpt lat="38.13599482530671" lon="15.83661394406655"><ele>1383.0</ele><time>2026-04-25T11:38:59Z</time></trkpt><trkpt lat="38.136077958035074" lon="15.836698344571378"><ele>1383.0</ele><time>2026-04-25T11:39:00Z</time></trkpt><trkpt lat="38.13616910957658" lon="15.836751910509841"><ele>1383.0</ele><time>2026-04-25T11:39:01Z</time></trkpt><trkpt lat="38.13627038673286" lon="15.836787896208683"><ele>1383.0</ele><time>2026-04-25T11:39:02Z</time></trkpt><trkpt lat="38.1363757072447" lon="15.836769938362064"><ele>1383.0</ele><time>2026-04-25T11:39:03Z</time></trkpt><trkpt lat="38.136470473030016" lon="15.836709908403034"><ele>1383.0</ele><time>2026-04-25T11:39:04Z</time></trkpt><trkpt lat="38.13652940056424" lon="15.83662023964666"><ele>1383.0</ele><time>2026-04-25T11:39:05Z</time></trkpt><trkpt lat="38.136544482141666" lon="15.836510774064237"><ele>1383.0</ele><time>2026-04-25T11:39:06Z</time></trkpt><trkpt lat="38.13652646395173" lon="15.836384789695614"><ele>1383.0</ele><time>2026-04-25T11:39:06.999Z</time></trkpt><trkpt lat="38.13647378320274" lon="15.836234190611053"><ele>1383.0</ele><time>2026-04-25T11:39:07.999Z</time></trkpt><trkpt lat="38.136429005127155" lon="15.836051201265748"><ele>1383.0</ele><time>2026-04-25T11:39:08.999Z</time></trkpt><trkpt lat="38.13642152809271" lon="15.835865112870811"><ele>1383.0</ele><time>2026-04-25T11:39:09.999Z</time></trkpt><trkpt lat="38.13642201882057" lon="15.835737686406004"><ele>1382.3333333333333</ele><time>2026-04-25T11:39:10.999Z</time></trkpt><trkpt lat="38.1364265975428" lon="15.835612080728358"><ele>1381.6666666666667</ele><time>2026-04-25T11:39:11.999Z</time></trkpt><trkpt lat="38.136442389839694" lon="15.835501362692753"><ele>1381.0</ele><time>2026-04-25T11:39:12.999Z</time></trkpt><trkpt lat="38.13646623369401" lon="15.83540445569916"><ele>1380.3333333333335</ele><time>2026-04-25T11:39:13.999Z</time></trkpt><trkpt lat="38.13650771746785" lon="15.83531951543398"><ele>1379.6666666666667</ele><time>2026-04-25T11:39:14.999Z</time></trkpt><trkpt lat="38.136565602907254" lon="15.835252061930936"><ele>1379.0</ele><time>2026-04-25T11:39:15.999Z</time></trkpt><trkpt lat="38.136640874181374" lon="15.835199452323543"><ele>1379.0</ele><time>2026-04-25T11:39:16.999Z</time></trkpt><trkpt lat="38.13672549743618" lon="15.83516355062588"><ele>1379.0</ele><time>2026-04-25T11:39:17.999Z</time></trkpt><trkpt lat="38.136803489204226" lon="15.835156471697468"><ele>1379.0</ele><time>2026-04-25T11:39:18.999Z</time></trkpt><trkpt lat="38.13687012523448" lon="15.835168560280149"><ele>1379.0</ele><time>2026-04-25T11:39:19.999Z</time></trkpt><trkpt lat="38.13693464061905" lon="15.835201759455268"><ele>1379.0</ele><time>2026-04-25T11:39:20.999Z</time></trkpt><trkpt lat="38.137007715320316" lon="15.835241215819632"><ele>1379.0</ele><time>2026-04-25T11:39:21.999Z</time></trkpt><trkpt lat="38.137096369307116" lon="15.835303797194761"><ele>1379.0</ele><time>2026-04-25T11:39:22.999Z</time></trkpt><trkpt lat="38.13718987001197" lon="15.835371845541491"><ele>1379.0</ele><time>2026-04-25T11:39:23.999Z</time></trkpt><trkpt lat="38.13729367647897" lon="15.835445051212588"><ele>1379.0</ele><time>2026-04-25T11:39:24.999Z</time></trkpt><trkpt lat="38.13738629510136" lon="15.835506923968165"><ele>1379.0</ele><time>2026-04-25T11:39:25.999Z</time></trkpt><trkpt lat="38.13750811977469" lon="15.835572195000497"><ele>1382.25</ele><time>2026-04-25T11:39:26.999Z</time></trkpt><trkpt lat="38.13763789396571" lon="15.835615090640887"><ele>1385.5</ele><time>2026-04-25T11:39:27.999Z</time></trkpt><trkpt lat="38.137778223095694" lon="15.835651883615585"><ele>1388.75</ele><time>2026-04-25T11:39:28.999Z</time></trkpt><trkpt lat="38.13790999733372" lon="15.835695916918217"><ele>1392.0</ele><time>2026-04-25T11:39:29.999Z</time></trkpt><trkpt lat="38.13803135264815" lon="15.835713189642703"><ele>1392.0</ele><time>2026-04-25T11:39:30.999Z</time></trkpt><trkpt lat="38.13814281689228" lon="15.835724944514885"><ele>1392.0</ele><time>2026-04-25T11:39:31.999Z</time></trkpt><trkpt lat="38.138231749082124" lon="15.83571743363555"><ele>1392.0</ele><time>2026-04-25T11:39:32.999Z</time></trkpt><trkpt lat="38.13831274322822" lon="15.83567544253871"><ele>1392.0</ele><time>2026-04-25T11:39:33.999Z</time></trkpt><trkpt lat="38.138367855776146" lon="15.835590762629225"><ele>1392.0</ele><time>2026-04-25T11:39:34.999Z</time></trkpt><trkpt lat="38.13838152978356" lon="15.835474586345438"><ele>1391.5</ele><time>2026-04-25T11:39:35.999Z</time></trkpt><trkpt lat="38.13836864723193" lon="15.835341676498876"><ele>1391.0</ele><time>2026-04-25T11:39:36.999Z</time></trkpt><trkpt lat="38.13833714392645" lon="15.835185713094413"><ele>1390.5</ele><time>2026-04-25T11:39:37.999Z</time></trkpt><trkpt lat="38.13830217923429" lon="15.83499778771663"><ele>1390.0</ele><time>2026-04-25T11:39:38.999Z</time></trkpt><trkpt lat="38.13827229104914" lon="15.834844640040169"><ele>1387.5</ele><time>2026-04-25T11:39:39.999Z</time></trkpt><trkpt lat="38.13826261143999" lon="15.834704288569565"><ele>1385.0</ele><time>2026-04-25T11:39:40.999Z</time></trkpt><trkpt lat="38.138260547395134" lon="15.834539088315315"><ele>1382.5</ele><time>2026-04-25T11:39:41.999Z</time></trkpt><trkpt lat="38.138280372819224" lon="15.83436670189469"><ele>1380.0</ele><time>2026-04-25T11:39:42.999Z</time></trkpt><trkpt lat="38.138315360994454" lon="15.834241224019582"><ele>1378.2</ele><time>2026-04-25T11:39:43.999Z</time></trkpt><trkpt lat="38.13837536410272" lon="15.834138712892774"><ele>1376.4</ele><time>2026-04-25T11:39:44.999Z</time></trkpt><trkpt lat="38.13846119546384" lon="15.834065679582773"><ele>1374.6</ele><time>2026-04-25T11:39:45.999Z</time></trkpt><trkpt lat="38.13855172983288" lon="15.834033607049284"><ele>1372.8</ele><time>2026-04-25T11:39:46.999Z</time></trkpt><trkpt lat="38.1386529518688" lon="15.834044080242942"><ele>1371.0</ele><time>2026-04-25T11:39:47.999Z</time></trkpt><trkpt lat="38.13878107557901" lon="15.834086483492786"><ele>1371.0</ele><time>2026-04-25T11:39:48.999Z</time></trkpt><trkpt lat="38.1389228273725" lon="15.834139450512097"><ele>1371.0</ele><time>2026-04-25T11:39:49.999Z</time></trkpt><trkpt lat="38.13904378608407" lon="15.834161468393228"><ele>1371.0</ele><time>2026-04-25T11:39:50.999Z</time></trkpt><trkpt lat="38.13916174265925" lon="15.834136773342088"><ele>1371.0</ele><time>2026-04-25T11:39:51.999Z</time></trkpt><trkpt lat="38.13928614749149" lon="15.834062005213642"><ele>1372.0</ele><time>2026-04-25T11:39:52.999Z</time></trkpt><trkpt lat="38.13941312535658" lon="15.833954441769393"><ele>1373.0</ele><time>2026-04-25T11:39:53.999Z</time></trkpt><trkpt lat="38.139527766024486" lon="15.833865464784166"><ele>1374.0</ele><time>2026-04-25T11:39:54.999Z</time></trkpt><trkpt lat="38.13962972346479" lon="15.83382658443489"><ele>1375.0</ele><time>2026-04-25T11:39:55.999Z</time></trkpt><trkpt lat="38.1397350131152" lon="15.833830318688111"><ele>1375.0</ele><time>2026-04-25T11:39:56.999Z</time></trkpt><trkpt lat="38.13985613717138" lon="15.833881975976295"><ele>1375.0</ele><time>2026-04-25T11:39:57.999Z</time></trkpt><trkpt lat="38.14000743167137" lon="15.833953101773044"><ele>1375.0</ele><time>2026-04-25T11:39:58.999Z</time></trkpt><trkpt lat="38.14012665036628" lon="15.834051058155824"><ele>1375.0</ele><time>2026-04-25T11:39:59.999Z</time></trkpt><trkpt lat="38.14022561217373" lon="15.834161253835477"><ele>1374.5</ele><time>2026-04-25T11:40:00.999Z</time></trkpt><trkpt lat="38.14030635166487" lon="15.834291075113066"><ele>1374.0</ele><time>2026-04-25T11:40:01.999Z</time></trkpt><trkpt lat="38.14036398769881" lon="15.83442780447037"><ele>1373.5</ele><time>2026-04-25T11:40:02.999Z</time></trkpt><trkpt lat="38.140417751936596" lon="15.834548571648044"><ele>1373.0</ele><time>2026-04-25T11:40:03.999Z</time></trkpt><trkpt lat="38.14048327465366" lon="15.834630491039656"><ele>1373.4</ele><time>2026-04-25T11:40:04.999Z</time></trkpt><trkpt lat="38.14056539506782" lon="15.834670036241983"><ele>1373.8000000000002</ele><time>2026-04-25T11:40:05.999Z</time></trkpt><trkpt lat="38.14066900100073" lon="15.834658759764196"><ele>1374.2</ele><time>2026-04-25T11:40:06.999Z</time></trkpt><trkpt lat="38.140771719675186" lon="15.834604622977507"><ele>1374.6</ele><time>2026-04-25T11:40:07.999Z</time></trkpt><trkpt lat="38.140878970431515" lon="15.83451025779349"><ele>1375.0</ele><time>2026-04-25T11:40:08.999Z</time></trkpt><trkpt lat="38.14101001822603" lon="15.83441277889346"><ele>1375.0</ele><time>2026-04-25T11:40:09.999Z</time></trkpt><trkpt lat="38.14114425762701" lon="15.834342913269069"><ele>1375.0</ele><time>2026-04-25T11:40:10.999Z</time></trkpt><trkpt lat="38.14127798303786" lon="15.834292403801744"><ele>1375.0</ele><time>2026-04-25T11:40:11.999Z</time></trkpt><trkpt lat="38.14141769361289" lon="15.834276102079102"><ele>1375.0</ele><time>2026-04-25T11:40:12.999Z</time></trkpt><trkpt lat="38.14156240903091" lon="15.834278581913672"><ele>1374.25</ele><time>2026-04-25T11:40:13.999Z</time></trkpt><trkpt lat="38.14170708784325" lon="15.834285114285349"><ele>1373.5</ele><time>2026-04-25T11:40:14.999Z</time></trkpt><trkpt lat="38.14184292599296" lon="15.834286960485048"><ele>1372.75</ele><time>2026-04-25T11:40:15.999Z</time></trkpt><trkpt lat="38.14196393338952" lon="15.834289717864234"><ele>1372.0</ele><time>2026-04-25T11:40:16.999Z</time></trkpt><trkpt lat="38.142076616400104" lon="15.834309481158524"><ele>1372.0</ele><time>2026-04-25T11:40:17.999Z</time></trkpt><trkpt lat="38.14218028936871" lon="15.834342096944182"><ele>1372.0</ele><time>2026-04-25T11:40:18.999Z</time></trkpt><trkpt lat="38.14227719786999" lon="15.834400070444017"><ele>1372.0</ele><time>2026-04-25T11:40:19.999Z</time></trkpt><trkpt lat="38.142366210849296" lon="15.834480845776062"><ele>1372.0</ele><time>2026-04-25T11:40:20.999Z</time></trkpt><trkpt lat="38.14244222899158" lon="15.834595827115706"><ele>1372.0</ele><time>2026-04-25T11:40:21.999Z</time></trkpt><trkpt lat="38.14250473212139" lon="15.83473922657288"><ele>1369.8</ele><time>2026-04-25T11:40:22.999Z</time></trkpt><trkpt lat="38.14256030117689" lon="15.834866498212758"><ele>1367.6</ele><time>2026-04-25T11:40:23.999Z</time></trkpt><trkpt lat="38.14262567123527" lon="15.83493244896289"><ele>1365.3999999999999</ele><time>2026-04-25T11:40:24.999Z</time></trkpt><trkpt lat="38.142710244855884" lon="15.834957427899836"><ele>1363.1999999999998</ele><time>2026-04-25T11:40:25.999Z</time></trkpt><trkpt lat="38.14282275589813" lon="15.834941841326392"><ele>1361.0</ele><time>2026-04-25T11:40:26.999Z</time></trkpt><trkpt lat="38.14296341361031" lon="15.834882370885849"><ele>1361.0</ele><time>2026-04-25T11:40:27.999Z</time></trkpt><trkpt lat="38.14311321421248" lon="15.8348353539308"><ele>1361.0</ele><time>2026-04-25T11:40:28.999Z</time></trkpt><trkpt lat="38.14325847094277" lon="15.834820459035079"><ele>1361.0</ele><time>2026-04-25T11:40:29.999Z</time></trkpt><trkpt lat="38.14339610280952" lon="15.834845570477677"><ele>1361.0</ele><time>2026-04-25T11:40:30.999Z</time></trkpt><trkpt lat="38.14353322890696" lon="15.834881251329373"><ele>1361.5</ele><time>2026-04-25T11:40:31.999Z</time></trkpt><trkpt lat="38.1436577744264" lon="15.834930657387515"><ele>1362.0</ele><time>2026-04-25T11:40:32.999Z</time></trkpt><trkpt lat="38.14380033559739" lon="15.83500623173221"><ele>1362.5</ele><time>2026-04-25T11:40:33.999Z</time></trkpt><trkpt lat="38.14394609038002" lon="15.835074928274139"><ele>1363.0</ele><time>2026-04-25T11:40:34.999Z</time></trkpt><trkpt lat="38.14409177257174" lon="15.835148401311974"><ele>1365.0</ele><time>2026-04-25T11:40:35.999Z</time></trkpt><trkpt lat="38.14423116497745" lon="15.835199437489436"><ele>1367.0</ele><time>2026-04-25T11:40:36.999Z</time></trkpt><trkpt lat="38.14436943444021" lon="15.835245897866095"><ele>1369.0</ele><time>2026-04-25T11:40:37.999Z</time></trkpt><trkpt lat="38.14449004193648" lon="15.835286913489572"><ele>1371.0</ele><time>2026-04-25T11:40:38.998Z</time></trkpt><trkpt lat="38.14460595001452" lon="15.835339974748491"><ele>1371.0</ele><time>2026-04-25T11:40:39.998Z</time></trkpt><trkpt lat="38.144709549941744" lon="15.835422362675711"><ele>1371.0</ele><time>2026-04-25T11:40:40.998Z</time></trkpt><trkpt lat="38.14481510198945" lon="15.835531529601528"><ele>1371.0</ele><time>2026-04-25T11:40:41.998Z</time></trkpt><trkpt lat="38.14489977266417" lon="15.835649085532257"><ele>1371.0</ele><time>2026-04-25T11:40:42.998Z</time></trkpt><trkpt lat="38.144978585755105" lon="15.835738498247258"><ele>1366.8</ele><time>2026-04-25T11:40:43.998Z</time></trkpt><trkpt lat="38.14506519345037" lon="15.835797201422206"><ele>1362.6</ele><time>2026-04-25T11:40:44.998Z</time></trkpt><trkpt lat="38.14516132055688" lon="15.835811904422656"><ele>1358.4</ele><time>2026-04-25T11:40:45.998Z</time></trkpt><trkpt lat="38.145248700189775" lon="15.835792498501041"><ele>1354.2</ele><time>2026-04-25T11:40:46.998Z</time></trkpt><trkpt lat="38.14531841236455" lon="15.835731724695924"><ele>1350.0</ele><time>2026-04-25T11:40:47.998Z</time></trkpt><trkpt lat="38.14536618153938" lon="15.835636320971142"><ele>1350.0</ele><time>2026-04-25T11:40:48.998Z</time></trkpt><trkpt lat="38.145382727528606" lon="15.835513564436532"><ele>1350.0</ele><time>2026-04-25T11:40:49.998Z</time></trkpt><trkpt lat="38.14536566883088" lon="15.835388505564321"><ele>1350.0</ele><time>2026-04-25T11:40:50.998Z</time></trkpt><trkpt lat="38.14545728658138" lon="15.835259018179352"><ele>1350.0</ele><time>2026-04-25T11:40:51.998Z</time></trkpt><trkpt lat="38.145498929187916" lon="15.835066429775958"><ele>1350.6</ele><time>2026-04-25T11:40:52.998Z</time></trkpt><trkpt lat="38.145544302624415" lon="15.834905970517674"><ele>1351.2</ele><time>2026-04-25T11:40:53.998Z</time></trkpt><trkpt lat="38.14556923522136" lon="15.834740010155919"><ele>1351.8000000000002</ele><time>2026-04-25T11:40:55Z</time></trkpt><trkpt lat="38.145610422746934" lon="15.834655197252802"><ele>1352.4</ele><time>2026-04-25T11:40:56Z</time></trkpt><trkpt lat="38.14566156441833" lon="15.834595137233634"><ele>1353.0</ele><time>2026-04-25T11:40:57Z</time></trkpt><trkpt lat="38.14574904155568" lon="15.834543139135947"><ele>1353.0</ele><time>2026-04-25T11:40:58Z</time></trkpt><trkpt lat="38.14588880307518" lon="15.834546903692457"><ele>1353.0</ele><time>2026-04-25T11:40:59Z</time></trkpt><trkpt lat="38.146019325304565" lon="15.83451792003031"><ele>1353.0</ele><time>2026-04-25T11:41:00Z</time></trkpt><trkpt lat="38.146126632748896" lon="15.834429762643053"><ele>1353.0</ele><time>2026-04-25T11:41:01Z</time></trkpt><trkpt lat="38.146218794131535" lon="15.834289560007637"><ele>1354.25</ele><time>2026-04-25T11:41:02Z</time></trkpt><trkpt lat="38.146305078954896" lon="15.834150806126306"><ele>1355.5</ele><time>2026-04-25T11:41:03Z</time></trkpt><trkpt lat="38.14640458831501" lon="15.834080628178066"><ele>1356.75</ele><time>2026-04-25T11:41:04Z</time></trkpt><trkpt lat="38.146508109551334" lon="15.834021714914869"><ele>1358.0</ele><time>2026-04-25T11:41:05Z</time></trkpt><trkpt lat="38.14662102650906" lon="15.833939016072307"><ele>1358.0</ele><time>2026-04-25T11:41:06Z</time></trkpt><trkpt lat="38.146731527327184" lon="15.833796938350252"><ele>1358.0</ele><time>2026-04-25T11:41:07Z</time></trkpt><trkpt lat="38.14682915334742" lon="15.83366563182648"><ele>1358.0</ele><time>2026-04-25T11:41:08Z</time></trkpt><trkpt lat="38.14690862856766" lon="15.833529365894638"><ele>1358.0</ele><time>2026-04-25T11:41:09Z</time></trkpt><trkpt lat="38.14694695648557" lon="15.833409376230874"><ele>1352.5</ele><time>2026-04-25T11:41:10Z</time></trkpt><trkpt lat="38.14695773880208" lon="15.833308377407729"><ele>1347.0</ele><time>2026-04-25T11:41:11Z</time></trkpt><trkpt lat="38.14695258442827" lon="15.833152900900783"><ele>1341.5</ele><time>2026-04-25T11:41:12Z</time></trkpt><trkpt lat="38.14694744750034" lon="15.832974978478951"><ele>1336.0</ele><time>2026-04-25T11:41:13Z</time></trkpt><trkpt lat="38.146958145145504" lon="15.832792974679071"><ele>1336.0</ele><time>2026-04-25T11:41:14Z</time></trkpt><trkpt lat="38.146991478504745" lon="15.832644609725966"><ele>1336.0</ele><time>2026-04-25T11:41:15Z</time></trkpt><trkpt lat="38.147035069943094" lon="15.832525587434352"><ele>1336.0</ele><time>2026-04-25T11:41:15.999Z</time></trkpt><trkpt lat="38.14711699715658" lon="15.832440706092063"><ele>1336.0</ele><time>2026-04-25T11:41:16.999Z</time></trkpt><trkpt lat="38.14721883508999" lon="15.832342920076195"><ele>1333.0</ele><time>2026-04-25T11:41:17.999Z</time></trkpt><trkpt lat="38.14731766805159" lon="15.832234123724454"><ele>1330.0</ele><time>2026-04-25T11:41:18.999Z</time></trkpt><trkpt lat="38.14744740444273" lon="15.832129126638597"><ele>1327.0</ele><time>2026-04-25T11:41:19.999Z</time></trkpt><trkpt lat="38.14756441621704" lon="15.83203158696609"><ele>1324.0</ele><time>2026-04-25T11:41:20.999Z</time></trkpt><trkpt lat="38.14767129156132" lon="15.832016005566418"><ele>1330.2</ele><time>2026-04-25T11:41:21.999Z</time></trkpt><trkpt lat="38.147768019600655" lon="15.83201394129545"><ele>1336.4</ele><time>2026-04-25T11:41:22.999Z</time></trkpt><trkpt lat="38.147864465266174" lon="15.832038103036929"><ele>1342.6</ele><time>2026-04-25T11:41:23.999Z</time></trkpt><trkpt lat="38.14797410494552" lon="15.832068340251634"><ele>1348.8</ele><time>2026-04-25T11:41:24.999Z</time></trkpt><trkpt lat="38.148073269044644" lon="15.832068019135729"><ele>1355.0</ele><time>2026-04-25T11:41:25.999Z</time></trkpt><trkpt lat="38.148161709316526" lon="15.83204485258933"><ele>1356.0</ele><time>2026-04-25T11:41:26.999Z</time></trkpt><trkpt lat="38.14825201183767" lon="15.831988737478165"><ele>1357.0</ele><time>2026-04-25T11:41:27.999Z</time></trkpt><trkpt lat="38.14830986727808" lon="15.83191218771533"><ele>1358.0</ele><time>2026-04-25T11:41:28.999Z</time></trkpt><trkpt lat="38.14834693479411" lon="15.831814632531946"><ele>1359.0</ele><time>2026-04-25T11:41:29.999Z</time></trkpt><trkpt lat="38.148377368088966" lon="15.83171063088573"><ele>1360.0</ele><time>2026-04-25T11:41:30.999Z</time></trkpt><trkpt lat="38.14842985074663" lon="15.831605421736976"><ele>1357.8</ele><time>2026-04-25T11:41:31.999Z</time></trkpt><trkpt lat="38.148500306827344" lon="15.831512508718761"><ele>1355.6</ele><time>2026-04-25T11:41:32.999Z</time></trkpt><trkpt lat="38.148588003451316" lon="15.831426776779914"><ele>1353.4</ele><time>2026-04-25T11:41:33.999Z</time></trkpt><trkpt lat="38.14867500043067" lon="15.831369035576381"><ele>1351.2</ele><time>2026-04-25T11:41:34.999Z</time></trkpt><trkpt lat="38.14877311562182" lon="15.831344058080028"><ele>1349.0</ele><time>2026-04-25T11:41:35.999Z</time></trkpt><trkpt lat="38.14887914156256" lon="15.83134391328322"><ele>1349.0</ele><time>2026-04-25T11:41:36.999Z</time></trkpt><trkpt lat="38.14898800295539" lon="15.831354695204423"><ele>1349.0</ele><time>2026-04-25T11:41:37.999Z</time></trkpt><trkpt lat="38.149094908105916" lon="15.831370349675359"><ele>1349.0</ele><time>2026-04-25T11:41:38.999Z</time></trkpt><trkpt lat="38.14919314706194" lon="15.83143027626915"><ele>1349.0</ele><time>2026-04-25T11:41:39.999Z</time></trkpt><trkpt lat="38.14927080969497" lon="15.83152707329262"><ele>1349.0</ele><time>2026-04-25T11:41:40.999Z</time></trkpt><trkpt lat="38.14934077682331" lon="15.83164373502377"><ele>1349.8000000000002</ele><time>2026-04-25T11:41:41.999Z</time></trkpt><trkpt lat="38.149411345445216" lon="15.831752274401088"><ele>1350.6000000000001</ele><time>2026-04-25T11:41:42.999Z</time></trkpt><trkpt lat="38.14949773909387" lon="15.831844343257188"><ele>1351.4</ele><time>2026-04-25T11:41:43.999Z</time></trkpt><trkpt lat="38.14959034168083" lon="15.831916240816597"><ele>1352.2</ele><time>2026-04-25T11:41:44.999Z</time></trkpt><trkpt lat="38.14969386206516" lon="15.831956946581414"><ele>1353.0</ele><time>2026-04-25T11:41:45.999Z</time></trkpt><trkpt lat="38.149804166442344" lon="15.831962945599871"><ele>1353.25</ele><time>2026-04-25T11:41:46.999Z</time></trkpt><trkpt lat="38.149919578051296" lon="15.831960161123611"><ele>1353.5</ele><time>2026-04-25T11:41:47.999Z</time></trkpt><trkpt lat="38.15004295509135" lon="15.831963015016342"><ele>1353.75</ele><time>2026-04-25T11:41:48.999Z</time></trkpt><trkpt lat="38.150149819980996" lon="15.831903970859313"><ele>1354.0</ele><time>2026-04-25T11:41:49.999Z</time></trkpt><trkpt lat="38.150255416519556" lon="15.831841309624002"><ele>1351.6</ele><time>2026-04-25T11:41:50.999Z</time></trkpt><trkpt lat="38.15035774166013" lon="15.831740519554145"><ele>1349.2</ele><time>2026-04-25T11:41:51.999Z</time></trkpt><trkpt lat="38.15043827325384" lon="15.831648655248474"><ele>1346.8</ele><time>2026-04-25T11:41:52.999Z</time></trkpt><trkpt lat="38.15052806098614" lon="15.83159289491674"><ele>1344.3999999999999</ele><time>2026-04-25T11:41:53.999Z</time></trkpt><trkpt lat="38.150622823491865" lon="15.831576352077136"><ele>1342.0</ele><time>2026-04-25T11:41:54.999Z</time></trkpt><trkpt lat="38.150707714198504" lon="15.831608096652914"><ele>1343.0</ele><time>2026-04-25T11:41:55.999Z</time></trkpt><trkpt lat="38.15081247642301" lon="15.831654339399158"><ele>1344.0</ele><time>2026-04-25T11:41:56.999Z</time></trkpt><trkpt lat="38.15089475953897" lon="15.831734470646648"><ele>1345.0</ele><time>2026-04-25T11:41:57.999Z</time></trkpt><trkpt lat="38.15097646716399" lon="15.831823247329702"><ele>1346.0</ele><time>2026-04-25T11:41:58.999Z</time></trkpt><trkpt lat="38.151066710930735" lon="15.831890089430573"><ele>1347.0</ele><time>2026-04-25T11:41:59.999Z</time></trkpt><trkpt lat="38.15116951404921" lon="15.831898389877606"><ele>1347.0</ele><time>2026-04-25T11:42:00.999Z</time></trkpt><trkpt lat="38.151273218442924" lon="15.831872541989766"><ele>1347.0</ele><time>2026-04-25T11:42:01.999Z</time></trkpt><trkpt lat="38.15137496691636" lon="15.831824245963215"><ele>1347.0</ele><time>2026-04-25T11:42:02.999Z</time></trkpt><trkpt lat="38.15146405730913" lon="15.831751281150456"><ele>1347.0</ele><time>2026-04-25T11:42:03.999Z</time></trkpt><trkpt lat="38.15153728203072" lon="15.831686442657551"><ele>1347.0</ele><time>2026-04-25T11:42:04.999Z</time></trkpt><trkpt lat="38.15160677935694" lon="15.831626766446227"><ele>1347.6</ele><time>2026-04-25T11:42:05.999Z</time></trkpt><trkpt lat="38.151697099318035" lon="15.831599826285238"><ele>1348.1999999999998</ele><time>2026-04-25T11:42:06.999Z</time></trkpt><trkpt lat="38.15179913929822" lon="15.831611136714175"><ele>1348.8</ele><time>2026-04-25T11:42:07.999Z</time></trkpt><trkpt lat="38.151900644702906" lon="15.831647042133818"><ele>1349.4</ele><time>2026-04-25T11:42:08.999Z</time></trkpt><trkpt lat="38.15201624959335" lon="15.831692767241742"><ele>1350.0</ele><time>2026-04-25T11:42:09.999Z</time></trkpt><trkpt lat="38.15212721574659" lon="15.831732954134457"><ele>1350.0</ele><time>2026-04-25T11:42:10.999Z</time></trkpt><trkpt lat="38.15223201095806" lon="15.831765321129387"><ele>1350.0</ele><time>2026-04-25T11:42:11.999Z</time></trkpt><trkpt lat="38.15235525280016" lon="15.831792565126557"><ele>1350.0</ele><time>2026-04-25T11:42:12.999Z</time></trkpt><trkpt lat="38.15246095872749" lon="15.831810997704824"><ele>1350.0</ele><time>2026-04-25T11:42:13.999Z</time></trkpt><trkpt lat="38.15257332569075" lon="15.83185649498634"><ele>1351.8</ele><time>2026-04-25T11:42:14.999Z</time></trkpt><trkpt lat="38.152686120197075" lon="15.8318988075789"><ele>1353.6</ele><time>2026-04-25T11:42:15.999Z</time></trkpt><trkpt lat="38.152795303863094" lon="15.83193704313554"><ele>1355.4</ele><time>2026-04-25T11:42:16.999Z</time></trkpt><trkpt lat="38.15289793002497" lon="15.831970818693659"><ele>1357.2</ele><time>2026-04-25T11:42:17.999Z</time></trkpt><trkpt lat="38.15300390557404" lon="15.832006061687336"><ele>1359.0</ele><time>2026-04-25T11:42:18.999Z</time></trkpt><trkpt lat="38.15312844312622" lon="15.832036624786745"><ele>1357.0</ele><time>2026-04-25T11:42:19.999Z</time></trkpt><trkpt lat="38.15324806900816" lon="15.832073332607719"><ele>1355.0</ele><time>2026-04-25T11:42:20.999Z</time></trkpt><trkpt lat="38.15335244234163" lon="15.832107080616288"><ele>1353.0</ele><time>2026-04-25T11:42:21.999Z</time></trkpt><trkpt lat="38.15347647682648" lon="15.832142397814563"><ele>1351.0</ele><time>2026-04-25T11:42:22.999Z</time></trkpt><trkpt lat="38.15359873684368" lon="15.832185276810986"><ele>1351.0</ele><time>2026-04-25T11:42:23.999Z</time></trkpt><trkpt lat="38.15372831802672" lon="15.832222028121816"><ele>1351.0</ele><time>2026-04-25T11:42:24.999Z</time></trkpt><trkpt lat="38.15385807261029" lon="15.832261957505217"><ele>1351.0</ele><time>2026-04-25T11:42:25.999Z</time></trkpt><trkpt lat="38.15399011884558" lon="15.83230170919136"><ele>1351.0</ele><time>2026-04-25T11:42:26.999Z</time></trkpt><trkpt lat="38.15412686383718" lon="15.832338493279035"><ele>1351.5</ele><time>2026-04-25T11:42:27.999Z</time></trkpt><trkpt lat="38.15427225851123" lon="15.832372592143823"><ele>1352.0</ele><time>2026-04-25T11:42:28.999Z</time></trkpt><trkpt lat="38.15442057492889" lon="15.832407457248655"><ele>1352.5</ele><time>2026-04-25T11:42:29.999Z</time></trkpt><trkpt lat="38.154566725889055" lon="15.832448450787593"><ele>1353.0</ele><time>2026-04-25T11:42:30.999Z</time></trkpt><trkpt lat="38.15471226958289" lon="15.832490684856909"><ele>1353.0</ele><time>2026-04-25T11:42:31.999Z</time></trkpt><trkpt lat="38.154861797578896" lon="15.832544209424126"><ele>1353.0</ele><time>2026-04-25T11:42:32.999Z</time></trkpt><trkpt lat="38.155008978336696" lon="15.83259460912553"><ele>1353.0</ele><time>2026-04-25T11:42:33.999Z</time></trkpt><trkpt lat="38.155152729273524" lon="15.83264714018333"><ele>1354.75</ele><time>2026-04-25T11:42:34.999Z</time></trkpt><trkpt lat="38.1552958983158" lon="15.832705887587975"><ele>1356.5</ele><time>2026-04-25T11:42:35.999Z</time></trkpt><trkpt lat="38.155434967541495" lon="15.83277858240303"><ele>1358.25</ele><time>2026-04-25T11:42:36.999Z</time></trkpt><trkpt lat="38.15556394686967" lon="15.832854373968619"><ele>1360.0</ele><time>2026-04-25T11:42:37.999Z</time></trkpt><trkpt lat="38.15567516555917" lon="15.832930503431458"><ele>1359.4</ele><time>2026-04-25T11:42:38.999Z</time></trkpt><trkpt lat="38.155765535438086" lon="15.832991520584358"><ele>1358.8</ele><time>2026-04-25T11:42:39.999Z</time></trkpt><trkpt lat="38.15585460738023" lon="15.833050275459314"><ele>1358.1999999999998</ele><time>2026-04-25T11:42:40.999Z</time></trkpt><trkpt lat="38.15595360444549" lon="15.833081485934414"><ele>1357.6</ele><time>2026-04-25T11:42:41.999Z</time></trkpt><trkpt lat="38.15606532633121" lon="15.833113222386242"><ele>1357.0</ele><time>2026-04-25T11:42:42.999Z</time></trkpt><trkpt lat="38.156189789467064" lon="15.833128925731575"><ele>1357.0</ele><time>2026-04-25T11:42:43.999Z</time></trkpt><trkpt lat="38.15630650396238" lon="15.833143012280047"><ele>1357.0</ele><time>2026-04-25T11:42:44.999Z</time></trkpt><trkpt lat="38.156436603200746" lon="15.833153509081653"><ele>1357.0</ele><time>2026-04-25T11:42:45.999Z</time></trkpt><trkpt lat="38.15656832901165" lon="15.833167947653779"><ele>1357.0</ele><time>2026-04-25T11:42:46.999Z</time></trkpt><trkpt lat="38.156709623921145" lon="15.833180382111733"><ele>1356.75</ele><time>2026-04-25T11:42:47.999Z</time></trkpt><trkpt lat="38.156855607150185" lon="15.833197366449847"><ele>1356.5</ele><time>2026-04-25T11:42:48.999Z</time></trkpt><trkpt lat="38.1569990453912" lon="15.833217721694362"><ele>1356.25</ele><time>2026-04-25T11:42:49.999Z</time></trkpt><trkpt lat="38.157145399557514" lon="15.833240879946027"><ele>1356.0</ele><time>2026-04-25T11:42:50.999Z</time></trkpt><trkpt lat="38.15728366583866" lon="15.833256398403051"><ele>1355.5</ele><time>2026-04-25T11:42:51.999Z</time></trkpt><trkpt lat="38.15740939351129" lon="15.833265003426899"><ele>1355.0</ele><time>2026-04-25T11:42:52.998Z</time></trkpt><trkpt lat="38.157520616253" lon="15.833271001685665"><ele>1354.5</ele><time>2026-04-25T11:42:53.998Z</time></trkpt><trkpt lat="38.15762706158018" lon="15.833300233649817"><ele>1354.0</ele><time>2026-04-25T11:42:54.998Z</time></trkpt><trkpt lat="38.157730688463424" lon="15.833293408809496"><ele>1354.0</ele><time>2026-04-25T11:42:55.998Z</time></trkpt><trkpt lat="38.157832675949884" lon="15.83331588182214"><ele>1354.0</ele><time>2026-04-25T11:42:56.998Z</time></trkpt><trkpt lat="38.15793562909198" lon="15.833330640725102"><ele>1354.0</ele><time>2026-04-25T11:42:57.998Z</time></trkpt><trkpt lat="38.158041310884286" lon="15.833330502971144"><ele>1354.0</ele><time>2026-04-25T11:42:58.998Z</time></trkpt><trkpt lat="38.158154360170144" lon="15.833355429339441"><ele>1354.0</ele><time>2026-04-25T11:42:59.998Z</time></trkpt><trkpt lat="38.158260006190204" lon="15.83336147203076"><ele>1353.4</ele><time>2026-04-25T11:43:01Z</time></trkpt><trkpt lat="38.15837084202698" lon="15.833353562557793"><ele>1352.8000000000002</ele><time>2026-04-25T11:43:02Z</time></trkpt><trkpt lat="38.15848643179918" lon="15.833380464846146"><ele>1352.1999999999998</ele><time>2026-04-25T11:43:03Z</time></trkpt><trkpt lat="38.15859525700865" lon="15.83339263711098"><ele>1351.6</ele><time>2026-04-25T11:43:04Z</time></trkpt><trkpt lat="38.158696890013985" lon="15.833386179503632"><ele>1351.0</ele><time>2026-04-25T11:43:05Z</time></trkpt><trkpt lat="38.15880411450929" lon="15.833378698778075"><ele>1351.0</ele><time>2026-04-25T11:43:06Z</time></trkpt><trkpt lat="38.158915129025985" lon="15.83338977518612"><ele>1351.0</ele><time>2026-04-25T11:43:07Z</time></trkpt><trkpt lat="38.15902776641084" lon="15.83339906476976"><ele>1351.0</ele><time>2026-04-25T11:43:08Z</time></trkpt><trkpt lat="38.159138126373726" lon="15.833405177010922"><ele>1351.0</ele><time>2026-04-25T11:43:09Z</time></trkpt><trkpt lat="38.15925043894041" lon="15.833405278099306"><ele>1351.0</ele><time>2026-04-25T11:43:10Z</time></trkpt><trkpt lat="38.159372823691314" lon="15.833409791963387"><ele>1350.5</ele><time>2026-04-25T11:43:11Z</time></trkpt><trkpt lat="38.15948297109616" lon="15.833417400512227"><ele>1350.0</ele><time>2026-04-25T11:43:12Z</time></trkpt><trkpt lat="38.15960484126939" lon="15.833420226832494"><ele>1349.5</ele><time>2026-04-25T11:43:13Z</time></trkpt><trkpt lat="38.15972982659646" lon="15.833429400108106"><ele>1349.0</ele><time>2026-04-25T11:43:14Z</time></trkpt><trkpt lat="38.15985165429974" lon="15.833437934554743"><ele>1347.75</ele><time>2026-04-25T11:43:15Z</time></trkpt><trkpt lat="38.159977075005436" lon="15.833444353382786"><ele>1346.5</ele><time>2026-04-25T11:43:16Z</time></trkpt><trkpt lat="38.16010950591085" lon="15.83345291351661"><ele>1345.25</ele><time>2026-04-25T11:43:17Z</time></trkpt><trkpt lat="38.1602349215032" lon="15.833460724808969"><ele>1344.0</ele><time>2026-04-25T11:43:18Z</time></trkpt><trkpt lat="38.16035692674894" lon="15.833465544636784"><ele>1344.0</ele><time>2026-04-25T11:43:19Z</time></trkpt><trkpt lat="38.160473182088914" lon="15.833466009155755"><ele>1344.0</ele><time>2026-04-25T11:43:20Z</time></trkpt><trkpt lat="38.16058449880967" lon="15.833467129348167"><ele>1344.0</ele><time>2026-04-25T11:43:21Z</time></trkpt><trkpt lat="38.16069568007485" lon="15.833459673860037"><ele>1344.0</ele><time>2026-04-25T11:43:22Z</time></trkpt><trkpt lat="38.16080686962414" lon="15.833470857578723"><ele>1345.0</ele><time>2026-04-25T11:43:22.999Z</time></trkpt><trkpt lat="38.16092012704007" lon="15.833503413189021"><ele>1346.0</ele><time>2026-04-25T11:43:23.999Z</time></trkpt><trkpt lat="38.161009787473695" lon="15.833562502298282"><ele>1347.0</ele><time>2026-04-25T11:43:24.999Z</time></trkpt><trkpt lat="38.1610826121905" lon="15.833642193531043"><ele>1348.0</ele><time>2026-04-25T11:43:25.999Z</time></trkpt><trkpt lat="38.16113335996686" lon="15.833762762605538"><ele>1349.0</ele><time>2026-04-25T11:43:26.999Z</time></trkpt><trkpt lat="38.161178904151136" lon="15.833917882629299"><ele>1349.0</ele><time>2026-04-25T11:43:27.999Z</time></trkpt><trkpt lat="38.16121772826216" lon="15.834058315839261"><ele>1349.0</ele><time>2026-04-25T11:43:28.999Z</time></trkpt><trkpt lat="38.16125960406153" lon="15.83419033386552"><ele>1349.0</ele><time>2026-04-25T11:43:29.999Z</time></trkpt><trkpt lat="38.161301559560755" lon="15.83432392926209"><ele>1349.0</ele><time>2026-04-25T11:43:31Z</time></trkpt><trkpt lat="38.16134352969823" lon="15.834448146902226"><ele>1349.0</ele><time>2026-04-25T11:43:32Z</time></trkpt><trkpt lat="38.161397625941596" lon="15.83455980005076"><ele>1348.0</ele><time>2026-04-25T11:43:33Z</time></trkpt><trkpt lat="38.16146000565465" lon="15.834660147866709"><ele>1347.0</ele><time>2026-04-25T11:43:34Z</time></trkpt><trkpt lat="38.16152954840341" lon="15.834755548850767"><ele>1346.0</ele><time>2026-04-25T11:43:35Z</time></trkpt><trkpt lat="38.16159675008537" lon="15.834845998153856"><ele>1345.0</ele><time>2026-04-25T11:43:36Z</time></trkpt><trkpt lat="38.1616597062294" lon="15.834932019423393"><ele>1344.0</ele><time>2026-04-25T11:43:37Z</time></trkpt><trkpt lat="38.161699515495705" lon="15.83502964645858"><ele>1343.6</ele><time>2026-04-25T11:43:38Z</time></trkpt><trkpt lat="38.1617238367006" lon="15.835137961835258"><ele>1343.2</ele><time>2026-04-25T11:43:39Z</time></trkpt><trkpt lat="38.16173943004751" lon="15.835264072221792"><ele>1342.8</ele><time>2026-04-25T11:43:40Z</time></trkpt><trkpt lat="38.161738340060914" lon="15.835378507004863"><ele>1342.3999999999999</ele><time>2026-04-25T11:43:41Z</time></trkpt><trkpt lat="38.16172820132592" lon="15.835505527692698"><ele>1342.0</ele><time>2026-04-25T11:43:42Z</time></trkpt><trkpt lat="38.16171828001094" lon="15.835639778689263"><ele>1342.0</ele><time>2026-04-25T11:43:43Z</time></trkpt><trkpt lat="38.16170628709629" lon="15.835780029753295"><ele>1342.0</ele><time>2026-04-25T11:43:44Z</time></trkpt><trkpt lat="38.161677737382455" lon="15.835930131905247"><ele>1342.0</ele><time>2026-04-25T11:43:45Z</time></trkpt><trkpt lat="38.16162507774579" lon="15.836091541693994"><ele>1342.0</ele><time>2026-04-25T11:43:46Z</time></trkpt><trkpt lat="38.16157248282476" lon="15.83624954451321"><ele>1341.6666666666665</ele><time>2026-04-25T11:43:47Z</time></trkpt><trkpt lat="38.161531483726876" lon="15.83638278864754"><ele>1341.3333333333333</ele><time>2026-04-25T11:43:48Z</time></trkpt><trkpt lat="38.16150968446174" lon="15.836502647789244"><ele>1341.0</ele><time>2026-04-25T11:43:49Z</time></trkpt><trkpt lat="38.1614925549797" lon="15.836609629160993"><ele>1340.6666666666667</ele><time>2026-04-25T11:43:50Z</time></trkpt><trkpt lat="38.161504879338274" lon="15.836697629506187"><ele>1340.3333333333335</ele><time>2026-04-25T11:43:51Z</time></trkpt><trkpt lat="38.16155949820648" lon="15.836765147407506"><ele>1340.0</ele><time>2026-04-25T11:43:52Z</time></trkpt><trkpt lat="38.16163531336005" lon="15.836808928073204"><ele>1340.0</ele><time>2026-04-25T11:43:53Z</time></trkpt><trkpt lat="38.16172890450086" lon="15.836794348966533"><ele>1340.0</ele><time>2026-04-25T11:43:54Z</time></trkpt><trkpt lat="38.16183482651816" lon="15.836756590286397"><ele>1340.0</ele><time>2026-04-25T11:43:55Z</time></trkpt><trkpt lat="38.16194687833482" lon="15.836748433406838"><ele>1340.0</ele><time>2026-04-25T11:43:56Z</time></trkpt><trkpt lat="38.16205051439345" lon="15.836705796713655"><ele>1340.0</ele><time>2026-04-25T11:43:57Z</time></trkpt><trkpt lat="38.162132368927445" lon="15.8366091132409"><ele>1340.0</ele><time>2026-04-25T11:43:58Z</time></trkpt><trkpt lat="38.162191679171926" lon="15.836502176704057"><ele>1340.0</ele><time>2026-04-25T11:43:59Z</time></trkpt><trkpt lat="38.16224687498255" lon="15.83638904265961"><ele>1340.0</ele><time>2026-04-25T11:44:00Z</time></trkpt><trkpt lat="38.16234341415392" lon="15.836155316882683"><ele>1340.0</ele><time>2026-04-25T11:44:02Z</time></trkpt><trkpt lat="38.16241991387169" lon="15.836052782205718"><ele>1336.0</ele><time>2026-04-25T11:44:03Z</time></trkpt><trkpt lat="38.16252667854694" lon="15.835943786099495"><ele>1332.0</ele><time>2026-04-25T11:44:04Z</time></trkpt><trkpt lat="38.16265060721127" lon="15.835824693916502"><ele>1328.0</ele><time>2026-04-25T11:44:05Z</time></trkpt><trkpt lat="38.16276017172262" lon="15.835669731115901"><ele>1328.0</ele><time>2026-04-25T11:44:06Z</time></trkpt><trkpt lat="38.1628575198521" lon="15.835495623998865"><ele>1328.0</ele><time>2026-04-25T11:44:07Z</time></trkpt><trkpt lat="38.16295365754038" lon="15.835316314992614"><ele>1328.0</ele><time>2026-04-25T11:44:08Z</time></trkpt><trkpt lat="38.163048803595615" lon="15.83513483227234"><ele>1328.75</ele><time>2026-04-25T11:44:09Z</time></trkpt><trkpt lat="38.16314517242218" lon="15.834962001239255"><ele>1329.5</ele><time>2026-04-25T11:44:10Z</time></trkpt><trkpt lat="38.16323612237275" lon="15.834828882177053"><ele>1330.25</ele><time>2026-04-25T11:44:11Z</time></trkpt><trkpt lat="38.16333506129394" lon="15.834711621581256"><ele>1331.0</ele><time>2026-04-25T11:44:12Z</time></trkpt><trkpt lat="38.16345461619732" lon="15.834602022168799"><ele>1331.0</ele><time>2026-04-25T11:44:13Z</time></trkpt><trkpt lat="38.16358934598081" lon="15.83451329601587"><ele>1331.0</ele><time>2026-04-25T11:44:14Z</time></trkpt><trkpt lat="38.16373887492257" lon="15.834442048887933"><ele>1331.0</ele><time>2026-04-25T11:44:15Z</time></trkpt><trkpt lat="38.16390078682297" lon="15.834418447081227"><ele>1329.0</ele><time>2026-04-25T11:44:16Z</time></trkpt><trkpt lat="38.16405414506446" lon="15.834375845096401"><ele>1327.0</ele><time>2026-04-25T11:44:17Z</time></trkpt><trkpt lat="38.1641987029374" lon="15.834327866701718"><ele>1325.0</ele><time>2026-04-25T11:44:18Z</time></trkpt><trkpt lat="38.16433930891335" lon="15.834289272698975"><ele>1325.0</ele><time>2026-04-25T11:44:19Z</time></trkpt><trkpt lat="38.164466186722144" lon="15.834256367430728"><ele>1325.0</ele><time>2026-04-25T11:44:20Z</time></trkpt><trkpt lat="38.16458217266804" lon="15.834250309738"><ele>1325.0</ele><time>2026-04-25T11:44:21Z</time></trkpt><trkpt lat="38.1646864665051" lon="15.834255900355949"><ele>1325.0</ele><time>2026-04-25T11:44:22Z</time></trkpt><trkpt lat="38.164765544600066" lon="15.834313293710787"><ele>1325.0</ele><time>2026-04-25T11:44:23Z</time></trkpt><trkpt lat="38.16482601389882" lon="15.834410536015925"><ele>1326.6</ele><time>2026-04-25T11:44:24Z</time></trkpt><trkpt lat="38.16486685929467" lon="15.834532975059874"><ele>1328.2</ele><time>2026-04-25T11:44:25Z</time></trkpt><trkpt lat="38.164846300311474" lon="15.834681736945779"><ele>1329.8000000000002</ele><time>2026-04-25T11:44:26Z</time></trkpt><trkpt lat="38.16485891622374" lon="15.834829476986576"><ele>1331.4</ele><time>2026-04-25T11:44:27Z</time></trkpt><trkpt lat="38.164854797680896" lon="15.834946450464265"><ele>1333.0</ele><time>2026-04-25T11:44:28Z</time></trkpt><trkpt lat="38.16489582162285" lon="15.835030152200867"><ele>1333.0</ele><time>2026-04-25T11:44:29Z</time></trkpt><trkpt lat="38.16495624480537" lon="15.835095526672387"><ele>1333.0</ele><time>2026-04-25T11:44:30Z</time></trkpt><trkpt lat="38.165052268928015" lon="15.835122152247186"><ele>1333.0</ele><time>2026-04-25T11:44:31Z</time></trkpt><trkpt lat="38.16515284491594" lon="15.835118867749038"><ele>1333.0</ele><time>2026-04-25T11:44:32Z</time></trkpt><trkpt lat="38.165248363581405" lon="15.83503499427018"><ele>1333.0</ele><time>2026-04-25T11:44:33Z</time></trkpt><trkpt lat="38.16533917657066" lon="15.834902263365434"><ele>1333.0</ele><time>2026-04-25T11:44:34Z</time></trkpt><trkpt lat="38.16544378341502" lon="15.834735980057859"><ele>1333.0</ele><time>2026-04-25T11:44:35Z</time></trkpt><trkpt lat="38.16555372389828" lon="15.83457803226699"><ele>1333.0</ele><time>2026-04-25T11:44:36Z</time></trkpt><trkpt lat="38.1656566505477" lon="15.834467614039431"><ele>1331.8000000000002</ele><time>2026-04-25T11:44:37Z</time></trkpt><trkpt lat="38.16574989839679" lon="15.834390715458069"><ele>1330.6</ele><time>2026-04-25T11:44:38Z</time></trkpt><trkpt lat="38.1658439645384" lon="15.834353556512434"><ele>1329.4</ele><time>2026-04-25T11:44:39Z</time></trkpt><trkpt lat="38.165952634946755" lon="15.834355637040703"><ele>1328.1999999999998</ele><time>2026-04-25T11:44:40Z</time></trkpt><trkpt lat="38.16606713017133" lon="15.834390161468333"><ele>1327.0</ele><time>2026-04-25T11:44:41Z</time></trkpt><trkpt lat="38.16616849580989" lon="15.834476190880814"><ele>1327.0</ele><time>2026-04-25T11:44:42Z</time></trkpt><trkpt lat="38.166286169340445" lon="15.83454206073905"><ele>1327.0</ele><time>2026-04-25T11:44:43Z</time></trkpt><trkpt lat="38.16638489297119" lon="15.834639913445308"><ele>1327.0</ele><time>2026-04-25T11:44:44Z</time></trkpt><trkpt lat="38.16648228885338" lon="15.834716853498042"><ele>1327.0</ele><time>2026-04-25T11:44:45Z</time></trkpt><trkpt lat="38.166566603224396" lon="15.83478666802042"><ele>1325.8333333333333</ele><time>2026-04-25T11:44:46Z</time></trkpt><trkpt lat="38.1666470040171" lon="15.834853945122079"><ele>1324.6666666666665</ele><time>2026-04-25T11:44:47Z</time></trkpt><trkpt lat="38.1667107764708" lon="15.83492370930337"><ele>1323.5</ele><time>2026-04-25T11:44:48Z</time></trkpt><trkpt lat="38.16676641392521" lon="15.834998605358775"><ele>1322.3333333333333</ele><time>2026-04-25T11:44:49Z</time></trkpt><trkpt lat="38.16681774526176" lon="15.835065785101945"><ele>1321.1666666666667</ele><time>2026-04-25T11:44:50Z</time></trkpt><trkpt lat="38.16686585646326" lon="15.835131336217088"><ele>1320.0</ele><time>2026-04-25T11:44:51Z</time></trkpt><trkpt lat="38.1669166177605" lon="15.835195993468668"><ele>1320.0</ele><time>2026-04-25T11:44:51.999Z</time></trkpt><trkpt lat="38.166962901706526" lon="15.835261228112532"><ele>1320.0</ele><time>2026-04-25T11:44:52.999Z</time></trkpt><trkpt lat="38.167002455689826" lon="15.835333979191722"><ele>1320.0</ele><time>2026-04-25T11:44:53.999Z</time></trkpt><trkpt lat="38.16703316648619" lon="15.835410397529426"><ele>1320.0</ele><time>2026-04-25T11:44:54.999Z</time></trkpt><trkpt lat="38.16706053983492" lon="15.835484564360202"><ele>1320.0</ele><time>2026-04-25T11:44:55.999Z</time></trkpt><trkpt lat="38.16710699367674" lon="15.835591895641722"><ele>1320.0</ele><time>2026-04-25T11:44:57.999Z</time></trkpt><trkpt lat="38.16715061299876" lon="15.835743316725392"><ele>1320.0</ele><time>2026-04-25T11:44:59.999Z</time></trkpt><trkpt lat="38.16718556595054" lon="15.835838262313372"><ele>1320.0</ele><time>2026-04-25T11:45:00.999Z</time></trkpt><trkpt lat="38.167218944313404" lon="15.835911076349225"><ele>1320.0</ele><time>2026-04-25T11:45:01.999Z</time></trkpt><trkpt lat="38.16721549757195" lon="15.836056567997936"><ele>1320.0</ele><time>2026-04-25T11:45:03.999Z</time></trkpt><trkpt lat="38.16713926197021" lon="15.836188281352113"><ele>1320.0</ele><time>2026-04-25T11:45:05.999Z</time></trkpt><trkpt lat="38.1670636148106" lon="15.836256014962801"><ele>1320.25</ele><time>2026-04-25T11:45:08.001Z</time></trkpt><trkpt lat="38.166955301639184" lon="15.836316078061369"><ele>1320.5</ele><time>2026-04-25T11:45:10.001Z</time></trkpt><trkpt lat="38.16686884030754" lon="15.836398608239998"><ele>1320.75</ele><time>2026-04-25T11:45:11.001Z</time></trkpt><trkpt lat="38.166764084808435" lon="15.836512405261777"><ele>1321.0</ele><time>2026-04-25T11:45:12.001Z</time></trkpt><trkpt lat="38.16669098695261" lon="15.836606556078733"><ele>1321.0</ele><time>2026-04-25T11:45:13.001Z</time></trkpt><trkpt lat="38.166620366504034" lon="15.836668158442006"><ele>1321.0</ele><time>2026-04-25T11:45:15.001Z</time></trkpt><trkpt lat="38.166672252819005" lon="15.836895254516014"><ele>1321.0</ele><time>2026-04-25T11:45:17.001Z</time></trkpt><trkpt lat="38.16669181086244" lon="15.836974602138804"><ele>1321.0</ele><time>2026-04-25T11:45:19.001Z</time></trkpt><trkpt lat="38.166568758840405" lon="15.837113446599963"><ele>1323.25</ele><time>2026-04-25T11:45:20.001Z</time></trkpt><trkpt lat="38.166502322215585" lon="15.837227764701128"><ele>1325.5</ele><time>2026-04-25T11:45:21.001Z</time></trkpt><trkpt lat="38.16642105956648" lon="15.837374015407235"><ele>1327.75</ele><time>2026-04-25T11:45:22.001Z</time></trkpt><trkpt lat="38.1663233271335" lon="15.837567972314677"><ele>1330.0</ele><time>2026-04-25T11:45:23.001Z</time></trkpt><trkpt lat="38.16621957954731" lon="15.837788953937023"><ele>1332.6666666666665</ele><time>2026-04-25T11:45:24Z</time></trkpt><trkpt lat="38.166132952817826" lon="15.837980048293552"><ele>1335.3333333333333</ele><time>2026-04-25T11:45:25Z</time></trkpt><trkpt lat="38.1660530050428" lon="15.838148905943171"><ele>1338.0</ele><time>2026-04-25T11:45:26Z</time></trkpt><trkpt lat="38.1659678403609" lon="15.838311004516406"><ele>1341.0</ele><time>2026-04-25T11:45:27Z</time></trkpt><trkpt lat="38.165881520830574" lon="15.838477055311603"><ele>1344.0</ele><time>2026-04-25T11:45:28Z</time></trkpt><trkpt lat="38.16579287545127" lon="15.838649625104702"><ele>1347.0</ele><time>2026-04-25T11:45:29Z</time></trkpt><trkpt lat="38.165698712556654" lon="15.838817262568732"><ele>1348.0</ele><time>2026-04-25T11:45:30Z</time></trkpt><trkpt lat="38.165602502409676" lon="15.838975694602402"><ele>1349.0</ele><time>2026-04-25T11:45:31Z</time></trkpt><trkpt lat="38.16551764441499" lon="15.839120342242039"><ele>1350.0</ele><time>2026-04-25T11:45:32Z</time></trkpt><trkpt lat="38.165417996097204" lon="15.839241432073718"><ele>1351.0</ele><time>2026-04-25T11:45:33Z</time></trkpt><trkpt lat="38.16532055824438" lon="15.839366143872436"><ele>1352.6</ele><time>2026-04-25T11:45:34Z</time></trkpt><trkpt lat="38.165241720183886" lon="15.839491697910677"><ele>1354.1999999999998</ele><time>2026-04-25T11:45:35Z</time></trkpt><trkpt lat="38.16519946867803" lon="15.839594485126673"><ele>1355.8000000000002</ele><time>2026-04-25T11:45:36Z</time></trkpt><trkpt lat="38.16513309502765" lon="15.839676693616177"><ele>1357.4</ele><time>2026-04-25T11:45:37Z</time></trkpt><trkpt lat="38.16510237031802" lon="15.839811118342318"><ele>1359.0</ele><time>2026-04-25T11:45:38Z</time></trkpt><trkpt lat="38.165087473455095" lon="15.839980939490484"><ele>1361.25</ele><time>2026-04-25T11:45:39Z</time></trkpt><trkpt lat="38.16507661552538" lon="15.840182510567518"><ele>1363.5</ele><time>2026-04-25T11:45:40Z</time></trkpt><trkpt lat="38.16505986721255" lon="15.840360669133334"><ele>1365.75</ele><time>2026-04-25T11:45:41Z</time></trkpt><trkpt lat="38.16504274664939" lon="15.840484988835742"><ele>1368.0</ele><time>2026-04-25T11:45:42Z</time></trkpt><trkpt lat="38.165015096130304" lon="15.840587351755511"><ele>1368.0</ele><time>2026-04-25T11:45:43Z</time></trkpt><trkpt lat="38.1650037385565" lon="15.840673199144176"><ele>1368.0</ele><time>2026-04-25T11:45:44Z</time></trkpt><trkpt lat="38.16490404145727" lon="15.840645114914603"><ele>1368.0</ele><time>2026-04-25T11:45:49Z</time></trkpt><trkpt lat="38.16485307604729" lon="15.840559734883788"><ele>1368.0</ele><time>2026-04-25T11:45:50Z</time></trkpt><trkpt lat="38.16480488703825" lon="15.84046509630115"><ele>1368.0</ele><time>2026-04-25T11:45:52Z</time></trkpt><trkpt lat="38.16474706075541" lon="15.84041116704638"><ele>1368.0</ele><time>2026-04-25T11:45:55Z</time></trkpt><trkpt lat="38.164742629913874" lon="15.840311600070798"><ele>1368.0</ele><time>2026-04-25T11:45:58Z</time></trkpt></trkseg></trk></gpx>